<?xml version="1.0" encoding="UTF-8" standalone="no" ?>
<gpx xmlns="http://www.topografix.com/GPX/1/1" xmlns:xsi="http://www.w3.org/2001/XMLSchema-instance" xsi:schemaLocation="http://www.topografix.com/GPX/1/1 http://www.topografix.com/GPX/1/1/gpx.xsd" version="1.1" creator="VisuGPX - https://www.visugpx.com">
  <metadata>
    <name>Base VRTT Gevaudan Lagogne</name>
  </metadata>
  <trk>
    <name><![CDATA[ESI0330 - CIRCUIT DE BESSETTES]]></name>
    <extensions>
      <line xmlns="http://www.topografix.com/GPX/gpx_style/0/2">
        <color>0000FF</color>
        <width>4</width>
      </line>
    </extensions>
    <trkseg>
      <trkpt lat="44.73835" lon="3.78052">
        <ele>1016.9597167969</ele>
        <time>2020-10-16T11:54:33.000Z</time>
      </trkpt>
      <trkpt lat="44.73799" lon="3.78057">
        <ele>1019.150390625</ele>
        <time>2020-10-16T11:54:33.007Z</time>
      </trkpt>
      <trkpt lat="44.73785" lon="3.78054">
        <ele>1020.1033935547</ele>
        <time>2020-10-16T11:54:33.017Z</time>
      </trkpt>
      <trkpt lat="44.73722" lon="3.78005">
        <ele>1023.7369384766</ele>
        <time>2020-10-16T11:54:33.042Z</time>
      </trkpt>
      <trkpt lat="44.73694" lon="3.77996">
        <ele>1025.2646484375</ele>
        <time>2020-10-16T11:54:33.072Z</time>
      </trkpt>
      <trkpt lat="44.73638" lon="3.78019">
        <ele>1029.4943847656</ele>
        <time>2020-10-16T11:54:33.114Z</time>
      </trkpt>
      <trkpt lat="44.73596" lon="3.78012">
        <ele>1032.45703125</ele>
        <time>2020-10-16T11:54:33.164Z</time>
      </trkpt>
      <trkpt lat="44.73579" lon="3.78026">
        <ele>1033.2507324219</ele>
        <time>2020-10-16T11:54:33.218Z</time>
      </trkpt>
      <trkpt lat="44.73541" lon="3.78033">
        <ele>1035.9375</ele>
        <time>2020-10-16T11:54:33.280Z</time>
      </trkpt>
      <trkpt lat="44.73513" lon="3.78024">
        <ele>1038.7584228516</ele>
        <time>2020-10-16T11:54:33.348Z</time>
      </trkpt>
      <trkpt lat="44.73483" lon="3.78033">
        <ele>1042.3112792969</ele>
        <time>2020-10-16T11:54:33.422Z</time>
      </trkpt>
      <trkpt lat="44.7336" lon="3.78011">
        <ele>1047.4913330078</ele>
        <time>2020-10-16T11:54:33.521Z</time>
      </trkpt>
      <trkpt lat="44.73296" lon="3.78022">
        <ele>1049.6722412109</ele>
        <time>2020-10-16T11:54:33.633Z</time>
      </trkpt>
      <trkpt lat="44.73252" lon="3.78003">
        <ele>1052.3666992188</ele>
        <time>2020-10-16T11:54:33.754Z</time>
      </trkpt>
      <trkpt lat="44.73249" lon="3.78014">
        <ele>1052.1115722656</ele>
        <time>2020-10-16T11:54:33.877Z</time>
      </trkpt>
      <trkpt lat="44.73249" lon="3.78014">
        <ele>1052.1114501953</ele>
        <time>2020-10-16T11:54:34.000Z</time>
      </trkpt>
      <trkpt lat="44.73245" lon="3.78025">
        <ele>1051.8757324219</ele>
        <time>2020-10-16T11:54:34.124Z</time>
      </trkpt>
      <trkpt lat="44.73238" lon="3.78049">
        <ele>1051.3787841797</ele>
        <time>2020-10-16T11:54:34.252Z</time>
      </trkpt>
      <trkpt lat="44.73233" lon="3.78061">
        <ele>1051.078125</ele>
        <time>2020-10-16T11:54:34.382Z</time>
      </trkpt>
      <trkpt lat="44.73226" lon="3.78083">
        <ele>1050.2436523438</ele>
        <time>2020-10-16T11:54:34.515Z</time>
      </trkpt>
      <trkpt lat="44.73222" lon="3.781">
        <ele>1049.5806884766</ele>
        <time>2020-10-16T11:54:34.651Z</time>
      </trkpt>
      <trkpt lat="44.73218" lon="3.78117">
        <ele>1048.7796630859</ele>
        <time>2020-10-16T11:54:34.789Z</time>
      </trkpt>
      <trkpt lat="44.73211" lon="3.7813">
        <ele>1048.6854248047</ele>
        <time>2020-10-16T11:54:34.930Z</time>
      </trkpt>
      <trkpt lat="44.73207" lon="3.7814">
        <ele>1048.5715332031</ele>
        <time>2020-10-16T11:54:35.072Z</time>
      </trkpt>
      <trkpt lat="44.73206" lon="3.78151">
        <ele>1048.2203369141</ele>
        <time>2020-10-16T11:54:35.216Z</time>
      </trkpt>
      <trkpt lat="44.73206" lon="3.7817">
        <ele>1047.5201416016</ele>
        <time>2020-10-16T11:54:35.363Z</time>
      </trkpt>
      <trkpt lat="44.73207" lon="3.78189">
        <ele>1046.7547607422</ele>
        <time>2020-10-16T11:54:35.512Z</time>
      </trkpt>
      <trkpt lat="44.73209" lon="3.78206">
        <ele>1046.2379150391</ele>
        <time>2020-10-16T11:54:35.664Z</time>
      </trkpt>
      <trkpt lat="44.73207" lon="3.78217">
        <ele>1046.0906982422</ele>
        <time>2020-10-16T11:54:35.817Z</time>
      </trkpt>
      <trkpt lat="44.73205" lon="3.78233">
        <ele>1045.8668212891</ele>
        <time>2020-10-16T11:54:35.973Z</time>
      </trkpt>
      <trkpt lat="44.73203" lon="3.7825">
        <ele>1045.5965576172</ele>
        <time>2020-10-16T11:54:36.131Z</time>
      </trkpt>
      <trkpt lat="44.73201" lon="3.78261">
        <ele>1045.4681396484</ele>
        <time>2020-10-16T11:54:36.291Z</time>
      </trkpt>
      <trkpt lat="44.73197" lon="3.78274">
        <ele>1045.1654052734</ele>
        <time>2020-10-16T11:54:36.453Z</time>
      </trkpt>
      <trkpt lat="44.73187" lon="3.78298">
        <ele>1044.6716308594</ele>
        <time>2020-10-16T11:54:36.619Z</time>
      </trkpt>
      <trkpt lat="44.73184" lon="3.78308">
        <ele>1044.4102783203</ele>
        <time>2020-10-16T11:54:36.786Z</time>
      </trkpt>
      <trkpt lat="44.7318" lon="3.78326">
        <ele>1043.9283447266</ele>
        <time>2020-10-16T11:54:36.956Z</time>
      </trkpt>
      <trkpt lat="44.73179" lon="3.7834">
        <ele>1043.5428466797</ele>
        <time>2020-10-16T11:54:37.128Z</time>
      </trkpt>
      <trkpt lat="44.73181" lon="3.78366">
        <ele>1043.2471923828</ele>
        <time>2020-10-16T11:54:37.304Z</time>
      </trkpt>
      <trkpt lat="44.73181" lon="3.78389">
        <ele>1043.5026855469</ele>
        <time>2020-10-16T11:54:37.483Z</time>
      </trkpt>
      <trkpt lat="44.73181" lon="3.78398">
        <ele>1043.6090087891</ele>
        <time>2020-10-16T11:54:37.663Z</time>
      </trkpt>
      <trkpt lat="44.73181" lon="3.78409">
        <ele>1043.7657470703</ele>
        <time>2020-10-16T11:54:37.845Z</time>
      </trkpt>
      <trkpt lat="44.73179" lon="3.78418">
        <ele>1044.0494384766</ele>
        <time>2020-10-16T11:54:38.028Z</time>
      </trkpt>
      <trkpt lat="44.73178" lon="3.78428">
        <ele>1044.5487060547</ele>
        <time>2020-10-16T11:54:38.213Z</time>
      </trkpt>
      <trkpt lat="44.7318" lon="3.78444">
        <ele>1044.7670898438</ele>
        <time>2020-10-16T11:54:38.400Z</time>
      </trkpt>
      <trkpt lat="44.73186" lon="3.7846">
        <ele>1044.5775146484</ele>
        <time>2020-10-16T11:54:38.590Z</time>
      </trkpt>
      <trkpt lat="44.73185" lon="3.78472">
        <ele>1044.7486572266</ele>
        <time>2020-10-16T11:54:38.781Z</time>
      </trkpt>
      <trkpt lat="44.73183" lon="3.78496">
        <ele>1045.1831054688</ele>
        <time>2020-10-16T11:54:38.976Z</time>
      </trkpt>
      <trkpt lat="44.7318" lon="3.78519">
        <ele>1045.9616699219</ele>
        <time>2020-10-16T11:54:39.174Z</time>
      </trkpt>
      <trkpt lat="44.73178" lon="3.78536">
        <ele>1046.1989746094</ele>
        <time>2020-10-16T11:54:39.375Z</time>
      </trkpt>
      <trkpt lat="44.73173" lon="3.78556">
        <ele>1046.5629882812</ele>
        <time>2020-10-16T11:54:39.579Z</time>
      </trkpt>
      <trkpt lat="44.73168" lon="3.78587">
        <ele>1046.3701171875</ele>
        <time>2020-10-16T11:54:39.787Z</time>
      </trkpt>
      <trkpt lat="44.73162" lon="3.7862">
        <ele>1046.0258789062</ele>
        <time>2020-10-16T11:54:40.000Z</time>
      </trkpt>
      <trkpt lat="44.73158" lon="3.78648">
        <ele>1046.1568603516</ele>
        <time>2020-10-16T11:54:40.217Z</time>
      </trkpt>
      <trkpt lat="44.73154" lon="3.78683">
        <ele>1045.8634033203</ele>
        <time>2020-10-16T11:54:40.439Z</time>
      </trkpt>
      <trkpt lat="44.7315" lon="3.787">
        <ele>1044.9350585938</ele>
        <time>2020-10-16T11:54:40.664Z</time>
      </trkpt>
      <trkpt lat="44.73144" lon="3.78731">
        <ele>1043.7554931641</ele>
        <time>2020-10-16T11:54:40.893Z</time>
      </trkpt>
      <trkpt lat="44.73134" lon="3.78778">
        <ele>1043.3581542969</ele>
        <time>2020-10-16T11:54:41.129Z</time>
      </trkpt>
      <trkpt lat="44.73129" lon="3.78806">
        <ele>1041.6330566406</ele>
        <time>2020-10-16T11:54:41.369Z</time>
      </trkpt>
      <trkpt lat="44.73125" lon="3.78819">
        <ele>1040.7492675781</ele>
        <time>2020-10-16T11:54:41.611Z</time>
      </trkpt>
      <trkpt lat="44.7312" lon="3.78832">
        <ele>1039.9934082031</ele>
        <time>2020-10-16T11:54:41.856Z</time>
      </trkpt>
      <trkpt lat="44.73111" lon="3.78852">
        <ele>1039.5411376953</ele>
        <time>2020-10-16T11:54:42.104Z</time>
      </trkpt>
      <trkpt lat="44.73107" lon="3.7885">
        <ele>1040.2290039062</ele>
        <time>2020-10-16T11:54:42.353Z</time>
      </trkpt>
      <trkpt lat="44.73102" lon="3.78836">
        <ele>1041.5905761719</ele>
        <time>2020-10-16T11:54:42.604Z</time>
      </trkpt>
      <trkpt lat="44.73098" lon="3.78816">
        <ele>1043.7330322266</ele>
        <time>2020-10-16T11:54:42.858Z</time>
      </trkpt>
      <trkpt lat="44.73092" lon="3.78796">
        <ele>1046.0533447266</ele>
        <time>2020-10-16T11:54:43.115Z</time>
      </trkpt>
      <trkpt lat="44.73084" lon="3.78773">
        <ele>1048.7434082031</ele>
        <time>2020-10-16T11:54:43.375Z</time>
      </trkpt>
      <trkpt lat="44.73074" lon="3.78755">
        <ele>1050.2563476562</ele>
        <time>2020-10-16T11:54:43.639Z</time>
      </trkpt>
      <trkpt lat="44.7307" lon="3.78745">
        <ele>1050.8018798828</ele>
        <time>2020-10-16T11:54:43.904Z</time>
      </trkpt>
      <trkpt lat="44.73067" lon="3.78729">
        <ele>1051.3233642578</ele>
        <time>2020-10-16T11:54:44.172Z</time>
      </trkpt>
      <trkpt lat="44.73067" lon="3.78714">
        <ele>1051.5549316406</ele>
        <time>2020-10-16T11:54:44.442Z</time>
      </trkpt>
      <trkpt lat="44.73065" lon="3.78706">
        <ele>1051.9006347656</ele>
        <time>2020-10-16T11:54:44.713Z</time>
      </trkpt>
      <trkpt lat="44.73062" lon="3.78699">
        <ele>1052.3366699219</ele>
        <time>2020-10-16T11:54:44.985Z</time>
      </trkpt>
      <trkpt lat="44.7306" lon="3.78694">
        <ele>1052.7042236328</ele>
        <time>2020-10-16T11:54:45.258Z</time>
      </trkpt>
      <trkpt lat="44.73054" lon="3.78691">
        <ele>1053.3035888672</ele>
        <time>2020-10-16T11:54:45.532Z</time>
      </trkpt>
      <trkpt lat="44.73048" lon="3.78685">
        <ele>1054.0126953125</ele>
        <time>2020-10-16T11:54:45.808Z</time>
      </trkpt>
      <trkpt lat="44.73043" lon="3.7868">
        <ele>1054.5281982422</ele>
        <time>2020-10-16T11:54:46.085Z</time>
      </trkpt>
      <trkpt lat="44.73033" lon="3.7867">
        <ele>1055.0572509766</ele>
        <time>2020-10-16T11:54:46.365Z</time>
      </trkpt>
      <trkpt lat="44.73024" lon="3.78659">
        <ele>1054.8852539062</ele>
        <time>2020-10-16T11:54:46.647Z</time>
      </trkpt>
      <trkpt lat="44.73017" lon="3.78647">
        <ele>1054.7451171875</ele>
        <time>2020-10-16T11:54:46.931Z</time>
      </trkpt>
      <trkpt lat="44.73011" lon="3.78636">
        <ele>1054.6890869141</ele>
        <time>2020-10-16T11:54:47.217Z</time>
      </trkpt>
      <trkpt lat="44.73005" lon="3.78622">
        <ele>1054.6342773438</ele>
        <time>2020-10-16T11:54:47.505Z</time>
      </trkpt>
      <trkpt lat="44.72999" lon="3.78608">
        <ele>1054.5690917969</ele>
        <time>2020-10-16T11:54:47.796Z</time>
      </trkpt>
      <trkpt lat="44.72982" lon="3.78583">
        <ele>1054.8250732422</ele>
        <time>2020-10-16T11:54:48.092Z</time>
      </trkpt>
      <trkpt lat="44.72972" lon="3.78564">
        <ele>1055.1531982422</ele>
        <time>2020-10-16T11:54:48.391Z</time>
      </trkpt>
      <trkpt lat="44.72971" lon="3.78556">
        <ele>1055.3793945312</ele>
        <time>2020-10-16T11:54:48.691Z</time>
      </trkpt>
      <trkpt lat="44.7297" lon="3.78544">
        <ele>1055.740234375</ele>
        <time>2020-10-16T11:54:48.993Z</time>
      </trkpt>
      <trkpt lat="44.72967" lon="3.78531">
        <ele>1055.9163818359</ele>
        <time>2020-10-16T11:54:49.297Z</time>
      </trkpt>
      <trkpt lat="44.72964" lon="3.78513">
        <ele>1055.8532714844</ele>
        <time>2020-10-16T11:54:49.603Z</time>
      </trkpt>
      <trkpt lat="44.72965" lon="3.78494">
        <ele>1056.0734863281</ele>
        <time>2020-10-16T11:54:49.912Z</time>
      </trkpt>
      <trkpt lat="44.72965" lon="3.78473">
        <ele>1056.3010253906</ele>
        <time>2020-10-16T11:54:50.224Z</time>
      </trkpt>
      <trkpt lat="44.72965" lon="3.78453">
        <ele>1056.5614013672</ele>
        <time>2020-10-16T11:54:50.539Z</time>
      </trkpt>
      <trkpt lat="44.72964" lon="3.78435">
        <ele>1056.3916015625</ele>
        <time>2020-10-16T11:54:50.857Z</time>
      </trkpt>
      <trkpt lat="44.72962" lon="3.7842">
        <ele>1057.0645751953</ele>
        <time>2020-10-16T11:54:51.177Z</time>
      </trkpt>
      <trkpt lat="44.72957" lon="3.78394">
        <ele>1058.3850097656</ele>
        <time>2020-10-16T11:54:51.501Z</time>
      </trkpt>
      <trkpt lat="44.7295" lon="3.78373">
        <ele>1059.328125</ele>
        <time>2020-10-16T11:54:51.828Z</time>
      </trkpt>
      <trkpt lat="44.72942" lon="3.78359">
        <ele>1059.8441162109</ele>
        <time>2020-10-16T11:54:52.157Z</time>
      </trkpt>
      <trkpt lat="44.72933" lon="3.78344">
        <ele>1060.1300048828</ele>
        <time>2020-10-16T11:54:52.489Z</time>
      </trkpt>
      <trkpt lat="44.72921" lon="3.78323">
        <ele>1060.3868408203</ele>
        <time>2020-10-16T11:54:52.825Z</time>
      </trkpt>
      <trkpt lat="44.72911" lon="3.78302">
        <ele>1060.7689208984</ele>
        <time>2020-10-16T11:54:53.165Z</time>
      </trkpt>
      <trkpt lat="44.72903" lon="3.78282">
        <ele>1061.1301269531</ele>
        <time>2020-10-16T11:54:53.508Z</time>
      </trkpt>
      <trkpt lat="44.72892" lon="3.78259">
        <ele>1061.4045410156</ele>
        <time>2020-10-16T11:54:53.855Z</time>
      </trkpt>
      <trkpt lat="44.72874" lon="3.78229">
        <ele>1061.5581054688</ele>
        <time>2020-10-16T11:54:54.207Z</time>
      </trkpt>
      <trkpt lat="44.72861" lon="3.78207">
        <ele>1061.3347167969</ele>
        <time>2020-10-16T11:54:54.563Z</time>
      </trkpt>
      <trkpt lat="44.72843" lon="3.78177">
        <ele>1060.9489746094</ele>
        <time>2020-10-16T11:54:54.925Z</time>
      </trkpt>
      <trkpt lat="44.72826" lon="3.78154">
        <ele>1060.6844482422</ele>
        <time>2020-10-16T11:54:55.292Z</time>
      </trkpt>
      <trkpt lat="44.72803" lon="3.78131">
        <ele>1060.10546875</ele>
        <time>2020-10-16T11:54:55.665Z</time>
      </trkpt>
      <trkpt lat="44.72791" lon="3.78115">
        <ele>1059.9577636719</ele>
        <time>2020-10-16T11:54:56.041Z</time>
      </trkpt>
      <trkpt lat="44.72784" lon="3.78101">
        <ele>1059.9285888672</ele>
        <time>2020-10-16T11:54:56.419Z</time>
      </trkpt>
      <trkpt lat="44.72772" lon="3.78072">
        <ele>1059.8328857422</ele>
        <time>2020-10-16T11:54:56.802Z</time>
      </trkpt>
      <trkpt lat="44.7276" lon="3.78045">
        <ele>1059.7484130859</ele>
        <time>2020-10-16T11:54:57.190Z</time>
      </trkpt>
      <trkpt lat="44.72752" lon="3.78031">
        <ele>1059.6343994141</ele>
        <time>2020-10-16T11:54:57.580Z</time>
      </trkpt>
      <trkpt lat="44.72741" lon="3.78018">
        <ele>1059.3785400391</ele>
        <time>2020-10-16T11:54:57.973Z</time>
      </trkpt>
      <trkpt lat="44.72729" lon="3.78004">
        <ele>1059.1127929688</ele>
        <time>2020-10-16T11:54:58.369Z</time>
      </trkpt>
      <trkpt lat="44.72707" lon="3.77977">
        <ele>1058.6424560547</ele>
        <time>2020-10-16T11:54:58.771Z</time>
      </trkpt>
      <trkpt lat="44.72686" lon="3.77952">
        <ele>1059.0518798828</ele>
        <time>2020-10-16T11:54:59.179Z</time>
      </trkpt>
      <trkpt lat="44.72671" lon="3.77938">
        <ele>1059.3853759766</ele>
        <time>2020-10-16T11:54:59.590Z</time>
      </trkpt>
      <trkpt lat="44.72654" lon="3.7793">
        <ele>1059.2990722656</ele>
        <time>2020-10-16T11:55:00.005Z</time>
      </trkpt>
      <trkpt lat="44.72639" lon="3.77922">
        <ele>1059.1872558594</ele>
        <time>2020-10-16T11:55:00.423Z</time>
      </trkpt>
      <trkpt lat="44.72627" lon="3.77913">
        <ele>1059.0126953125</ele>
        <time>2020-10-16T11:55:00.844Z</time>
      </trkpt>
      <trkpt lat="44.72622" lon="3.77906">
        <ele>1058.8165283203</ele>
        <time>2020-10-16T11:55:01.266Z</time>
      </trkpt>
      <trkpt lat="44.72617" lon="3.77901">
        <ele>1058.8714599609</ele>
        <time>2020-10-16T11:55:01.689Z</time>
      </trkpt>
      <trkpt lat="44.72605" lon="3.77888">
        <ele>1059.1079101562</ele>
        <time>2020-10-16T11:55:02.115Z</time>
      </trkpt>
      <trkpt lat="44.72585" lon="3.77868">
        <ele>1059.5925292969</ele>
        <time>2020-10-16T11:55:02.546Z</time>
      </trkpt>
      <trkpt lat="44.72571" lon="3.77854">
        <ele>1059.9418945312</ele>
        <time>2020-10-16T11:55:02.981Z</time>
      </trkpt>
      <trkpt lat="44.72562" lon="3.77845">
        <ele>1060.3939208984</ele>
        <time>2020-10-16T11:55:03.418Z</time>
      </trkpt>
      <trkpt lat="44.72556" lon="3.77842">
        <ele>1060.7137451172</ele>
        <time>2020-10-16T11:55:03.856Z</time>
      </trkpt>
      <trkpt lat="44.72551" lon="3.77838">
        <ele>1060.9602050781</ele>
        <time>2020-10-16T11:55:04.295Z</time>
      </trkpt>
      <trkpt lat="44.72541" lon="3.77828">
        <ele>1061.4362792969</ele>
        <time>2020-10-16T11:55:04.737Z</time>
      </trkpt>
      <trkpt lat="44.72533" lon="3.77816">
        <ele>1061.7144775391</ele>
        <time>2020-10-16T11:55:05.181Z</time>
      </trkpt>
      <trkpt lat="44.72525" lon="3.77801">
        <ele>1061.9603271484</ele>
        <time>2020-10-16T11:55:05.628Z</time>
      </trkpt>
      <trkpt lat="44.72519" lon="3.77789">
        <ele>1062.0584716797</ele>
        <time>2020-10-16T11:55:06.077Z</time>
      </trkpt>
      <trkpt lat="44.7252" lon="3.77773">
        <ele>1061.8227539062</ele>
        <time>2020-10-16T11:55:06.528Z</time>
      </trkpt>
      <trkpt lat="44.72517" lon="3.77753">
        <ele>1061.5244140625</ele>
        <time>2020-10-16T11:55:06.982Z</time>
      </trkpt>
      <trkpt lat="44.7251" lon="3.77731">
        <ele>1061.0053710938</ele>
        <time>2020-10-16T11:55:07.439Z</time>
      </trkpt>
      <trkpt lat="44.72502" lon="3.77716">
        <ele>1060.8376464844</ele>
        <time>2020-10-16T11:55:07.899Z</time>
      </trkpt>
      <trkpt lat="44.72494" lon="3.77708">
        <ele>1061.0341796875</ele>
        <time>2020-10-16T11:55:08.361Z</time>
      </trkpt>
      <trkpt lat="44.72488" lon="3.77706">
        <ele>1061.4195556641</ele>
        <time>2020-10-16T11:55:08.824Z</time>
      </trkpt>
      <trkpt lat="44.72482" lon="3.77711">
        <ele>1062.0872802734</ele>
        <time>2020-10-16T11:55:09.289Z</time>
      </trkpt>
      <trkpt lat="44.72476" lon="3.77713">
        <ele>1062.5480957031</ele>
        <time>2020-10-16T11:55:09.755Z</time>
      </trkpt>
      <trkpt lat="44.7247" lon="3.7771">
        <ele>1062.7335205078</ele>
        <time>2020-10-16T11:55:10.222Z</time>
      </trkpt>
      <trkpt lat="44.72459" lon="3.77692">
        <ele>1062.7696533203</ele>
        <time>2020-10-16T11:55:10.693Z</time>
      </trkpt>
      <trkpt lat="44.72447" lon="3.77667">
        <ele>1063.1850585938</ele>
        <time>2020-10-16T11:55:11.168Z</time>
      </trkpt>
      <trkpt lat="44.72435" lon="3.77642">
        <ele>1063.900390625</ele>
        <time>2020-10-16T11:55:11.647Z</time>
      </trkpt>
      <trkpt lat="44.72428" lon="3.77619">
        <ele>1064.1800537109</ele>
        <time>2020-10-16T11:55:12.130Z</time>
      </trkpt>
      <trkpt lat="44.72421" lon="3.77598">
        <ele>1065.435546875</ele>
        <time>2020-10-16T11:55:12.616Z</time>
      </trkpt>
      <trkpt lat="44.72417" lon="3.77586">
        <ele>1067.4542236328</ele>
        <time>2020-10-16T11:55:13.104Z</time>
      </trkpt>
      <trkpt lat="44.72417" lon="3.77572">
        <ele>1069.2863769531</ele>
        <time>2020-10-16T11:55:13.594Z</time>
      </trkpt>
      <trkpt lat="44.72419" lon="3.77553">
        <ele>1070.5821533203</ele>
        <time>2020-10-16T11:55:14.087Z</time>
      </trkpt>
      <trkpt lat="44.72422" lon="3.77528">
        <ele>1071.8807373047</ele>
        <time>2020-10-16T11:55:14.583Z</time>
      </trkpt>
      <trkpt lat="44.72419" lon="3.7751">
        <ele>1073.7961425781</ele>
        <time>2020-10-16T11:55:15.082Z</time>
      </trkpt>
      <trkpt lat="44.72415" lon="3.77492">
        <ele>1075.9738769531</ele>
        <time>2020-10-16T11:55:15.584Z</time>
      </trkpt>
      <trkpt lat="44.7241" lon="3.77478">
        <ele>1077.9807128906</ele>
        <time>2020-10-16T11:55:16.088Z</time>
      </trkpt>
      <trkpt lat="44.72405" lon="3.77466">
        <ele>1079.3780517578</ele>
        <time>2020-10-16T11:55:16.594Z</time>
      </trkpt>
      <trkpt lat="44.72401" lon="3.77447">
        <ele>1080.8719482422</ele>
        <time>2020-10-16T11:55:17.103Z</time>
      </trkpt>
      <trkpt lat="44.72398" lon="3.77428">
        <ele>1081.6549072266</ele>
        <time>2020-10-16T11:55:17.614Z</time>
      </trkpt>
      <trkpt lat="44.72395" lon="3.77411">
        <ele>1082.3885498047</ele>
        <time>2020-10-16T11:55:18.128Z</time>
      </trkpt>
      <trkpt lat="44.7239" lon="3.77393">
        <ele>1083.4328613281</ele>
        <time>2020-10-16T11:55:18.645Z</time>
      </trkpt>
      <trkpt lat="44.72387" lon="3.77381">
        <ele>1084.1726074219</ele>
        <time>2020-10-16T11:55:19.164Z</time>
      </trkpt>
      <trkpt lat="44.72387" lon="3.77367">
        <ele>1084.3751220703</ele>
        <time>2020-10-16T11:55:19.684Z</time>
      </trkpt>
      <trkpt lat="44.72385" lon="3.77347">
        <ele>1084.3725585938</ele>
        <time>2020-10-16T11:55:20.207Z</time>
      </trkpt>
      <trkpt lat="44.72383" lon="3.77329">
        <ele>1083.6854248047</ele>
        <time>2020-10-16T11:55:20.733Z</time>
      </trkpt>
      <trkpt lat="44.7238" lon="3.77309">
        <ele>1083.2263183594</ele>
        <time>2020-10-16T11:55:21.262Z</time>
      </trkpt>
      <trkpt lat="44.72371" lon="3.77286">
        <ele>1083.6380615234</ele>
        <time>2020-10-16T11:55:21.795Z</time>
      </trkpt>
      <trkpt lat="44.72367" lon="3.77274">
        <ele>1083.7135009766</ele>
        <time>2020-10-16T11:55:22.330Z</time>
      </trkpt>
      <trkpt lat="44.7236" lon="3.77265">
        <ele>1084.5754394531</ele>
        <time>2020-10-16T11:55:22.866Z</time>
      </trkpt>
      <trkpt lat="44.72355" lon="3.77249">
        <ele>1085.8332519531</ele>
        <time>2020-10-16T11:55:23.405Z</time>
      </trkpt>
      <trkpt lat="44.72352" lon="3.7724">
        <ele>1086.6800537109</ele>
        <time>2020-10-16T11:55:23.945Z</time>
      </trkpt>
      <trkpt lat="44.7235" lon="3.77229">
        <ele>1087.4781494141</ele>
        <time>2020-10-16T11:55:24.487Z</time>
      </trkpt>
      <trkpt lat="44.7235" lon="3.77215">
        <ele>1088.2775878906</ele>
        <time>2020-10-16T11:55:25.031Z</time>
      </trkpt>
      <trkpt lat="44.72351" lon="3.77207">
        <ele>1088.7138671875</ele>
        <time>2020-10-16T11:55:25.576Z</time>
      </trkpt>
      <trkpt lat="44.72353" lon="3.77194">
        <ele>1089.2692871094</ele>
        <time>2020-10-16T11:55:26.123Z</time>
      </trkpt>
      <trkpt lat="44.72352" lon="3.77181">
        <ele>1089.9621582031</ele>
        <time>2020-10-16T11:55:26.672Z</time>
      </trkpt>
      <trkpt lat="44.72348" lon="3.77171">
        <ele>1090.5440673828</ele>
        <time>2020-10-16T11:55:27.222Z</time>
      </trkpt>
      <trkpt lat="44.72343" lon="3.77168">
        <ele>1091.16796875</ele>
        <time>2020-10-16T11:55:27.774Z</time>
      </trkpt>
      <trkpt lat="44.72335" lon="3.77165">
        <ele>1091.9074707031</ele>
        <time>2020-10-16T11:55:28.327Z</time>
      </trkpt>
      <trkpt lat="44.72334" lon="3.77154">
        <ele>1092.2805175781</ele>
        <time>2020-10-16T11:55:28.882Z</time>
      </trkpt>
      <trkpt lat="44.72328" lon="3.77138">
        <ele>1093.369140625</ele>
        <time>2020-10-16T11:55:29.439Z</time>
      </trkpt>
      <trkpt lat="44.72323" lon="3.77124">
        <ele>1094.2648925781</ele>
        <time>2020-10-16T11:55:29.999Z</time>
      </trkpt>
      <trkpt lat="44.72318" lon="3.77113">
        <ele>1095.0814208984</ele>
        <time>2020-10-16T11:55:30.560Z</time>
      </trkpt>
      <trkpt lat="44.72313" lon="3.771">
        <ele>1095.7781982422</ele>
        <time>2020-10-16T11:55:31.124Z</time>
      </trkpt>
      <trkpt lat="44.72305" lon="3.77091">
        <ele>1096.3021240234</ele>
        <time>2020-10-16T11:55:31.689Z</time>
      </trkpt>
      <trkpt lat="44.72301" lon="3.77084">
        <ele>1096.5744628906</ele>
        <time>2020-10-16T11:55:32.256Z</time>
      </trkpt>
      <trkpt lat="44.72296" lon="3.77072">
        <ele>1096.8510742188</ele>
        <time>2020-10-16T11:55:32.825Z</time>
      </trkpt>
      <trkpt lat="44.7229" lon="3.77062">
        <ele>1097.2591552734</ele>
        <time>2020-10-16T11:55:33.396Z</time>
      </trkpt>
      <trkpt lat="44.72286" lon="3.77052">
        <ele>1097.4360351562</ele>
        <time>2020-10-16T11:55:33.968Z</time>
      </trkpt>
      <trkpt lat="44.7228" lon="3.77041">
        <ele>1097.5849609375</ele>
        <time>2020-10-16T11:55:34.542Z</time>
      </trkpt>
      <trkpt lat="44.72273" lon="3.77028">
        <ele>1097.7416992188</ele>
        <time>2020-10-16T11:55:35.119Z</time>
      </trkpt>
      <trkpt lat="44.72266" lon="3.77009">
        <ele>1097.8713378906</ele>
        <time>2020-10-16T11:55:35.699Z</time>
      </trkpt>
      <trkpt lat="44.7226" lon="3.76998">
        <ele>1098.0297851562</ele>
        <time>2020-10-16T11:55:36.281Z</time>
      </trkpt>
      <trkpt lat="44.72256" lon="3.76984">
        <ele>1097.9710693359</ele>
        <time>2020-10-16T11:55:36.865Z</time>
      </trkpt>
      <trkpt lat="44.72254" lon="3.76976">
        <ele>1097.9133300781</ele>
        <time>2020-10-16T11:55:37.450Z</time>
      </trkpt>
      <trkpt lat="44.72251" lon="3.76971">
        <ele>1097.9880371094</ele>
        <time>2020-10-16T11:55:38.036Z</time>
      </trkpt>
      <trkpt lat="44.72247" lon="3.7697">
        <ele>1098.1695556641</ele>
        <time>2020-10-16T11:55:38.623Z</time>
      </trkpt>
      <trkpt lat="44.72242" lon="3.76966">
        <ele>1098.3670654297</ele>
        <time>2020-10-16T11:55:39.211Z</time>
      </trkpt>
      <trkpt lat="44.72239" lon="3.76954">
        <ele>1098.2703857422</ele>
        <time>2020-10-16T11:55:39.801Z</time>
      </trkpt>
      <trkpt lat="44.72226" lon="3.76927">
        <ele>1098.5329589844</ele>
        <time>2020-10-16T11:55:40.395Z</time>
      </trkpt>
      <trkpt lat="44.72212" lon="3.76897">
        <ele>1099.0339355469</ele>
        <time>2020-10-16T11:55:40.995Z</time>
      </trkpt>
      <trkpt lat="44.72198" lon="3.76867">
        <ele>1099.0086669922</ele>
        <time>2020-10-16T11:55:41.600Z</time>
      </trkpt>
      <trkpt lat="44.72195" lon="3.76856">
        <ele>1098.8114013672</ele>
        <time>2020-10-16T11:55:42.206Z</time>
      </trkpt>
      <trkpt lat="44.72192" lon="3.76835">
        <ele>1097.8054199219</ele>
        <time>2020-10-16T11:55:42.815Z</time>
      </trkpt>
      <trkpt lat="44.72183" lon="3.76807">
        <ele>1096.6336669922</ele>
        <time>2020-10-16T11:55:43.429Z</time>
      </trkpt>
      <trkpt lat="44.72178" lon="3.76788">
        <ele>1095.8273925781</ele>
        <time>2020-10-16T11:55:44.046Z</time>
      </trkpt>
      <trkpt lat="44.72168" lon="3.76763">
        <ele>1094.6723632812</ele>
        <time>2020-10-16T11:55:44.667Z</time>
      </trkpt>
      <trkpt lat="44.72159" lon="3.76725">
        <ele>1093.1276855469</ele>
        <time>2020-10-16T11:55:45.293Z</time>
      </trkpt>
      <trkpt lat="44.7215" lon="3.76691">
        <ele>1090.5660400391</ele>
        <time>2020-10-16T11:55:45.925Z</time>
      </trkpt>
      <trkpt lat="44.72145" lon="3.76674">
        <ele>1089.6479492188</ele>
        <time>2020-10-16T11:55:46.559Z</time>
      </trkpt>
      <trkpt lat="44.72139" lon="3.76658">
        <ele>1088.7877197266</ele>
        <time>2020-10-16T11:55:47.196Z</time>
      </trkpt>
      <trkpt lat="44.72136" lon="3.76642">
        <ele>1087.9854736328</ele>
        <time>2020-10-16T11:55:47.835Z</time>
      </trkpt>
      <trkpt lat="44.72132" lon="3.76628">
        <ele>1087.271484375</ele>
        <time>2020-10-16T11:55:48.476Z</time>
      </trkpt>
      <trkpt lat="44.72129" lon="3.76618">
        <ele>1086.7590332031</ele>
        <time>2020-10-16T11:55:49.119Z</time>
      </trkpt>
      <trkpt lat="44.72127" lon="3.76565">
        <ele>1085.7691650391</ele>
        <time>2020-10-16T11:55:49.769Z</time>
      </trkpt>
      <trkpt lat="44.72119" lon="3.76499">
        <ele>1084.1315917969</ele>
        <time>2020-10-16T11:55:50.429Z</time>
      </trkpt>
      <trkpt lat="44.72118" lon="3.76459">
        <ele>1082.6837158203</ele>
        <time>2020-10-16T11:55:51.095Z</time>
      </trkpt>
      <trkpt lat="44.72122" lon="3.76419">
        <ele>1080.9249267578</ele>
        <time>2020-10-16T11:55:51.766Z</time>
      </trkpt>
      <trkpt lat="44.7213" lon="3.76361">
        <ele>1077.6437988281</ele>
        <time>2020-10-16T11:55:52.446Z</time>
      </trkpt>
      <trkpt lat="44.72137" lon="3.76334">
        <ele>1077.3479003906</ele>
        <time>2020-10-16T11:55:53.130Z</time>
      </trkpt>
      <trkpt lat="44.72141" lon="3.76326">
        <ele>1077.3881835938</ele>
        <time>2020-10-16T11:55:53.815Z</time>
      </trkpt>
      <trkpt lat="44.72153" lon="3.76306">
        <ele>1077.5865478516</ele>
        <time>2020-10-16T11:55:54.504Z</time>
      </trkpt>
      <trkpt lat="44.72179" lon="3.76256">
        <ele>1076.3322753906</ele>
        <time>2020-10-16T11:55:55.202Z</time>
      </trkpt>
      <trkpt lat="44.72184" lon="3.76249">
        <ele>1076.2696533203</ele>
        <time>2020-10-16T11:55:55.901Z</time>
      </trkpt>
      <trkpt lat="44.7219" lon="3.76245">
        <ele>1076.3452148438</ele>
        <time>2020-10-16T11:55:56.601Z</time>
      </trkpt>
      <trkpt lat="44.7221" lon="3.76236">
        <ele>1076.7996826172</ele>
        <time>2020-10-16T11:55:57.306Z</time>
      </trkpt>
      <trkpt lat="44.72229" lon="3.76228">
        <ele>1077.4116210938</ele>
        <time>2020-10-16T11:55:58.015Z</time>
      </trkpt>
      <trkpt lat="44.7225" lon="3.76229">
        <ele>1078.4078369141</ele>
        <time>2020-10-16T11:55:58.728Z</time>
      </trkpt>
      <trkpt lat="44.72263" lon="3.76223">
        <ele>1079.6600341797</ele>
        <time>2020-10-16T11:55:59.444Z</time>
      </trkpt>
      <trkpt lat="44.7228" lon="3.76221">
        <ele>1081.2459716797</ele>
        <time>2020-10-16T11:56:00.163Z</time>
      </trkpt>
      <trkpt lat="44.72291" lon="3.76212">
        <ele>1082.0725097656</ele>
        <time>2020-10-16T11:56:00.885Z</time>
      </trkpt>
      <trkpt lat="44.72309" lon="3.76202">
        <ele>1082.9771728516</ele>
        <time>2020-10-16T11:56:01.610Z</time>
      </trkpt>
      <trkpt lat="44.72327" lon="3.76193">
        <ele>1085.6500244141</ele>
        <time>2020-10-16T11:56:02.339Z</time>
      </trkpt>
      <trkpt lat="44.72349" lon="3.76187">
        <ele>1088.1845703125</ele>
        <time>2020-10-16T11:56:03.073Z</time>
      </trkpt>
      <trkpt lat="44.72386" lon="3.76176">
        <ele>1090.5463867188</ele>
        <time>2020-10-16T11:56:03.814Z</time>
      </trkpt>
      <trkpt lat="44.72401" lon="3.7617">
        <ele>1091.1120605469</ele>
        <time>2020-10-16T11:56:04.559Z</time>
      </trkpt>
      <trkpt lat="44.72427" lon="3.76153">
        <ele>1092.3209228516</ele>
        <time>2020-10-16T11:56:05.309Z</time>
      </trkpt>
      <trkpt lat="44.72445" lon="3.76139">
        <ele>1094.1341552734</ele>
        <time>2020-10-16T11:56:06.063Z</time>
      </trkpt>
      <trkpt lat="44.72454" lon="3.76132">
        <ele>1095.0439453125</ele>
        <time>2020-10-16T11:56:06.819Z</time>
      </trkpt>
      <trkpt lat="44.72472" lon="3.76122">
        <ele>1096.4377441406</ele>
        <time>2020-10-16T11:56:07.579Z</time>
      </trkpt>
      <trkpt lat="44.72485" lon="3.76118">
        <ele>1096.9610595703</ele>
        <time>2020-10-16T11:56:08.342Z</time>
      </trkpt>
      <trkpt lat="44.72497" lon="3.76116">
        <ele>1097.4001464844</ele>
        <time>2020-10-16T11:56:09.107Z</time>
      </trkpt>
      <trkpt lat="44.72515" lon="3.76111">
        <ele>1098.1154785156</ele>
        <time>2020-10-16T11:56:09.876Z</time>
      </trkpt>
      <trkpt lat="44.72532" lon="3.76106">
        <ele>1098.7836914062</ele>
        <time>2020-10-16T11:56:10.648Z</time>
      </trkpt>
      <trkpt lat="44.72544" lon="3.76105">
        <ele>1098.8598632812</ele>
        <time>2020-10-16T11:56:11.423Z</time>
      </trkpt>
      <trkpt lat="44.72564" lon="3.76102">
        <ele>1098.265625</ele>
        <time>2020-10-16T11:56:12.202Z</time>
      </trkpt>
      <trkpt lat="44.72582" lon="3.76099">
        <ele>1097.6346435547</ele>
        <time>2020-10-16T11:56:12.985Z</time>
      </trkpt>
      <trkpt lat="44.72598" lon="3.76091">
        <ele>1096.9039306641</ele>
        <time>2020-10-16T11:56:13.771Z</time>
      </trkpt>
      <trkpt lat="44.72607" lon="3.7609">
        <ele>1096.5637207031</ele>
        <time>2020-10-16T11:56:14.559Z</time>
      </trkpt>
      <trkpt lat="44.72622" lon="3.7609">
        <ele>1095.8100585938</ele>
        <time>2020-10-16T11:56:15.350Z</time>
      </trkpt>
      <trkpt lat="44.7263" lon="3.76088">
        <ele>1094.7384033203</ele>
        <time>2020-10-16T11:56:16.142Z</time>
      </trkpt>
      <trkpt lat="44.7264" lon="3.76078">
        <ele>1092.9577636719</ele>
        <time>2020-10-16T11:56:16.937Z</time>
      </trkpt>
      <trkpt lat="44.72654" lon="3.76063">
        <ele>1090.4416503906</ele>
        <time>2020-10-16T11:56:17.735Z</time>
      </trkpt>
      <trkpt lat="44.72662" lon="3.7605">
        <ele>1089.4963378906</ele>
        <time>2020-10-16T11:56:18.536Z</time>
      </trkpt>
      <trkpt lat="44.72665" lon="3.76039">
        <ele>1089.3840332031</ele>
        <time>2020-10-16T11:56:19.338Z</time>
      </trkpt>
      <trkpt lat="44.72683" lon="3.7601">
        <ele>1087.9188232422</ele>
        <time>2020-10-16T11:56:20.146Z</time>
      </trkpt>
      <trkpt lat="44.72692" lon="3.75991">
        <ele>1087.7751464844</ele>
        <time>2020-10-16T11:56:20.957Z</time>
      </trkpt>
      <trkpt lat="44.72698" lon="3.75977">
        <ele>1088.2393798828</ele>
        <time>2020-10-16T11:56:21.770Z</time>
      </trkpt>
      <trkpt lat="44.72712" lon="3.75969">
        <ele>1088.1252441406</ele>
        <time>2020-10-16T11:56:22.587Z</time>
      </trkpt>
      <trkpt lat="44.72729" lon="3.75956">
        <ele>1087.6046142578</ele>
        <time>2020-10-16T11:56:23.407Z</time>
      </trkpt>
      <trkpt lat="44.72742" lon="3.75943">
        <ele>1088.1912841797</ele>
        <time>2020-10-16T11:56:24.231Z</time>
      </trkpt>
      <trkpt lat="44.72754" lon="3.75931">
        <ele>1088.6413574219</ele>
        <time>2020-10-16T11:56:25.057Z</time>
      </trkpt>
      <trkpt lat="44.72763" lon="3.7592">
        <ele>1088.9291992188</ele>
        <time>2020-10-16T11:56:25.886Z</time>
      </trkpt>
      <trkpt lat="44.72772" lon="3.75908">
        <ele>1089.5872802734</ele>
        <time>2020-10-16T11:56:26.717Z</time>
      </trkpt>
      <trkpt lat="44.72778" lon="3.75897">
        <ele>1090.3631591797</ele>
        <time>2020-10-16T11:56:27.550Z</time>
      </trkpt>
      <trkpt lat="44.72784" lon="3.75887">
        <ele>1091.0228271484</ele>
        <time>2020-10-16T11:56:28.385Z</time>
      </trkpt>
      <trkpt lat="44.72795" lon="3.75875">
        <ele>1092.072265625</ele>
        <time>2020-10-16T11:56:29.223Z</time>
      </trkpt>
      <trkpt lat="44.72807" lon="3.75863">
        <ele>1092.7932128906</ele>
        <time>2020-10-16T11:56:30.064Z</time>
      </trkpt>
      <trkpt lat="44.72833" lon="3.7584">
        <ele>1093</ele>
        <time>2020-10-16T11:56:30.911Z</time>
      </trkpt>
      <trkpt lat="44.72842" lon="3.75831">
        <ele>1093</ele>
        <time>2020-10-16T11:56:31.760Z</time>
      </trkpt>
      <trkpt lat="44.72853" lon="3.75823">
        <ele>1093.1711425781</ele>
        <time>2020-10-16T11:56:32.612Z</time>
      </trkpt>
      <trkpt lat="44.72888" lon="3.75787">
        <ele>1093.7800292969</ele>
        <time>2020-10-16T11:56:33.473Z</time>
      </trkpt>
      <trkpt lat="44.7293" lon="3.75719">
        <ele>1093.4871826172</ele>
        <time>2020-10-16T11:56:34.346Z</time>
      </trkpt>
      <trkpt lat="44.72953" lon="3.75686">
        <ele>1093.0249023438</ele>
        <time>2020-10-16T11:56:35.226Z</time>
      </trkpt>
      <trkpt lat="44.72975" lon="3.75656">
        <ele>1092.5064697266</ele>
        <time>2020-10-16T11:56:36.112Z</time>
      </trkpt>
      <trkpt lat="44.72981" lon="3.75631">
        <ele>1092.6937255859</ele>
        <time>2020-10-16T11:56:37.002Z</time>
      </trkpt>
      <trkpt lat="44.72998" lon="3.75648">
        <ele>1091.2854003906</ele>
        <time>2020-10-16T11:56:37.896Z</time>
      </trkpt>
      <trkpt lat="44.73014" lon="3.75654">
        <ele>1090.2069091797</ele>
        <time>2020-10-16T11:56:38.793Z</time>
      </trkpt>
      <trkpt lat="44.73031" lon="3.75657">
        <ele>1089.0740966797</ele>
        <time>2020-10-16T11:56:39.694Z</time>
      </trkpt>
      <trkpt lat="44.73055" lon="3.75675">
        <ele>1086.9892578125</ele>
        <time>2020-10-16T11:56:40.600Z</time>
      </trkpt>
      <trkpt lat="44.73106" lon="3.757">
        <ele>1083.0335693359</ele>
        <time>2020-10-16T11:56:41.517Z</time>
      </trkpt>
      <trkpt lat="44.73149" lon="3.75727">
        <ele>1080.6281738281</ele>
        <time>2020-10-16T11:56:42.443Z</time>
      </trkpt>
      <trkpt lat="44.7316" lon="3.75733">
        <ele>1080.0921630859</ele>
        <time>2020-10-16T11:56:43.372Z</time>
      </trkpt>
      <trkpt lat="44.73182" lon="3.75739">
        <ele>1078.9573974609</ele>
        <time>2020-10-16T11:56:44.305Z</time>
      </trkpt>
      <trkpt lat="44.73198" lon="3.7574">
        <ele>1077.9942626953</ele>
        <time>2020-10-16T11:56:45.241Z</time>
      </trkpt>
      <trkpt lat="44.73218" lon="3.75744">
        <ele>1076.1828613281</ele>
        <time>2020-10-16T11:56:46.181Z</time>
      </trkpt>
      <trkpt lat="44.73234" lon="3.75753">
        <ele>1074.5339355469</ele>
        <time>2020-10-16T11:56:47.125Z</time>
      </trkpt>
      <trkpt lat="44.73245" lon="3.75766">
        <ele>1073.4624023438</ele>
        <time>2020-10-16T11:56:48.072Z</time>
      </trkpt>
      <trkpt lat="44.73253" lon="3.75787">
        <ele>1073.0634765625</ele>
        <time>2020-10-16T11:56:49.022Z</time>
      </trkpt>
      <trkpt lat="44.73259" lon="3.75813">
        <ele>1073.0705566406</ele>
        <time>2020-10-16T11:56:49.976Z</time>
      </trkpt>
      <trkpt lat="44.73262" lon="3.7582">
        <ele>1072.9592285156</ele>
        <time>2020-10-16T11:56:50.931Z</time>
      </trkpt>
      <trkpt lat="44.7327" lon="3.75838">
        <ele>1072.3864746094</ele>
        <time>2020-10-16T11:56:51.889Z</time>
      </trkpt>
      <trkpt lat="44.73282" lon="3.75849">
        <ele>1071.4465332031</ele>
        <time>2020-10-16T11:56:52.850Z</time>
      </trkpt>
      <trkpt lat="44.73301" lon="3.75858">
        <ele>1068.5045166016</ele>
        <time>2020-10-16T11:56:53.815Z</time>
      </trkpt>
      <trkpt lat="44.73322" lon="3.75874">
        <ele>1064.2661132812</ele>
        <time>2020-10-16T11:56:54.785Z</time>
      </trkpt>
      <trkpt lat="44.73334" lon="3.75888">
        <ele>1061.8364257812</ele>
        <time>2020-10-16T11:56:55.758Z</time>
      </trkpt>
      <trkpt lat="44.73338" lon="3.759">
        <ele>1060.8187255859</ele>
        <time>2020-10-16T11:56:56.733Z</time>
      </trkpt>
      <trkpt lat="44.73342" lon="3.75916">
        <ele>1059.5610351562</ele>
        <time>2020-10-16T11:56:57.710Z</time>
      </trkpt>
      <trkpt lat="44.73346" lon="3.75934">
        <ele>1057.9689941406</ele>
        <time>2020-10-16T11:56:58.690Z</time>
      </trkpt>
      <trkpt lat="44.73359" lon="3.75966">
        <ele>1053.185546875</ele>
        <time>2020-10-16T11:56:59.675Z</time>
      </trkpt>
      <trkpt lat="44.73384" lon="3.7603">
        <ele>1044.4848632812</ele>
        <time>2020-10-16T11:57:00.671Z</time>
      </trkpt>
      <trkpt lat="44.73388" lon="3.76044">
        <ele>1042.9467773438</ele>
        <time>2020-10-16T11:57:01.669Z</time>
      </trkpt>
      <trkpt lat="44.73413" lon="3.76105">
        <ele>1034.9820556641</ele>
        <time>2020-10-16T11:57:02.677Z</time>
      </trkpt>
      <trkpt lat="44.73433" lon="3.76159">
        <ele>1033.7017822266</ele>
        <time>2020-10-16T11:57:03.693Z</time>
      </trkpt>
      <trkpt lat="44.73448" lon="3.76196">
        <ele>1032.3432617188</ele>
        <time>2020-10-16T11:57:04.716Z</time>
      </trkpt>
      <trkpt lat="44.73503" lon="3.76303">
        <ele>1024.3090820312</ele>
        <time>2020-10-16T11:57:05.757Z</time>
      </trkpt>
      <trkpt lat="44.73523" lon="3.76346">
        <ele>1020.9440307617</ele>
        <time>2020-10-16T11:57:06.806Z</time>
      </trkpt>
      <trkpt lat="44.73537" lon="3.76366">
        <ele>1019.168762207</ele>
        <time>2020-10-16T11:57:07.859Z</time>
      </trkpt>
      <trkpt lat="44.73562" lon="3.76399">
        <ele>1015.035949707</ele>
        <time>2020-10-16T11:57:08.918Z</time>
      </trkpt>
      <trkpt lat="44.73569" lon="3.76413">
        <ele>1013.4752197266</ele>
        <time>2020-10-16T11:57:09.980Z</time>
      </trkpt>
      <trkpt lat="44.73573" lon="3.76421">
        <ele>1012.6314086914</ele>
        <time>2020-10-16T11:57:11.043Z</time>
      </trkpt>
      <trkpt lat="44.73579" lon="3.76428">
        <ele>1011.6634521484</ele>
        <time>2020-10-16T11:57:12.108Z</time>
      </trkpt>
      <trkpt lat="44.73589" lon="3.76438">
        <ele>1010.2720947266</ele>
        <time>2020-10-16T11:57:13.175Z</time>
      </trkpt>
      <trkpt lat="44.73597" lon="3.76447">
        <ele>1009.2663574219</ele>
        <time>2020-10-16T11:57:14.244Z</time>
      </trkpt>
      <trkpt lat="44.73606" lon="3.76458">
        <ele>1008.0496826172</ele>
        <time>2020-10-16T11:57:15.316Z</time>
      </trkpt>
      <trkpt lat="44.7361" lon="3.76468">
        <ele>1007.2970581055</ele>
        <time>2020-10-16T11:57:16.389Z</time>
      </trkpt>
      <trkpt lat="44.73614" lon="3.76483">
        <ele>1006.3618164062</ele>
        <time>2020-10-16T11:57:17.465Z</time>
      </trkpt>
      <trkpt lat="44.73618" lon="3.76515">
        <ele>1004.4700317383</ele>
        <time>2020-10-16T11:57:18.545Z</time>
      </trkpt>
      <trkpt lat="44.7363" lon="3.76562">
        <ele>1004.4879760742</ele>
        <time>2020-10-16T11:57:19.632Z</time>
      </trkpt>
      <trkpt lat="44.73646" lon="3.76602">
        <ele>1004.9705810547</ele>
        <time>2020-10-16T11:57:20.726Z</time>
      </trkpt>
      <trkpt lat="44.73658" lon="3.76626">
        <ele>1006.5491943359</ele>
        <time>2020-10-16T11:57:21.824Z</time>
      </trkpt>
      <trkpt lat="44.73678" lon="3.76658">
        <ele>1008.8584594727</ele>
        <time>2020-10-16T11:57:22.928Z</time>
      </trkpt>
      <trkpt lat="44.73698" lon="3.76681">
        <ele>1010.4839477539</ele>
        <time>2020-10-16T11:57:24.037Z</time>
      </trkpt>
      <trkpt lat="44.73714" lon="3.76705">
        <ele>1012.3587646484</ele>
        <time>2020-10-16T11:57:25.151Z</time>
      </trkpt>
      <trkpt lat="44.73726" lon="3.76727">
        <ele>1014.1557006836</ele>
        <time>2020-10-16T11:57:26.269Z</time>
      </trkpt>
      <trkpt lat="44.73737" lon="3.76745">
        <ele>1015.5804443359</ele>
        <time>2020-10-16T11:57:27.390Z</time>
      </trkpt>
      <trkpt lat="44.73746" lon="3.76756">
        <ele>1016.581237793</ele>
        <time>2020-10-16T11:57:28.514Z</time>
      </trkpt>
      <trkpt lat="44.73753" lon="3.76765">
        <ele>1017.384765625</ele>
        <time>2020-10-16T11:57:29.640Z</time>
      </trkpt>
      <trkpt lat="44.7376" lon="3.76781">
        <ele>1018.7066650391</ele>
        <time>2020-10-16T11:57:30.768Z</time>
      </trkpt>
      <trkpt lat="44.73766" lon="3.76798">
        <ele>1020.1311645508</ele>
        <time>2020-10-16T11:57:31.899Z</time>
      </trkpt>
      <trkpt lat="44.73768" lon="3.76805">
        <ele>1020.7819824219</ele>
        <time>2020-10-16T11:57:33.031Z</time>
      </trkpt>
      <trkpt lat="44.7377" lon="3.76813">
        <ele>1021.4003295898</ele>
        <time>2020-10-16T11:57:34.164Z</time>
      </trkpt>
      <trkpt lat="44.7377" lon="3.76824">
        <ele>1022.2043457031</ele>
        <time>2020-10-16T11:57:35.299Z</time>
      </trkpt>
      <trkpt lat="44.73771" lon="3.76837">
        <ele>1023.1309814453</ele>
        <time>2020-10-16T11:57:36.436Z</time>
      </trkpt>
      <trkpt lat="44.7377" lon="3.76844">
        <ele>1023.7847290039</ele>
        <time>2020-10-16T11:57:37.574Z</time>
      </trkpt>
      <trkpt lat="44.73771" lon="3.76855">
        <ele>1024.8740234375</ele>
        <time>2020-10-16T11:57:38.713Z</time>
      </trkpt>
      <trkpt lat="44.73776" lon="3.76872">
        <ele>1026.1260986328</ele>
        <time>2020-10-16T11:57:39.855Z</time>
      </trkpt>
      <trkpt lat="44.73782" lon="3.76886">
        <ele>1027.2349853516</ele>
        <time>2020-10-16T11:57:40.999Z</time>
      </trkpt>
      <trkpt lat="44.73795" lon="3.76907">
        <ele>1028.5834960938</ele>
        <time>2020-10-16T11:57:42.147Z</time>
      </trkpt>
      <trkpt lat="44.73799" lon="3.76919">
        <ele>1029.3793945312</ele>
        <time>2020-10-16T11:57:43.297Z</time>
      </trkpt>
      <trkpt lat="44.73815" lon="3.76929">
        <ele>1029.6840820312</ele>
        <time>2020-10-16T11:57:44.451Z</time>
      </trkpt>
      <trkpt lat="44.73822" lon="3.76935">
        <ele>1029.9865722656</ele>
        <time>2020-10-16T11:57:45.606Z</time>
      </trkpt>
      <trkpt lat="44.7383" lon="3.76953">
        <ele>1030.1635742188</ele>
        <time>2020-10-16T11:57:46.764Z</time>
      </trkpt>
      <trkpt lat="44.7384" lon="3.7698">
        <ele>1030.2526855469</ele>
        <time>2020-10-16T11:57:47.927Z</time>
      </trkpt>
      <trkpt lat="44.73846" lon="3.77001">
        <ele>1030.3564453125</ele>
        <time>2020-10-16T11:57:49.093Z</time>
      </trkpt>
      <trkpt lat="44.7385" lon="3.7702">
        <ele>1030.4870605469</ele>
        <time>2020-10-16T11:57:50.262Z</time>
      </trkpt>
      <trkpt lat="44.73851" lon="3.77039">
        <ele>1029.6353759766</ele>
        <time>2020-10-16T11:57:51.433Z</time>
      </trkpt>
      <trkpt lat="44.73854" lon="3.77081">
        <ele>1027.5480957031</ele>
        <time>2020-10-16T11:57:52.610Z</time>
      </trkpt>
      <trkpt lat="44.73855" lon="3.77117">
        <ele>1026.1669921875</ele>
        <time>2020-10-16T11:57:53.793Z</time>
      </trkpt>
      <trkpt lat="44.73855" lon="3.77157">
        <ele>1024.2386474609</ele>
        <time>2020-10-16T11:57:54.981Z</time>
      </trkpt>
      <trkpt lat="44.73855" lon="3.77175">
        <ele>1023.4600219727</ele>
        <time>2020-10-16T11:57:56.172Z</time>
      </trkpt>
      <trkpt lat="44.7386" lon="3.77204">
        <ele>1022.9893188477</ele>
        <time>2020-10-16T11:57:57.367Z</time>
      </trkpt>
      <trkpt lat="44.73871" lon="3.77231">
        <ele>1022.5263671875</ele>
        <time>2020-10-16T11:57:58.567Z</time>
      </trkpt>
      <trkpt lat="44.7388" lon="3.77253">
        <ele>1022.4611206055</ele>
        <time>2020-10-16T11:57:59.770Z</time>
      </trkpt>
      <trkpt lat="44.73888" lon="3.77279">
        <ele>1022.5765991211</ele>
        <time>2020-10-16T11:58:00.977Z</time>
      </trkpt>
      <trkpt lat="44.73893" lon="3.77293">
        <ele>1022.6971435547</ele>
        <time>2020-10-16T11:58:02.186Z</time>
      </trkpt>
      <trkpt lat="44.73906" lon="3.77301">
        <ele>1022.4465942383</ele>
        <time>2020-10-16T11:58:03.398Z</time>
      </trkpt>
      <trkpt lat="44.73926" lon="3.77316">
        <ele>1022.0901489258</ele>
        <time>2020-10-16T11:58:04.615Z</time>
      </trkpt>
      <trkpt lat="44.73944" lon="3.77332">
        <ele>1021.8134155273</ele>
        <time>2020-10-16T11:58:05.836Z</time>
      </trkpt>
      <trkpt lat="44.73955" lon="3.77347">
        <ele>1021.7749023438</ele>
        <time>2020-10-16T11:58:07.060Z</time>
      </trkpt>
      <trkpt lat="44.73971" lon="3.77369">
        <ele>1020.4836425781</ele>
        <time>2020-10-16T11:58:08.289Z</time>
      </trkpt>
      <trkpt lat="44.73987" lon="3.77385">
        <ele>1018.9461669922</ele>
        <time>2020-10-16T11:58:09.522Z</time>
      </trkpt>
      <trkpt lat="44.74005" lon="3.77399">
        <ele>1017.4063720703</ele>
        <time>2020-10-16T11:58:10.759Z</time>
      </trkpt>
      <trkpt lat="44.74022" lon="3.77413">
        <ele>1015.9279785156</ele>
        <time>2020-10-16T11:58:12.000Z</time>
      </trkpt>
      <trkpt lat="44.74038" lon="3.7743">
        <ele>1014.3186645508</ele>
        <time>2020-10-16T11:58:13.245Z</time>
      </trkpt>
      <trkpt lat="44.74047" lon="3.77437">
        <ele>1013.6213989258</ele>
        <time>2020-10-16T11:58:14.492Z</time>
      </trkpt>
      <trkpt lat="44.74069" lon="3.77445">
        <ele>1011.8237304688</ele>
        <time>2020-10-16T11:58:15.743Z</time>
      </trkpt>
      <trkpt lat="44.74095" lon="3.77451">
        <ele>1009.9361572266</ele>
        <time>2020-10-16T11:58:17.000Z</time>
      </trkpt>
      <trkpt lat="44.74121" lon="3.77461">
        <ele>1007.7728881836</ele>
        <time>2020-10-16T11:58:18.262Z</time>
      </trkpt>
      <trkpt lat="44.74146" lon="3.77472">
        <ele>1004.6109008789</ele>
        <time>2020-10-16T11:58:19.529Z</time>
      </trkpt>
      <trkpt lat="44.74176" lon="3.77487">
        <ele>1000.6392211914</ele>
        <time>2020-10-16T11:58:20.802Z</time>
      </trkpt>
      <trkpt lat="44.74195" lon="3.775">
        <ele>997.67687988281</ele>
        <time>2020-10-16T11:58:22.080Z</time>
      </trkpt>
      <trkpt lat="44.74216" lon="3.77515">
        <ele>994.87255859375</ele>
        <time>2020-10-16T11:58:23.362Z</time>
      </trkpt>
      <trkpt lat="44.74235" lon="3.77523">
        <ele>993.08557128906</ele>
        <time>2020-10-16T11:58:24.648Z</time>
      </trkpt>
      <trkpt lat="44.74255" lon="3.77536">
        <ele>991.44732666016</ele>
        <time>2020-10-16T11:58:25.939Z</time>
      </trkpt>
      <trkpt lat="44.74275" lon="3.77551">
        <ele>989.66986083984</ele>
        <time>2020-10-16T11:58:27.234Z</time>
      </trkpt>
      <trkpt lat="44.74288" lon="3.77562">
        <ele>988.53979492188</ele>
        <time>2020-10-16T11:58:28.532Z</time>
      </trkpt>
      <trkpt lat="44.74294" lon="3.77572">
        <ele>988.24340820312</ele>
        <time>2020-10-16T11:58:29.832Z</time>
      </trkpt>
      <trkpt lat="44.74301" lon="3.77588">
        <ele>987.75537109375</ele>
        <time>2020-10-16T11:58:31.135Z</time>
      </trkpt>
      <trkpt lat="44.74306" lon="3.77606">
        <ele>987.09985351562</ele>
        <time>2020-10-16T11:58:32.441Z</time>
      </trkpt>
      <trkpt lat="44.74311" lon="3.77619">
        <ele>986.27838134766</ele>
        <time>2020-10-16T11:58:33.749Z</time>
      </trkpt>
      <trkpt lat="44.74318" lon="3.77624">
        <ele>985.96429443359</ele>
        <time>2020-10-16T11:58:35.058Z</time>
      </trkpt>
      <trkpt lat="44.74327" lon="3.77628">
        <ele>985.77172851562</ele>
        <time>2020-10-16T11:58:36.369Z</time>
      </trkpt>
      <trkpt lat="44.74334" lon="3.77639">
        <ele>985.09777832031</ele>
        <time>2020-10-16T11:58:37.682Z</time>
      </trkpt>
      <trkpt lat="44.7434" lon="3.77644">
        <ele>984.7685546875</ele>
        <time>2020-10-16T11:58:38.997Z</time>
      </trkpt>
      <trkpt lat="44.74351" lon="3.77657">
        <ele>983.98266601562</ele>
        <time>2020-10-16T11:58:40.314Z</time>
      </trkpt>
      <trkpt lat="44.7436" lon="3.77673">
        <ele>982.97747802734</ele>
        <time>2020-10-16T11:58:41.634Z</time>
      </trkpt>
      <trkpt lat="44.74366" lon="3.77687">
        <ele>982.44482421875</ele>
        <time>2020-10-16T11:58:42.957Z</time>
      </trkpt>
      <trkpt lat="44.7438" lon="3.77698">
        <ele>980.76507568359</ele>
        <time>2020-10-16T11:58:44.283Z</time>
      </trkpt>
      <trkpt lat="44.74393" lon="3.77706">
        <ele>979.34771728516</ele>
        <time>2020-10-16T11:58:45.612Z</time>
      </trkpt>
      <trkpt lat="44.74405" lon="3.77708">
        <ele>978.50079345703</ele>
        <time>2020-10-16T11:58:46.943Z</time>
      </trkpt>
      <trkpt lat="44.74416" lon="3.77701">
        <ele>978.40905761719</ele>
        <time>2020-10-16T11:58:48.277Z</time>
      </trkpt>
      <trkpt lat="44.74436" lon="3.77695">
        <ele>977.61737060547</ele>
        <time>2020-10-16T11:58:49.615Z</time>
      </trkpt>
      <trkpt lat="44.74445" lon="3.77687">
        <ele>977.6005859375</ele>
        <time>2020-10-16T11:58:50.955Z</time>
      </trkpt>
      <trkpt lat="44.74456" lon="3.77678">
        <ele>977.94409179688</ele>
        <time>2020-10-16T11:58:52.297Z</time>
      </trkpt>
      <trkpt lat="44.74468" lon="3.77676">
        <ele>977.17633056641</ele>
        <time>2020-10-16T11:58:53.642Z</time>
      </trkpt>
      <trkpt lat="44.74502" lon="3.77683">
        <ele>973.54455566406</ele>
        <time>2020-10-16T11:58:54.994Z</time>
      </trkpt>
      <trkpt lat="44.74531" lon="3.7769">
        <ele>970.30999755859</ele>
        <time>2020-10-16T11:58:56.352Z</time>
      </trkpt>
      <trkpt lat="44.74545" lon="3.77696">
        <ele>968.93084716797</ele>
        <time>2020-10-16T11:58:57.712Z</time>
      </trkpt>
      <trkpt lat="44.74555" lon="3.77704">
        <ele>967.77850341797</ele>
        <time>2020-10-16T11:58:59.075Z</time>
      </trkpt>
      <trkpt lat="44.7456" lon="3.77714">
        <ele>966.73510742188</ele>
        <time>2020-10-16T11:59:00.440Z</time>
      </trkpt>
      <trkpt lat="44.74567" lon="3.77732">
        <ele>964.72424316406</ele>
        <time>2020-10-16T11:59:01.807Z</time>
      </trkpt>
      <trkpt lat="44.74576" lon="3.77746">
        <ele>963.02618408203</ele>
        <time>2020-10-16T11:59:03.177Z</time>
      </trkpt>
      <trkpt lat="44.74593" lon="3.77753">
        <ele>961.80456542969</ele>
        <time>2020-10-16T11:59:04.551Z</time>
      </trkpt>
      <trkpt lat="44.74614" lon="3.77754">
        <ele>960.64331054688</ele>
        <time>2020-10-16T11:59:05.929Z</time>
      </trkpt>
      <trkpt lat="44.74636" lon="3.77754">
        <ele>959.87530517578</ele>
        <time>2020-10-16T11:59:07.311Z</time>
      </trkpt>
      <trkpt lat="44.74644" lon="3.77755">
        <ele>959.60662841797</ele>
        <time>2020-10-16T11:59:08.695Z</time>
      </trkpt>
      <trkpt lat="44.74658" lon="3.77761">
        <ele>958.88934326172</ele>
        <time>2020-10-16T11:59:10.082Z</time>
      </trkpt>
      <trkpt lat="44.74671" lon="3.77765">
        <ele>958.25842285156</ele>
        <time>2020-10-16T11:59:11.472Z</time>
      </trkpt>
      <trkpt lat="44.74677" lon="3.77772">
        <ele>957.71221923828</ele>
        <time>2020-10-16T11:59:12.863Z</time>
      </trkpt>
      <trkpt lat="44.74669" lon="3.77782">
        <ele>958.35321044922</ele>
        <time>2020-10-16T11:59:14.256Z</time>
      </trkpt>
      <trkpt lat="44.74653" lon="3.77801">
        <ele>959.6845703125</ele>
        <time>2020-10-16T11:59:15.653Z</time>
      </trkpt>
      <trkpt lat="44.74632" lon="3.77829">
        <ele>962.63366699219</ele>
        <time>2020-10-16T11:59:17.056Z</time>
      </trkpt>
      <trkpt lat="44.74612" lon="3.77858">
        <ele>965.13922119141</ele>
        <time>2020-10-16T11:59:18.465Z</time>
      </trkpt>
      <trkpt lat="44.746" lon="3.77874">
        <ele>965.47601318359</ele>
        <time>2020-10-16T11:59:19.877Z</time>
      </trkpt>
      <trkpt lat="44.7458" lon="3.77895">
        <ele>965.98120117188</ele>
        <time>2020-10-16T11:59:21.294Z</time>
      </trkpt>
      <trkpt lat="44.7456" lon="3.77914">
        <ele>969.53234863281</ele>
        <time>2020-10-16T11:59:22.716Z</time>
      </trkpt>
      <trkpt lat="44.74541" lon="3.77927">
        <ele>972.60302734375</ele>
        <time>2020-10-16T11:59:24.142Z</time>
      </trkpt>
      <trkpt lat="44.74527" lon="3.77944">
        <ele>973.88708496094</ele>
        <time>2020-10-16T11:59:25.572Z</time>
      </trkpt>
      <trkpt lat="44.74517" lon="3.77959">
        <ele>974.00915527344</ele>
        <time>2020-10-16T11:59:27.005Z</time>
      </trkpt>
      <trkpt lat="44.74498" lon="3.77967">
        <ele>973.75408935547</ele>
        <time>2020-10-16T11:59:28.442Z</time>
      </trkpt>
      <trkpt lat="44.74479" lon="3.77972">
        <ele>974.1337890625</ele>
        <time>2020-10-16T11:59:29.883Z</time>
      </trkpt>
      <trkpt lat="44.74467" lon="3.77979">
        <ele>975.32891845703</ele>
        <time>2020-10-16T11:59:31.326Z</time>
      </trkpt>
      <trkpt lat="44.74458" lon="3.77996">
        <ele>977.39233398438</ele>
        <time>2020-10-16T11:59:32.772Z</time>
      </trkpt>
      <trkpt lat="44.74452" lon="3.78011">
        <ele>979.03033447266</ele>
        <time>2020-10-16T11:59:34.221Z</time>
      </trkpt>
      <trkpt lat="44.74444" lon="3.78028">
        <ele>979.81323242188</ele>
        <time>2020-10-16T11:59:35.673Z</time>
      </trkpt>
      <trkpt lat="44.74431" lon="3.78048">
        <ele>980.55621337891</ele>
        <time>2020-10-16T11:59:37.128Z</time>
      </trkpt>
      <trkpt lat="44.74423" lon="3.78075">
        <ele>982.01977539062</ele>
        <time>2020-10-16T11:59:38.588Z</time>
      </trkpt>
      <trkpt lat="44.74415" lon="3.78083">
        <ele>981.89831542969</ele>
        <time>2020-10-16T11:59:40.050Z</time>
      </trkpt>
      <trkpt lat="44.74399" lon="3.78083">
        <ele>980.77740478516</ele>
        <time>2020-10-16T11:59:41.515Z</time>
      </trkpt>
      <trkpt lat="44.74374" lon="3.7826">
        <ele>980.40521240234</ele>
        <time>2020-10-16T11:59:43.005Z</time>
      </trkpt>
      <trkpt lat="44.74345" lon="3.78252">
        <ele>979.86291503906</ele>
        <time>2020-10-16T11:59:44.501Z</time>
      </trkpt>
      <trkpt lat="44.74183" lon="3.78167">
        <ele>986.77038574219</ele>
        <time>2020-10-16T11:59:46.032Z</time>
      </trkpt>
      <trkpt lat="44.74177" lon="3.78137">
        <ele>988.75274658203</ele>
        <time>2020-10-16T11:59:47.567Z</time>
      </trkpt>
      <trkpt lat="44.74158" lon="3.78131">
        <ele>990.63208007812</ele>
        <time>2020-10-16T11:59:49.106Z</time>
      </trkpt>
      <trkpt lat="44.74139" lon="3.7811">
        <ele>993.19372558594</ele>
        <time>2020-10-16T11:59:50.650Z</time>
      </trkpt>
      <trkpt lat="44.74125" lon="3.78105">
        <ele>994.61694335938</ele>
        <time>2020-10-16T11:59:52.197Z</time>
      </trkpt>
      <trkpt lat="44.74057" lon="3.78135">
        <ele>1000.8960571289</ele>
        <time>2020-10-16T11:59:53.758Z</time>
      </trkpt>
      <trkpt lat="44.74031" lon="3.78136">
        <ele>1003.6088867188</ele>
        <time>2020-10-16T11:59:55.325Z</time>
      </trkpt>
      <trkpt lat="44.7394" lon="3.78101">
        <ele>1011.5963745117</ele>
        <time>2020-10-16T11:59:56.910Z</time>
      </trkpt>
      <trkpt lat="44.73848" lon="3.78053">
        <ele>1016.3458862305</ele>
        <time>2020-10-16T11:59:58.515Z</time>
      </trkpt>
    </trkseg>
  </trk>
  <trk>
    <name><![CDATA[ESI0328 -  CIRCUIT DE ROCLES]]></name>
    <extensions>
      <line xmlns="http://www.topografix.com/GPX/gpx_style/0/2">
        <color>0011ff</color>
        <width>4</width>
      </line>
    </extensions>
    <trkseg>
      <trkpt lat="44.71391" lon="3.78213">
        <ele>1112</ele>
        <time>2020-10-16T09:19:25.000Z</time>
      </trkpt>
      <trkpt lat="44.71391" lon="3.78213">
        <ele>1112</ele>
        <time>2020-10-16T09:19:25.000Z</time>
      </trkpt>
      <trkpt lat="44.71391" lon="3.78216">
        <ele>1112</ele>
        <time>2020-10-16T09:19:25.000Z</time>
      </trkpt>
      <trkpt lat="44.71391" lon="3.78216">
        <ele>1112</ele>
        <time>2020-10-16T09:19:25.000Z</time>
      </trkpt>
      <trkpt lat="44.71392" lon="3.78215">
        <ele>1112</ele>
        <time>2020-10-16T09:19:25.001Z</time>
      </trkpt>
      <trkpt lat="44.71393" lon="3.78227">
        <ele>1112</ele>
        <time>2020-10-16T09:19:25.003Z</time>
      </trkpt>
      <trkpt lat="44.71392" lon="3.78233">
        <ele>1112</ele>
        <time>2020-10-16T09:19:25.006Z</time>
      </trkpt>
      <trkpt lat="44.71406" lon="3.78244">
        <ele>1112</ele>
        <time>2020-10-16T09:19:25.012Z</time>
      </trkpt>
      <trkpt lat="44.71416" lon="3.78253">
        <ele>1112</ele>
        <time>2020-10-16T09:19:25.021Z</time>
      </trkpt>
      <trkpt lat="44.71431" lon="3.78274">
        <ele>1111.8955078125</ele>
        <time>2020-10-16T09:19:25.034Z</time>
      </trkpt>
      <trkpt lat="44.71437" lon="3.78262">
        <ele>1112</ele>
        <time>2020-10-16T09:19:25.049Z</time>
      </trkpt>
      <trkpt lat="44.71445" lon="3.78301">
        <ele>1110.5776367188</ele>
        <time>2020-10-16T09:19:25.070Z</time>
      </trkpt>
      <trkpt lat="44.71451" lon="3.78318">
        <ele>1109.7878417969</ele>
        <time>2020-10-16T09:19:25.093Z</time>
      </trkpt>
      <trkpt lat="44.71454" lon="3.78321">
        <ele>1109.60546875</ele>
        <time>2020-10-16T09:19:25.117Z</time>
      </trkpt>
      <trkpt lat="44.71457" lon="3.78323">
        <ele>1109.1942138672</ele>
        <time>2020-10-16T09:19:25.142Z</time>
      </trkpt>
      <trkpt lat="44.7146" lon="3.78323">
        <ele>1108.8275146484</ele>
        <time>2020-10-16T09:19:25.167Z</time>
      </trkpt>
      <trkpt lat="44.71497" lon="3.78317">
        <ele>1105.14453125</ele>
        <time>2020-10-16T09:19:25.200Z</time>
      </trkpt>
      <trkpt lat="44.71505" lon="3.78315">
        <ele>1104.5197753906</ele>
        <time>2020-10-16T09:19:25.235Z</time>
      </trkpt>
      <trkpt lat="44.71516" lon="3.78309">
        <ele>1103.9971923828</ele>
        <time>2020-10-16T09:19:25.272Z</time>
      </trkpt>
      <trkpt lat="44.71526" lon="3.78303">
        <ele>1103.6148681641</ele>
        <time>2020-10-16T09:19:25.311Z</time>
      </trkpt>
      <trkpt lat="44.71535" lon="3.78301">
        <ele>1103.0721435547</ele>
        <time>2020-10-16T09:19:25.352Z</time>
      </trkpt>
      <trkpt lat="44.71545" lon="3.78302">
        <ele>1102.1632080078</ele>
        <time>2020-10-16T09:19:25.395Z</time>
      </trkpt>
      <trkpt lat="44.71555" lon="3.78305">
        <ele>1101.0469970703</ele>
        <time>2020-10-16T09:19:25.440Z</time>
      </trkpt>
      <trkpt lat="44.7156" lon="3.78306">
        <ele>1100.5455322266</ele>
        <time>2020-10-16T09:19:25.486Z</time>
      </trkpt>
      <trkpt lat="44.71567" lon="3.78304">
        <ele>1100.1795654297</ele>
        <time>2020-10-16T09:19:25.533Z</time>
      </trkpt>
      <trkpt lat="44.71572" lon="3.78298">
        <ele>1100.3004150391</ele>
        <time>2020-10-16T09:19:25.582Z</time>
      </trkpt>
      <trkpt lat="44.71583" lon="3.7828">
        <ele>1101.4351806641</ele>
        <time>2020-10-16T09:19:25.634Z</time>
      </trkpt>
      <trkpt lat="44.71589" lon="3.78263">
        <ele>1102.4719238281</ele>
        <time>2020-10-16T09:19:25.689Z</time>
      </trkpt>
      <trkpt lat="44.71616" lon="3.78254">
        <ele>1101.7203369141</ele>
        <time>2020-10-16T09:19:25.749Z</time>
      </trkpt>
      <trkpt lat="44.71657" lon="3.78244">
        <ele>1100.1434326172</ele>
        <time>2020-10-16T09:19:25.818Z</time>
      </trkpt>
      <trkpt lat="44.71695" lon="3.78234">
        <ele>1098.6993408203</ele>
        <time>2020-10-16T09:19:25.894Z</time>
      </trkpt>
      <trkpt lat="44.71728" lon="3.78226">
        <ele>1097.6031494141</ele>
        <time>2020-10-16T09:19:25.977Z</time>
      </trkpt>
      <trkpt lat="44.71744" lon="3.78225">
        <ele>1097.0087890625</ele>
        <time>2020-10-16T09:19:26.063Z</time>
      </trkpt>
      <trkpt lat="44.71761" lon="3.78225">
        <ele>1096.4155273438</ele>
        <time>2020-10-16T09:19:26.153Z</time>
      </trkpt>
      <trkpt lat="44.71776" lon="3.78226">
        <ele>1095.7296142578</ele>
        <time>2020-10-16T09:19:26.246Z</time>
      </trkpt>
      <trkpt lat="44.71782" lon="3.7824">
        <ele>1094.2199707031</ele>
        <time>2020-10-16T09:19:26.341Z</time>
      </trkpt>
      <trkpt lat="44.71803" lon="3.78274">
        <ele>1091.7940673828</ele>
        <time>2020-10-16T09:19:26.442Z</time>
      </trkpt>
      <trkpt lat="44.71812" lon="3.78293">
        <ele>1090.9584960938</ele>
        <time>2020-10-16T09:19:26.547Z</time>
      </trkpt>
      <trkpt lat="44.71818" lon="3.78307">
        <ele>1090.3099365234</ele>
        <time>2020-10-16T09:19:26.654Z</time>
      </trkpt>
      <trkpt lat="44.71825" lon="3.78317">
        <ele>1090.0129394531</ele>
        <time>2020-10-16T09:19:26.763Z</time>
      </trkpt>
      <trkpt lat="44.71837" lon="3.78329">
        <ele>1089.7923583984</ele>
        <time>2020-10-16T09:19:26.875Z</time>
      </trkpt>
      <trkpt lat="44.7186" lon="3.78356">
        <ele>1089.2322998047</ele>
        <time>2020-10-16T09:19:26.993Z</time>
      </trkpt>
      <trkpt lat="44.71868" lon="3.78371">
        <ele>1088.5462646484</ele>
        <time>2020-10-16T09:19:27.114Z</time>
      </trkpt>
      <trkpt lat="44.71873" lon="3.78384">
        <ele>1087.6309814453</ele>
        <time>2020-10-16T09:19:27.237Z</time>
      </trkpt>
      <trkpt lat="44.71877" lon="3.78401">
        <ele>1086.3507080078</ele>
        <time>2020-10-16T09:19:27.362Z</time>
      </trkpt>
      <trkpt lat="44.71879" lon="3.78425">
        <ele>1084.3970947266</ele>
        <time>2020-10-16T09:19:27.491Z</time>
      </trkpt>
      <trkpt lat="44.71882" lon="3.7844">
        <ele>1083.2863769531</ele>
        <time>2020-10-16T09:19:27.622Z</time>
      </trkpt>
      <trkpt lat="44.71888" lon="3.78452">
        <ele>1082.763671875</ele>
        <time>2020-10-16T09:19:27.755Z</time>
      </trkpt>
      <trkpt lat="44.71893" lon="3.78461">
        <ele>1082.4594726562</ele>
        <time>2020-10-16T09:19:27.890Z</time>
      </trkpt>
      <trkpt lat="44.71922" lon="3.78487">
        <ele>1081.9504394531</ele>
        <time>2020-10-16T09:19:28.032Z</time>
      </trkpt>
      <trkpt lat="44.71948" lon="3.78506">
        <ele>1081.7442626953</ele>
        <time>2020-10-16T09:19:28.179Z</time>
      </trkpt>
      <trkpt lat="44.71966" lon="3.78517">
        <ele>1081.5355224609</ele>
        <time>2020-10-16T09:19:28.330Z</time>
      </trkpt>
      <trkpt lat="44.71978" lon="3.78528">
        <ele>1081.2557373047</ele>
        <time>2020-10-16T09:19:28.484Z</time>
      </trkpt>
      <trkpt lat="44.71996" lon="3.78549">
        <ele>1080.7041015625</ele>
        <time>2020-10-16T09:19:28.643Z</time>
      </trkpt>
      <trkpt lat="44.72014" lon="3.78569">
        <ele>1080.1590576172</ele>
        <time>2020-10-16T09:19:28.807Z</time>
      </trkpt>
      <trkpt lat="44.72034" lon="3.78586">
        <ele>1079.8096923828</ele>
        <time>2020-10-16T09:19:28.975Z</time>
      </trkpt>
      <trkpt lat="44.72043" lon="3.78597">
        <ele>1079.318359375</ele>
        <time>2020-10-16T09:19:29.145Z</time>
      </trkpt>
      <trkpt lat="44.7205" lon="3.7861">
        <ele>1078.5926513672</ele>
        <time>2020-10-16T09:19:29.318Z</time>
      </trkpt>
      <trkpt lat="44.72053" lon="3.78623">
        <ele>1077.9443359375</ele>
        <time>2020-10-16T09:19:29.493Z</time>
      </trkpt>
      <trkpt lat="44.72055" lon="3.78643">
        <ele>1076.9490966797</ele>
        <time>2020-10-16T09:19:29.671Z</time>
      </trkpt>
      <trkpt lat="44.72057" lon="3.78703">
        <ele>1074.5932617188</ele>
        <time>2020-10-16T09:19:29.857Z</time>
      </trkpt>
      <trkpt lat="44.72051" lon="3.78709">
        <ele>1074.3577880859</ele>
        <time>2020-10-16T09:19:30.045Z</time>
      </trkpt>
      <trkpt lat="44.72039" lon="3.78723">
        <ele>1073.3909912109</ele>
        <time>2020-10-16T09:19:30.236Z</time>
      </trkpt>
      <trkpt lat="44.72033" lon="3.7873">
        <ele>1073.1025390625</ele>
        <time>2020-10-16T09:19:30.428Z</time>
      </trkpt>
      <trkpt lat="44.7203" lon="3.78741">
        <ele>1072.6337890625</ele>
        <time>2020-10-16T09:19:30.622Z</time>
      </trkpt>
      <trkpt lat="44.72036" lon="3.7876">
        <ele>1071.5645751953</ele>
        <time>2020-10-16T09:19:30.819Z</time>
      </trkpt>
      <trkpt lat="44.72043" lon="3.7878">
        <ele>1071.2465820312</ele>
        <time>2020-10-16T09:19:31.019Z</time>
      </trkpt>
      <trkpt lat="44.72043" lon="3.78795">
        <ele>1071.0952148438</ele>
        <time>2020-10-16T09:19:31.221Z</time>
      </trkpt>
      <trkpt lat="44.72034" lon="3.78826">
        <ele>1070.3175048828</ele>
        <time>2020-10-16T09:19:31.428Z</time>
      </trkpt>
      <trkpt lat="44.72015" lon="3.78909">
        <ele>1068.6986083984</ele>
        <time>2020-10-16T09:19:31.648Z</time>
      </trkpt>
      <trkpt lat="44.7201" lon="3.78946">
        <ele>1068.6328125</ele>
        <time>2020-10-16T09:19:31.873Z</time>
      </trkpt>
      <trkpt lat="44.72" lon="3.78988">
        <ele>1069.4731445312</ele>
        <time>2020-10-16T09:19:32.104Z</time>
      </trkpt>
      <trkpt lat="44.7199" lon="3.79062">
        <ele>1069.5980224609</ele>
        <time>2020-10-16T09:19:32.346Z</time>
      </trkpt>
      <trkpt lat="44.71984" lon="3.79119">
        <ele>1069.9801025391</ele>
        <time>2020-10-16T09:19:32.596Z</time>
      </trkpt>
      <trkpt lat="44.71979" lon="3.79153">
        <ele>1070.3254394531</ele>
        <time>2020-10-16T09:19:32.851Z</time>
      </trkpt>
      <trkpt lat="44.71973" lon="3.79184">
        <ele>1071.3250732422</ele>
        <time>2020-10-16T09:19:33.111Z</time>
      </trkpt>
      <trkpt lat="44.71966" lon="3.79213">
        <ele>1070.8499755859</ele>
        <time>2020-10-16T09:19:33.375Z</time>
      </trkpt>
      <trkpt lat="44.7196" lon="3.79229">
        <ele>1070.9229736328</ele>
        <time>2020-10-16T09:19:33.642Z</time>
      </trkpt>
      <trkpt lat="44.71956" lon="3.79241">
        <ele>1070.9752197266</ele>
        <time>2020-10-16T09:19:33.911Z</time>
      </trkpt>
      <trkpt lat="44.71944" lon="3.79261">
        <ele>1070.3070068359</ele>
        <time>2020-10-16T09:19:34.183Z</time>
      </trkpt>
      <trkpt lat="44.71934" lon="3.79282">
        <ele>1070.2836914062</ele>
        <time>2020-10-16T09:19:34.459Z</time>
      </trkpt>
      <trkpt lat="44.71924" lon="3.79308">
        <ele>1069.9381103516</ele>
        <time>2020-10-16T09:19:34.739Z</time>
      </trkpt>
      <trkpt lat="44.7192" lon="3.79335">
        <ele>1070.1105957031</ele>
        <time>2020-10-16T09:19:35.023Z</time>
      </trkpt>
      <trkpt lat="44.71913" lon="3.7939">
        <ele>1068.3806152344</ele>
        <time>2020-10-16T09:19:35.315Z</time>
      </trkpt>
      <trkpt lat="44.71909" lon="3.79428">
        <ele>1068.1285400391</ele>
        <time>2020-10-16T09:19:35.612Z</time>
      </trkpt>
      <trkpt lat="44.71911" lon="3.79454">
        <ele>1067.859375</ele>
        <time>2020-10-16T09:19:35.913Z</time>
      </trkpt>
      <trkpt lat="44.71912" lon="3.79495">
        <ele>1067.3365478516</ele>
        <time>2020-10-16T09:19:36.220Z</time>
      </trkpt>
      <trkpt lat="44.71906" lon="3.79544">
        <ele>1066.7296142578</ele>
        <time>2020-10-16T09:19:36.534Z</time>
      </trkpt>
      <trkpt lat="44.71901" lon="3.79586">
        <ele>1066.4169921875</ele>
        <time>2020-10-16T09:19:36.854Z</time>
      </trkpt>
      <trkpt lat="44.71894" lon="3.79618">
        <ele>1065.9588623047</ele>
        <time>2020-10-16T09:19:37.179Z</time>
      </trkpt>
      <trkpt lat="44.71891" lon="3.79651">
        <ele>1064.2557373047</ele>
        <time>2020-10-16T09:19:37.509Z</time>
      </trkpt>
      <trkpt lat="44.71887" lon="3.79692">
        <ele>1062.1409912109</ele>
        <time>2020-10-16T09:19:37.844Z</time>
      </trkpt>
      <trkpt lat="44.71886" lon="3.79717">
        <ele>1061.0822753906</ele>
        <time>2020-10-16T09:19:38.183Z</time>
      </trkpt>
      <trkpt lat="44.71886" lon="3.7977">
        <ele>1057.9149169922</ele>
        <time>2020-10-16T09:19:38.530Z</time>
      </trkpt>
      <trkpt lat="44.71884" lon="3.79798">
        <ele>1057.0637207031</ele>
        <time>2020-10-16T09:19:38.881Z</time>
      </trkpt>
      <trkpt lat="44.71881" lon="3.79829">
        <ele>1055.5089111328</ele>
        <time>2020-10-16T09:19:39.236Z</time>
      </trkpt>
      <trkpt lat="44.71879" lon="3.79859">
        <ele>1054.1195068359</ele>
        <time>2020-10-16T09:19:39.595Z</time>
      </trkpt>
      <trkpt lat="44.71879" lon="3.79888">
        <ele>1053.4020996094</ele>
        <time>2020-10-16T09:19:39.959Z</time>
      </trkpt>
      <trkpt lat="44.71881" lon="3.79913">
        <ele>1052.8601074219</ele>
        <time>2020-10-16T09:19:40.326Z</time>
      </trkpt>
      <trkpt lat="44.71888" lon="3.79939">
        <ele>1052.4216308594</ele>
        <time>2020-10-16T09:19:40.697Z</time>
      </trkpt>
      <trkpt lat="44.71895" lon="3.79959">
        <ele>1052.5981445312</ele>
        <time>2020-10-16T09:19:41.071Z</time>
      </trkpt>
      <trkpt lat="44.71899" lon="3.79987">
        <ele>1052.9187011719</ele>
        <time>2020-10-16T09:19:41.449Z</time>
      </trkpt>
      <trkpt lat="44.71903" lon="3.80009">
        <ele>1053.2395019531</ele>
        <time>2020-10-16T09:19:41.831Z</time>
      </trkpt>
      <trkpt lat="44.71909" lon="3.80038">
        <ele>1053.4680175781</ele>
        <time>2020-10-16T09:19:42.217Z</time>
      </trkpt>
      <trkpt lat="44.71914" lon="3.80064">
        <ele>1053.5229492188</ele>
        <time>2020-10-16T09:19:42.607Z</time>
      </trkpt>
      <trkpt lat="44.7192" lon="3.80094">
        <ele>1053.8670654297</ele>
        <time>2020-10-16T09:19:43.001Z</time>
      </trkpt>
      <trkpt lat="44.71924" lon="3.80114">
        <ele>1053.7952880859</ele>
        <time>2020-10-16T09:19:43.398Z</time>
      </trkpt>
      <trkpt lat="44.71929" lon="3.80126">
        <ele>1053.4891357422</ele>
        <time>2020-10-16T09:19:43.797Z</time>
      </trkpt>
      <trkpt lat="44.71932" lon="3.80141">
        <ele>1053.1392822266</ele>
        <time>2020-10-16T09:19:44.198Z</time>
      </trkpt>
      <trkpt lat="44.71931" lon="3.80155">
        <ele>1052.8070068359</ele>
        <time>2020-10-16T09:19:44.601Z</time>
      </trkpt>
      <trkpt lat="44.71926" lon="3.80175">
        <ele>1052.4975585938</ele>
        <time>2020-10-16T09:19:45.007Z</time>
      </trkpt>
      <trkpt lat="44.71922" lon="3.80196">
        <ele>1052.2908935547</ele>
        <time>2020-10-16T09:19:45.416Z</time>
      </trkpt>
      <trkpt lat="44.71919" lon="3.80215">
        <ele>1052.0933837891</ele>
        <time>2020-10-16T09:19:45.828Z</time>
      </trkpt>
      <trkpt lat="44.71916" lon="3.80236">
        <ele>1051.8065185547</ele>
        <time>2020-10-16T09:19:46.243Z</time>
      </trkpt>
      <trkpt lat="44.71909" lon="3.8026">
        <ele>1049.7170410156</ele>
        <time>2020-10-16T09:19:46.662Z</time>
      </trkpt>
      <trkpt lat="44.71901" lon="3.80294">
        <ele>1047.0979003906</ele>
        <time>2020-10-16T09:19:47.086Z</time>
      </trkpt>
      <trkpt lat="44.71899" lon="3.80326">
        <ele>1043.595703125</ele>
        <time>2020-10-16T09:19:47.515Z</time>
      </trkpt>
      <trkpt lat="44.71894" lon="3.80369">
        <ele>1038.0952148438</ele>
        <time>2020-10-16T09:19:47.950Z</time>
      </trkpt>
      <trkpt lat="44.71888" lon="3.80422">
        <ele>1032.2037353516</ele>
        <time>2020-10-16T09:19:48.393Z</time>
      </trkpt>
      <trkpt lat="44.71886" lon="3.80452">
        <ele>1029.0754394531</ele>
        <time>2020-10-16T09:19:48.840Z</time>
      </trkpt>
      <trkpt lat="44.71892" lon="3.80479">
        <ele>1028.5148925781</ele>
        <time>2020-10-16T09:19:49.291Z</time>
      </trkpt>
      <trkpt lat="44.71909" lon="3.80583">
        <ele>1025.6220703125</ele>
        <time>2020-10-16T09:19:49.757Z</time>
      </trkpt>
      <trkpt lat="44.71911" lon="3.80587">
        <ele>1025.4730224609</ele>
        <time>2020-10-16T09:19:50.224Z</time>
      </trkpt>
      <trkpt lat="44.71909" lon="3.80599">
        <ele>1025.2122802734</ele>
        <time>2020-10-16T09:19:50.692Z</time>
      </trkpt>
      <trkpt lat="44.71901" lon="3.80605">
        <ele>1025.2683105469</ele>
        <time>2020-10-16T09:19:51.162Z</time>
      </trkpt>
      <trkpt lat="44.71889" lon="3.80605">
        <ele>1025.5523681641</ele>
        <time>2020-10-16T09:19:51.635Z</time>
      </trkpt>
      <trkpt lat="44.7187" lon="3.80603">
        <ele>1026.0251464844</ele>
        <time>2020-10-16T09:19:52.112Z</time>
      </trkpt>
      <trkpt lat="44.71846" lon="3.80604">
        <ele>1025.1040039062</ele>
        <time>2020-10-16T09:19:52.593Z</time>
      </trkpt>
      <trkpt lat="44.71836" lon="3.80609">
        <ele>1024.7250976562</ele>
        <time>2020-10-16T09:19:53.076Z</time>
      </trkpt>
      <trkpt lat="44.7182" lon="3.80616">
        <ele>1024.0548095703</ele>
        <time>2020-10-16T09:19:53.563Z</time>
      </trkpt>
      <trkpt lat="44.71785" lon="3.80624">
        <ele>1022.8000488281</ele>
        <time>2020-10-16T09:19:54.057Z</time>
      </trkpt>
      <trkpt lat="44.71768" lon="3.80621">
        <ele>1023.0391235352</ele>
        <time>2020-10-16T09:19:54.554Z</time>
      </trkpt>
      <trkpt lat="44.71736" lon="3.80608">
        <ele>1023.5700683594</ele>
        <time>2020-10-16T09:19:55.058Z</time>
      </trkpt>
      <trkpt lat="44.71699" lon="3.80591">
        <ele>1023.4197387695</ele>
        <time>2020-10-16T09:19:55.570Z</time>
      </trkpt>
      <trkpt lat="44.71675" lon="3.80578">
        <ele>1023.3590087891</ele>
        <time>2020-10-16T09:19:56.087Z</time>
      </trkpt>
      <trkpt lat="44.71664" lon="3.8057">
        <ele>1023.2044067383</ele>
        <time>2020-10-16T09:19:56.606Z</time>
      </trkpt>
      <trkpt lat="44.71653" lon="3.80557">
        <ele>1022.8778686523</ele>
        <time>2020-10-16T09:19:57.128Z</time>
      </trkpt>
      <trkpt lat="44.71643" lon="3.80549">
        <ele>1022.7188720703</ele>
        <time>2020-10-16T09:19:57.652Z</time>
      </trkpt>
      <trkpt lat="44.71629" lon="3.80542">
        <ele>1022.6272583008</ele>
        <time>2020-10-16T09:19:58.180Z</time>
      </trkpt>
      <trkpt lat="44.71614" lon="3.80536">
        <ele>1021.8720092773</ele>
        <time>2020-10-16T09:19:58.711Z</time>
      </trkpt>
      <trkpt lat="44.71611" lon="3.80536">
        <ele>1021.5092773438</ele>
        <time>2020-10-16T09:19:59.242Z</time>
      </trkpt>
      <trkpt lat="44.71602" lon="3.80534">
        <ele>1020.4567871094</ele>
        <time>2020-10-16T09:19:59.775Z</time>
      </trkpt>
      <trkpt lat="44.71592" lon="3.80534">
        <ele>1019.3413696289</ele>
        <time>2020-10-16T09:20:00.310Z</time>
      </trkpt>
      <trkpt lat="44.71576" lon="3.80534">
        <ele>1017.6547241211</ele>
        <time>2020-10-16T09:20:00.848Z</time>
      </trkpt>
      <trkpt lat="44.71535" lon="3.80536">
        <ele>1013.1483154297</ele>
        <time>2020-10-16T09:20:01.394Z</time>
      </trkpt>
      <trkpt lat="44.71508" lon="3.8054">
        <ele>1010.651184082</ele>
        <time>2020-10-16T09:20:01.946Z</time>
      </trkpt>
      <trkpt lat="44.71492" lon="3.80539">
        <ele>1009.1130371094</ele>
        <time>2020-10-16T09:20:02.501Z</time>
      </trkpt>
      <trkpt lat="44.71465" lon="3.80531">
        <ele>1006.2907104492</ele>
        <time>2020-10-16T09:20:03.062Z</time>
      </trkpt>
      <trkpt lat="44.71442" lon="3.80522">
        <ele>1004.7241210938</ele>
        <time>2020-10-16T09:20:03.627Z</time>
      </trkpt>
      <trkpt lat="44.71436" lon="3.80518">
        <ele>1004.6276245117</ele>
        <time>2020-10-16T09:20:04.194Z</time>
      </trkpt>
      <trkpt lat="44.7143" lon="3.80511">
        <ele>1004.5635986328</ele>
        <time>2020-10-16T09:20:04.762Z</time>
      </trkpt>
      <trkpt lat="44.71416" lon="3.80493">
        <ele>1004.451171875</ele>
        <time>2020-10-16T09:20:05.334Z</time>
      </trkpt>
      <trkpt lat="44.71401" lon="3.80483">
        <ele>1004.2113647461</ele>
        <time>2020-10-16T09:20:05.909Z</time>
      </trkpt>
      <trkpt lat="44.71403" lon="3.80477">
        <ele>1004.310546875</ele>
        <time>2020-10-16T09:20:06.485Z</time>
      </trkpt>
      <trkpt lat="44.71403" lon="3.80471">
        <ele>1004.3972167969</ele>
        <time>2020-10-16T09:20:07.062Z</time>
      </trkpt>
      <trkpt lat="44.71398" lon="3.8046">
        <ele>1004.4224243164</ele>
        <time>2020-10-16T09:20:07.641Z</time>
      </trkpt>
      <trkpt lat="44.71392" lon="3.80451">
        <ele>1004.3695068359</ele>
        <time>2020-10-16T09:20:08.222Z</time>
      </trkpt>
      <trkpt lat="44.71386" lon="3.80446">
        <ele>1004.2864379883</ele>
        <time>2020-10-16T09:20:08.804Z</time>
      </trkpt>
      <trkpt lat="44.71383" lon="3.80445">
        <ele>1004.2122192383</ele>
        <time>2020-10-16T09:20:09.387Z</time>
      </trkpt>
      <trkpt lat="44.71377" lon="3.80445">
        <ele>1004.0931396484</ele>
        <time>2020-10-16T09:20:09.971Z</time>
      </trkpt>
      <trkpt lat="44.71342" lon="3.80445">
        <ele>1006.3184204102</ele>
        <time>2020-10-16T09:20:10.562Z</time>
      </trkpt>
      <trkpt lat="44.71335" lon="3.80434">
        <ele>1006.8323974609</ele>
        <time>2020-10-16T09:20:11.155Z</time>
      </trkpt>
      <trkpt lat="44.71321" lon="3.80421">
        <ele>1007.7494506836</ele>
        <time>2020-10-16T09:20:11.752Z</time>
      </trkpt>
      <trkpt lat="44.71308" lon="3.80406">
        <ele>1008.4179077148</ele>
        <time>2020-10-16T09:20:12.352Z</time>
      </trkpt>
      <trkpt lat="44.71301" lon="3.80394">
        <ele>1008.743347168</ele>
        <time>2020-10-16T09:20:12.954Z</time>
      </trkpt>
      <trkpt lat="44.71294" lon="3.80378">
        <ele>1008.9420776367</ele>
        <time>2020-10-16T09:20:13.559Z</time>
      </trkpt>
      <trkpt lat="44.71287" lon="3.80362">
        <ele>1009.1442260742</ele>
        <time>2020-10-16T09:20:14.166Z</time>
      </trkpt>
      <trkpt lat="44.71278" lon="3.80346">
        <ele>1009.7868652344</ele>
        <time>2020-10-16T09:20:14.776Z</time>
      </trkpt>
      <trkpt lat="44.71268" lon="3.80332">
        <ele>1010.840637207</ele>
        <time>2020-10-16T09:20:15.389Z</time>
      </trkpt>
      <trkpt lat="44.71261" lon="3.80323">
        <ele>1011.5199584961</ele>
        <time>2020-10-16T09:20:16.004Z</time>
      </trkpt>
      <trkpt lat="44.71261" lon="3.80311">
        <ele>1012.2492675781</ele>
        <time>2020-10-16T09:20:16.621Z</time>
      </trkpt>
      <trkpt lat="44.71261" lon="3.80295">
        <ele>1013.2099609375</ele>
        <time>2020-10-16T09:20:17.240Z</time>
      </trkpt>
      <trkpt lat="44.71258" lon="3.80285">
        <ele>1013.9146728516</ele>
        <time>2020-10-16T09:20:17.861Z</time>
      </trkpt>
      <trkpt lat="44.71251" lon="3.80267">
        <ele>1015.1331176758</ele>
        <time>2020-10-16T09:20:18.484Z</time>
      </trkpt>
      <trkpt lat="44.71244" lon="3.80258">
        <ele>1015.874206543</ele>
        <time>2020-10-16T09:20:19.109Z</time>
      </trkpt>
      <trkpt lat="44.71237" lon="3.80241">
        <ele>1017.0289916992</ele>
        <time>2020-10-16T09:20:19.737Z</time>
      </trkpt>
      <trkpt lat="44.71232" lon="3.80228">
        <ele>1017.9303588867</ele>
        <time>2020-10-16T09:20:20.367Z</time>
      </trkpt>
      <trkpt lat="44.71225" lon="3.80217">
        <ele>1018.7813720703</ele>
        <time>2020-10-16T09:20:20.999Z</time>
      </trkpt>
      <trkpt lat="44.71218" lon="3.80201">
        <ele>1019.8091430664</ele>
        <time>2020-10-16T09:20:21.634Z</time>
      </trkpt>
      <trkpt lat="44.71212" lon="3.80187">
        <ele>1020.6210327148</ele>
        <time>2020-10-16T09:20:22.271Z</time>
      </trkpt>
      <trkpt lat="44.7121" lon="3.80173">
        <ele>1021.9049682617</ele>
        <time>2020-10-16T09:20:22.910Z</time>
      </trkpt>
      <trkpt lat="44.71207" lon="3.8016">
        <ele>1023.2241210938</ele>
        <time>2020-10-16T09:20:23.551Z</time>
      </trkpt>
      <trkpt lat="44.71204" lon="3.80152">
        <ele>1024.0543212891</ele>
        <time>2020-10-16T09:20:24.194Z</time>
      </trkpt>
      <trkpt lat="44.71202" lon="3.80147">
        <ele>1024.4880371094</ele>
        <time>2020-10-16T09:20:24.837Z</time>
      </trkpt>
      <trkpt lat="44.71199" lon="3.80143">
        <ele>1024.9630126953</ele>
        <time>2020-10-16T09:20:25.481Z</time>
      </trkpt>
      <trkpt lat="44.71191" lon="3.80136">
        <ele>1025.708984375</ele>
        <time>2020-10-16T09:20:26.127Z</time>
      </trkpt>
      <trkpt lat="44.71186" lon="3.80125">
        <ele>1026.7338867188</ele>
        <time>2020-10-16T09:20:26.775Z</time>
      </trkpt>
      <trkpt lat="44.71185" lon="3.80115">
        <ele>1027.5947265625</ele>
        <time>2020-10-16T09:20:27.424Z</time>
      </trkpt>
      <trkpt lat="44.71183" lon="3.80105">
        <ele>1028.5100097656</ele>
        <time>2020-10-16T09:20:28.075Z</time>
      </trkpt>
      <trkpt lat="44.71178" lon="3.80092">
        <ele>1030.2176513672</ele>
        <time>2020-10-16T09:20:28.728Z</time>
      </trkpt>
      <trkpt lat="44.71174" lon="3.80078">
        <ele>1032.0086669922</ele>
        <time>2020-10-16T09:20:29.383Z</time>
      </trkpt>
      <trkpt lat="44.71167" lon="3.80067">
        <ele>1033.3751220703</ele>
        <time>2020-10-16T09:20:30.040Z</time>
      </trkpt>
      <trkpt lat="44.71159" lon="3.80056">
        <ele>1034.6942138672</ele>
        <time>2020-10-16T09:20:30.699Z</time>
      </trkpt>
      <trkpt lat="44.71152" lon="3.80046">
        <ele>1036.0028076172</ele>
        <time>2020-10-16T09:20:31.361Z</time>
      </trkpt>
      <trkpt lat="44.71145" lon="3.80038">
        <ele>1037.0197753906</ele>
        <time>2020-10-16T09:20:32.024Z</time>
      </trkpt>
      <trkpt lat="44.71127" lon="3.80023">
        <ele>1039.3864746094</ele>
        <time>2020-10-16T09:20:32.691Z</time>
      </trkpt>
      <trkpt lat="44.71113" lon="3.80017">
        <ele>1040.1557617188</ele>
        <time>2020-10-16T09:20:33.361Z</time>
      </trkpt>
      <trkpt lat="44.711" lon="3.80014">
        <ele>1039.8757324219</ele>
        <time>2020-10-16T09:20:34.034Z</time>
      </trkpt>
      <trkpt lat="44.71093" lon="3.80014">
        <ele>1039.4957275391</ele>
        <time>2020-10-16T09:20:34.708Z</time>
      </trkpt>
      <trkpt lat="44.71085" lon="3.80015">
        <ele>1039.0545654297</ele>
        <time>2020-10-16T09:20:35.384Z</time>
      </trkpt>
      <trkpt lat="44.71078" lon="3.80015">
        <ele>1038.7288818359</ele>
        <time>2020-10-16T09:20:36.062Z</time>
      </trkpt>
      <trkpt lat="44.71073" lon="3.80005">
        <ele>1039.4956054688</ele>
        <time>2020-10-16T09:20:36.741Z</time>
      </trkpt>
      <trkpt lat="44.7107" lon="3.79989">
        <ele>1041.16796875</ele>
        <time>2020-10-16T09:20:37.423Z</time>
      </trkpt>
      <trkpt lat="44.71067" lon="3.7997">
        <ele>1043.0726318359</ele>
        <time>2020-10-16T09:20:38.107Z</time>
      </trkpt>
      <trkpt lat="44.71063" lon="3.79957">
        <ele>1044.083984375</ele>
        <time>2020-10-16T09:20:38.793Z</time>
      </trkpt>
      <trkpt lat="44.71055" lon="3.79939">
        <ele>1045.4036865234</ele>
        <time>2020-10-16T09:20:39.482Z</time>
      </trkpt>
      <trkpt lat="44.71045" lon="3.79916">
        <ele>1047.3492431641</ele>
        <time>2020-10-16T09:20:40.175Z</time>
      </trkpt>
      <trkpt lat="44.71035" lon="3.79892">
        <ele>1049.6043701172</ele>
        <time>2020-10-16T09:20:40.872Z</time>
      </trkpt>
      <trkpt lat="44.71034" lon="3.79878">
        <ele>1051.1151123047</ele>
        <time>2020-10-16T09:20:41.571Z</time>
      </trkpt>
      <trkpt lat="44.71025" lon="3.79847">
        <ele>1054.8544921875</ele>
        <time>2020-10-16T09:20:42.275Z</time>
      </trkpt>
      <trkpt lat="44.71014" lon="3.79817">
        <ele>1058.4373779297</ele>
        <time>2020-10-16T09:20:42.984Z</time>
      </trkpt>
      <trkpt lat="44.71005" lon="3.79802">
        <ele>1060.5179443359</ele>
        <time>2020-10-16T09:20:43.696Z</time>
      </trkpt>
      <trkpt lat="44.70995" lon="3.79798">
        <ele>1061.7590332031</ele>
        <time>2020-10-16T09:20:44.410Z</time>
      </trkpt>
      <trkpt lat="44.70987" lon="3.79796">
        <ele>1062.7396240234</ele>
        <time>2020-10-16T09:20:45.125Z</time>
      </trkpt>
      <trkpt lat="44.70982" lon="3.7978">
        <ele>1064.6044921875</ele>
        <time>2020-10-16T09:20:45.843Z</time>
      </trkpt>
      <trkpt lat="44.70968" lon="3.79757">
        <ele>1067.6552734375</ele>
        <time>2020-10-16T09:20:46.565Z</time>
      </trkpt>
      <trkpt lat="44.70957" lon="3.7973">
        <ele>1070.7033691406</ele>
        <time>2020-10-16T09:20:47.292Z</time>
      </trkpt>
      <trkpt lat="44.70935" lon="3.79728">
        <ele>1073.8273925781</ele>
        <time>2020-10-16T09:20:48.023Z</time>
      </trkpt>
      <trkpt lat="44.70909" lon="3.79727">
        <ele>1077.6728515625</ele>
        <time>2020-10-16T09:20:48.759Z</time>
      </trkpt>
      <trkpt lat="44.70887" lon="3.79723">
        <ele>1081.0579833984</ele>
        <time>2020-10-16T09:20:49.500Z</time>
      </trkpt>
      <trkpt lat="44.70868" lon="3.79724">
        <ele>1083.7705078125</ele>
        <time>2020-10-16T09:20:50.244Z</time>
      </trkpt>
      <trkpt lat="44.70854" lon="3.79721">
        <ele>1086.3615722656</ele>
        <time>2020-10-16T09:20:50.991Z</time>
      </trkpt>
      <trkpt lat="44.7084" lon="3.79724">
        <ele>1088.4790039062</ele>
        <time>2020-10-16T09:20:51.741Z</time>
      </trkpt>
      <trkpt lat="44.70823" lon="3.79733">
        <ele>1090.4508056641</ele>
        <time>2020-10-16T09:20:52.495Z</time>
      </trkpt>
      <trkpt lat="44.70803" lon="3.79742">
        <ele>1092.0057373047</ele>
        <time>2020-10-16T09:20:53.253Z</time>
      </trkpt>
      <trkpt lat="44.70786" lon="3.79741">
        <ele>1094.2750244141</ele>
        <time>2020-10-16T09:20:54.014Z</time>
      </trkpt>
      <trkpt lat="44.7077" lon="3.79735">
        <ele>1094.9487304688</ele>
        <time>2020-10-16T09:20:54.779Z</time>
      </trkpt>
      <trkpt lat="44.70751" lon="3.79731">
        <ele>1095.3927001953</ele>
        <time>2020-10-16T09:20:55.548Z</time>
      </trkpt>
      <trkpt lat="44.70733" lon="3.79736">
        <ele>1095.0733642578</ele>
        <time>2020-10-16T09:20:56.320Z</time>
      </trkpt>
      <trkpt lat="44.7072" lon="3.79733">
        <ele>1095.5034179688</ele>
        <time>2020-10-16T09:20:57.095Z</time>
      </trkpt>
      <trkpt lat="44.7071" lon="3.79726">
        <ele>1096.26171875</ele>
        <time>2020-10-16T09:20:57.872Z</time>
      </trkpt>
      <trkpt lat="44.70701" lon="3.79721">
        <ele>1096.8967285156</ele>
        <time>2020-10-16T09:20:58.651Z</time>
      </trkpt>
      <trkpt lat="44.70701" lon="3.7971">
        <ele>1097.9611816406</ele>
        <time>2020-10-16T09:20:59.432Z</time>
      </trkpt>
      <trkpt lat="44.70698" lon="3.79696">
        <ele>1099.2956542969</ele>
        <time>2020-10-16T09:21:00.215Z</time>
      </trkpt>
      <trkpt lat="44.70693" lon="3.79677">
        <ele>1100.6668701172</ele>
        <time>2020-10-16T09:21:01.000Z</time>
      </trkpt>
      <trkpt lat="44.70689" lon="3.79657">
        <ele>1101.6553955078</ele>
        <time>2020-10-16T09:21:01.788Z</time>
      </trkpt>
      <trkpt lat="44.70688" lon="3.79645">
        <ele>1102.2708740234</ele>
        <time>2020-10-16T09:21:02.578Z</time>
      </trkpt>
      <trkpt lat="44.70688" lon="3.79634">
        <ele>1102.7760009766</ele>
        <time>2020-10-16T09:21:03.370Z</time>
      </trkpt>
      <trkpt lat="44.70682" lon="3.79623">
        <ele>1103.3905029297</ele>
        <time>2020-10-16T09:21:04.164Z</time>
      </trkpt>
      <trkpt lat="44.70679" lon="3.7962">
        <ele>1103.5561523438</ele>
        <time>2020-10-16T09:21:04.958Z</time>
      </trkpt>
      <trkpt lat="44.70672" lon="3.79612">
        <ele>1104.0466308594</ele>
        <time>2020-10-16T09:21:05.754Z</time>
      </trkpt>
      <trkpt lat="44.70668" lon="3.79598">
        <ele>1105.0346679688</ele>
        <time>2020-10-16T09:21:06.552Z</time>
      </trkpt>
      <trkpt lat="44.70662" lon="3.79586">
        <ele>1106.0863037109</ele>
        <time>2020-10-16T09:21:07.352Z</time>
      </trkpt>
      <trkpt lat="44.7065" lon="3.79565">
        <ele>1107.9822998047</ele>
        <time>2020-10-16T09:21:08.156Z</time>
      </trkpt>
      <trkpt lat="44.70637" lon="3.79548">
        <ele>1109.6198730469</ele>
        <time>2020-10-16T09:21:08.964Z</time>
      </trkpt>
      <trkpt lat="44.70627" lon="3.79538">
        <ele>1110.5690917969</ele>
        <time>2020-10-16T09:21:09.774Z</time>
      </trkpt>
      <trkpt lat="44.70603" lon="3.79518">
        <ele>1113.5281982422</ele>
        <time>2020-10-16T09:21:10.590Z</time>
      </trkpt>
      <trkpt lat="44.7058" lon="3.79504">
        <ele>1116.3636474609</ele>
        <time>2020-10-16T09:21:11.411Z</time>
      </trkpt>
      <trkpt lat="44.7057" lon="3.79488">
        <ele>1118.4407958984</ele>
        <time>2020-10-16T09:21:12.235Z</time>
      </trkpt>
      <trkpt lat="44.70548" lon="3.79473">
        <ele>1121.2757568359</ele>
        <time>2020-10-16T09:21:13.064Z</time>
      </trkpt>
      <trkpt lat="44.70534" lon="3.79455">
        <ele>1123.3395996094</ele>
        <time>2020-10-16T09:21:13.897Z</time>
      </trkpt>
      <trkpt lat="44.7052" lon="3.79445">
        <ele>1123.2673339844</ele>
        <time>2020-10-16T09:21:14.733Z</time>
      </trkpt>
      <trkpt lat="44.70506" lon="3.79424">
        <ele>1124.1534423828</ele>
        <time>2020-10-16T09:21:15.573Z</time>
      </trkpt>
      <trkpt lat="44.70495" lon="3.79403">
        <ele>1125.3605957031</ele>
        <time>2020-10-16T09:21:16.417Z</time>
      </trkpt>
      <trkpt lat="44.70479" lon="3.79387">
        <ele>1125.8225097656</ele>
        <time>2020-10-16T09:21:17.264Z</time>
      </trkpt>
      <trkpt lat="44.70463" lon="3.7936">
        <ele>1127.0520019531</ele>
        <time>2020-10-16T09:21:18.116Z</time>
      </trkpt>
      <trkpt lat="44.70449" lon="3.79331">
        <ele>1128.5006103516</ele>
        <time>2020-10-16T09:21:18.973Z</time>
      </trkpt>
      <trkpt lat="44.70445" lon="3.79317">
        <ele>1129.3859863281</ele>
        <time>2020-10-16T09:21:19.833Z</time>
      </trkpt>
      <trkpt lat="44.70433" lon="3.7929">
        <ele>1131.1623535156</ele>
        <time>2020-10-16T09:21:20.697Z</time>
      </trkpt>
      <trkpt lat="44.70419" lon="3.79262">
        <ele>1132.6584472656</ele>
        <time>2020-10-16T09:21:21.566Z</time>
      </trkpt>
      <trkpt lat="44.70416" lon="3.7925">
        <ele>1132.9786376953</ele>
        <time>2020-10-16T09:21:22.437Z</time>
      </trkpt>
      <trkpt lat="44.70409" lon="3.79238">
        <ele>1133.3295898438</ele>
        <time>2020-10-16T09:21:23.310Z</time>
      </trkpt>
      <trkpt lat="44.70402" lon="3.79226">
        <ele>1133.7058105469</ele>
        <time>2020-10-16T09:21:24.185Z</time>
      </trkpt>
      <trkpt lat="44.70393" lon="3.79213">
        <ele>1134.1423339844</ele>
        <time>2020-10-16T09:21:25.063Z</time>
      </trkpt>
      <trkpt lat="44.70384" lon="3.79205">
        <ele>1134.4232177734</ele>
        <time>2020-10-16T09:21:25.943Z</time>
      </trkpt>
      <trkpt lat="44.7035" lon="3.79187">
        <ele>1135.0744628906</ele>
        <time>2020-10-16T09:21:26.830Z</time>
      </trkpt>
      <trkpt lat="44.70321" lon="3.79172">
        <ele>1136.1860351562</ele>
        <time>2020-10-16T09:21:27.724Z</time>
      </trkpt>
      <trkpt lat="44.70301" lon="3.79157">
        <ele>1137.2514648438</ele>
        <time>2020-10-16T09:21:28.622Z</time>
      </trkpt>
      <trkpt lat="44.70293" lon="3.79147">
        <ele>1137.9744873047</ele>
        <time>2020-10-16T09:21:29.522Z</time>
      </trkpt>
      <trkpt lat="44.70285" lon="3.79136">
        <ele>1138.6909179688</ele>
        <time>2020-10-16T09:21:30.424Z</time>
      </trkpt>
      <trkpt lat="44.70266" lon="3.79128">
        <ele>1138.6135253906</ele>
        <time>2020-10-16T09:21:31.330Z</time>
      </trkpt>
      <trkpt lat="44.70251" lon="3.79116">
        <ele>1138.9196777344</ele>
        <time>2020-10-16T09:21:32.240Z</time>
      </trkpt>
      <trkpt lat="44.70204" lon="3.7909">
        <ele>1138.765625</ele>
        <time>2020-10-16T09:21:33.160Z</time>
      </trkpt>
      <trkpt lat="44.70183" lon="3.79072">
        <ele>1140.5699462891</ele>
        <time>2020-10-16T09:21:34.085Z</time>
      </trkpt>
      <trkpt lat="44.70174" lon="3.79059">
        <ele>1141.5795898438</ele>
        <time>2020-10-16T09:21:35.012Z</time>
      </trkpt>
      <trkpt lat="44.70166" lon="3.79046">
        <ele>1142.6212158203</ele>
        <time>2020-10-16T09:21:35.942Z</time>
      </trkpt>
      <trkpt lat="44.70156" lon="3.79028">
        <ele>1143.9702148438</ele>
        <time>2020-10-16T09:21:36.875Z</time>
      </trkpt>
      <trkpt lat="44.70148" lon="3.79013">
        <ele>1144.4395751953</ele>
        <time>2020-10-16T09:21:37.811Z</time>
      </trkpt>
      <trkpt lat="44.70147" lon="3.78995">
        <ele>1144.0541992188</ele>
        <time>2020-10-16T09:21:38.749Z</time>
      </trkpt>
      <trkpt lat="44.70161" lon="3.78983">
        <ele>1143.1164550781</ele>
        <time>2020-10-16T09:21:39.690Z</time>
      </trkpt>
      <trkpt lat="44.70135" lon="3.78969">
        <ele>1144.0142822266</ele>
        <time>2020-10-16T09:21:40.637Z</time>
      </trkpt>
      <trkpt lat="44.7012" lon="3.7895">
        <ele>1144.2711181641</ele>
        <time>2020-10-16T09:21:41.588Z</time>
      </trkpt>
      <trkpt lat="44.70106" lon="3.78933">
        <ele>1144.2553710938</ele>
        <time>2020-10-16T09:21:42.543Z</time>
      </trkpt>
      <trkpt lat="44.70085" lon="3.78894">
        <ele>1142.7329101562</ele>
        <time>2020-10-16T09:21:43.505Z</time>
      </trkpt>
      <trkpt lat="44.70075" lon="3.78877">
        <ele>1142.1275634766</ele>
        <time>2020-10-16T09:21:44.470Z</time>
      </trkpt>
      <trkpt lat="44.70066" lon="3.78861">
        <ele>1141.5690917969</ele>
        <time>2020-10-16T09:21:45.438Z</time>
      </trkpt>
      <trkpt lat="44.70056" lon="3.78843">
        <ele>1141.5405273438</ele>
        <time>2020-10-16T09:21:46.409Z</time>
      </trkpt>
      <trkpt lat="44.70031" lon="3.78804">
        <ele>1141.4401855469</ele>
        <time>2020-10-16T09:21:47.388Z</time>
      </trkpt>
      <trkpt lat="44.7" lon="3.78756">
        <ele>1138.4350585938</ele>
        <time>2020-10-16T09:21:48.376Z</time>
      </trkpt>
      <trkpt lat="44.69987" lon="3.78738">
        <ele>1137.2467041016</ele>
        <time>2020-10-16T09:21:49.367Z</time>
      </trkpt>
      <trkpt lat="44.69969" lon="3.78709">
        <ele>1135.5056152344</ele>
        <time>2020-10-16T09:21:50.364Z</time>
      </trkpt>
      <trkpt lat="44.69952" lon="3.78684">
        <ele>1133.6782226562</ele>
        <time>2020-10-16T09:21:51.366Z</time>
      </trkpt>
      <trkpt lat="44.69939" lon="3.7867">
        <ele>1132.1325683594</ele>
        <time>2020-10-16T09:21:52.371Z</time>
      </trkpt>
      <trkpt lat="44.69922" lon="3.78656">
        <ele>1130.5390625</ele>
        <time>2020-10-16T09:21:53.380Z</time>
      </trkpt>
      <trkpt lat="44.69909" lon="3.78643">
        <ele>1129.1818847656</ele>
        <time>2020-10-16T09:21:54.392Z</time>
      </trkpt>
      <trkpt lat="44.69897" lon="3.78628">
        <ele>1127.6524658203</ele>
        <time>2020-10-16T09:21:55.407Z</time>
      </trkpt>
      <trkpt lat="44.69888" lon="3.78614">
        <ele>1126.2855224609</ele>
        <time>2020-10-16T09:21:56.425Z</time>
      </trkpt>
      <trkpt lat="44.69878" lon="3.78595">
        <ele>1125.5186767578</ele>
        <time>2020-10-16T09:21:57.447Z</time>
      </trkpt>
      <trkpt lat="44.69867" lon="3.78579">
        <ele>1125.6441650391</ele>
        <time>2020-10-16T09:21:58.472Z</time>
      </trkpt>
      <trkpt lat="44.69861" lon="3.78567">
        <ele>1126.0134277344</ele>
        <time>2020-10-16T09:21:59.499Z</time>
      </trkpt>
      <trkpt lat="44.69855" lon="3.78552">
        <ele>1126.4461669922</ele>
        <time>2020-10-16T09:22:00.528Z</time>
      </trkpt>
      <trkpt lat="44.69851" lon="3.78539">
        <ele>1126.8170166016</ele>
        <time>2020-10-16T09:22:01.559Z</time>
      </trkpt>
      <trkpt lat="44.69846" lon="3.78527">
        <ele>1127.1607666016</ele>
        <time>2020-10-16T09:22:02.592Z</time>
      </trkpt>
      <trkpt lat="44.69842" lon="3.78518">
        <ele>1127.7644042969</ele>
        <time>2020-10-16T09:22:03.627Z</time>
      </trkpt>
      <trkpt lat="44.69835" lon="3.7851">
        <ele>1128.6356201172</ele>
        <time>2020-10-16T09:22:04.664Z</time>
      </trkpt>
      <trkpt lat="44.69828" lon="3.78505">
        <ele>1129.3201904297</ele>
        <time>2020-10-16T09:22:05.702Z</time>
      </trkpt>
      <trkpt lat="44.69822" lon="3.78498">
        <ele>1130.0736083984</ele>
        <time>2020-10-16T09:22:06.742Z</time>
      </trkpt>
      <trkpt lat="44.69817" lon="3.78492">
        <ele>1130.8665771484</ele>
        <time>2020-10-16T09:22:07.783Z</time>
      </trkpt>
      <trkpt lat="44.69814" lon="3.78483">
        <ele>1131.7879638672</ele>
        <time>2020-10-16T09:22:08.825Z</time>
      </trkpt>
      <trkpt lat="44.6981" lon="3.78472">
        <ele>1133.0354003906</ele>
        <time>2020-10-16T09:22:09.869Z</time>
      </trkpt>
      <trkpt lat="44.69807" lon="3.78456">
        <ele>1134.6911621094</ele>
        <time>2020-10-16T09:22:10.916Z</time>
      </trkpt>
      <trkpt lat="44.69803" lon="3.78445">
        <ele>1135.6911621094</ele>
        <time>2020-10-16T09:22:11.964Z</time>
      </trkpt>
      <trkpt lat="44.69798" lon="3.7843">
        <ele>1137.3909912109</ele>
        <time>2020-10-16T09:22:13.015Z</time>
      </trkpt>
      <trkpt lat="44.69795" lon="3.78416">
        <ele>1138.9938964844</ele>
        <time>2020-10-16T09:22:14.068Z</time>
      </trkpt>
      <trkpt lat="44.69791" lon="3.78402">
        <ele>1140.6687011719</ele>
        <time>2020-10-16T09:22:15.123Z</time>
      </trkpt>
      <trkpt lat="44.6979" lon="3.78387">
        <ele>1142.369140625</ele>
        <time>2020-10-16T09:22:16.180Z</time>
      </trkpt>
      <trkpt lat="44.6979" lon="3.78383">
        <ele>1142.8051757812</ele>
        <time>2020-10-16T09:22:17.238Z</time>
      </trkpt>
      <trkpt lat="44.6979" lon="3.7837">
        <ele>1144.1966552734</ele>
        <time>2020-10-16T09:22:18.298Z</time>
      </trkpt>
      <trkpt lat="44.69791" lon="3.78353">
        <ele>1145.8063964844</ele>
        <time>2020-10-16T09:22:19.360Z</time>
      </trkpt>
      <trkpt lat="44.69791" lon="3.78339">
        <ele>1146.8524169922</ele>
        <time>2020-10-16T09:22:20.424Z</time>
      </trkpt>
      <trkpt lat="44.69789" lon="3.78326">
        <ele>1147.9223632812</ele>
        <time>2020-10-16T09:22:21.490Z</time>
      </trkpt>
      <trkpt lat="44.69788" lon="3.78315">
        <ele>1148.7416992188</ele>
        <time>2020-10-16T09:22:22.557Z</time>
      </trkpt>
      <trkpt lat="44.69789" lon="3.78308">
        <ele>1149.2242431641</ele>
        <time>2020-10-16T09:22:23.625Z</time>
      </trkpt>
      <trkpt lat="44.69789" lon="3.78295">
        <ele>1150.0867919922</ele>
        <time>2020-10-16T09:22:24.695Z</time>
      </trkpt>
      <trkpt lat="44.69789" lon="3.78277">
        <ele>1151.4757080078</ele>
        <time>2020-10-16T09:22:25.768Z</time>
      </trkpt>
      <trkpt lat="44.69787" lon="3.78257">
        <ele>1152.8493652344</ele>
        <time>2020-10-16T09:22:26.844Z</time>
      </trkpt>
      <trkpt lat="44.69789" lon="3.7824">
        <ele>1153.8200683594</ele>
        <time>2020-10-16T09:22:27.922Z</time>
      </trkpt>
      <trkpt lat="44.69791" lon="3.78221">
        <ele>1154.8758544922</ele>
        <time>2020-10-16T09:22:29.003Z</time>
      </trkpt>
      <trkpt lat="44.69789" lon="3.78204">
        <ele>1155.9415283203</ele>
        <time>2020-10-16T09:22:30.086Z</time>
      </trkpt>
      <trkpt lat="44.69783" lon="3.78186">
        <ele>1156.9666748047</ele>
        <time>2020-10-16T09:22:31.172Z</time>
      </trkpt>
      <trkpt lat="44.69771" lon="3.78163">
        <ele>1157.306640625</ele>
        <time>2020-10-16T09:22:32.262Z</time>
      </trkpt>
      <trkpt lat="44.69762" lon="3.78151">
        <ele>1157.4436035156</ele>
        <time>2020-10-16T09:22:33.355Z</time>
      </trkpt>
      <trkpt lat="44.69753" lon="3.7814">
        <ele>1157.5739746094</ele>
        <time>2020-10-16T09:22:34.450Z</time>
      </trkpt>
      <trkpt lat="44.69745" lon="3.78125">
        <ele>1157.7517089844</ele>
        <time>2020-10-16T09:22:35.548Z</time>
      </trkpt>
      <trkpt lat="44.69738" lon="3.78113">
        <ele>1157.9051513672</ele>
        <time>2020-10-16T09:22:36.648Z</time>
      </trkpt>
      <trkpt lat="44.69734" lon="3.78095">
        <ele>1158.1181640625</ele>
        <time>2020-10-16T09:22:37.751Z</time>
      </trkpt>
      <trkpt lat="44.69729" lon="3.78077">
        <ele>1158.3353271484</ele>
        <time>2020-10-16T09:22:38.857Z</time>
      </trkpt>
      <trkpt lat="44.69724" lon="3.78059">
        <ele>1158.5522460938</ele>
        <time>2020-10-16T09:22:39.965Z</time>
      </trkpt>
      <trkpt lat="44.69734" lon="3.78058">
        <ele>1158.5556640625</ele>
        <time>2020-10-16T09:22:41.075Z</time>
      </trkpt>
      <trkpt lat="44.69769" lon="3.78058">
        <ele>1157.8634033203</ele>
        <time>2020-10-16T09:22:42.192Z</time>
      </trkpt>
      <trkpt lat="44.69798" lon="3.78059">
        <ele>1157.4465332031</ele>
        <time>2020-10-16T09:22:43.315Z</time>
      </trkpt>
      <trkpt lat="44.6982" lon="3.78057">
        <ele>1157.4331054688</ele>
        <time>2020-10-16T09:22:44.443Z</time>
      </trkpt>
      <trkpt lat="44.69853" lon="3.78056">
        <ele>1158.1730957031</ele>
        <time>2020-10-16T09:22:45.577Z</time>
      </trkpt>
      <trkpt lat="44.69876" lon="3.78055">
        <ele>1158.1003417969</ele>
        <time>2020-10-16T09:22:46.716Z</time>
      </trkpt>
      <trkpt lat="44.69897" lon="3.78056">
        <ele>1156.3182373047</ele>
        <time>2020-10-16T09:22:47.859Z</time>
      </trkpt>
      <trkpt lat="44.69947" lon="3.78062">
        <ele>1153.3549804688</ele>
        <time>2020-10-16T09:22:49.012Z</time>
      </trkpt>
      <trkpt lat="44.69958" lon="3.78064">
        <ele>1152.9453125</ele>
        <time>2020-10-16T09:22:50.167Z</time>
      </trkpt>
      <trkpt lat="44.69964" lon="3.78067">
        <ele>1152.787109375</ele>
        <time>2020-10-16T09:22:51.324Z</time>
      </trkpt>
      <trkpt lat="44.69971" lon="3.78075">
        <ele>1152.4487304688</ele>
        <time>2020-10-16T09:22:52.482Z</time>
      </trkpt>
      <trkpt lat="44.69974" lon="3.7807">
        <ele>1152.6625976562</ele>
        <time>2020-10-16T09:22:53.641Z</time>
      </trkpt>
      <trkpt lat="44.69982" lon="3.78062">
        <ele>1153.0419921875</ele>
        <time>2020-10-16T09:22:54.802Z</time>
      </trkpt>
      <trkpt lat="44.69984" lon="3.78044">
        <ele>1153.9154052734</ele>
        <time>2020-10-16T09:22:55.966Z</time>
      </trkpt>
      <trkpt lat="44.69989" lon="3.78017">
        <ele>1155.1435546875</ele>
        <time>2020-10-16T09:22:57.134Z</time>
      </trkpt>
      <trkpt lat="44.69993" lon="3.77996">
        <ele>1155.8989257812</ele>
        <time>2020-10-16T09:22:58.305Z</time>
      </trkpt>
      <trkpt lat="44.69997" lon="3.77988">
        <ele>1156.1997070312</ele>
        <time>2020-10-16T09:22:59.477Z</time>
      </trkpt>
      <trkpt lat="44.70015" lon="3.77967">
        <ele>1156.9410400391</ele>
        <time>2020-10-16T09:23:00.654Z</time>
      </trkpt>
      <trkpt lat="44.7003" lon="3.77943">
        <ele>1157.8355712891</ele>
        <time>2020-10-16T09:23:01.835Z</time>
      </trkpt>
      <trkpt lat="44.70061" lon="3.77903">
        <ele>1156.4099121094</ele>
        <time>2020-10-16T09:23:03.025Z</time>
      </trkpt>
      <trkpt lat="44.70071" lon="3.77889">
        <ele>1155.7375488281</ele>
        <time>2020-10-16T09:23:04.218Z</time>
      </trkpt>
      <trkpt lat="44.70081" lon="3.77881">
        <ele>1154.9571533203</ele>
        <time>2020-10-16T09:23:05.413Z</time>
      </trkpt>
      <trkpt lat="44.70092" lon="3.77875">
        <ele>1154.1856689453</ele>
        <time>2020-10-16T09:23:06.610Z</time>
      </trkpt>
      <trkpt lat="44.70105" lon="3.77876">
        <ele>1153.4498291016</ele>
        <time>2020-10-16T09:23:07.810Z</time>
      </trkpt>
      <trkpt lat="44.7013" lon="3.77877">
        <ele>1152.5454101562</ele>
        <time>2020-10-16T09:23:09.015Z</time>
      </trkpt>
      <trkpt lat="44.70144" lon="3.77876">
        <ele>1152.3828125</ele>
        <time>2020-10-16T09:23:10.223Z</time>
      </trkpt>
      <trkpt lat="44.70158" lon="3.77871">
        <ele>1151.6206054688</ele>
        <time>2020-10-16T09:23:11.434Z</time>
      </trkpt>
      <trkpt lat="44.70175" lon="3.77861">
        <ele>1150.3918457031</ele>
        <time>2020-10-16T09:23:12.648Z</time>
      </trkpt>
      <trkpt lat="44.70244" lon="3.77819">
        <ele>1148.88671875</ele>
        <time>2020-10-16T09:23:13.877Z</time>
      </trkpt>
      <trkpt lat="44.70256" lon="3.77815">
        <ele>1149.5323486328</ele>
        <time>2020-10-16T09:23:15.109Z</time>
      </trkpt>
      <trkpt lat="44.70265" lon="3.7781">
        <ele>1150.0362548828</ele>
        <time>2020-10-16T09:23:16.343Z</time>
      </trkpt>
      <trkpt lat="44.70283" lon="3.77791">
        <ele>1150.6029052734</ele>
        <time>2020-10-16T09:23:17.581Z</time>
      </trkpt>
      <trkpt lat="44.703" lon="3.7777">
        <ele>1149.6907958984</ele>
        <time>2020-10-16T09:23:18.824Z</time>
      </trkpt>
      <trkpt lat="44.70319" lon="3.77751">
        <ele>1147.8842773438</ele>
        <time>2020-10-16T09:23:20.071Z</time>
      </trkpt>
      <trkpt lat="44.70342" lon="3.77726">
        <ele>1146.3489990234</ele>
        <time>2020-10-16T09:23:21.324Z</time>
      </trkpt>
      <trkpt lat="44.70357" lon="3.7771">
        <ele>1146.3184814453</ele>
        <time>2020-10-16T09:23:22.581Z</time>
      </trkpt>
      <trkpt lat="44.70368" lon="3.77692">
        <ele>1146.0949707031</ele>
        <time>2020-10-16T09:23:23.841Z</time>
      </trkpt>
      <trkpt lat="44.70384" lon="3.77667">
        <ele>1144.6253662109</ele>
        <time>2020-10-16T09:23:25.106Z</time>
      </trkpt>
      <trkpt lat="44.70398" lon="3.77651">
        <ele>1143.669921875</ele>
        <time>2020-10-16T09:23:26.375Z</time>
      </trkpt>
      <trkpt lat="44.70409" lon="3.77637">
        <ele>1143.3428955078</ele>
        <time>2020-10-16T09:23:27.647Z</time>
      </trkpt>
      <trkpt lat="44.70426" lon="3.77611">
        <ele>1145.3022460938</ele>
        <time>2020-10-16T09:23:28.924Z</time>
      </trkpt>
      <trkpt lat="44.70445" lon="3.77588">
        <ele>1146.2987060547</ele>
        <time>2020-10-16T09:23:30.206Z</time>
      </trkpt>
      <trkpt lat="44.7046" lon="3.77569">
        <ele>1146.5062255859</ele>
        <time>2020-10-16T09:23:31.492Z</time>
      </trkpt>
      <trkpt lat="44.7048" lon="3.77555">
        <ele>1145.2359619141</ele>
        <time>2020-10-16T09:23:32.782Z</time>
      </trkpt>
      <trkpt lat="44.705" lon="3.7754">
        <ele>1146.3350830078</ele>
        <time>2020-10-16T09:23:34.077Z</time>
      </trkpt>
      <trkpt lat="44.70517" lon="3.77528">
        <ele>1147.7114257812</ele>
        <time>2020-10-16T09:23:35.376Z</time>
      </trkpt>
      <trkpt lat="44.70528" lon="3.77517">
        <ele>1148.3090820312</ele>
        <time>2020-10-16T09:23:36.677Z</time>
      </trkpt>
      <trkpt lat="44.70548" lon="3.77491">
        <ele>1148.1779785156</ele>
        <time>2020-10-16T09:23:37.984Z</time>
      </trkpt>
      <trkpt lat="44.70565" lon="3.77473">
        <ele>1147.9396972656</ele>
        <time>2020-10-16T09:23:39.295Z</time>
      </trkpt>
      <trkpt lat="44.70565" lon="3.77473">
        <ele>1147.9393310547</ele>
        <time>2020-10-16T09:23:40.606Z</time>
      </trkpt>
      <trkpt lat="44.70565" lon="3.77473">
        <ele>1147.9276123047</ele>
        <time>2020-10-16T09:23:41.917Z</time>
      </trkpt>
      <trkpt lat="44.70606" lon="3.77422">
        <ele>1145.3037109375</ele>
        <time>2020-10-16T09:23:43.239Z</time>
      </trkpt>
      <trkpt lat="44.70677" lon="3.77385">
        <ele>1142.9331054688</ele>
        <time>2020-10-16T09:23:44.576Z</time>
      </trkpt>
      <trkpt lat="44.70737" lon="3.77375">
        <ele>1141.8375244141</ele>
        <time>2020-10-16T09:23:45.925Z</time>
      </trkpt>
      <trkpt lat="44.70738" lon="3.77378">
        <ele>1142.0847167969</ele>
        <time>2020-10-16T09:23:47.275Z</time>
      </trkpt>
      <trkpt lat="44.70779" lon="3.77447">
        <ele>1146.9691162109</ele>
        <time>2020-10-16T09:23:48.638Z</time>
      </trkpt>
      <trkpt lat="44.7082" lon="3.7748">
        <ele>1143.240234375</ele>
        <time>2020-10-16T09:23:50.010Z</time>
      </trkpt>
      <trkpt lat="44.70849" lon="3.77528">
        <ele>1139.1328125</ele>
        <time>2020-10-16T09:23:51.391Z</time>
      </trkpt>
      <trkpt lat="44.70874" lon="3.77586">
        <ele>1131.2103271484</ele>
        <time>2020-10-16T09:23:52.782Z</time>
      </trkpt>
      <trkpt lat="44.70889" lon="3.77611">
        <ele>1126.3098144531</ele>
        <time>2020-10-16T09:23:54.177Z</time>
      </trkpt>
      <trkpt lat="44.70913" lon="3.77639">
        <ele>1119.1590576172</ele>
        <time>2020-10-16T09:23:55.579Z</time>
      </trkpt>
      <trkpt lat="44.70941" lon="3.77645">
        <ele>1114.1071777344</ele>
        <time>2020-10-16T09:23:56.986Z</time>
      </trkpt>
      <trkpt lat="44.70987" lon="3.77613">
        <ele>1110.4246826172</ele>
        <time>2020-10-16T09:23:58.404Z</time>
      </trkpt>
      <trkpt lat="44.70987" lon="3.77613">
        <ele>1110.4250488281</ele>
        <time>2020-10-16T09:23:59.822Z</time>
      </trkpt>
      <trkpt lat="44.70987" lon="3.77615">
        <ele>1110.3275146484</ele>
        <time>2020-10-16T09:24:01.240Z</time>
      </trkpt>
      <trkpt lat="44.71024" lon="3.77608">
        <ele>1104.2000732422</ele>
        <time>2020-10-16T09:24:02.665Z</time>
      </trkpt>
      <trkpt lat="44.71028" lon="3.77605">
        <ele>1103.6706542969</ele>
        <time>2020-10-16T09:24:04.091Z</time>
      </trkpt>
      <trkpt lat="44.71028" lon="3.77605">
        <ele>1103.6715087891</ele>
        <time>2020-10-16T09:24:05.517Z</time>
      </trkpt>
      <trkpt lat="44.71046" lon="3.7759">
        <ele>1101.8337402344</ele>
        <time>2020-10-16T09:24:06.947Z</time>
      </trkpt>
      <trkpt lat="44.71046" lon="3.7759">
        <ele>1101.8345947266</ele>
        <time>2020-10-16T09:24:08.377Z</time>
      </trkpt>
      <trkpt lat="44.71046" lon="3.7759">
        <ele>1101.8337402344</ele>
        <time>2020-10-16T09:24:09.807Z</time>
      </trkpt>
      <trkpt lat="44.71049" lon="3.7759">
        <ele>1101.5587158203</ele>
        <time>2020-10-16T09:24:11.238Z</time>
      </trkpt>
      <trkpt lat="44.71098" lon="3.7759">
        <ele>1096.8916015625</ele>
        <time>2020-10-16T09:24:12.679Z</time>
      </trkpt>
      <trkpt lat="44.71155" lon="3.77571">
        <ele>1095.9476318359</ele>
        <time>2020-10-16T09:24:14.131Z</time>
      </trkpt>
      <trkpt lat="44.71167" lon="3.77575">
        <ele>1094.9821777344</ele>
        <time>2020-10-16T09:24:15.586Z</time>
      </trkpt>
      <trkpt lat="44.71193" lon="3.77601">
        <ele>1090.8502197266</ele>
        <time>2020-10-16T09:24:17.047Z</time>
      </trkpt>
      <trkpt lat="44.71211" lon="3.77653">
        <ele>1089.2344970703</ele>
        <time>2020-10-16T09:24:18.516Z</time>
      </trkpt>
      <trkpt lat="44.71214" lon="3.7766">
        <ele>1089.0928955078</ele>
        <time>2020-10-16T09:24:19.987Z</time>
      </trkpt>
      <trkpt lat="44.71231" lon="3.77754">
        <ele>1088.5355224609</ele>
        <time>2020-10-16T09:24:21.471Z</time>
      </trkpt>
      <trkpt lat="44.71312" lon="3.77894">
        <ele>1096.7542724609</ele>
        <time>2020-10-16T09:24:22.981Z</time>
      </trkpt>
      <trkpt lat="44.71368" lon="3.77998">
        <ele>1108.6768798828</ele>
        <time>2020-10-16T09:24:24.510Z</time>
      </trkpt>
      <trkpt lat="44.71388" lon="3.78046">
        <ele>1111.7406005859</ele>
        <time>2020-10-16T09:24:26.047Z</time>
      </trkpt>
      <trkpt lat="44.71388" lon="3.78046">
        <ele>1111.7401123047</ele>
        <time>2020-10-16T09:24:27.584Z</time>
      </trkpt>
      <trkpt lat="44.714" lon="3.78086">
        <ele>1113.7744140625</ele>
        <time>2020-10-16T09:24:29.127Z</time>
      </trkpt>
      <trkpt lat="44.71404" lon="3.78167">
        <ele>1113.4853515625</ele>
        <time>2020-10-16T09:24:30.681Z</time>
      </trkpt>
      <trkpt lat="44.71388" lon="3.78193">
        <ele>1112.4888916016</ele>
        <time>2020-10-16T09:24:32.240Z</time>
      </trkpt>
      <trkpt lat="44.7139" lon="3.78205">
        <ele>1112.1059570312</ele>
        <time>2020-10-16T09:24:33.801Z</time>
      </trkpt>
    </trkseg>
  </trk>
  <trk>
    <name><![CDATA[ESI0335 - CIRCUIT DU CHAPEAUROUX]]></name>
    <extensions>
      <line xmlns="http://www.topografix.com/GPX/gpx_style/0/2">
        <color>0011ff</color>
        <width>4</width>
      </line>
    </extensions>
    <trkseg>
      <trkpt lat="44.75331" lon="3.72584">
        <ele>994.86358642578</ele>
        <time>2020-11-02T09:00:34.000Z</time>
      </trkpt>
      <trkpt lat="44.75336" lon="3.72591">
        <ele>995.99139404297</ele>
        <time>2020-11-02T09:00:34.001Z</time>
      </trkpt>
      <trkpt lat="44.75337" lon="3.72605">
        <ele>996.54888916016</ele>
        <time>2020-11-02T09:00:34.004Z</time>
      </trkpt>
      <trkpt lat="44.75336" lon="3.72657">
        <ele>998.67980957031</ele>
        <time>2020-11-02T09:00:34.015Z</time>
      </trkpt>
      <trkpt lat="44.75335" lon="3.72673">
        <ele>998.64379882812</ele>
        <time>2020-11-02T09:00:34.028Z</time>
      </trkpt>
      <trkpt lat="44.75332" lon="3.72685">
        <ele>998.10388183594</ele>
        <time>2020-11-02T09:00:34.043Z</time>
      </trkpt>
      <trkpt lat="44.75314" lon="3.72734">
        <ele>998.10717773438</ele>
        <time>2020-11-02T09:00:34.066Z</time>
      </trkpt>
      <trkpt lat="44.7531" lon="3.72745">
        <ele>997.66326904297</ele>
        <time>2020-11-02T09:00:34.091Z</time>
      </trkpt>
      <trkpt lat="44.75311" lon="3.72752">
        <ele>998.35913085938</ele>
        <time>2020-11-02T09:00:34.117Z</time>
      </trkpt>
      <trkpt lat="44.75304" lon="3.72783">
        <ele>998.43756103516</ele>
        <time>2020-11-02T09:00:34.147Z</time>
      </trkpt>
      <trkpt lat="44.75297" lon="3.72802">
        <ele>999.72998046875</ele>
        <time>2020-11-02T09:00:34.180Z</time>
      </trkpt>
      <trkpt lat="44.75288" lon="3.72817">
        <ele>1000.3418579102</ele>
        <time>2020-11-02T09:00:34.216Z</time>
      </trkpt>
      <trkpt lat="44.75276" lon="3.72824">
        <ele>1000.1014404297</ele>
        <time>2020-11-02T09:00:34.255Z</time>
      </trkpt>
      <trkpt lat="44.75252" lon="3.72828">
        <ele>997.66558837891</ele>
        <time>2020-11-02T09:00:34.298Z</time>
      </trkpt>
      <trkpt lat="44.75236" lon="3.72846">
        <ele>997.11370849609</ele>
        <time>2020-11-02T09:00:34.346Z</time>
      </trkpt>
      <trkpt lat="44.75226" lon="3.72857">
        <ele>997.08618164062</ele>
        <time>2020-11-02T09:00:34.396Z</time>
      </trkpt>
      <trkpt lat="44.75207" lon="3.72892">
        <ele>1001.6813964844</ele>
        <time>2020-11-02T09:00:34.452Z</time>
      </trkpt>
      <trkpt lat="44.75196" lon="3.72912">
        <ele>1005.2710571289</ele>
        <time>2020-11-02T09:00:34.512Z</time>
      </trkpt>
      <trkpt lat="44.75188" lon="3.72936">
        <ele>1008.7205810547</ele>
        <time>2020-11-02T09:00:34.576Z</time>
      </trkpt>
      <trkpt lat="44.75185" lon="3.72948">
        <ele>1010.414855957</ele>
        <time>2020-11-02T09:00:34.642Z</time>
      </trkpt>
      <trkpt lat="44.75185" lon="3.7296">
        <ele>1012.5745239258</ele>
        <time>2020-11-02T09:00:34.709Z</time>
      </trkpt>
      <trkpt lat="44.75181" lon="3.72994">
        <ele>1018.1655883789</ele>
        <time>2020-11-02T09:00:34.781Z</time>
      </trkpt>
      <trkpt lat="44.75179" lon="3.7301">
        <ele>1023.6057128906</ele>
        <time>2020-11-02T09:00:34.856Z</time>
      </trkpt>
      <trkpt lat="44.7518" lon="3.73022">
        <ele>1027.560546875</ele>
        <time>2020-11-02T09:00:34.932Z</time>
      </trkpt>
      <trkpt lat="44.7518" lon="3.73036">
        <ele>1028.568359375</ele>
        <time>2020-11-02T09:00:35.010Z</time>
      </trkpt>
      <trkpt lat="44.75175" lon="3.73063">
        <ele>1030.8120117188</ele>
        <time>2020-11-02T09:00:35.092Z</time>
      </trkpt>
      <trkpt lat="44.75172" lon="3.73088">
        <ele>1034.1662597656</ele>
        <time>2020-11-02T09:00:35.178Z</time>
      </trkpt>
      <trkpt lat="44.75171" lon="3.73109">
        <ele>1036.90625</ele>
        <time>2020-11-02T09:00:35.267Z</time>
      </trkpt>
      <trkpt lat="44.75172" lon="3.7313">
        <ele>1037.2661132812</ele>
        <time>2020-11-02T09:00:35.359Z</time>
      </trkpt>
      <trkpt lat="44.75168" lon="3.73154">
        <ele>1038.2368164062</ele>
        <time>2020-11-02T09:00:35.454Z</time>
      </trkpt>
      <trkpt lat="44.75164" lon="3.73188">
        <ele>1037.4162597656</ele>
        <time>2020-11-02T09:00:35.554Z</time>
      </trkpt>
      <trkpt lat="44.75165" lon="3.73239">
        <ele>1039.5036621094</ele>
        <time>2020-11-02T09:00:35.662Z</time>
      </trkpt>
      <trkpt lat="44.75165" lon="3.73315">
        <ele>1041.4860839844</ele>
        <time>2020-11-02T09:00:35.780Z</time>
      </trkpt>
      <trkpt lat="44.75172" lon="3.73338">
        <ele>1042.1700439453</ele>
        <time>2020-11-02T09:00:35.902Z</time>
      </trkpt>
      <trkpt lat="44.75188" lon="3.73383">
        <ele>1042.6713867188</ele>
        <time>2020-11-02T09:00:36.031Z</time>
      </trkpt>
      <trkpt lat="44.75192" lon="3.73392">
        <ele>1042.6473388672</ele>
        <time>2020-11-02T09:00:36.162Z</time>
      </trkpt>
      <trkpt lat="44.752" lon="3.73394">
        <ele>1042.2154541016</ele>
        <time>2020-11-02T09:00:36.294Z</time>
      </trkpt>
      <trkpt lat="44.75206" lon="3.734">
        <ele>1042.2559814453</ele>
        <time>2020-11-02T09:00:36.428Z</time>
      </trkpt>
      <trkpt lat="44.75207" lon="3.73405">
        <ele>1042.4599609375</ele>
        <time>2020-11-02T09:00:36.562Z</time>
      </trkpt>
      <trkpt lat="44.75205" lon="3.73416">
        <ele>1042.5559082031</ele>
        <time>2020-11-02T09:00:36.698Z</time>
      </trkpt>
      <trkpt lat="44.75228" lon="3.73442">
        <ele>1045.1685791016</ele>
        <time>2020-11-02T09:00:36.840Z</time>
      </trkpt>
      <trkpt lat="44.75235" lon="3.73457">
        <ele>1046.2963867188</ele>
        <time>2020-11-02T09:00:36.985Z</time>
      </trkpt>
      <trkpt lat="44.75241" lon="3.73485">
        <ele>1048.2032470703</ele>
        <time>2020-11-02T09:00:37.134Z</time>
      </trkpt>
      <trkpt lat="44.7525" lon="3.73506">
        <ele>1050.1469726562</ele>
        <time>2020-11-02T09:00:37.286Z</time>
      </trkpt>
      <trkpt lat="44.75254" lon="3.73516">
        <ele>1051.0588378906</ele>
        <time>2020-11-02T09:00:37.440Z</time>
      </trkpt>
      <trkpt lat="44.75256" lon="3.73532">
        <ele>1052.0327148438</ele>
        <time>2020-11-02T09:00:37.596Z</time>
      </trkpt>
      <trkpt lat="44.75259" lon="3.73542">
        <ele>1052.6566162109</ele>
        <time>2020-11-02T09:00:37.754Z</time>
      </trkpt>
      <trkpt lat="44.75275" lon="3.73582">
        <ele>1055.3442382812</ele>
        <time>2020-11-02T09:00:37.918Z</time>
      </trkpt>
      <trkpt lat="44.7529" lon="3.73604">
        <ele>1057.0330810547</ele>
        <time>2020-11-02T09:00:38.087Z</time>
      </trkpt>
      <trkpt lat="44.75295" lon="3.73604">
        <ele>1057.0930175781</ele>
        <time>2020-11-02T09:00:38.257Z</time>
      </trkpt>
      <trkpt lat="44.75312" lon="3.73617">
        <ele>1058.0769042969</ele>
        <time>2020-11-02T09:00:38.430Z</time>
      </trkpt>
      <trkpt lat="44.75341" lon="3.73646">
        <ele>1060.1645507812</ele>
        <time>2020-11-02T09:00:38.611Z</time>
      </trkpt>
      <trkpt lat="44.75363" lon="3.73667">
        <ele>1061.6883544922</ele>
        <time>2020-11-02T09:00:38.797Z</time>
      </trkpt>
      <trkpt lat="44.7537" lon="3.73677">
        <ele>1062.3721923828</ele>
        <time>2020-11-02T09:00:38.985Z</time>
      </trkpt>
      <trkpt lat="44.75383" lon="3.7371">
        <ele>1063.8177490234</ele>
        <time>2020-11-02T09:00:39.178Z</time>
      </trkpt>
      <trkpt lat="44.75389" lon="3.73738">
        <ele>1064.8255615234</ele>
        <time>2020-11-02T09:00:39.375Z</time>
      </trkpt>
      <trkpt lat="44.75395" lon="3.73762">
        <ele>1065.6787109375</ele>
        <time>2020-11-02T09:00:39.576Z</time>
      </trkpt>
      <trkpt lat="44.75395" lon="3.73762">
        <ele>1065.6893310547</ele>
        <time>2020-11-02T09:00:39.777Z</time>
      </trkpt>
      <trkpt lat="44.754" lon="3.73782">
        <ele>1066.2728271484</ele>
        <time>2020-11-02T09:00:39.981Z</time>
      </trkpt>
      <trkpt lat="44.75395" lon="3.73784">
        <ele>1066.3208007812</ele>
        <time>2020-11-02T09:00:40.186Z</time>
      </trkpt>
      <trkpt lat="44.75366" lon="3.738">
        <ele>1067.4095458984</ele>
        <time>2020-11-02T09:00:40.397Z</time>
      </trkpt>
      <trkpt lat="44.75307" lon="3.73833">
        <ele>1070.0235595703</ele>
        <time>2020-11-02T09:00:40.621Z</time>
      </trkpt>
      <trkpt lat="44.75265" lon="3.7385">
        <ele>1072.2552490234</ele>
        <time>2020-11-02T09:00:40.854Z</time>
      </trkpt>
      <trkpt lat="44.7525" lon="3.73854">
        <ele>1072.9030761719</ele>
        <time>2020-11-02T09:00:41.090Z</time>
      </trkpt>
      <trkpt lat="44.75187" lon="3.73858">
        <ele>1074.7510986328</ele>
        <time>2020-11-02T09:00:41.338Z</time>
      </trkpt>
      <trkpt lat="44.75157" lon="3.73864">
        <ele>1075.9748535156</ele>
        <time>2020-11-02T09:00:41.593Z</time>
      </trkpt>
      <trkpt lat="44.7514" lon="3.7387">
        <ele>1076.88671875</ele>
        <time>2020-11-02T09:00:41.851Z</time>
      </trkpt>
      <trkpt lat="44.75105" lon="3.73883">
        <ele>1077.4255371094</ele>
        <time>2020-11-02T09:00:42.116Z</time>
      </trkpt>
      <trkpt lat="44.75088" lon="3.73891">
        <ele>1078.1213378906</ele>
        <time>2020-11-02T09:00:42.385Z</time>
      </trkpt>
      <trkpt lat="44.75055" lon="3.73906">
        <ele>1079.453125</ele>
        <time>2020-11-02T09:00:42.661Z</time>
      </trkpt>
      <trkpt lat="44.75046" lon="3.73908">
        <ele>1079.7410888672</ele>
        <time>2020-11-02T09:00:42.939Z</time>
      </trkpt>
      <trkpt lat="44.75005" lon="3.73909">
        <ele>1080.4211425781</ele>
        <time>2020-11-02T09:00:43.225Z</time>
      </trkpt>
      <trkpt lat="44.74994" lon="3.73909">
        <ele>1080.6850585938</ele>
        <time>2020-11-02T09:00:43.513Z</time>
      </trkpt>
      <trkpt lat="44.74971" lon="3.7406">
        <ele>1081.1926269531</ele>
        <time>2020-11-02T09:00:43.823Z</time>
      </trkpt>
      <trkpt lat="44.74967" lon="3.74093">
        <ele>1081.3846435547</ele>
        <time>2020-11-02T09:00:44.138Z</time>
      </trkpt>
      <trkpt lat="44.7495" lon="3.7417">
        <ele>1081.458984375</ele>
        <time>2020-11-02T09:00:44.464Z</time>
      </trkpt>
      <trkpt lat="44.74936" lon="3.74239">
        <ele>1078.9929199219</ele>
        <time>2020-11-02T09:00:44.801Z</time>
      </trkpt>
      <trkpt lat="44.74926" lon="3.7427">
        <ele>1077.0740966797</ele>
        <time>2020-11-02T09:00:45.142Z</time>
      </trkpt>
      <trkpt lat="44.74911" lon="3.7431">
        <ele>1073.783203125</ele>
        <time>2020-11-02T09:00:45.490Z</time>
      </trkpt>
      <trkpt lat="44.74891" lon="3.74348">
        <ele>1072.9114990234</ele>
        <time>2020-11-02T09:00:45.845Z</time>
      </trkpt>
      <trkpt lat="44.74884" lon="3.74372">
        <ele>1071.1719970703</ele>
        <time>2020-11-02T09:00:46.203Z</time>
      </trkpt>
      <trkpt lat="44.74873" lon="3.74391">
        <ele>1070.2720947266</ele>
        <time>2020-11-02T09:00:46.565Z</time>
      </trkpt>
      <trkpt lat="44.7485" lon="3.74416">
        <ele>1070.0540771484</ele>
        <time>2020-11-02T09:00:46.933Z</time>
      </trkpt>
      <trkpt lat="44.74829" lon="3.74435">
        <ele>1068.3541259766</ele>
        <time>2020-11-02T09:00:47.306Z</time>
      </trkpt>
      <trkpt lat="44.74813" lon="3.74451">
        <ele>1067.3076171875</ele>
        <time>2020-11-02T09:00:47.682Z</time>
      </trkpt>
      <trkpt lat="44.748" lon="3.74478">
        <ele>1064.0054931641</ele>
        <time>2020-11-02T09:00:48.063Z</time>
      </trkpt>
      <trkpt lat="44.7478" lon="3.74514">
        <ele>1059.5834960938</ele>
        <time>2020-11-02T09:00:48.451Z</time>
      </trkpt>
      <trkpt lat="44.74779" lon="3.74527">
        <ele>1057.7595214844</ele>
        <time>2020-11-02T09:00:48.840Z</time>
      </trkpt>
      <trkpt lat="44.74786" lon="3.74541">
        <ele>1055.6599121094</ele>
        <time>2020-11-02T09:00:49.232Z</time>
      </trkpt>
      <trkpt lat="44.74807" lon="3.74582">
        <ele>1049.9493408203</ele>
        <time>2020-11-02T09:00:49.631Z</time>
      </trkpt>
      <trkpt lat="44.74821" lon="3.74612">
        <ele>1046.3198242188</ele>
        <time>2020-11-02T09:00:50.035Z</time>
      </trkpt>
      <trkpt lat="44.74841" lon="3.7466">
        <ele>1042.7203369141</ele>
        <time>2020-11-02T09:00:50.447Z</time>
      </trkpt>
      <trkpt lat="44.74845" lon="3.74675">
        <ele>1041.6765136719</ele>
        <time>2020-11-02T09:00:50.861Z</time>
      </trkpt>
      <trkpt lat="44.74855" lon="3.74696">
        <ele>1039.9542236328</ele>
        <time>2020-11-02T09:00:51.279Z</time>
      </trkpt>
      <trkpt lat="44.74869" lon="3.74735">
        <ele>1036.6428222656</ele>
        <time>2020-11-02T09:00:51.703Z</time>
      </trkpt>
      <trkpt lat="44.74874" lon="3.74775">
        <ele>1033.6850585938</ele>
        <time>2020-11-02T09:00:52.133Z</time>
      </trkpt>
      <trkpt lat="44.74884" lon="3.74837">
        <ele>1028.5979003906</ele>
        <time>2020-11-02T09:00:52.572Z</time>
      </trkpt>
      <trkpt lat="44.74888" lon="3.74851">
        <ele>1027.4700927734</ele>
        <time>2020-11-02T09:00:53.013Z</time>
      </trkpt>
      <trkpt lat="44.74891" lon="3.74859">
        <ele>1026.7758789062</ele>
        <time>2020-11-02T09:00:53.456Z</time>
      </trkpt>
      <trkpt lat="44.74893" lon="3.7486">
        <ele>1026.7038574219</ele>
        <time>2020-11-02T09:00:53.899Z</time>
      </trkpt>
      <trkpt lat="44.7489" lon="3.74865">
        <ele>1026.1879882812</ele>
        <time>2020-11-02T09:00:54.343Z</time>
      </trkpt>
      <trkpt lat="44.74889" lon="3.74866">
        <ele>1026.0799560547</ele>
        <time>2020-11-02T09:00:54.787Z</time>
      </trkpt>
      <trkpt lat="44.74886" lon="3.74868">
        <ele>1025.8520507812</ele>
        <time>2020-11-02T09:00:55.232Z</time>
      </trkpt>
      <trkpt lat="44.74876" lon="3.74867">
        <ele>1025.9202880859</ele>
        <time>2020-11-02T09:00:55.679Z</time>
      </trkpt>
      <trkpt lat="44.74858" lon="3.74862">
        <ele>1026.1862792969</ele>
        <time>2020-11-02T09:00:56.130Z</time>
      </trkpt>
      <trkpt lat="44.74844" lon="3.74864">
        <ele>1025.8503417969</ele>
        <time>2020-11-02T09:00:56.583Z</time>
      </trkpt>
      <trkpt lat="44.74828" lon="3.74853">
        <ele>1026.5821533203</ele>
        <time>2020-11-02T09:00:57.040Z</time>
      </trkpt>
      <trkpt lat="44.7481" lon="3.74845">
        <ele>1027.0380859375</ele>
        <time>2020-11-02T09:00:57.501Z</time>
      </trkpt>
      <trkpt lat="44.74805" lon="3.74846">
        <ele>1026.8941650391</ele>
        <time>2020-11-02T09:00:57.963Z</time>
      </trkpt>
      <trkpt lat="44.74787" lon="3.7487">
        <ele>1025.0661621094</ele>
        <time>2020-11-02T09:00:58.430Z</time>
      </trkpt>
      <trkpt lat="44.74769" lon="3.74896">
        <ele>1024.154296875</ele>
        <time>2020-11-02T09:00:58.902Z</time>
      </trkpt>
      <trkpt lat="44.74758" lon="3.74908">
        <ele>1023.8303833008</ele>
        <time>2020-11-02T09:00:59.377Z</time>
      </trkpt>
      <trkpt lat="44.74747" lon="3.74914">
        <ele>1024.4779052734</ele>
        <time>2020-11-02T09:00:59.854Z</time>
      </trkpt>
      <trkpt lat="44.74745" lon="3.74916">
        <ele>1024.5739746094</ele>
        <time>2020-11-02T09:01:00.331Z</time>
      </trkpt>
      <trkpt lat="44.74734" lon="3.74908">
        <ele>1025.5577392578</ele>
        <time>2020-11-02T09:01:00.811Z</time>
      </trkpt>
      <trkpt lat="44.74727" lon="3.74905">
        <ele>1026.1336669922</ele>
        <time>2020-11-02T09:01:01.292Z</time>
      </trkpt>
      <trkpt lat="44.74722" lon="3.74904">
        <ele>1026.517578125</ele>
        <time>2020-11-02T09:01:01.774Z</time>
      </trkpt>
      <trkpt lat="44.74705" lon="3.74895">
        <ele>1027.9573974609</ele>
        <time>2020-11-02T09:01:02.260Z</time>
      </trkpt>
      <trkpt lat="44.74686" lon="3.74884">
        <ele>1030.4594726562</ele>
        <time>2020-11-02T09:01:02.750Z</time>
      </trkpt>
      <trkpt lat="44.7467" lon="3.749">
        <ele>1031.9952392578</ele>
        <time>2020-11-02T09:01:03.244Z</time>
      </trkpt>
      <trkpt lat="44.74665" lon="3.74902">
        <ele>1032.5908203125</ele>
        <time>2020-11-02T09:01:03.739Z</time>
      </trkpt>
      <trkpt lat="44.74659" lon="3.749">
        <ele>1033.4067382812</ele>
        <time>2020-11-02T09:01:04.235Z</time>
      </trkpt>
      <trkpt lat="44.74652" lon="3.74896">
        <ele>1034.3785400391</ele>
        <time>2020-11-02T09:01:04.733Z</time>
      </trkpt>
      <trkpt lat="44.74635" lon="3.74891">
        <ele>1036.6821289062</ele>
        <time>2020-11-02T09:01:05.234Z</time>
      </trkpt>
      <trkpt lat="44.74618" lon="3.74895">
        <ele>1038.8109130859</ele>
        <time>2020-11-02T09:01:05.739Z</time>
      </trkpt>
      <trkpt lat="44.74603" lon="3.74905">
        <ele>1040.3106689453</ele>
        <time>2020-11-02T09:01:06.247Z</time>
      </trkpt>
      <trkpt lat="44.74581" lon="3.7491">
        <ele>1041.8885498047</ele>
        <time>2020-11-02T09:01:06.760Z</time>
      </trkpt>
      <trkpt lat="44.7457" lon="3.74921">
        <ele>1041.6246337891</ele>
        <time>2020-11-02T09:01:07.275Z</time>
      </trkpt>
      <trkpt lat="44.74558" lon="3.74939">
        <ele>1040.9046630859</ele>
        <time>2020-11-02T09:01:07.794Z</time>
      </trkpt>
      <trkpt lat="44.74547" lon="3.74952">
        <ele>1040.4967041016</ele>
        <time>2020-11-02T09:01:08.316Z</time>
      </trkpt>
      <trkpt lat="44.7453" lon="3.7497">
        <ele>1039.4812011719</ele>
        <time>2020-11-02T09:01:08.842Z</time>
      </trkpt>
      <trkpt lat="44.7452" lon="3.74976">
        <ele>1038.8093261719</ele>
        <time>2020-11-02T09:01:09.370Z</time>
      </trkpt>
      <trkpt lat="44.74495" lon="3.74987">
        <ele>1037.5207519531</ele>
        <time>2020-11-02T09:01:09.903Z</time>
      </trkpt>
      <trkpt lat="44.74476" lon="3.74993">
        <ele>1036.9328613281</ele>
        <time>2020-11-02T09:01:10.440Z</time>
      </trkpt>
      <trkpt lat="44.74453" lon="3.75">
        <ele>1036.2631835938</ele>
        <time>2020-11-02T09:01:10.982Z</time>
      </trkpt>
      <trkpt lat="44.74444" lon="3.75007">
        <ele>1035.9512939453</ele>
        <time>2020-11-02T09:01:11.526Z</time>
      </trkpt>
      <trkpt lat="44.74428" lon="3.75028">
        <ele>1035.5954589844</ele>
        <time>2020-11-02T09:01:12.074Z</time>
      </trkpt>
      <trkpt lat="44.74403" lon="3.75052">
        <ele>1035.3435058594</ele>
        <time>2020-11-02T09:01:12.628Z</time>
      </trkpt>
      <trkpt lat="44.74384" lon="3.75073">
        <ele>1036.4200439453</ele>
        <time>2020-11-02T09:01:13.187Z</time>
      </trkpt>
      <trkpt lat="44.74354" lon="3.75103">
        <ele>1039.0518798828</ele>
        <time>2020-11-02T09:01:13.754Z</time>
      </trkpt>
      <trkpt lat="44.74312" lon="3.7514">
        <ele>1042.1126708984</ele>
        <time>2020-11-02T09:01:14.331Z</time>
      </trkpt>
      <trkpt lat="44.74294" lon="3.75159">
        <ele>1040.2648925781</ele>
        <time>2020-11-02T09:01:14.912Z</time>
      </trkpt>
      <trkpt lat="44.74283" lon="3.75168">
        <ele>1039.2379150391</ele>
        <time>2020-11-02T09:01:15.496Z</time>
      </trkpt>
      <trkpt lat="44.74261" lon="3.75179">
        <ele>1037.8189697266</ele>
        <time>2020-11-02T09:01:16.084Z</time>
      </trkpt>
      <trkpt lat="44.74222" lon="3.75203">
        <ele>1036.2576904297</ele>
        <time>2020-11-02T09:01:16.681Z</time>
      </trkpt>
      <trkpt lat="44.74215" lon="3.75206">
        <ele>1035.9332275391</ele>
        <time>2020-11-02T09:01:17.279Z</time>
      </trkpt>
      <trkpt lat="44.74202" lon="3.75205">
        <ele>1035.7425537109</ele>
        <time>2020-11-02T09:01:17.880Z</time>
      </trkpt>
      <trkpt lat="44.74181" lon="3.7521">
        <ele>1035.3825683594</ele>
        <time>2020-11-02T09:01:18.485Z</time>
      </trkpt>
      <trkpt lat="44.74169" lon="3.75215">
        <ele>1035.0227050781</ele>
        <time>2020-11-02T09:01:19.093Z</time>
      </trkpt>
      <trkpt lat="44.74151" lon="3.75221">
        <ele>1034.6668701172</ele>
        <time>2020-11-02T09:01:19.704Z</time>
      </trkpt>
      <trkpt lat="44.74145" lon="3.75221">
        <ele>1034.8107910156</ele>
        <time>2020-11-02T09:01:20.317Z</time>
      </trkpt>
      <trkpt lat="44.74125" lon="3.7522">
        <ele>1035.3387451172</ele>
        <time>2020-11-02T09:01:20.934Z</time>
      </trkpt>
      <trkpt lat="44.74105" lon="3.75216">
        <ele>1037.3295898438</ele>
        <time>2020-11-02T09:01:21.555Z</time>
      </trkpt>
      <trkpt lat="44.74074" lon="3.75215">
        <ele>1040.7250976562</ele>
        <time>2020-11-02T09:01:22.182Z</time>
      </trkpt>
      <trkpt lat="44.74038" lon="3.75219">
        <ele>1042.5712890625</ele>
        <time>2020-11-02T09:01:22.816Z</time>
      </trkpt>
      <trkpt lat="44.74013" lon="3.75229">
        <ele>1046.1981201172</ele>
        <time>2020-11-02T09:01:23.455Z</time>
      </trkpt>
      <trkpt lat="44.73999" lon="3.75237">
        <ele>1048.0218505859</ele>
        <time>2020-11-02T09:01:24.097Z</time>
      </trkpt>
      <trkpt lat="44.73979" lon="3.75258">
        <ele>1049.5936279297</ele>
        <time>2020-11-02T09:01:24.744Z</time>
      </trkpt>
      <trkpt lat="44.73964" lon="3.7528">
        <ele>1050.42578125</ele>
        <time>2020-11-02T09:01:25.396Z</time>
      </trkpt>
      <trkpt lat="44.73954" lon="3.75293">
        <ele>1049.8161621094</ele>
        <time>2020-11-02T09:01:26.050Z</time>
      </trkpt>
      <trkpt lat="44.73946" lon="3.75307">
        <ele>1048.5684814453</ele>
        <time>2020-11-02T09:01:26.707Z</time>
      </trkpt>
      <trkpt lat="44.73918" lon="3.75343">
        <ele>1045.7755126953</ele>
        <time>2020-11-02T09:01:27.371Z</time>
      </trkpt>
      <trkpt lat="44.73907" lon="3.75358">
        <ele>1044.5407714844</ele>
        <time>2020-11-02T09:01:28.039Z</time>
      </trkpt>
      <trkpt lat="44.73896" lon="3.75343">
        <ele>1047.6231689453</ele>
        <time>2020-11-02T09:01:28.710Z</time>
      </trkpt>
      <trkpt lat="44.7389" lon="3.75335">
        <ele>1049.3748779297</ele>
        <time>2020-11-02T09:01:29.382Z</time>
      </trkpt>
      <trkpt lat="44.73885" lon="3.75331">
        <ele>1050.4187011719</ele>
        <time>2020-11-02T09:01:30.055Z</time>
      </trkpt>
      <trkpt lat="44.73876" lon="3.7533">
        <ele>1051.3305664062</ele>
        <time>2020-11-02T09:01:30.730Z</time>
      </trkpt>
      <trkpt lat="44.73865" lon="3.75338">
        <ele>1050.7348632812</ele>
        <time>2020-11-02T09:01:31.408Z</time>
      </trkpt>
      <trkpt lat="44.73835" lon="3.75361">
        <ele>1051.6287841797</ele>
        <time>2020-11-02T09:01:32.093Z</time>
      </trkpt>
      <trkpt lat="44.73824" lon="3.7538">
        <ele>1051.1248779297</ele>
        <time>2020-11-02T09:01:32.781Z</time>
      </trkpt>
      <trkpt lat="44.73782" lon="3.75388">
        <ele>1056.1428222656</ele>
        <time>2020-11-02T09:01:33.477Z</time>
      </trkpt>
      <trkpt lat="44.73752" lon="3.75394">
        <ele>1058.9503173828</ele>
        <time>2020-11-02T09:01:34.180Z</time>
      </trkpt>
      <trkpt lat="44.73723" lon="3.75403">
        <ele>1063.2181396484</ele>
        <time>2020-11-02T09:01:34.888Z</time>
      </trkpt>
      <trkpt lat="44.73682" lon="3.75422">
        <ele>1067.4614257812</ele>
        <time>2020-11-02T09:01:35.605Z</time>
      </trkpt>
      <trkpt lat="44.73668" lon="3.7542">
        <ele>1067.9173583984</ele>
        <time>2020-11-02T09:01:36.325Z</time>
      </trkpt>
      <trkpt lat="44.73662" lon="3.75415">
        <ele>1068.361328125</ele>
        <time>2020-11-02T09:01:37.046Z</time>
      </trkpt>
      <trkpt lat="44.73652" lon="3.75402">
        <ele>1069.3811035156</ele>
        <time>2020-11-02T09:01:37.770Z</time>
      </trkpt>
      <trkpt lat="44.73631" lon="3.75379">
        <ele>1071.2647705078</ele>
        <time>2020-11-02T09:01:38.499Z</time>
      </trkpt>
      <trkpt lat="44.73622" lon="3.75374">
        <ele>1071.7807617188</ele>
        <time>2020-11-02T09:01:39.230Z</time>
      </trkpt>
      <trkpt lat="44.73611" lon="3.7537">
        <ele>1072.5155029297</ele>
        <time>2020-11-02T09:01:39.964Z</time>
      </trkpt>
      <trkpt lat="44.7359" lon="3.75341">
        <ele>1074.9456787109</ele>
        <time>2020-11-02T09:01:40.703Z</time>
      </trkpt>
      <trkpt lat="44.73557" lon="3.75292">
        <ele>1078.2930908203</ele>
        <time>2020-11-02T09:01:41.452Z</time>
      </trkpt>
      <trkpt lat="44.73535" lon="3.75259">
        <ele>1079.9515380859</ele>
        <time>2020-11-02T09:01:42.208Z</time>
      </trkpt>
      <trkpt lat="44.73514" lon="3.7524">
        <ele>1078.4157714844</ele>
        <time>2020-11-02T09:01:42.969Z</time>
      </trkpt>
      <trkpt lat="44.735" lon="3.75234">
        <ele>1077.3355712891</ele>
        <time>2020-11-02T09:01:43.732Z</time>
      </trkpt>
      <trkpt lat="44.7349" lon="3.75233">
        <ele>1077.0477294922</ele>
        <time>2020-11-02T09:01:44.497Z</time>
      </trkpt>
      <trkpt lat="44.73494" lon="3.75224">
        <ele>1076.9279785156</ele>
        <time>2020-11-02T09:01:45.264Z</time>
      </trkpt>
      <trkpt lat="44.73505" lon="3.75211">
        <ele>1078.0078125</ele>
        <time>2020-11-02T09:01:46.034Z</time>
      </trkpt>
      <trkpt lat="44.73515" lon="3.75204">
        <ele>1078.9317626953</ele>
        <time>2020-11-02T09:01:46.806Z</time>
      </trkpt>
      <trkpt lat="44.73548" lon="3.75182">
        <ele>1081</ele>
        <time>2020-11-02T09:01:47.585Z</time>
      </trkpt>
      <trkpt lat="44.7356" lon="3.75174">
        <ele>1081</ele>
        <time>2020-11-02T09:01:48.367Z</time>
      </trkpt>
      <trkpt lat="44.73584" lon="3.75154">
        <ele>1081</ele>
        <time>2020-11-02T09:01:49.155Z</time>
      </trkpt>
      <trkpt lat="44.73596" lon="3.75144">
        <ele>1082.361328125</ele>
        <time>2020-11-02T09:01:49.945Z</time>
      </trkpt>
      <trkpt lat="44.7361" lon="3.75137">
        <ele>1083.8731689453</ele>
        <time>2020-11-02T09:01:50.738Z</time>
      </trkpt>
      <trkpt lat="44.7363" lon="3.75126">
        <ele>1084.9794921875</ele>
        <time>2020-11-02T09:01:51.536Z</time>
      </trkpt>
      <trkpt lat="44.73653" lon="3.7511">
        <ele>1085.6649169922</ele>
        <time>2020-11-02T09:01:52.339Z</time>
      </trkpt>
      <trkpt lat="44.73716" lon="3.75054">
        <ele>1083.5317382812</ele>
        <time>2020-11-02T09:01:53.157Z</time>
      </trkpt>
      <trkpt lat="44.73758" lon="3.75011">
        <ele>1082.11328125</ele>
        <time>2020-11-02T09:01:53.985Z</time>
      </trkpt>
      <trkpt lat="44.73779" lon="3.74992">
        <ele>1080.9620361328</ele>
        <time>2020-11-02T09:01:54.818Z</time>
      </trkpt>
      <trkpt lat="44.73792" lon="3.74982">
        <ele>1080.4334716797</ele>
        <time>2020-11-02T09:01:55.654Z</time>
      </trkpt>
      <trkpt lat="44.73822" lon="3.74963">
        <ele>1078.8898925781</ele>
        <time>2020-11-02T09:01:56.497Z</time>
      </trkpt>
      <trkpt lat="44.73834" lon="3.7495">
        <ele>1078.5899658203</ele>
        <time>2020-11-02T09:01:57.343Z</time>
      </trkpt>
      <trkpt lat="44.73845" lon="3.74928">
        <ele>1077.8524169922</ele>
        <time>2020-11-02T09:01:58.193Z</time>
      </trkpt>
      <trkpt lat="44.73851" lon="3.74909">
        <ele>1077.3981933594</ele>
        <time>2020-11-02T09:01:59.046Z</time>
      </trkpt>
      <trkpt lat="44.73862" lon="3.74879">
        <ele>1078.2860107422</ele>
        <time>2020-11-02T09:01:59.903Z</time>
      </trkpt>
      <trkpt lat="44.73894" lon="3.74822">
        <ele>1080.1199951172</ele>
        <time>2020-11-02T09:02:00.771Z</time>
      </trkpt>
      <trkpt lat="44.73941" lon="3.74783">
        <ele>1083.0731201172</ele>
        <time>2020-11-02T09:02:01.650Z</time>
      </trkpt>
      <trkpt lat="44.73986" lon="3.74753">
        <ele>1083.5729980469</ele>
        <time>2020-11-02T09:02:02.539Z</time>
      </trkpt>
      <trkpt lat="44.74019" lon="3.74728">
        <ele>1083.2662353516</ele>
        <time>2020-11-02T09:02:03.435Z</time>
      </trkpt>
      <trkpt lat="44.7406" lon="3.74699">
        <ele>1082.7283935547</ele>
        <time>2020-11-02T09:02:04.340Z</time>
      </trkpt>
      <trkpt lat="44.7411" lon="3.74651">
        <ele>1082.2568359375</ele>
        <time>2020-11-02T09:02:05.257Z</time>
      </trkpt>
      <trkpt lat="44.74146" lon="3.74611">
        <ele>1080.7032470703</ele>
        <time>2020-11-02T09:02:06.184Z</time>
      </trkpt>
      <trkpt lat="44.7416" lon="3.74592">
        <ele>1080.1141357422</ele>
        <time>2020-11-02T09:02:07.114Z</time>
      </trkpt>
      <trkpt lat="44.74172" lon="3.74569">
        <ele>1079.6114501953</ele>
        <time>2020-11-02T09:02:08.049Z</time>
      </trkpt>
      <trkpt lat="44.74183" lon="3.74552">
        <ele>1079.7377929688</ele>
        <time>2020-11-02T09:02:08.987Z</time>
      </trkpt>
      <trkpt lat="44.74183" lon="3.74552">
        <ele>1079.7553710938</ele>
        <time>2020-11-02T09:02:09.925Z</time>
      </trkpt>
      <trkpt lat="44.74186" lon="3.74549">
        <ele>1079.7553710938</ele>
        <time>2020-11-02T09:02:10.864Z</time>
      </trkpt>
      <trkpt lat="44.74192" lon="3.74543">
        <ele>1079.7553710938</ele>
        <time>2020-11-02T09:02:11.804Z</time>
      </trkpt>
      <trkpt lat="44.74177" lon="3.74544">
        <ele>1080.0913085938</ele>
        <time>2020-11-02T09:02:12.747Z</time>
      </trkpt>
      <trkpt lat="44.7415" lon="3.7454">
        <ele>1080.8352050781</ele>
        <time>2020-11-02T09:02:13.696Z</time>
      </trkpt>
      <trkpt lat="44.74142" lon="3.74536">
        <ele>1081.1231689453</ele>
        <time>2020-11-02T09:02:14.646Z</time>
      </trkpt>
      <trkpt lat="44.74133" lon="3.7453">
        <ele>1081.4831542969</ele>
        <time>2020-11-02T09:02:15.598Z</time>
      </trkpt>
      <trkpt lat="44.74103" lon="3.74497">
        <ele>1082.3522949219</ele>
        <time>2020-11-02T09:02:16.558Z</time>
      </trkpt>
      <trkpt lat="44.74061" lon="3.74445">
        <ele>1083.2401123047</ele>
        <time>2020-11-02T09:02:17.529Z</time>
      </trkpt>
      <trkpt lat="44.74019" lon="3.7439">
        <ele>1082.8624267578</ele>
        <time>2020-11-02T09:02:18.512Z</time>
      </trkpt>
      <trkpt lat="44.73983" lon="3.74336">
        <ele>1081.7833251953</ele>
        <time>2020-11-02T09:02:19.505Z</time>
      </trkpt>
      <trkpt lat="44.73934" lon="3.74255">
        <ele>1080.9484863281</ele>
        <time>2020-11-02T09:02:20.513Z</time>
      </trkpt>
      <trkpt lat="44.73906" lon="3.742">
        <ele>1081</ele>
        <time>2020-11-02T09:02:21.531Z</time>
      </trkpt>
      <trkpt lat="44.73893" lon="3.74176">
        <ele>1081</ele>
        <time>2020-11-02T09:02:22.553Z</time>
      </trkpt>
      <trkpt lat="44.73886" lon="3.7416">
        <ele>1081</ele>
        <time>2020-11-02T09:02:23.578Z</time>
      </trkpt>
      <trkpt lat="44.73835" lon="3.74052">
        <ele>1084.19140625</ele>
        <time>2020-11-02T09:02:24.621Z</time>
      </trkpt>
      <trkpt lat="44.73819" lon="3.74021">
        <ele>1085.7152099609</ele>
        <time>2020-11-02T09:02:25.670Z</time>
      </trkpt>
      <trkpt lat="44.73775" lon="3.73953">
        <ele>1083.4986572266</ele>
        <time>2020-11-02T09:02:26.732Z</time>
      </trkpt>
      <trkpt lat="44.73738" lon="3.73897">
        <ele>1082.3468017578</ele>
        <time>2020-11-02T09:02:27.805Z</time>
      </trkpt>
      <trkpt lat="44.73713" lon="3.73862">
        <ele>1081.8553466797</ele>
        <time>2020-11-02T09:02:28.885Z</time>
      </trkpt>
      <trkpt lat="44.73687" lon="3.73827">
        <ele>1077.5783691406</ele>
        <time>2020-11-02T09:02:29.972Z</time>
      </trkpt>
      <trkpt lat="44.73678" lon="3.7382">
        <ele>1075.9345703125</ele>
        <time>2020-11-02T09:02:31.061Z</time>
      </trkpt>
      <trkpt lat="44.7367" lon="3.73819">
        <ele>1074.9747314453</ele>
        <time>2020-11-02T09:02:32.152Z</time>
      </trkpt>
      <trkpt lat="44.73639" lon="3.73821">
        <ele>1074.1223144531</ele>
        <time>2020-11-02T09:02:33.249Z</time>
      </trkpt>
      <trkpt lat="44.73601" lon="3.73827">
        <ele>1070.7019042969</ele>
        <time>2020-11-02T09:02:34.354Z</time>
      </trkpt>
      <trkpt lat="44.73575" lon="3.73832">
        <ele>1068.8200683594</ele>
        <time>2020-11-02T09:02:35.464Z</time>
      </trkpt>
      <trkpt lat="44.73557" lon="3.73838">
        <ele>1068.6761474609</ele>
        <time>2020-11-02T09:02:36.578Z</time>
      </trkpt>
      <trkpt lat="44.73518" lon="3.73854">
        <ele>1069.1540527344</ele>
        <time>2020-11-02T09:02:37.700Z</time>
      </trkpt>
      <trkpt lat="44.73497" lon="3.7386">
        <ele>1068.2182617188</ele>
        <time>2020-11-02T09:02:38.826Z</time>
      </trkpt>
      <trkpt lat="44.7349" lon="3.73861">
        <ele>1067.7263183594</ele>
        <time>2020-11-02T09:02:39.953Z</time>
      </trkpt>
      <trkpt lat="44.73475" lon="3.73861">
        <ele>1066.2866210938</ele>
        <time>2020-11-02T09:02:41.083Z</time>
      </trkpt>
      <trkpt lat="44.7346" lon="3.73864">
        <ele>1065.5289306641</ele>
        <time>2020-11-02T09:02:42.216Z</time>
      </trkpt>
      <trkpt lat="44.73432" lon="3.73881">
        <ele>1067.2574462891</ele>
        <time>2020-11-02T09:02:43.355Z</time>
      </trkpt>
      <trkpt lat="44.73407" lon="3.73888">
        <ele>1066.9696044922</ele>
        <time>2020-11-02T09:02:44.500Z</time>
      </trkpt>
      <trkpt lat="44.73382" lon="3.73891">
        <ele>1065.2033691406</ele>
        <time>2020-11-02T09:02:45.650Z</time>
      </trkpt>
      <trkpt lat="44.73369" lon="3.73891">
        <ele>1063.8419189453</ele>
        <time>2020-11-02T09:02:46.802Z</time>
      </trkpt>
      <trkpt lat="44.73362" lon="3.73888">
        <ele>1062.0902099609</ele>
        <time>2020-11-02T09:02:47.956Z</time>
      </trkpt>
      <trkpt lat="44.7336" lon="3.7387">
        <ele>1058.298828125</ele>
        <time>2020-11-02T09:02:49.112Z</time>
      </trkpt>
      <trkpt lat="44.73358" lon="3.73858">
        <ele>1055.6591796875</ele>
        <time>2020-11-02T09:02:50.270Z</time>
      </trkpt>
      <trkpt lat="44.73352" lon="3.73853">
        <ele>1053.7501220703</ele>
        <time>2020-11-02T09:02:51.429Z</time>
      </trkpt>
      <trkpt lat="44.7334" lon="3.73847">
        <ele>1050.9426269531</ele>
        <time>2020-11-02T09:02:52.591Z</time>
      </trkpt>
      <trkpt lat="44.7333" lon="3.73832">
        <ele>1047.283203125</ele>
        <time>2020-11-02T09:02:53.756Z</time>
      </trkpt>
      <trkpt lat="44.73325" lon="3.73829">
        <ele>1046.0474853516</ele>
        <time>2020-11-02T09:02:54.922Z</time>
      </trkpt>
      <trkpt lat="44.73307" lon="3.73832">
        <ele>1043.419921875</ele>
        <time>2020-11-02T09:02:56.092Z</time>
      </trkpt>
      <trkpt lat="44.73293" lon="3.73836">
        <ele>1041.5961914062</ele>
        <time>2020-11-02T09:02:57.264Z</time>
      </trkpt>
      <trkpt lat="44.7328" lon="3.73837">
        <ele>1040.2387695312</ele>
        <time>2020-11-02T09:02:58.439Z</time>
      </trkpt>
      <trkpt lat="44.73273" lon="3.73842">
        <ele>1040.1782226562</ele>
        <time>2020-11-02T09:02:59.616Z</time>
      </trkpt>
      <trkpt lat="44.73268" lon="3.73843">
        <ele>1039.3743896484</ele>
        <time>2020-11-02T09:03:00.794Z</time>
      </trkpt>
      <trkpt lat="44.73264" lon="3.73842">
        <ele>1038.6665039062</ele>
        <time>2020-11-02T09:03:01.972Z</time>
      </trkpt>
      <trkpt lat="44.73258" lon="3.73833">
        <ele>1037.3347167969</ele>
        <time>2020-11-02T09:03:03.152Z</time>
      </trkpt>
      <trkpt lat="44.73257" lon="3.7382">
        <ele>1036.3393554688</ele>
        <time>2020-11-02T09:03:04.334Z</time>
      </trkpt>
      <trkpt lat="44.73261" lon="3.73809">
        <ele>1035.1755371094</ele>
        <time>2020-11-02T09:03:05.518Z</time>
      </trkpt>
      <trkpt lat="44.73268" lon="3.73803">
        <ele>1034.8876953125</ele>
        <time>2020-11-02T09:03:06.703Z</time>
      </trkpt>
      <trkpt lat="44.73283" lon="3.73795">
        <ele>1034.9116210938</ele>
        <time>2020-11-02T09:03:07.892Z</time>
      </trkpt>
      <trkpt lat="44.73309" lon="3.73791">
        <ele>1038.1771240234</ele>
        <time>2020-11-02T09:03:09.086Z</time>
      </trkpt>
      <trkpt lat="44.73327" lon="3.73789">
        <ele>1038.5369873047</ele>
        <time>2020-11-02T09:03:10.284Z</time>
      </trkpt>
      <trkpt lat="44.73344" lon="3.73783">
        <ele>1037.8411865234</ele>
        <time>2020-11-02T09:03:11.485Z</time>
      </trkpt>
      <trkpt lat="44.73362" lon="3.73777">
        <ele>1037.1932373047</ele>
        <time>2020-11-02T09:03:12.690Z</time>
      </trkpt>
      <trkpt lat="44.7338" lon="3.73771">
        <ele>1036.7713623047</ele>
        <time>2020-11-02T09:03:13.898Z</time>
      </trkpt>
      <trkpt lat="44.73392" lon="3.73763">
        <ele>1036.8096923828</ele>
        <time>2020-11-02T09:03:15.109Z</time>
      </trkpt>
      <trkpt lat="44.7341" lon="3.73745">
        <ele>1036.3776855469</ele>
        <time>2020-11-02T09:03:16.325Z</time>
      </trkpt>
      <trkpt lat="44.73417" lon="3.73743">
        <ele>1036.6916503906</ele>
        <time>2020-11-02T09:03:17.542Z</time>
      </trkpt>
      <trkpt lat="44.73417" lon="3.73744">
        <ele>1036.7856445312</ele>
        <time>2020-11-02T09:03:18.759Z</time>
      </trkpt>
      <trkpt lat="44.73445" lon="3.73736">
        <ele>1035.8747558594</ele>
        <time>2020-11-02T09:03:19.982Z</time>
      </trkpt>
      <trkpt lat="44.73464" lon="3.73729">
        <ele>1035.3538818359</ele>
        <time>2020-11-02T09:03:21.209Z</time>
      </trkpt>
      <trkpt lat="44.73499" lon="3.73704">
        <ele>1032.0930175781</ele>
        <time>2020-11-02T09:03:22.443Z</time>
      </trkpt>
      <trkpt lat="44.73521" lon="3.73678">
        <ele>1029.6118164062</ele>
        <time>2020-11-02T09:03:23.683Z</time>
      </trkpt>
      <trkpt lat="44.73546" lon="3.73643">
        <ele>1028.8638916016</ele>
        <time>2020-11-02T09:03:24.930Z</time>
      </trkpt>
      <trkpt lat="44.73563" lon="3.73626">
        <ele>1031.1326904297</ele>
        <time>2020-11-02T09:03:26.181Z</time>
      </trkpt>
      <trkpt lat="44.73579" lon="3.73613">
        <ele>1027.8933105469</ele>
        <time>2020-11-02T09:03:27.436Z</time>
      </trkpt>
      <trkpt lat="44.736" lon="3.73597">
        <ele>1027.0007324219</ele>
        <time>2020-11-02T09:03:28.696Z</time>
      </trkpt>
      <trkpt lat="44.73623" lon="3.73586">
        <ele>1025.5827636719</ele>
        <time>2020-11-02T09:03:29.961Z</time>
      </trkpt>
      <trkpt lat="44.73637" lon="3.73583">
        <ele>1026.8184814453</ele>
        <time>2020-11-02T09:03:31.229Z</time>
      </trkpt>
      <trkpt lat="44.73673" lon="3.73569">
        <ele>1029.1989746094</ele>
        <time>2020-11-02T09:03:32.504Z</time>
      </trkpt>
      <trkpt lat="44.73694" lon="3.73559">
        <ele>1026.3913574219</ele>
        <time>2020-11-02T09:03:33.784Z</time>
      </trkpt>
      <trkpt lat="44.73708" lon="3.7356">
        <ele>1026.0445556641</ele>
        <time>2020-11-02T09:03:35.066Z</time>
      </trkpt>
      <trkpt lat="44.7374" lon="3.73573">
        <ele>1028.0002441406</ele>
        <time>2020-11-02T09:03:36.355Z</time>
      </trkpt>
      <trkpt lat="44.7376" lon="3.73582">
        <ele>1029.3800048828</ele>
        <time>2020-11-02T09:03:37.648Z</time>
      </trkpt>
      <trkpt lat="44.73787" lon="3.73586">
        <ele>1030.1987304688</ele>
        <time>2020-11-02T09:03:38.947Z</time>
      </trkpt>
      <trkpt lat="44.73803" lon="3.73585">
        <ele>1029.1057128906</ele>
        <time>2020-11-02T09:03:40.249Z</time>
      </trkpt>
      <trkpt lat="44.73821" lon="3.7358">
        <ele>1027.2459716797</ele>
        <time>2020-11-02T09:03:41.555Z</time>
      </trkpt>
      <trkpt lat="44.73868" lon="3.73561">
        <ele>1022.9125366211</ele>
        <time>2020-11-02T09:03:42.870Z</time>
      </trkpt>
      <trkpt lat="44.73926" lon="3.7355">
        <ele>1025.1831054688</ele>
        <time>2020-11-02T09:03:44.197Z</time>
      </trkpt>
      <trkpt lat="44.73979" lon="3.73536">
        <ele>1020.4522705078</ele>
        <time>2020-11-02T09:03:45.535Z</time>
      </trkpt>
      <trkpt lat="44.74044" lon="3.73516">
        <ele>1018.8479614258</ele>
        <time>2020-11-02T09:03:46.886Z</time>
      </trkpt>
      <trkpt lat="44.74075" lon="3.73504">
        <ele>1019.2679443359</ele>
        <time>2020-11-02T09:03:48.244Z</time>
      </trkpt>
      <trkpt lat="44.74097" lon="3.73487">
        <ele>1018.6666259766</ele>
        <time>2020-11-02T09:03:49.607Z</time>
      </trkpt>
      <trkpt lat="44.74103" lon="3.7348">
        <ele>1018.3426513672</ele>
        <time>2020-11-02T09:03:50.971Z</time>
      </trkpt>
      <trkpt lat="44.74117" lon="3.73452">
        <ele>1016.3270263672</ele>
        <time>2020-11-02T09:03:52.340Z</time>
      </trkpt>
      <trkpt lat="44.74122" lon="3.73431">
        <ele>1015.3856811523</ele>
        <time>2020-11-02T09:03:53.712Z</time>
      </trkpt>
      <trkpt lat="44.74121" lon="3.73403">
        <ele>1015.4816894531</ele>
        <time>2020-11-02T09:03:55.088Z</time>
      </trkpt>
      <trkpt lat="44.7411" lon="3.73353">
        <ele>1015.5610961914</ele>
        <time>2020-11-02T09:03:56.472Z</time>
      </trkpt>
      <trkpt lat="44.74097" lon="3.73302">
        <ele>1015.7539672852</ele>
        <time>2020-11-02T09:03:57.863Z</time>
      </trkpt>
      <trkpt lat="44.74082" lon="3.73258">
        <ele>1014.8965454102</ele>
        <time>2020-11-02T09:03:59.261Z</time>
      </trkpt>
      <trkpt lat="44.74076" lon="3.73229">
        <ele>1012.4969482422</ele>
        <time>2020-11-02T09:04:00.664Z</time>
      </trkpt>
      <trkpt lat="44.74065" lon="3.73153">
        <ele>1010.6330566406</ele>
        <time>2020-11-02T09:04:02.078Z</time>
      </trkpt>
      <trkpt lat="44.74056" lon="3.73115">
        <ele>1008.2935791016</ele>
        <time>2020-11-02T09:04:03.497Z</time>
      </trkpt>
      <trkpt lat="44.7405" lon="3.73082">
        <ele>1006.4681396484</ele>
        <time>2020-11-02T09:04:04.921Z</time>
      </trkpt>
      <trkpt lat="44.74049" lon="3.73069">
        <ele>1006.0961914062</ele>
        <time>2020-11-02T09:04:06.347Z</time>
      </trkpt>
      <trkpt lat="44.74055" lon="3.73045">
        <ele>1007.1040039062</ele>
        <time>2020-11-02T09:04:07.777Z</time>
      </trkpt>
      <trkpt lat="44.74059" lon="3.73035">
        <ele>1006.8188476562</ele>
        <time>2020-11-02T09:04:09.208Z</time>
      </trkpt>
      <trkpt lat="44.74067" lon="3.73027">
        <ele>1006.1469726562</ele>
        <time>2020-11-02T09:04:10.641Z</time>
      </trkpt>
      <trkpt lat="44.74076" lon="3.73022">
        <ele>1006.0150146484</ele>
        <time>2020-11-02T09:04:12.076Z</time>
      </trkpt>
      <trkpt lat="44.74099" lon="3.73022">
        <ele>1007.670715332</ele>
        <time>2020-11-02T09:04:13.516Z</time>
      </trkpt>
      <trkpt lat="44.74146" lon="3.73039">
        <ele>1011.6400146484</ele>
        <time>2020-11-02T09:04:14.966Z</time>
      </trkpt>
      <trkpt lat="44.74251" lon="3.73082">
        <ele>1012.735534668</ele>
        <time>2020-11-02T09:04:16.437Z</time>
      </trkpt>
      <trkpt lat="44.74268" lon="3.73088">
        <ele>1012.0516967773</ele>
        <time>2020-11-02T09:04:17.912Z</time>
      </trkpt>
      <trkpt lat="44.74282" lon="3.7309">
        <ele>1011.3295288086</ele>
        <time>2020-11-02T09:04:19.390Z</time>
      </trkpt>
      <trkpt lat="44.74299" lon="3.73089">
        <ele>1011.5576171875</ele>
        <time>2020-11-02T09:04:20.871Z</time>
      </trkpt>
      <trkpt lat="44.74318" lon="3.73082">
        <ele>1011.6895751953</ele>
        <time>2020-11-02T09:04:22.356Z</time>
      </trkpt>
      <trkpt lat="44.74359" lon="3.73065">
        <ele>1010.7259521484</ele>
        <time>2020-11-02T09:04:23.850Z</time>
      </trkpt>
      <trkpt lat="44.74409" lon="3.73038">
        <ele>1010.2542724609</ele>
        <time>2020-11-02T09:04:25.354Z</time>
      </trkpt>
      <trkpt lat="44.74437" lon="3.73021">
        <ele>1005.5510864258</ele>
        <time>2020-11-02T09:04:26.864Z</time>
      </trkpt>
      <trkpt lat="44.74459" lon="3.73009">
        <ele>1006.3126220703</ele>
        <time>2020-11-02T09:04:28.379Z</time>
      </trkpt>
      <trkpt lat="44.74505" lon="3.72987">
        <ele>1011.086730957</ele>
        <time>2020-11-02T09:04:29.904Z</time>
      </trkpt>
      <trkpt lat="44.74534" lon="3.72972">
        <ele>1005.2317504883</ele>
        <time>2020-11-02T09:04:31.435Z</time>
      </trkpt>
      <trkpt lat="44.74545" lon="3.72963">
        <ele>1003.8887329102</ele>
        <time>2020-11-02T09:04:32.969Z</time>
      </trkpt>
      <trkpt lat="44.7456" lon="3.72942">
        <ele>1002.1440429688</ele>
        <time>2020-11-02T09:04:34.507Z</time>
      </trkpt>
      <trkpt lat="44.74575" lon="3.72917">
        <ele>1004.6938476562</ele>
        <time>2020-11-02T09:04:36.050Z</time>
      </trkpt>
      <trkpt lat="44.74633" lon="3.72797">
        <ele>1001.9108886719</ele>
        <time>2020-11-02T09:04:37.613Z</time>
      </trkpt>
      <trkpt lat="44.74649" lon="3.7277">
        <ele>1000.3693847656</ele>
        <time>2020-11-02T09:04:39.181Z</time>
      </trkpt>
      <trkpt lat="44.74664" lon="3.72761">
        <ele>1001.6292114258</ele>
        <time>2020-11-02T09:04:40.752Z</time>
      </trkpt>
      <trkpt lat="44.74676" lon="3.72759">
        <ele>1002.6370239258</ele>
        <time>2020-11-02T09:04:42.326Z</time>
      </trkpt>
      <trkpt lat="44.74691" lon="3.72761">
        <ele>1003.8967895508</ele>
        <time>2020-11-02T09:04:43.903Z</time>
      </trkpt>
      <trkpt lat="44.74733" lon="3.72786">
        <ele>1006.1705932617</ele>
        <time>2020-11-02T09:04:45.489Z</time>
      </trkpt>
      <trkpt lat="44.7481" lon="3.72831">
        <ele>1008.9230957031</ele>
        <time>2020-11-02T09:04:47.092Z</time>
      </trkpt>
      <trkpt lat="44.74846" lon="3.72852">
        <ele>1008.6711425781</ele>
        <time>2020-11-02T09:04:48.703Z</time>
      </trkpt>
      <trkpt lat="44.7486" lon="3.72856">
        <ele>1007.5283813477</ele>
        <time>2020-11-02T09:04:50.316Z</time>
      </trkpt>
      <trkpt lat="44.74882" lon="3.72857">
        <ele>1004.0996704102</ele>
        <time>2020-11-02T09:04:51.934Z</time>
      </trkpt>
      <trkpt lat="44.749" lon="3.72864">
        <ele>1003.139831543</ele>
        <time>2020-11-02T09:04:53.556Z</time>
      </trkpt>
      <trkpt lat="44.74923" lon="3.72886">
        <ele>1005.3594360352</ele>
        <time>2020-11-02T09:04:55.183Z</time>
      </trkpt>
      <trkpt lat="44.74948" lon="3.72902">
        <ele>1005.6834106445</ele>
        <time>2020-11-02T09:04:56.816Z</time>
      </trkpt>
      <trkpt lat="44.74964" lon="3.7291">
        <ele>1005.4172973633</ele>
        <time>2020-11-02T09:04:58.452Z</time>
      </trkpt>
      <trkpt lat="44.74989" lon="3.72918">
        <ele>1003.9295654297</ele>
        <time>2020-11-02T09:05:00.093Z</time>
      </trkpt>
      <trkpt lat="44.75018" lon="3.72921">
        <ele>1000.5461425781</ele>
        <time>2020-11-02T09:05:01.740Z</time>
      </trkpt>
      <trkpt lat="44.7505" lon="3.72918">
        <ele>998.25280761719</ele>
        <time>2020-11-02T09:05:03.393Z</time>
      </trkpt>
      <trkpt lat="44.75077" lon="3.72912">
        <ele>996.52514648438</ele>
        <time>2020-11-02T09:05:05.052Z</time>
      </trkpt>
      <trkpt lat="44.75118" lon="3.72898">
        <ele>995.19848632812</ele>
        <time>2020-11-02T09:05:06.719Z</time>
      </trkpt>
      <trkpt lat="44.75139" lon="3.72881">
        <ele>995.65478515625</ele>
        <time>2020-11-02T09:05:08.391Z</time>
      </trkpt>
      <trkpt lat="44.75167" lon="3.72848">
        <ele>992.42718505859</ele>
        <time>2020-11-02T09:05:10.070Z</time>
      </trkpt>
      <trkpt lat="44.7522" lon="3.72791">
        <ele>988.67907714844</ele>
        <time>2020-11-02T09:05:11.763Z</time>
      </trkpt>
      <trkpt lat="44.75234" lon="3.72766">
        <ele>987.26940917969</ele>
        <time>2020-11-02T09:05:13.460Z</time>
      </trkpt>
      <trkpt lat="44.75244" lon="3.72745">
        <ele>988.55139160156</ele>
        <time>2020-11-02T09:05:15.161Z</time>
      </trkpt>
      <trkpt lat="44.75243" lon="3.72744">
        <ele>988.50518798828</ele>
        <time>2020-11-02T09:05:16.862Z</time>
      </trkpt>
      <trkpt lat="44.75275" lon="3.72672">
        <ele>987.51708984375</ele>
        <time>2020-11-02T09:05:18.575Z</time>
      </trkpt>
      <trkpt lat="44.75282" lon="3.72652">
        <ele>987.44512939453</ele>
        <time>2020-11-02T09:05:20.291Z</time>
      </trkpt>
      <trkpt lat="44.75283" lon="3.72636">
        <ele>987.27716064453</ele>
        <time>2020-11-02T09:05:22.010Z</time>
      </trkpt>
      <trkpt lat="44.75283" lon="3.72626">
        <ele>987.15716552734</ele>
        <time>2020-11-02T09:05:23.730Z</time>
      </trkpt>
      <trkpt lat="44.75292" lon="3.72625">
        <ele>988.26556396484</ele>
        <time>2020-11-02T09:05:25.452Z</time>
      </trkpt>
      <trkpt lat="44.75294" lon="3.7261">
        <ele>988.5341796875</ele>
        <time>2020-11-02T09:05:27.176Z</time>
      </trkpt>
      <trkpt lat="44.75298" lon="3.72607">
        <ele>989.15808105469</ele>
        <time>2020-11-02T09:05:28.901Z</time>
      </trkpt>
      <trkpt lat="44.75308" lon="3.72604">
        <ele>990.93377685547</ele>
        <time>2020-11-02T09:05:30.628Z</time>
      </trkpt>
      <trkpt lat="44.75311" lon="3.72607">
        <ele>991.65368652344</ele>
        <time>2020-11-02T09:05:32.356Z</time>
      </trkpt>
      <trkpt lat="44.75312" lon="3.72616">
        <ele>992.27758789062</ele>
        <time>2020-11-02T09:05:34.085Z</time>
      </trkpt>
      <trkpt lat="44.75313" lon="3.72633">
        <ele>993.14874267578</ele>
        <time>2020-11-02T09:05:35.816Z</time>
      </trkpt>
      <trkpt lat="44.75336" lon="3.7263">
        <ele>997.55670166016</ele>
        <time>2020-11-02T09:05:37.552Z</time>
      </trkpt>
      <trkpt lat="44.75336" lon="3.72591">
        <ele>995.99139404297</ele>
        <time>2020-11-02T09:05:39.294Z</time>
      </trkpt>
      <trkpt lat="44.75331" lon="3.72584">
        <ele>994.86358642578</ele>
        <time>2020-11-02T09:05:41.037Z</time>
      </trkpt>
    </trkseg>
  </trk>
  <trk>
    <name><![CDATA[Sans titre]]></name>
    <extensions>
      <line xmlns="http://www.topografix.com/GPX/gpx_style/0/2">
        <color>316347</color>
        <width>4</width>
      </line>
    </extensions>
    <trkseg>
      <trkpt lat="44.736" lon="3.83474">
        <ele>947.19976806641</ele>
        <time>2020-10-16T07:40:44.000Z</time>
      </trkpt>
      <trkpt lat="44.73544" lon="3.83477">
        <ele>943.64471435547</ele>
        <time>2020-10-16T07:40:44.011Z</time>
      </trkpt>
      <trkpt lat="44.73489" lon="3.8351">
        <ele>945.82879638672</ele>
        <time>2020-10-16T07:40:44.034Z</time>
      </trkpt>
      <trkpt lat="44.73422" lon="3.83537">
        <ele>947.42388916016</ele>
        <time>2020-10-16T07:40:44.071Z</time>
      </trkpt>
      <trkpt lat="44.73262" lon="3.83598">
        <ele>950.76513671875</ele>
        <time>2020-10-16T07:40:44.141Z</time>
      </trkpt>
      <trkpt lat="44.73239" lon="3.83603">
        <ele>951.88500976562</ele>
        <time>2020-10-16T07:40:44.216Z</time>
      </trkpt>
      <trkpt lat="44.72681" lon="3.83744">
        <ele>958.40368652344</ele>
        <time>2020-10-16T07:40:44.404Z</time>
      </trkpt>
      <trkpt lat="44.72614" lon="3.83786">
        <ele>956.68804931641</ele>
        <time>2020-10-16T07:40:44.607Z</time>
      </trkpt>
      <trkpt lat="44.72495" lon="3.83919">
        <ele>961.23541259766</ele>
        <time>2020-10-16T07:40:44.841Z</time>
      </trkpt>
      <trkpt lat="44.72495" lon="3.83919">
        <ele>961.23583984375</ele>
        <time>2020-10-16T07:40:45.075Z</time>
      </trkpt>
      <trkpt lat="44.72475" lon="3.83954">
        <ele>962.38641357422</ele>
        <time>2020-10-16T07:40:45.315Z</time>
      </trkpt>
      <trkpt lat="44.72444" lon="3.84009">
        <ele>962.55505371094</ele>
        <time>2020-10-16T07:40:45.565Z</time>
      </trkpt>
      <trkpt lat="44.72441" lon="3.84016">
        <ele>962.76574707031</ele>
        <time>2020-10-16T07:40:45.816Z</time>
      </trkpt>
      <trkpt lat="44.72441" lon="3.84016">
        <ele>962.76629638672</ele>
        <time>2020-10-16T07:40:46.067Z</time>
      </trkpt>
      <trkpt lat="44.72422" lon="3.84067">
        <ele>962.46917724609</ele>
        <time>2020-10-16T07:40:46.326Z</time>
      </trkpt>
      <trkpt lat="44.7234" lon="3.84175">
        <ele>965.65618896484</ele>
        <time>2020-10-16T07:40:46.608Z</time>
      </trkpt>
      <trkpt lat="44.72302" lon="3.84099">
        <ele>967.01336669922</ele>
        <time>2020-10-16T07:40:46.903Z</time>
      </trkpt>
      <trkpt lat="44.72282" lon="3.84075">
        <ele>967.20220947266</ele>
        <time>2020-10-16T07:40:47.203Z</time>
      </trkpt>
      <trkpt lat="44.72232" lon="3.84044">
        <ele>969.10736083984</ele>
        <time>2020-10-16T07:40:47.514Z</time>
      </trkpt>
      <trkpt lat="44.72021" lon="3.83856">
        <ele>977.35284423828</ele>
        <time>2020-10-16T07:40:47.875Z</time>
      </trkpt>
      <trkpt lat="44.71948" lon="3.8376">
        <ele>978.54791259766</ele>
        <time>2020-10-16T07:40:48.256Z</time>
      </trkpt>
      <trkpt lat="44.71706" lon="3.83489">
        <ele>979.70709228516</ele>
        <time>2020-10-16T07:40:48.699Z</time>
      </trkpt>
      <trkpt lat="44.71666" lon="3.83469">
        <ele>982.08270263672</ele>
        <time>2020-10-16T07:40:49.151Z</time>
      </trkpt>
      <trkpt lat="44.71664" lon="3.83477">
        <ele>981.98907470703</ele>
        <time>2020-10-16T07:40:49.604Z</time>
      </trkpt>
      <trkpt lat="44.71651" lon="3.83466">
        <ele>982.86358642578</ele>
        <time>2020-10-16T07:40:50.060Z</time>
      </trkpt>
      <trkpt lat="44.71639" lon="3.83456">
        <ele>983.69561767578</ele>
        <time>2020-10-16T07:40:50.519Z</time>
      </trkpt>
      <trkpt lat="44.71627" lon="3.83437">
        <ele>984.72869873047</ele>
        <time>2020-10-16T07:40:50.981Z</time>
      </trkpt>
      <trkpt lat="44.71623" lon="3.83427">
        <ele>985.16131591797</ele>
        <time>2020-10-16T07:40:51.445Z</time>
      </trkpt>
      <trkpt lat="44.71616" lon="3.83412">
        <ele>985.71453857422</ele>
        <time>2020-10-16T07:40:51.912Z</time>
      </trkpt>
      <trkpt lat="44.71606" lon="3.83393">
        <ele>986.28234863281</ele>
        <time>2020-10-16T07:40:52.382Z</time>
      </trkpt>
      <trkpt lat="44.71599" lon="3.83381">
        <ele>986.63922119141</ele>
        <time>2020-10-16T07:40:52.854Z</time>
      </trkpt>
      <trkpt lat="44.7159" lon="3.83367">
        <ele>987.08642578125</ele>
        <time>2020-10-16T07:40:53.329Z</time>
      </trkpt>
      <trkpt lat="44.7158" lon="3.83353">
        <ele>987.61779785156</ele>
        <time>2020-10-16T07:40:53.807Z</time>
      </trkpt>
      <trkpt lat="44.71572" lon="3.83337">
        <ele>988.48883056641</ele>
        <time>2020-10-16T07:40:54.288Z</time>
      </trkpt>
      <trkpt lat="44.71562" lon="3.8332">
        <ele>989.41607666016</ele>
        <time>2020-10-16T07:40:54.772Z</time>
      </trkpt>
      <trkpt lat="44.7155" lon="3.83298">
        <ele>990.61358642578</ele>
        <time>2020-10-16T07:40:55.260Z</time>
      </trkpt>
      <trkpt lat="44.71539" lon="3.83274">
        <ele>991.87292480469</ele>
        <time>2020-10-16T07:40:55.752Z</time>
      </trkpt>
      <trkpt lat="44.71531" lon="3.83255">
        <ele>992.13391113281</ele>
        <time>2020-10-16T07:40:56.247Z</time>
      </trkpt>
      <trkpt lat="44.71522" lon="3.83233">
        <ele>992.29461669922</ele>
        <time>2020-10-16T07:40:56.745Z</time>
      </trkpt>
      <trkpt lat="44.71512" lon="3.8321">
        <ele>992.45782470703</ele>
        <time>2020-10-16T07:40:57.247Z</time>
      </trkpt>
      <trkpt lat="44.71505" lon="3.83195">
        <ele>992.53857421875</ele>
        <time>2020-10-16T07:40:57.752Z</time>
      </trkpt>
      <trkpt lat="44.71496" lon="3.83175">
        <ele>993.02319335938</ele>
        <time>2020-10-16T07:40:58.260Z</time>
      </trkpt>
      <trkpt lat="44.71484" lon="3.83142">
        <ele>994.07061767578</ele>
        <time>2020-10-16T07:40:58.773Z</time>
      </trkpt>
      <trkpt lat="44.71476" lon="3.83124">
        <ele>994.51458740234</ele>
        <time>2020-10-16T07:40:59.290Z</time>
      </trkpt>
      <trkpt lat="44.71464" lon="3.83096">
        <ele>994.87927246094</ele>
        <time>2020-10-16T07:40:59.811Z</time>
      </trkpt>
      <trkpt lat="44.71451" lon="3.83071">
        <ele>995.08557128906</ele>
        <time>2020-10-16T07:41:00.337Z</time>
      </trkpt>
      <trkpt lat="44.71435" lon="3.8304">
        <ele>995.66961669922</ele>
        <time>2020-10-16T07:41:00.868Z</time>
      </trkpt>
      <trkpt lat="44.71424" lon="3.83027">
        <ele>996.08392333984</ele>
        <time>2020-10-16T07:41:01.402Z</time>
      </trkpt>
      <trkpt lat="44.71415" lon="3.83018">
        <ele>996.43890380859</ele>
        <time>2020-10-16T07:41:01.938Z</time>
      </trkpt>
      <trkpt lat="44.71415" lon="3.83018">
        <ele>996.4482421875</ele>
        <time>2020-10-16T07:41:02.474Z</time>
      </trkpt>
      <trkpt lat="44.71406" lon="3.83011">
        <ele>996.85681152344</ele>
        <time>2020-10-16T07:41:03.012Z</time>
      </trkpt>
      <trkpt lat="44.71392" lon="3.83">
        <ele>997.46893310547</ele>
        <time>2020-10-16T07:41:03.553Z</time>
      </trkpt>
      <trkpt lat="44.71371" lon="3.82982">
        <ele>998.44830322266</ele>
        <time>2020-10-16T07:41:04.099Z</time>
      </trkpt>
      <trkpt lat="44.7135" lon="3.82956">
        <ele>999.04144287109</ele>
        <time>2020-10-16T07:41:04.651Z</time>
      </trkpt>
      <trkpt lat="44.71333" lon="3.82941">
        <ele>999.42150878906</ele>
        <time>2020-10-16T07:41:05.207Z</time>
      </trkpt>
      <trkpt lat="44.71328" lon="3.82935">
        <ele>999.66796875</ele>
        <time>2020-10-16T07:41:05.764Z</time>
      </trkpt>
      <trkpt lat="44.7133" lon="3.82925">
        <ele>999.99792480469</ele>
        <time>2020-10-16T07:41:06.323Z</time>
      </trkpt>
      <trkpt lat="44.71335" lon="3.82905">
        <ele>1000.639831543</ele>
        <time>2020-10-16T07:41:06.885Z</time>
      </trkpt>
      <trkpt lat="44.71343" lon="3.82877">
        <ele>1001.557800293</ele>
        <time>2020-10-16T07:41:07.451Z</time>
      </trkpt>
      <trkpt lat="44.71349" lon="3.82854">
        <ele>1002.3257446289</ele>
        <time>2020-10-16T07:41:08.021Z</time>
      </trkpt>
      <trkpt lat="44.71355" lon="3.82835">
        <ele>1002.8420410156</ele>
        <time>2020-10-16T07:41:08.594Z</time>
      </trkpt>
      <trkpt lat="44.71361" lon="3.82812">
        <ele>1003.2619628906</ele>
        <time>2020-10-16T07:41:09.170Z</time>
      </trkpt>
      <trkpt lat="44.7137" lon="3.82778">
        <ele>1003.8545532227</ele>
        <time>2020-10-16T07:41:09.751Z</time>
      </trkpt>
      <trkpt lat="44.71374" lon="3.82757">
        <ele>1003.6852416992</ele>
        <time>2020-10-16T07:41:10.335Z</time>
      </trkpt>
      <trkpt lat="44.7138" lon="3.82727">
        <ele>1003.0916137695</ele>
        <time>2020-10-16T07:41:10.924Z</time>
      </trkpt>
      <trkpt lat="44.71379" lon="3.82712">
        <ele>1003.1727905273</ele>
        <time>2020-10-16T07:41:11.515Z</time>
      </trkpt>
      <trkpt lat="44.71378" lon="3.82705">
        <ele>1003.3044433594</ele>
        <time>2020-10-16T07:41:12.107Z</time>
      </trkpt>
      <trkpt lat="44.71376" lon="3.82702">
        <ele>1003.439453125</ele>
        <time>2020-10-16T07:41:12.699Z</time>
      </trkpt>
      <trkpt lat="44.71379" lon="3.82692">
        <ele>1003.2447509766</ele>
        <time>2020-10-16T07:41:13.293Z</time>
      </trkpt>
      <trkpt lat="44.71381" lon="3.82678">
        <ele>1003.134765625</ele>
        <time>2020-10-16T07:41:13.889Z</time>
      </trkpt>
      <trkpt lat="44.71381" lon="3.82657">
        <ele>1003.1013793945</ele>
        <time>2020-10-16T07:41:14.488Z</time>
      </trkpt>
      <trkpt lat="44.71379" lon="3.82638">
        <ele>1003.2496948242</ele>
        <time>2020-10-16T07:41:15.090Z</time>
      </trkpt>
      <trkpt lat="44.71378" lon="3.82608">
        <ele>1003.5548095703</ele>
        <time>2020-10-16T07:41:15.696Z</time>
      </trkpt>
      <trkpt lat="44.71377" lon="3.82575">
        <ele>1004.0657348633</ele>
        <time>2020-10-16T07:41:16.307Z</time>
      </trkpt>
      <trkpt lat="44.71377" lon="3.8256">
        <ele>1004.2329711914</ele>
        <time>2020-10-16T07:41:16.920Z</time>
      </trkpt>
      <trkpt lat="44.71387" lon="3.82556">
        <ele>1003.8016357422</ele>
        <time>2020-10-16T07:41:17.535Z</time>
      </trkpt>
      <trkpt lat="44.71394" lon="3.82553">
        <ele>1003.4848632812</ele>
        <time>2020-10-16T07:41:18.151Z</time>
      </trkpt>
      <trkpt lat="44.71399" lon="3.82549">
        <ele>1003.3668823242</ele>
        <time>2020-10-16T07:41:18.768Z</time>
      </trkpt>
      <trkpt lat="44.71402" lon="3.82537">
        <ele>1004.1256713867</ele>
        <time>2020-10-16T07:41:19.387Z</time>
      </trkpt>
      <trkpt lat="44.71405" lon="3.82526">
        <ele>1004.7645874023</ele>
        <time>2020-10-16T07:41:20.008Z</time>
      </trkpt>
      <trkpt lat="44.7141" lon="3.82509">
        <ele>1005.3207397461</ele>
        <time>2020-10-16T07:41:20.632Z</time>
      </trkpt>
      <trkpt lat="44.71421" lon="3.82494">
        <ele>1005.6695556641</ele>
        <time>2020-10-16T07:41:21.259Z</time>
      </trkpt>
      <trkpt lat="44.71436" lon="3.82492">
        <ele>1005.8698120117</ele>
        <time>2020-10-16T07:41:21.889Z</time>
      </trkpt>
      <trkpt lat="44.71448" lon="3.82493">
        <ele>1005.9795532227</ele>
        <time>2020-10-16T07:41:22.521Z</time>
      </trkpt>
      <trkpt lat="44.71462" lon="3.82495">
        <ele>1005.9707641602</ele>
        <time>2020-10-16T07:41:23.156Z</time>
      </trkpt>
      <trkpt lat="44.71483" lon="3.82502">
        <ele>1005.7313232422</ele>
        <time>2020-10-16T07:41:23.795Z</time>
      </trkpt>
      <trkpt lat="44.71508" lon="3.82505">
        <ele>1005.6218261719</ele>
        <time>2020-10-16T07:41:24.439Z</time>
      </trkpt>
      <trkpt lat="44.71529" lon="3.82507">
        <ele>1005.5505371094</ele>
        <time>2020-10-16T07:41:25.088Z</time>
      </trkpt>
      <trkpt lat="44.71554" lon="3.82504">
        <ele>1005.8579101562</ele>
        <time>2020-10-16T07:41:25.741Z</time>
      </trkpt>
      <trkpt lat="44.7157" lon="3.825">
        <ele>1006.1910400391</ele>
        <time>2020-10-16T07:41:26.398Z</time>
      </trkpt>
      <trkpt lat="44.71605" lon="3.82492">
        <ele>1007.2310791016</ele>
        <time>2020-10-16T07:41:27.062Z</time>
      </trkpt>
      <trkpt lat="44.7163" lon="3.82486">
        <ele>1007.9078369141</ele>
        <time>2020-10-16T07:41:27.731Z</time>
      </trkpt>
      <trkpt lat="44.71639" lon="3.82484">
        <ele>1007.8602905273</ele>
        <time>2020-10-16T07:41:28.402Z</time>
      </trkpt>
      <trkpt lat="44.7165" lon="3.82478">
        <ele>1007.9414672852</ele>
        <time>2020-10-16T07:41:29.075Z</time>
      </trkpt>
      <trkpt lat="44.71666" lon="3.82477">
        <ele>1007.6044311523</ele>
        <time>2020-10-16T07:41:29.751Z</time>
      </trkpt>
      <trkpt lat="44.71679" lon="3.82485">
        <ele>1006.8508300781</ele>
        <time>2020-10-16T07:41:30.430Z</time>
      </trkpt>
      <trkpt lat="44.7169" lon="3.82496">
        <ele>1005.8930053711</ele>
        <time>2020-10-16T07:41:31.112Z</time>
      </trkpt>
      <trkpt lat="44.71698" lon="3.82505">
        <ele>1005.1979980469</ele>
        <time>2020-10-16T07:41:31.796Z</time>
      </trkpt>
      <trkpt lat="44.71705" lon="3.82505">
        <ele>1005.0121459961</ele>
        <time>2020-10-16T07:41:32.481Z</time>
      </trkpt>
      <trkpt lat="44.71716" lon="3.82506">
        <ele>1004.8018188477</ele>
        <time>2020-10-16T07:41:33.169Z</time>
      </trkpt>
      <trkpt lat="44.71725" lon="3.82504">
        <ele>1004.8145141602</ele>
        <time>2020-10-16T07:41:33.858Z</time>
      </trkpt>
      <trkpt lat="44.71744" lon="3.82497">
        <ele>1005.0524291992</ele>
        <time>2020-10-16T07:41:34.551Z</time>
      </trkpt>
      <trkpt lat="44.71755" lon="3.82488">
        <ele>1005.396484375</ele>
        <time>2020-10-16T07:41:35.247Z</time>
      </trkpt>
      <trkpt lat="44.71767" lon="3.82477">
        <ele>1005.3586425781</ele>
        <time>2020-10-16T07:41:35.946Z</time>
      </trkpt>
      <trkpt lat="44.7178" lon="3.82464">
        <ele>1005.3336791992</ele>
        <time>2020-10-16T07:41:36.648Z</time>
      </trkpt>
      <trkpt lat="44.71791" lon="3.82456">
        <ele>1005.0965576172</ele>
        <time>2020-10-16T07:41:37.352Z</time>
      </trkpt>
      <trkpt lat="44.71817" lon="3.82439">
        <ele>1004.9449462891</ele>
        <time>2020-10-16T07:41:38.062Z</time>
      </trkpt>
      <trkpt lat="44.71832" lon="3.82425">
        <ele>1005.5153198242</ele>
        <time>2020-10-16T07:41:38.776Z</time>
      </trkpt>
      <trkpt lat="44.71846" lon="3.82418">
        <ele>1005.5972900391</ele>
        <time>2020-10-16T07:41:39.493Z</time>
      </trkpt>
      <trkpt lat="44.71864" lon="3.82408">
        <ele>1004.9396362305</ele>
        <time>2020-10-16T07:41:40.214Z</time>
      </trkpt>
      <trkpt lat="44.71876" lon="3.82401">
        <ele>1004.2416381836</ele>
        <time>2020-10-16T07:41:40.937Z</time>
      </trkpt>
      <trkpt lat="44.71897" lon="3.82393">
        <ele>1002.3317871094</ele>
        <time>2020-10-16T07:41:41.664Z</time>
      </trkpt>
      <trkpt lat="44.71909" lon="3.8239">
        <ele>1001.1626586914</ele>
        <time>2020-10-16T07:41:42.394Z</time>
      </trkpt>
      <trkpt lat="44.71925" lon="3.82385">
        <ele>999.34655761719</ele>
        <time>2020-10-16T07:41:43.127Z</time>
      </trkpt>
      <trkpt lat="44.71961" lon="3.82364">
        <ele>995.92663574219</ele>
        <time>2020-10-16T07:41:43.868Z</time>
      </trkpt>
      <trkpt lat="44.71968" lon="3.82359">
        <ele>995.46118164062</ele>
        <time>2020-10-16T07:41:44.611Z</time>
      </trkpt>
      <trkpt lat="44.71974" lon="3.82352">
        <ele>995.34991455078</ele>
        <time>2020-10-16T07:41:45.355Z</time>
      </trkpt>
      <trkpt lat="44.71983" lon="3.8234">
        <ele>995.53271484375</ele>
        <time>2020-10-16T07:41:46.102Z</time>
      </trkpt>
      <trkpt lat="44.71998" lon="3.82317">
        <ele>995.95629882812</ele>
        <time>2020-10-16T07:41:46.853Z</time>
      </trkpt>
      <trkpt lat="44.72012" lon="3.82304">
        <ele>995.14709472656</ele>
        <time>2020-10-16T07:41:47.607Z</time>
      </trkpt>
      <trkpt lat="44.72019" lon="3.823">
        <ele>994.54071044922</ele>
        <time>2020-10-16T07:41:48.363Z</time>
      </trkpt>
      <trkpt lat="44.72023" lon="3.823">
        <ele>994.04016113281</ele>
        <time>2020-10-16T07:41:49.120Z</time>
      </trkpt>
      <trkpt lat="44.72028" lon="3.82302">
        <ele>993.3310546875</ele>
        <time>2020-10-16T07:41:49.878Z</time>
      </trkpt>
      <trkpt lat="44.72032" lon="3.82305">
        <ele>992.60198974609</ele>
        <time>2020-10-16T07:41:50.637Z</time>
      </trkpt>
      <trkpt lat="44.72036" lon="3.82312">
        <ele>991.70336914062</ele>
        <time>2020-10-16T07:41:51.397Z</time>
      </trkpt>
      <trkpt lat="44.72039" lon="3.82319">
        <ele>991.07305908203</ele>
        <time>2020-10-16T07:41:52.158Z</time>
      </trkpt>
      <trkpt lat="44.72042" lon="3.82334">
        <ele>990.05383300781</ele>
        <time>2020-10-16T07:41:52.921Z</time>
      </trkpt>
      <trkpt lat="44.72044" lon="3.82346">
        <ele>989.23327636719</ele>
        <time>2020-10-16T07:41:53.686Z</time>
      </trkpt>
      <trkpt lat="44.72047" lon="3.82354">
        <ele>988.60003662109</ele>
        <time>2020-10-16T07:41:54.452Z</time>
      </trkpt>
      <trkpt lat="44.72051" lon="3.82362">
        <ele>987.93560791016</ele>
        <time>2020-10-16T07:41:55.220Z</time>
      </trkpt>
      <trkpt lat="44.7207" lon="3.82381">
        <ele>985.85089111328</ele>
        <time>2020-10-16T07:41:55.992Z</time>
      </trkpt>
      <trkpt lat="44.72077" lon="3.8239">
        <ele>984.97570800781</ele>
        <time>2020-10-16T07:41:56.766Z</time>
      </trkpt>
      <trkpt lat="44.72087" lon="3.82407">
        <ele>983.56323242188</ele>
        <time>2020-10-16T07:41:57.543Z</time>
      </trkpt>
      <trkpt lat="44.72096" lon="3.82427">
        <ele>982.06207275391</ele>
        <time>2020-10-16T07:41:58.324Z</time>
      </trkpt>
      <trkpt lat="44.72101" lon="3.82434">
        <ele>981.41552734375</ele>
        <time>2020-10-16T07:41:59.106Z</time>
      </trkpt>
      <trkpt lat="44.72106" lon="3.82438">
        <ele>980.88555908203</ele>
        <time>2020-10-16T07:41:59.889Z</time>
      </trkpt>
      <trkpt lat="44.72112" lon="3.8244">
        <ele>980.43719482422</ele>
        <time>2020-10-16T07:42:00.674Z</time>
      </trkpt>
      <trkpt lat="44.72118" lon="3.82441">
        <ele>980.03564453125</ele>
        <time>2020-10-16T07:42:01.460Z</time>
      </trkpt>
      <trkpt lat="44.72138" lon="3.82441">
        <ele>979.29797363281</ele>
        <time>2020-10-16T07:42:02.250Z</time>
      </trkpt>
      <trkpt lat="44.72163" lon="3.82445">
        <ele>978.30902099609</ele>
        <time>2020-10-16T07:42:03.045Z</time>
      </trkpt>
      <trkpt lat="44.72175" lon="3.82447">
        <ele>977.84320068359</ele>
        <time>2020-10-16T07:42:03.842Z</time>
      </trkpt>
      <trkpt lat="44.72193" lon="3.82448">
        <ele>977.20422363281</ele>
        <time>2020-10-16T07:42:04.643Z</time>
      </trkpt>
      <trkpt lat="44.72206" lon="3.82448">
        <ele>976.94195556641</ele>
        <time>2020-10-16T07:42:05.447Z</time>
      </trkpt>
      <trkpt lat="44.72226" lon="3.82446">
        <ele>976.17755126953</ele>
        <time>2020-10-16T07:42:06.254Z</time>
      </trkpt>
      <trkpt lat="44.72246" lon="3.82442">
        <ele>975.26043701172</ele>
        <time>2020-10-16T07:42:07.065Z</time>
      </trkpt>
      <trkpt lat="44.72284" lon="3.82438">
        <ele>973.26354980469</ele>
        <time>2020-10-16T07:42:07.884Z</time>
      </trkpt>
      <trkpt lat="44.72323" lon="3.8243">
        <ele>973.74652099609</ele>
        <time>2020-10-16T07:42:08.711Z</time>
      </trkpt>
      <trkpt lat="44.72354" lon="3.82423">
        <ele>974.34106445312</ele>
        <time>2020-10-16T07:42:09.544Z</time>
      </trkpt>
      <trkpt lat="44.7236" lon="3.82422">
        <ele>973.86059570312</ele>
        <time>2020-10-16T07:42:10.379Z</time>
      </trkpt>
      <trkpt lat="44.72366" lon="3.82423">
        <ele>973.33294677734</ele>
        <time>2020-10-16T07:42:11.215Z</time>
      </trkpt>
      <trkpt lat="44.72373" lon="3.82425">
        <ele>972.66278076172</ele>
        <time>2020-10-16T07:42:12.052Z</time>
      </trkpt>
      <trkpt lat="44.72397" lon="3.82435">
        <ele>969.79943847656</ele>
        <time>2020-10-16T07:42:12.894Z</time>
      </trkpt>
      <trkpt lat="44.72402" lon="3.82436">
        <ele>969.16589355469</ele>
        <time>2020-10-16T07:42:13.737Z</time>
      </trkpt>
      <trkpt lat="44.72407" lon="3.82435">
        <ele>968.65081787109</ele>
        <time>2020-10-16T07:42:14.581Z</time>
      </trkpt>
      <trkpt lat="44.7241" lon="3.82432">
        <ele>968.28784179688</ele>
        <time>2020-10-16T07:42:15.426Z</time>
      </trkpt>
      <trkpt lat="44.72412" lon="3.82427">
        <ele>967.97473144531</ele>
        <time>2020-10-16T07:42:16.272Z</time>
      </trkpt>
      <trkpt lat="44.72416" lon="3.82416">
        <ele>967.50207519531</ele>
        <time>2020-10-16T07:42:17.120Z</time>
      </trkpt>
      <trkpt lat="44.7242" lon="3.82406">
        <ele>967.09875488281</ele>
        <time>2020-10-16T07:42:17.969Z</time>
      </trkpt>
      <trkpt lat="44.72423" lon="3.82399">
        <ele>966.68096923828</ele>
        <time>2020-10-16T07:42:18.819Z</time>
      </trkpt>
      <trkpt lat="44.72427" lon="3.82395">
        <ele>966.17944335938</ele>
        <time>2020-10-16T07:42:19.670Z</time>
      </trkpt>
      <trkpt lat="44.72434" lon="3.82392">
        <ele>965.37066650391</ele>
        <time>2020-10-16T07:42:20.523Z</time>
      </trkpt>
      <trkpt lat="44.72447" lon="3.82388">
        <ele>963.78942871094</ele>
        <time>2020-10-16T07:42:21.378Z</time>
      </trkpt>
      <trkpt lat="44.72454" lon="3.82384">
        <ele>962.99188232422</ele>
        <time>2020-10-16T07:42:22.235Z</time>
      </trkpt>
      <trkpt lat="44.72461" lon="3.82377">
        <ele>962.66015625</ele>
        <time>2020-10-16T07:42:23.094Z</time>
      </trkpt>
      <trkpt lat="44.72468" lon="3.82368">
        <ele>962.27392578125</ele>
        <time>2020-10-16T07:42:23.955Z</time>
      </trkpt>
      <trkpt lat="44.72475" lon="3.82364">
        <ele>961.71527099609</ele>
        <time>2020-10-16T07:42:24.817Z</time>
      </trkpt>
      <trkpt lat="44.72482" lon="3.82363">
        <ele>961.11285400391</ele>
        <time>2020-10-16T07:42:25.681Z</time>
      </trkpt>
      <trkpt lat="44.72491" lon="3.82363">
        <ele>960.49365234375</ele>
        <time>2020-10-16T07:42:26.546Z</time>
      </trkpt>
      <trkpt lat="44.72505" lon="3.82365">
        <ele>959.5849609375</ele>
        <time>2020-10-16T07:42:27.414Z</time>
      </trkpt>
      <trkpt lat="44.72508" lon="3.82367">
        <ele>959.35382080078</ele>
        <time>2020-10-16T07:42:28.283Z</time>
      </trkpt>
      <trkpt lat="44.72513" lon="3.82369">
        <ele>959.08990478516</ele>
        <time>2020-10-16T07:42:29.153Z</time>
      </trkpt>
      <trkpt lat="44.72516" lon="3.82371">
        <ele>958.91094970703</ele>
        <time>2020-10-16T07:42:30.023Z</time>
      </trkpt>
      <trkpt lat="44.7252" lon="3.82371">
        <ele>958.64031982422</ele>
        <time>2020-10-16T07:42:30.894Z</time>
      </trkpt>
      <trkpt lat="44.72522" lon="3.82369">
        <ele>958.41424560547</ele>
        <time>2020-10-16T07:42:31.766Z</time>
      </trkpt>
      <trkpt lat="44.72529" lon="3.82374">
        <ele>958.04364013672</ele>
        <time>2020-10-16T07:42:32.639Z</time>
      </trkpt>
      <trkpt lat="44.72532" lon="3.82374">
        <ele>957.82403564453</ele>
        <time>2020-10-16T07:42:33.513Z</time>
      </trkpt>
      <trkpt lat="44.72548" lon="3.8236">
        <ele>956.98272705078</ele>
        <time>2020-10-16T07:42:34.391Z</time>
      </trkpt>
      <trkpt lat="44.72565" lon="3.82344">
        <ele>956.80230712891</ele>
        <time>2020-10-16T07:42:35.273Z</time>
      </trkpt>
      <trkpt lat="44.72577" lon="3.82334">
        <ele>956.77935791016</ele>
        <time>2020-10-16T07:42:36.158Z</time>
      </trkpt>
      <trkpt lat="44.72597" lon="3.82318">
        <ele>956.08471679688</ele>
        <time>2020-10-16T07:42:37.047Z</time>
      </trkpt>
      <trkpt lat="44.7261" lon="3.82307">
        <ele>954.87957763672</ele>
        <time>2020-10-16T07:42:37.939Z</time>
      </trkpt>
      <trkpt lat="44.72623" lon="3.82313">
        <ele>954.22790527344</ele>
        <time>2020-10-16T07:42:38.834Z</time>
      </trkpt>
      <trkpt lat="44.72643" lon="3.82319">
        <ele>951.98956298828</ele>
        <time>2020-10-16T07:42:39.733Z</time>
      </trkpt>
      <trkpt lat="44.72656" lon="3.82323">
        <ele>950.54791259766</ele>
        <time>2020-10-16T07:42:40.635Z</time>
      </trkpt>
      <trkpt lat="44.72674" lon="3.82325">
        <ele>948.50817871094</ele>
        <time>2020-10-16T07:42:41.540Z</time>
      </trkpt>
      <trkpt lat="44.727" lon="3.8233">
        <ele>945.82373046875</ele>
        <time>2020-10-16T07:42:42.450Z</time>
      </trkpt>
      <trkpt lat="44.72713" lon="3.82334">
        <ele>945.14697265625</ele>
        <time>2020-10-16T07:42:43.363Z</time>
      </trkpt>
      <trkpt lat="44.72732" lon="3.82352">
        <ele>944.91461181641</ele>
        <time>2020-10-16T07:42:44.281Z</time>
      </trkpt>
      <trkpt lat="44.72748" lon="3.82362">
        <ele>944.70983886719</ele>
        <time>2020-10-16T07:42:45.202Z</time>
      </trkpt>
      <trkpt lat="44.72767" lon="3.8237">
        <ele>944.40905761719</ele>
        <time>2020-10-16T07:42:46.127Z</time>
      </trkpt>
      <trkpt lat="44.72782" lon="3.82379">
        <ele>944.34729003906</ele>
        <time>2020-10-16T07:42:47.055Z</time>
      </trkpt>
      <trkpt lat="44.72786" lon="3.8239">
        <ele>944.71368408203</ele>
        <time>2020-10-16T07:42:47.985Z</time>
      </trkpt>
      <trkpt lat="44.72796" lon="3.8241">
        <ele>945.29412841797</ele>
        <time>2020-10-16T07:42:48.919Z</time>
      </trkpt>
      <trkpt lat="44.72794" lon="3.82445">
        <ele>946.5947265625</ele>
        <time>2020-10-16T07:42:49.858Z</time>
      </trkpt>
      <trkpt lat="44.72783" lon="3.8246">
        <ele>946.876953125</ele>
        <time>2020-10-16T07:42:50.800Z</time>
      </trkpt>
      <trkpt lat="44.72764" lon="3.82473">
        <ele>947.41430664062</ele>
        <time>2020-10-16T07:42:51.746Z</time>
      </trkpt>
      <trkpt lat="44.72735" lon="3.82498">
        <ele>948.52435302734</ele>
        <time>2020-10-16T07:42:52.699Z</time>
      </trkpt>
      <trkpt lat="44.7272" lon="3.82517">
        <ele>949.20281982422</ele>
        <time>2020-10-16T07:42:53.656Z</time>
      </trkpt>
      <trkpt lat="44.727" lon="3.82533">
        <ele>949.93121337891</ele>
        <time>2020-10-16T07:42:54.617Z</time>
      </trkpt>
      <trkpt lat="44.72685" lon="3.8255">
        <ele>950.63708496094</ele>
        <time>2020-10-16T07:42:55.582Z</time>
      </trkpt>
      <trkpt lat="44.7268" lon="3.82564">
        <ele>950.6015625</ele>
        <time>2020-10-16T07:42:56.550Z</time>
      </trkpt>
      <trkpt lat="44.72664" lon="3.82574">
        <ele>952.14660644531</ele>
        <time>2020-10-16T07:42:57.521Z</time>
      </trkpt>
      <trkpt lat="44.72648" lon="3.82586">
        <ele>954.25067138672</ele>
        <time>2020-10-16T07:42:58.496Z</time>
      </trkpt>
      <trkpt lat="44.72635" lon="3.82601">
        <ele>955.98291015625</ele>
        <time>2020-10-16T07:42:59.474Z</time>
      </trkpt>
      <trkpt lat="44.7262" lon="3.82618">
        <ele>956.986328125</ele>
        <time>2020-10-16T07:43:00.456Z</time>
      </trkpt>
      <trkpt lat="44.72601" lon="3.82636">
        <ele>955.87200927734</ele>
        <time>2020-10-16T07:43:01.443Z</time>
      </trkpt>
      <trkpt lat="44.72589" lon="3.8265">
        <ele>955.01745605469</ele>
        <time>2020-10-16T07:43:02.433Z</time>
      </trkpt>
      <trkpt lat="44.72577" lon="3.8267">
        <ele>954.18566894531</ele>
        <time>2020-10-16T07:43:03.426Z</time>
      </trkpt>
      <trkpt lat="44.72562" lon="3.82685">
        <ele>954.07067871094</ele>
        <time>2020-10-16T07:43:04.423Z</time>
      </trkpt>
      <trkpt lat="44.72539" lon="3.82699">
        <ele>954.146484375</ele>
        <time>2020-10-16T07:43:05.425Z</time>
      </trkpt>
      <trkpt lat="44.72513" lon="3.82713">
        <ele>951.76177978516</ele>
        <time>2020-10-16T07:43:06.433Z</time>
      </trkpt>
      <trkpt lat="44.72488" lon="3.82724">
        <ele>949.75317382812</ele>
        <time>2020-10-16T07:43:07.446Z</time>
      </trkpt>
      <trkpt lat="44.72494" lon="3.82731">
        <ele>949.52746582031</ele>
        <time>2020-10-16T07:43:08.460Z</time>
      </trkpt>
      <trkpt lat="44.72503" lon="3.82734">
        <ele>949.57598876953</ele>
        <time>2020-10-16T07:43:09.476Z</time>
      </trkpt>
      <trkpt lat="44.72518" lon="3.82737">
        <ele>950.02404785156</ele>
        <time>2020-10-16T07:43:10.495Z</time>
      </trkpt>
      <trkpt lat="44.72537" lon="3.82747">
        <ele>950.14660644531</ele>
        <time>2020-10-16T07:43:11.518Z</time>
      </trkpt>
      <trkpt lat="44.72554" lon="3.82753">
        <ele>949.42456054688</ele>
        <time>2020-10-16T07:43:12.545Z</time>
      </trkpt>
      <trkpt lat="44.72567" lon="3.82754">
        <ele>949.19195556641</ele>
        <time>2020-10-16T07:43:13.574Z</time>
      </trkpt>
      <trkpt lat="44.72585" lon="3.82753">
        <ele>949.04833984375</ele>
        <time>2020-10-16T07:43:14.607Z</time>
      </trkpt>
      <trkpt lat="44.72608" lon="3.8275">
        <ele>948.66857910156</ele>
        <time>2020-10-16T07:43:15.645Z</time>
      </trkpt>
      <trkpt lat="44.72634" lon="3.82749">
        <ele>947.94793701172</ele>
        <time>2020-10-16T07:43:16.688Z</time>
      </trkpt>
      <trkpt lat="44.72661" lon="3.82746">
        <ele>947.79144287109</ele>
        <time>2020-10-16T07:43:17.736Z</time>
      </trkpt>
      <trkpt lat="44.72687" lon="3.8274">
        <ele>946.50268554688</ele>
        <time>2020-10-16T07:43:18.789Z</time>
      </trkpt>
      <trkpt lat="44.72717" lon="3.82732">
        <ele>944.55456542969</ele>
        <time>2020-10-16T07:43:19.849Z</time>
      </trkpt>
      <trkpt lat="44.72749" lon="3.8272">
        <ele>944.13854980469</ele>
        <time>2020-10-16T07:43:20.915Z</time>
      </trkpt>
      <trkpt lat="44.72771" lon="3.82715">
        <ele>943.95770263672</ele>
        <time>2020-10-16T07:43:21.986Z</time>
      </trkpt>
      <trkpt lat="44.72789" lon="3.82712">
        <ele>943.86456298828</ele>
        <time>2020-10-16T07:43:23.060Z</time>
      </trkpt>
      <trkpt lat="44.72803" lon="3.82709">
        <ele>943.91339111328</ele>
        <time>2020-10-16T07:43:24.137Z</time>
      </trkpt>
      <trkpt lat="44.72824" lon="3.82704">
        <ele>943.43792724609</ele>
        <time>2020-10-16T07:43:25.218Z</time>
      </trkpt>
      <trkpt lat="44.72838" lon="3.827">
        <ele>943.04345703125</ele>
        <time>2020-10-16T07:43:26.302Z</time>
      </trkpt>
      <trkpt lat="44.72856" lon="3.82697">
        <ele>942.66680908203</ele>
        <time>2020-10-16T07:43:27.390Z</time>
      </trkpt>
      <trkpt lat="44.72872" lon="3.82698">
        <ele>942.57476806641</ele>
        <time>2020-10-16T07:43:28.481Z</time>
      </trkpt>
      <trkpt lat="44.72887" lon="3.82701">
        <ele>942.90747070312</ele>
        <time>2020-10-16T07:43:29.575Z</time>
      </trkpt>
      <trkpt lat="44.72894" lon="3.82702">
        <ele>942.93933105469</ele>
        <time>2020-10-16T07:43:30.671Z</time>
      </trkpt>
      <trkpt lat="44.72907" lon="3.82699">
        <ele>942.73620605469</ele>
        <time>2020-10-16T07:43:31.769Z</time>
      </trkpt>
      <trkpt lat="44.72922" lon="3.82696">
        <ele>942.48699951172</ele>
        <time>2020-10-16T07:43:32.870Z</time>
      </trkpt>
      <trkpt lat="44.72932" lon="3.82695">
        <ele>942.42565917969</ele>
        <time>2020-10-16T07:43:33.973Z</time>
      </trkpt>
      <trkpt lat="44.72951" lon="3.82694">
        <ele>942.37341308594</ele>
        <time>2020-10-16T07:43:35.080Z</time>
      </trkpt>
      <trkpt lat="44.72969" lon="3.82694">
        <ele>942.26153564453</ele>
        <time>2020-10-16T07:43:36.190Z</time>
      </trkpt>
      <trkpt lat="44.72983" lon="3.82697">
        <ele>942.36798095703</ele>
        <time>2020-10-16T07:43:37.303Z</time>
      </trkpt>
      <trkpt lat="44.73" lon="3.82704">
        <ele>942.71667480469</ele>
        <time>2020-10-16T07:43:38.420Z</time>
      </trkpt>
      <trkpt lat="44.73017" lon="3.82716">
        <ele>943.30572509766</ele>
        <time>2020-10-16T07:43:39.541Z</time>
      </trkpt>
      <trkpt lat="44.73032" lon="3.82735">
        <ele>944.21447753906</ele>
        <time>2020-10-16T07:43:40.666Z</time>
      </trkpt>
      <trkpt lat="44.73045" lon="3.82757">
        <ele>944.98596191406</ele>
        <time>2020-10-16T07:43:41.795Z</time>
      </trkpt>
      <trkpt lat="44.73054" lon="3.82769">
        <ele>945.2470703125</ele>
        <time>2020-10-16T07:43:42.926Z</time>
      </trkpt>
      <trkpt lat="44.73062" lon="3.82784">
        <ele>945.10003662109</ele>
        <time>2020-10-16T07:43:44.060Z</time>
      </trkpt>
      <trkpt lat="44.73065" lon="3.82796">
        <ele>945.017578125</ele>
        <time>2020-10-16T07:43:45.196Z</time>
      </trkpt>
      <trkpt lat="44.73068" lon="3.82812">
        <ele>945.08361816406</ele>
        <time>2020-10-16T07:43:46.334Z</time>
      </trkpt>
      <trkpt lat="44.73072" lon="3.82826">
        <ele>945.18518066406</ele>
        <time>2020-10-16T07:43:47.474Z</time>
      </trkpt>
      <trkpt lat="44.73077" lon="3.82846">
        <ele>945.35461425781</ele>
        <time>2020-10-16T07:43:48.617Z</time>
      </trkpt>
      <trkpt lat="44.73079" lon="3.82865">
        <ele>945.34722900391</ele>
        <time>2020-10-16T07:43:49.763Z</time>
      </trkpt>
      <trkpt lat="44.73078" lon="3.82881">
        <ele>945.24133300781</ele>
        <time>2020-10-16T07:43:50.911Z</time>
      </trkpt>
      <trkpt lat="44.73074" lon="3.82905">
        <ele>945.20556640625</ele>
        <time>2020-10-16T07:43:52.063Z</time>
      </trkpt>
      <trkpt lat="44.73065" lon="3.82924">
        <ele>945.5263671875</ele>
        <time>2020-10-16T07:43:53.218Z</time>
      </trkpt>
      <trkpt lat="44.73053" lon="3.82945">
        <ele>946.02966308594</ele>
        <time>2020-10-16T07:43:54.377Z</time>
      </trkpt>
      <trkpt lat="44.73041" lon="3.82957">
        <ele>946.07293701172</ele>
        <time>2020-10-16T07:43:55.539Z</time>
      </trkpt>
      <trkpt lat="44.73024" lon="3.8297">
        <ele>945.83361816406</ele>
        <time>2020-10-16T07:43:56.705Z</time>
      </trkpt>
      <trkpt lat="44.73002" lon="3.82981">
        <ele>945.84942626953</ele>
        <time>2020-10-16T07:43:57.876Z</time>
      </trkpt>
      <trkpt lat="44.72978" lon="3.82986">
        <ele>945.87164306641</ele>
        <time>2020-10-16T07:43:59.051Z</time>
      </trkpt>
      <trkpt lat="44.72959" lon="3.82987">
        <ele>946.05096435547</ele>
        <time>2020-10-16T07:44:00.230Z</time>
      </trkpt>
      <trkpt lat="44.72938" lon="3.82984">
        <ele>946.4853515625</ele>
        <time>2020-10-16T07:44:01.413Z</time>
      </trkpt>
      <trkpt lat="44.72921" lon="3.82979">
        <ele>946.95727539062</ele>
        <time>2020-10-16T07:44:02.600Z</time>
      </trkpt>
      <trkpt lat="44.72911" lon="3.82976">
        <ele>947.31243896484</ele>
        <time>2020-10-16T07:44:03.789Z</time>
      </trkpt>
      <trkpt lat="44.72904" lon="3.82976">
        <ele>947.54797363281</ele>
        <time>2020-10-16T07:44:04.979Z</time>
      </trkpt>
      <trkpt lat="44.72899" lon="3.82984">
        <ele>947.74584960938</ele>
        <time>2020-10-16T07:44:06.171Z</time>
      </trkpt>
      <trkpt lat="44.72898" lon="3.82996">
        <ele>947.69293212891</ele>
        <time>2020-10-16T07:44:07.365Z</time>
      </trkpt>
      <trkpt lat="44.72902" lon="3.83013">
        <ele>947.22381591797</ele>
        <time>2020-10-16T07:44:08.561Z</time>
      </trkpt>
      <trkpt lat="44.72904" lon="3.83029">
        <ele>947.05743408203</ele>
        <time>2020-10-16T07:44:09.760Z</time>
      </trkpt>
      <trkpt lat="44.72903" lon="3.83055">
        <ele>947.42462158203</ele>
        <time>2020-10-16T07:44:10.962Z</time>
      </trkpt>
      <trkpt lat="44.72903" lon="3.83078">
        <ele>946.8759765625</ele>
        <time>2020-10-16T07:44:12.168Z</time>
      </trkpt>
      <trkpt lat="44.72902" lon="3.83095">
        <ele>946.48754882812</ele>
        <time>2020-10-16T07:44:13.376Z</time>
      </trkpt>
      <trkpt lat="44.72899" lon="3.83108">
        <ele>946.24682617188</ele>
        <time>2020-10-16T07:44:14.586Z</time>
      </trkpt>
      <trkpt lat="44.72896" lon="3.83116">
        <ele>946.13702392578</ele>
        <time>2020-10-16T07:44:15.797Z</time>
      </trkpt>
      <trkpt lat="44.72885" lon="3.83132">
        <ele>946.03564453125</ele>
        <time>2020-10-16T07:44:17.011Z</time>
      </trkpt>
      <trkpt lat="44.72874" lon="3.83144">
        <ele>946.00799560547</ele>
        <time>2020-10-16T07:44:18.228Z</time>
      </trkpt>
      <trkpt lat="44.72864" lon="3.83153">
        <ele>946.08074951172</ele>
        <time>2020-10-16T07:44:19.448Z</time>
      </trkpt>
      <trkpt lat="44.72853" lon="3.83166">
        <ele>946.17889404297</ele>
        <time>2020-10-16T07:44:20.670Z</time>
      </trkpt>
      <trkpt lat="44.72836" lon="3.83183">
        <ele>945.69641113281</ele>
        <time>2020-10-16T07:44:21.897Z</time>
      </trkpt>
      <trkpt lat="44.72827" lon="3.83189">
        <ele>945.51641845703</ele>
        <time>2020-10-16T07:44:23.126Z</time>
      </trkpt>
      <trkpt lat="44.72818" lon="3.8319">
        <ele>945.59143066406</ele>
        <time>2020-10-16T07:44:24.356Z</time>
      </trkpt>
      <trkpt lat="44.72815" lon="3.83196">
        <ele>945.49578857422</ele>
        <time>2020-10-16T07:44:25.587Z</time>
      </trkpt>
      <trkpt lat="44.72809" lon="3.83197">
        <ele>945.54949951172</ele>
        <time>2020-10-16T07:44:26.820Z</time>
      </trkpt>
      <trkpt lat="44.72796" lon="3.83195">
        <ele>945.75299072266</ele>
        <time>2020-10-16T07:44:28.055Z</time>
      </trkpt>
      <trkpt lat="44.72773" lon="3.83196">
        <ele>946.16986083984</ele>
        <time>2020-10-16T07:44:29.295Z</time>
      </trkpt>
      <trkpt lat="44.72765" lon="3.83194">
        <ele>946.41339111328</ele>
        <time>2020-10-16T07:44:30.536Z</time>
      </trkpt>
      <trkpt lat="44.72754" lon="3.83191">
        <ele>946.74468994141</ele>
        <time>2020-10-16T07:44:31.780Z</time>
      </trkpt>
      <trkpt lat="44.72745" lon="3.83193">
        <ele>946.91052246094</ele>
        <time>2020-10-16T07:44:33.025Z</time>
      </trkpt>
      <trkpt lat="44.72739" lon="3.83191">
        <ele>947.10943603516</ele>
        <time>2020-10-16T07:44:34.272Z</time>
      </trkpt>
      <trkpt lat="44.72726" lon="3.83183">
        <ele>947.90509033203</ele>
        <time>2020-10-16T07:44:35.521Z</time>
      </trkpt>
      <trkpt lat="44.72716" lon="3.83169">
        <ele>949.13824462891</ele>
        <time>2020-10-16T07:44:36.773Z</time>
      </trkpt>
      <trkpt lat="44.7271" lon="3.8316">
        <ele>949.93280029297</ele>
        <time>2020-10-16T07:44:38.027Z</time>
      </trkpt>
      <trkpt lat="44.72699" lon="3.83157">
        <ele>950.59637451172</ele>
        <time>2020-10-16T07:44:39.283Z</time>
      </trkpt>
      <trkpt lat="44.72685" lon="3.83161">
        <ele>951.15087890625</ele>
        <time>2020-10-16T07:44:40.542Z</time>
      </trkpt>
      <trkpt lat="44.72673" lon="3.83164">
        <ele>951.59594726562</ele>
        <time>2020-10-16T07:44:41.804Z</time>
      </trkpt>
      <trkpt lat="44.72658" lon="3.83171">
        <ele>951.71276855469</ele>
        <time>2020-10-16T07:44:43.069Z</time>
      </trkpt>
      <trkpt lat="44.72649" lon="3.83174">
        <ele>951.84454345703</ele>
        <time>2020-10-16T07:44:44.336Z</time>
      </trkpt>
      <trkpt lat="44.72635" lon="3.83177">
        <ele>952.33728027344</ele>
        <time>2020-10-16T07:44:45.606Z</time>
      </trkpt>
      <trkpt lat="44.72626" lon="3.83181">
        <ele>952.3916015625</ele>
        <time>2020-10-16T07:44:46.877Z</time>
      </trkpt>
      <trkpt lat="44.72619" lon="3.83191">
        <ele>952.03375244141</ele>
        <time>2020-10-16T07:44:48.150Z</time>
      </trkpt>
      <trkpt lat="44.72615" lon="3.83202">
        <ele>952.12481689453</ele>
        <time>2020-10-16T07:44:49.425Z</time>
      </trkpt>
      <trkpt lat="44.72614" lon="3.83211">
        <ele>951.92919921875</ele>
        <time>2020-10-16T07:44:50.701Z</time>
      </trkpt>
      <trkpt lat="44.72617" lon="3.83219">
        <ele>951.50988769531</ele>
        <time>2020-10-16T07:44:51.979Z</time>
      </trkpt>
      <trkpt lat="44.72625" lon="3.83227">
        <ele>950.6376953125</ele>
        <time>2020-10-16T07:44:53.259Z</time>
      </trkpt>
      <trkpt lat="44.72635" lon="3.83238">
        <ele>949.4404296875</ele>
        <time>2020-10-16T07:44:54.541Z</time>
      </trkpt>
      <trkpt lat="44.72642" lon="3.83249">
        <ele>948.44030761719</ele>
        <time>2020-10-16T07:44:55.825Z</time>
      </trkpt>
      <trkpt lat="44.72645" lon="3.83259">
        <ele>947.94097900391</ele>
        <time>2020-10-16T07:44:57.111Z</time>
      </trkpt>
      <trkpt lat="44.72644" lon="3.83269">
        <ele>947.86846923828</ele>
        <time>2020-10-16T07:44:58.398Z</time>
      </trkpt>
      <trkpt lat="44.72637" lon="3.8328">
        <ele>948.37744140625</ele>
        <time>2020-10-16T07:44:59.687Z</time>
      </trkpt>
      <trkpt lat="44.72629" lon="3.83286">
        <ele>948.64477539062</ele>
        <time>2020-10-16T07:45:00.978Z</time>
      </trkpt>
      <trkpt lat="44.72619" lon="3.83292">
        <ele>948.20526123047</ele>
        <time>2020-10-16T07:45:02.272Z</time>
      </trkpt>
      <trkpt lat="44.72605" lon="3.83306">
        <ele>947.52716064453</ele>
        <time>2020-10-16T07:45:03.569Z</time>
      </trkpt>
      <trkpt lat="44.72591" lon="3.83318">
        <ele>946.98675537109</ele>
        <time>2020-10-16T07:45:04.869Z</time>
      </trkpt>
      <trkpt lat="44.72579" lon="3.83328">
        <ele>947.1337890625</ele>
        <time>2020-10-16T07:45:06.172Z</time>
      </trkpt>
      <trkpt lat="44.72571" lon="3.83338">
        <ele>947.23107910156</ele>
        <time>2020-10-16T07:45:07.477Z</time>
      </trkpt>
      <trkpt lat="44.72565" lon="3.83348">
        <ele>947.1572265625</ele>
        <time>2020-10-16T07:45:08.784Z</time>
      </trkpt>
      <trkpt lat="44.72559" lon="3.83362">
        <ele>947.16479492188</ele>
        <time>2020-10-16T07:45:10.093Z</time>
      </trkpt>
      <trkpt lat="44.72552" lon="3.83377">
        <ele>947.42852783203</ele>
        <time>2020-10-16T07:45:11.405Z</time>
      </trkpt>
      <trkpt lat="44.72543" lon="3.83389">
        <ele>947.17730712891</ele>
        <time>2020-10-16T07:45:12.719Z</time>
      </trkpt>
      <trkpt lat="44.72532" lon="3.83395">
        <ele>947.38861083984</ele>
        <time>2020-10-16T07:45:14.036Z</time>
      </trkpt>
      <trkpt lat="44.72523" lon="3.83399">
        <ele>947.79913330078</ele>
        <time>2020-10-16T07:45:15.355Z</time>
      </trkpt>
      <trkpt lat="44.72509" lon="3.83399">
        <ele>948.60595703125</ele>
        <time>2020-10-16T07:45:16.677Z</time>
      </trkpt>
      <trkpt lat="44.72494" lon="3.83397">
        <ele>949.62585449219</ele>
        <time>2020-10-16T07:45:18.002Z</time>
      </trkpt>
      <trkpt lat="44.72486" lon="3.83392">
        <ele>950.4013671875</ele>
        <time>2020-10-16T07:45:19.328Z</time>
      </trkpt>
      <trkpt lat="44.7248" lon="3.83384">
        <ele>951.11383056641</ele>
        <time>2020-10-16T07:45:20.656Z</time>
      </trkpt>
      <trkpt lat="44.72471" lon="3.83378">
        <ele>951.97998046875</ele>
        <time>2020-10-16T07:45:21.986Z</time>
      </trkpt>
      <trkpt lat="44.72458" lon="3.83369">
        <ele>953.22161865234</ele>
        <time>2020-10-16T07:45:23.319Z</time>
      </trkpt>
      <trkpt lat="44.72451" lon="3.83372">
        <ele>953.65130615234</ele>
        <time>2020-10-16T07:45:24.653Z</time>
      </trkpt>
      <trkpt lat="44.72444" lon="3.83379">
        <ele>953.82690429688</ele>
        <time>2020-10-16T07:45:25.989Z</time>
      </trkpt>
      <trkpt lat="44.72444" lon="3.83394">
        <ele>953.30749511719</ele>
        <time>2020-10-16T07:45:27.327Z</time>
      </trkpt>
      <trkpt lat="44.72443" lon="3.83412">
        <ele>952.73718261719</ele>
        <time>2020-10-16T07:45:28.668Z</time>
      </trkpt>
      <trkpt lat="44.72444" lon="3.83434">
        <ele>951.8046875</ele>
        <time>2020-10-16T07:45:30.012Z</time>
      </trkpt>
      <trkpt lat="44.72446" lon="3.83444">
        <ele>951.19635009766</ele>
        <time>2020-10-16T07:45:31.357Z</time>
      </trkpt>
      <trkpt lat="44.72449" lon="3.83457">
        <ele>950.40319824219</ele>
        <time>2020-10-16T07:45:32.704Z</time>
      </trkpt>
      <trkpt lat="44.72453" lon="3.83465">
        <ele>949.77996826172</ele>
        <time>2020-10-16T07:45:34.053Z</time>
      </trkpt>
      <trkpt lat="44.72458" lon="3.83471">
        <ele>949.19128417969</ele>
        <time>2020-10-16T07:45:35.403Z</time>
      </trkpt>
      <trkpt lat="44.72469" lon="3.83482">
        <ele>948.07110595703</ele>
        <time>2020-10-16T07:45:36.755Z</time>
      </trkpt>
      <trkpt lat="44.72475" lon="3.8349">
        <ele>947.29864501953</ele>
        <time>2020-10-16T07:45:38.109Z</time>
      </trkpt>
      <trkpt lat="44.72476" lon="3.83503">
        <ele>946.59857177734</ele>
        <time>2020-10-16T07:45:39.465Z</time>
      </trkpt>
      <trkpt lat="44.72478" lon="3.83519">
        <ele>945.72680664062</ele>
        <time>2020-10-16T07:45:40.823Z</time>
      </trkpt>
      <trkpt lat="44.72481" lon="3.83536">
        <ele>945.35021972656</ele>
        <time>2020-10-16T07:45:42.184Z</time>
      </trkpt>
      <trkpt lat="44.72486" lon="3.83555">
        <ele>945.080078125</ele>
        <time>2020-10-16T07:45:43.548Z</time>
      </trkpt>
      <trkpt lat="44.72488" lon="3.83566">
        <ele>944.84619140625</ele>
        <time>2020-10-16T07:45:44.913Z</time>
      </trkpt>
      <trkpt lat="44.72486" lon="3.83575">
        <ele>944.81939697266</ele>
        <time>2020-10-16T07:45:46.280Z</time>
      </trkpt>
      <trkpt lat="44.72482" lon="3.83582">
        <ele>944.91674804688</ele>
        <time>2020-10-16T07:45:47.648Z</time>
      </trkpt>
      <trkpt lat="44.72475" lon="3.83589">
        <ele>945.17236328125</ele>
        <time>2020-10-16T07:45:49.018Z</time>
      </trkpt>
      <trkpt lat="44.72465" lon="3.83596">
        <ele>945.58178710938</ele>
        <time>2020-10-16T07:45:50.390Z</time>
      </trkpt>
      <trkpt lat="44.72449" lon="3.83605">
        <ele>946.24652099609</ele>
        <time>2020-10-16T07:45:51.765Z</time>
      </trkpt>
      <trkpt lat="44.72435" lon="3.83614">
        <ele>946.92395019531</ele>
        <time>2020-10-16T07:45:53.144Z</time>
      </trkpt>
      <trkpt lat="44.72424" lon="3.8362">
        <ele>947.45153808594</ele>
        <time>2020-10-16T07:45:54.525Z</time>
      </trkpt>
      <trkpt lat="44.72411" lon="3.83626">
        <ele>948.05035400391</ele>
        <time>2020-10-16T07:45:55.909Z</time>
      </trkpt>
      <trkpt lat="44.72397" lon="3.83631">
        <ele>948.71087646484</ele>
        <time>2020-10-16T07:45:57.295Z</time>
      </trkpt>
      <trkpt lat="44.7238" lon="3.83636">
        <ele>949.03845214844</ele>
        <time>2020-10-16T07:45:58.685Z</time>
      </trkpt>
      <trkpt lat="44.72362" lon="3.8364">
        <ele>949.08990478516</ele>
        <time>2020-10-16T07:46:00.078Z</time>
      </trkpt>
      <trkpt lat="44.72349" lon="3.83645">
        <ele>948.79016113281</ele>
        <time>2020-10-16T07:46:01.474Z</time>
      </trkpt>
      <trkpt lat="44.72338" lon="3.83653">
        <ele>948.47222900391</ele>
        <time>2020-10-16T07:46:02.873Z</time>
      </trkpt>
      <trkpt lat="44.72331" lon="3.83656">
        <ele>948.73980712891</ele>
        <time>2020-10-16T07:46:04.273Z</time>
      </trkpt>
      <trkpt lat="44.72326" lon="3.83651">
        <ele>948.76788330078</ele>
        <time>2020-10-16T07:46:05.674Z</time>
      </trkpt>
      <trkpt lat="44.72325" lon="3.83644">
        <ele>948.54962158203</ele>
        <time>2020-10-16T07:46:07.077Z</time>
      </trkpt>
      <trkpt lat="44.72323" lon="3.83632">
        <ele>948.80773925781</ele>
        <time>2020-10-16T07:46:08.481Z</time>
      </trkpt>
      <trkpt lat="44.72316" lon="3.83628">
        <ele>948.82244873047</ele>
        <time>2020-10-16T07:46:09.887Z</time>
      </trkpt>
      <trkpt lat="44.72319" lon="3.8364">
        <ele>948.70843505859</ele>
        <time>2020-10-16T07:46:11.295Z</time>
      </trkpt>
      <trkpt lat="44.72321" lon="3.83652">
        <ele>949.05133056641</ele>
        <time>2020-10-16T07:46:12.704Z</time>
      </trkpt>
      <trkpt lat="44.72323" lon="3.83664">
        <ele>949.40289306641</ele>
        <time>2020-10-16T07:46:14.115Z</time>
      </trkpt>
      <trkpt lat="44.72324" lon="3.83677">
        <ele>949.77087402344</ele>
        <time>2020-10-16T07:46:15.528Z</time>
      </trkpt>
      <trkpt lat="44.72326" lon="3.83689">
        <ele>950.14331054688</ele>
        <time>2020-10-16T07:46:16.943Z</time>
      </trkpt>
      <trkpt lat="44.72327" lon="3.83701">
        <ele>950.52545166016</ele>
        <time>2020-10-16T07:46:18.360Z</time>
      </trkpt>
      <trkpt lat="44.72328" lon="3.83713">
        <ele>950.90570068359</ele>
        <time>2020-10-16T07:46:19.778Z</time>
      </trkpt>
      <trkpt lat="44.7233" lon="3.83725">
        <ele>951.25848388672</ele>
        <time>2020-10-16T07:46:21.198Z</time>
      </trkpt>
      <trkpt lat="44.72331" lon="3.83737">
        <ele>951.63415527344</ele>
        <time>2020-10-16T07:46:22.620Z</time>
      </trkpt>
      <trkpt lat="44.72333" lon="3.83748">
        <ele>952.06640625</ele>
        <time>2020-10-16T07:46:24.043Z</time>
      </trkpt>
      <trkpt lat="44.72336" lon="3.83759">
        <ele>952.46105957031</ele>
        <time>2020-10-16T07:46:25.468Z</time>
      </trkpt>
      <trkpt lat="44.72338" lon="3.8377">
        <ele>952.82360839844</ele>
        <time>2020-10-16T07:46:26.895Z</time>
      </trkpt>
      <trkpt lat="44.72342" lon="3.83781">
        <ele>953.24493408203</ele>
        <time>2020-10-16T07:46:28.323Z</time>
      </trkpt>
      <trkpt lat="44.72346" lon="3.83791">
        <ele>953.62902832031</ele>
        <time>2020-10-16T07:46:29.753Z</time>
      </trkpt>
      <trkpt lat="44.7235" lon="3.83801">
        <ele>953.97271728516</ele>
        <time>2020-10-16T07:46:31.185Z</time>
      </trkpt>
      <trkpt lat="44.72354" lon="3.83811">
        <ele>954.29693603516</ele>
        <time>2020-10-16T07:46:32.618Z</time>
      </trkpt>
      <trkpt lat="44.72363" lon="3.8383">
        <ele>954.87957763672</ele>
        <time>2020-10-16T07:46:34.055Z</time>
      </trkpt>
      <trkpt lat="44.72368" lon="3.83839">
        <ele>955.15869140625</ele>
        <time>2020-10-16T07:46:35.493Z</time>
      </trkpt>
      <trkpt lat="44.72377" lon="3.83857">
        <ele>955.98236083984</ele>
        <time>2020-10-16T07:46:36.934Z</time>
      </trkpt>
      <trkpt lat="44.72385" lon="3.83872">
        <ele>956.96954345703</ele>
        <time>2020-10-16T07:46:38.378Z</time>
      </trkpt>
      <trkpt lat="44.72391" lon="3.83883">
        <ele>957.57824707031</ele>
        <time>2020-10-16T07:46:39.824Z</time>
      </trkpt>
      <trkpt lat="44.724" lon="3.839">
        <ele>958.5</ele>
        <time>2020-10-16T07:46:41.273Z</time>
      </trkpt>
      <trkpt lat="44.72404" lon="3.83909">
        <ele>958.95385742188</ele>
        <time>2020-10-16T07:46:42.723Z</time>
      </trkpt>
      <trkpt lat="44.72409" lon="3.83917">
        <ele>959.39508056641</ele>
        <time>2020-10-16T07:46:44.175Z</time>
      </trkpt>
      <trkpt lat="44.72412" lon="3.83925">
        <ele>959.83514404297</ele>
        <time>2020-10-16T07:46:45.628Z</time>
      </trkpt>
      <trkpt lat="44.72416" lon="3.83933">
        <ele>960.28106689453</ele>
        <time>2020-10-16T07:46:47.083Z</time>
      </trkpt>
      <trkpt lat="44.7242" lon="3.83942">
        <ele>960.66326904297</ele>
        <time>2020-10-16T07:46:48.539Z</time>
      </trkpt>
      <trkpt lat="44.72423" lon="3.8395">
        <ele>960.90307617188</ele>
        <time>2020-10-16T07:46:49.996Z</time>
      </trkpt>
      <trkpt lat="44.72429" lon="3.83966">
        <ele>961.3525390625</ele>
        <time>2020-10-16T07:46:51.456Z</time>
      </trkpt>
      <trkpt lat="44.72437" lon="3.83986">
        <ele>961.91528320312</ele>
        <time>2020-10-16T07:46:52.919Z</time>
      </trkpt>
      <trkpt lat="44.7244" lon="3.83993">
        <ele>962.12744140625</ele>
        <time>2020-10-16T07:46:54.383Z</time>
      </trkpt>
      <trkpt lat="44.72442" lon="3.83998">
        <ele>962.26391601562</ele>
        <time>2020-10-16T07:46:55.848Z</time>
      </trkpt>
      <trkpt lat="44.72441" lon="3.83999">
        <ele>962.27014160156</ele>
        <time>2020-10-16T07:46:57.313Z</time>
      </trkpt>
      <trkpt lat="44.72444" lon="3.84009">
        <ele>962.55505371094</ele>
        <time>2020-10-16T07:46:58.780Z</time>
      </trkpt>
      <trkpt lat="44.72475" lon="3.83954">
        <ele>962.38598632812</ele>
        <time>2020-10-16T07:47:00.257Z</time>
      </trkpt>
      <trkpt lat="44.72495" lon="3.83919">
        <ele>961.23583984375</ele>
        <time>2020-10-16T07:47:01.740Z</time>
      </trkpt>
      <trkpt lat="44.72495" lon="3.83919">
        <ele>961.23541259766</ele>
        <time>2020-10-16T07:47:03.223Z</time>
      </trkpt>
      <trkpt lat="44.72614" lon="3.83786">
        <ele>956.68804931641</ele>
        <time>2020-10-16T07:47:04.737Z</time>
      </trkpt>
      <trkpt lat="44.72681" lon="3.83744">
        <ele>958.40368652344</ele>
        <time>2020-10-16T07:47:06.266Z</time>
      </trkpt>
      <trkpt lat="44.73239" lon="3.83603">
        <ele>951.88500976562</ele>
        <time>2020-10-16T07:47:07.908Z</time>
      </trkpt>
      <trkpt lat="44.73262" lon="3.83598">
        <ele>950.76513671875</ele>
        <time>2020-10-16T07:47:09.555Z</time>
      </trkpt>
      <trkpt lat="44.73422" lon="3.83537">
        <ele>947.42388916016</ele>
        <time>2020-10-16T07:47:11.235Z</time>
      </trkpt>
      <trkpt lat="44.73489" lon="3.8351">
        <ele>945.82879638672</ele>
        <time>2020-10-16T07:47:12.929Z</time>
      </trkpt>
      <trkpt lat="44.73544" lon="3.83477">
        <ele>943.64471435547</ele>
        <time>2020-10-16T07:47:14.635Z</time>
      </trkpt>
      <trkpt lat="44.73557" lon="3.83476">
        <ele>944.42358398438</ele>
        <time>2020-10-16T07:47:16.343Z</time>
      </trkpt>
    </trkseg>
  </trk>
  <trk>
    <name><![CDATA[ESI0329 - CIRCUIT DE LA GARDILLE]]></name>
    <extensions>
      <line xmlns="http://www.topografix.com/GPX/gpx_style/0/2">
        <color>141414</color>
        <width>4</width>
      </line>
    </extensions>
    <trkseg>
      <trkpt lat="44.72357" lon="3.85407">
        <ele>912.86871337891</ele>
        <time>2020-10-16T11:43:39.000Z</time>
      </trkpt>
      <trkpt lat="44.72319" lon="3.85363">
        <ele>914.78674316406</ele>
        <time>2020-10-16T11:43:39.010Z</time>
      </trkpt>
      <trkpt lat="44.72305" lon="3.85358">
        <ele>915.34020996094</ele>
        <time>2020-10-16T11:43:39.023Z</time>
      </trkpt>
      <trkpt lat="44.72289" lon="3.85363">
        <ele>916.31378173828</ele>
        <time>2020-10-16T11:43:39.039Z</time>
      </trkpt>
      <trkpt lat="44.72277" lon="3.85381">
        <ele>919.29058837891</ele>
        <time>2020-10-16T11:43:39.059Z</time>
      </trkpt>
      <trkpt lat="44.72271" lon="3.8542">
        <ele>922.84338378906</ele>
        <time>2020-10-16T11:43:39.084Z</time>
      </trkpt>
      <trkpt lat="44.72272" lon="3.85497">
        <ele>926.18157958984</ele>
        <time>2020-10-16T11:43:39.120Z</time>
      </trkpt>
      <trkpt lat="44.72278" lon="3.85529">
        <ele>926.26745605469</ele>
        <time>2020-10-16T11:43:39.161Z</time>
      </trkpt>
      <trkpt lat="44.72316" lon="3.85575">
        <ele>923.79595947266</ele>
        <time>2020-10-16T11:43:39.212Z</time>
      </trkpt>
      <trkpt lat="44.72331" lon="3.85622">
        <ele>925.23443603516</ele>
        <time>2020-10-16T11:43:39.270Z</time>
      </trkpt>
      <trkpt lat="44.72306" lon="3.85627">
        <ele>927.7421875</ele>
        <time>2020-10-16T11:43:39.334Z</time>
      </trkpt>
      <trkpt lat="44.72301" lon="3.85628">
        <ele>927.78076171875</ele>
        <time>2020-10-16T11:43:39.399Z</time>
      </trkpt>
      <trkpt lat="44.72249" lon="3.85564">
        <ele>930.59356689453</ele>
        <time>2020-10-16T11:43:39.477Z</time>
      </trkpt>
      <trkpt lat="44.72223" lon="3.8555">
        <ele>933.24670410156</ele>
        <time>2020-10-16T11:43:39.561Z</time>
      </trkpt>
      <trkpt lat="44.72202" lon="3.8555">
        <ele>935.41021728516</ele>
        <time>2020-10-16T11:43:39.649Z</time>
      </trkpt>
      <trkpt lat="44.72198" lon="3.85547">
        <ele>935.48333740234</ele>
        <time>2020-10-16T11:43:39.738Z</time>
      </trkpt>
      <trkpt lat="44.72199" lon="3.85545">
        <ele>935.43359375</ele>
        <time>2020-10-16T11:43:39.827Z</time>
      </trkpt>
      <trkpt lat="44.72193" lon="3.8554">
        <ele>935.60504150391</ele>
        <time>2020-10-16T11:43:39.918Z</time>
      </trkpt>
      <trkpt lat="44.72182" lon="3.85526">
        <ele>935.82427978516</ele>
        <time>2020-10-16T11:43:40.012Z</time>
      </trkpt>
      <trkpt lat="44.72164" lon="3.85508">
        <ele>935.91522216797</ele>
        <time>2020-10-16T11:43:40.110Z</time>
      </trkpt>
      <trkpt lat="44.72152" lon="3.85498">
        <ele>935.98229980469</ele>
        <time>2020-10-16T11:43:40.211Z</time>
      </trkpt>
      <trkpt lat="44.72131" lon="3.85482">
        <ele>936.16052246094</ele>
        <time>2020-10-16T11:43:40.317Z</time>
      </trkpt>
      <trkpt lat="44.72122" lon="3.85466">
        <ele>935.90100097656</ele>
        <time>2020-10-16T11:43:40.426Z</time>
      </trkpt>
      <trkpt lat="44.72109" lon="3.85445">
        <ele>934.9306640625</ele>
        <time>2020-10-16T11:43:40.539Z</time>
      </trkpt>
      <trkpt lat="44.72097" lon="3.85427">
        <ele>934.13439941406</ele>
        <time>2020-10-16T11:43:40.655Z</time>
      </trkpt>
      <trkpt lat="44.72081" lon="3.85408">
        <ele>933.28936767578</ele>
        <time>2020-10-16T11:43:40.775Z</time>
      </trkpt>
      <trkpt lat="44.7207" lon="3.854">
        <ele>932.84057617188</ele>
        <time>2020-10-16T11:43:40.898Z</time>
      </trkpt>
      <trkpt lat="44.72054" lon="3.85391">
        <ele>932.23413085938</ele>
        <time>2020-10-16T11:43:41.024Z</time>
      </trkpt>
      <trkpt lat="44.7203" lon="3.85374">
        <ele>931.92236328125</ele>
        <time>2020-10-16T11:43:41.156Z</time>
      </trkpt>
      <trkpt lat="44.72007" lon="3.85364">
        <ele>933.36431884766</ele>
        <time>2020-10-16T11:43:41.292Z</time>
      </trkpt>
      <trkpt lat="44.71988" lon="3.85355">
        <ele>934.53216552734</ele>
        <time>2020-10-16T11:43:41.432Z</time>
      </trkpt>
      <trkpt lat="44.71978" lon="3.85354">
        <ele>935.31146240234</ele>
        <time>2020-10-16T11:43:41.575Z</time>
      </trkpt>
      <trkpt lat="44.71961" lon="3.85353">
        <ele>936.53479003906</ele>
        <time>2020-10-16T11:43:41.721Z</time>
      </trkpt>
      <trkpt lat="44.71943" lon="3.85351">
        <ele>937.84967041016</ele>
        <time>2020-10-16T11:43:41.871Z</time>
      </trkpt>
      <trkpt lat="44.71926" lon="3.85352">
        <ele>939.23968505859</ele>
        <time>2020-10-16T11:43:42.024Z</time>
      </trkpt>
      <trkpt lat="44.71903" lon="3.85353">
        <ele>941.23486328125</ele>
        <time>2020-10-16T11:43:42.182Z</time>
      </trkpt>
      <trkpt lat="44.71895" lon="3.85349">
        <ele>941.87286376953</ele>
        <time>2020-10-16T11:43:42.341Z</time>
      </trkpt>
      <trkpt lat="44.71884" lon="3.85338">
        <ele>942.60809326172</ele>
        <time>2020-10-16T11:43:42.503Z</time>
      </trkpt>
      <trkpt lat="44.71868" lon="3.8532">
        <ele>943.75677490234</ele>
        <time>2020-10-16T11:43:42.669Z</time>
      </trkpt>
      <trkpt lat="44.71854" lon="3.85312">
        <ele>945.02374267578</ele>
        <time>2020-10-16T11:43:42.838Z</time>
      </trkpt>
      <trkpt lat="44.71842" lon="3.85311">
        <ele>946.18115234375</ele>
        <time>2020-10-16T11:43:43.009Z</time>
      </trkpt>
      <trkpt lat="44.7182" lon="3.85314">
        <ele>948.11016845703</ele>
        <time>2020-10-16T11:43:43.185Z</time>
      </trkpt>
      <trkpt lat="44.71807" lon="3.85312">
        <ele>949.0556640625</ele>
        <time>2020-10-16T11:43:43.363Z</time>
      </trkpt>
      <trkpt lat="44.71793" lon="3.85311">
        <ele>950.09851074219</ele>
        <time>2020-10-16T11:43:43.544Z</time>
      </trkpt>
      <trkpt lat="44.71778" lon="3.85307">
        <ele>951.25317382812</ele>
        <time>2020-10-16T11:43:43.728Z</time>
      </trkpt>
      <trkpt lat="44.71763" lon="3.85305">
        <ele>952.35333251953</ele>
        <time>2020-10-16T11:43:43.915Z</time>
      </trkpt>
      <trkpt lat="44.71747" lon="3.85304">
        <ele>953.53656005859</ele>
        <time>2020-10-16T11:43:44.106Z</time>
      </trkpt>
      <trkpt lat="44.71725" lon="3.85305">
        <ele>955.34210205078</ele>
        <time>2020-10-16T11:43:44.301Z</time>
      </trkpt>
      <trkpt lat="44.71719" lon="3.85307">
        <ele>955.95861816406</ele>
        <time>2020-10-16T11:43:44.497Z</time>
      </trkpt>
      <trkpt lat="44.71707" lon="3.8531">
        <ele>957.13732910156</ele>
        <time>2020-10-16T11:43:44.696Z</time>
      </trkpt>
      <trkpt lat="44.71685" lon="3.8532">
        <ele>959.84692382812</ele>
        <time>2020-10-16T11:43:44.899Z</time>
      </trkpt>
      <trkpt lat="44.71641" lon="3.85348">
        <ele>964.07641601562</ele>
        <time>2020-10-16T11:43:45.112Z</time>
      </trkpt>
      <trkpt lat="44.71625" lon="3.85357">
        <ele>965.486328125</ele>
        <time>2020-10-16T11:43:45.328Z</time>
      </trkpt>
      <trkpt lat="44.7161" lon="3.85361">
        <ele>966.65472412109</ele>
        <time>2020-10-16T11:43:45.547Z</time>
      </trkpt>
      <trkpt lat="44.71597" lon="3.85363">
        <ele>967.52099609375</ele>
        <time>2020-10-16T11:43:45.769Z</time>
      </trkpt>
      <trkpt lat="44.71589" lon="3.85362">
        <ele>968.07958984375</ele>
        <time>2020-10-16T11:43:45.993Z</time>
      </trkpt>
      <trkpt lat="44.71559" lon="3.85359">
        <ele>970.365234375</ele>
        <time>2020-10-16T11:43:46.223Z</time>
      </trkpt>
      <trkpt lat="44.71543" lon="3.85359">
        <ele>971.49328613281</ele>
        <time>2020-10-16T11:43:46.456Z</time>
      </trkpt>
      <trkpt lat="44.71536" lon="3.8536">
        <ele>971.87927246094</ele>
        <time>2020-10-16T11:43:46.690Z</time>
      </trkpt>
      <trkpt lat="44.71533" lon="3.8536">
        <ele>971.91027832031</ele>
        <time>2020-10-16T11:43:46.925Z</time>
      </trkpt>
      <trkpt lat="44.71514" lon="3.85364">
        <ele>971.99273681641</ele>
        <time>2020-10-16T11:43:47.164Z</time>
      </trkpt>
      <trkpt lat="44.71514" lon="3.85364">
        <ele>971.99304199219</ele>
        <time>2020-10-16T11:43:47.403Z</time>
      </trkpt>
      <trkpt lat="44.71504" lon="3.85367">
        <ele>972.00604248047</ele>
        <time>2020-10-16T11:43:47.644Z</time>
      </trkpt>
      <trkpt lat="44.71487" lon="3.85341">
        <ele>973.15881347656</ele>
        <time>2020-10-16T11:43:47.890Z</time>
      </trkpt>
      <trkpt lat="44.71474" lon="3.85323">
        <ele>973.94360351562</ele>
        <time>2020-10-16T11:43:48.139Z</time>
      </trkpt>
      <trkpt lat="44.71464" lon="3.85312">
        <ele>974.46740722656</ele>
        <time>2020-10-16T11:43:48.391Z</time>
      </trkpt>
      <trkpt lat="44.71441" lon="3.85293">
        <ele>975.89331054688</ele>
        <time>2020-10-16T11:43:48.648Z</time>
      </trkpt>
      <trkpt lat="44.71405" lon="3.85264">
        <ele>978.87628173828</ele>
        <time>2020-10-16T11:43:48.914Z</time>
      </trkpt>
      <trkpt lat="44.71361" lon="3.85226">
        <ele>982.79565429688</ele>
        <time>2020-10-16T11:43:49.190Z</time>
      </trkpt>
      <trkpt lat="44.71348" lon="3.85215">
        <ele>983.43646240234</ele>
        <time>2020-10-16T11:43:49.469Z</time>
      </trkpt>
      <trkpt lat="44.71307" lon="3.85182">
        <ele>985.4521484375</ele>
        <time>2020-10-16T11:43:49.757Z</time>
      </trkpt>
      <trkpt lat="44.71286" lon="3.85163">
        <ele>986.537109375</ele>
        <time>2020-10-16T11:43:50.050Z</time>
      </trkpt>
      <trkpt lat="44.71271" lon="3.85146">
        <ele>986.84985351562</ele>
        <time>2020-10-16T11:43:50.347Z</time>
      </trkpt>
      <trkpt lat="44.71257" lon="3.85122">
        <ele>987.59814453125</ele>
        <time>2020-10-16T11:43:50.649Z</time>
      </trkpt>
      <trkpt lat="44.71229" lon="3.85066">
        <ele>990.07537841797</ele>
        <time>2020-10-16T11:43:50.960Z</time>
      </trkpt>
      <trkpt lat="44.71212" lon="3.85036">
        <ele>991.47381591797</ele>
        <time>2020-10-16T11:43:51.277Z</time>
      </trkpt>
      <trkpt lat="44.71195" lon="3.8501">
        <ele>993.60821533203</ele>
        <time>2020-10-16T11:43:51.599Z</time>
      </trkpt>
      <trkpt lat="44.71182" lon="3.84991">
        <ele>995.99310302734</ele>
        <time>2020-10-16T11:43:51.925Z</time>
      </trkpt>
      <trkpt lat="44.71169" lon="3.84977">
        <ele>998.05084228516</ele>
        <time>2020-10-16T11:43:52.254Z</time>
      </trkpt>
      <trkpt lat="44.71157" lon="3.84967">
        <ele>999.77081298828</ele>
        <time>2020-10-16T11:43:52.586Z</time>
      </trkpt>
      <trkpt lat="44.71144" lon="3.84963">
        <ele>1001.3049926758</ele>
        <time>2020-10-16T11:43:52.920Z</time>
      </trkpt>
      <trkpt lat="44.71072" lon="3.84958">
        <ele>1007.6740722656</ele>
        <time>2020-10-16T11:43:53.269Z</time>
      </trkpt>
      <trkpt lat="44.71054" lon="3.84952">
        <ele>1009.6553955078</ele>
        <time>2020-10-16T11:43:53.622Z</time>
      </trkpt>
      <trkpt lat="44.71038" lon="3.84945">
        <ele>1011.3884277344</ele>
        <time>2020-10-16T11:43:53.978Z</time>
      </trkpt>
      <trkpt lat="44.71018" lon="3.84941">
        <ele>1012.4759521484</ele>
        <time>2020-10-16T11:43:54.338Z</time>
      </trkpt>
      <trkpt lat="44.70996" lon="3.84942">
        <ele>1013.1775512695</ele>
        <time>2020-10-16T11:43:54.702Z</time>
      </trkpt>
      <trkpt lat="44.70979" lon="3.84942">
        <ele>1013.876159668</ele>
        <time>2020-10-16T11:43:55.070Z</time>
      </trkpt>
      <trkpt lat="44.70958" lon="3.84938">
        <ele>1014.8801269531</ele>
        <time>2020-10-16T11:43:55.442Z</time>
      </trkpt>
      <trkpt lat="44.70928" lon="3.84931">
        <ele>1015.935546875</ele>
        <time>2020-10-16T11:43:55.820Z</time>
      </trkpt>
      <trkpt lat="44.7091" lon="3.84925">
        <ele>1016.5719604492</ele>
        <time>2020-10-16T11:43:56.202Z</time>
      </trkpt>
      <trkpt lat="44.70884" lon="3.84913">
        <ele>1017.5048828125</ele>
        <time>2020-10-16T11:43:56.589Z</time>
      </trkpt>
      <trkpt lat="44.70836" lon="3.84887">
        <ele>1019.2211303711</ele>
        <time>2020-10-16T11:43:56.987Z</time>
      </trkpt>
      <trkpt lat="44.70806" lon="3.84872">
        <ele>1020.323059082</ele>
        <time>2020-10-16T11:43:57.391Z</time>
      </trkpt>
      <trkpt lat="44.70793" lon="3.84866">
        <ele>1020.7415161133</ele>
        <time>2020-10-16T11:43:57.798Z</time>
      </trkpt>
      <trkpt lat="44.70783" lon="3.84858">
        <ele>1020.8765258789</ele>
        <time>2020-10-16T11:43:58.207Z</time>
      </trkpt>
      <trkpt lat="44.70778" lon="3.84851">
        <ele>1021.1684570312</ele>
        <time>2020-10-16T11:43:58.617Z</time>
      </trkpt>
      <trkpt lat="44.70771" lon="3.84846">
        <ele>1021.4108886719</ele>
        <time>2020-10-16T11:43:59.029Z</time>
      </trkpt>
      <trkpt lat="44.70758" lon="3.84842">
        <ele>1021.4662475586</ele>
        <time>2020-10-16T11:43:59.444Z</time>
      </trkpt>
      <trkpt lat="44.70703" lon="3.84823">
        <ele>1021.7304077148</ele>
        <time>2020-10-16T11:43:59.870Z</time>
      </trkpt>
      <trkpt lat="44.70683" lon="3.84811">
        <ele>1022.2338256836</ele>
        <time>2020-10-16T11:44:00.300Z</time>
      </trkpt>
      <trkpt lat="44.70646" lon="3.84788">
        <ele>1023.3257446289</ele>
        <time>2020-10-16T11:44:00.738Z</time>
      </trkpt>
      <trkpt lat="44.70616" lon="3.8477">
        <ele>1023.9762573242</ele>
        <time>2020-10-16T11:44:01.183Z</time>
      </trkpt>
      <trkpt lat="44.70567" lon="3.84746">
        <ele>1023.6926879883</ele>
        <time>2020-10-16T11:44:01.638Z</time>
      </trkpt>
      <trkpt lat="44.70548" lon="3.8474">
        <ele>1023.4531860352</ele>
        <time>2020-10-16T11:44:02.097Z</time>
      </trkpt>
      <trkpt lat="44.70534" lon="3.84739">
        <ele>1022.8668212891</ele>
        <time>2020-10-16T11:44:02.559Z</time>
      </trkpt>
      <trkpt lat="44.70508" lon="3.84742">
        <ele>1019.9776000977</ele>
        <time>2020-10-16T11:44:03.026Z</time>
      </trkpt>
      <trkpt lat="44.70489" lon="3.84745">
        <ele>1019.7651367188</ele>
        <time>2020-10-16T11:44:03.497Z</time>
      </trkpt>
      <trkpt lat="44.70467" lon="3.8475">
        <ele>1019.829284668</ele>
        <time>2020-10-16T11:44:03.972Z</time>
      </trkpt>
      <trkpt lat="44.70438" lon="3.84759">
        <ele>1019.3362426758</ele>
        <time>2020-10-16T11:44:04.453Z</time>
      </trkpt>
      <trkpt lat="44.70424" lon="3.84764">
        <ele>1019.2125244141</ele>
        <time>2020-10-16T11:44:04.937Z</time>
      </trkpt>
      <trkpt lat="44.70407" lon="3.84768">
        <ele>1018.9418334961</ele>
        <time>2020-10-16T11:44:05.425Z</time>
      </trkpt>
      <trkpt lat="44.7039" lon="3.84771">
        <ele>1018.5821533203</ele>
        <time>2020-10-16T11:44:05.916Z</time>
      </trkpt>
      <trkpt lat="44.70345" lon="3.84775">
        <ele>1017.9729614258</ele>
        <time>2020-10-16T11:44:06.416Z</time>
      </trkpt>
      <trkpt lat="44.70289" lon="3.84779">
        <ele>1018.0180053711</ele>
        <time>2020-10-16T11:44:06.927Z</time>
      </trkpt>
      <trkpt lat="44.70262" lon="3.84784">
        <ele>1019.6409301758</ele>
        <time>2020-10-16T11:44:07.444Z</time>
      </trkpt>
      <trkpt lat="44.70234" lon="3.84788">
        <ele>1021.3457641602</ele>
        <time>2020-10-16T11:44:07.967Z</time>
      </trkpt>
      <trkpt lat="44.7019" lon="3.84794">
        <ele>1023.0939941406</ele>
        <time>2020-10-16T11:44:08.498Z</time>
      </trkpt>
      <trkpt lat="44.70146" lon="3.84797">
        <ele>1022.6087036133</ele>
        <time>2020-10-16T11:44:09.038Z</time>
      </trkpt>
      <trkpt lat="44.70131" lon="3.84796">
        <ele>1022.259765625</ele>
        <time>2020-10-16T11:44:09.581Z</time>
      </trkpt>
      <trkpt lat="44.70022" lon="3.84768">
        <ele>1019.6616210938</ele>
        <time>2020-10-16T11:44:10.146Z</time>
      </trkpt>
      <trkpt lat="44.70003" lon="3.84766">
        <ele>1019.5396118164</ele>
        <time>2020-10-16T11:44:10.715Z</time>
      </trkpt>
      <trkpt lat="44.69961" lon="3.84764">
        <ele>1019.4225463867</ele>
        <time>2020-10-16T11:44:11.293Z</time>
      </trkpt>
      <trkpt lat="44.69875" lon="3.84761">
        <ele>1024.26953125</ele>
        <time>2020-10-16T11:44:11.888Z</time>
      </trkpt>
      <trkpt lat="44.69878" lon="3.84747">
        <ele>1023.5989990234</ele>
        <time>2020-10-16T11:44:12.485Z</time>
      </trkpt>
      <trkpt lat="44.69879" lon="3.84732">
        <ele>1023.0002441406</ele>
        <time>2020-10-16T11:44:13.084Z</time>
      </trkpt>
      <trkpt lat="44.69879" lon="3.84709">
        <ele>1022.16015625</ele>
        <time>2020-10-16T11:44:13.686Z</time>
      </trkpt>
      <trkpt lat="44.69878" lon="3.84677">
        <ele>1020.6262817383</ele>
        <time>2020-10-16T11:44:14.293Z</time>
      </trkpt>
      <trkpt lat="44.69876" lon="3.8465">
        <ele>1019.6038818359</ele>
        <time>2020-10-16T11:44:14.904Z</time>
      </trkpt>
      <trkpt lat="44.69871" lon="3.84625">
        <ele>1018.8473510742</ele>
        <time>2020-10-16T11:44:15.518Z</time>
      </trkpt>
      <trkpt lat="44.69866" lon="3.84607">
        <ele>1018.8659057617</ele>
        <time>2020-10-16T11:44:16.135Z</time>
      </trkpt>
      <trkpt lat="44.69862" lon="3.84586">
        <ele>1019.0927734375</ele>
        <time>2020-10-16T11:44:16.755Z</time>
      </trkpt>
      <trkpt lat="44.69866" lon="3.84564">
        <ele>1018.5950927734</ele>
        <time>2020-10-16T11:44:17.378Z</time>
      </trkpt>
      <trkpt lat="44.69882" lon="3.8452">
        <ele>1016.2982788086</ele>
        <time>2020-10-16T11:44:18.008Z</time>
      </trkpt>
      <trkpt lat="44.69891" lon="3.84497">
        <ele>1016.5848999023</ele>
        <time>2020-10-16T11:44:18.642Z</time>
      </trkpt>
      <trkpt lat="44.69894" lon="3.84485">
        <ele>1016.977355957</ele>
        <time>2020-10-16T11:44:19.278Z</time>
      </trkpt>
      <trkpt lat="44.69896" lon="3.84472">
        <ele>1017.6040649414</ele>
        <time>2020-10-16T11:44:19.916Z</time>
      </trkpt>
      <trkpt lat="44.699" lon="3.84446">
        <ele>1019.153503418</ele>
        <time>2020-10-16T11:44:20.558Z</time>
      </trkpt>
      <trkpt lat="44.69902" lon="3.84436">
        <ele>1019.5204467773</ele>
        <time>2020-10-16T11:44:21.201Z</time>
      </trkpt>
      <trkpt lat="44.6991" lon="3.84416">
        <ele>1019.3466186523</ele>
        <time>2020-10-16T11:44:21.848Z</time>
      </trkpt>
      <trkpt lat="44.69918" lon="3.84397">
        <ele>1019.1341552734</ele>
        <time>2020-10-16T11:44:22.498Z</time>
      </trkpt>
      <trkpt lat="44.69927" lon="3.84378">
        <ele>1019.151550293</ele>
        <time>2020-10-16T11:44:23.151Z</time>
      </trkpt>
      <trkpt lat="44.69934" lon="3.84359">
        <ele>1019.3822021484</ele>
        <time>2020-10-16T11:44:23.807Z</time>
      </trkpt>
      <trkpt lat="44.69939" lon="3.84332">
        <ele>1018.8707275391</ele>
        <time>2020-10-16T11:44:24.467Z</time>
      </trkpt>
      <trkpt lat="44.69945" lon="3.84309">
        <ele>1019.3161621094</ele>
        <time>2020-10-16T11:44:25.130Z</time>
      </trkpt>
      <trkpt lat="44.69945" lon="3.84293">
        <ele>1019.8560791016</ele>
        <time>2020-10-16T11:44:25.796Z</time>
      </trkpt>
      <trkpt lat="44.69942" lon="3.84275">
        <ele>1020.7135620117</ele>
        <time>2020-10-16T11:44:26.464Z</time>
      </trkpt>
      <trkpt lat="44.69938" lon="3.84251">
        <ele>1020.0584716797</ele>
        <time>2020-10-16T11:44:27.136Z</time>
      </trkpt>
      <trkpt lat="44.69936" lon="3.84234">
        <ele>1019.7116699219</ele>
        <time>2020-10-16T11:44:27.810Z</time>
      </trkpt>
      <trkpt lat="44.69936" lon="3.84217">
        <ele>1019.2970581055</ele>
        <time>2020-10-16T11:44:28.487Z</time>
      </trkpt>
      <trkpt lat="44.69938" lon="3.84201">
        <ele>1018.823425293</ele>
        <time>2020-10-16T11:44:29.166Z</time>
      </trkpt>
      <trkpt lat="44.69943" lon="3.84185">
        <ele>1017.8571777344</ele>
        <time>2020-10-16T11:44:29.848Z</time>
      </trkpt>
      <trkpt lat="44.69951" lon="3.84171">
        <ele>1016.7939453125</ele>
        <time>2020-10-16T11:44:30.532Z</time>
      </trkpt>
      <trkpt lat="44.69956" lon="3.84163">
        <ele>1016.2537231445</ele>
        <time>2020-10-16T11:44:31.218Z</time>
      </trkpt>
      <trkpt lat="44.69964" lon="3.84156">
        <ele>1015.346862793</ele>
        <time>2020-10-16T11:44:31.906Z</time>
      </trkpt>
      <trkpt lat="44.69962" lon="3.84137">
        <ele>1014.4071655273</ele>
        <time>2020-10-16T11:44:32.596Z</time>
      </trkpt>
      <trkpt lat="44.69956" lon="3.84124">
        <ele>1013.9206542969</ele>
        <time>2020-10-16T11:44:33.288Z</time>
      </trkpt>
      <trkpt lat="44.69947" lon="3.84107">
        <ele>1012.8631591797</ele>
        <time>2020-10-16T11:44:33.983Z</time>
      </trkpt>
      <trkpt lat="44.69939" lon="3.8409">
        <ele>1010.8395385742</ele>
        <time>2020-10-16T11:44:34.681Z</time>
      </trkpt>
      <trkpt lat="44.69928" lon="3.84073">
        <ele>1008.9356689453</ele>
        <time>2020-10-16T11:44:35.383Z</time>
      </trkpt>
      <trkpt lat="44.6992" lon="3.84069">
        <ele>1008.0407714844</ele>
        <time>2020-10-16T11:44:36.086Z</time>
      </trkpt>
      <trkpt lat="44.69901" lon="3.84065">
        <ele>1006.7416381836</ele>
        <time>2020-10-16T11:44:36.793Z</time>
      </trkpt>
      <trkpt lat="44.69888" lon="3.84065">
        <ele>1006.2151489258</ele>
        <time>2020-10-16T11:44:37.503Z</time>
      </trkpt>
      <trkpt lat="44.69876" lon="3.84064">
        <ele>1005.688659668</ele>
        <time>2020-10-16T11:44:38.215Z</time>
      </trkpt>
      <trkpt lat="44.69858" lon="3.84055">
        <ele>1004.9650268555</ele>
        <time>2020-10-16T11:44:38.931Z</time>
      </trkpt>
      <trkpt lat="44.69843" lon="3.84043">
        <ele>1004.1567993164</ele>
        <time>2020-10-16T11:44:39.650Z</time>
      </trkpt>
      <trkpt lat="44.69832" lon="3.84025">
        <ele>1002.6838378906</ele>
        <time>2020-10-16T11:44:40.373Z</time>
      </trkpt>
      <trkpt lat="44.69822" lon="3.84008">
        <ele>1000.8703613281</ele>
        <time>2020-10-16T11:44:41.099Z</time>
      </trkpt>
      <trkpt lat="44.69808" lon="3.83994">
        <ele>999.52502441406</ele>
        <time>2020-10-16T11:44:41.828Z</time>
      </trkpt>
      <trkpt lat="44.69796" lon="3.83976">
        <ele>997.57653808594</ele>
        <time>2020-10-16T11:44:42.561Z</time>
      </trkpt>
      <trkpt lat="44.69794" lon="3.83973">
        <ele>997.19702148438</ele>
        <time>2020-10-16T11:44:43.295Z</time>
      </trkpt>
      <trkpt lat="44.69791" lon="3.83971">
        <ele>997.01257324219</ele>
        <time>2020-10-16T11:44:44.029Z</time>
      </trkpt>
      <trkpt lat="44.69788" lon="3.83968">
        <ele>996.81597900391</ele>
        <time>2020-10-16T11:44:44.764Z</time>
      </trkpt>
      <trkpt lat="44.69772" lon="3.8396">
        <ele>994.72857666016</ele>
        <time>2020-10-16T11:44:45.502Z</time>
      </trkpt>
      <trkpt lat="44.69756" lon="3.83955">
        <ele>992.93377685547</ele>
        <time>2020-10-16T11:44:46.244Z</time>
      </trkpt>
      <trkpt lat="44.69737" lon="3.83947">
        <ele>990.46411132812</ele>
        <time>2020-10-16T11:44:46.990Z</time>
      </trkpt>
      <trkpt lat="44.69724" lon="3.83943">
        <ele>988.97564697266</ele>
        <time>2020-10-16T11:44:47.738Z</time>
      </trkpt>
      <trkpt lat="44.69714" lon="3.83939">
        <ele>987.71807861328</ele>
        <time>2020-10-16T11:44:48.488Z</time>
      </trkpt>
      <trkpt lat="44.69702" lon="3.83935">
        <ele>986.40850830078</ele>
        <time>2020-10-16T11:44:49.241Z</time>
      </trkpt>
      <trkpt lat="44.69702" lon="3.83935">
        <ele>986.30133056641</ele>
        <time>2020-10-16T11:44:49.994Z</time>
      </trkpt>
      <trkpt lat="44.69685" lon="3.83931">
        <ele>983.99719238281</ele>
        <time>2020-10-16T11:44:50.750Z</time>
      </trkpt>
      <trkpt lat="44.69676" lon="3.83929">
        <ele>982.73431396484</ele>
        <time>2020-10-16T11:44:51.508Z</time>
      </trkpt>
      <trkpt lat="44.69658" lon="3.83931">
        <ele>980.77496337891</ele>
        <time>2020-10-16T11:44:52.270Z</time>
      </trkpt>
      <trkpt lat="44.6964" lon="3.83937">
        <ele>979.13946533203</ele>
        <time>2020-10-16T11:44:53.035Z</time>
      </trkpt>
      <trkpt lat="44.69626" lon="3.83938">
        <ele>977.55505371094</ele>
        <time>2020-10-16T11:44:53.803Z</time>
      </trkpt>
      <trkpt lat="44.69625" lon="3.83938">
        <ele>977.50946044922</ele>
        <time>2020-10-16T11:44:54.571Z</time>
      </trkpt>
      <trkpt lat="44.69623" lon="3.83929">
        <ele>976.42364501953</ele>
        <time>2020-10-16T11:44:55.341Z</time>
      </trkpt>
      <trkpt lat="44.69626" lon="3.83913">
        <ele>975.17388916016</ele>
        <time>2020-10-16T11:44:56.113Z</time>
      </trkpt>
      <trkpt lat="44.69635" lon="3.83893">
        <ele>974.30828857422</ele>
        <time>2020-10-16T11:44:56.888Z</time>
      </trkpt>
      <trkpt lat="44.69657" lon="3.83857">
        <ele>972.80029296875</ele>
        <time>2020-10-16T11:44:57.670Z</time>
      </trkpt>
      <trkpt lat="44.6967" lon="3.8384">
        <ele>973.40704345703</ele>
        <time>2020-10-16T11:44:58.456Z</time>
      </trkpt>
      <trkpt lat="44.69685" lon="3.83829">
        <ele>973.83807373047</ele>
        <time>2020-10-16T11:44:59.245Z</time>
      </trkpt>
      <trkpt lat="44.69703" lon="3.8382">
        <ele>972.66735839844</ele>
        <time>2020-10-16T11:45:00.038Z</time>
      </trkpt>
      <trkpt lat="44.69708" lon="3.83817">
        <ele>972.54345703125</ele>
        <time>2020-10-16T11:45:00.832Z</time>
      </trkpt>
      <trkpt lat="44.69716" lon="3.8381">
        <ele>972.0234375</ele>
        <time>2020-10-16T11:45:01.628Z</time>
      </trkpt>
      <trkpt lat="44.69718" lon="3.8381">
        <ele>972.00952148438</ele>
        <time>2020-10-16T11:45:02.424Z</time>
      </trkpt>
      <trkpt lat="44.69719" lon="3.83792">
        <ele>969.89666748047</ele>
        <time>2020-10-16T11:45:03.223Z</time>
      </trkpt>
      <trkpt lat="44.69713" lon="3.83783">
        <ele>968.66607666016</ele>
        <time>2020-10-16T11:45:04.024Z</time>
      </trkpt>
      <trkpt lat="44.69699" lon="3.83771">
        <ele>967.17120361328</ele>
        <time>2020-10-16T11:45:04.828Z</time>
      </trkpt>
      <trkpt lat="44.69688" lon="3.8377">
        <ele>967.20654296875</ele>
        <time>2020-10-16T11:45:05.634Z</time>
      </trkpt>
      <trkpt lat="44.69677" lon="3.8377">
        <ele>967.24194335938</ele>
        <time>2020-10-16T11:45:06.442Z</time>
      </trkpt>
      <trkpt lat="44.69669" lon="3.83769">
        <ele>967.31121826172</ele>
        <time>2020-10-16T11:45:07.252Z</time>
      </trkpt>
      <trkpt lat="44.69661" lon="3.83756">
        <ele>968.59173583984</ele>
        <time>2020-10-16T11:45:08.064Z</time>
      </trkpt>
      <trkpt lat="44.69655" lon="3.83742">
        <ele>969.94635009766</ele>
        <time>2020-10-16T11:45:08.879Z</time>
      </trkpt>
      <trkpt lat="44.6965" lon="3.83726">
        <ele>971.49243164062</ele>
        <time>2020-10-16T11:45:09.696Z</time>
      </trkpt>
      <trkpt lat="44.69657" lon="3.83701">
        <ele>970.26879882812</ele>
        <time>2020-10-16T11:45:10.517Z</time>
      </trkpt>
      <trkpt lat="44.69671" lon="3.83684">
        <ele>967.24719238281</ele>
        <time>2020-10-16T11:45:11.342Z</time>
      </trkpt>
      <trkpt lat="44.69682" lon="3.83669">
        <ele>964.65795898438</ele>
        <time>2020-10-16T11:45:12.170Z</time>
      </trkpt>
      <trkpt lat="44.69685" lon="3.83652">
        <ele>962.54565429688</ele>
        <time>2020-10-16T11:45:13.000Z</time>
      </trkpt>
      <trkpt lat="44.6968" lon="3.83642">
        <ele>962.41790771484</ele>
        <time>2020-10-16T11:45:13.832Z</time>
      </trkpt>
      <trkpt lat="44.69664" lon="3.83636">
        <ele>964.54095458984</ele>
        <time>2020-10-16T11:45:14.667Z</time>
      </trkpt>
      <trkpt lat="44.69646" lon="3.83618">
        <ele>965.86993408203</ele>
        <time>2020-10-16T11:45:15.507Z</time>
      </trkpt>
      <trkpt lat="44.6963" lon="3.83598">
        <ele>966.63098144531</ele>
        <time>2020-10-16T11:45:16.351Z</time>
      </trkpt>
      <trkpt lat="44.69624" lon="3.83582">
        <ele>966.33782958984</ele>
        <time>2020-10-16T11:45:17.197Z</time>
      </trkpt>
      <trkpt lat="44.69618" lon="3.83567">
        <ele>966.06823730469</ele>
        <time>2020-10-16T11:45:18.046Z</time>
      </trkpt>
      <trkpt lat="44.69609" lon="3.83538">
        <ele>965.24078369141</ele>
        <time>2020-10-16T11:45:18.899Z</time>
      </trkpt>
      <trkpt lat="44.69601" lon="3.8351">
        <ele>965.28594970703</ele>
        <time>2020-10-16T11:45:19.757Z</time>
      </trkpt>
      <trkpt lat="44.69592" lon="3.83482">
        <ele>966.33508300781</ele>
        <time>2020-10-16T11:45:20.619Z</time>
      </trkpt>
      <trkpt lat="44.69584" lon="3.83454">
        <ele>967.30090332031</ele>
        <time>2020-10-16T11:45:21.486Z</time>
      </trkpt>
      <trkpt lat="44.69588" lon="3.83442">
        <ele>966.3037109375</ele>
        <time>2020-10-16T11:45:22.354Z</time>
      </trkpt>
      <trkpt lat="44.69591" lon="3.83442">
        <ele>965.57348632812</ele>
        <time>2020-10-16T11:45:23.223Z</time>
      </trkpt>
      <trkpt lat="44.69601" lon="3.83439">
        <ele>963.55737304688</ele>
        <time>2020-10-16T11:45:24.094Z</time>
      </trkpt>
      <trkpt lat="44.6963" lon="3.83431">
        <ele>960.33123779297</ele>
        <time>2020-10-16T11:45:24.971Z</time>
      </trkpt>
      <trkpt lat="44.69651" lon="3.83426">
        <ele>960.88323974609</ele>
        <time>2020-10-16T11:45:25.852Z</time>
      </trkpt>
      <trkpt lat="44.69666" lon="3.83427">
        <ele>961.23980712891</ele>
        <time>2020-10-16T11:45:26.736Z</time>
      </trkpt>
      <trkpt lat="44.69693" lon="3.83432">
        <ele>961.83221435547</ele>
        <time>2020-10-16T11:45:27.626Z</time>
      </trkpt>
      <trkpt lat="44.69711" lon="3.83433">
        <ele>964.45568847656</ele>
        <time>2020-10-16T11:45:28.519Z</time>
      </trkpt>
      <trkpt lat="44.6972" lon="3.83434">
        <ele>965.97711181641</ele>
        <time>2020-10-16T11:45:29.414Z</time>
      </trkpt>
      <trkpt lat="44.69728" lon="3.83436">
        <ele>966.93414306641</ele>
        <time>2020-10-16T11:45:30.311Z</time>
      </trkpt>
      <trkpt lat="44.69734" lon="3.8344">
        <ele>967.47503662109</ele>
        <time>2020-10-16T11:45:31.209Z</time>
      </trkpt>
      <trkpt lat="44.69761" lon="3.83461">
        <ele>969.47766113281</ele>
        <time>2020-10-16T11:45:32.113Z</time>
      </trkpt>
      <trkpt lat="44.69768" lon="3.83465">
        <ele>970.19976806641</ele>
        <time>2020-10-16T11:45:33.019Z</time>
      </trkpt>
      <trkpt lat="44.69772" lon="3.83465">
        <ele>970.87854003906</ele>
        <time>2020-10-16T11:45:33.926Z</time>
      </trkpt>
      <trkpt lat="44.69783" lon="3.83477">
        <ele>971.33508300781</ele>
        <time>2020-10-16T11:45:34.835Z</time>
      </trkpt>
      <trkpt lat="44.6979" lon="3.83486">
        <ele>971.01171875</ele>
        <time>2020-10-16T11:45:35.746Z</time>
      </trkpt>
      <trkpt lat="44.69797" lon="3.83491">
        <ele>970.96569824219</ele>
        <time>2020-10-16T11:45:36.659Z</time>
      </trkpt>
      <trkpt lat="44.69807" lon="3.83489">
        <ele>971.92950439453</ele>
        <time>2020-10-16T11:45:37.574Z</time>
      </trkpt>
      <trkpt lat="44.69822" lon="3.8348">
        <ele>974.17144775391</ele>
        <time>2020-10-16T11:45:38.492Z</time>
      </trkpt>
      <trkpt lat="44.69837" lon="3.83469">
        <ele>978.12890625</ele>
        <time>2020-10-16T11:45:39.414Z</time>
      </trkpt>
      <trkpt lat="44.6985" lon="3.83458">
        <ele>982.09283447266</ele>
        <time>2020-10-16T11:45:40.338Z</time>
      </trkpt>
      <trkpt lat="44.69864" lon="3.83449">
        <ele>986.162109375</ele>
        <time>2020-10-16T11:45:41.266Z</time>
      </trkpt>
      <trkpt lat="44.69873" lon="3.83444">
        <ele>987.84808349609</ele>
        <time>2020-10-16T11:45:42.196Z</time>
      </trkpt>
      <trkpt lat="44.69883" lon="3.83438">
        <ele>988.64056396484</ele>
        <time>2020-10-16T11:45:43.128Z</time>
      </trkpt>
      <trkpt lat="44.69892" lon="3.83429">
        <ele>989.84204101562</ele>
        <time>2020-10-16T11:45:44.062Z</time>
      </trkpt>
      <trkpt lat="44.69893" lon="3.83428">
        <ele>990.07019042969</ele>
        <time>2020-10-16T11:45:44.996Z</time>
      </trkpt>
      <trkpt lat="44.69906" lon="3.83409">
        <ele>992.74114990234</ele>
        <time>2020-10-16T11:45:45.934Z</time>
      </trkpt>
      <trkpt lat="44.69921" lon="3.83383">
        <ele>995.71069335938</ele>
        <time>2020-10-16T11:45:46.877Z</time>
      </trkpt>
      <trkpt lat="44.69926" lon="3.83369">
        <ele>997.13293457031</ele>
        <time>2020-10-16T11:45:47.822Z</time>
      </trkpt>
      <trkpt lat="44.69935" lon="3.83352">
        <ele>998.52532958984</ele>
        <time>2020-10-16T11:45:48.770Z</time>
      </trkpt>
      <trkpt lat="44.69945" lon="3.83346">
        <ele>998.05377197266</ele>
        <time>2020-10-16T11:45:49.720Z</time>
      </trkpt>
      <trkpt lat="44.69966" lon="3.8334">
        <ele>996.86193847656</ele>
        <time>2020-10-16T11:45:50.674Z</time>
      </trkpt>
      <trkpt lat="44.69993" lon="3.83333">
        <ele>995.25219726562</ele>
        <time>2020-10-16T11:45:51.634Z</time>
      </trkpt>
      <trkpt lat="44.70017" lon="3.83326">
        <ele>994.33367919922</ele>
        <time>2020-10-16T11:45:52.599Z</time>
      </trkpt>
      <trkpt lat="44.70029" lon="3.83319">
        <ele>994.67730712891</ele>
        <time>2020-10-16T11:45:53.566Z</time>
      </trkpt>
      <trkpt lat="44.7005" lon="3.83309">
        <ele>994.86047363281</ele>
        <time>2020-10-16T11:45:54.538Z</time>
      </trkpt>
      <trkpt lat="44.70076" lon="3.83294">
        <ele>995.865234375</ele>
        <time>2020-10-16T11:45:55.516Z</time>
      </trkpt>
      <trkpt lat="44.70095" lon="3.83282">
        <ele>997.58355712891</ele>
        <time>2020-10-16T11:45:56.498Z</time>
      </trkpt>
      <trkpt lat="44.70112" lon="3.83259">
        <ele>1000.7637939453</ele>
        <time>2020-10-16T11:45:57.484Z</time>
      </trkpt>
      <trkpt lat="44.70126" lon="3.8324">
        <ele>1003.6387329102</ele>
        <time>2020-10-16T11:45:58.474Z</time>
      </trkpt>
      <trkpt lat="44.7014" lon="3.83216">
        <ele>1006.4020996094</ele>
        <time>2020-10-16T11:45:59.469Z</time>
      </trkpt>
      <trkpt lat="44.70154" lon="3.83193">
        <ele>1007.8292236328</ele>
        <time>2020-10-16T11:46:00.468Z</time>
      </trkpt>
      <trkpt lat="44.70163" lon="3.83185">
        <ele>1007.7384643555</ele>
        <time>2020-10-16T11:46:01.469Z</time>
      </trkpt>
      <trkpt lat="44.70183" lon="3.8318">
        <ele>1006.0998535156</ele>
        <time>2020-10-16T11:46:02.474Z</time>
      </trkpt>
      <trkpt lat="44.70198" lon="3.83174">
        <ele>1004.7368774414</ele>
        <time>2020-10-16T11:46:03.482Z</time>
      </trkpt>
      <trkpt lat="44.70203" lon="3.83169">
        <ele>1004.4455566406</ele>
        <time>2020-10-16T11:46:04.492Z</time>
      </trkpt>
      <trkpt lat="44.70202" lon="3.83156">
        <ele>1005.5904541016</ele>
        <time>2020-10-16T11:46:05.504Z</time>
      </trkpt>
      <trkpt lat="44.70194" lon="3.83144">
        <ele>1007.5053100586</ele>
        <time>2020-10-16T11:46:06.518Z</time>
      </trkpt>
      <trkpt lat="44.70178" lon="3.83136">
        <ele>1010.1963500977</ele>
        <time>2020-10-16T11:46:07.535Z</time>
      </trkpt>
      <trkpt lat="44.70162" lon="3.83125">
        <ele>1012.9832763672</ele>
        <time>2020-10-16T11:46:08.556Z</time>
      </trkpt>
      <trkpt lat="44.70149" lon="3.83121">
        <ele>1015.1119995117</ele>
        <time>2020-10-16T11:46:09.580Z</time>
      </trkpt>
      <trkpt lat="44.70126" lon="3.8312">
        <ele>1017.9916992188</ele>
        <time>2020-10-16T11:46:10.608Z</time>
      </trkpt>
      <trkpt lat="44.701" lon="3.83117">
        <ele>1019.387512207</ele>
        <time>2020-10-16T11:46:11.641Z</time>
      </trkpt>
      <trkpt lat="44.70069" lon="3.83112">
        <ele>1020.5892944336</ele>
        <time>2020-10-16T11:46:12.681Z</time>
      </trkpt>
      <trkpt lat="44.70043" lon="3.83105">
        <ele>1021.9474487305</ele>
        <time>2020-10-16T11:46:13.726Z</time>
      </trkpt>
      <trkpt lat="44.70014" lon="3.83093">
        <ele>1024.6181640625</ele>
        <time>2020-10-16T11:46:14.777Z</time>
      </trkpt>
      <trkpt lat="44.69995" lon="3.83084">
        <ele>1026.5554199219</ele>
        <time>2020-10-16T11:46:15.832Z</time>
      </trkpt>
      <trkpt lat="44.69954" lon="3.83071">
        <ele>1029.6640625</ele>
        <time>2020-10-16T11:46:16.895Z</time>
      </trkpt>
      <trkpt lat="44.69918" lon="3.83058">
        <ele>1029.9356689453</ele>
        <time>2020-10-16T11:46:17.966Z</time>
      </trkpt>
      <trkpt lat="44.69873" lon="3.83042">
        <ele>1031.4146728516</ele>
        <time>2020-10-16T11:46:19.046Z</time>
      </trkpt>
      <trkpt lat="44.69843" lon="3.83029">
        <ele>1034.4022216797</ele>
        <time>2020-10-16T11:46:20.132Z</time>
      </trkpt>
      <trkpt lat="44.6979" lon="3.83006">
        <ele>1038.6384277344</ele>
        <time>2020-10-16T11:46:21.230Z</time>
      </trkpt>
      <trkpt lat="44.69775" lon="3.82996">
        <ele>1039.2491455078</ele>
        <time>2020-10-16T11:46:22.331Z</time>
      </trkpt>
      <trkpt lat="44.69754" lon="3.82976">
        <ele>1040.2177734375</ele>
        <time>2020-10-16T11:46:23.437Z</time>
      </trkpt>
      <trkpt lat="44.69725" lon="3.82943">
        <ele>1041.8253173828</ele>
        <time>2020-10-16T11:46:24.550Z</time>
      </trkpt>
      <trkpt lat="44.69717" lon="3.82931">
        <ele>1042.1959228516</ele>
        <time>2020-10-16T11:46:25.666Z</time>
      </trkpt>
      <trkpt lat="44.69711" lon="3.82917">
        <ele>1042.5163574219</ele>
        <time>2020-10-16T11:46:26.784Z</time>
      </trkpt>
      <trkpt lat="44.69705" lon="3.82905">
        <ele>1042.8106689453</ele>
        <time>2020-10-16T11:46:27.904Z</time>
      </trkpt>
      <trkpt lat="44.69693" lon="3.82887">
        <ele>1042.4053955078</ele>
        <time>2020-10-16T11:46:29.028Z</time>
      </trkpt>
      <trkpt lat="44.6969" lon="3.82877">
        <ele>1042.3831787109</ele>
        <time>2020-10-16T11:46:30.153Z</time>
      </trkpt>
      <trkpt lat="44.6969" lon="3.82867">
        <ele>1042.5555419922</ele>
        <time>2020-10-16T11:46:31.280Z</time>
      </trkpt>
      <trkpt lat="44.6969" lon="3.82824">
        <ele>1044.0629882812</ele>
        <time>2020-10-16T11:46:32.413Z</time>
      </trkpt>
      <trkpt lat="44.6969" lon="3.82817">
        <ele>1044.1319580078</ele>
        <time>2020-10-16T11:46:33.547Z</time>
      </trkpt>
      <trkpt lat="44.69688" lon="3.82813">
        <ele>1044.1461181641</ele>
        <time>2020-10-16T11:46:34.681Z</time>
      </trkpt>
      <trkpt lat="44.69683" lon="3.82802">
        <ele>1044.1550292969</ele>
        <time>2020-10-16T11:46:35.817Z</time>
      </trkpt>
      <trkpt lat="44.69671" lon="3.82784">
        <ele>1044.08203125</ele>
        <time>2020-10-16T11:46:36.957Z</time>
      </trkpt>
      <trkpt lat="44.69653" lon="3.82765">
        <ele>1043.888671875</ele>
        <time>2020-10-16T11:46:38.101Z</time>
      </trkpt>
      <trkpt lat="44.69641" lon="3.82754">
        <ele>1043.734375</ele>
        <time>2020-10-16T11:46:39.248Z</time>
      </trkpt>
      <trkpt lat="44.69628" lon="3.82744">
        <ele>1043.5324707031</ele>
        <time>2020-10-16T11:46:40.398Z</time>
      </trkpt>
      <trkpt lat="44.69611" lon="3.82734">
        <ele>1042.7419433594</ele>
        <time>2020-10-16T11:46:41.552Z</time>
      </trkpt>
      <trkpt lat="44.69603" lon="3.82731">
        <ele>1042.0480957031</ele>
        <time>2020-10-16T11:46:42.708Z</time>
      </trkpt>
      <trkpt lat="44.69601" lon="3.8273">
        <ele>1041.9112548828</ele>
        <time>2020-10-16T11:46:43.864Z</time>
      </trkpt>
      <trkpt lat="44.69592" lon="3.82728">
        <ele>1041.1533203125</ele>
        <time>2020-10-16T11:46:45.022Z</time>
      </trkpt>
      <trkpt lat="44.69585" lon="3.82726">
        <ele>1040.5828857422</ele>
        <time>2020-10-16T11:46:46.181Z</time>
      </trkpt>
      <trkpt lat="44.69585" lon="3.82717">
        <ele>1040.7288818359</ele>
        <time>2020-10-16T11:46:47.342Z</time>
      </trkpt>
      <trkpt lat="44.6959" lon="3.82668">
        <ele>1043.6877441406</ele>
        <time>2020-10-16T11:46:48.510Z</time>
      </trkpt>
      <trkpt lat="44.69592" lon="3.8264">
        <ele>1046.1593017578</ele>
        <time>2020-10-16T11:46:49.682Z</time>
      </trkpt>
      <trkpt lat="44.69592" lon="3.8263">
        <ele>1046.8703613281</ele>
        <time>2020-10-16T11:46:50.855Z</time>
      </trkpt>
      <trkpt lat="44.69591" lon="3.82615">
        <ele>1047.9499511719</ele>
        <time>2020-10-16T11:46:52.030Z</time>
      </trkpt>
      <trkpt lat="44.69589" lon="3.82588">
        <ele>1049.9281005859</ele>
        <time>2020-10-16T11:46:53.209Z</time>
      </trkpt>
      <trkpt lat="44.69588" lon="3.82581">
        <ele>1050.4768066406</ele>
        <time>2020-10-16T11:46:54.389Z</time>
      </trkpt>
      <trkpt lat="44.69584" lon="3.82568">
        <ele>1051.3983154297</ele>
        <time>2020-10-16T11:46:55.571Z</time>
      </trkpt>
      <trkpt lat="44.6958" lon="3.82569">
        <ele>1051.1533203125</ele>
        <time>2020-10-16T11:46:56.754Z</time>
      </trkpt>
      <trkpt lat="44.69577" lon="3.82569">
        <ele>1050.9720458984</ele>
        <time>2020-10-16T11:46:57.938Z</time>
      </trkpt>
      <trkpt lat="44.69573" lon="3.82569">
        <ele>1050.8170166016</ele>
        <time>2020-10-16T11:46:59.122Z</time>
      </trkpt>
      <trkpt lat="44.69569" lon="3.82568">
        <ele>1050.7214355469</ele>
        <time>2020-10-16T11:47:00.307Z</time>
      </trkpt>
      <trkpt lat="44.69565" lon="3.82566">
        <ele>1050.6667480469</ele>
        <time>2020-10-16T11:47:01.493Z</time>
      </trkpt>
      <trkpt lat="44.69561" lon="3.82564">
        <ele>1050.6403808594</ele>
        <time>2020-10-16T11:47:02.680Z</time>
      </trkpt>
      <trkpt lat="44.69557" lon="3.82562">
        <ele>1050.6333007812</ele>
        <time>2020-10-16T11:47:03.868Z</time>
      </trkpt>
      <trkpt lat="44.69554" lon="3.8256">
        <ele>1050.6329345703</ele>
        <time>2020-10-16T11:47:05.056Z</time>
      </trkpt>
      <trkpt lat="44.6955" lon="3.82558">
        <ele>1050.64453125</ele>
        <time>2020-10-16T11:47:06.245Z</time>
      </trkpt>
      <trkpt lat="44.69546" lon="3.82555">
        <ele>1050.6527099609</ele>
        <time>2020-10-16T11:47:07.435Z</time>
      </trkpt>
      <trkpt lat="44.69542" lon="3.82553">
        <ele>1050.6534423828</ele>
        <time>2020-10-16T11:47:08.626Z</time>
      </trkpt>
      <trkpt lat="44.69539" lon="3.82551">
        <ele>1050.6453857422</ele>
        <time>2020-10-16T11:47:09.818Z</time>
      </trkpt>
      <trkpt lat="44.69534" lon="3.82549">
        <ele>1050.6334228516</ele>
        <time>2020-10-16T11:47:11.011Z</time>
      </trkpt>
      <trkpt lat="44.69529" lon="3.82546">
        <ele>1050.6174316406</ele>
        <time>2020-10-16T11:47:12.205Z</time>
      </trkpt>
      <trkpt lat="44.69524" lon="3.82543">
        <ele>1050.6080322266</ele>
        <time>2020-10-16T11:47:13.400Z</time>
      </trkpt>
      <trkpt lat="44.69514" lon="3.82538">
        <ele>1050.5581054688</ele>
        <time>2020-10-16T11:47:14.597Z</time>
      </trkpt>
      <trkpt lat="44.6951" lon="3.82536">
        <ele>1050.5366210938</ele>
        <time>2020-10-16T11:47:15.795Z</time>
      </trkpt>
      <trkpt lat="44.69505" lon="3.82534">
        <ele>1050.5144042969</ele>
        <time>2020-10-16T11:47:16.994Z</time>
      </trkpt>
      <trkpt lat="44.69495" lon="3.82528">
        <ele>1050.4750976562</ele>
        <time>2020-10-16T11:47:18.195Z</time>
      </trkpt>
      <trkpt lat="44.69469" lon="3.82515">
        <ele>1049.9261474609</ele>
        <time>2020-10-16T11:47:19.402Z</time>
      </trkpt>
      <trkpt lat="44.69464" lon="3.82512">
        <ele>1049.7492675781</ele>
        <time>2020-10-16T11:47:20.610Z</time>
      </trkpt>
      <trkpt lat="44.69459" lon="3.82509">
        <ele>1049.5843505859</ele>
        <time>2020-10-16T11:47:21.819Z</time>
      </trkpt>
      <trkpt lat="44.69451" lon="3.82503">
        <ele>1049.2811279297</ele>
        <time>2020-10-16T11:47:23.029Z</time>
      </trkpt>
      <trkpt lat="44.69444" lon="3.82497">
        <ele>1048.8323974609</ele>
        <time>2020-10-16T11:47:24.241Z</time>
      </trkpt>
      <trkpt lat="44.69439" lon="3.82492">
        <ele>1048.5268554688</ele>
        <time>2020-10-16T11:47:25.454Z</time>
      </trkpt>
      <trkpt lat="44.69434" lon="3.82487">
        <ele>1048.1823730469</ele>
        <time>2020-10-16T11:47:26.669Z</time>
      </trkpt>
      <trkpt lat="44.69427" lon="3.82482">
        <ele>1047.7854003906</ele>
        <time>2020-10-16T11:47:27.885Z</time>
      </trkpt>
      <trkpt lat="44.69421" lon="3.82478">
        <ele>1047.3549804688</ele>
        <time>2020-10-16T11:47:29.103Z</time>
      </trkpt>
      <trkpt lat="44.69415" lon="3.82474">
        <ele>1046.9180908203</ele>
        <time>2020-10-16T11:47:30.322Z</time>
      </trkpt>
      <trkpt lat="44.69408" lon="3.8247">
        <ele>1046.4853515625</ele>
        <time>2020-10-16T11:47:31.542Z</time>
      </trkpt>
      <trkpt lat="44.69402" lon="3.82466">
        <ele>1046.0577392578</ele>
        <time>2020-10-16T11:47:32.764Z</time>
      </trkpt>
      <trkpt lat="44.69396" lon="3.82462">
        <ele>1045.6473388672</ele>
        <time>2020-10-16T11:47:33.987Z</time>
      </trkpt>
      <trkpt lat="44.69391" lon="3.82458">
        <ele>1045.2692871094</ele>
        <time>2020-10-16T11:47:35.211Z</time>
      </trkpt>
      <trkpt lat="44.69385" lon="3.82453">
        <ele>1044.9342041016</ele>
        <time>2020-10-16T11:47:36.437Z</time>
      </trkpt>
      <trkpt lat="44.6938" lon="3.82448">
        <ele>1044.6480712891</ele>
        <time>2020-10-16T11:47:37.664Z</time>
      </trkpt>
      <trkpt lat="44.69376" lon="3.82442">
        <ele>1044.4028320312</ele>
        <time>2020-10-16T11:47:38.892Z</time>
      </trkpt>
      <trkpt lat="44.69371" lon="3.82436">
        <ele>1044.2171630859</ele>
        <time>2020-10-16T11:47:40.121Z</time>
      </trkpt>
      <trkpt lat="44.69367" lon="3.82429">
        <ele>1044.2391357422</ele>
        <time>2020-10-16T11:47:41.351Z</time>
      </trkpt>
      <trkpt lat="44.69363" lon="3.82422">
        <ele>1044.33203125</ele>
        <time>2020-10-16T11:47:42.583Z</time>
      </trkpt>
      <trkpt lat="44.69358" lon="3.82415">
        <ele>1044.4427490234</ele>
        <time>2020-10-16T11:47:43.816Z</time>
      </trkpt>
      <trkpt lat="44.69354" lon="3.82407">
        <ele>1044.5556640625</ele>
        <time>2020-10-16T11:47:45.051Z</time>
      </trkpt>
      <trkpt lat="44.69349" lon="3.82399">
        <ele>1044.6599121094</ele>
        <time>2020-10-16T11:47:46.287Z</time>
      </trkpt>
      <trkpt lat="44.69344" lon="3.82392">
        <ele>1044.7626953125</ele>
        <time>2020-10-16T11:47:47.524Z</time>
      </trkpt>
      <trkpt lat="44.6934" lon="3.82385">
        <ele>1044.8623046875</ele>
        <time>2020-10-16T11:47:48.763Z</time>
      </trkpt>
      <trkpt lat="44.69335" lon="3.82377">
        <ele>1044.9586181641</ele>
        <time>2020-10-16T11:47:50.003Z</time>
      </trkpt>
      <trkpt lat="44.69331" lon="3.8237">
        <ele>1045.0550537109</ele>
        <time>2020-10-16T11:47:51.245Z</time>
      </trkpt>
      <trkpt lat="44.69326" lon="3.82363">
        <ele>1045.1550292969</ele>
        <time>2020-10-16T11:47:52.488Z</time>
      </trkpt>
      <trkpt lat="44.69322" lon="3.82356">
        <ele>1045.2681884766</ele>
        <time>2020-10-16T11:47:53.732Z</time>
      </trkpt>
      <trkpt lat="44.69318" lon="3.82348">
        <ele>1045.2088623047</ele>
        <time>2020-10-16T11:47:54.978Z</time>
      </trkpt>
      <trkpt lat="44.69313" lon="3.82341">
        <ele>1045.1420898438</ele>
        <time>2020-10-16T11:47:56.225Z</time>
      </trkpt>
      <trkpt lat="44.6931" lon="3.82333">
        <ele>1045.0944824219</ele>
        <time>2020-10-16T11:47:57.473Z</time>
      </trkpt>
      <trkpt lat="44.69305" lon="3.82325">
        <ele>1045.0372314453</ele>
        <time>2020-10-16T11:47:58.723Z</time>
      </trkpt>
      <trkpt lat="44.69301" lon="3.82317">
        <ele>1044.9993896484</ele>
        <time>2020-10-16T11:47:59.974Z</time>
      </trkpt>
      <trkpt lat="44.69294" lon="3.823">
        <ele>1044.9138183594</ele>
        <time>2020-10-16T11:48:01.228Z</time>
      </trkpt>
      <trkpt lat="44.6929" lon="3.82292">
        <ele>1044.8701171875</ele>
        <time>2020-10-16T11:48:02.483Z</time>
      </trkpt>
      <trkpt lat="44.69286" lon="3.82284">
        <ele>1044.9528808594</ele>
        <time>2020-10-16T11:48:03.740Z</time>
      </trkpt>
      <trkpt lat="44.69281" lon="3.82277">
        <ele>1045.4918212891</ele>
        <time>2020-10-16T11:48:04.998Z</time>
      </trkpt>
      <trkpt lat="44.69276" lon="3.8227">
        <ele>1046.1805419922</ele>
        <time>2020-10-16T11:48:06.258Z</time>
      </trkpt>
      <trkpt lat="44.6927" lon="3.82264">
        <ele>1047.1060791016</ele>
        <time>2020-10-16T11:48:07.519Z</time>
      </trkpt>
      <trkpt lat="44.69263" lon="3.8226">
        <ele>1047.9731445312</ele>
        <time>2020-10-16T11:48:08.782Z</time>
      </trkpt>
      <trkpt lat="44.69257" lon="3.82257">
        <ele>1048.7691650391</ele>
        <time>2020-10-16T11:48:10.046Z</time>
      </trkpt>
      <trkpt lat="44.6925" lon="3.82255">
        <ele>1049.5203857422</ele>
        <time>2020-10-16T11:48:11.311Z</time>
      </trkpt>
      <trkpt lat="44.69243" lon="3.82254">
        <ele>1050.2495117188</ele>
        <time>2020-10-16T11:48:12.578Z</time>
      </trkpt>
      <trkpt lat="44.69236" lon="3.82254">
        <ele>1050.9495849609</ele>
        <time>2020-10-16T11:48:13.846Z</time>
      </trkpt>
      <trkpt lat="44.69229" lon="3.82254">
        <ele>1051.6186523438</ele>
        <time>2020-10-16T11:48:15.116Z</time>
      </trkpt>
      <trkpt lat="44.69222" lon="3.82254">
        <ele>1052.2731933594</ele>
        <time>2020-10-16T11:48:16.387Z</time>
      </trkpt>
      <trkpt lat="44.69215" lon="3.82254">
        <ele>1052.9575195312</ele>
        <time>2020-10-16T11:48:17.659Z</time>
      </trkpt>
      <trkpt lat="44.69213" lon="3.82254">
        <ele>1053.1519775391</ele>
        <time>2020-10-16T11:48:18.932Z</time>
      </trkpt>
      <trkpt lat="44.69208" lon="3.82254">
        <ele>1053.6414794922</ele>
        <time>2020-10-16T11:48:20.206Z</time>
      </trkpt>
      <trkpt lat="44.69201" lon="3.82253">
        <ele>1054.0495605469</ele>
        <time>2020-10-16T11:48:21.481Z</time>
      </trkpt>
      <trkpt lat="44.69194" lon="3.82253">
        <ele>1053.8349609375</ele>
        <time>2020-10-16T11:48:22.758Z</time>
      </trkpt>
      <trkpt lat="44.69187" lon="3.82252">
        <ele>1053.6262207031</ele>
        <time>2020-10-16T11:48:24.036Z</time>
      </trkpt>
      <trkpt lat="44.6918" lon="3.82251">
        <ele>1053.4567871094</ele>
        <time>2020-10-16T11:48:25.315Z</time>
      </trkpt>
      <trkpt lat="44.69173" lon="3.8225">
        <ele>1053.3293457031</ele>
        <time>2020-10-16T11:48:26.596Z</time>
      </trkpt>
      <trkpt lat="44.69165" lon="3.82249">
        <ele>1053.2038574219</ele>
        <time>2020-10-16T11:48:27.878Z</time>
      </trkpt>
      <trkpt lat="44.6915" lon="3.82247">
        <ele>1052.9488525391</ele>
        <time>2020-10-16T11:48:29.163Z</time>
      </trkpt>
      <trkpt lat="44.69135" lon="3.82244">
        <ele>1052.7005615234</ele>
        <time>2020-10-16T11:48:30.451Z</time>
      </trkpt>
      <trkpt lat="44.69128" lon="3.82243">
        <ele>1052.5888671875</ele>
        <time>2020-10-16T11:48:31.741Z</time>
      </trkpt>
      <trkpt lat="44.69121" lon="3.82241">
        <ele>1052.5164794922</ele>
        <time>2020-10-16T11:48:33.032Z</time>
      </trkpt>
      <trkpt lat="44.69111" lon="3.82238">
        <ele>1052.3272705078</ele>
        <time>2020-10-16T11:48:34.325Z</time>
      </trkpt>
      <trkpt lat="44.69103" lon="3.82236">
        <ele>1052.1352539062</ele>
        <time>2020-10-16T11:48:35.620Z</time>
      </trkpt>
      <trkpt lat="44.69094" lon="3.82236">
        <ele>1051.8146972656</ele>
        <time>2020-10-16T11:48:36.917Z</time>
      </trkpt>
      <trkpt lat="44.69087" lon="3.82239">
        <ele>1051.4273681641</ele>
        <time>2020-10-16T11:48:38.215Z</time>
      </trkpt>
      <trkpt lat="44.69079" lon="3.82243">
        <ele>1051.4879150391</ele>
        <time>2020-10-16T11:48:39.515Z</time>
      </trkpt>
      <trkpt lat="44.69072" lon="3.82251">
        <ele>1051.5765380859</ele>
        <time>2020-10-16T11:48:40.817Z</time>
      </trkpt>
      <trkpt lat="44.69065" lon="3.82258">
        <ele>1051.6558837891</ele>
        <time>2020-10-16T11:48:42.120Z</time>
      </trkpt>
      <trkpt lat="44.69057" lon="3.8227">
        <ele>1051.7513427734</ele>
        <time>2020-10-16T11:48:43.426Z</time>
      </trkpt>
      <trkpt lat="44.6905" lon="3.8228">
        <ele>1051.1975097656</ele>
        <time>2020-10-16T11:48:44.734Z</time>
      </trkpt>
      <trkpt lat="44.69043" lon="3.8229">
        <ele>1051.5379638672</ele>
        <time>2020-10-16T11:48:46.044Z</time>
      </trkpt>
      <trkpt lat="44.69029" lon="3.82311">
        <ele>1053.9763183594</ele>
        <time>2020-10-16T11:48:47.358Z</time>
      </trkpt>
      <trkpt lat="44.69023" lon="3.82321">
        <ele>1055.4129638672</ele>
        <time>2020-10-16T11:48:48.674Z</time>
      </trkpt>
      <trkpt lat="44.69016" lon="3.82332">
        <ele>1056.80859375</ele>
        <time>2020-10-16T11:48:49.992Z</time>
      </trkpt>
      <trkpt lat="44.6901" lon="3.82342">
        <ele>1058.4990234375</ele>
        <time>2020-10-16T11:48:51.312Z</time>
      </trkpt>
      <trkpt lat="44.69004" lon="3.82352">
        <ele>1060.2651367188</ele>
        <time>2020-10-16T11:48:52.634Z</time>
      </trkpt>
      <trkpt lat="44.68998" lon="3.82361">
        <ele>1061.6268310547</ele>
        <time>2020-10-16T11:48:53.957Z</time>
      </trkpt>
      <trkpt lat="44.68991" lon="3.82371">
        <ele>1062.7136230469</ele>
        <time>2020-10-16T11:48:55.282Z</time>
      </trkpt>
      <trkpt lat="44.68985" lon="3.82381">
        <ele>1063.7921142578</ele>
        <time>2020-10-16T11:48:56.609Z</time>
      </trkpt>
      <trkpt lat="44.6896" lon="3.82418">
        <ele>1069.4571533203</ele>
        <time>2020-10-16T11:48:57.943Z</time>
      </trkpt>
      <trkpt lat="44.6894" lon="3.82452">
        <ele>1071.7843017578</ele>
        <time>2020-10-16T11:48:59.284Z</time>
      </trkpt>
      <trkpt lat="44.68922" lon="3.82479">
        <ele>1072.51953125</ele>
        <time>2020-10-16T11:49:00.630Z</time>
      </trkpt>
      <trkpt lat="44.68911" lon="3.82495">
        <ele>1072.4805908203</ele>
        <time>2020-10-16T11:49:01.979Z</time>
      </trkpt>
      <trkpt lat="44.68887" lon="3.82518">
        <ele>1072.2915039062</ele>
        <time>2020-10-16T11:49:03.334Z</time>
      </trkpt>
      <trkpt lat="44.68857" lon="3.82541">
        <ele>1071.3419189453</ele>
        <time>2020-10-16T11:49:04.696Z</time>
      </trkpt>
      <trkpt lat="44.68841" lon="3.82556">
        <ele>1070.0861816406</ele>
        <time>2020-10-16T11:49:06.062Z</time>
      </trkpt>
      <trkpt lat="44.68819" lon="3.8257">
        <ele>1068.6721191406</ele>
        <time>2020-10-16T11:49:07.433Z</time>
      </trkpt>
      <trkpt lat="44.68798" lon="3.82581">
        <ele>1067.0894775391</ele>
        <time>2020-10-16T11:49:08.808Z</time>
      </trkpt>
      <trkpt lat="44.68766" lon="3.82596">
        <ele>1065.6505126953</ele>
        <time>2020-10-16T11:49:10.190Z</time>
      </trkpt>
      <trkpt lat="44.68733" lon="3.82612">
        <ele>1064.0998535156</ele>
        <time>2020-10-16T11:49:11.579Z</time>
      </trkpt>
      <trkpt lat="44.68705" lon="3.82622">
        <ele>1062.8660888672</ele>
        <time>2020-10-16T11:49:12.974Z</time>
      </trkpt>
      <trkpt lat="44.68679" lon="3.82633">
        <ele>1060.8404541016</ele>
        <time>2020-10-16T11:49:14.374Z</time>
      </trkpt>
      <trkpt lat="44.6866" lon="3.8264">
        <ele>1059.3638916016</ele>
        <time>2020-10-16T11:49:15.778Z</time>
      </trkpt>
      <trkpt lat="44.68654" lon="3.82638">
        <ele>1059.4957275391</ele>
        <time>2020-10-16T11:49:17.183Z</time>
      </trkpt>
      <trkpt lat="44.68649" lon="3.82638">
        <ele>1059.5314941406</ele>
        <time>2020-10-16T11:49:18.589Z</time>
      </trkpt>
      <trkpt lat="44.68643" lon="3.82637">
        <ele>1059.5948486328</ele>
        <time>2020-10-16T11:49:19.996Z</time>
      </trkpt>
      <trkpt lat="44.68637" lon="3.82637">
        <ele>1059.5902099609</ele>
        <time>2020-10-16T11:49:21.405Z</time>
      </trkpt>
      <trkpt lat="44.68625" lon="3.82637">
        <ele>1059.5441894531</ele>
        <time>2020-10-16T11:49:22.816Z</time>
      </trkpt>
      <trkpt lat="44.6862" lon="3.82637">
        <ele>1059.5727539062</ele>
        <time>2020-10-16T11:49:24.228Z</time>
      </trkpt>
      <trkpt lat="44.68615" lon="3.82637">
        <ele>1059.4593505859</ele>
        <time>2020-10-16T11:49:25.641Z</time>
      </trkpt>
      <trkpt lat="44.68605" lon="3.82636">
        <ele>1059.3723144531</ele>
        <time>2020-10-16T11:49:27.056Z</time>
      </trkpt>
      <trkpt lat="44.68593" lon="3.82634">
        <ele>1059.2481689453</ele>
        <time>2020-10-16T11:49:28.473Z</time>
      </trkpt>
      <trkpt lat="44.68581" lon="3.82632">
        <ele>1059.1702880859</ele>
        <time>2020-10-16T11:49:29.893Z</time>
      </trkpt>
      <trkpt lat="44.68575" lon="3.82631">
        <ele>1059.12109375</ele>
        <time>2020-10-16T11:49:31.314Z</time>
      </trkpt>
      <trkpt lat="44.68568" lon="3.8263">
        <ele>1059.0942382812</ele>
        <time>2020-10-16T11:49:32.736Z</time>
      </trkpt>
      <trkpt lat="44.68563" lon="3.82629">
        <ele>1059.0850830078</ele>
        <time>2020-10-16T11:49:34.159Z</time>
      </trkpt>
      <trkpt lat="44.68557" lon="3.82628">
        <ele>1059.0593261719</ele>
        <time>2020-10-16T11:49:35.584Z</time>
      </trkpt>
      <trkpt lat="44.68552" lon="3.82627">
        <ele>1059.021484375</ele>
        <time>2020-10-16T11:49:37.010Z</time>
      </trkpt>
      <trkpt lat="44.68547" lon="3.82626">
        <ele>1058.9287109375</ele>
        <time>2020-10-16T11:49:38.437Z</time>
      </trkpt>
      <trkpt lat="44.68541" lon="3.82626">
        <ele>1058.6787109375</ele>
        <time>2020-10-16T11:49:39.865Z</time>
      </trkpt>
      <trkpt lat="44.68536" lon="3.82609">
        <ele>1060.5336914062</ele>
        <time>2020-10-16T11:49:41.296Z</time>
      </trkpt>
      <trkpt lat="44.68529" lon="3.82589">
        <ele>1062.2453613281</ele>
        <time>2020-10-16T11:49:42.730Z</time>
      </trkpt>
      <trkpt lat="44.68526" lon="3.82582">
        <ele>1062.7398681641</ele>
        <time>2020-10-16T11:49:44.165Z</time>
      </trkpt>
      <trkpt lat="44.68524" lon="3.8258">
        <ele>1062.8121337891</ele>
        <time>2020-10-16T11:49:45.600Z</time>
      </trkpt>
      <trkpt lat="44.68522" lon="3.8257">
        <ele>1063.8223876953</ele>
        <time>2020-10-16T11:49:47.037Z</time>
      </trkpt>
      <trkpt lat="44.68524" lon="3.82554">
        <ele>1065.6505126953</ele>
        <time>2020-10-16T11:49:48.476Z</time>
      </trkpt>
      <trkpt lat="44.6852" lon="3.82542">
        <ele>1066.7048339844</ele>
        <time>2020-10-16T11:49:49.917Z</time>
      </trkpt>
      <trkpt lat="44.68513" lon="3.8253">
        <ele>1067.4743652344</ele>
        <time>2020-10-16T11:49:51.360Z</time>
      </trkpt>
      <trkpt lat="44.68502" lon="3.82518">
        <ele>1068.4014892578</ele>
        <time>2020-10-16T11:49:52.806Z</time>
      </trkpt>
      <trkpt lat="44.68486" lon="3.82508">
        <ele>1069.5341796875</ele>
        <time>2020-10-16T11:49:54.256Z</time>
      </trkpt>
      <trkpt lat="44.68465" lon="3.82497">
        <ele>1070.490234375</ele>
        <time>2020-10-16T11:49:55.710Z</time>
      </trkpt>
      <trkpt lat="44.68453" lon="3.82491">
        <ele>1071.0196533203</ele>
        <time>2020-10-16T11:49:57.167Z</time>
      </trkpt>
      <trkpt lat="44.6844" lon="3.82474">
        <ele>1074.1484375</ele>
        <time>2020-10-16T11:49:58.627Z</time>
      </trkpt>
      <trkpt lat="44.6843" lon="3.82456">
        <ele>1077.4340820312</ele>
        <time>2020-10-16T11:50:00.090Z</time>
      </trkpt>
      <trkpt lat="44.68416" lon="3.82437">
        <ele>1080.5444335938</ele>
        <time>2020-10-16T11:50:01.557Z</time>
      </trkpt>
      <trkpt lat="44.68408" lon="3.82426">
        <ele>1081.1207275391</ele>
        <time>2020-10-16T11:50:03.027Z</time>
      </trkpt>
      <trkpt lat="44.68399" lon="3.82415">
        <ele>1081.6970214844</ele>
        <time>2020-10-16T11:50:04.499Z</time>
      </trkpt>
      <trkpt lat="44.68391" lon="3.82397">
        <ele>1083.0194091797</ele>
        <time>2020-10-16T11:50:05.974Z</time>
      </trkpt>
      <trkpt lat="44.68382" lon="3.82379">
        <ele>1084.341796875</ele>
        <time>2020-10-16T11:50:07.452Z</time>
      </trkpt>
      <trkpt lat="44.68374" lon="3.82361">
        <ele>1085.6641845703</ele>
        <time>2020-10-16T11:50:08.933Z</time>
      </trkpt>
      <trkpt lat="44.68365" lon="3.82342">
        <ele>1088.5562744141</ele>
        <time>2020-10-16T11:50:10.417Z</time>
      </trkpt>
      <trkpt lat="44.68358" lon="3.82324">
        <ele>1091.9128417969</ele>
        <time>2020-10-16T11:50:11.904Z</time>
      </trkpt>
      <trkpt lat="44.68356" lon="3.82301">
        <ele>1095.9133300781</ele>
        <time>2020-10-16T11:50:13.395Z</time>
      </trkpt>
      <trkpt lat="44.68354" lon="3.82278">
        <ele>1099.9138183594</ele>
        <time>2020-10-16T11:50:14.889Z</time>
      </trkpt>
      <trkpt lat="44.68353" lon="3.82255">
        <ele>1103.5015869141</ele>
        <time>2020-10-16T11:50:16.386Z</time>
      </trkpt>
      <trkpt lat="44.68347" lon="3.82241">
        <ele>1105.4954833984</ele>
        <time>2020-10-16T11:50:17.886Z</time>
      </trkpt>
      <trkpt lat="44.68338" lon="3.82232">
        <ele>1107.2828369141</ele>
        <time>2020-10-16T11:50:19.388Z</time>
      </trkpt>
      <trkpt lat="44.68326" lon="3.82226">
        <ele>1109.2153320312</ele>
        <time>2020-10-16T11:50:20.892Z</time>
      </trkpt>
      <trkpt lat="44.68314" lon="3.82219">
        <ele>1110.9814453125</ele>
        <time>2020-10-16T11:50:22.399Z</time>
      </trkpt>
      <trkpt lat="44.68295" lon="3.82209">
        <ele>1113.5466308594</ele>
        <time>2020-10-16T11:50:23.910Z</time>
      </trkpt>
      <trkpt lat="44.68277" lon="3.82199">
        <ele>1115.6744384766</ele>
        <time>2020-10-16T11:50:25.425Z</time>
      </trkpt>
      <trkpt lat="44.68259" lon="3.8219">
        <ele>1117.1887207031</ele>
        <time>2020-10-16T11:50:26.944Z</time>
      </trkpt>
      <trkpt lat="44.68243" lon="3.82179">
        <ele>1118.0745849609</ele>
        <time>2020-10-16T11:50:28.466Z</time>
      </trkpt>
      <trkpt lat="44.68228" lon="3.82169">
        <ele>1118.8754882812</ele>
        <time>2020-10-16T11:50:29.991Z</time>
      </trkpt>
      <trkpt lat="44.68214" lon="3.82153">
        <ele>1119.9945068359</ele>
        <time>2020-10-16T11:50:31.520Z</time>
      </trkpt>
      <trkpt lat="44.68203" lon="3.82136">
        <ele>1121.1408691406</ele>
        <time>2020-10-16T11:50:33.052Z</time>
      </trkpt>
      <trkpt lat="44.68202" lon="3.82117">
        <ele>1122.1885986328</ele>
        <time>2020-10-16T11:50:34.587Z</time>
      </trkpt>
      <trkpt lat="44.68201" lon="3.82098">
        <ele>1123.1313476562</ele>
        <time>2020-10-16T11:50:36.125Z</time>
      </trkpt>
      <trkpt lat="44.68198" lon="3.82075">
        <ele>1124.1883544922</ele>
        <time>2020-10-16T11:50:37.666Z</time>
      </trkpt>
      <trkpt lat="44.68195" lon="3.82051">
        <ele>1125.2453613281</ele>
        <time>2020-10-16T11:50:39.211Z</time>
      </trkpt>
      <trkpt lat="44.68194" lon="3.82029">
        <ele>1126.5462646484</ele>
        <time>2020-10-16T11:50:40.759Z</time>
      </trkpt>
      <trkpt lat="44.68194" lon="3.82007">
        <ele>1127.9388427734</ele>
        <time>2020-10-16T11:50:42.310Z</time>
      </trkpt>
      <trkpt lat="44.68196" lon="3.81986">
        <ele>1128.5179443359</ele>
        <time>2020-10-16T11:50:43.864Z</time>
      </trkpt>
      <trkpt lat="44.68197" lon="3.81964">
        <ele>1129.0970458984</ele>
        <time>2020-10-16T11:50:45.421Z</time>
      </trkpt>
      <trkpt lat="44.68196" lon="3.81948">
        <ele>1129.4188232422</ele>
        <time>2020-10-16T11:50:46.980Z</time>
      </trkpt>
      <trkpt lat="44.68195" lon="3.81933">
        <ele>1130.4036865234</ele>
        <time>2020-10-16T11:50:48.542Z</time>
      </trkpt>
      <trkpt lat="44.68196" lon="3.81917">
        <ele>1132.3474121094</ele>
        <time>2020-10-16T11:50:50.106Z</time>
      </trkpt>
      <trkpt lat="44.68204" lon="3.81899">
        <ele>1134.8131103516</ele>
        <time>2020-10-16T11:50:51.673Z</time>
      </trkpt>
      <trkpt lat="44.68209" lon="3.81881">
        <ele>1137.0327148438</ele>
        <time>2020-10-16T11:50:53.243Z</time>
      </trkpt>
      <trkpt lat="44.68209" lon="3.81863">
        <ele>1139.1735839844</ele>
        <time>2020-10-16T11:50:54.815Z</time>
      </trkpt>
      <trkpt lat="44.68192" lon="3.81863">
        <ele>1138.6837158203</ele>
        <time>2020-10-16T11:50:56.391Z</time>
      </trkpt>
      <trkpt lat="44.68176" lon="3.81864">
        <ele>1138.0087890625</ele>
        <time>2020-10-16T11:50:57.970Z</time>
      </trkpt>
      <trkpt lat="44.68157" lon="3.81864">
        <ele>1137.3198242188</ele>
        <time>2020-10-16T11:50:59.553Z</time>
      </trkpt>
      <trkpt lat="44.68135" lon="3.81864">
        <ele>1136.5535888672</ele>
        <time>2020-10-16T11:51:01.140Z</time>
      </trkpt>
      <trkpt lat="44.68128" lon="3.81861">
        <ele>1136.5736083984</ele>
        <time>2020-10-16T11:51:02.728Z</time>
      </trkpt>
      <trkpt lat="44.68121" lon="3.81853">
        <ele>1137.2139892578</ele>
        <time>2020-10-16T11:51:04.318Z</time>
      </trkpt>
      <trkpt lat="44.6812" lon="3.8185">
        <ele>1137.3442382812</ele>
        <time>2020-10-16T11:51:05.909Z</time>
      </trkpt>
      <trkpt lat="44.6811" lon="3.81826">
        <ele>1138.2209472656</ele>
        <time>2020-10-16T11:51:07.504Z</time>
      </trkpt>
      <trkpt lat="44.68101" lon="3.81802">
        <ele>1139.0955810547</ele>
        <time>2020-10-16T11:51:09.103Z</time>
      </trkpt>
      <trkpt lat="44.68092" lon="3.81778">
        <ele>1139.9700927734</ele>
        <time>2020-10-16T11:51:10.705Z</time>
      </trkpt>
      <trkpt lat="44.68084" lon="3.81757">
        <ele>1140.7684326172</ele>
        <time>2020-10-16T11:51:12.311Z</time>
      </trkpt>
      <trkpt lat="44.68076" lon="3.81735">
        <ele>1141.5667724609</ele>
        <time>2020-10-16T11:51:13.920Z</time>
      </trkpt>
      <trkpt lat="44.68068" lon="3.81714">
        <ele>1142.3651123047</ele>
        <time>2020-10-16T11:51:15.533Z</time>
      </trkpt>
      <trkpt lat="44.68062" lon="3.81688">
        <ele>1143.5545654297</ele>
        <time>2020-10-16T11:51:17.149Z</time>
      </trkpt>
      <trkpt lat="44.68056" lon="3.81663">
        <ele>1143.2021484375</ele>
        <time>2020-10-16T11:51:18.769Z</time>
      </trkpt>
      <trkpt lat="44.68051" lon="3.81637">
        <ele>1142.849609375</ele>
        <time>2020-10-16T11:51:20.393Z</time>
      </trkpt>
      <trkpt lat="44.68039" lon="3.81623">
        <ele>1142.1420898438</ele>
        <time>2020-10-16T11:51:22.020Z</time>
      </trkpt>
      <trkpt lat="44.68023" lon="3.81605">
        <ele>1142.1663818359</ele>
        <time>2020-10-16T11:51:23.651Z</time>
      </trkpt>
      <trkpt lat="44.68005" lon="3.81583">
        <ele>1142.64453125</ele>
        <time>2020-10-16T11:51:25.287Z</time>
      </trkpt>
      <trkpt lat="44.67978" lon="3.81564">
        <ele>1143.1943359375</ele>
        <time>2020-10-16T11:51:26.929Z</time>
      </trkpt>
      <trkpt lat="44.67958" lon="3.81549">
        <ele>1143.6196289062</ele>
        <time>2020-10-16T11:51:28.576Z</time>
      </trkpt>
      <trkpt lat="44.67937" lon="3.81532">
        <ele>1144.2705078125</ele>
        <time>2020-10-16T11:51:30.228Z</time>
      </trkpt>
      <trkpt lat="44.67912" lon="3.81515">
        <ele>1145.4940185547</ele>
        <time>2020-10-16T11:51:31.885Z</time>
      </trkpt>
      <trkpt lat="44.67909" lon="3.81513">
        <ele>1145.7127685547</ele>
        <time>2020-10-16T11:51:33.543Z</time>
      </trkpt>
      <trkpt lat="44.67889" lon="3.81498">
        <ele>1147.2818603516</ele>
        <time>2020-10-16T11:51:35.205Z</time>
      </trkpt>
      <trkpt lat="44.67886" lon="3.81496">
        <ele>1147.4775390625</ele>
        <time>2020-10-16T11:51:36.868Z</time>
      </trkpt>
      <trkpt lat="44.67867" lon="3.81484">
        <ele>1148.7698974609</ele>
        <time>2020-10-16T11:51:38.535Z</time>
      </trkpt>
      <trkpt lat="44.67867" lon="3.81484">
        <ele>1148.7730712891</ele>
        <time>2020-10-16T11:51:40.202Z</time>
      </trkpt>
      <trkpt lat="44.67853" lon="3.81474">
        <ele>1149.8693847656</ele>
        <time>2020-10-16T11:51:41.872Z</time>
      </trkpt>
      <trkpt lat="44.6784" lon="3.81468">
        <ele>1150.6041259766</ele>
        <time>2020-10-16T11:51:43.545Z</time>
      </trkpt>
      <trkpt lat="44.67827" lon="3.81462">
        <ele>1151.3703613281</ele>
        <time>2020-10-16T11:51:45.221Z</time>
      </trkpt>
      <trkpt lat="44.67806" lon="3.81451">
        <ele>1152.6325683594</ele>
        <time>2020-10-16T11:51:46.901Z</time>
      </trkpt>
      <trkpt lat="44.67805" lon="3.81451">
        <ele>1152.6861572266</ele>
        <time>2020-10-16T11:51:48.581Z</time>
      </trkpt>
      <trkpt lat="44.67792" lon="3.8144">
        <ele>1153.7707519531</ele>
        <time>2020-10-16T11:51:50.264Z</time>
      </trkpt>
      <trkpt lat="44.67774" lon="3.81436">
        <ele>1153.8359375</ele>
        <time>2020-10-16T11:51:51.951Z</time>
      </trkpt>
      <trkpt lat="44.67756" lon="3.81429">
        <ele>1153.7683105469</ele>
        <time>2020-10-16T11:51:53.642Z</time>
      </trkpt>
      <trkpt lat="44.67728" lon="3.81419">
        <ele>1153.5576171875</ele>
        <time>2020-10-16T11:51:55.339Z</time>
      </trkpt>
      <trkpt lat="44.67696" lon="3.81406">
        <ele>1153.037109375</ele>
        <time>2020-10-16T11:51:57.042Z</time>
      </trkpt>
      <trkpt lat="44.67678" lon="3.81399">
        <ele>1152.0870361328</ele>
        <time>2020-10-16T11:51:58.749Z</time>
      </trkpt>
      <trkpt lat="44.67673" lon="3.81397">
        <ele>1151.7938232422</ele>
        <time>2020-10-16T11:52:00.457Z</time>
      </trkpt>
      <trkpt lat="44.67646" lon="3.81382">
        <ele>1150.6547851562</ele>
        <time>2020-10-16T11:52:02.171Z</time>
      </trkpt>
      <trkpt lat="44.67622" lon="3.81361">
        <ele>1149.9525146484</ele>
        <time>2020-10-16T11:52:03.891Z</time>
      </trkpt>
      <trkpt lat="44.67595" lon="3.81339">
        <ele>1149.6186523438</ele>
        <time>2020-10-16T11:52:05.617Z</time>
      </trkpt>
      <trkpt lat="44.67567" lon="3.81322">
        <ele>1149.1982421875</ele>
        <time>2020-10-16T11:52:07.349Z</time>
      </trkpt>
      <trkpt lat="44.67535" lon="3.81308">
        <ele>1148.8450927734</ele>
        <time>2020-10-16T11:52:09.088Z</time>
      </trkpt>
      <trkpt lat="44.67501" lon="3.81293">
        <ele>1147.63671875</ele>
        <time>2020-10-16T11:52:10.834Z</time>
      </trkpt>
      <trkpt lat="44.67468" lon="3.81277">
        <ele>1146.4743652344</ele>
        <time>2020-10-16T11:52:12.587Z</time>
      </trkpt>
      <trkpt lat="44.67454" lon="3.8127">
        <ele>1146.0447998047</ele>
        <time>2020-10-16T11:52:14.343Z</time>
      </trkpt>
      <trkpt lat="44.67438" lon="3.81256">
        <ele>1146.5593261719</ele>
        <time>2020-10-16T11:52:16.103Z</time>
      </trkpt>
      <trkpt lat="44.67425" lon="3.81239">
        <ele>1147.0709228516</ele>
        <time>2020-10-16T11:52:17.866Z</time>
      </trkpt>
      <trkpt lat="44.67417" lon="3.81221">
        <ele>1147.4603271484</ele>
        <time>2020-10-16T11:52:19.632Z</time>
      </trkpt>
      <trkpt lat="44.67414" lon="3.81188">
        <ele>1147.9578857422</ele>
        <time>2020-10-16T11:52:21.403Z</time>
      </trkpt>
      <trkpt lat="44.67411" lon="3.81162">
        <ele>1148.9725341797</ele>
        <time>2020-10-16T11:52:23.178Z</time>
      </trkpt>
      <trkpt lat="44.67403" lon="3.81134">
        <ele>1150.1047363281</ele>
        <time>2020-10-16T11:52:24.957Z</time>
      </trkpt>
      <trkpt lat="44.67393" lon="3.8111">
        <ele>1151.0270996094</ele>
        <time>2020-10-16T11:52:26.740Z</time>
      </trkpt>
      <trkpt lat="44.67379" lon="3.81086">
        <ele>1152.8254394531</ele>
        <time>2020-10-16T11:52:28.527Z</time>
      </trkpt>
      <trkpt lat="44.67365" lon="3.81062">
        <ele>1155.0391845703</ele>
        <time>2020-10-16T11:52:30.319Z</time>
      </trkpt>
      <trkpt lat="44.67361" lon="3.81052">
        <ele>1156.0720214844</ele>
        <time>2020-10-16T11:52:32.112Z</time>
      </trkpt>
      <trkpt lat="44.67339" lon="3.81047">
        <ele>1158.4844970703</ele>
        <time>2020-10-16T11:52:33.910Z</time>
      </trkpt>
      <trkpt lat="44.67319" lon="3.81051">
        <ele>1160.1154785156</ele>
        <time>2020-10-16T11:52:35.712Z</time>
      </trkpt>
      <trkpt lat="44.67298" lon="3.81056">
        <ele>1161.0485839844</ele>
        <time>2020-10-16T11:52:37.518Z</time>
      </trkpt>
      <trkpt lat="44.67281" lon="3.81054">
        <ele>1162.2894287109</ele>
        <time>2020-10-16T11:52:39.328Z</time>
      </trkpt>
      <trkpt lat="44.67259" lon="3.81043">
        <ele>1164.6416015625</ele>
        <time>2020-10-16T11:52:41.142Z</time>
      </trkpt>
      <trkpt lat="44.67247" lon="3.81039">
        <ele>1165.7678222656</ele>
        <time>2020-10-16T11:52:42.959Z</time>
      </trkpt>
      <trkpt lat="44.6723" lon="3.81043">
        <ele>1166.4106445312</ele>
        <time>2020-10-16T11:52:44.779Z</time>
      </trkpt>
      <trkpt lat="44.67219" lon="3.81045">
        <ele>1166.7021484375</ele>
        <time>2020-10-16T11:52:46.601Z</time>
      </trkpt>
      <trkpt lat="44.67205" lon="3.81052">
        <ele>1166.6319580078</ele>
        <time>2020-10-16T11:52:48.426Z</time>
      </trkpt>
      <trkpt lat="44.67196" lon="3.81054">
        <ele>1166.2717285156</ele>
        <time>2020-10-16T11:52:50.253Z</time>
      </trkpt>
      <trkpt lat="44.67189" lon="3.81045">
        <ele>1167.0090332031</ele>
        <time>2020-10-16T11:52:52.082Z</time>
      </trkpt>
      <trkpt lat="44.67178" lon="3.81038">
        <ele>1167.3625488281</ele>
        <time>2020-10-16T11:52:53.913Z</time>
      </trkpt>
      <trkpt lat="44.67162" lon="3.81027">
        <ele>1167.9482421875</ele>
        <time>2020-10-16T11:52:55.748Z</time>
      </trkpt>
      <trkpt lat="44.67146" lon="3.81018">
        <ele>1168.1522216797</ele>
        <time>2020-10-16T11:52:57.586Z</time>
      </trkpt>
      <trkpt lat="44.67122" lon="3.81009">
        <ele>1167.8433837891</ele>
        <time>2020-10-16T11:52:59.429Z</time>
      </trkpt>
      <trkpt lat="44.67098" lon="3.81005">
        <ele>1168.0809326172</ele>
        <time>2020-10-16T11:53:01.277Z</time>
      </trkpt>
      <trkpt lat="44.67074" lon="3.81004">
        <ele>1168.4069824219</ele>
        <time>2020-10-16T11:53:03.130Z</time>
      </trkpt>
      <trkpt lat="44.67054" lon="3.81002">
        <ele>1168.7407226562</ele>
        <time>2020-10-16T11:53:04.987Z</time>
      </trkpt>
      <trkpt lat="44.67034" lon="3.81">
        <ele>1169.1307373047</ele>
        <time>2020-10-16T11:53:06.848Z</time>
      </trkpt>
      <trkpt lat="44.67013" lon="3.80996">
        <ele>1170.3640136719</ele>
        <time>2020-10-16T11:53:08.713Z</time>
      </trkpt>
      <trkpt lat="44.66989" lon="3.80985">
        <ele>1171.4350585938</ele>
        <time>2020-10-16T11:53:10.583Z</time>
      </trkpt>
      <trkpt lat="44.66969" lon="3.80975">
        <ele>1172.2700195312</ele>
        <time>2020-10-16T11:53:12.458Z</time>
      </trkpt>
      <trkpt lat="44.66948" lon="3.80966">
        <ele>1173.2862548828</ele>
        <time>2020-10-16T11:53:14.337Z</time>
      </trkpt>
      <trkpt lat="44.66926" lon="3.8095">
        <ele>1176.0393066406</ele>
        <time>2020-10-16T11:53:16.221Z</time>
      </trkpt>
      <trkpt lat="44.66917" lon="3.80947">
        <ele>1176.7542724609</ele>
        <time>2020-10-16T11:53:18.107Z</time>
      </trkpt>
      <trkpt lat="44.66897" lon="3.80944">
        <ele>1178.1313476562</ele>
        <time>2020-10-16T11:53:19.997Z</time>
      </trkpt>
      <trkpt lat="44.66875" lon="3.80945">
        <ele>1179.0080566406</ele>
        <time>2020-10-16T11:53:21.891Z</time>
      </trkpt>
      <trkpt lat="44.66858" lon="3.80955">
        <ele>1179.4543457031</ele>
        <time>2020-10-16T11:53:23.789Z</time>
      </trkpt>
      <trkpt lat="44.6684" lon="3.80966">
        <ele>1180.2180175781</ele>
        <time>2020-10-16T11:53:25.691Z</time>
      </trkpt>
      <trkpt lat="44.6682" lon="3.80973">
        <ele>1181.412109375</ele>
        <time>2020-10-16T11:53:27.597Z</time>
      </trkpt>
      <trkpt lat="44.66796" lon="3.80982">
        <ele>1181.3311767578</ele>
        <time>2020-10-16T11:53:29.508Z</time>
      </trkpt>
      <trkpt lat="44.66775" lon="3.80982">
        <ele>1182.3875732422</ele>
        <time>2020-10-16T11:53:31.423Z</time>
      </trkpt>
      <trkpt lat="44.66752" lon="3.80981">
        <ele>1183.9071044922</ele>
        <time>2020-10-16T11:53:33.343Z</time>
      </trkpt>
      <trkpt lat="44.66734" lon="3.8098">
        <ele>1185.4855957031</ele>
        <time>2020-10-16T11:53:35.266Z</time>
      </trkpt>
      <trkpt lat="44.66715" lon="3.80986">
        <ele>1186.6884765625</ele>
        <time>2020-10-16T11:53:37.193Z</time>
      </trkpt>
      <trkpt lat="44.66688" lon="3.80998">
        <ele>1186.7600097656</ele>
        <time>2020-10-16T11:53:39.126Z</time>
      </trkpt>
      <trkpt lat="44.66649" lon="3.81017">
        <ele>1187.4943847656</ele>
        <time>2020-10-16T11:53:41.067Z</time>
      </trkpt>
      <trkpt lat="44.66625" lon="3.81028">
        <ele>1188.1099853516</ele>
        <time>2020-10-16T11:53:43.013Z</time>
      </trkpt>
      <trkpt lat="44.66613" lon="3.81029">
        <ele>1188.2717285156</ele>
        <time>2020-10-16T11:53:44.962Z</time>
      </trkpt>
      <trkpt lat="44.66583" lon="3.81026">
        <ele>1187.3712158203</ele>
        <time>2020-10-16T11:53:46.917Z</time>
      </trkpt>
      <trkpt lat="44.66559" lon="3.81027">
        <ele>1186.4782714844</ele>
        <time>2020-10-16T11:53:48.876Z</time>
      </trkpt>
      <trkpt lat="44.66534" lon="3.81018">
        <ele>1186.0314941406</ele>
        <time>2020-10-16T11:53:50.841Z</time>
      </trkpt>
      <trkpt lat="44.66511" lon="3.81003">
        <ele>1185.5727539062</ele>
        <time>2020-10-16T11:53:52.811Z</time>
      </trkpt>
      <trkpt lat="44.66487" lon="3.80982">
        <ele>1185.1987304688</ele>
        <time>2020-10-16T11:53:54.786Z</time>
      </trkpt>
      <trkpt lat="44.66468" lon="3.8096">
        <ele>1185.0139160156</ele>
        <time>2020-10-16T11:53:56.766Z</time>
      </trkpt>
      <trkpt lat="44.6645" lon="3.80947">
        <ele>1184.8278808594</ele>
        <time>2020-10-16T11:53:58.750Z</time>
      </trkpt>
      <trkpt lat="44.66427" lon="3.80935">
        <ele>1185.30859375</ele>
        <time>2020-10-16T11:54:00.739Z</time>
      </trkpt>
      <trkpt lat="44.66404" lon="3.80924">
        <ele>1185.5864257812</ele>
        <time>2020-10-16T11:54:02.733Z</time>
      </trkpt>
      <trkpt lat="44.66386" lon="3.80918">
        <ele>1185.8038330078</ele>
        <time>2020-10-16T11:54:04.731Z</time>
      </trkpt>
      <trkpt lat="44.66357" lon="3.80913">
        <ele>1186.2998046875</ele>
        <time>2020-10-16T11:54:06.735Z</time>
      </trkpt>
      <trkpt lat="44.66332" lon="3.80903">
        <ele>1186.8061523438</ele>
        <time>2020-10-16T11:54:08.744Z</time>
      </trkpt>
      <trkpt lat="44.66299" lon="3.80887">
        <ele>1186.7994384766</ele>
        <time>2020-10-16T11:54:10.760Z</time>
      </trkpt>
      <trkpt lat="44.66274" lon="3.80875">
        <ele>1186.9221191406</ele>
        <time>2020-10-16T11:54:12.781Z</time>
      </trkpt>
      <trkpt lat="44.66253" lon="3.80857">
        <ele>1187.5289306641</ele>
        <time>2020-10-16T11:54:14.807Z</time>
      </trkpt>
      <trkpt lat="44.6623" lon="3.80841">
        <ele>1188.0050048828</ele>
        <time>2020-10-16T11:54:16.838Z</time>
      </trkpt>
      <trkpt lat="44.6621" lon="3.80832">
        <ele>1188.1872558594</ele>
        <time>2020-10-16T11:54:18.873Z</time>
      </trkpt>
      <trkpt lat="44.66191" lon="3.80826">
        <ele>1188.1077880859</ele>
        <time>2020-10-16T11:54:20.912Z</time>
      </trkpt>
      <trkpt lat="44.66172" lon="3.8081">
        <ele>1188.447265625</ele>
        <time>2020-10-16T11:54:22.956Z</time>
      </trkpt>
      <trkpt lat="44.66158" lon="3.80788">
        <ele>1189.166015625</ele>
        <time>2020-10-16T11:54:25.004Z</time>
      </trkpt>
      <trkpt lat="44.6615" lon="3.8078">
        <ele>1189.3333740234</ele>
        <time>2020-10-16T11:54:27.054Z</time>
      </trkpt>
      <trkpt lat="44.66126" lon="3.80774">
        <ele>1189.0595703125</ele>
        <time>2020-10-16T11:54:29.109Z</time>
      </trkpt>
      <trkpt lat="44.66109" lon="3.8077">
        <ele>1188.8057861328</ele>
        <time>2020-10-16T11:54:31.167Z</time>
      </trkpt>
      <trkpt lat="44.66095" lon="3.80764">
        <ele>1188.5887451172</ele>
        <time>2020-10-16T11:54:33.228Z</time>
      </trkpt>
      <trkpt lat="44.66072" lon="3.80759">
        <ele>1188.1715087891</ele>
        <time>2020-10-16T11:54:35.294Z</time>
      </trkpt>
      <trkpt lat="44.6605" lon="3.80752">
        <ele>1187.8146972656</ele>
        <time>2020-10-16T11:54:37.364Z</time>
      </trkpt>
      <trkpt lat="44.66041" lon="3.80742">
        <ele>1187.8317871094</ele>
        <time>2020-10-16T11:54:39.437Z</time>
      </trkpt>
      <trkpt lat="44.66029" lon="3.80743">
        <ele>1186.8013916016</ele>
        <time>2020-10-16T11:54:41.512Z</time>
      </trkpt>
      <trkpt lat="44.66019" lon="3.80743">
        <ele>1185.4739990234</ele>
        <time>2020-10-16T11:54:43.589Z</time>
      </trkpt>
      <trkpt lat="44.66004" lon="3.80745">
        <ele>1183.5723876953</ele>
        <time>2020-10-16T11:54:45.669Z</time>
      </trkpt>
      <trkpt lat="44.65997" lon="3.80723">
        <ele>1183.0013427734</ele>
        <time>2020-10-16T11:54:47.752Z</time>
      </trkpt>
      <trkpt lat="44.65995" lon="3.80708">
        <ele>1183.0977783203</ele>
        <time>2020-10-16T11:54:49.837Z</time>
      </trkpt>
      <trkpt lat="44.65989" lon="3.80689">
        <ele>1182.7497558594</ele>
        <time>2020-10-16T11:54:51.925Z</time>
      </trkpt>
      <trkpt lat="44.65978" lon="3.8067">
        <ele>1182.4130859375</ele>
        <time>2020-10-16T11:54:54.017Z</time>
      </trkpt>
      <trkpt lat="44.65969" lon="3.80656">
        <ele>1182.0811767578</ele>
        <time>2020-10-16T11:54:56.112Z</time>
      </trkpt>
      <trkpt lat="44.65959" lon="3.80643">
        <ele>1181.5946044922</ele>
        <time>2020-10-16T11:54:58.209Z</time>
      </trkpt>
      <trkpt lat="44.65948" lon="3.80634">
        <ele>1180.4185791016</ele>
        <time>2020-10-16T11:55:00.309Z</time>
      </trkpt>
      <trkpt lat="44.65941" lon="3.80624">
        <ele>1179.5704345703</ele>
        <time>2020-10-16T11:55:02.411Z</time>
      </trkpt>
      <trkpt lat="44.65938" lon="3.8061">
        <ele>1179.6818847656</ele>
        <time>2020-10-16T11:55:04.515Z</time>
      </trkpt>
      <trkpt lat="44.65938" lon="3.80589">
        <ele>1181.087890625</ele>
        <time>2020-10-16T11:55:06.622Z</time>
      </trkpt>
      <trkpt lat="44.6594" lon="3.80562">
        <ele>1182.6768798828</ele>
        <time>2020-10-16T11:55:08.733Z</time>
      </trkpt>
      <trkpt lat="44.6594" lon="3.80537">
        <ele>1183.9306640625</ele>
        <time>2020-10-16T11:55:10.847Z</time>
      </trkpt>
      <trkpt lat="44.65939" lon="3.80519">
        <ele>1184.8625488281</ele>
        <time>2020-10-16T11:55:12.964Z</time>
      </trkpt>
      <trkpt lat="44.65937" lon="3.80498">
        <ele>1186.6524658203</ele>
        <time>2020-10-16T11:55:15.084Z</time>
      </trkpt>
      <trkpt lat="44.65936" lon="3.80477">
        <ele>1187.5145263672</ele>
        <time>2020-10-16T11:55:17.207Z</time>
      </trkpt>
      <trkpt lat="44.65936" lon="3.80457">
        <ele>1188.5030517578</ele>
        <time>2020-10-16T11:55:19.333Z</time>
      </trkpt>
      <trkpt lat="44.65939" lon="3.80434">
        <ele>1190.2379150391</ele>
        <time>2020-10-16T11:55:21.462Z</time>
      </trkpt>
      <trkpt lat="44.65941" lon="3.80416">
        <ele>1192.1724853516</ele>
        <time>2020-10-16T11:55:23.594Z</time>
      </trkpt>
      <trkpt lat="44.65943" lon="3.80393">
        <ele>1193.9350585938</ele>
        <time>2020-10-16T11:55:25.729Z</time>
      </trkpt>
      <trkpt lat="44.65944" lon="3.80375">
        <ele>1195.2720947266</ele>
        <time>2020-10-16T11:55:27.867Z</time>
      </trkpt>
      <trkpt lat="44.65945" lon="3.80355">
        <ele>1196.7225341797</ele>
        <time>2020-10-16T11:55:30.007Z</time>
      </trkpt>
      <trkpt lat="44.65945" lon="3.80333">
        <ele>1197.6995849609</ele>
        <time>2020-10-16T11:55:32.151Z</time>
      </trkpt>
      <trkpt lat="44.65943" lon="3.8031">
        <ele>1198.4940185547</ele>
        <time>2020-10-16T11:55:34.298Z</time>
      </trkpt>
      <trkpt lat="44.65944" lon="3.803">
        <ele>1198.8824462891</ele>
        <time>2020-10-16T11:55:36.446Z</time>
      </trkpt>
      <trkpt lat="44.65948" lon="3.80268">
        <ele>1199.9395751953</ele>
        <time>2020-10-16T11:55:38.599Z</time>
      </trkpt>
      <trkpt lat="44.6595" lon="3.80248">
        <ele>1198.9396972656</ele>
        <time>2020-10-16T11:55:40.755Z</time>
      </trkpt>
      <trkpt lat="44.65951" lon="3.80233">
        <ele>1198.2091064453</ele>
        <time>2020-10-16T11:55:42.913Z</time>
      </trkpt>
      <trkpt lat="44.65951" lon="3.80225">
        <ele>1197.8234863281</ele>
        <time>2020-10-16T11:55:45.072Z</time>
      </trkpt>
      <trkpt lat="44.65946" lon="3.80215">
        <ele>1197.5267333984</ele>
        <time>2020-10-16T11:55:47.233Z</time>
      </trkpt>
      <trkpt lat="44.65936" lon="3.80203">
        <ele>1197.3099365234</ele>
        <time>2020-10-16T11:55:49.396Z</time>
      </trkpt>
      <trkpt lat="44.65924" lon="3.8019">
        <ele>1197.1158447266</ele>
        <time>2020-10-16T11:55:51.563Z</time>
      </trkpt>
      <trkpt lat="44.65913" lon="3.80179">
        <ele>1196.8382568359</ele>
        <time>2020-10-16T11:55:53.732Z</time>
      </trkpt>
      <trkpt lat="44.65902" lon="3.80164">
        <ele>1196.3753662109</ele>
        <time>2020-10-16T11:55:55.904Z</time>
      </trkpt>
      <trkpt lat="44.65894" lon="3.80154">
        <ele>1196.0202636719</ele>
        <time>2020-10-16T11:55:58.078Z</time>
      </trkpt>
      <trkpt lat="44.6588" lon="3.80138">
        <ele>1195.6096191406</ele>
        <time>2020-10-16T11:56:00.256Z</time>
      </trkpt>
      <trkpt lat="44.6587" lon="3.80127">
        <ele>1195.2855224609</ele>
        <time>2020-10-16T11:56:02.436Z</time>
      </trkpt>
      <trkpt lat="44.65858" lon="3.80115">
        <ele>1194.0277099609</ele>
        <time>2020-10-16T11:56:04.620Z</time>
      </trkpt>
      <trkpt lat="44.65846" lon="3.80102">
        <ele>1192.8084716797</ele>
        <time>2020-10-16T11:56:06.807Z</time>
      </trkpt>
      <trkpt lat="44.65837" lon="3.80092">
        <ele>1192.1507568359</ele>
        <time>2020-10-16T11:56:08.996Z</time>
      </trkpt>
      <trkpt lat="44.65828" lon="3.80083">
        <ele>1191.4792480469</ele>
        <time>2020-10-16T11:56:11.187Z</time>
      </trkpt>
      <trkpt lat="44.65824" lon="3.80077">
        <ele>1191.1346435547</ele>
        <time>2020-10-16T11:56:13.379Z</time>
      </trkpt>
      <trkpt lat="44.6582" lon="3.80068">
        <ele>1190.7489013672</ele>
        <time>2020-10-16T11:56:15.573Z</time>
      </trkpt>
      <trkpt lat="44.65814" lon="3.80058">
        <ele>1190.2155761719</ele>
        <time>2020-10-16T11:56:17.769Z</time>
      </trkpt>
      <trkpt lat="44.65804" lon="3.80046">
        <ele>1189.4362792969</ele>
        <time>2020-10-16T11:56:19.967Z</time>
      </trkpt>
      <trkpt lat="44.65797" lon="3.80036">
        <ele>1188.8880615234</ele>
        <time>2020-10-16T11:56:22.167Z</time>
      </trkpt>
      <trkpt lat="44.6579" lon="3.80024">
        <ele>1188.1906738281</ele>
        <time>2020-10-16T11:56:24.369Z</time>
      </trkpt>
      <trkpt lat="44.6578" lon="3.80003">
        <ele>1187.4052734375</ele>
        <time>2020-10-16T11:56:26.575Z</time>
      </trkpt>
      <trkpt lat="44.65768" lon="3.79973">
        <ele>1186.4014892578</ele>
        <time>2020-10-16T11:56:28.786Z</time>
      </trkpt>
      <trkpt lat="44.65757" lon="3.79947">
        <ele>1185.5021972656</ele>
        <time>2020-10-16T11:56:31.001Z</time>
      </trkpt>
      <trkpt lat="44.65748" lon="3.79932">
        <ele>1185.2581787109</ele>
        <time>2020-10-16T11:56:33.219Z</time>
      </trkpt>
      <trkpt lat="44.6574" lon="3.7992">
        <ele>1185.3243408203</ele>
        <time>2020-10-16T11:56:35.439Z</time>
      </trkpt>
      <trkpt lat="44.65731" lon="3.79911">
        <ele>1185.3262939453</ele>
        <time>2020-10-16T11:56:37.662Z</time>
      </trkpt>
      <trkpt lat="44.65716" lon="3.799">
        <ele>1185.2325439453</ele>
        <time>2020-10-16T11:56:39.888Z</time>
      </trkpt>
      <trkpt lat="44.65707" lon="3.79894">
        <ele>1185.1840820312</ele>
        <time>2020-10-16T11:56:42.116Z</time>
      </trkpt>
      <trkpt lat="44.65701" lon="3.79887">
        <ele>1185.1649169922</ele>
        <time>2020-10-16T11:56:44.345Z</time>
      </trkpt>
      <trkpt lat="44.65691" lon="3.79878">
        <ele>1185.0163574219</ele>
        <time>2020-10-16T11:56:46.577Z</time>
      </trkpt>
      <trkpt lat="44.65682" lon="3.7987">
        <ele>1184.8798828125</ele>
        <time>2020-10-16T11:56:48.811Z</time>
      </trkpt>
      <trkpt lat="44.65673" lon="3.79865">
        <ele>1184.6903076172</ele>
        <time>2020-10-16T11:56:51.047Z</time>
      </trkpt>
      <trkpt lat="44.65656" lon="3.79855">
        <ele>1184.3297119141</ele>
        <time>2020-10-16T11:56:53.287Z</time>
      </trkpt>
      <trkpt lat="44.65649" lon="3.79851">
        <ele>1184.1999511719</ele>
        <time>2020-10-16T11:56:55.528Z</time>
      </trkpt>
      <trkpt lat="44.65644" lon="3.79847">
        <ele>1184.1887207031</ele>
        <time>2020-10-16T11:56:57.770Z</time>
      </trkpt>
      <trkpt lat="44.65637" lon="3.79842">
        <ele>1184.1159667969</ele>
        <time>2020-10-16T11:57:00.014Z</time>
      </trkpt>
      <trkpt lat="44.65623" lon="3.79839">
        <ele>1183.6934814453</ele>
        <time>2020-10-16T11:57:02.261Z</time>
      </trkpt>
      <trkpt lat="44.65611" lon="3.79837">
        <ele>1183.8607177734</ele>
        <time>2020-10-16T11:57:04.510Z</time>
      </trkpt>
      <trkpt lat="44.656" lon="3.79834">
        <ele>1184.2224121094</ele>
        <time>2020-10-16T11:57:06.761Z</time>
      </trkpt>
      <trkpt lat="44.6558" lon="3.79831">
        <ele>1184.0440673828</ele>
        <time>2020-10-16T11:57:09.016Z</time>
      </trkpt>
      <trkpt lat="44.65571" lon="3.79829">
        <ele>1184.0562744141</ele>
        <time>2020-10-16T11:57:11.273Z</time>
      </trkpt>
      <trkpt lat="44.65557" lon="3.79826">
        <ele>1183.9642333984</ele>
        <time>2020-10-16T11:57:13.533Z</time>
      </trkpt>
      <trkpt lat="44.65545" lon="3.79823">
        <ele>1183.8839111328</ele>
        <time>2020-10-16T11:57:15.795Z</time>
      </trkpt>
      <trkpt lat="44.65534" lon="3.79821">
        <ele>1184.0129394531</ele>
        <time>2020-10-16T11:57:18.060Z</time>
      </trkpt>
      <trkpt lat="44.65515" lon="3.79816">
        <ele>1185.7882080078</ele>
        <time>2020-10-16T11:57:20.329Z</time>
      </trkpt>
      <trkpt lat="44.65496" lon="3.79813">
        <ele>1187.4150390625</ele>
        <time>2020-10-16T11:57:22.601Z</time>
      </trkpt>
      <trkpt lat="44.65489" lon="3.79813">
        <ele>1187.5640869141</ele>
        <time>2020-10-16T11:57:24.875Z</time>
      </trkpt>
      <trkpt lat="44.65482" lon="3.79814">
        <ele>1187.5236816406</ele>
        <time>2020-10-16T11:57:27.150Z</time>
      </trkpt>
      <trkpt lat="44.65471" lon="3.79817">
        <ele>1187.2510986328</ele>
        <time>2020-10-16T11:57:29.427Z</time>
      </trkpt>
      <trkpt lat="44.65456" lon="3.79819">
        <ele>1187.0921630859</ele>
        <time>2020-10-16T11:57:31.708Z</time>
      </trkpt>
      <trkpt lat="44.65439" lon="3.79825">
        <ele>1186.8693847656</ele>
        <time>2020-10-16T11:57:33.992Z</time>
      </trkpt>
      <trkpt lat="44.6543" lon="3.7983">
        <ele>1186.4068603516</ele>
        <time>2020-10-16T11:57:36.278Z</time>
      </trkpt>
      <trkpt lat="44.65422" lon="3.79836">
        <ele>1185.5029296875</ele>
        <time>2020-10-16T11:57:38.566Z</time>
      </trkpt>
      <trkpt lat="44.65412" lon="3.79843">
        <ele>1184.1960449219</ele>
        <time>2020-10-16T11:57:40.856Z</time>
      </trkpt>
      <trkpt lat="44.65398" lon="3.79857">
        <ele>1181.6799316406</ele>
        <time>2020-10-16T11:57:43.149Z</time>
      </trkpt>
      <trkpt lat="44.65389" lon="3.79868">
        <ele>1180.1134033203</ele>
        <time>2020-10-16T11:57:45.445Z</time>
      </trkpt>
      <trkpt lat="44.65381" lon="3.79876">
        <ele>1179.0338134766</ele>
        <time>2020-10-16T11:57:47.743Z</time>
      </trkpt>
      <trkpt lat="44.65372" lon="3.79884">
        <ele>1177.9000244141</ele>
        <time>2020-10-16T11:57:50.043Z</time>
      </trkpt>
      <trkpt lat="44.65355" lon="3.79896">
        <ele>1176.2497558594</ele>
        <time>2020-10-16T11:57:52.347Z</time>
      </trkpt>
      <trkpt lat="44.65339" lon="3.79906">
        <ele>1174.9971923828</ele>
        <time>2020-10-16T11:57:54.654Z</time>
      </trkpt>
      <trkpt lat="44.65329" lon="3.79911">
        <ele>1174.6846923828</ele>
        <time>2020-10-16T11:57:56.963Z</time>
      </trkpt>
      <trkpt lat="44.65322" lon="3.79915">
        <ele>1174.4426269531</ele>
        <time>2020-10-16T11:57:59.274Z</time>
      </trkpt>
      <trkpt lat="44.65314" lon="3.79921">
        <ele>1174.0267333984</ele>
        <time>2020-10-16T11:58:01.587Z</time>
      </trkpt>
      <trkpt lat="44.65308" lon="3.79935">
        <ele>1172.6176757812</ele>
        <time>2020-10-16T11:58:03.902Z</time>
      </trkpt>
      <trkpt lat="44.65303" lon="3.79948">
        <ele>1171.1694335938</ele>
        <time>2020-10-16T11:58:06.219Z</time>
      </trkpt>
      <trkpt lat="44.65298" lon="3.79975">
        <ele>1169.1043701172</ele>
        <time>2020-10-16T11:58:08.540Z</time>
      </trkpt>
      <trkpt lat="44.6529" lon="3.7999">
        <ele>1168.3405761719</ele>
        <time>2020-10-16T11:58:10.864Z</time>
      </trkpt>
      <trkpt lat="44.65277" lon="3.80009">
        <ele>1168.3978271484</ele>
        <time>2020-10-16T11:58:13.191Z</time>
      </trkpt>
      <trkpt lat="44.65272" lon="3.80016">
        <ele>1168.5831298828</ele>
        <time>2020-10-16T11:58:15.520Z</time>
      </trkpt>
      <trkpt lat="44.65256" lon="3.80038">
        <ele>1167.3878173828</ele>
        <time>2020-10-16T11:58:17.853Z</time>
      </trkpt>
      <trkpt lat="44.65244" lon="3.80057">
        <ele>1165.7934570312</ele>
        <time>2020-10-16T11:58:20.190Z</time>
      </trkpt>
      <trkpt lat="44.65237" lon="3.80072">
        <ele>1165.1401367188</ele>
        <time>2020-10-16T11:58:22.529Z</time>
      </trkpt>
      <trkpt lat="44.65233" lon="3.80084">
        <ele>1164.6564941406</ele>
        <time>2020-10-16T11:58:24.870Z</time>
      </trkpt>
      <trkpt lat="44.65232" lon="3.80107">
        <ele>1162.1827392578</ele>
        <time>2020-10-16T11:58:27.215Z</time>
      </trkpt>
      <trkpt lat="44.65233" lon="3.80132">
        <ele>1160.2098388672</ele>
        <time>2020-10-16T11:58:29.563Z</time>
      </trkpt>
      <trkpt lat="44.65233" lon="3.80151">
        <ele>1158.4737548828</ele>
        <time>2020-10-16T11:58:31.914Z</time>
      </trkpt>
      <trkpt lat="44.65231" lon="3.80174">
        <ele>1157.0827636719</ele>
        <time>2020-10-16T11:58:34.268Z</time>
      </trkpt>
      <trkpt lat="44.65229" lon="3.80193">
        <ele>1155.9240722656</ele>
        <time>2020-10-16T11:58:36.625Z</time>
      </trkpt>
      <trkpt lat="44.65222" lon="3.80206">
        <ele>1156.1693115234</ele>
        <time>2020-10-16T11:58:38.984Z</time>
      </trkpt>
      <trkpt lat="44.65213" lon="3.80217">
        <ele>1155.2940673828</ele>
        <time>2020-10-16T11:58:41.346Z</time>
      </trkpt>
      <trkpt lat="44.65204" lon="3.80226">
        <ele>1154.705078125</ele>
        <time>2020-10-16T11:58:43.710Z</time>
      </trkpt>
      <trkpt lat="44.65192" lon="3.80236">
        <ele>1154.8381347656</ele>
        <time>2020-10-16T11:58:46.077Z</time>
      </trkpt>
      <trkpt lat="44.65182" lon="3.80241">
        <ele>1155.5638427734</ele>
        <time>2020-10-16T11:58:48.446Z</time>
      </trkpt>
      <trkpt lat="44.65169" lon="3.80246">
        <ele>1156.0769042969</ele>
        <time>2020-10-16T11:58:50.818Z</time>
      </trkpt>
      <trkpt lat="44.65157" lon="3.80252">
        <ele>1155.1148681641</ele>
        <time>2020-10-16T11:58:53.192Z</time>
      </trkpt>
      <trkpt lat="44.65144" lon="3.80259">
        <ele>1154.1529541016</ele>
        <time>2020-10-16T11:58:55.569Z</time>
      </trkpt>
      <trkpt lat="44.65125" lon="3.80271">
        <ele>1151.7222900391</ele>
        <time>2020-10-16T11:58:57.950Z</time>
      </trkpt>
      <trkpt lat="44.65112" lon="3.80279">
        <ele>1150.1401367188</ele>
        <time>2020-10-16T11:59:00.334Z</time>
      </trkpt>
      <trkpt lat="44.651" lon="3.80284">
        <ele>1148.9645996094</ele>
        <time>2020-10-16T11:59:02.720Z</time>
      </trkpt>
      <trkpt lat="44.65088" lon="3.80289">
        <ele>1147.7893066406</ele>
        <time>2020-10-16T11:59:05.109Z</time>
      </trkpt>
      <trkpt lat="44.6507" lon="3.80298">
        <ele>1145.4626464844</ele>
        <time>2020-10-16T11:59:07.502Z</time>
      </trkpt>
      <trkpt lat="44.65062" lon="3.80302">
        <ele>1144.5897216797</ele>
        <time>2020-10-16T11:59:09.897Z</time>
      </trkpt>
      <trkpt lat="44.6505" lon="3.80307">
        <ele>1143.5943603516</ele>
        <time>2020-10-16T11:59:12.294Z</time>
      </trkpt>
      <trkpt lat="44.65032" lon="3.80311">
        <ele>1142.4858398438</ele>
        <time>2020-10-16T11:59:14.695Z</time>
      </trkpt>
      <trkpt lat="44.65027" lon="3.80314">
        <ele>1141.3909912109</ele>
        <time>2020-10-16T11:59:17.097Z</time>
      </trkpt>
      <trkpt lat="44.6502" lon="3.80316">
        <ele>1140.3140869141</ele>
        <time>2020-10-16T11:59:19.500Z</time>
      </trkpt>
      <trkpt lat="44.65001" lon="3.80316">
        <ele>1139.1651611328</ele>
        <time>2020-10-16T11:59:21.907Z</time>
      </trkpt>
      <trkpt lat="44.64991" lon="3.80317">
        <ele>1138.4522705078</ele>
        <time>2020-10-16T11:59:24.316Z</time>
      </trkpt>
      <trkpt lat="44.64985" lon="3.80321">
        <ele>1136.9034423828</ele>
        <time>2020-10-16T11:59:26.726Z</time>
      </trkpt>
      <trkpt lat="44.64981" lon="3.80321">
        <ele>1136.8404541016</ele>
        <time>2020-10-16T11:59:29.137Z</time>
      </trkpt>
      <trkpt lat="44.64966" lon="3.80321">
        <ele>1136.4393310547</ele>
        <time>2020-10-16T11:59:31.551Z</time>
      </trkpt>
      <trkpt lat="44.6496" lon="3.80321">
        <ele>1136.1120605469</ele>
        <time>2020-10-16T11:59:33.966Z</time>
      </trkpt>
      <trkpt lat="44.64934" lon="3.80324">
        <ele>1130.4727783203</ele>
        <time>2020-10-16T11:59:36.386Z</time>
      </trkpt>
      <trkpt lat="44.64922" lon="3.80325">
        <ele>1127.0872802734</ele>
        <time>2020-10-16T11:59:38.809Z</time>
      </trkpt>
      <trkpt lat="44.64918" lon="3.80326">
        <ele>1126.6313476562</ele>
        <time>2020-10-16T11:59:41.233Z</time>
      </trkpt>
      <trkpt lat="44.64913" lon="3.80326">
        <ele>1126.1870117188</ele>
        <time>2020-10-16T11:59:43.658Z</time>
      </trkpt>
      <trkpt lat="44.64909" lon="3.80326">
        <ele>1125.7436523438</ele>
        <time>2020-10-16T11:59:46.084Z</time>
      </trkpt>
      <trkpt lat="44.64904" lon="3.80327">
        <ele>1125.3128662109</ele>
        <time>2020-10-16T11:59:48.511Z</time>
      </trkpt>
      <trkpt lat="44.64899" lon="3.80327">
        <ele>1124.8902587891</ele>
        <time>2020-10-16T11:59:50.938Z</time>
      </trkpt>
      <trkpt lat="44.64894" lon="3.80327">
        <ele>1124.4730224609</ele>
        <time>2020-10-16T11:59:53.366Z</time>
      </trkpt>
      <trkpt lat="44.64889" lon="3.80327">
        <ele>1124.0654296875</ele>
        <time>2020-10-16T11:59:55.795Z</time>
      </trkpt>
      <trkpt lat="44.64885" lon="3.80327">
        <ele>1123.6541748047</ele>
        <time>2020-10-16T11:59:58.225Z</time>
      </trkpt>
      <trkpt lat="44.64859" lon="3.8033">
        <ele>1121.3731689453</ele>
        <time>2020-10-16T12:00:00.660Z</time>
      </trkpt>
      <trkpt lat="44.64823" lon="3.80335">
        <ele>1120.1879882812</ele>
        <time>2020-10-16T12:00:03.103Z</time>
      </trkpt>
      <trkpt lat="44.6482" lon="3.80336">
        <ele>1120.1307373047</ele>
        <time>2020-10-16T12:00:05.546Z</time>
      </trkpt>
      <trkpt lat="44.64814" lon="3.80337">
        <ele>1120.0600585938</ele>
        <time>2020-10-16T12:00:07.991Z</time>
      </trkpt>
      <trkpt lat="44.64811" lon="3.80338">
        <ele>1120.044921875</ele>
        <time>2020-10-16T12:00:10.436Z</time>
      </trkpt>
      <trkpt lat="44.64807" lon="3.80337">
        <ele>1120.0728759766</ele>
        <time>2020-10-16T12:00:12.882Z</time>
      </trkpt>
      <trkpt lat="44.64803" lon="3.80336">
        <ele>1120.1469726562</ele>
        <time>2020-10-16T12:00:15.329Z</time>
      </trkpt>
      <trkpt lat="44.64799" lon="3.80334">
        <ele>1120.2545166016</ele>
        <time>2020-10-16T12:00:17.777Z</time>
      </trkpt>
      <trkpt lat="44.64795" lon="3.80332">
        <ele>1120.3648681641</ele>
        <time>2020-10-16T12:00:20.225Z</time>
      </trkpt>
      <trkpt lat="44.64792" lon="3.8033">
        <ele>1120.4836425781</ele>
        <time>2020-10-16T12:00:22.674Z</time>
      </trkpt>
      <trkpt lat="44.64788" lon="3.80328">
        <ele>1120.6146240234</ele>
        <time>2020-10-16T12:00:25.124Z</time>
      </trkpt>
      <trkpt lat="44.64785" lon="3.80326">
        <ele>1120.9674072266</ele>
        <time>2020-10-16T12:00:27.575Z</time>
      </trkpt>
      <trkpt lat="44.64781" lon="3.80325">
        <ele>1121.7479248047</ele>
        <time>2020-10-16T12:00:30.027Z</time>
      </trkpt>
      <trkpt lat="44.64777" lon="3.80324">
        <ele>1122.5581054688</ele>
        <time>2020-10-16T12:00:32.479Z</time>
      </trkpt>
      <trkpt lat="44.64773" lon="3.80323">
        <ele>1123.2684326172</ele>
        <time>2020-10-16T12:00:34.932Z</time>
      </trkpt>
      <trkpt lat="44.64768" lon="3.80323">
        <ele>1124.1971435547</ele>
        <time>2020-10-16T12:00:37.386Z</time>
      </trkpt>
      <trkpt lat="44.64763" lon="3.80323">
        <ele>1125.0754394531</ele>
        <time>2020-10-16T12:00:39.841Z</time>
      </trkpt>
      <trkpt lat="44.64751" lon="3.80325">
        <ele>1126.4871826172</ele>
        <time>2020-10-16T12:00:42.299Z</time>
      </trkpt>
      <trkpt lat="44.64735" lon="3.80328">
        <ele>1126.6411132812</ele>
        <time>2020-10-16T12:00:44.760Z</time>
      </trkpt>
      <trkpt lat="44.64727" lon="3.80328">
        <ele>1127.0043945312</ele>
        <time>2020-10-16T12:00:47.222Z</time>
      </trkpt>
      <trkpt lat="44.64723" lon="3.80328">
        <ele>1127.2751464844</ele>
        <time>2020-10-16T12:00:49.685Z</time>
      </trkpt>
      <trkpt lat="44.64717" lon="3.80327">
        <ele>1127.7080078125</ele>
        <time>2020-10-16T12:00:52.149Z</time>
      </trkpt>
      <trkpt lat="44.64713" lon="3.80327">
        <ele>1127.9787597656</ele>
        <time>2020-10-16T12:00:54.614Z</time>
      </trkpt>
      <trkpt lat="44.64709" lon="3.80326">
        <ele>1128.2044677734</ele>
        <time>2020-10-16T12:00:57.080Z</time>
      </trkpt>
      <trkpt lat="44.64704" lon="3.80327">
        <ele>1128.3243408203</ele>
        <time>2020-10-16T12:00:59.547Z</time>
      </trkpt>
      <trkpt lat="44.64696" lon="3.80329">
        <ele>1127.2926025391</ele>
        <time>2020-10-16T12:01:02.016Z</time>
      </trkpt>
      <trkpt lat="44.64687" lon="3.80333">
        <ele>1125.6893310547</ele>
        <time>2020-10-16T12:01:04.487Z</time>
      </trkpt>
      <trkpt lat="44.64681" lon="3.80335">
        <ele>1124.8983154297</ele>
        <time>2020-10-16T12:01:06.959Z</time>
      </trkpt>
      <trkpt lat="44.64677" lon="3.80337">
        <ele>1124.6917724609</ele>
        <time>2020-10-16T12:01:09.432Z</time>
      </trkpt>
      <trkpt lat="44.64673" lon="3.80337">
        <ele>1124.5902099609</ele>
        <time>2020-10-16T12:01:11.905Z</time>
      </trkpt>
      <trkpt lat="44.64669" lon="3.80337">
        <ele>1124.5301513672</ele>
        <time>2020-10-16T12:01:14.379Z</time>
      </trkpt>
      <trkpt lat="44.64664" lon="3.80337">
        <ele>1124.5126953125</ele>
        <time>2020-10-16T12:01:16.854Z</time>
      </trkpt>
      <trkpt lat="44.64659" lon="3.80336">
        <ele>1124.5736083984</ele>
        <time>2020-10-16T12:01:19.330Z</time>
      </trkpt>
      <trkpt lat="44.64651" lon="3.80333">
        <ele>1124.7344970703</ele>
        <time>2020-10-16T12:01:21.808Z</time>
      </trkpt>
      <trkpt lat="44.64645" lon="3.80331">
        <ele>1124.9526367188</ele>
        <time>2020-10-16T12:01:24.287Z</time>
      </trkpt>
      <trkpt lat="44.64638" lon="3.80327">
        <ele>1125.2719726562</ele>
        <time>2020-10-16T12:01:26.768Z</time>
      </trkpt>
      <trkpt lat="44.64631" lon="3.80324">
        <ele>1125.4636230469</ele>
        <time>2020-10-16T12:01:29.250Z</time>
      </trkpt>
      <trkpt lat="44.64626" lon="3.80324">
        <ele>1125.4801025391</ele>
        <time>2020-10-16T12:01:31.733Z</time>
      </trkpt>
      <trkpt lat="44.64624" lon="3.80324">
        <ele>1125.3939208984</ele>
        <time>2020-10-16T12:01:34.216Z</time>
      </trkpt>
      <trkpt lat="44.64621" lon="3.80326">
        <ele>1125.1846923828</ele>
        <time>2020-10-16T12:01:36.700Z</time>
      </trkpt>
      <trkpt lat="44.64617" lon="3.80328">
        <ele>1125.1170654297</ele>
        <time>2020-10-16T12:01:39.185Z</time>
      </trkpt>
      <trkpt lat="44.64614" lon="3.8033">
        <ele>1125.1339111328</ele>
        <time>2020-10-16T12:01:41.670Z</time>
      </trkpt>
      <trkpt lat="44.64611" lon="3.80333">
        <ele>1125.0981445312</ele>
        <time>2020-10-16T12:01:44.156Z</time>
      </trkpt>
      <trkpt lat="44.64608" lon="3.80336">
        <ele>1125.0151367188</ele>
        <time>2020-10-16T12:01:46.643Z</time>
      </trkpt>
      <trkpt lat="44.64605" lon="3.80339">
        <ele>1124.8553466797</ele>
        <time>2020-10-16T12:01:49.131Z</time>
      </trkpt>
      <trkpt lat="44.64603" lon="3.80344">
        <ele>1125.5191650391</ele>
        <time>2020-10-16T12:01:51.620Z</time>
      </trkpt>
      <trkpt lat="44.646" lon="3.80349">
        <ele>1126.5101318359</ele>
        <time>2020-10-16T12:01:54.110Z</time>
      </trkpt>
      <trkpt lat="44.64597" lon="3.80353">
        <ele>1127.4890136719</ele>
        <time>2020-10-16T12:01:56.600Z</time>
      </trkpt>
      <trkpt lat="44.64594" lon="3.80358">
        <ele>1128.5093994141</ele>
        <time>2020-10-16T12:01:59.091Z</time>
      </trkpt>
      <trkpt lat="44.6459" lon="3.80362">
        <ele>1129.6247558594</ele>
        <time>2020-10-16T12:02:01.583Z</time>
      </trkpt>
      <trkpt lat="44.64586" lon="3.80366">
        <ele>1130.8172607422</ele>
        <time>2020-10-16T12:02:04.076Z</time>
      </trkpt>
      <trkpt lat="44.64584" lon="3.80369">
        <ele>1131.4722900391</ele>
        <time>2020-10-16T12:02:06.570Z</time>
      </trkpt>
      <trkpt lat="44.64583" lon="3.80372">
        <ele>1131.9915771484</ele>
        <time>2020-10-16T12:02:09.064Z</time>
      </trkpt>
      <trkpt lat="44.6458" lon="3.80378">
        <ele>1133.0618896484</ele>
        <time>2020-10-16T12:02:11.559Z</time>
      </trkpt>
      <trkpt lat="44.64577" lon="3.80384">
        <ele>1133.9768066406</ele>
        <time>2020-10-16T12:02:14.055Z</time>
      </trkpt>
      <trkpt lat="44.64576" lon="3.80392">
        <ele>1134.6335449219</ele>
        <time>2020-10-16T12:02:16.552Z</time>
      </trkpt>
      <trkpt lat="44.64576" lon="3.80398">
        <ele>1134.7164306641</ele>
        <time>2020-10-16T12:02:19.050Z</time>
      </trkpt>
      <trkpt lat="44.64577" lon="3.80404">
        <ele>1134.3935546875</ele>
        <time>2020-10-16T12:02:21.549Z</time>
      </trkpt>
      <trkpt lat="44.64578" lon="3.80411">
        <ele>1133.845703125</ele>
        <time>2020-10-16T12:02:24.049Z</time>
      </trkpt>
      <trkpt lat="44.6458" lon="3.80416">
        <ele>1133.4346923828</ele>
        <time>2020-10-16T12:02:26.550Z</time>
      </trkpt>
      <trkpt lat="44.64581" lon="3.80423">
        <ele>1133.0357666016</ele>
        <time>2020-10-16T12:02:29.052Z</time>
      </trkpt>
      <trkpt lat="44.64581" lon="3.80427">
        <ele>1132.8731689453</ele>
        <time>2020-10-16T12:02:31.555Z</time>
      </trkpt>
      <trkpt lat="44.6458" lon="3.80434">
        <ele>1132.8140869141</ele>
        <time>2020-10-16T12:02:34.059Z</time>
      </trkpt>
      <trkpt lat="44.64577" lon="3.8044">
        <ele>1133.2655029297</ele>
        <time>2020-10-16T12:02:36.564Z</time>
      </trkpt>
      <trkpt lat="44.64574" lon="3.80446">
        <ele>1134.8927001953</ele>
        <time>2020-10-16T12:02:39.070Z</time>
      </trkpt>
      <trkpt lat="44.6457" lon="3.80452">
        <ele>1136.5250244141</ele>
        <time>2020-10-16T12:02:41.577Z</time>
      </trkpt>
      <trkpt lat="44.64566" lon="3.80458">
        <ele>1138.2008056641</ele>
        <time>2020-10-16T12:02:44.085Z</time>
      </trkpt>
      <trkpt lat="44.64562" lon="3.80464">
        <ele>1139.9083251953</ele>
        <time>2020-10-16T12:02:46.594Z</time>
      </trkpt>
      <trkpt lat="44.64557" lon="3.8047">
        <ele>1139.5266113281</ele>
        <time>2020-10-16T12:02:49.104Z</time>
      </trkpt>
      <trkpt lat="44.64553" lon="3.80476">
        <ele>1139.0095214844</ele>
        <time>2020-10-16T12:02:51.616Z</time>
      </trkpt>
      <trkpt lat="44.64548" lon="3.80482">
        <ele>1138.4969482422</ele>
        <time>2020-10-16T12:02:54.129Z</time>
      </trkpt>
      <trkpt lat="44.64544" lon="3.80489">
        <ele>1137.9659423828</ele>
        <time>2020-10-16T12:02:56.643Z</time>
      </trkpt>
      <trkpt lat="44.64539" lon="3.80495">
        <ele>1137.4357910156</ele>
        <time>2020-10-16T12:02:59.159Z</time>
      </trkpt>
      <trkpt lat="44.64534" lon="3.80502">
        <ele>1137.4251708984</ele>
        <time>2020-10-16T12:03:01.676Z</time>
      </trkpt>
      <trkpt lat="44.64525" lon="3.80516">
        <ele>1139.4479980469</ele>
        <time>2020-10-16T12:03:04.196Z</time>
      </trkpt>
      <trkpt lat="44.64521" lon="3.80523">
        <ele>1140.7288818359</ele>
        <time>2020-10-16T12:03:06.717Z</time>
      </trkpt>
      <trkpt lat="44.64516" lon="3.8053">
        <ele>1142.3734130859</ele>
        <time>2020-10-16T12:03:09.239Z</time>
      </trkpt>
      <trkpt lat="44.64512" lon="3.80538">
        <ele>1143.8754882812</ele>
        <time>2020-10-16T12:03:11.763Z</time>
      </trkpt>
      <trkpt lat="44.64509" lon="3.80545">
        <ele>1145.3581542969</ele>
        <time>2020-10-16T12:03:14.288Z</time>
      </trkpt>
      <trkpt lat="44.64506" lon="3.80553">
        <ele>1146.513671875</ele>
        <time>2020-10-16T12:03:16.814Z</time>
      </trkpt>
      <trkpt lat="44.64504" lon="3.80561">
        <ele>1147.4837646484</ele>
        <time>2020-10-16T12:03:19.342Z</time>
      </trkpt>
      <trkpt lat="44.64502" lon="3.8057">
        <ele>1148.1761474609</ele>
        <time>2020-10-16T12:03:21.871Z</time>
      </trkpt>
      <trkpt lat="44.64502" lon="3.80578">
        <ele>1148.5926513672</ele>
        <time>2020-10-16T12:03:24.401Z</time>
      </trkpt>
      <trkpt lat="44.64502" lon="3.80588">
        <ele>1148.7698974609</ele>
        <time>2020-10-16T12:03:26.932Z</time>
      </trkpt>
      <trkpt lat="44.64502" lon="3.80596">
        <ele>1148.9788818359</ele>
        <time>2020-10-16T12:03:29.464Z</time>
      </trkpt>
      <trkpt lat="44.64501" lon="3.80602">
        <ele>1149.4998779297</ele>
        <time>2020-10-16T12:03:31.997Z</time>
      </trkpt>
      <trkpt lat="44.64498" lon="3.80607">
        <ele>1150.6394042969</ele>
        <time>2020-10-16T12:03:34.531Z</time>
      </trkpt>
      <trkpt lat="44.64495" lon="3.80609">
        <ele>1151.6750488281</ele>
        <time>2020-10-16T12:03:37.066Z</time>
      </trkpt>
      <trkpt lat="44.64494" lon="3.8061">
        <ele>1152.3782958984</ele>
        <time>2020-10-16T12:03:39.601Z</time>
      </trkpt>
      <trkpt lat="44.64488" lon="3.80611">
        <ele>1154.1190185547</ele>
        <time>2020-10-16T12:03:42.137Z</time>
      </trkpt>
      <trkpt lat="44.64483" lon="3.8061">
        <ele>1155.4792480469</ele>
        <time>2020-10-16T12:03:44.674Z</time>
      </trkpt>
      <trkpt lat="44.64478" lon="3.80607">
        <ele>1156.6727294922</ele>
        <time>2020-10-16T12:03:47.213Z</time>
      </trkpt>
      <trkpt lat="44.64473" lon="3.80602">
        <ele>1157.8795166016</ele>
        <time>2020-10-16T12:03:49.753Z</time>
      </trkpt>
      <trkpt lat="44.64468" lon="3.80596">
        <ele>1158.9858398438</ele>
        <time>2020-10-16T12:03:52.294Z</time>
      </trkpt>
      <trkpt lat="44.64466" lon="3.80588">
        <ele>1159.6408691406</ele>
        <time>2020-10-16T12:03:54.836Z</time>
      </trkpt>
      <trkpt lat="44.64464" lon="3.80578">
        <ele>1159.8936767578</ele>
        <time>2020-10-16T12:03:57.380Z</time>
      </trkpt>
      <trkpt lat="44.64463" lon="3.80567">
        <ele>1159.8424072266</ele>
        <time>2020-10-16T12:03:59.925Z</time>
      </trkpt>
      <trkpt lat="44.64463" lon="3.80556">
        <ele>1159.5377197266</ele>
        <time>2020-10-16T12:04:02.472Z</time>
      </trkpt>
      <trkpt lat="44.64464" lon="3.80544">
        <ele>1159.0583496094</ele>
        <time>2020-10-16T12:04:05.021Z</time>
      </trkpt>
      <trkpt lat="44.64465" lon="3.80532">
        <ele>1158.4376220703</ele>
        <time>2020-10-16T12:04:07.571Z</time>
      </trkpt>
      <trkpt lat="44.64466" lon="3.80521">
        <ele>1157.6960449219</ele>
        <time>2020-10-16T12:04:10.123Z</time>
      </trkpt>
      <trkpt lat="44.64468" lon="3.80509">
        <ele>1157.3963623047</ele>
        <time>2020-10-16T12:04:12.677Z</time>
      </trkpt>
      <trkpt lat="44.64471" lon="3.80497">
        <ele>1156.9052734375</ele>
        <time>2020-10-16T12:04:15.232Z</time>
      </trkpt>
      <trkpt lat="44.64473" lon="3.80485">
        <ele>1156.5393066406</ele>
        <time>2020-10-16T12:04:17.789Z</time>
      </trkpt>
      <trkpt lat="44.64474" lon="3.80473">
        <ele>1156.3205566406</ele>
        <time>2020-10-16T12:04:20.348Z</time>
      </trkpt>
      <trkpt lat="44.64475" lon="3.80461">
        <ele>1156.3941650391</ele>
        <time>2020-10-16T12:04:22.909Z</time>
      </trkpt>
      <trkpt lat="44.64475" lon="3.80449">
        <ele>1157.0782470703</ele>
        <time>2020-10-16T12:04:25.471Z</time>
      </trkpt>
      <trkpt lat="44.64473" lon="3.80437">
        <ele>1158.1760253906</ele>
        <time>2020-10-16T12:04:28.035Z</time>
      </trkpt>
      <trkpt lat="44.64472" lon="3.80425">
        <ele>1159.2252197266</ele>
        <time>2020-10-16T12:04:30.601Z</time>
      </trkpt>
      <trkpt lat="44.64473" lon="3.80413">
        <ele>1159.7523193359</ele>
        <time>2020-10-16T12:04:33.168Z</time>
      </trkpt>
      <trkpt lat="44.64476" lon="3.80402">
        <ele>1159.7368164062</ele>
        <time>2020-10-16T12:04:35.737Z</time>
      </trkpt>
      <trkpt lat="44.6448" lon="3.80394">
        <ele>1159.1043701172</ele>
        <time>2020-10-16T12:04:38.308Z</time>
      </trkpt>
      <trkpt lat="44.64485" lon="3.80386">
        <ele>1158.2077636719</ele>
        <time>2020-10-16T12:04:40.880Z</time>
      </trkpt>
      <trkpt lat="44.6449" lon="3.80379">
        <ele>1156.8896484375</ele>
        <time>2020-10-16T12:04:43.454Z</time>
      </trkpt>
      <trkpt lat="44.64494" lon="3.80371">
        <ele>1155.8725585938</ele>
        <time>2020-10-16T12:04:46.029Z</time>
      </trkpt>
      <trkpt lat="44.64497" lon="3.80361">
        <ele>1155.4725341797</ele>
        <time>2020-10-16T12:04:48.605Z</time>
      </trkpt>
      <trkpt lat="44.64485" lon="3.80371">
        <ele>1158.9262695312</ele>
        <time>2020-10-16T12:04:51.184Z</time>
      </trkpt>
      <trkpt lat="44.64472" lon="3.80382">
        <ele>1162.3468017578</ele>
        <time>2020-10-16T12:04:53.766Z</time>
      </trkpt>
      <trkpt lat="44.64464" lon="3.80392">
        <ele>1164.0795898438</ele>
        <time>2020-10-16T12:04:56.350Z</time>
      </trkpt>
      <trkpt lat="44.64456" lon="3.80394">
        <ele>1166.1422119141</ele>
        <time>2020-10-16T12:04:58.936Z</time>
      </trkpt>
      <trkpt lat="44.64445" lon="3.80393">
        <ele>1168.6981201172</ele>
        <time>2020-10-16T12:05:01.524Z</time>
      </trkpt>
      <trkpt lat="44.64435" lon="3.80391">
        <ele>1171.0112304688</ele>
        <time>2020-10-16T12:05:04.114Z</time>
      </trkpt>
      <trkpt lat="44.64429" lon="3.80393">
        <ele>1172.0671386719</ele>
        <time>2020-10-16T12:05:06.705Z</time>
      </trkpt>
      <trkpt lat="44.64422" lon="3.80409">
        <ele>1172.4937744141</ele>
        <time>2020-10-16T12:05:09.299Z</time>
      </trkpt>
      <trkpt lat="44.64414" lon="3.80431">
        <ele>1173.8686523438</ele>
        <time>2020-10-16T12:05:11.897Z</time>
      </trkpt>
      <trkpt lat="44.64407" lon="3.80448">
        <ele>1175.3092041016</ele>
        <time>2020-10-16T12:05:14.497Z</time>
      </trkpt>
      <trkpt lat="44.64407" lon="3.80467">
        <ele>1174.8128662109</ele>
        <time>2020-10-16T12:05:17.100Z</time>
      </trkpt>
      <trkpt lat="44.64405" lon="3.80487">
        <ele>1176.0012207031</ele>
        <time>2020-10-16T12:05:19.706Z</time>
      </trkpt>
      <trkpt lat="44.64402" lon="3.80508">
        <ele>1178.6665039062</ele>
        <time>2020-10-16T12:05:22.315Z</time>
      </trkpt>
      <trkpt lat="44.644" lon="3.8052">
        <ele>1180.1151123047</ele>
        <time>2020-10-16T12:05:24.926Z</time>
      </trkpt>
      <trkpt lat="44.64397" lon="3.80527">
        <ele>1181.3885498047</ele>
        <time>2020-10-16T12:05:27.538Z</time>
      </trkpt>
      <trkpt lat="44.64394" lon="3.80525">
        <ele>1182.5729980469</ele>
        <time>2020-10-16T12:05:30.151Z</time>
      </trkpt>
      <trkpt lat="44.64391" lon="3.80512">
        <ele>1182.7081298828</ele>
        <time>2020-10-16T12:05:32.766Z</time>
      </trkpt>
      <trkpt lat="44.64385" lon="3.80497">
        <ele>1183.6136474609</ele>
        <time>2020-10-16T12:05:35.383Z</time>
      </trkpt>
      <trkpt lat="44.64379" lon="3.8049">
        <ele>1185.3471679688</ele>
        <time>2020-10-16T12:05:38.002Z</time>
      </trkpt>
      <trkpt lat="44.64372" lon="3.80484">
        <ele>1187.1142578125</ele>
        <time>2020-10-16T12:05:40.622Z</time>
      </trkpt>
      <trkpt lat="44.64363" lon="3.80481">
        <ele>1189.3492431641</ele>
        <time>2020-10-16T12:05:43.244Z</time>
      </trkpt>
      <trkpt lat="44.64355" lon="3.80473">
        <ele>1190.6411132812</ele>
        <time>2020-10-16T12:05:45.868Z</time>
      </trkpt>
      <trkpt lat="44.64349" lon="3.80466">
        <ele>1191.3277587891</ele>
        <time>2020-10-16T12:05:48.494Z</time>
      </trkpt>
      <trkpt lat="44.64347" lon="3.80458">
        <ele>1191.109375</ele>
        <time>2020-10-16T12:05:51.121Z</time>
      </trkpt>
      <trkpt lat="44.64349" lon="3.80447">
        <ele>1189.8286132812</ele>
        <time>2020-10-16T12:05:53.750Z</time>
      </trkpt>
      <trkpt lat="44.64354" lon="3.80432">
        <ele>1188.1907958984</ele>
        <time>2020-10-16T12:05:56.381Z</time>
      </trkpt>
      <trkpt lat="44.64356" lon="3.80421">
        <ele>1187.7243652344</ele>
        <time>2020-10-16T12:05:59.014Z</time>
      </trkpt>
      <trkpt lat="44.64357" lon="3.80408">
        <ele>1187.9375</ele>
        <time>2020-10-16T12:06:01.648Z</time>
      </trkpt>
      <trkpt lat="44.64356" lon="3.80397">
        <ele>1188.3010253906</ele>
        <time>2020-10-16T12:06:04.284Z</time>
      </trkpt>
      <trkpt lat="44.64353" lon="3.80386">
        <ele>1189.0989990234</ele>
        <time>2020-10-16T12:06:06.922Z</time>
      </trkpt>
      <trkpt lat="44.6435" lon="3.80376">
        <ele>1189.9803466797</ele>
        <time>2020-10-16T12:06:09.561Z</time>
      </trkpt>
      <trkpt lat="44.64345" lon="3.80369">
        <ele>1191.0134277344</ele>
        <time>2020-10-16T12:06:12.202Z</time>
      </trkpt>
      <trkpt lat="44.64342" lon="3.80363">
        <ele>1191.6966552734</ele>
        <time>2020-10-16T12:06:14.844Z</time>
      </trkpt>
      <trkpt lat="44.6434" lon="3.80354">
        <ele>1192.2723388672</ele>
        <time>2020-10-16T12:06:17.487Z</time>
      </trkpt>
      <trkpt lat="44.64338" lon="3.80347">
        <ele>1192.6922607422</ele>
        <time>2020-10-16T12:06:20.131Z</time>
      </trkpt>
      <trkpt lat="44.64335" lon="3.8034">
        <ele>1193.3214111328</ele>
        <time>2020-10-16T12:06:22.776Z</time>
      </trkpt>
      <trkpt lat="44.64332" lon="3.80335">
        <ele>1193.9809570312</ele>
        <time>2020-10-16T12:06:25.422Z</time>
      </trkpt>
      <trkpt lat="44.64328" lon="3.80328">
        <ele>1194.7406005859</ele>
        <time>2020-10-16T12:06:28.069Z</time>
      </trkpt>
      <trkpt lat="44.64327" lon="3.80322">
        <ele>1194.9549560547</ele>
        <time>2020-10-16T12:06:30.717Z</time>
      </trkpt>
      <trkpt lat="44.64328" lon="3.80311">
        <ele>1195.0682373047</ele>
        <time>2020-10-16T12:06:33.367Z</time>
      </trkpt>
      <trkpt lat="44.64329" lon="3.80297">
        <ele>1195.6304931641</ele>
        <time>2020-10-16T12:06:36.019Z</time>
      </trkpt>
      <trkpt lat="44.6433" lon="3.80281">
        <ele>1196.2019042969</ele>
        <time>2020-10-16T12:06:38.673Z</time>
      </trkpt>
      <trkpt lat="44.64328" lon="3.8027">
        <ele>1196.8830566406</ele>
        <time>2020-10-16T12:06:41.329Z</time>
      </trkpt>
      <trkpt lat="44.64323" lon="3.80261">
        <ele>1197.6883544922</ele>
        <time>2020-10-16T12:06:43.987Z</time>
      </trkpt>
      <trkpt lat="44.64313" lon="3.80256">
        <ele>1199.0557861328</ele>
        <time>2020-10-16T12:06:46.647Z</time>
      </trkpt>
      <trkpt lat="44.64298" lon="3.80254">
        <ele>1201.1964111328</ele>
        <time>2020-10-16T12:06:49.310Z</time>
      </trkpt>
      <trkpt lat="44.64281" lon="3.80253">
        <ele>1203.6046142578</ele>
        <time>2020-10-16T12:06:51.976Z</time>
      </trkpt>
      <trkpt lat="44.64272" lon="3.80257">
        <ele>1204.6434326172</ele>
        <time>2020-10-16T12:06:54.644Z</time>
      </trkpt>
      <trkpt lat="44.64267" lon="3.80265">
        <ele>1205.7202148438</ele>
        <time>2020-10-16T12:06:57.313Z</time>
      </trkpt>
      <trkpt lat="44.64262" lon="3.80282">
        <ele>1206.5334472656</ele>
        <time>2020-10-16T12:06:59.985Z</time>
      </trkpt>
      <trkpt lat="44.64259" lon="3.80304">
        <ele>1206.8420410156</ele>
        <time>2020-10-16T12:07:02.660Z</time>
      </trkpt>
      <trkpt lat="44.64258" lon="3.80327">
        <ele>1206.6903076172</ele>
        <time>2020-10-16T12:07:05.339Z</time>
      </trkpt>
      <trkpt lat="44.64256" lon="3.80349">
        <ele>1207.0137939453</ele>
        <time>2020-10-16T12:07:08.021Z</time>
      </trkpt>
      <trkpt lat="44.64256" lon="3.80376">
        <ele>1207.2940673828</ele>
        <time>2020-10-16T12:07:10.707Z</time>
      </trkpt>
      <trkpt lat="44.64258" lon="3.80405">
        <ele>1207.2857666016</ele>
        <time>2020-10-16T12:07:13.397Z</time>
      </trkpt>
      <trkpt lat="44.64261" lon="3.80425">
        <ele>1207.0396728516</ele>
        <time>2020-10-16T12:07:16.090Z</time>
      </trkpt>
      <trkpt lat="44.64262" lon="3.80439">
        <ele>1207.0240478516</ele>
        <time>2020-10-16T12:07:18.785Z</time>
      </trkpt>
      <trkpt lat="44.6426" lon="3.80451">
        <ele>1207.3883056641</ele>
        <time>2020-10-16T12:07:21.481Z</time>
      </trkpt>
      <trkpt lat="44.64251" lon="3.8046">
        <ele>1208.900390625</ele>
        <time>2020-10-16T12:07:24.180Z</time>
      </trkpt>
      <trkpt lat="44.64242" lon="3.80465">
        <ele>1210.3431396484</ele>
        <time>2020-10-16T12:07:26.881Z</time>
      </trkpt>
      <trkpt lat="44.64234" lon="3.80461">
        <ele>1211.7301025391</ele>
        <time>2020-10-16T12:07:29.583Z</time>
      </trkpt>
      <trkpt lat="44.64216" lon="3.80448">
        <ele>1214.6915283203</ele>
        <time>2020-10-16T12:07:32.289Z</time>
      </trkpt>
      <trkpt lat="44.64205" lon="3.80437">
        <ele>1216.5213623047</ele>
        <time>2020-10-16T12:07:34.998Z</time>
      </trkpt>
      <trkpt lat="44.64204" lon="3.80436">
        <ele>1216.7630615234</ele>
        <time>2020-10-16T12:07:37.707Z</time>
      </trkpt>
      <trkpt lat="44.64189" lon="3.80422">
        <ele>1218.8669433594</ele>
        <time>2020-10-16T12:07:40.420Z</time>
      </trkpt>
      <trkpt lat="44.64171" lon="3.80403">
        <ele>1221.4787597656</ele>
        <time>2020-10-16T12:07:43.137Z</time>
      </trkpt>
      <trkpt lat="44.64159" lon="3.80393">
        <ele>1223.2456054688</ele>
        <time>2020-10-16T12:07:45.857Z</time>
      </trkpt>
      <trkpt lat="44.64152" lon="3.80384">
        <ele>1224.2810058594</ele>
        <time>2020-10-16T12:07:48.579Z</time>
      </trkpt>
      <trkpt lat="44.64143" lon="3.80378">
        <ele>1225.4681396484</ele>
        <time>2020-10-16T12:07:51.303Z</time>
      </trkpt>
      <trkpt lat="44.64137" lon="3.80375">
        <ele>1226.4465332031</ele>
        <time>2020-10-16T12:07:54.028Z</time>
      </trkpt>
      <trkpt lat="44.64124" lon="3.80378">
        <ele>1228.5710449219</ele>
        <time>2020-10-16T12:07:56.756Z</time>
      </trkpt>
      <trkpt lat="44.64112" lon="3.80378">
        <ele>1229.8173828125</ele>
        <time>2020-10-16T12:07:59.486Z</time>
      </trkpt>
      <trkpt lat="44.64102" lon="3.80374">
        <ele>1230.4376220703</ele>
        <time>2020-10-16T12:08:02.218Z</time>
      </trkpt>
      <trkpt lat="44.64093" lon="3.80371">
        <ele>1231.0491943359</ele>
        <time>2020-10-16T12:08:04.952Z</time>
      </trkpt>
      <trkpt lat="44.64083" lon="3.80376">
        <ele>1231.8499755859</ele>
        <time>2020-10-16T12:08:07.688Z</time>
      </trkpt>
      <trkpt lat="44.64077" lon="3.8038">
        <ele>1232.2967529297</ele>
        <time>2020-10-16T12:08:10.426Z</time>
      </trkpt>
      <trkpt lat="44.64065" lon="3.80384">
        <ele>1233.2276611328</ele>
        <time>2020-10-16T12:08:13.166Z</time>
      </trkpt>
      <trkpt lat="44.64055" lon="3.80388">
        <ele>1234.5421142578</ele>
        <time>2020-10-16T12:08:15.908Z</time>
      </trkpt>
      <trkpt lat="44.64044" lon="3.80391">
        <ele>1235.8469238281</ele>
        <time>2020-10-16T12:08:18.653Z</time>
      </trkpt>
      <trkpt lat="44.64029" lon="3.80391">
        <ele>1236.6599121094</ele>
        <time>2020-10-16T12:08:21.401Z</time>
      </trkpt>
      <trkpt lat="44.64019" lon="3.80392">
        <ele>1236.5533447266</ele>
        <time>2020-10-16T12:08:24.151Z</time>
      </trkpt>
      <trkpt lat="44.64009" lon="3.80391">
        <ele>1236.4006347656</ele>
        <time>2020-10-16T12:08:26.902Z</time>
      </trkpt>
      <trkpt lat="44.63994" lon="3.80389">
        <ele>1236.1420898438</ele>
        <time>2020-10-16T12:08:29.656Z</time>
      </trkpt>
      <trkpt lat="44.63983" lon="3.80384">
        <ele>1235.7298583984</ele>
        <time>2020-10-16T12:08:32.413Z</time>
      </trkpt>
      <trkpt lat="44.63975" lon="3.80383">
        <ele>1235.8305664062</ele>
        <time>2020-10-16T12:08:35.172Z</time>
      </trkpt>
      <trkpt lat="44.63963" lon="3.80383">
        <ele>1236.2972412109</ele>
        <time>2020-10-16T12:08:37.933Z</time>
      </trkpt>
      <trkpt lat="44.63953" lon="3.80385">
        <ele>1236.8106689453</ele>
        <time>2020-10-16T12:08:40.696Z</time>
      </trkpt>
      <trkpt lat="44.63945" lon="3.80386">
        <ele>1237.1116943359</ele>
        <time>2020-10-16T12:08:43.461Z</time>
      </trkpt>
      <trkpt lat="44.63934" lon="3.80392">
        <ele>1237.9775390625</ele>
        <time>2020-10-16T12:08:46.228Z</time>
      </trkpt>
      <trkpt lat="44.63924" lon="3.80398">
        <ele>1238.8199462891</ele>
        <time>2020-10-16T12:08:48.997Z</time>
      </trkpt>
      <trkpt lat="44.63914" lon="3.804">
        <ele>1239.2811279297</ele>
        <time>2020-10-16T12:08:51.768Z</time>
      </trkpt>
      <trkpt lat="44.63904" lon="3.804">
        <ele>1239.8911132812</ele>
        <time>2020-10-16T12:08:54.541Z</time>
      </trkpt>
      <trkpt lat="44.63887" lon="3.80397">
        <ele>1240.4495849609</ele>
        <time>2020-10-16T12:08:57.317Z</time>
      </trkpt>
      <trkpt lat="44.63868" lon="3.80398">
        <ele>1241.6373291016</ele>
        <time>2020-10-16T12:09:00.097Z</time>
      </trkpt>
      <trkpt lat="44.63845" lon="3.80397">
        <ele>1242.6694335938</ele>
        <time>2020-10-16T12:09:02.882Z</time>
      </trkpt>
      <trkpt lat="44.63827" lon="3.80399">
        <ele>1243.9290771484</ele>
        <time>2020-10-16T12:09:05.671Z</time>
      </trkpt>
      <trkpt lat="44.63801" lon="3.80404">
        <ele>1246.5589599609</ele>
        <time>2020-10-16T12:09:08.465Z</time>
      </trkpt>
      <trkpt lat="44.63779" lon="3.80404">
        <ele>1247.6560058594</ele>
        <time>2020-10-16T12:09:11.263Z</time>
      </trkpt>
      <trkpt lat="44.63749" lon="3.80402">
        <ele>1247.6860351562</ele>
        <time>2020-10-16T12:09:14.067Z</time>
      </trkpt>
      <trkpt lat="44.63726" lon="3.80402">
        <ele>1246.8817138672</ele>
        <time>2020-10-16T12:09:16.876Z</time>
      </trkpt>
      <trkpt lat="44.63695" lon="3.80402">
        <ele>1245.9079589844</ele>
        <time>2020-10-16T12:09:19.691Z</time>
      </trkpt>
      <trkpt lat="44.63681" lon="3.80403">
        <ele>1245.6387939453</ele>
        <time>2020-10-16T12:09:22.509Z</time>
      </trkpt>
      <trkpt lat="44.63662" lon="3.80399">
        <ele>1244.7390136719</ele>
        <time>2020-10-16T12:09:25.331Z</time>
      </trkpt>
      <trkpt lat="44.63641" lon="3.80388">
        <ele>1242.1330566406</ele>
        <time>2020-10-16T12:09:28.157Z</time>
      </trkpt>
      <trkpt lat="44.63628" lon="3.80384">
        <ele>1240.6649169922</ele>
        <time>2020-10-16T12:09:30.986Z</time>
      </trkpt>
      <trkpt lat="44.63617" lon="3.80382">
        <ele>1239.4449462891</ele>
        <time>2020-10-16T12:09:33.817Z</time>
      </trkpt>
      <trkpt lat="44.63592" lon="3.80384">
        <ele>1237.4429931641</ele>
        <time>2020-10-16T12:09:36.653Z</time>
      </trkpt>
      <trkpt lat="44.63569" lon="3.80388">
        <ele>1235.6240234375</ele>
        <time>2020-10-16T12:09:39.494Z</time>
      </trkpt>
      <trkpt lat="44.63552" lon="3.80397">
        <ele>1235.6318359375</ele>
        <time>2020-10-16T12:09:42.338Z</time>
      </trkpt>
      <trkpt lat="44.63531" lon="3.80424">
        <ele>1237.0590820312</ele>
        <time>2020-10-16T12:09:45.188Z</time>
      </trkpt>
      <trkpt lat="44.63518" lon="3.80385">
        <ele>1234.5380859375</ele>
        <time>2020-10-16T12:09:48.044Z</time>
      </trkpt>
      <trkpt lat="44.63504" lon="3.80338">
        <ele>1230.3430175781</ele>
        <time>2020-10-16T12:09:50.907Z</time>
      </trkpt>
      <trkpt lat="44.63503" lon="3.80331">
        <ele>1229.3165283203</ele>
        <time>2020-10-16T12:09:53.771Z</time>
      </trkpt>
      <trkpt lat="44.63492" lon="3.80353">
        <ele>1232.6772460938</ele>
        <time>2020-10-16T12:09:56.639Z</time>
      </trkpt>
      <trkpt lat="44.63482" lon="3.80378">
        <ele>1234.9122314453</ele>
        <time>2020-10-16T12:09:59.511Z</time>
      </trkpt>
      <trkpt lat="44.63472" lon="3.80397">
        <ele>1237.0257568359</ele>
        <time>2020-10-16T12:10:02.387Z</time>
      </trkpt>
      <trkpt lat="44.63461" lon="3.80407">
        <ele>1238.5660400391</ele>
        <time>2020-10-16T12:10:05.265Z</time>
      </trkpt>
      <trkpt lat="44.63451" lon="3.80407">
        <ele>1239.0727539062</ele>
        <time>2020-10-16T12:10:08.145Z</time>
      </trkpt>
      <trkpt lat="44.63444" lon="3.80405">
        <ele>1239.3198242188</ele>
        <time>2020-10-16T12:10:11.027Z</time>
      </trkpt>
      <trkpt lat="44.63437" lon="3.80398">
        <ele>1239.1975097656</ele>
        <time>2020-10-16T12:10:13.910Z</time>
      </trkpt>
      <trkpt lat="44.63431" lon="3.80382">
        <ele>1238.1707763672</ele>
        <time>2020-10-16T12:10:16.796Z</time>
      </trkpt>
      <trkpt lat="44.63424" lon="3.80358">
        <ele>1236.333984375</ele>
        <time>2020-10-16T12:10:19.686Z</time>
      </trkpt>
      <trkpt lat="44.63414" lon="3.80333">
        <ele>1234.380859375</ele>
        <time>2020-10-16T12:10:22.580Z</time>
      </trkpt>
      <trkpt lat="44.6341" lon="3.80321">
        <ele>1233.4213867188</ele>
        <time>2020-10-16T12:10:25.476Z</time>
      </trkpt>
      <trkpt lat="44.63408" lon="3.80357">
        <ele>1237.4237060547</ele>
        <time>2020-10-16T12:10:28.377Z</time>
      </trkpt>
      <trkpt lat="44.63407" lon="3.80392">
        <ele>1240.78515625</ele>
        <time>2020-10-16T12:10:31.283Z</time>
      </trkpt>
      <trkpt lat="44.63412" lon="3.80421">
        <ele>1244.0549316406</ele>
        <time>2020-10-16T12:10:34.193Z</time>
      </trkpt>
      <trkpt lat="44.63422" lon="3.80449">
        <ele>1245.501953125</ele>
        <time>2020-10-16T12:10:37.107Z</time>
      </trkpt>
      <trkpt lat="44.63443" lon="3.80477">
        <ele>1243.9475097656</ele>
        <time>2020-10-16T12:10:40.027Z</time>
      </trkpt>
      <trkpt lat="44.63455" lon="3.80483">
        <ele>1242.9315185547</ele>
        <time>2020-10-16T12:10:42.950Z</time>
      </trkpt>
      <trkpt lat="44.63468" lon="3.8048">
        <ele>1242.2606201172</ele>
        <time>2020-10-16T12:10:45.875Z</time>
      </trkpt>
      <trkpt lat="44.63479" lon="3.80472">
        <ele>1241.5092773438</ele>
        <time>2020-10-16T12:10:48.803Z</time>
      </trkpt>
      <trkpt lat="44.6349" lon="3.80461">
        <ele>1240.7058105469</ele>
        <time>2020-10-16T12:10:51.734Z</time>
      </trkpt>
      <trkpt lat="44.63504" lon="3.80444">
        <ele>1239.6584472656</ele>
        <time>2020-10-16T12:10:54.668Z</time>
      </trkpt>
      <trkpt lat="44.63514" lon="3.80435">
        <ele>1238.6763916016</ele>
        <time>2020-10-16T12:10:57.605Z</time>
      </trkpt>
      <trkpt lat="44.63523" lon="3.80429">
        <ele>1237.7624511719</ele>
        <time>2020-10-16T12:11:00.544Z</time>
      </trkpt>
      <trkpt lat="44.63531" lon="3.80432">
        <ele>1237.6662597656</ele>
        <time>2020-10-16T12:11:03.484Z</time>
      </trkpt>
      <trkpt lat="44.63537" lon="3.80444">
        <ele>1238.2171630859</ele>
        <time>2020-10-16T12:11:06.426Z</time>
      </trkpt>
      <trkpt lat="44.63543" lon="3.80463">
        <ele>1239.0953369141</ele>
        <time>2020-10-16T12:11:09.371Z</time>
      </trkpt>
      <trkpt lat="44.63551" lon="3.80493">
        <ele>1240.4108886719</ele>
        <time>2020-10-16T12:11:12.321Z</time>
      </trkpt>
      <trkpt lat="44.63559" lon="3.80518">
        <ele>1241.5784912109</ele>
        <time>2020-10-16T12:11:15.275Z</time>
      </trkpt>
      <trkpt lat="44.63565" lon="3.8054">
        <ele>1243.1478271484</ele>
        <time>2020-10-16T12:11:18.232Z</time>
      </trkpt>
      <trkpt lat="44.63571" lon="3.80565">
        <ele>1245.3287353516</ele>
        <time>2020-10-16T12:11:21.193Z</time>
      </trkpt>
      <trkpt lat="44.63581" lon="3.80598">
        <ele>1248.5521240234</ele>
        <time>2020-10-16T12:11:24.159Z</time>
      </trkpt>
      <trkpt lat="44.6359" lon="3.80633">
        <ele>1250.2749023438</ele>
        <time>2020-10-16T12:11:27.130Z</time>
      </trkpt>
      <trkpt lat="44.63594" lon="3.80643">
        <ele>1250.6840820312</ele>
        <time>2020-10-16T12:11:30.103Z</time>
      </trkpt>
      <trkpt lat="44.63574" lon="3.80652">
        <ele>1250.5655517578</ele>
        <time>2020-10-16T12:11:33.080Z</time>
      </trkpt>
      <trkpt lat="44.63552" lon="3.80666">
        <ele>1252.4468994141</ele>
        <time>2020-10-16T12:11:36.062Z</time>
      </trkpt>
      <trkpt lat="44.63532" lon="3.8068">
        <ele>1254.3262939453</ele>
        <time>2020-10-16T12:11:39.048Z</time>
      </trkpt>
      <trkpt lat="44.63515" lon="3.80696">
        <ele>1257.1032714844</ele>
        <time>2020-10-16T12:11:42.038Z</time>
      </trkpt>
      <trkpt lat="44.63506" lon="3.80705">
        <ele>1258.7697753906</ele>
        <time>2020-10-16T12:11:45.031Z</time>
      </trkpt>
      <trkpt lat="44.63495" lon="3.80717">
        <ele>1260.8361816406</ele>
        <time>2020-10-16T12:11:48.026Z</time>
      </trkpt>
      <trkpt lat="44.63484" lon="3.80724">
        <ele>1262.4020996094</ele>
        <time>2020-10-16T12:11:51.024Z</time>
      </trkpt>
      <trkpt lat="44.63468" lon="3.80729">
        <ele>1263.9664306641</ele>
        <time>2020-10-16T12:11:54.025Z</time>
      </trkpt>
      <trkpt lat="44.63454" lon="3.80733">
        <ele>1265.1724853516</ele>
        <time>2020-10-16T12:11:57.029Z</time>
      </trkpt>
      <trkpt lat="44.63442" lon="3.80738">
        <ele>1266.5147705078</ele>
        <time>2020-10-16T12:12:00.035Z</time>
      </trkpt>
      <trkpt lat="44.63434" lon="3.80746">
        <ele>1268.0205078125</ele>
        <time>2020-10-16T12:12:03.044Z</time>
      </trkpt>
      <trkpt lat="44.63426" lon="3.80758">
        <ele>1269.7242431641</ele>
        <time>2020-10-16T12:12:06.055Z</time>
      </trkpt>
      <trkpt lat="44.63413" lon="3.80762">
        <ele>1270.7998046875</ele>
        <time>2020-10-16T12:12:09.068Z</time>
      </trkpt>
      <trkpt lat="44.63399" lon="3.80765">
        <ele>1271.8369140625</ele>
        <time>2020-10-16T12:12:12.084Z</time>
      </trkpt>
      <trkpt lat="44.63386" lon="3.80767">
        <ele>1272.6127929688</ele>
        <time>2020-10-16T12:12:15.103Z</time>
      </trkpt>
      <trkpt lat="44.63364" lon="3.80774">
        <ele>1274.3961181641</ele>
        <time>2020-10-16T12:12:18.127Z</time>
      </trkpt>
      <trkpt lat="44.63344" lon="3.80777">
        <ele>1275.5776367188</ele>
        <time>2020-10-16T12:12:21.155Z</time>
      </trkpt>
      <trkpt lat="44.63325" lon="3.80779">
        <ele>1276.5897216797</ele>
        <time>2020-10-16T12:12:24.186Z</time>
      </trkpt>
      <trkpt lat="44.63298" lon="3.80779">
        <ele>1277.9093017578</ele>
        <time>2020-10-16T12:12:27.223Z</time>
      </trkpt>
      <trkpt lat="44.63274" lon="3.80775">
        <ele>1278.4760742188</ele>
        <time>2020-10-16T12:12:30.265Z</time>
      </trkpt>
      <trkpt lat="44.63261" lon="3.80771">
        <ele>1278.8676757812</ele>
        <time>2020-10-16T12:12:33.309Z</time>
      </trkpt>
      <trkpt lat="44.63247" lon="3.80768">
        <ele>1279.1527099609</ele>
        <time>2020-10-16T12:12:36.356Z</time>
      </trkpt>
      <trkpt lat="44.63237" lon="3.80759">
        <ele>1279.0037841797</ele>
        <time>2020-10-16T12:12:39.405Z</time>
      </trkpt>
      <trkpt lat="44.63222" lon="3.80749">
        <ele>1278.8948974609</ele>
        <time>2020-10-16T12:12:42.458Z</time>
      </trkpt>
      <trkpt lat="44.6321" lon="3.80745">
        <ele>1279.1184082031</ele>
        <time>2020-10-16T12:12:45.513Z</time>
      </trkpt>
      <trkpt lat="44.63197" lon="3.80746">
        <ele>1279.5665283203</ele>
        <time>2020-10-16T12:12:48.571Z</time>
      </trkpt>
      <trkpt lat="44.63179" lon="3.8075">
        <ele>1280.1999511719</ele>
        <time>2020-10-16T12:12:51.632Z</time>
      </trkpt>
      <trkpt lat="44.63168" lon="3.80749">
        <ele>1280.0477294922</ele>
        <time>2020-10-16T12:12:54.696Z</time>
      </trkpt>
      <trkpt lat="44.63153" lon="3.80746">
        <ele>1279.7951660156</ele>
        <time>2020-10-16T12:12:57.763Z</time>
      </trkpt>
      <trkpt lat="44.63133" lon="3.80742">
        <ele>1279.4611816406</ele>
        <time>2020-10-16T12:13:00.834Z</time>
      </trkpt>
      <trkpt lat="44.63118" lon="3.80739">
        <ele>1279.2302246094</ele>
        <time>2020-10-16T12:13:03.908Z</time>
      </trkpt>
      <trkpt lat="44.63108" lon="3.80735">
        <ele>1279.3640136719</ele>
        <time>2020-10-16T12:13:06.984Z</time>
      </trkpt>
      <trkpt lat="44.63093" lon="3.80724">
        <ele>1279.4884033203</ele>
        <time>2020-10-16T12:13:10.063Z</time>
      </trkpt>
      <trkpt lat="44.63082" lon="3.80718">
        <ele>1279.5899658203</ele>
        <time>2020-10-16T12:13:13.144Z</time>
      </trkpt>
      <trkpt lat="44.63066" lon="3.80711">
        <ele>1279.7888183594</ele>
        <time>2020-10-16T12:13:16.229Z</time>
      </trkpt>
      <trkpt lat="44.63051" lon="3.80705">
        <ele>1280</ele>
        <time>2020-10-16T12:13:19.317Z</time>
      </trkpt>
      <trkpt lat="44.63035" lon="3.80699">
        <ele>1280.0035400391</ele>
        <time>2020-10-16T12:13:22.408Z</time>
      </trkpt>
      <trkpt lat="44.63032" lon="3.80698">
        <ele>1280.0372314453</ele>
        <time>2020-10-16T12:13:25.500Z</time>
      </trkpt>
      <trkpt lat="44.63023" lon="3.80694">
        <ele>1280.1470947266</ele>
        <time>2020-10-16T12:13:28.594Z</time>
      </trkpt>
      <trkpt lat="44.6301" lon="3.80686">
        <ele>1280.2381591797</ele>
        <time>2020-10-16T12:13:31.691Z</time>
      </trkpt>
      <trkpt lat="44.62998" lon="3.80677">
        <ele>1280.1877441406</ele>
        <time>2020-10-16T12:13:34.790Z</time>
      </trkpt>
      <trkpt lat="44.62988" lon="3.80668">
        <ele>1280.0782470703</ele>
        <time>2020-10-16T12:13:37.892Z</time>
      </trkpt>
      <trkpt lat="44.62979" lon="3.80661">
        <ele>1280.0089111328</ele>
        <time>2020-10-16T12:13:40.996Z</time>
      </trkpt>
      <trkpt lat="44.62961" lon="3.80645">
        <ele>1279.853515625</ele>
        <time>2020-10-16T12:13:44.104Z</time>
      </trkpt>
      <trkpt lat="44.62953" lon="3.80638">
        <ele>1279.7673339844</ele>
        <time>2020-10-16T12:13:47.214Z</time>
      </trkpt>
      <trkpt lat="44.62942" lon="3.80627">
        <ele>1279.4006347656</ele>
        <time>2020-10-16T12:13:50.327Z</time>
      </trkpt>
      <trkpt lat="44.6293" lon="3.80615">
        <ele>1278.9647216797</ele>
        <time>2020-10-16T12:13:53.443Z</time>
      </trkpt>
      <trkpt lat="44.62915" lon="3.806">
        <ele>1278.7287597656</ele>
        <time>2020-10-16T12:13:56.562Z</time>
      </trkpt>
      <trkpt lat="44.62906" lon="3.8059">
        <ele>1279.0133056641</ele>
        <time>2020-10-16T12:13:59.684Z</time>
      </trkpt>
      <trkpt lat="44.62893" lon="3.8057">
        <ele>1279.537109375</ele>
        <time>2020-10-16T12:14:02.810Z</time>
      </trkpt>
      <trkpt lat="44.62882" lon="3.80556">
        <ele>1279.9278564453</ele>
        <time>2020-10-16T12:14:05.939Z</time>
      </trkpt>
      <trkpt lat="44.62869" lon="3.80539">
        <ele>1280.38671875</ele>
        <time>2020-10-16T12:14:09.071Z</time>
      </trkpt>
      <trkpt lat="44.6286" lon="3.80524">
        <ele>1280.7202148438</ele>
        <time>2020-10-16T12:14:12.206Z</time>
      </trkpt>
      <trkpt lat="44.62852" lon="3.80518">
        <ele>1280.8295898438</ele>
        <time>2020-10-16T12:14:15.343Z</time>
      </trkpt>
      <trkpt lat="44.62842" lon="3.80503">
        <ele>1281.4948730469</ele>
        <time>2020-10-16T12:14:18.483Z</time>
      </trkpt>
      <trkpt lat="44.62835" lon="3.80492">
        <ele>1281.9578857422</ele>
        <time>2020-10-16T12:14:21.625Z</time>
      </trkpt>
      <trkpt lat="44.6283" lon="3.80481">
        <ele>1282.4183349609</ele>
        <time>2020-10-16T12:14:24.769Z</time>
      </trkpt>
      <trkpt lat="44.62816" lon="3.80463">
        <ele>1282.9750976562</ele>
        <time>2020-10-16T12:14:27.916Z</time>
      </trkpt>
      <trkpt lat="44.62806" lon="3.80451">
        <ele>1283.3579101562</ele>
        <time>2020-10-16T12:14:31.066Z</time>
      </trkpt>
      <trkpt lat="44.62793" lon="3.80437">
        <ele>1283.7913818359</ele>
        <time>2020-10-16T12:14:34.219Z</time>
      </trkpt>
      <trkpt lat="44.62781" lon="3.80428">
        <ele>1283.8450927734</ele>
        <time>2020-10-16T12:14:37.375Z</time>
      </trkpt>
      <trkpt lat="44.6277" lon="3.80418">
        <ele>1283.8952636719</ele>
        <time>2020-10-16T12:14:40.534Z</time>
      </trkpt>
      <trkpt lat="44.62758" lon="3.80407">
        <ele>1283.9167480469</ele>
        <time>2020-10-16T12:14:43.696Z</time>
      </trkpt>
      <trkpt lat="44.62744" lon="3.80393">
        <ele>1283.9129638672</ele>
        <time>2020-10-16T12:14:46.861Z</time>
      </trkpt>
      <trkpt lat="44.62727" lon="3.80378">
        <ele>1283.9677734375</ele>
        <time>2020-10-16T12:14:50.030Z</time>
      </trkpt>
      <trkpt lat="44.62716" lon="3.80373">
        <ele>1283.8526611328</ele>
        <time>2020-10-16T12:14:53.201Z</time>
      </trkpt>
      <trkpt lat="44.62701" lon="3.80371">
        <ele>1283.3848876953</ele>
        <time>2020-10-16T12:14:56.375Z</time>
      </trkpt>
      <trkpt lat="44.62689" lon="3.80374">
        <ele>1282.6811523438</ele>
        <time>2020-10-16T12:14:59.552Z</time>
      </trkpt>
      <trkpt lat="44.62676" lon="3.80376">
        <ele>1281.9780273438</ele>
        <time>2020-10-16T12:15:02.731Z</time>
      </trkpt>
      <trkpt lat="44.62667" lon="3.80374">
        <ele>1281.6207275391</ele>
        <time>2020-10-16T12:15:05.912Z</time>
      </trkpt>
      <trkpt lat="44.62654" lon="3.80371">
        <ele>1281.1020507812</ele>
        <time>2020-10-16T12:15:09.096Z</time>
      </trkpt>
      <trkpt lat="44.62639" lon="3.80366">
        <ele>1280.5980224609</ele>
        <time>2020-10-16T12:15:12.283Z</time>
      </trkpt>
      <trkpt lat="44.62621" lon="3.8036">
        <ele>1279.9240722656</ele>
        <time>2020-10-16T12:15:15.474Z</time>
      </trkpt>
      <trkpt lat="44.62607" lon="3.80356">
        <ele>1279.8386230469</ele>
        <time>2020-10-16T12:15:18.667Z</time>
      </trkpt>
      <trkpt lat="44.62593" lon="3.80351">
        <ele>1279.6433105469</ele>
        <time>2020-10-16T12:15:21.863Z</time>
      </trkpt>
      <trkpt lat="44.62582" lon="3.80346">
        <ele>1279.4490966797</ele>
        <time>2020-10-16T12:15:25.062Z</time>
      </trkpt>
      <trkpt lat="44.62571" lon="3.80344">
        <ele>1279.2978515625</ele>
        <time>2020-10-16T12:15:28.263Z</time>
      </trkpt>
      <trkpt lat="44.6256" lon="3.80336">
        <ele>1279.0555419922</ele>
        <time>2020-10-16T12:15:31.466Z</time>
      </trkpt>
      <trkpt lat="44.62547" lon="3.80327">
        <ele>1278.7947998047</ele>
        <time>2020-10-16T12:15:34.672Z</time>
      </trkpt>
      <trkpt lat="44.62533" lon="3.80318">
        <ele>1278.7083740234</ele>
        <time>2020-10-16T12:15:37.881Z</time>
      </trkpt>
      <trkpt lat="44.6252" lon="3.80312">
        <ele>1279.6098632812</ele>
        <time>2020-10-16T12:15:41.093Z</time>
      </trkpt>
      <trkpt lat="44.62508" lon="3.80309">
        <ele>1280.4384765625</ele>
        <time>2020-10-16T12:15:44.308Z</time>
      </trkpt>
      <trkpt lat="44.62493" lon="3.80311">
        <ele>1281.529296875</ele>
        <time>2020-10-16T12:15:47.526Z</time>
      </trkpt>
      <trkpt lat="44.62482" lon="3.80314">
        <ele>1281.9119873047</ele>
        <time>2020-10-16T12:15:50.746Z</time>
      </trkpt>
      <trkpt lat="44.62473" lon="3.80315">
        <ele>1282.2126464844</ele>
        <time>2020-10-16T12:15:53.968Z</time>
      </trkpt>
      <trkpt lat="44.62464" lon="3.8031">
        <ele>1282.6387939453</ele>
        <time>2020-10-16T12:15:57.191Z</time>
      </trkpt>
      <trkpt lat="44.62452" lon="3.80302">
        <ele>1283.2781982422</ele>
        <time>2020-10-16T12:16:00.417Z</time>
      </trkpt>
      <trkpt lat="44.62442" lon="3.80295">
        <ele>1284.6519775391</ele>
        <time>2020-10-16T12:16:03.645Z</time>
      </trkpt>
      <trkpt lat="44.62436" lon="3.80288">
        <ele>1285.5354003906</ele>
        <time>2020-10-16T12:16:06.875Z</time>
      </trkpt>
      <trkpt lat="44.62421" lon="3.80279">
        <ele>1287.5609130859</ele>
        <time>2020-10-16T12:16:10.108Z</time>
      </trkpt>
      <trkpt lat="44.62402" lon="3.80267">
        <ele>1290.0297851562</ele>
        <time>2020-10-16T12:16:13.345Z</time>
      </trkpt>
      <trkpt lat="44.62393" lon="3.80263">
        <ele>1291.2419433594</ele>
        <time>2020-10-16T12:16:16.584Z</time>
      </trkpt>
      <trkpt lat="44.62385" lon="3.80258">
        <ele>1292.2507324219</ele>
        <time>2020-10-16T12:16:19.825Z</time>
      </trkpt>
      <trkpt lat="44.62378" lon="3.80251">
        <ele>1293.1491699219</ele>
        <time>2020-10-16T12:16:23.068Z</time>
      </trkpt>
      <trkpt lat="44.62372" lon="3.80241">
        <ele>1293.9487304688</ele>
        <time>2020-10-16T12:16:26.313Z</time>
      </trkpt>
      <trkpt lat="44.62379" lon="3.80227">
        <ele>1293.3643798828</ele>
        <time>2020-10-16T12:16:29.560Z</time>
      </trkpt>
      <trkpt lat="44.62381" lon="3.80205">
        <ele>1293.314453125</ele>
        <time>2020-10-16T12:16:32.810Z</time>
      </trkpt>
      <trkpt lat="44.62381" lon="3.80189">
        <ele>1293.3082275391</ele>
        <time>2020-10-16T12:16:36.062Z</time>
      </trkpt>
      <trkpt lat="44.62368" lon="3.80174">
        <ele>1294.8829345703</ele>
        <time>2020-10-16T12:16:39.318Z</time>
      </trkpt>
      <trkpt lat="44.62355" lon="3.80163">
        <ele>1295.9819335938</ele>
        <time>2020-10-16T12:16:42.577Z</time>
      </trkpt>
      <trkpt lat="44.62342" lon="3.80154">
        <ele>1297.1684570312</ele>
        <time>2020-10-16T12:16:45.839Z</time>
      </trkpt>
      <trkpt lat="44.62333" lon="3.80141">
        <ele>1297.8248291016</ele>
        <time>2020-10-16T12:16:49.103Z</time>
      </trkpt>
      <trkpt lat="44.62322" lon="3.80119">
        <ele>1298.6408691406</ele>
        <time>2020-10-16T12:16:52.371Z</time>
      </trkpt>
      <trkpt lat="44.62319" lon="3.80099">
        <ele>1298.3181152344</ele>
        <time>2020-10-16T12:16:55.642Z</time>
      </trkpt>
      <trkpt lat="44.6232" lon="3.80072">
        <ele>1295.9627685547</ele>
        <time>2020-10-16T12:16:58.917Z</time>
      </trkpt>
      <trkpt lat="44.62316" lon="3.80052">
        <ele>1294.6141357422</ele>
        <time>2020-10-16T12:17:02.195Z</time>
      </trkpt>
      <trkpt lat="44.62304" lon="3.8003">
        <ele>1294.2717285156</ele>
        <time>2020-10-16T12:17:05.477Z</time>
      </trkpt>
      <trkpt lat="44.62288" lon="3.80004">
        <ele>1291.8127441406</ele>
        <time>2020-10-16T12:17:08.764Z</time>
      </trkpt>
      <trkpt lat="44.62276" lon="3.79982">
        <ele>1290.2722167969</ele>
        <time>2020-10-16T12:17:12.055Z</time>
      </trkpt>
      <trkpt lat="44.62268" lon="3.79964">
        <ele>1288.8050537109</ele>
        <time>2020-10-16T12:17:15.349Z</time>
      </trkpt>
      <trkpt lat="44.62265" lon="3.79957">
        <ele>1288.3698730469</ele>
        <time>2020-10-16T12:17:18.644Z</time>
      </trkpt>
      <trkpt lat="44.62254" lon="3.79947">
        <ele>1288.919921875</ele>
        <time>2020-10-16T12:17:21.941Z</time>
      </trkpt>
      <trkpt lat="44.62253" lon="3.79946">
        <ele>1288.9405517578</ele>
        <time>2020-10-16T12:17:25.239Z</time>
      </trkpt>
      <trkpt lat="44.62247" lon="3.79939">
        <ele>1289.0760498047</ele>
        <time>2020-10-16T12:17:28.538Z</time>
      </trkpt>
      <trkpt lat="44.62234" lon="3.79919">
        <ele>1289.216796875</ele>
        <time>2020-10-16T12:17:31.841Z</time>
      </trkpt>
      <trkpt lat="44.62225" lon="3.79898">
        <ele>1288.4486083984</ele>
        <time>2020-10-16T12:17:35.148Z</time>
      </trkpt>
      <trkpt lat="44.62217" lon="3.79874">
        <ele>1287.2666015625</ele>
        <time>2020-10-16T12:17:38.458Z</time>
      </trkpt>
      <trkpt lat="44.62205" lon="3.79858">
        <ele>1287.779296875</ele>
        <time>2020-10-16T12:17:41.772Z</time>
      </trkpt>
      <trkpt lat="44.62193" lon="3.79833">
        <ele>1285.8640136719</ele>
        <time>2020-10-16T12:17:45.090Z</time>
      </trkpt>
      <trkpt lat="44.62173" lon="3.79784">
        <ele>1281.2493896484</ele>
        <time>2020-10-16T12:17:48.416Z</time>
      </trkpt>
      <trkpt lat="44.62154" lon="3.79746">
        <ele>1274.0150146484</ele>
        <time>2020-10-16T12:17:51.749Z</time>
      </trkpt>
      <trkpt lat="44.62147" lon="3.7973">
        <ele>1270.0256347656</ele>
        <time>2020-10-16T12:17:55.084Z</time>
      </trkpt>
      <trkpt lat="44.62139" lon="3.79703">
        <ele>1262.8208007812</ele>
        <time>2020-10-16T12:17:58.424Z</time>
      </trkpt>
      <trkpt lat="44.62125" lon="3.79678">
        <ele>1257.4368896484</ele>
        <time>2020-10-16T12:18:01.768Z</time>
      </trkpt>
      <trkpt lat="44.62103" lon="3.79652">
        <ele>1253.5035400391</ele>
        <time>2020-10-16T12:18:05.118Z</time>
      </trkpt>
      <trkpt lat="44.62095" lon="3.79641">
        <ele>1251.7171630859</ele>
        <time>2020-10-16T12:18:08.470Z</time>
      </trkpt>
      <trkpt lat="44.62085" lon="3.79638">
        <ele>1252.3182373047</ele>
        <time>2020-10-16T12:18:11.824Z</time>
      </trkpt>
      <trkpt lat="44.62067" lon="3.79632">
        <ele>1253.5346679688</ele>
        <time>2020-10-16T12:18:15.182Z</time>
      </trkpt>
      <trkpt lat="44.6202" lon="3.79619">
        <ele>1258.1751708984</ele>
        <time>2020-10-16T12:18:18.550Z</time>
      </trkpt>
      <trkpt lat="44.61975" lon="3.79606">
        <ele>1266.4193115234</ele>
        <time>2020-10-16T12:18:21.927Z</time>
      </trkpt>
      <trkpt lat="44.61968" lon="3.79604">
        <ele>1267.7036132812</ele>
        <time>2020-10-16T12:18:25.305Z</time>
      </trkpt>
      <trkpt lat="44.61962" lon="3.796">
        <ele>1268.2774658203</ele>
        <time>2020-10-16T12:18:28.684Z</time>
      </trkpt>
      <trkpt lat="44.61956" lon="3.79592">
        <ele>1268.0501708984</ele>
        <time>2020-10-16T12:18:32.065Z</time>
      </trkpt>
      <trkpt lat="44.61939" lon="3.7956">
        <ele>1265.4503173828</ele>
        <time>2020-10-16T12:18:35.452Z</time>
      </trkpt>
      <trkpt lat="44.6193" lon="3.79544">
        <ele>1264.529296875</ele>
        <time>2020-10-16T12:18:38.842Z</time>
      </trkpt>
      <trkpt lat="44.61922" lon="3.79535">
        <ele>1264.5828857422</ele>
        <time>2020-10-16T12:18:42.234Z</time>
      </trkpt>
      <trkpt lat="44.61915" lon="3.79527">
        <ele>1264.8582763672</ele>
        <time>2020-10-16T12:18:45.627Z</time>
      </trkpt>
      <trkpt lat="44.61907" lon="3.79519">
        <ele>1265.1171875</ele>
        <time>2020-10-16T12:18:49.022Z</time>
      </trkpt>
      <trkpt lat="44.61894" lon="3.79503">
        <ele>1265.2161865234</ele>
        <time>2020-10-16T12:18:52.421Z</time>
      </trkpt>
      <trkpt lat="44.6186" lon="3.79472">
        <ele>1265.4986572266</ele>
        <time>2020-10-16T12:18:55.828Z</time>
      </trkpt>
      <trkpt lat="44.61814" lon="3.79427">
        <ele>1260.6899414062</ele>
        <time>2020-10-16T12:18:59.246Z</time>
      </trkpt>
      <trkpt lat="44.61807" lon="3.79421">
        <ele>1260.1262207031</ele>
        <time>2020-10-16T12:19:02.666Z</time>
      </trkpt>
      <trkpt lat="44.61792" lon="3.79407">
        <ele>1258.9683837891</ele>
        <time>2020-10-16T12:19:06.090Z</time>
      </trkpt>
      <trkpt lat="44.61784" lon="3.794">
        <ele>1258.2043457031</ele>
        <time>2020-10-16T12:19:09.515Z</time>
      </trkpt>
      <trkpt lat="44.61775" lon="3.79394">
        <ele>1256.7966308594</ele>
        <time>2020-10-16T12:19:12.942Z</time>
      </trkpt>
      <trkpt lat="44.61765" lon="3.79388">
        <ele>1255.5838623047</ele>
        <time>2020-10-16T12:19:16.372Z</time>
      </trkpt>
      <trkpt lat="44.61754" lon="3.79384">
        <ele>1254.5489501953</ele>
        <time>2020-10-16T12:19:19.804Z</time>
      </trkpt>
      <trkpt lat="44.61742" lon="3.79381">
        <ele>1253.8449707031</ele>
        <time>2020-10-16T12:19:23.238Z</time>
      </trkpt>
      <trkpt lat="44.61725" lon="3.7938">
        <ele>1253.4381103516</ele>
        <time>2020-10-16T12:19:26.676Z</time>
      </trkpt>
      <trkpt lat="44.61716" lon="3.7938">
        <ele>1252.6702880859</ele>
        <time>2020-10-16T12:19:30.115Z</time>
      </trkpt>
      <trkpt lat="44.61708" lon="3.79381">
        <ele>1251.9986572266</ele>
        <time>2020-10-16T12:19:33.556Z</time>
      </trkpt>
      <trkpt lat="44.61699" lon="3.79384">
        <ele>1251.7420654297</ele>
        <time>2020-10-16T12:19:36.999Z</time>
      </trkpt>
      <trkpt lat="44.61691" lon="3.7939">
        <ele>1252.1904296875</ele>
        <time>2020-10-16T12:19:40.444Z</time>
      </trkpt>
      <trkpt lat="44.61683" lon="3.79396">
        <ele>1252.7067871094</ele>
        <time>2020-10-16T12:19:43.890Z</time>
      </trkpt>
      <trkpt lat="44.61676" lon="3.79402">
        <ele>1253.2138671875</ele>
        <time>2020-10-16T12:19:47.338Z</time>
      </trkpt>
      <trkpt lat="44.61668" lon="3.79407">
        <ele>1253.6751708984</ele>
        <time>2020-10-16T12:19:50.788Z</time>
      </trkpt>
      <trkpt lat="44.6166" lon="3.79413">
        <ele>1253.9351806641</ele>
        <time>2020-10-16T12:19:54.240Z</time>
      </trkpt>
      <trkpt lat="44.61653" lon="3.79416">
        <ele>1254.0076904297</ele>
        <time>2020-10-16T12:19:57.693Z</time>
      </trkpt>
      <trkpt lat="44.61642" lon="3.7942">
        <ele>1253.8984375</ele>
        <time>2020-10-16T12:20:01.148Z</time>
      </trkpt>
      <trkpt lat="44.61632" lon="3.79422">
        <ele>1253.7133789062</ele>
        <time>2020-10-16T12:20:04.606Z</time>
      </trkpt>
      <trkpt lat="44.6162" lon="3.79425">
        <ele>1253.5074462891</ele>
        <time>2020-10-16T12:20:08.066Z</time>
      </trkpt>
      <trkpt lat="44.6161" lon="3.79428">
        <ele>1254.9063720703</ele>
        <time>2020-10-16T12:20:11.528Z</time>
      </trkpt>
      <trkpt lat="44.61595" lon="3.79431">
        <ele>1255.2874755859</ele>
        <time>2020-10-16T12:20:14.993Z</time>
      </trkpt>
      <trkpt lat="44.61586" lon="3.79434">
        <ele>1255.3863525391</ele>
        <time>2020-10-16T12:20:18.460Z</time>
      </trkpt>
      <trkpt lat="44.61579" lon="3.79437">
        <ele>1255.4759521484</ele>
        <time>2020-10-16T12:20:21.928Z</time>
      </trkpt>
      <trkpt lat="44.61572" lon="3.79442">
        <ele>1256.1065673828</ele>
        <time>2020-10-16T12:20:25.398Z</time>
      </trkpt>
      <trkpt lat="44.61565" lon="3.79446">
        <ele>1256.8536376953</ele>
        <time>2020-10-16T12:20:28.870Z</time>
      </trkpt>
      <trkpt lat="44.61558" lon="3.79449">
        <ele>1257.4318847656</ele>
        <time>2020-10-16T12:20:32.343Z</time>
      </trkpt>
      <trkpt lat="44.61549" lon="3.79451">
        <ele>1257.8486328125</ele>
        <time>2020-10-16T12:20:35.818Z</time>
      </trkpt>
      <trkpt lat="44.61542" lon="3.79452">
        <ele>1258.2373046875</ele>
        <time>2020-10-16T12:20:39.294Z</time>
      </trkpt>
      <trkpt lat="44.61535" lon="3.79452">
        <ele>1258.4158935547</ele>
        <time>2020-10-16T12:20:42.772Z</time>
      </trkpt>
      <trkpt lat="44.61528" lon="3.79451">
        <ele>1258.6394042969</ele>
        <time>2020-10-16T12:20:46.251Z</time>
      </trkpt>
      <trkpt lat="44.61521" lon="3.7945">
        <ele>1258.84375</ele>
        <time>2020-10-16T12:20:49.731Z</time>
      </trkpt>
      <trkpt lat="44.61514" lon="3.79449">
        <ele>1259.0395507812</ele>
        <time>2020-10-16T12:20:53.213Z</time>
      </trkpt>
      <trkpt lat="44.61507" lon="3.79449">
        <ele>1259.2567138672</ele>
        <time>2020-10-16T12:20:56.696Z</time>
      </trkpt>
      <trkpt lat="44.61501" lon="3.79448">
        <ele>1259.4202880859</ele>
        <time>2020-10-16T12:21:00.180Z</time>
      </trkpt>
      <trkpt lat="44.61495" lon="3.79447">
        <ele>1259.4979248047</ele>
        <time>2020-10-16T12:21:03.666Z</time>
      </trkpt>
      <trkpt lat="44.6149" lon="3.79444">
        <ele>1259.2897949219</ele>
        <time>2020-10-16T12:21:07.153Z</time>
      </trkpt>
      <trkpt lat="44.61486" lon="3.79439">
        <ele>1258.5531005859</ele>
        <time>2020-10-16T12:21:10.641Z</time>
      </trkpt>
      <trkpt lat="44.61484" lon="3.79433">
        <ele>1258.7014160156</ele>
        <time>2020-10-16T12:21:14.130Z</time>
      </trkpt>
      <trkpt lat="44.61484" lon="3.79426">
        <ele>1259.0504150391</ele>
        <time>2020-10-16T12:21:17.620Z</time>
      </trkpt>
      <trkpt lat="44.61484" lon="3.79417">
        <ele>1259.5017089844</ele>
        <time>2020-10-16T12:21:21.111Z</time>
      </trkpt>
      <trkpt lat="44.61484" lon="3.7941">
        <ele>1259.8140869141</ele>
        <time>2020-10-16T12:21:24.603Z</time>
      </trkpt>
      <trkpt lat="44.61486" lon="3.79406">
        <ele>1259.9434814453</ele>
        <time>2020-10-16T12:21:28.096Z</time>
      </trkpt>
      <trkpt lat="44.61488" lon="3.79402">
        <ele>1260.0330810547</ele>
        <time>2020-10-16T12:21:31.589Z</time>
      </trkpt>
      <trkpt lat="44.61491" lon="3.79398">
        <ele>1260.0606689453</ele>
        <time>2020-10-16T12:21:35.083Z</time>
      </trkpt>
      <trkpt lat="44.61496" lon="3.79394">
        <ele>1259.7526855469</ele>
        <time>2020-10-16T12:21:38.578Z</time>
      </trkpt>
      <trkpt lat="44.61501" lon="3.7939">
        <ele>1259.2651367188</ele>
        <time>2020-10-16T12:21:42.075Z</time>
      </trkpt>
      <trkpt lat="44.61507" lon="3.79387">
        <ele>1258.7259521484</ele>
        <time>2020-10-16T12:21:45.573Z</time>
      </trkpt>
      <trkpt lat="44.61513" lon="3.79384">
        <ele>1258.1723632812</ele>
        <time>2020-10-16T12:21:49.072Z</time>
      </trkpt>
      <trkpt lat="44.61518" lon="3.7938">
        <ele>1257.6400146484</ele>
        <time>2020-10-16T12:21:52.572Z</time>
      </trkpt>
      <trkpt lat="44.61524" lon="3.79375">
        <ele>1257.1198730469</ele>
        <time>2020-10-16T12:21:56.074Z</time>
      </trkpt>
      <trkpt lat="44.61529" lon="3.79369">
        <ele>1256.6462402344</ele>
        <time>2020-10-16T12:21:59.577Z</time>
      </trkpt>
      <trkpt lat="44.61533" lon="3.79362">
        <ele>1256.2354736328</ele>
        <time>2020-10-16T12:22:03.081Z</time>
      </trkpt>
      <trkpt lat="44.61536" lon="3.79354">
        <ele>1255.8115234375</ele>
        <time>2020-10-16T12:22:06.586Z</time>
      </trkpt>
      <trkpt lat="44.61538" lon="3.79345">
        <ele>1254.9892578125</ele>
        <time>2020-10-16T12:22:10.093Z</time>
      </trkpt>
      <trkpt lat="44.61539" lon="3.79335">
        <ele>1254.3797607422</ele>
        <time>2020-10-16T12:22:13.601Z</time>
      </trkpt>
      <trkpt lat="44.61537" lon="3.79326">
        <ele>1254.0686035156</ele>
        <time>2020-10-16T12:22:17.111Z</time>
      </trkpt>
      <trkpt lat="44.61533" lon="3.79318">
        <ele>1253.9715576172</ele>
        <time>2020-10-16T12:22:20.622Z</time>
      </trkpt>
      <trkpt lat="44.61528" lon="3.79311">
        <ele>1254.0267333984</ele>
        <time>2020-10-16T12:22:24.134Z</time>
      </trkpt>
      <trkpt lat="44.61521" lon="3.79306">
        <ele>1254.2434082031</ele>
        <time>2020-10-16T12:22:27.648Z</time>
      </trkpt>
      <trkpt lat="44.61515" lon="3.79302">
        <ele>1254.5308837891</ele>
        <time>2020-10-16T12:22:31.163Z</time>
      </trkpt>
      <trkpt lat="44.61508" lon="3.79298">
        <ele>1254.9176025391</ele>
        <time>2020-10-16T12:22:34.680Z</time>
      </trkpt>
      <trkpt lat="44.61501" lon="3.79295">
        <ele>1255.3021240234</ele>
        <time>2020-10-16T12:22:38.198Z</time>
      </trkpt>
      <trkpt lat="44.61494" lon="3.79291">
        <ele>1255.6724853516</ele>
        <time>2020-10-16T12:22:41.718Z</time>
      </trkpt>
      <trkpt lat="44.61487" lon="3.79288">
        <ele>1256.0408935547</ele>
        <time>2020-10-16T12:22:45.239Z</time>
      </trkpt>
      <trkpt lat="44.61479" lon="3.79285">
        <ele>1256.5080566406</ele>
        <time>2020-10-16T12:22:48.762Z</time>
      </trkpt>
      <trkpt lat="44.61472" lon="3.79282">
        <ele>1256.9293212891</ele>
        <time>2020-10-16T12:22:52.286Z</time>
      </trkpt>
      <trkpt lat="44.61464" lon="3.79278">
        <ele>1257.3448486328</ele>
        <time>2020-10-16T12:22:55.812Z</time>
      </trkpt>
      <trkpt lat="44.61456" lon="3.79274">
        <ele>1257.8087158203</ele>
        <time>2020-10-16T12:22:59.340Z</time>
      </trkpt>
      <trkpt lat="44.61448" lon="3.79271">
        <ele>1258.4979248047</ele>
        <time>2020-10-16T12:23:02.869Z</time>
      </trkpt>
      <trkpt lat="44.61433" lon="3.79264">
        <ele>1259.9768066406</ele>
        <time>2020-10-16T12:23:06.402Z</time>
      </trkpt>
      <trkpt lat="44.61425" lon="3.7926">
        <ele>1260.7297363281</ele>
        <time>2020-10-16T12:23:09.936Z</time>
      </trkpt>
      <trkpt lat="44.61418" lon="3.79256">
        <ele>1261.1661376953</ele>
        <time>2020-10-16T12:23:13.472Z</time>
      </trkpt>
      <trkpt lat="44.61411" lon="3.79251">
        <ele>1261.6593017578</ele>
        <time>2020-10-16T12:23:17.009Z</time>
      </trkpt>
      <trkpt lat="44.61405" lon="3.79246">
        <ele>1261.9875488281</ele>
        <time>2020-10-16T12:23:20.548Z</time>
      </trkpt>
      <trkpt lat="44.61398" lon="3.7924">
        <ele>1262.1458740234</ele>
        <time>2020-10-16T12:23:24.088Z</time>
      </trkpt>
      <trkpt lat="44.61393" lon="3.79234">
        <ele>1262.3482666016</ele>
        <time>2020-10-16T12:23:27.630Z</time>
      </trkpt>
      <trkpt lat="44.61386" lon="3.79228">
        <ele>1262.5718994141</ele>
        <time>2020-10-16T12:23:31.173Z</time>
      </trkpt>
      <trkpt lat="44.6138" lon="3.79222">
        <ele>1262.7291259766</ele>
        <time>2020-10-16T12:23:34.718Z</time>
      </trkpt>
      <trkpt lat="44.61373" lon="3.79216">
        <ele>1262.8872070312</ele>
        <time>2020-10-16T12:23:38.264Z</time>
      </trkpt>
      <trkpt lat="44.61364" lon="3.79207">
        <ele>1263.2287597656</ele>
        <time>2020-10-16T12:23:41.813Z</time>
      </trkpt>
      <trkpt lat="44.61353" lon="3.79199">
        <ele>1263.6829833984</ele>
        <time>2020-10-16T12:23:45.364Z</time>
      </trkpt>
      <trkpt lat="44.6134" lon="3.7919">
        <ele>1264.3609619141</ele>
        <time>2020-10-16T12:23:48.918Z</time>
      </trkpt>
      <trkpt lat="44.61324" lon="3.79181">
        <ele>1266.1594238281</ele>
        <time>2020-10-16T12:23:52.476Z</time>
      </trkpt>
      <trkpt lat="44.61303" lon="3.79166">
        <ele>1268.6726074219</ele>
        <time>2020-10-16T12:23:56.038Z</time>
      </trkpt>
      <trkpt lat="44.6128" lon="3.79152">
        <ele>1270.8811035156</ele>
        <time>2020-10-16T12:23:59.605Z</time>
      </trkpt>
      <trkpt lat="44.61273" lon="3.79148">
        <ele>1270.9768066406</ele>
        <time>2020-10-16T12:24:03.174Z</time>
      </trkpt>
      <trkpt lat="44.61266" lon="3.79143">
        <ele>1271.0809326172</ele>
        <time>2020-10-16T12:24:06.744Z</time>
      </trkpt>
      <trkpt lat="44.61252" lon="3.79135">
        <ele>1271.2709960938</ele>
        <time>2020-10-16T12:24:10.317Z</time>
      </trkpt>
      <trkpt lat="44.61246" lon="3.79132">
        <ele>1271.3557128906</ele>
        <time>2020-10-16T12:24:13.892Z</time>
      </trkpt>
      <trkpt lat="44.61233" lon="3.79124">
        <ele>1271.5570068359</ele>
        <time>2020-10-16T12:24:17.469Z</time>
      </trkpt>
      <trkpt lat="44.61227" lon="3.7912">
        <ele>1271.6744384766</ele>
        <time>2020-10-16T12:24:21.048Z</time>
      </trkpt>
      <trkpt lat="44.61219" lon="3.79117">
        <ele>1271.81640625</ele>
        <time>2020-10-16T12:24:24.628Z</time>
      </trkpt>
      <trkpt lat="44.61212" lon="3.79115">
        <ele>1271.9766845703</ele>
        <time>2020-10-16T12:24:28.210Z</time>
      </trkpt>
      <trkpt lat="44.61199" lon="3.79111">
        <ele>1273.0346679688</ele>
        <time>2020-10-16T12:24:31.795Z</time>
      </trkpt>
      <trkpt lat="44.61183" lon="3.79107">
        <ele>1273.8367919922</ele>
        <time>2020-10-16T12:24:35.383Z</time>
      </trkpt>
      <trkpt lat="44.61161" lon="3.79101">
        <ele>1275.4025878906</ele>
        <time>2020-10-16T12:24:38.975Z</time>
      </trkpt>
      <trkpt lat="44.61142" lon="3.79096">
        <ele>1277.0242919922</ele>
        <time>2020-10-16T12:24:42.571Z</time>
      </trkpt>
      <trkpt lat="44.61124" lon="3.79092">
        <ele>1278.5467529297</ele>
        <time>2020-10-16T12:24:46.171Z</time>
      </trkpt>
      <trkpt lat="44.61112" lon="3.79088">
        <ele>1279.6527099609</ele>
        <time>2020-10-16T12:24:49.773Z</time>
      </trkpt>
      <trkpt lat="44.61104" lon="3.79086">
        <ele>1280.3798828125</ele>
        <time>2020-10-16T12:24:53.377Z</time>
      </trkpt>
      <trkpt lat="44.61099" lon="3.79083">
        <ele>1280.8680419922</ele>
        <time>2020-10-16T12:24:56.982Z</time>
      </trkpt>
      <trkpt lat="44.61093" lon="3.79078">
        <ele>1281.4113769531</ele>
        <time>2020-10-16T12:25:00.588Z</time>
      </trkpt>
      <trkpt lat="44.61082" lon="3.79066">
        <ele>1282.5194091797</ele>
        <time>2020-10-16T12:25:04.197Z</time>
      </trkpt>
      <trkpt lat="44.61068" lon="3.79051">
        <ele>1283.8762207031</ele>
        <time>2020-10-16T12:25:07.810Z</time>
      </trkpt>
      <trkpt lat="44.61062" lon="3.79046">
        <ele>1284.3966064453</ele>
        <time>2020-10-16T12:25:11.424Z</time>
      </trkpt>
      <trkpt lat="44.61057" lon="3.79041">
        <ele>1284.8946533203</ele>
        <time>2020-10-16T12:25:15.039Z</time>
      </trkpt>
      <trkpt lat="44.61053" lon="3.79036">
        <ele>1285.3012695312</ele>
        <time>2020-10-16T12:25:18.655Z</time>
      </trkpt>
      <trkpt lat="44.61049" lon="3.79032">
        <ele>1285.6400146484</ele>
        <time>2020-10-16T12:25:22.272Z</time>
      </trkpt>
      <trkpt lat="44.61047" lon="3.79027">
        <ele>1285.8985595703</ele>
        <time>2020-10-16T12:25:25.890Z</time>
      </trkpt>
      <trkpt lat="44.61045" lon="3.79022">
        <ele>1286.0208740234</ele>
        <time>2020-10-16T12:25:29.509Z</time>
      </trkpt>
      <trkpt lat="44.61045" lon="3.79017">
        <ele>1287.0987548828</ele>
        <time>2020-10-16T12:25:33.129Z</time>
      </trkpt>
      <trkpt lat="44.61046" lon="3.7901">
        <ele>1288.3345947266</ele>
        <time>2020-10-16T12:25:36.750Z</time>
      </trkpt>
      <trkpt lat="44.61048" lon="3.79003">
        <ele>1289.4979248047</ele>
        <time>2020-10-16T12:25:40.372Z</time>
      </trkpt>
      <trkpt lat="44.6105" lon="3.79001">
        <ele>1289.8453369141</ele>
        <time>2020-10-16T12:25:43.994Z</time>
      </trkpt>
      <trkpt lat="44.61051" lon="3.78998">
        <ele>1290.2487792969</ele>
        <time>2020-10-16T12:25:47.617Z</time>
      </trkpt>
      <trkpt lat="44.61056" lon="3.78995">
        <ele>1290.4885253906</ele>
        <time>2020-10-16T12:25:51.241Z</time>
      </trkpt>
      <trkpt lat="44.61062" lon="3.78992">
        <ele>1290.3861083984</ele>
        <time>2020-10-16T12:25:54.866Z</time>
      </trkpt>
      <trkpt lat="44.61068" lon="3.78992">
        <ele>1289.9705810547</ele>
        <time>2020-10-16T12:25:58.492Z</time>
      </trkpt>
      <trkpt lat="44.61074" lon="3.78991">
        <ele>1289.3858642578</ele>
        <time>2020-10-16T12:26:02.119Z</time>
      </trkpt>
      <trkpt lat="44.61081" lon="3.78992">
        <ele>1288.6168212891</ele>
        <time>2020-10-16T12:26:05.748Z</time>
      </trkpt>
      <trkpt lat="44.61088" lon="3.78993">
        <ele>1287.7270507812</ele>
        <time>2020-10-16T12:26:09.378Z</time>
      </trkpt>
      <trkpt lat="44.61095" lon="3.78995">
        <ele>1286.9278564453</ele>
        <time>2020-10-16T12:26:13.010Z</time>
      </trkpt>
      <trkpt lat="44.61102" lon="3.78996">
        <ele>1286.1459960938</ele>
        <time>2020-10-16T12:26:16.643Z</time>
      </trkpt>
      <trkpt lat="44.61109" lon="3.78998">
        <ele>1285.3498535156</ele>
        <time>2020-10-16T12:26:20.277Z</time>
      </trkpt>
      <trkpt lat="44.61116" lon="3.79">
        <ele>1284.5345458984</ele>
        <time>2020-10-16T12:26:23.913Z</time>
      </trkpt>
      <trkpt lat="44.61123" lon="3.79002">
        <ele>1284.0498046875</ele>
        <time>2020-10-16T12:26:27.550Z</time>
      </trkpt>
      <trkpt lat="44.6113" lon="3.79003">
        <ele>1283.8364257812</ele>
        <time>2020-10-16T12:26:31.189Z</time>
      </trkpt>
      <trkpt lat="44.61137" lon="3.79003">
        <ele>1283.8815917969</ele>
        <time>2020-10-16T12:26:34.829Z</time>
      </trkpt>
      <trkpt lat="44.61145" lon="3.79002">
        <ele>1284.1900634766</ele>
        <time>2020-10-16T12:26:38.471Z</time>
      </trkpt>
      <trkpt lat="44.61152" lon="3.79001">
        <ele>1284.6766357422</ele>
        <time>2020-10-16T12:26:42.114Z</time>
      </trkpt>
      <trkpt lat="44.61159" lon="3.78999">
        <ele>1285.26171875</ele>
        <time>2020-10-16T12:26:45.759Z</time>
      </trkpt>
      <trkpt lat="44.61166" lon="3.78996">
        <ele>1285.9135742188</ele>
        <time>2020-10-16T12:26:49.405Z</time>
      </trkpt>
      <trkpt lat="44.61173" lon="3.78994">
        <ele>1286.6380615234</ele>
        <time>2020-10-16T12:26:53.053Z</time>
      </trkpt>
      <trkpt lat="44.6118" lon="3.78991">
        <ele>1287.1807861328</ele>
        <time>2020-10-16T12:26:56.702Z</time>
      </trkpt>
      <trkpt lat="44.61187" lon="3.78986">
        <ele>1287.9815673828</ele>
        <time>2020-10-16T12:27:00.352Z</time>
      </trkpt>
      <trkpt lat="44.61193" lon="3.7898">
        <ele>1289.1408691406</ele>
        <time>2020-10-16T12:27:04.004Z</time>
      </trkpt>
      <trkpt lat="44.61198" lon="3.78973">
        <ele>1290.6201171875</ele>
        <time>2020-10-16T12:27:07.657Z</time>
      </trkpt>
      <trkpt lat="44.61203" lon="3.78964">
        <ele>1292.3415527344</ele>
        <time>2020-10-16T12:27:11.312Z</time>
      </trkpt>
      <trkpt lat="44.61206" lon="3.78955">
        <ele>1294.2611083984</ele>
        <time>2020-10-16T12:27:14.968Z</time>
      </trkpt>
      <trkpt lat="44.61209" lon="3.78946">
        <ele>1296.2622070312</ele>
        <time>2020-10-16T12:27:18.626Z</time>
      </trkpt>
      <trkpt lat="44.61211" lon="3.78936">
        <ele>1297.2543945312</ele>
        <time>2020-10-16T12:27:22.285Z</time>
      </trkpt>
      <trkpt lat="44.61213" lon="3.78926">
        <ele>1298.7100830078</ele>
        <time>2020-10-16T12:27:25.946Z</time>
      </trkpt>
      <trkpt lat="44.61215" lon="3.78916">
        <ele>1300.21484375</ele>
        <time>2020-10-16T12:27:29.608Z</time>
      </trkpt>
      <trkpt lat="44.61216" lon="3.78906">
        <ele>1301.6979980469</ele>
        <time>2020-10-16T12:27:33.272Z</time>
      </trkpt>
      <trkpt lat="44.61221" lon="3.78876">
        <ele>1306.1143798828</ele>
        <time>2020-10-16T12:27:36.940Z</time>
      </trkpt>
      <trkpt lat="44.61223" lon="3.78866">
        <ele>1306.4694824219</ele>
        <time>2020-10-16T12:27:40.610Z</time>
      </trkpt>
      <trkpt lat="44.61225" lon="3.78857">
        <ele>1306.5969238281</ele>
        <time>2020-10-16T12:27:44.281Z</time>
      </trkpt>
      <trkpt lat="44.61228" lon="3.78847">
        <ele>1306.9205322266</ele>
        <time>2020-10-16T12:27:47.953Z</time>
      </trkpt>
      <trkpt lat="44.61232" lon="3.78829">
        <ele>1307.75390625</ele>
        <time>2020-10-16T12:27:51.628Z</time>
      </trkpt>
      <trkpt lat="44.61236" lon="3.78813">
        <ele>1308.2987060547</ele>
        <time>2020-10-16T12:27:55.306Z</time>
      </trkpt>
      <trkpt lat="44.6124" lon="3.78797">
        <ele>1309.0339355469</ele>
        <time>2020-10-16T12:27:58.986Z</time>
      </trkpt>
      <trkpt lat="44.61243" lon="3.78781">
        <ele>1310.0515136719</ele>
        <time>2020-10-16T12:28:02.669Z</time>
      </trkpt>
      <trkpt lat="44.61245" lon="3.7877">
        <ele>1310.6431884766</ele>
        <time>2020-10-16T12:28:06.353Z</time>
      </trkpt>
      <trkpt lat="44.61246" lon="3.7876">
        <ele>1310.6789550781</ele>
        <time>2020-10-16T12:28:10.038Z</time>
      </trkpt>
      <trkpt lat="44.61246" lon="3.7875">
        <ele>1310.9399414062</ele>
        <time>2020-10-16T12:28:13.725Z</time>
      </trkpt>
      <trkpt lat="44.61245" lon="3.78739">
        <ele>1311.3768310547</ele>
        <time>2020-10-16T12:28:17.413Z</time>
      </trkpt>
      <trkpt lat="44.61244" lon="3.78729">
        <ele>1311.9825439453</ele>
        <time>2020-10-16T12:28:21.103Z</time>
      </trkpt>
      <trkpt lat="44.61241" lon="3.78719">
        <ele>1312.6242675781</ele>
        <time>2020-10-16T12:28:24.795Z</time>
      </trkpt>
      <trkpt lat="44.61236" lon="3.78701">
        <ele>1313.7834472656</ele>
        <time>2020-10-16T12:28:28.489Z</time>
      </trkpt>
      <trkpt lat="44.6123" lon="3.78682">
        <ele>1314.9639892578</ele>
        <time>2020-10-16T12:28:32.186Z</time>
      </trkpt>
      <trkpt lat="44.61223" lon="3.78664">
        <ele>1315.7227783203</ele>
        <time>2020-10-16T12:28:35.886Z</time>
      </trkpt>
      <trkpt lat="44.6122" lon="3.78655">
        <ele>1316.1859130859</ele>
        <time>2020-10-16T12:28:39.588Z</time>
      </trkpt>
      <trkpt lat="44.61212" lon="3.78639">
        <ele>1317.1872558594</ele>
        <time>2020-10-16T12:28:43.292Z</time>
      </trkpt>
      <trkpt lat="44.61208" lon="3.7863">
        <ele>1317.7271728516</ele>
        <time>2020-10-16T12:28:46.998Z</time>
      </trkpt>
      <trkpt lat="44.612" lon="3.78614">
        <ele>1318.826171875</ele>
        <time>2020-10-16T12:28:50.707Z</time>
      </trkpt>
      <trkpt lat="44.61196" lon="3.78606">
        <ele>1319.35546875</ele>
        <time>2020-10-16T12:28:54.417Z</time>
      </trkpt>
      <trkpt lat="44.61187" lon="3.7859">
        <ele>1320.29296875</ele>
        <time>2020-10-16T12:28:58.130Z</time>
      </trkpt>
      <trkpt lat="44.61174" lon="3.78567">
        <ele>1321.5336914062</ele>
        <time>2020-10-16T12:29:01.847Z</time>
      </trkpt>
      <trkpt lat="44.6117" lon="3.78559">
        <ele>1321.9155273438</ele>
        <time>2020-10-16T12:29:05.566Z</time>
      </trkpt>
      <trkpt lat="44.61165" lon="3.78551">
        <ele>1322.4221191406</ele>
        <time>2020-10-16T12:29:09.286Z</time>
      </trkpt>
      <trkpt lat="44.61155" lon="3.78536">
        <ele>1323.4200439453</ele>
        <time>2020-10-16T12:29:13.009Z</time>
      </trkpt>
      <trkpt lat="44.61141" lon="3.78514">
        <ele>1325.0975341797</ele>
        <time>2020-10-16T12:29:16.736Z</time>
      </trkpt>
      <trkpt lat="44.61116" lon="3.78479">
        <ele>1328.2824707031</ele>
        <time>2020-10-16T12:29:20.470Z</time>
      </trkpt>
      <trkpt lat="44.61084" lon="3.78439">
        <ele>1329.2158203125</ele>
        <time>2020-10-16T12:29:24.213Z</time>
      </trkpt>
      <trkpt lat="44.61067" lon="3.78419">
        <ele>1329.1325683594</ele>
        <time>2020-10-16T12:29:27.960Z</time>
      </trkpt>
      <trkpt lat="44.61061" lon="3.78413">
        <ele>1329.2216796875</ele>
        <time>2020-10-16T12:29:31.709Z</time>
      </trkpt>
      <trkpt lat="44.61055" lon="3.78408">
        <ele>1329.4255371094</ele>
        <time>2020-10-16T12:29:35.459Z</time>
      </trkpt>
      <trkpt lat="44.61049" lon="3.78404">
        <ele>1329.6727294922</ele>
        <time>2020-10-16T12:29:39.211Z</time>
      </trkpt>
      <trkpt lat="44.61036" lon="3.78395">
        <ele>1330.3063964844</ele>
        <time>2020-10-16T12:29:42.965Z</time>
      </trkpt>
      <trkpt lat="44.61023" lon="3.78388">
        <ele>1330.8123779297</ele>
        <time>2020-10-16T12:29:46.722Z</time>
      </trkpt>
      <trkpt lat="44.61014" lon="3.78383">
        <ele>1331.1690673828</ele>
        <time>2020-10-16T12:29:50.481Z</time>
      </trkpt>
      <trkpt lat="44.61003" lon="3.78379">
        <ele>1331.6790771484</ele>
        <time>2020-10-16T12:29:54.242Z</time>
      </trkpt>
      <trkpt lat="44.60997" lon="3.78376">
        <ele>1332.0201416016</ele>
        <time>2020-10-16T12:29:58.005Z</time>
      </trkpt>
      <trkpt lat="44.6099" lon="3.78374">
        <ele>1332.4437255859</ele>
        <time>2020-10-16T12:30:01.769Z</time>
      </trkpt>
      <trkpt lat="44.60977" lon="3.7837">
        <ele>1333.3101806641</ele>
        <time>2020-10-16T12:30:05.536Z</time>
      </trkpt>
      <trkpt lat="44.60964" lon="3.78368">
        <ele>1334.2297363281</ele>
        <time>2020-10-16T12:30:09.305Z</time>
      </trkpt>
      <trkpt lat="44.60955" lon="3.78368">
        <ele>1334.8564453125</ele>
        <time>2020-10-16T12:30:13.076Z</time>
      </trkpt>
      <trkpt lat="44.60945" lon="3.78369">
        <ele>1336.0949707031</ele>
        <time>2020-10-16T12:30:16.849Z</time>
      </trkpt>
      <trkpt lat="44.60935" lon="3.7837">
        <ele>1337.7126464844</ele>
        <time>2020-10-16T12:30:20.624Z</time>
      </trkpt>
      <trkpt lat="44.60929" lon="3.7837">
        <ele>1338.572265625</ele>
        <time>2020-10-16T12:30:24.400Z</time>
      </trkpt>
      <trkpt lat="44.60921" lon="3.7837">
        <ele>1339.6926269531</ele>
        <time>2020-10-16T12:30:28.178Z</time>
      </trkpt>
      <trkpt lat="44.60921" lon="3.78377">
        <ele>1340.3131103516</ele>
        <time>2020-10-16T12:30:31.957Z</time>
      </trkpt>
      <trkpt lat="44.6093" lon="3.78388">
        <ele>1339.9683837891</ele>
        <time>2020-10-16T12:30:35.738Z</time>
      </trkpt>
      <trkpt lat="44.60945" lon="3.78403">
        <ele>1339.0385742188</ele>
        <time>2020-10-16T12:30:39.523Z</time>
      </trkpt>
      <trkpt lat="44.60954" lon="3.78416">
        <ele>1338.9696044922</ele>
        <time>2020-10-16T12:30:43.311Z</time>
      </trkpt>
      <trkpt lat="44.60965" lon="3.78434">
        <ele>1339.7060546875</ele>
        <time>2020-10-16T12:30:47.102Z</time>
      </trkpt>
      <trkpt lat="44.60976" lon="3.7846">
        <ele>1340.8389892578</ele>
        <time>2020-10-16T12:30:50.897Z</time>
      </trkpt>
      <trkpt lat="44.60981" lon="3.78492">
        <ele>1342.5001220703</ele>
        <time>2020-10-16T12:30:54.697Z</time>
      </trkpt>
      <trkpt lat="44.60981" lon="3.78515">
        <ele>1343.8845214844</ele>
        <time>2020-10-16T12:30:58.500Z</time>
      </trkpt>
      <trkpt lat="44.60976" lon="3.78541">
        <ele>1344.3041992188</ele>
        <time>2020-10-16T12:31:02.307Z</time>
      </trkpt>
      <trkpt lat="44.60964" lon="3.78566">
        <ele>1344.3598632812</ele>
        <time>2020-10-16T12:31:06.118Z</time>
      </trkpt>
      <trkpt lat="44.60952" lon="3.78581">
        <ele>1344.5725097656</ele>
        <time>2020-10-16T12:31:09.933Z</time>
      </trkpt>
      <trkpt lat="44.60944" lon="3.78596">
        <ele>1344.7491455078</ele>
        <time>2020-10-16T12:31:13.750Z</time>
      </trkpt>
      <trkpt lat="44.60934" lon="3.78615">
        <ele>1344.1787109375</ele>
        <time>2020-10-16T12:31:17.571Z</time>
      </trkpt>
      <trkpt lat="44.60926" lon="3.78629">
        <ele>1343.7381591797</ele>
        <time>2020-10-16T12:31:21.394Z</time>
      </trkpt>
      <trkpt lat="44.60915" lon="3.78644">
        <ele>1343.4512939453</ele>
        <time>2020-10-16T12:31:25.220Z</time>
      </trkpt>
      <trkpt lat="44.60898" lon="3.78658">
        <ele>1342.28515625</ele>
        <time>2020-10-16T12:31:29.050Z</time>
      </trkpt>
      <trkpt lat="44.60878" lon="3.78667">
        <ele>1341.1574707031</ele>
        <time>2020-10-16T12:31:32.884Z</time>
      </trkpt>
      <trkpt lat="44.60863" lon="3.78668">
        <ele>1340.7827148438</ele>
        <time>2020-10-16T12:31:36.721Z</time>
      </trkpt>
      <trkpt lat="44.60842" lon="3.7867">
        <ele>1339.4060058594</ele>
        <time>2020-10-16T12:31:40.563Z</time>
      </trkpt>
      <trkpt lat="44.60822" lon="3.7867">
        <ele>1337.6733398438</ele>
        <time>2020-10-16T12:31:44.409Z</time>
      </trkpt>
      <trkpt lat="44.60801" lon="3.78667">
        <ele>1336.3487548828</ele>
        <time>2020-10-16T12:31:48.259Z</time>
      </trkpt>
      <trkpt lat="44.60778" lon="3.78663">
        <ele>1335.037109375</ele>
        <time>2020-10-16T12:31:52.114Z</time>
      </trkpt>
      <trkpt lat="44.60743" lon="3.78653">
        <ele>1333.3317871094</ele>
        <time>2020-10-16T12:31:55.976Z</time>
      </trkpt>
      <trkpt lat="44.60698" lon="3.78641">
        <ele>1330.5992431641</ele>
        <time>2020-10-16T12:31:59.847Z</time>
      </trkpt>
      <trkpt lat="44.60657" lon="3.7863">
        <ele>1328.9008789062</ele>
        <time>2020-10-16T12:32:03.726Z</time>
      </trkpt>
      <trkpt lat="44.60636" lon="3.78627">
        <ele>1327.8843994141</ele>
        <time>2020-10-16T12:32:07.609Z</time>
      </trkpt>
      <trkpt lat="44.60635" lon="3.78627">
        <ele>1327.8742675781</ele>
        <time>2020-10-16T12:32:11.493Z</time>
      </trkpt>
      <trkpt lat="44.60629" lon="3.78627">
        <ele>1327.6629638672</ele>
        <time>2020-10-16T12:32:15.378Z</time>
      </trkpt>
      <trkpt lat="44.60608" lon="3.78625">
        <ele>1326.6101074219</ele>
        <time>2020-10-16T12:32:19.267Z</time>
      </trkpt>
      <trkpt lat="44.60577" lon="3.78625">
        <ele>1324.3654785156</ele>
        <time>2020-10-16T12:32:23.162Z</time>
      </trkpt>
      <trkpt lat="44.6056" lon="3.78621">
        <ele>1323.6658935547</ele>
        <time>2020-10-16T12:32:27.061Z</time>
      </trkpt>
      <trkpt lat="44.60539" lon="3.7862">
        <ele>1322.8197021484</ele>
        <time>2020-10-16T12:32:30.964Z</time>
      </trkpt>
      <trkpt lat="44.60524" lon="3.78618">
        <ele>1322.6427001953</ele>
        <time>2020-10-16T12:32:34.870Z</time>
      </trkpt>
      <trkpt lat="44.60506" lon="3.78611">
        <ele>1322.7681884766</ele>
        <time>2020-10-16T12:32:38.780Z</time>
      </trkpt>
      <trkpt lat="44.60485" lon="3.786">
        <ele>1323.0871582031</ele>
        <time>2020-10-16T12:32:42.694Z</time>
      </trkpt>
      <trkpt lat="44.60475" lon="3.78591">
        <ele>1323.3695068359</ele>
        <time>2020-10-16T12:32:46.611Z</time>
      </trkpt>
      <trkpt lat="44.60457" lon="3.78579">
        <ele>1323.6706542969</ele>
        <time>2020-10-16T12:32:50.532Z</time>
      </trkpt>
      <trkpt lat="44.60438" lon="3.78559">
        <ele>1327.048828125</ele>
        <time>2020-10-16T12:32:54.457Z</time>
      </trkpt>
      <trkpt lat="44.60428" lon="3.78545">
        <ele>1329.5377197266</ele>
        <time>2020-10-16T12:32:58.385Z</time>
      </trkpt>
      <trkpt lat="44.6042" lon="3.7854">
        <ele>1331.2666015625</ele>
        <time>2020-10-16T12:33:02.315Z</time>
      </trkpt>
      <trkpt lat="44.6041" lon="3.78539">
        <ele>1332.9705810547</ele>
        <time>2020-10-16T12:33:06.247Z</time>
      </trkpt>
      <trkpt lat="44.60404" lon="3.78541">
        <ele>1333.8743896484</ele>
        <time>2020-10-16T12:33:10.180Z</time>
      </trkpt>
      <trkpt lat="44.60399" lon="3.78552">
        <ele>1334.0970458984</ele>
        <time>2020-10-16T12:33:14.115Z</time>
      </trkpt>
      <trkpt lat="44.60394" lon="3.7857">
        <ele>1334.2757568359</ele>
        <time>2020-10-16T12:33:18.053Z</time>
      </trkpt>
      <trkpt lat="44.60388" lon="3.78589">
        <ele>1334.775390625</ele>
        <time>2020-10-16T12:33:21.994Z</time>
      </trkpt>
      <trkpt lat="44.60383" lon="3.78596">
        <ele>1335.4428710938</ele>
        <time>2020-10-16T12:33:25.936Z</time>
      </trkpt>
      <trkpt lat="44.60372" lon="3.78612">
        <ele>1336.7592773438</ele>
        <time>2020-10-16T12:33:29.881Z</time>
      </trkpt>
      <trkpt lat="44.60353" lon="3.78629">
        <ele>1338.2119140625</ele>
        <time>2020-10-16T12:33:33.831Z</time>
      </trkpt>
      <trkpt lat="44.60331" lon="3.78644">
        <ele>1340.1091308594</ele>
        <time>2020-10-16T12:33:37.786Z</time>
      </trkpt>
      <trkpt lat="44.60308" lon="3.78659">
        <ele>1342.2220458984</ele>
        <time>2020-10-16T12:33:41.746Z</time>
      </trkpt>
      <trkpt lat="44.60291" lon="3.78665">
        <ele>1344.0528564453</ele>
        <time>2020-10-16T12:33:45.709Z</time>
      </trkpt>
      <trkpt lat="44.60271" lon="3.78673">
        <ele>1345.4788818359</ele>
        <time>2020-10-16T12:33:49.676Z</time>
      </trkpt>
      <trkpt lat="44.6026" lon="3.78679">
        <ele>1345.3620605469</ele>
        <time>2020-10-16T12:33:53.646Z</time>
      </trkpt>
      <trkpt lat="44.60241" lon="3.78689">
        <ele>1345.0355224609</ele>
        <time>2020-10-16T12:33:57.620Z</time>
      </trkpt>
      <trkpt lat="44.60225" lon="3.787">
        <ele>1344.5092773438</ele>
        <time>2020-10-16T12:34:01.597Z</time>
      </trkpt>
      <trkpt lat="44.60213" lon="3.78704">
        <ele>1344.470703125</ele>
        <time>2020-10-16T12:34:05.577Z</time>
      </trkpt>
      <trkpt lat="44.60195" lon="3.78704">
        <ele>1344.3870849609</ele>
        <time>2020-10-16T12:34:09.560Z</time>
      </trkpt>
      <trkpt lat="44.60175" lon="3.787">
        <ele>1343.77734375</ele>
        <time>2020-10-16T12:34:13.547Z</time>
      </trkpt>
      <trkpt lat="44.60172" lon="3.78697">
        <ele>1343.9027099609</ele>
        <time>2020-10-16T12:34:17.535Z</time>
      </trkpt>
      <trkpt lat="44.60159" lon="3.78689">
        <ele>1344.3566894531</ele>
        <time>2020-10-16T12:34:21.526Z</time>
      </trkpt>
      <trkpt lat="44.60137" lon="3.7867">
        <ele>1346.2448730469</ele>
        <time>2020-10-16T12:34:25.522Z</time>
      </trkpt>
      <trkpt lat="44.60119" lon="3.78647">
        <ele>1348.9749755859</ele>
        <time>2020-10-16T12:34:29.523Z</time>
      </trkpt>
      <trkpt lat="44.60105" lon="3.78622">
        <ele>1352.2381591797</ele>
        <time>2020-10-16T12:34:33.529Z</time>
      </trkpt>
      <trkpt lat="44.60092" lon="3.78607">
        <ele>1353.9833984375</ele>
        <time>2020-10-16T12:34:37.538Z</time>
      </trkpt>
      <trkpt lat="44.60082" lon="3.78601">
        <ele>1354.6647949219</ele>
        <time>2020-10-16T12:34:41.549Z</time>
      </trkpt>
      <trkpt lat="44.6006" lon="3.78599">
        <ele>1353.7067871094</ele>
        <time>2020-10-16T12:34:45.564Z</time>
      </trkpt>
      <trkpt lat="44.60037" lon="3.78599">
        <ele>1352.2987060547</ele>
        <time>2020-10-16T12:34:49.584Z</time>
      </trkpt>
      <trkpt lat="44.60018" lon="3.78599">
        <ele>1352.9069824219</ele>
        <time>2020-10-16T12:34:53.608Z</time>
      </trkpt>
      <trkpt lat="44.60002" lon="3.78597">
        <ele>1353.8040771484</ele>
        <time>2020-10-16T12:34:57.635Z</time>
      </trkpt>
      <trkpt lat="44.59982" lon="3.78595">
        <ele>1355.0872802734</ele>
        <time>2020-10-16T12:35:01.666Z</time>
      </trkpt>
      <trkpt lat="44.59965" lon="3.78589">
        <ele>1356.9067382812</ele>
        <time>2020-10-16T12:35:05.701Z</time>
      </trkpt>
      <trkpt lat="44.5995" lon="3.78588">
        <ele>1357.9145507812</ele>
        <time>2020-10-16T12:35:09.739Z</time>
      </trkpt>
      <trkpt lat="44.5992" lon="3.78585">
        <ele>1362.2341308594</ele>
        <time>2020-10-16T12:35:13.783Z</time>
      </trkpt>
      <trkpt lat="44.59897" lon="3.78583">
        <ele>1364.6495361328</ele>
        <time>2020-10-16T12:35:17.831Z</time>
      </trkpt>
      <trkpt lat="44.59867" lon="3.78582">
        <ele>1367.3741455078</ele>
        <time>2020-10-16T12:35:21.885Z</time>
      </trkpt>
      <trkpt lat="44.59847" lon="3.78581">
        <ele>1368.5582275391</ele>
        <time>2020-10-16T12:35:25.943Z</time>
      </trkpt>
      <trkpt lat="44.59828" lon="3.78581">
        <ele>1369.7762451172</ele>
        <time>2020-10-16T12:35:30.005Z</time>
      </trkpt>
      <trkpt lat="44.59813" lon="3.78582">
        <ele>1370.4534912109</ele>
        <time>2020-10-16T12:35:34.070Z</time>
      </trkpt>
      <trkpt lat="44.59798" lon="3.78582">
        <ele>1371.1524658203</ele>
        <time>2020-10-16T12:35:38.138Z</time>
      </trkpt>
      <trkpt lat="44.59784" lon="3.78581">
        <ele>1372.3555908203</ele>
        <time>2020-10-16T12:35:42.209Z</time>
      </trkpt>
      <trkpt lat="44.59767" lon="3.78577">
        <ele>1374.4071044922</ele>
        <time>2020-10-16T12:35:46.283Z</time>
      </trkpt>
      <trkpt lat="44.59749" lon="3.7857">
        <ele>1377.4794921875</ele>
        <time>2020-10-16T12:35:50.361Z</time>
      </trkpt>
      <trkpt lat="44.59731" lon="3.78561">
        <ele>1380.6228027344</ele>
        <time>2020-10-16T12:35:54.443Z</time>
      </trkpt>
      <trkpt lat="44.59709" lon="3.78551">
        <ele>1384.3988037109</ele>
        <time>2020-10-16T12:35:58.530Z</time>
      </trkpt>
      <trkpt lat="44.59697" lon="3.78547">
        <ele>1385.9996337891</ele>
        <time>2020-10-16T12:36:02.619Z</time>
      </trkpt>
      <trkpt lat="44.5968" lon="3.7854">
        <ele>1388.5715332031</ele>
        <time>2020-10-16T12:36:06.711Z</time>
      </trkpt>
      <trkpt lat="44.59664" lon="3.78531">
        <ele>1391.8052978516</ele>
        <time>2020-10-16T12:36:10.807Z</time>
      </trkpt>
      <trkpt lat="44.59648" lon="3.78524">
        <ele>1394.1998291016</ele>
        <time>2020-10-16T12:36:14.906Z</time>
      </trkpt>
      <trkpt lat="44.59626" lon="3.78519">
        <ele>1396.3009033203</ele>
        <time>2020-10-16T12:36:19.010Z</time>
      </trkpt>
      <trkpt lat="44.59602" lon="3.78512">
        <ele>1398.5921630859</ele>
        <time>2020-10-16T12:36:23.119Z</time>
      </trkpt>
      <trkpt lat="44.59578" lon="3.78504">
        <ele>1400.8948974609</ele>
        <time>2020-10-16T12:36:27.233Z</time>
      </trkpt>
      <trkpt lat="44.59561" lon="3.785">
        <ele>1402.2564697266</ele>
        <time>2020-10-16T12:36:31.350Z</time>
      </trkpt>
      <trkpt lat="44.5954" lon="3.78489">
        <ele>1405.1899414062</ele>
        <time>2020-10-16T12:36:35.471Z</time>
      </trkpt>
      <trkpt lat="44.59524" lon="3.78481">
        <ele>1407.44921875</ele>
        <time>2020-10-16T12:36:39.596Z</time>
      </trkpt>
      <trkpt lat="44.59511" lon="3.78477">
        <ele>1408.6568603516</ele>
        <time>2020-10-16T12:36:43.724Z</time>
      </trkpt>
      <trkpt lat="44.59511" lon="3.78477">
        <ele>1408.6710205078</ele>
        <time>2020-10-16T12:36:47.852Z</time>
      </trkpt>
      <trkpt lat="44.59491" lon="3.78469">
        <ele>1411.0382080078</ele>
        <time>2020-10-16T12:36:51.984Z</time>
      </trkpt>
      <trkpt lat="44.59472" lon="3.78464">
        <ele>1412.6286621094</ele>
        <time>2020-10-16T12:36:56.120Z</time>
      </trkpt>
      <trkpt lat="44.59461" lon="3.78461">
        <ele>1413.6682128906</ele>
        <time>2020-10-16T12:37:00.258Z</time>
      </trkpt>
      <trkpt lat="44.59452" lon="3.78456">
        <ele>1414.8936767578</ele>
        <time>2020-10-16T12:37:04.398Z</time>
      </trkpt>
      <trkpt lat="44.59447" lon="3.78455">
        <ele>1415.1960449219</ele>
        <time>2020-10-16T12:37:08.539Z</time>
      </trkpt>
      <trkpt lat="44.59438" lon="3.78455">
        <ele>1415.4445800781</ele>
        <time>2020-10-16T12:37:12.682Z</time>
      </trkpt>
      <trkpt lat="44.59429" lon="3.78452">
        <ele>1416.3055419922</ele>
        <time>2020-10-16T12:37:16.826Z</time>
      </trkpt>
      <trkpt lat="44.59415" lon="3.78446">
        <ele>1418.0095214844</ele>
        <time>2020-10-16T12:37:20.973Z</time>
      </trkpt>
      <trkpt lat="44.59405" lon="3.78443">
        <ele>1419.0334472656</ele>
        <time>2020-10-16T12:37:25.123Z</time>
      </trkpt>
      <trkpt lat="44.59389" lon="3.78437">
        <ele>1420.6015625</ele>
        <time>2020-10-16T12:37:29.276Z</time>
      </trkpt>
      <trkpt lat="44.59375" lon="3.78428">
        <ele>1421.4161376953</ele>
        <time>2020-10-16T12:37:33.432Z</time>
      </trkpt>
      <trkpt lat="44.59362" lon="3.78421">
        <ele>1422.4921875</ele>
        <time>2020-10-16T12:37:37.591Z</time>
      </trkpt>
      <trkpt lat="44.59352" lon="3.78421">
        <ele>1423.2158203125</ele>
        <time>2020-10-16T12:37:41.752Z</time>
      </trkpt>
      <trkpt lat="44.59339" lon="3.78424">
        <ele>1424.6646728516</ele>
        <time>2020-10-16T12:37:45.915Z</time>
      </trkpt>
      <trkpt lat="44.59333" lon="3.78418">
        <ele>1425.4908447266</ele>
        <time>2020-10-16T12:37:50.080Z</time>
      </trkpt>
      <trkpt lat="44.59325" lon="3.7843">
        <ele>1426.2728271484</ele>
        <time>2020-10-16T12:37:54.247Z</time>
      </trkpt>
      <trkpt lat="44.59318" lon="3.78448">
        <ele>1425.455078125</ele>
        <time>2020-10-16T12:37:58.417Z</time>
      </trkpt>
      <trkpt lat="44.59313" lon="3.78466">
        <ele>1423.3005371094</ele>
        <time>2020-10-16T12:38:02.590Z</time>
      </trkpt>
      <trkpt lat="44.59309" lon="3.78487">
        <ele>1423.9455566406</ele>
        <time>2020-10-16T12:38:06.766Z</time>
      </trkpt>
      <trkpt lat="44.5931" lon="3.78512">
        <ele>1423.4959716797</ele>
        <time>2020-10-16T12:38:10.945Z</time>
      </trkpt>
      <trkpt lat="44.59313" lon="3.78534">
        <ele>1422.8790283203</ele>
        <time>2020-10-16T12:38:15.128Z</time>
      </trkpt>
      <trkpt lat="44.59312" lon="3.78548">
        <ele>1423.4681396484</ele>
        <time>2020-10-16T12:38:19.313Z</time>
      </trkpt>
      <trkpt lat="44.59315" lon="3.78565">
        <ele>1423.2065429688</ele>
        <time>2020-10-16T12:38:23.500Z</time>
      </trkpt>
      <trkpt lat="44.5932" lon="3.7859">
        <ele>1422.4416503906</ele>
        <time>2020-10-16T12:38:27.691Z</time>
      </trkpt>
      <trkpt lat="44.59323" lon="3.78608">
        <ele>1422.1442871094</ele>
        <time>2020-10-16T12:38:31.884Z</time>
      </trkpt>
      <trkpt lat="44.59323" lon="3.78617">
        <ele>1422.9339599609</ele>
        <time>2020-10-16T12:38:36.079Z</time>
      </trkpt>
      <trkpt lat="44.59323" lon="3.78631">
        <ele>1423.7498779297</ele>
        <time>2020-10-16T12:38:40.276Z</time>
      </trkpt>
      <trkpt lat="44.59321" lon="3.78644">
        <ele>1425.1634521484</ele>
        <time>2020-10-16T12:38:44.475Z</time>
      </trkpt>
      <trkpt lat="44.59314" lon="3.78648">
        <ele>1427.0042724609</ele>
        <time>2020-10-16T12:38:48.675Z</time>
      </trkpt>
      <trkpt lat="44.59307" lon="3.78656">
        <ele>1428.7655029297</ele>
        <time>2020-10-16T12:38:52.877Z</time>
      </trkpt>
      <trkpt lat="44.59304" lon="3.78667">
        <ele>1429.8269042969</ele>
        <time>2020-10-16T12:38:57.081Z</time>
      </trkpt>
      <trkpt lat="44.59304" lon="3.78675">
        <ele>1430.2044677734</ele>
        <time>2020-10-16T12:39:01.286Z</time>
      </trkpt>
      <trkpt lat="44.59306" lon="3.78691">
        <ele>1430.1815185547</ele>
        <time>2020-10-16T12:39:05.493Z</time>
      </trkpt>
      <trkpt lat="44.59306" lon="3.78705">
        <ele>1429.546875</ele>
        <time>2020-10-16T12:39:09.702Z</time>
      </trkpt>
      <trkpt lat="44.59304" lon="3.7872">
        <ele>1429.4780273438</ele>
        <time>2020-10-16T12:39:13.913Z</time>
      </trkpt>
      <trkpt lat="44.59293" lon="3.78736">
        <ele>1431.400390625</ele>
        <time>2020-10-16T12:39:18.127Z</time>
      </trkpt>
      <trkpt lat="44.59281" lon="3.7875">
        <ele>1433.6662597656</ele>
        <time>2020-10-16T12:39:22.345Z</time>
      </trkpt>
      <trkpt lat="44.59274" lon="3.78755">
        <ele>1434.98828125</ele>
        <time>2020-10-16T12:39:26.564Z</time>
      </trkpt>
      <trkpt lat="44.59264" lon="3.78757">
        <ele>1437.1961669922</ele>
        <time>2020-10-16T12:39:30.785Z</time>
      </trkpt>
      <trkpt lat="44.59253" lon="3.78765">
        <ele>1438.8352050781</ele>
        <time>2020-10-16T12:39:35.009Z</time>
      </trkpt>
      <trkpt lat="44.59247" lon="3.78772">
        <ele>1439.6683349609</ele>
        <time>2020-10-16T12:39:39.234Z</time>
      </trkpt>
      <trkpt lat="44.59232" lon="3.78778">
        <ele>1442.6398925781</ele>
        <time>2020-10-16T12:39:43.462Z</time>
      </trkpt>
      <trkpt lat="44.5922" lon="3.78783">
        <ele>1444.8824462891</ele>
        <time>2020-10-16T12:39:47.693Z</time>
      </trkpt>
      <trkpt lat="44.59201" lon="3.78794">
        <ele>1447.4954833984</ele>
        <time>2020-10-16T12:39:51.928Z</time>
      </trkpt>
      <trkpt lat="44.59181" lon="3.78803">
        <ele>1450.1833496094</ele>
        <time>2020-10-16T12:39:56.167Z</time>
      </trkpt>
      <trkpt lat="44.59162" lon="3.78807">
        <ele>1453.1276855469</ele>
        <time>2020-10-16T12:40:00.410Z</time>
      </trkpt>
      <trkpt lat="44.59138" lon="3.78812">
        <ele>1457.2197265625</ele>
        <time>2020-10-16T12:40:04.658Z</time>
      </trkpt>
      <trkpt lat="44.59124" lon="3.78815">
        <ele>1459.7987060547</ele>
        <time>2020-10-16T12:40:08.909Z</time>
      </trkpt>
      <trkpt lat="44.59105" lon="3.78819">
        <ele>1463.0187988281</ele>
        <time>2020-10-16T12:40:13.164Z</time>
      </trkpt>
      <trkpt lat="44.59089" lon="3.78828">
        <ele>1465.5023193359</ele>
        <time>2020-10-16T12:40:17.422Z</time>
      </trkpt>
      <trkpt lat="44.59075" lon="3.78835">
        <ele>1467.5087890625</ele>
        <time>2020-10-16T12:40:21.683Z</time>
      </trkpt>
      <trkpt lat="44.59046" lon="3.78846">
        <ele>1471.6907958984</ele>
        <time>2020-10-16T12:40:25.950Z</time>
      </trkpt>
      <trkpt lat="44.59019" lon="3.78855">
        <ele>1475.4870605469</ele>
        <time>2020-10-16T12:40:30.223Z</time>
      </trkpt>
      <trkpt lat="44.59013" lon="3.78858">
        <ele>1476.5308837891</ele>
        <time>2020-10-16T12:40:34.497Z</time>
      </trkpt>
      <trkpt lat="44.59015" lon="3.78848">
        <ele>1476.3084716797</ele>
        <time>2020-10-16T12:40:38.773Z</time>
      </trkpt>
      <trkpt lat="44.59016" lon="3.78837">
        <ele>1476.3331298828</ele>
        <time>2020-10-16T12:40:43.050Z</time>
      </trkpt>
      <trkpt lat="44.59008" lon="3.78832">
        <ele>1477.7653808594</ele>
        <time>2020-10-16T12:40:47.329Z</time>
      </trkpt>
      <trkpt lat="44.5899" lon="3.78825">
        <ele>1480.7009277344</ele>
        <time>2020-10-16T12:40:51.612Z</time>
      </trkpt>
      <trkpt lat="44.58979" lon="3.78849">
        <ele>1481.9112548828</ele>
        <time>2020-10-16T12:40:55.899Z</time>
      </trkpt>
      <trkpt lat="44.58969" lon="3.78869">
        <ele>1483.4045410156</ele>
        <time>2020-10-16T12:41:00.189Z</time>
      </trkpt>
      <trkpt lat="44.58958" lon="3.78895">
        <ele>1483.4144287109</ele>
        <time>2020-10-16T12:41:04.483Z</time>
      </trkpt>
      <trkpt lat="44.58946" lon="3.78929">
        <ele>1482.4392089844</ele>
        <time>2020-10-16T12:41:08.783Z</time>
      </trkpt>
      <trkpt lat="44.58937" lon="3.78952">
        <ele>1481.8485107422</ele>
        <time>2020-10-16T12:41:13.087Z</time>
      </trkpt>
      <trkpt lat="44.58922" lon="3.78982">
        <ele>1481.3016357422</ele>
        <time>2020-10-16T12:41:17.396Z</time>
      </trkpt>
      <trkpt lat="44.58913" lon="3.79">
        <ele>1480.5726318359</ele>
        <time>2020-10-16T12:41:21.708Z</time>
      </trkpt>
      <trkpt lat="44.58906" lon="3.79016">
        <ele>1479.6958007812</ele>
        <time>2020-10-16T12:41:26.023Z</time>
      </trkpt>
      <trkpt lat="44.58899" lon="3.79035">
        <ele>1479.3739013672</ele>
        <time>2020-10-16T12:41:30.341Z</time>
      </trkpt>
      <trkpt lat="44.58896" lon="3.79058">
        <ele>1479.1323242188</ele>
        <time>2020-10-16T12:41:34.662Z</time>
      </trkpt>
      <trkpt lat="44.58894" lon="3.79079">
        <ele>1478.5469970703</ele>
        <time>2020-10-16T12:41:38.986Z</time>
      </trkpt>
      <trkpt lat="44.58894" lon="3.79096">
        <ele>1478.1387939453</ele>
        <time>2020-10-16T12:41:43.313Z</time>
      </trkpt>
      <trkpt lat="44.58896" lon="3.79117">
        <ele>1477.8510742188</ele>
        <time>2020-10-16T12:41:47.643Z</time>
      </trkpt>
      <trkpt lat="44.58896" lon="3.79132">
        <ele>1477.6716308594</ele>
        <time>2020-10-16T12:41:51.975Z</time>
      </trkpt>
      <trkpt lat="44.58895" lon="3.79156">
        <ele>1476.7729492188</ele>
        <time>2020-10-16T12:41:56.310Z</time>
      </trkpt>
      <trkpt lat="44.58894" lon="3.79177">
        <ele>1475.9263916016</ele>
        <time>2020-10-16T12:42:00.648Z</time>
      </trkpt>
      <trkpt lat="44.5889" lon="3.79193">
        <ele>1475.3099365234</ele>
        <time>2020-10-16T12:42:04.989Z</time>
      </trkpt>
      <trkpt lat="44.58887" lon="3.79207">
        <ele>1475.1439208984</ele>
        <time>2020-10-16T12:42:09.332Z</time>
      </trkpt>
      <trkpt lat="44.58886" lon="3.79222">
        <ele>1474.0814208984</ele>
        <time>2020-10-16T12:42:13.677Z</time>
      </trkpt>
      <trkpt lat="44.58883" lon="3.79233">
        <ele>1473.1693115234</ele>
        <time>2020-10-16T12:42:18.023Z</time>
      </trkpt>
      <trkpt lat="44.58884" lon="3.79236">
        <ele>1473.0590820312</ele>
        <time>2020-10-16T12:42:22.370Z</time>
      </trkpt>
      <trkpt lat="44.58887" lon="3.79252">
        <ele>1472.4827880859</ele>
        <time>2020-10-16T12:42:26.719Z</time>
      </trkpt>
      <trkpt lat="44.58889" lon="3.79267">
        <ele>1471.7768554688</ele>
        <time>2020-10-16T12:42:31.070Z</time>
      </trkpt>
      <trkpt lat="44.58891" lon="3.79281">
        <ele>1471.4407958984</ele>
        <time>2020-10-16T12:42:35.424Z</time>
      </trkpt>
      <trkpt lat="44.58895" lon="3.79287">
        <ele>1471.6180419922</ele>
        <time>2020-10-16T12:42:39.779Z</time>
      </trkpt>
      <trkpt lat="44.58897" lon="3.793">
        <ele>1471.3768310547</ele>
        <time>2020-10-16T12:42:44.135Z</time>
      </trkpt>
      <trkpt lat="44.58899" lon="3.79319">
        <ele>1470.3326416016</ele>
        <time>2020-10-16T12:42:48.494Z</time>
      </trkpt>
      <trkpt lat="44.58901" lon="3.79339">
        <ele>1469.2145996094</ele>
        <time>2020-10-16T12:42:52.856Z</time>
      </trkpt>
      <trkpt lat="44.58899" lon="3.7935">
        <ele>1468.1646728516</ele>
        <time>2020-10-16T12:42:57.220Z</time>
      </trkpt>
      <trkpt lat="44.58899" lon="3.79362">
        <ele>1467.8725585938</ele>
        <time>2020-10-16T12:43:01.585Z</time>
      </trkpt>
      <trkpt lat="44.589" lon="3.79387">
        <ele>1467.9935302734</ele>
        <time>2020-10-16T12:43:05.954Z</time>
      </trkpt>
      <trkpt lat="44.589" lon="3.79401">
        <ele>1467.9035644531</ele>
        <time>2020-10-16T12:43:10.325Z</time>
      </trkpt>
      <trkpt lat="44.58899" lon="3.79459">
        <ele>1467.7634277344</ele>
        <time>2020-10-16T12:43:14.704Z</time>
      </trkpt>
      <trkpt lat="44.58899" lon="3.79485">
        <ele>1468.1356201172</ele>
        <time>2020-10-16T12:43:19.087Z</time>
      </trkpt>
      <trkpt lat="44.58902" lon="3.79503">
        <ele>1469.0546875</ele>
        <time>2020-10-16T12:43:23.473Z</time>
      </trkpt>
      <trkpt lat="44.58912" lon="3.7954">
        <ele>1470.9372558594</ele>
        <time>2020-10-16T12:43:27.864Z</time>
      </trkpt>
      <trkpt lat="44.5893" lon="3.79603">
        <ele>1475.1088867188</ele>
        <time>2020-10-16T12:43:32.265Z</time>
      </trkpt>
      <trkpt lat="44.58932" lon="3.7962">
        <ele>1474.9748535156</ele>
        <time>2020-10-16T12:43:36.669Z</time>
      </trkpt>
      <trkpt lat="44.58934" lon="3.79638">
        <ele>1474.7412109375</ele>
        <time>2020-10-16T12:43:41.075Z</time>
      </trkpt>
      <trkpt lat="44.58935" lon="3.7965">
        <ele>1474.5357666016</ele>
        <time>2020-10-16T12:43:45.483Z</time>
      </trkpt>
      <trkpt lat="44.58938" lon="3.79657">
        <ele>1474.6025390625</ele>
        <time>2020-10-16T12:43:49.892Z</time>
      </trkpt>
      <trkpt lat="44.58943" lon="3.7967">
        <ele>1474.7258300781</ele>
        <time>2020-10-16T12:43:54.303Z</time>
      </trkpt>
      <trkpt lat="44.58945" lon="3.7968">
        <ele>1474.6169433594</ele>
        <time>2020-10-16T12:43:58.716Z</time>
      </trkpt>
      <trkpt lat="44.58948" lon="3.79694">
        <ele>1474.7996826172</ele>
        <time>2020-10-16T12:44:03.131Z</time>
      </trkpt>
      <trkpt lat="44.58952" lon="3.79708">
        <ele>1474.7438964844</ele>
        <time>2020-10-16T12:44:07.548Z</time>
      </trkpt>
      <trkpt lat="44.58962" lon="3.79743">
        <ele>1474.0855712891</ele>
        <time>2020-10-16T12:44:11.970Z</time>
      </trkpt>
      <trkpt lat="44.58968" lon="3.79767">
        <ele>1473.6491699219</ele>
        <time>2020-10-16T12:44:16.396Z</time>
      </trkpt>
      <trkpt lat="44.58974" lon="3.79785">
        <ele>1473.7813720703</ele>
        <time>2020-10-16T12:44:20.825Z</time>
      </trkpt>
      <trkpt lat="44.58979" lon="3.7982">
        <ele>1474.2467041016</ele>
        <time>2020-10-16T12:44:25.259Z</time>
      </trkpt>
      <trkpt lat="44.58985" lon="3.79846">
        <ele>1474.4855957031</ele>
        <time>2020-10-16T12:44:29.697Z</time>
      </trkpt>
      <trkpt lat="44.58997" lon="3.79871">
        <ele>1474.453125</ele>
        <time>2020-10-16T12:44:34.139Z</time>
      </trkpt>
      <trkpt lat="44.59021" lon="3.79911">
        <ele>1474.1702880859</ele>
        <time>2020-10-16T12:44:38.588Z</time>
      </trkpt>
      <trkpt lat="44.5905" lon="3.79955">
        <ele>1474.1336669922</ele>
        <time>2020-10-16T12:44:43.046Z</time>
      </trkpt>
      <trkpt lat="44.59068" lon="3.79985">
        <ele>1473.8907470703</ele>
        <time>2020-10-16T12:44:47.510Z</time>
      </trkpt>
      <trkpt lat="44.59073" lon="3.80001">
        <ele>1473.5478515625</ele>
        <time>2020-10-16T12:44:51.976Z</time>
      </trkpt>
      <trkpt lat="44.59084" lon="3.80026">
        <ele>1473.1951904297</ele>
        <time>2020-10-16T12:44:56.446Z</time>
      </trkpt>
      <trkpt lat="44.5911" lon="3.8008">
        <ele>1472.5385742188</ele>
        <time>2020-10-16T12:45:00.926Z</time>
      </trkpt>
      <trkpt lat="44.59121" lon="3.80114">
        <ele>1472.5373535156</ele>
        <time>2020-10-16T12:45:05.411Z</time>
      </trkpt>
      <trkpt lat="44.5913" lon="3.80141">
        <ele>1474.08203125</ele>
        <time>2020-10-16T12:45:09.900Z</time>
      </trkpt>
      <trkpt lat="44.59135" lon="3.80157">
        <ele>1475.0834960938</ele>
        <time>2020-10-16T12:45:14.392Z</time>
      </trkpt>
      <trkpt lat="44.59142" lon="3.80183">
        <ele>1476.4656982422</ele>
        <time>2020-10-16T12:45:18.888Z</time>
      </trkpt>
      <trkpt lat="44.59149" lon="3.80204">
        <ele>1477.7425537109</ele>
        <time>2020-10-16T12:45:23.387Z</time>
      </trkpt>
      <trkpt lat="44.59153" lon="3.80215">
        <ele>1478.35546875</ele>
        <time>2020-10-16T12:45:27.888Z</time>
      </trkpt>
      <trkpt lat="44.59157" lon="3.80238">
        <ele>1479.6220703125</ele>
        <time>2020-10-16T12:45:32.392Z</time>
      </trkpt>
      <trkpt lat="44.59162" lon="3.80263">
        <ele>1481.2163085938</ele>
        <time>2020-10-16T12:45:36.900Z</time>
      </trkpt>
      <trkpt lat="44.59168" lon="3.80284">
        <ele>1482.1604003906</ele>
        <time>2020-10-16T12:45:41.411Z</time>
      </trkpt>
      <trkpt lat="44.59177" lon="3.80302">
        <ele>1482.9420166016</ele>
        <time>2020-10-16T12:45:45.925Z</time>
      </trkpt>
      <trkpt lat="44.59192" lon="3.80322">
        <ele>1484.2260742188</ele>
        <time>2020-10-16T12:45:50.443Z</time>
      </trkpt>
      <trkpt lat="44.59204" lon="3.80336">
        <ele>1484.9184570312</ele>
        <time>2020-10-16T12:45:54.964Z</time>
      </trkpt>
      <trkpt lat="44.59225" lon="3.80354">
        <ele>1484.1619873047</ele>
        <time>2020-10-16T12:45:59.490Z</time>
      </trkpt>
      <trkpt lat="44.59241" lon="3.80368">
        <ele>1482.6544189453</ele>
        <time>2020-10-16T12:46:04.020Z</time>
      </trkpt>
      <trkpt lat="44.59253" lon="3.80379">
        <ele>1481.4693603516</ele>
        <time>2020-10-16T12:46:08.553Z</time>
      </trkpt>
      <trkpt lat="44.59264" lon="3.80386">
        <ele>1480.5168457031</ele>
        <time>2020-10-16T12:46:13.088Z</time>
      </trkpt>
      <trkpt lat="44.59287" lon="3.80407">
        <ele>1478.3074951172</ele>
        <time>2020-10-16T12:46:17.629Z</time>
      </trkpt>
      <trkpt lat="44.59303" lon="3.80421">
        <ele>1477.4724121094</ele>
        <time>2020-10-16T12:46:22.174Z</time>
      </trkpt>
      <trkpt lat="44.59313" lon="3.80434">
        <ele>1476.6323242188</ele>
        <time>2020-10-16T12:46:26.722Z</time>
      </trkpt>
      <trkpt lat="44.59324" lon="3.8045">
        <ele>1475.3288574219</ele>
        <time>2020-10-16T12:46:31.273Z</time>
      </trkpt>
      <trkpt lat="44.59334" lon="3.80468">
        <ele>1473.7150878906</ele>
        <time>2020-10-16T12:46:35.827Z</time>
      </trkpt>
      <trkpt lat="44.59347" lon="3.80492">
        <ele>1471.5799560547</ele>
        <time>2020-10-16T12:46:40.385Z</time>
      </trkpt>
      <trkpt lat="44.59356" lon="3.80508">
        <ele>1470.1606445312</ele>
        <time>2020-10-16T12:46:44.946Z</time>
      </trkpt>
      <trkpt lat="44.59359" lon="3.8052">
        <ele>1468.8249511719</ele>
        <time>2020-10-16T12:46:49.509Z</time>
      </trkpt>
      <trkpt lat="44.59363" lon="3.80548">
        <ele>1466.3414306641</ele>
        <time>2020-10-16T12:46:54.076Z</time>
      </trkpt>
      <trkpt lat="44.59367" lon="3.80564">
        <ele>1464.8817138672</ele>
        <time>2020-10-16T12:46:58.645Z</time>
      </trkpt>
      <trkpt lat="44.59372" lon="3.80591">
        <ele>1463.0960693359</ele>
        <time>2020-10-16T12:47:03.218Z</time>
      </trkpt>
      <trkpt lat="44.59377" lon="3.80619">
        <ele>1462.474609375</ele>
        <time>2020-10-16T12:47:07.796Z</time>
      </trkpt>
      <trkpt lat="44.59385" lon="3.80647">
        <ele>1462.4189453125</ele>
        <time>2020-10-16T12:47:12.378Z</time>
      </trkpt>
      <trkpt lat="44.5939" lon="3.8067">
        <ele>1462.1618652344</ele>
        <time>2020-10-16T12:47:16.963Z</time>
      </trkpt>
      <trkpt lat="44.5939" lon="3.80698">
        <ele>1460.3542480469</ele>
        <time>2020-10-16T12:47:21.552Z</time>
      </trkpt>
      <trkpt lat="44.59389" lon="3.80733">
        <ele>1457.9974365234</ele>
        <time>2020-10-16T12:47:26.146Z</time>
      </trkpt>
      <trkpt lat="44.5939" lon="3.80766">
        <ele>1455.4357910156</ele>
        <time>2020-10-16T12:47:30.745Z</time>
      </trkpt>
      <trkpt lat="44.5939" lon="3.80795">
        <ele>1454.4959716797</ele>
        <time>2020-10-16T12:47:35.348Z</time>
      </trkpt>
      <trkpt lat="44.59391" lon="3.80822">
        <ele>1454.6694335938</ele>
        <time>2020-10-16T12:47:39.955Z</time>
      </trkpt>
      <trkpt lat="44.59391" lon="3.80838">
        <ele>1454.5294189453</ele>
        <time>2020-10-16T12:47:44.564Z</time>
      </trkpt>
      <trkpt lat="44.59392" lon="3.80864">
        <ele>1454.0057373047</ele>
        <time>2020-10-16T12:47:49.177Z</time>
      </trkpt>
      <trkpt lat="44.59389" lon="3.80903">
        <ele>1451.8392333984</ele>
        <time>2020-10-16T12:47:53.796Z</time>
      </trkpt>
      <trkpt lat="44.59389" lon="3.8093">
        <ele>1451.0770263672</ele>
        <time>2020-10-16T12:47:58.419Z</time>
      </trkpt>
      <trkpt lat="44.59389" lon="3.80952">
        <ele>1450.46875</ele>
        <time>2020-10-16T12:48:03.045Z</time>
      </trkpt>
      <trkpt lat="44.59393" lon="3.80976">
        <ele>1451.2529296875</ele>
        <time>2020-10-16T12:48:07.674Z</time>
      </trkpt>
      <trkpt lat="44.59401" lon="3.81001">
        <ele>1453.0340576172</ele>
        <time>2020-10-16T12:48:12.307Z</time>
      </trkpt>
      <trkpt lat="44.59406" lon="3.8102">
        <ele>1454.3366699219</ele>
        <time>2020-10-16T12:48:16.943Z</time>
      </trkpt>
      <trkpt lat="44.59413" lon="3.81044">
        <ele>1454.5083007812</ele>
        <time>2020-10-16T12:48:21.583Z</time>
      </trkpt>
      <trkpt lat="44.59416" lon="3.81056">
        <ele>1454.6999511719</ele>
        <time>2020-10-16T12:48:26.225Z</time>
      </trkpt>
      <trkpt lat="44.59418" lon="3.81078">
        <ele>1453.7633056641</ele>
        <time>2020-10-16T12:48:30.870Z</time>
      </trkpt>
      <trkpt lat="44.59421" lon="3.81095">
        <ele>1453.8572998047</ele>
        <time>2020-10-16T12:48:35.517Z</time>
      </trkpt>
      <trkpt lat="44.59425" lon="3.81126">
        <ele>1454.0400390625</ele>
        <time>2020-10-16T12:48:40.169Z</time>
      </trkpt>
      <trkpt lat="44.59429" lon="3.81155">
        <ele>1454.4379882812</ele>
        <time>2020-10-16T12:48:44.825Z</time>
      </trkpt>
      <trkpt lat="44.59432" lon="3.81175">
        <ele>1455.1846923828</ele>
        <time>2020-10-16T12:48:49.484Z</time>
      </trkpt>
      <trkpt lat="44.59438" lon="3.81197">
        <ele>1456.7845458984</ele>
        <time>2020-10-16T12:48:54.146Z</time>
      </trkpt>
      <trkpt lat="44.59442" lon="3.8121">
        <ele>1457.9168701172</ele>
        <time>2020-10-16T12:48:58.810Z</time>
      </trkpt>
      <trkpt lat="44.59444" lon="3.81223">
        <ele>1458.6614990234</ele>
        <time>2020-10-16T12:49:03.476Z</time>
      </trkpt>
      <trkpt lat="44.59444" lon="3.81245">
        <ele>1458.7493896484</ele>
        <time>2020-10-16T12:49:08.145Z</time>
      </trkpt>
      <trkpt lat="44.59444" lon="3.81255">
        <ele>1459.0595703125</ele>
        <time>2020-10-16T12:49:12.816Z</time>
      </trkpt>
      <trkpt lat="44.59448" lon="3.81264">
        <ele>1460.0035400391</ele>
        <time>2020-10-16T12:49:17.488Z</time>
      </trkpt>
      <trkpt lat="44.5945" lon="3.81271">
        <ele>1460.6787109375</ele>
        <time>2020-10-16T12:49:22.161Z</time>
      </trkpt>
      <trkpt lat="44.5945" lon="3.81282">
        <ele>1460.9013671875</ele>
        <time>2020-10-16T12:49:26.836Z</time>
      </trkpt>
      <trkpt lat="44.5945" lon="3.81303">
        <ele>1461.1489257812</ele>
        <time>2020-10-16T12:49:31.514Z</time>
      </trkpt>
      <trkpt lat="44.5945" lon="3.81326">
        <ele>1461.3881835938</ele>
        <time>2020-10-16T12:49:36.195Z</time>
      </trkpt>
      <trkpt lat="44.5945" lon="3.81347">
        <ele>1461.5345458984</ele>
        <time>2020-10-16T12:49:40.879Z</time>
      </trkpt>
      <trkpt lat="44.59448" lon="3.81362">
        <ele>1461.5964355469</ele>
        <time>2020-10-16T12:49:45.565Z</time>
      </trkpt>
      <trkpt lat="44.59446" lon="3.81371">
        <ele>1461.498046875</ele>
        <time>2020-10-16T12:49:50.253Z</time>
      </trkpt>
      <trkpt lat="44.59439" lon="3.81405">
        <ele>1461.3450927734</ele>
        <time>2020-10-16T12:49:54.946Z</time>
      </trkpt>
      <trkpt lat="44.59436" lon="3.81424">
        <ele>1461.4681396484</ele>
        <time>2020-10-16T12:49:59.642Z</time>
      </trkpt>
      <trkpt lat="44.59435" lon="3.8144">
        <ele>1462.6507568359</ele>
        <time>2020-10-16T12:50:04.340Z</time>
      </trkpt>
      <trkpt lat="44.59436" lon="3.81455">
        <ele>1463.6871337891</ele>
        <time>2020-10-16T12:50:09.040Z</time>
      </trkpt>
      <trkpt lat="44.59441" lon="3.8149">
        <ele>1466.2255859375</ele>
        <time>2020-10-16T12:50:13.745Z</time>
      </trkpt>
      <trkpt lat="44.59446" lon="3.81514">
        <ele>1468.0870361328</ele>
        <time>2020-10-16T12:50:18.454Z</time>
      </trkpt>
      <trkpt lat="44.59455" lon="3.81546">
        <ele>1470.6853027344</ele>
        <time>2020-10-16T12:50:23.167Z</time>
      </trkpt>
      <trkpt lat="44.59466" lon="3.81584">
        <ele>1473.3309326172</ele>
        <time>2020-10-16T12:50:27.886Z</time>
      </trkpt>
      <trkpt lat="44.59473" lon="3.81609">
        <ele>1474.8221435547</ele>
        <time>2020-10-16T12:50:32.609Z</time>
      </trkpt>
      <trkpt lat="44.5948" lon="3.81628">
        <ele>1475.1998291016</ele>
        <time>2020-10-16T12:50:37.335Z</time>
      </trkpt>
      <trkpt lat="44.59484" lon="3.81649">
        <ele>1475.3909912109</ele>
        <time>2020-10-16T12:50:42.064Z</time>
      </trkpt>
      <trkpt lat="44.59491" lon="3.81671">
        <ele>1475.4764404297</ele>
        <time>2020-10-16T12:50:46.797Z</time>
      </trkpt>
      <trkpt lat="44.59501" lon="3.81698">
        <ele>1475.25390625</ele>
        <time>2020-10-16T12:50:51.534Z</time>
      </trkpt>
      <trkpt lat="44.5951" lon="3.81722">
        <ele>1474.4840087891</ele>
        <time>2020-10-16T12:50:56.275Z</time>
      </trkpt>
      <trkpt lat="44.59518" lon="3.81743">
        <ele>1473.8358154297</ele>
        <time>2020-10-16T12:51:01.019Z</time>
      </trkpt>
      <trkpt lat="44.59529" lon="3.81777">
        <ele>1472.7012939453</ele>
        <time>2020-10-16T12:51:05.769Z</time>
      </trkpt>
      <trkpt lat="44.59535" lon="3.818">
        <ele>1471.3087158203</ele>
        <time>2020-10-16T12:51:10.522Z</time>
      </trkpt>
      <trkpt lat="44.59542" lon="3.81823">
        <ele>1470.0288085938</ele>
        <time>2020-10-16T12:51:15.279Z</time>
      </trkpt>
      <trkpt lat="44.59553" lon="3.81852">
        <ele>1468.4226074219</ele>
        <time>2020-10-16T12:51:20.041Z</time>
      </trkpt>
      <trkpt lat="44.5956" lon="3.81867">
        <ele>1468.1591796875</ele>
        <time>2020-10-16T12:51:24.805Z</time>
      </trkpt>
      <trkpt lat="44.59568" lon="3.81881">
        <ele>1468.0959472656</ele>
        <time>2020-10-16T12:51:29.572Z</time>
      </trkpt>
      <trkpt lat="44.59574" lon="3.81892">
        <ele>1468.0281982422</ele>
        <time>2020-10-16T12:51:34.341Z</time>
      </trkpt>
      <trkpt lat="44.59583" lon="3.81911">
        <ele>1467.5201416016</ele>
        <time>2020-10-16T12:51:39.113Z</time>
      </trkpt>
      <trkpt lat="44.59588" lon="3.81928">
        <ele>1466.8270263672</ele>
        <time>2020-10-16T12:51:43.888Z</time>
      </trkpt>
      <trkpt lat="44.59592" lon="3.81944">
        <ele>1466.0388183594</ele>
        <time>2020-10-16T12:51:48.665Z</time>
      </trkpt>
      <trkpt lat="44.59595" lon="3.81955">
        <ele>1465.4273681641</ele>
        <time>2020-10-16T12:51:53.444Z</time>
      </trkpt>
      <trkpt lat="44.59599" lon="3.81965">
        <ele>1464.9122314453</ele>
        <time>2020-10-16T12:51:58.224Z</time>
      </trkpt>
      <trkpt lat="44.59608" lon="3.81973">
        <ele>1464.8955078125</ele>
        <time>2020-10-16T12:52:03.006Z</time>
      </trkpt>
      <trkpt lat="44.59615" lon="3.81979">
        <ele>1464.8361816406</ele>
        <time>2020-10-16T12:52:07.790Z</time>
      </trkpt>
      <trkpt lat="44.59622" lon="3.81994">
        <ele>1463.7370605469</ele>
        <time>2020-10-16T12:52:12.577Z</time>
      </trkpt>
      <trkpt lat="44.59632" lon="3.82017">
        <ele>1461.3709716797</ele>
        <time>2020-10-16T12:52:17.367Z</time>
      </trkpt>
      <trkpt lat="44.59636" lon="3.82031">
        <ele>1460.4041748047</ele>
        <time>2020-10-16T12:52:22.160Z</time>
      </trkpt>
      <trkpt lat="44.59637" lon="3.82048">
        <ele>1459.4866943359</ele>
        <time>2020-10-16T12:52:26.955Z</time>
      </trkpt>
      <trkpt lat="44.59642" lon="3.82059">
        <ele>1458.4808349609</ele>
        <time>2020-10-16T12:52:31.752Z</time>
      </trkpt>
      <trkpt lat="44.59652" lon="3.82087">
        <ele>1456.1275634766</ele>
        <time>2020-10-16T12:52:36.553Z</time>
      </trkpt>
      <trkpt lat="44.59661" lon="3.82104">
        <ele>1454.5576171875</ele>
        <time>2020-10-16T12:52:41.357Z</time>
      </trkpt>
      <trkpt lat="44.59666" lon="3.82124">
        <ele>1453.8383789062</ele>
        <time>2020-10-16T12:52:46.164Z</time>
      </trkpt>
      <trkpt lat="44.59671" lon="3.8217">
        <ele>1452.2868652344</ele>
        <time>2020-10-16T12:52:50.978Z</time>
      </trkpt>
      <trkpt lat="44.59677" lon="3.822">
        <ele>1450.8802490234</ele>
        <time>2020-10-16T12:52:55.797Z</time>
      </trkpt>
      <trkpt lat="44.59684" lon="3.82227">
        <ele>1449.8200683594</ele>
        <time>2020-10-16T12:53:00.620Z</time>
      </trkpt>
      <trkpt lat="44.59691" lon="3.82248">
        <ele>1448.9801025391</ele>
        <time>2020-10-16T12:53:05.446Z</time>
      </trkpt>
      <trkpt lat="44.59697" lon="3.82267">
        <ele>1448.2335205078</ele>
        <time>2020-10-16T12:53:10.275Z</time>
      </trkpt>
      <trkpt lat="44.59704" lon="3.82296">
        <ele>1447.6198730469</ele>
        <time>2020-10-16T12:53:15.108Z</time>
      </trkpt>
      <trkpt lat="44.59707" lon="3.82325">
        <ele>1447.0948486328</ele>
        <time>2020-10-16T12:53:19.946Z</time>
      </trkpt>
      <trkpt lat="44.5971" lon="3.82339">
        <ele>1446.8142089844</ele>
        <time>2020-10-16T12:53:24.786Z</time>
      </trkpt>
      <trkpt lat="44.59712" lon="3.8236">
        <ele>1446.5181884766</ele>
        <time>2020-10-16T12:53:29.629Z</time>
      </trkpt>
      <trkpt lat="44.59712" lon="3.82371">
        <ele>1446.4541015625</ele>
        <time>2020-10-16T12:53:34.473Z</time>
      </trkpt>
      <trkpt lat="44.59708" lon="3.82398">
        <ele>1446.2590332031</ele>
        <time>2020-10-16T12:53:39.321Z</time>
      </trkpt>
      <trkpt lat="44.59703" lon="3.82428">
        <ele>1446.0672607422</ele>
        <time>2020-10-16T12:53:44.173Z</time>
      </trkpt>
      <trkpt lat="44.59701" lon="3.82451">
        <ele>1445.6112060547</ele>
        <time>2020-10-16T12:53:49.029Z</time>
      </trkpt>
      <trkpt lat="44.59699" lon="3.82465">
        <ele>1444.9821777344</ele>
        <time>2020-10-16T12:53:53.887Z</time>
      </trkpt>
      <trkpt lat="44.59699" lon="3.82482">
        <ele>1444.6694335938</ele>
        <time>2020-10-16T12:53:58.747Z</time>
      </trkpt>
      <trkpt lat="44.59695" lon="3.82538">
        <ele>1442.6987304688</ele>
        <time>2020-10-16T12:54:03.615Z</time>
      </trkpt>
      <trkpt lat="44.59693" lon="3.82572">
        <ele>1441.6452636719</ele>
        <time>2020-10-16T12:54:08.488Z</time>
      </trkpt>
      <trkpt lat="44.59689" lon="3.826">
        <ele>1440.6062011719</ele>
        <time>2020-10-16T12:54:13.365Z</time>
      </trkpt>
      <trkpt lat="44.59683" lon="3.82621">
        <ele>1439.8225097656</ele>
        <time>2020-10-16T12:54:18.246Z</time>
      </trkpt>
      <trkpt lat="44.59677" lon="3.82639">
        <ele>1438.9569091797</ele>
        <time>2020-10-16T12:54:23.129Z</time>
      </trkpt>
      <trkpt lat="44.59673" lon="3.82657">
        <ele>1438.2796630859</ele>
        <time>2020-10-16T12:54:28.015Z</time>
      </trkpt>
      <trkpt lat="44.59671" lon="3.82677">
        <ele>1438.2556152344</ele>
        <time>2020-10-16T12:54:32.904Z</time>
      </trkpt>
      <trkpt lat="44.5967" lon="3.82699">
        <ele>1438.2016601562</ele>
        <time>2020-10-16T12:54:37.796Z</time>
      </trkpt>
      <trkpt lat="44.59668" lon="3.82719">
        <ele>1437.7952880859</ele>
        <time>2020-10-16T12:54:42.691Z</time>
      </trkpt>
      <trkpt lat="44.59664" lon="3.82741">
        <ele>1437.5355224609</ele>
        <time>2020-10-16T12:54:47.589Z</time>
      </trkpt>
      <trkpt lat="44.59662" lon="3.82762">
        <ele>1438.1994628906</ele>
        <time>2020-10-16T12:54:52.490Z</time>
      </trkpt>
      <trkpt lat="44.59661" lon="3.82782">
        <ele>1438.3967285156</ele>
        <time>2020-10-16T12:54:57.394Z</time>
      </trkpt>
      <trkpt lat="44.59659" lon="3.82797">
        <ele>1438.1687011719</ele>
        <time>2020-10-16T12:55:02.300Z</time>
      </trkpt>
      <trkpt lat="44.59655" lon="3.82813">
        <ele>1437.8839111328</ele>
        <time>2020-10-16T12:55:07.209Z</time>
      </trkpt>
      <trkpt lat="44.59648" lon="3.82825">
        <ele>1437.7033691406</ele>
        <time>2020-10-16T12:55:12.120Z</time>
      </trkpt>
      <trkpt lat="44.59641" lon="3.82839">
        <ele>1437.5545654297</ele>
        <time>2020-10-16T12:55:17.033Z</time>
      </trkpt>
      <trkpt lat="44.59636" lon="3.82853">
        <ele>1437.4285888672</ele>
        <time>2020-10-16T12:55:21.949Z</time>
      </trkpt>
      <trkpt lat="44.59636" lon="3.82864">
        <ele>1437.6214599609</ele>
        <time>2020-10-16T12:55:26.866Z</time>
      </trkpt>
      <trkpt lat="44.59644" lon="3.82883">
        <ele>1438.2626953125</ele>
        <time>2020-10-16T12:55:31.786Z</time>
      </trkpt>
      <trkpt lat="44.59655" lon="3.82906">
        <ele>1439.1092529297</ele>
        <time>2020-10-16T12:55:36.710Z</time>
      </trkpt>
      <trkpt lat="44.59664" lon="3.82924">
        <ele>1439.7528076172</ele>
        <time>2020-10-16T12:55:41.637Z</time>
      </trkpt>
      <trkpt lat="44.59672" lon="3.82944">
        <ele>1440.4141845703</ele>
        <time>2020-10-16T12:55:46.568Z</time>
      </trkpt>
      <trkpt lat="44.59677" lon="3.82956">
        <ele>1440.8114013672</ele>
        <time>2020-10-16T12:55:51.501Z</time>
      </trkpt>
      <trkpt lat="44.59688" lon="3.82971">
        <ele>1441.4332275391</ele>
        <time>2020-10-16T12:55:56.437Z</time>
      </trkpt>
      <trkpt lat="44.59698" lon="3.82985">
        <ele>1442.0157470703</ele>
        <time>2020-10-16T12:56:01.375Z</time>
      </trkpt>
      <trkpt lat="44.59704" lon="3.82995">
        <ele>1442.1092529297</ele>
        <time>2020-10-16T12:56:06.315Z</time>
      </trkpt>
      <trkpt lat="44.5971" lon="3.8301">
        <ele>1441.7287597656</ele>
        <time>2020-10-16T12:56:11.258Z</time>
      </trkpt>
      <trkpt lat="44.59719" lon="3.83033">
        <ele>1441.0678710938</ele>
        <time>2020-10-16T12:56:16.205Z</time>
      </trkpt>
      <trkpt lat="44.59729" lon="3.83055">
        <ele>1439.9820556641</ele>
        <time>2020-10-16T12:56:21.155Z</time>
      </trkpt>
      <trkpt lat="44.59734" lon="3.83068">
        <ele>1439.3765869141</ele>
        <time>2020-10-16T12:56:26.107Z</time>
      </trkpt>
      <trkpt lat="44.59737" lon="3.83082">
        <ele>1438.9300537109</ele>
        <time>2020-10-16T12:56:31.061Z</time>
      </trkpt>
      <trkpt lat="44.59738" lon="3.83087">
        <ele>1438.7783203125</ele>
        <time>2020-10-16T12:56:36.016Z</time>
      </trkpt>
      <trkpt lat="44.5974" lon="3.83099">
        <ele>1438.4473876953</ele>
        <time>2020-10-16T12:56:40.973Z</time>
      </trkpt>
      <trkpt lat="44.59742" lon="3.83123">
        <ele>1437.5329589844</ele>
        <time>2020-10-16T12:56:45.933Z</time>
      </trkpt>
      <trkpt lat="44.59745" lon="3.83154">
        <ele>1436.1296386719</ele>
        <time>2020-10-16T12:56:50.898Z</time>
      </trkpt>
      <trkpt lat="44.59748" lon="3.83171">
        <ele>1435.2517089844</ele>
        <time>2020-10-16T12:56:55.865Z</time>
      </trkpt>
      <trkpt lat="44.59749" lon="3.83187">
        <ele>1434.5034179688</ele>
        <time>2020-10-16T12:57:00.835Z</time>
      </trkpt>
      <trkpt lat="44.59753" lon="3.83206">
        <ele>1432.8824462891</ele>
        <time>2020-10-16T12:57:05.807Z</time>
      </trkpt>
      <trkpt lat="44.59755" lon="3.83221">
        <ele>1431.6141357422</ele>
        <time>2020-10-16T12:57:10.782Z</time>
      </trkpt>
      <trkpt lat="44.59757" lon="3.83246">
        <ele>1429.5144042969</ele>
        <time>2020-10-16T12:57:15.760Z</time>
      </trkpt>
      <trkpt lat="44.5976" lon="3.83268">
        <ele>1427.2174072266</ele>
        <time>2020-10-16T12:57:20.741Z</time>
      </trkpt>
      <trkpt lat="44.59764" lon="3.83292">
        <ele>1425.5675048828</ele>
        <time>2020-10-16T12:57:25.726Z</time>
      </trkpt>
      <trkpt lat="44.59767" lon="3.83322">
        <ele>1423.9010009766</ele>
        <time>2020-10-16T12:57:30.715Z</time>
      </trkpt>
      <trkpt lat="44.59771" lon="3.83352">
        <ele>1421.4837646484</ele>
        <time>2020-10-16T12:57:35.709Z</time>
      </trkpt>
      <trkpt lat="44.59775" lon="3.83379">
        <ele>1420.1538085938</ele>
        <time>2020-10-16T12:57:40.707Z</time>
      </trkpt>
      <trkpt lat="44.59781" lon="3.83401">
        <ele>1419.3734130859</ele>
        <time>2020-10-16T12:57:45.708Z</time>
      </trkpt>
      <trkpt lat="44.59787" lon="3.83429">
        <ele>1418.2586669922</ele>
        <time>2020-10-16T12:57:50.713Z</time>
      </trkpt>
      <trkpt lat="44.59793" lon="3.83458">
        <ele>1416.9703369141</ele>
        <time>2020-10-16T12:57:55.722Z</time>
      </trkpt>
      <trkpt lat="44.59798" lon="3.83481">
        <ele>1415.6655273438</ele>
        <time>2020-10-16T12:58:00.735Z</time>
      </trkpt>
      <trkpt lat="44.59803" lon="3.83505">
        <ele>1414.2742919922</ele>
        <time>2020-10-16T12:58:05.751Z</time>
      </trkpt>
      <trkpt lat="44.59806" lon="3.83523">
        <ele>1413.2572021484</ele>
        <time>2020-10-16T12:58:10.770Z</time>
      </trkpt>
      <trkpt lat="44.59808" lon="3.83542">
        <ele>1413.2806396484</ele>
        <time>2020-10-16T12:58:15.792Z</time>
      </trkpt>
      <trkpt lat="44.59811" lon="3.83561">
        <ele>1412.3742675781</ele>
        <time>2020-10-16T12:58:20.817Z</time>
      </trkpt>
      <trkpt lat="44.59812" lon="3.83579">
        <ele>1411.1994628906</ele>
        <time>2020-10-16T12:58:25.844Z</time>
      </trkpt>
      <trkpt lat="44.59813" lon="3.83596">
        <ele>1410.0460205078</ele>
        <time>2020-10-16T12:58:30.874Z</time>
      </trkpt>
      <trkpt lat="44.59813" lon="3.83612">
        <ele>1409.4473876953</ele>
        <time>2020-10-16T12:58:35.906Z</time>
      </trkpt>
      <trkpt lat="44.59813" lon="3.83635">
        <ele>1409.6372070312</ele>
        <time>2020-10-16T12:58:40.941Z</time>
      </trkpt>
      <trkpt lat="44.59813" lon="3.83666">
        <ele>1408.9190673828</ele>
        <time>2020-10-16T12:58:45.981Z</time>
      </trkpt>
      <trkpt lat="44.59812" lon="3.83693">
        <ele>1408.0692138672</ele>
        <time>2020-10-16T12:58:51.024Z</time>
      </trkpt>
      <trkpt lat="44.59809" lon="3.83713">
        <ele>1407.0611572266</ele>
        <time>2020-10-16T12:58:56.070Z</time>
      </trkpt>
      <trkpt lat="44.59804" lon="3.83742">
        <ele>1406.6296386719</ele>
        <time>2020-10-16T12:59:01.121Z</time>
      </trkpt>
      <trkpt lat="44.598" lon="3.83765">
        <ele>1406.23046875</ele>
        <time>2020-10-16T12:59:06.175Z</time>
      </trkpt>
      <trkpt lat="44.59795" lon="3.83783">
        <ele>1405.2476806641</ele>
        <time>2020-10-16T12:59:11.232Z</time>
      </trkpt>
      <trkpt lat="44.59792" lon="3.838">
        <ele>1405.1760253906</ele>
        <time>2020-10-16T12:59:16.291Z</time>
      </trkpt>
      <trkpt lat="44.59793" lon="3.83813">
        <ele>1405.1875</ele>
        <time>2020-10-16T12:59:21.352Z</time>
      </trkpt>
      <trkpt lat="44.59791" lon="3.83821">
        <ele>1405.1448974609</ele>
        <time>2020-10-16T12:59:26.414Z</time>
      </trkpt>
      <trkpt lat="44.59784" lon="3.83843">
        <ele>1404.6373291016</ele>
        <time>2020-10-16T12:59:31.480Z</time>
      </trkpt>
      <trkpt lat="44.59777" lon="3.83867">
        <ele>1403.7463378906</ele>
        <time>2020-10-16T12:59:36.550Z</time>
      </trkpt>
      <trkpt lat="44.59772" lon="3.83885">
        <ele>1403.4083251953</ele>
        <time>2020-10-16T12:59:41.622Z</time>
      </trkpt>
      <trkpt lat="44.59769" lon="3.83903">
        <ele>1403.5447998047</ele>
        <time>2020-10-16T12:59:46.697Z</time>
      </trkpt>
      <trkpt lat="44.59769" lon="3.83914">
        <ele>1403.8226318359</ele>
        <time>2020-10-16T12:59:51.774Z</time>
      </trkpt>
      <trkpt lat="44.59766" lon="3.83933">
        <ele>1404.392578125</ele>
        <time>2020-10-16T12:59:56.853Z</time>
      </trkpt>
      <trkpt lat="44.59765" lon="3.83959">
        <ele>1404.2038574219</ele>
        <time>2020-10-16T13:00:01.936Z</time>
      </trkpt>
      <trkpt lat="44.59766" lon="3.83985">
        <ele>1403.7335205078</ele>
        <time>2020-10-16T13:00:07.023Z</time>
      </trkpt>
      <trkpt lat="44.59768" lon="3.83997">
        <ele>1403.7342529297</ele>
        <time>2020-10-16T13:00:12.111Z</time>
      </trkpt>
      <trkpt lat="44.5977" lon="3.84007">
        <ele>1403.9149169922</ele>
        <time>2020-10-16T13:00:17.201Z</time>
      </trkpt>
      <trkpt lat="44.59775" lon="3.84028">
        <ele>1404.5233154297</ele>
        <time>2020-10-16T13:00:22.294Z</time>
      </trkpt>
      <trkpt lat="44.59778" lon="3.8405">
        <ele>1403.82421875</ele>
        <time>2020-10-16T13:00:27.390Z</time>
      </trkpt>
      <trkpt lat="44.5978" lon="3.84065">
        <ele>1403.3422851562</ele>
        <time>2020-10-16T13:00:32.489Z</time>
      </trkpt>
      <trkpt lat="44.59784" lon="3.84085">
        <ele>1402.9061279297</ele>
        <time>2020-10-16T13:00:37.590Z</time>
      </trkpt>
      <trkpt lat="44.59795" lon="3.84125">
        <ele>1400.8598632812</ele>
        <time>2020-10-16T13:00:42.698Z</time>
      </trkpt>
      <trkpt lat="44.59799" lon="3.84138">
        <ele>1400.0858154297</ele>
        <time>2020-10-16T13:00:47.808Z</time>
      </trkpt>
      <trkpt lat="44.59806" lon="3.84151">
        <ele>1399.3005371094</ele>
        <time>2020-10-16T13:00:52.920Z</time>
      </trkpt>
      <trkpt lat="44.59814" lon="3.84164">
        <ele>1398.5260009766</ele>
        <time>2020-10-16T13:00:58.034Z</time>
      </trkpt>
      <trkpt lat="44.59819" lon="3.84172">
        <ele>1398.0061035156</ele>
        <time>2020-10-16T13:01:03.150Z</time>
      </trkpt>
      <trkpt lat="44.59819" lon="3.84173">
        <ele>1397.953125</ele>
        <time>2020-10-16T13:01:08.266Z</time>
      </trkpt>
      <trkpt lat="44.59821" lon="3.8417">
        <ele>1398.0308837891</ele>
        <time>2020-10-16T13:01:13.383Z</time>
      </trkpt>
      <trkpt lat="44.59824" lon="3.84166">
        <ele>1398.1690673828</ele>
        <time>2020-10-16T13:01:18.500Z</time>
      </trkpt>
      <trkpt lat="44.59825" lon="3.84161">
        <ele>1398.3765869141</ele>
        <time>2020-10-16T13:01:23.618Z</time>
      </trkpt>
      <trkpt lat="44.59825" lon="3.84155">
        <ele>1398.6656494141</ele>
        <time>2020-10-16T13:01:28.737Z</time>
      </trkpt>
      <trkpt lat="44.59825" lon="3.84142">
        <ele>1399.1755371094</ele>
        <time>2020-10-16T13:01:33.858Z</time>
      </trkpt>
      <trkpt lat="44.59826" lon="3.8413">
        <ele>1399.2691650391</ele>
        <time>2020-10-16T13:01:38.981Z</time>
      </trkpt>
      <trkpt lat="44.59832" lon="3.84094">
        <ele>1399.7734375</ele>
        <time>2020-10-16T13:01:44.109Z</time>
      </trkpt>
      <trkpt lat="44.59837" lon="3.84066">
        <ele>1400.6553955078</ele>
        <time>2020-10-16T13:01:49.241Z</time>
      </trkpt>
      <trkpt lat="44.59844" lon="3.84036">
        <ele>1401.2354736328</ele>
        <time>2020-10-16T13:01:54.378Z</time>
      </trkpt>
      <trkpt lat="44.59853" lon="3.84005">
        <ele>1401.5828857422</ele>
        <time>2020-10-16T13:01:59.519Z</time>
      </trkpt>
      <trkpt lat="44.59862" lon="3.83971">
        <ele>1402.7471923828</ele>
        <time>2020-10-16T13:02:04.665Z</time>
      </trkpt>
      <trkpt lat="44.59875" lon="3.83934">
        <ele>1402.8536376953</ele>
        <time>2020-10-16T13:02:09.817Z</time>
      </trkpt>
      <trkpt lat="44.59882" lon="3.83915">
        <ele>1402.0279541016</ele>
        <time>2020-10-16T13:02:14.972Z</time>
      </trkpt>
      <trkpt lat="44.5989" lon="3.83892">
        <ele>1401.0158691406</ele>
        <time>2020-10-16T13:02:20.131Z</time>
      </trkpt>
      <trkpt lat="44.59896" lon="3.83879">
        <ele>1400.4987792969</ele>
        <time>2020-10-16T13:02:25.292Z</time>
      </trkpt>
      <trkpt lat="44.59905" lon="3.83867">
        <ele>1400.9033203125</ele>
        <time>2020-10-16T13:02:30.456Z</time>
      </trkpt>
      <trkpt lat="44.59929" lon="3.83838">
        <ele>1400.1087646484</ele>
        <time>2020-10-16T13:02:35.626Z</time>
      </trkpt>
      <trkpt lat="44.59943" lon="3.83824">
        <ele>1400.1705322266</ele>
        <time>2020-10-16T13:02:40.800Z</time>
      </trkpt>
      <trkpt lat="44.5995" lon="3.83817">
        <ele>1400.3337402344</ele>
        <time>2020-10-16T13:02:45.975Z</time>
      </trkpt>
      <trkpt lat="44.59957" lon="3.83807">
        <ele>1399.9018554688</ele>
        <time>2020-10-16T13:02:51.152Z</time>
      </trkpt>
      <trkpt lat="44.59963" lon="3.83799">
        <ele>1399.1851806641</ele>
        <time>2020-10-16T13:02:56.331Z</time>
      </trkpt>
      <trkpt lat="44.59966" lon="3.83798">
        <ele>1398.3850097656</ele>
        <time>2020-10-16T13:03:01.511Z</time>
      </trkpt>
      <trkpt lat="44.59969" lon="3.83799">
        <ele>1397.5524902344</ele>
        <time>2020-10-16T13:03:06.691Z</time>
      </trkpt>
      <trkpt lat="44.59971" lon="3.83802">
        <ele>1396.6317138672</ele>
        <time>2020-10-16T13:03:11.872Z</time>
      </trkpt>
      <trkpt lat="44.59971" lon="3.83808">
        <ele>1396.017578125</ele>
        <time>2020-10-16T13:03:17.054Z</time>
      </trkpt>
      <trkpt lat="44.59969" lon="3.83812">
        <ele>1396.1146240234</ele>
        <time>2020-10-16T13:03:22.236Z</time>
      </trkpt>
      <trkpt lat="44.59965" lon="3.83818">
        <ele>1396.5212402344</ele>
        <time>2020-10-16T13:03:27.420Z</time>
      </trkpt>
      <trkpt lat="44.5996" lon="3.8383">
        <ele>1396.6834716797</ele>
        <time>2020-10-16T13:03:32.605Z</time>
      </trkpt>
      <trkpt lat="44.59955" lon="3.83842">
        <ele>1396.58984375</ele>
        <time>2020-10-16T13:03:37.793Z</time>
      </trkpt>
      <trkpt lat="44.5995" lon="3.83859">
        <ele>1395.8726806641</ele>
        <time>2020-10-16T13:03:42.983Z</time>
      </trkpt>
      <trkpt lat="44.59947" lon="3.83877">
        <ele>1394.0377197266</ele>
        <time>2020-10-16T13:03:48.176Z</time>
      </trkpt>
      <trkpt lat="44.59945" lon="3.83893">
        <ele>1392.4049072266</ele>
        <time>2020-10-16T13:03:53.371Z</time>
      </trkpt>
      <trkpt lat="44.59945" lon="3.83917">
        <ele>1389.521484375</ele>
        <time>2020-10-16T13:03:58.570Z</time>
      </trkpt>
      <trkpt lat="44.59947" lon="3.83931">
        <ele>1387.6049804688</ele>
        <time>2020-10-16T13:04:03.771Z</time>
      </trkpt>
      <trkpt lat="44.59949" lon="3.83939">
        <ele>1386.5441894531</ele>
        <time>2020-10-16T13:04:08.973Z</time>
      </trkpt>
      <trkpt lat="44.59952" lon="3.83946">
        <ele>1385.7481689453</ele>
        <time>2020-10-16T13:04:14.176Z</time>
      </trkpt>
      <trkpt lat="44.59964" lon="3.83967">
        <ele>1382.7369384766</ele>
        <time>2020-10-16T13:04:19.383Z</time>
      </trkpt>
      <trkpt lat="44.59978" lon="3.83985">
        <ele>1379.4899902344</ele>
        <time>2020-10-16T13:04:24.594Z</time>
      </trkpt>
      <trkpt lat="44.59992" lon="3.83999">
        <ele>1376.3967285156</ele>
        <time>2020-10-16T13:04:29.808Z</time>
      </trkpt>
      <trkpt lat="44.60006" lon="3.84013">
        <ele>1373.0858154297</ele>
        <time>2020-10-16T13:04:35.026Z</time>
      </trkpt>
      <trkpt lat="44.60014" lon="3.84023">
        <ele>1371.3017578125</ele>
        <time>2020-10-16T13:04:40.246Z</time>
      </trkpt>
      <trkpt lat="44.6002" lon="3.84031">
        <ele>1370.0847167969</ele>
        <time>2020-10-16T13:04:45.467Z</time>
      </trkpt>
      <trkpt lat="44.60025" lon="3.84033">
        <ele>1369.1320800781</ele>
        <time>2020-10-16T13:04:50.689Z</time>
      </trkpt>
      <trkpt lat="44.6003" lon="3.84033">
        <ele>1368.1927490234</ele>
        <time>2020-10-16T13:04:55.912Z</time>
      </trkpt>
      <trkpt lat="44.60033" lon="3.84029">
        <ele>1367.4478759766</ele>
        <time>2020-10-16T13:05:01.136Z</time>
      </trkpt>
      <trkpt lat="44.60036" lon="3.84024">
        <ele>1366.8763427734</ele>
        <time>2020-10-16T13:05:06.361Z</time>
      </trkpt>
      <trkpt lat="44.60037" lon="3.84013">
        <ele>1366.6423339844</ele>
        <time>2020-10-16T13:05:11.588Z</time>
      </trkpt>
      <trkpt lat="44.60037" lon="3.84001">
        <ele>1366.7362060547</ele>
        <time>2020-10-16T13:05:16.816Z</time>
      </trkpt>
      <trkpt lat="44.60034" lon="3.83989">
        <ele>1367.2547607422</ele>
        <time>2020-10-16T13:05:22.046Z</time>
      </trkpt>
      <trkpt lat="44.6003" lon="3.8398">
        <ele>1368.1662597656</ele>
        <time>2020-10-16T13:05:27.278Z</time>
      </trkpt>
      <trkpt lat="44.60026" lon="3.83974">
        <ele>1369.1691894531</ele>
        <time>2020-10-16T13:05:32.511Z</time>
      </trkpt>
      <trkpt lat="44.60021" lon="3.83967">
        <ele>1370.3151855469</ele>
        <time>2020-10-16T13:05:37.745Z</time>
      </trkpt>
      <trkpt lat="44.60019" lon="3.8396">
        <ele>1370.6806640625</ele>
        <time>2020-10-16T13:05:42.980Z</time>
      </trkpt>
      <trkpt lat="44.6002" lon="3.83954">
        <ele>1370.4384765625</ele>
        <time>2020-10-16T13:05:48.216Z</time>
      </trkpt>
      <trkpt lat="44.60023" lon="3.83952">
        <ele>1369.8544921875</ele>
        <time>2020-10-16T13:05:53.453Z</time>
      </trkpt>
      <trkpt lat="44.60026" lon="3.83951">
        <ele>1368.9837646484</ele>
        <time>2020-10-16T13:05:58.691Z</time>
      </trkpt>
      <trkpt lat="44.60032" lon="3.83951">
        <ele>1367.5946044922</ele>
        <time>2020-10-16T13:06:03.930Z</time>
      </trkpt>
      <trkpt lat="44.60042" lon="3.83955">
        <ele>1365.7392578125</ele>
        <time>2020-10-16T13:06:09.171Z</time>
      </trkpt>
      <trkpt lat="44.60051" lon="3.83958">
        <ele>1364.1857910156</ele>
        <time>2020-10-16T13:06:14.414Z</time>
      </trkpt>
      <trkpt lat="44.60061" lon="3.8396">
        <ele>1362.0181884766</ele>
        <time>2020-10-16T13:06:19.659Z</time>
      </trkpt>
      <trkpt lat="44.60079" lon="3.83961">
        <ele>1357.1905517578</ele>
        <time>2020-10-16T13:06:24.907Z</time>
      </trkpt>
      <trkpt lat="44.60105" lon="3.83963">
        <ele>1350.6370849609</ele>
        <time>2020-10-16T13:06:30.160Z</time>
      </trkpt>
      <trkpt lat="44.60124" lon="3.83963">
        <ele>1345.8128662109</ele>
        <time>2020-10-16T13:06:35.417Z</time>
      </trkpt>
      <trkpt lat="44.60134" lon="3.83962">
        <ele>1343.5935058594</ele>
        <time>2020-10-16T13:06:40.676Z</time>
      </trkpt>
      <trkpt lat="44.60143" lon="3.8396">
        <ele>1341.6569824219</ele>
        <time>2020-10-16T13:06:45.937Z</time>
      </trkpt>
      <trkpt lat="44.6016" lon="3.83954">
        <ele>1338.1785888672</ele>
        <time>2020-10-16T13:06:51.202Z</time>
      </trkpt>
      <trkpt lat="44.60175" lon="3.83949">
        <ele>1335.2819824219</ele>
        <time>2020-10-16T13:06:56.470Z</time>
      </trkpt>
      <trkpt lat="44.60191" lon="3.83943">
        <ele>1332.0645751953</ele>
        <time>2020-10-16T13:07:01.741Z</time>
      </trkpt>
      <trkpt lat="44.60201" lon="3.8394">
        <ele>1330.2122802734</ele>
        <time>2020-10-16T13:07:07.014Z</time>
      </trkpt>
      <trkpt lat="44.60213" lon="3.83937">
        <ele>1329.4659423828</ele>
        <time>2020-10-16T13:07:12.289Z</time>
      </trkpt>
      <trkpt lat="44.6023" lon="3.83933">
        <ele>1328.6351318359</ele>
        <time>2020-10-16T13:07:17.568Z</time>
      </trkpt>
      <trkpt lat="44.60247" lon="3.83929">
        <ele>1327.8166503906</ele>
        <time>2020-10-16T13:07:22.850Z</time>
      </trkpt>
      <trkpt lat="44.60256" lon="3.83927">
        <ele>1327.4133300781</ele>
        <time>2020-10-16T13:07:28.134Z</time>
      </trkpt>
      <trkpt lat="44.60265" lon="3.83923">
        <ele>1326.9543457031</ele>
        <time>2020-10-16T13:07:33.420Z</time>
      </trkpt>
      <trkpt lat="44.60273" lon="3.8392">
        <ele>1325.4964599609</ele>
        <time>2020-10-16T13:07:38.708Z</time>
      </trkpt>
      <trkpt lat="44.60281" lon="3.83917">
        <ele>1323.6070556641</ele>
        <time>2020-10-16T13:07:43.997Z</time>
      </trkpt>
      <trkpt lat="44.60292" lon="3.83913">
        <ele>1321.7583007812</ele>
        <time>2020-10-16T13:07:49.289Z</time>
      </trkpt>
      <trkpt lat="44.60298" lon="3.83914">
        <ele>1321.2586669922</ele>
        <time>2020-10-16T13:07:54.582Z</time>
      </trkpt>
      <trkpt lat="44.60305" lon="3.83916">
        <ele>1321.0883789062</ele>
        <time>2020-10-16T13:07:59.876Z</time>
      </trkpt>
      <trkpt lat="44.60315" lon="3.83923">
        <ele>1321.1156005859</ele>
        <time>2020-10-16T13:08:05.173Z</time>
      </trkpt>
      <trkpt lat="44.60322" lon="3.83928">
        <ele>1321.3255615234</ele>
        <time>2020-10-16T13:08:10.471Z</time>
      </trkpt>
      <trkpt lat="44.60329" lon="3.83938">
        <ele>1322.1884765625</ele>
        <time>2020-10-16T13:08:15.771Z</time>
      </trkpt>
      <trkpt lat="44.60332" lon="3.83942">
        <ele>1321.8768310547</ele>
        <time>2020-10-16T13:08:21.072Z</time>
      </trkpt>
      <trkpt lat="44.60333" lon="3.83943">
        <ele>1321.7994384766</ele>
        <time>2020-10-16T13:08:26.373Z</time>
      </trkpt>
      <trkpt lat="44.60336" lon="3.83945">
        <ele>1321.4063720703</ele>
        <time>2020-10-16T13:08:31.675Z</time>
      </trkpt>
      <trkpt lat="44.60345" lon="3.83949">
        <ele>1320.5104980469</ele>
        <time>2020-10-16T13:08:36.979Z</time>
      </trkpt>
      <trkpt lat="44.60359" lon="3.83954">
        <ele>1319.056640625</ele>
        <time>2020-10-16T13:08:42.286Z</time>
      </trkpt>
      <trkpt lat="44.60375" lon="3.83959">
        <ele>1318.3720703125</ele>
        <time>2020-10-16T13:08:47.596Z</time>
      </trkpt>
      <trkpt lat="44.60385" lon="3.83959">
        <ele>1318.8267822266</ele>
        <time>2020-10-16T13:08:52.908Z</time>
      </trkpt>
      <trkpt lat="44.60398" lon="3.83957">
        <ele>1318.5999755859</ele>
        <time>2020-10-16T13:08:58.223Z</time>
      </trkpt>
      <trkpt lat="44.60409" lon="3.83955">
        <ele>1318.1087646484</ele>
        <time>2020-10-16T13:09:03.540Z</time>
      </trkpt>
      <trkpt lat="44.60416" lon="3.83954">
        <ele>1317.8350830078</ele>
        <time>2020-10-16T13:09:08.858Z</time>
      </trkpt>
      <trkpt lat="44.60426" lon="3.83955">
        <ele>1317.5017089844</ele>
        <time>2020-10-16T13:09:14.178Z</time>
      </trkpt>
      <trkpt lat="44.60452" lon="3.83955">
        <ele>1316.5716552734</ele>
        <time>2020-10-16T13:09:19.503Z</time>
      </trkpt>
      <trkpt lat="44.60476" lon="3.83955">
        <ele>1318.6700439453</ele>
        <time>2020-10-16T13:09:24.833Z</time>
      </trkpt>
      <trkpt lat="44.60488" lon="3.83957">
        <ele>1319.6383056641</ele>
        <time>2020-10-16T13:09:30.165Z</time>
      </trkpt>
      <trkpt lat="44.60503" lon="3.83961">
        <ele>1320.9729003906</ele>
        <time>2020-10-16T13:09:35.501Z</time>
      </trkpt>
      <trkpt lat="44.60521" lon="3.83968">
        <ele>1322.7160644531</ele>
        <time>2020-10-16T13:09:40.840Z</time>
      </trkpt>
      <trkpt lat="44.60537" lon="3.83977">
        <ele>1324.3770751953</ele>
        <time>2020-10-16T13:09:46.183Z</time>
      </trkpt>
      <trkpt lat="44.6055" lon="3.83984">
        <ele>1325.5913085938</ele>
        <time>2020-10-16T13:09:51.529Z</time>
      </trkpt>
      <trkpt lat="44.60557" lon="3.83986">
        <ele>1326.1470947266</ele>
        <time>2020-10-16T13:09:56.876Z</time>
      </trkpt>
      <trkpt lat="44.60564" lon="3.83987">
        <ele>1326.5656738281</ele>
        <time>2020-10-16T13:10:02.224Z</time>
      </trkpt>
      <trkpt lat="44.6057" lon="3.83987">
        <ele>1326.9727783203</ele>
        <time>2020-10-16T13:10:07.574Z</time>
      </trkpt>
      <trkpt lat="44.606" lon="3.83983">
        <ele>1328.3049316406</ele>
        <time>2020-10-16T13:10:12.930Z</time>
      </trkpt>
      <trkpt lat="44.60617" lon="3.83983">
        <ele>1329.0887451172</ele>
        <time>2020-10-16T13:10:18.289Z</time>
      </trkpt>
      <trkpt lat="44.60636" lon="3.83984">
        <ele>1326.7805175781</ele>
        <time>2020-10-16T13:10:23.652Z</time>
      </trkpt>
      <trkpt lat="44.60662" lon="3.83987">
        <ele>1323.2091064453</ele>
        <time>2020-10-16T13:10:29.020Z</time>
      </trkpt>
      <trkpt lat="44.60681" lon="3.83989">
        <ele>1321.1002197266</ele>
        <time>2020-10-16T13:10:34.392Z</time>
      </trkpt>
      <trkpt lat="44.60708" lon="3.83994">
        <ele>1318.5091552734</ele>
        <time>2020-10-16T13:10:39.769Z</time>
      </trkpt>
      <trkpt lat="44.60737" lon="3.83997">
        <ele>1316.5904541016</ele>
        <time>2020-10-16T13:10:45.152Z</time>
      </trkpt>
      <trkpt lat="44.60749" lon="3.83999">
        <ele>1315.7470703125</ele>
        <time>2020-10-16T13:10:50.538Z</time>
      </trkpt>
      <trkpt lat="44.60763" lon="3.84002">
        <ele>1314.8380126953</ele>
        <time>2020-10-16T13:10:55.926Z</time>
      </trkpt>
      <trkpt lat="44.60774" lon="3.84002">
        <ele>1313.8247070312</ele>
        <time>2020-10-16T13:11:01.317Z</time>
      </trkpt>
      <trkpt lat="44.60784" lon="3.84001">
        <ele>1312.7850341797</ele>
        <time>2020-10-16T13:11:06.710Z</time>
      </trkpt>
      <trkpt lat="44.60791" lon="3.83999">
        <ele>1312.4738769531</ele>
        <time>2020-10-16T13:11:12.104Z</time>
      </trkpt>
      <trkpt lat="44.60799" lon="3.83997">
        <ele>1312.1372070312</ele>
        <time>2020-10-16T13:11:17.500Z</time>
      </trkpt>
      <trkpt lat="44.60816" lon="3.83992">
        <ele>1311.40625</ele>
        <time>2020-10-16T13:11:22.899Z</time>
      </trkpt>
      <trkpt lat="44.60841" lon="3.83984">
        <ele>1310.2426757812</ele>
        <time>2020-10-16T13:11:28.303Z</time>
      </trkpt>
      <trkpt lat="44.6085" lon="3.8398">
        <ele>1309.6492919922</ele>
        <time>2020-10-16T13:11:33.709Z</time>
      </trkpt>
      <trkpt lat="44.60862" lon="3.83974">
        <ele>1308.7432861328</ele>
        <time>2020-10-16T13:11:39.118Z</time>
      </trkpt>
      <trkpt lat="44.60895" lon="3.83956">
        <ele>1305.158203125</ele>
        <time>2020-10-16T13:11:44.534Z</time>
      </trkpt>
      <trkpt lat="44.60909" lon="3.83949">
        <ele>1304.3208007812</ele>
        <time>2020-10-16T13:11:49.953Z</time>
      </trkpt>
      <trkpt lat="44.60919" lon="3.83945">
        <ele>1303.7023925781</ele>
        <time>2020-10-16T13:11:55.374Z</time>
      </trkpt>
      <trkpt lat="44.60934" lon="3.83941">
        <ele>1302.9309082031</ele>
        <time>2020-10-16T13:12:00.798Z</time>
      </trkpt>
      <trkpt lat="44.60949" lon="3.83938">
        <ele>1301.9724121094</ele>
        <time>2020-10-16T13:12:06.225Z</time>
      </trkpt>
      <trkpt lat="44.60961" lon="3.83936">
        <ele>1301.0098876953</ele>
        <time>2020-10-16T13:12:11.654Z</time>
      </trkpt>
      <trkpt lat="44.60972" lon="3.83935">
        <ele>1300.2131347656</ele>
        <time>2020-10-16T13:12:17.086Z</time>
      </trkpt>
      <trkpt lat="44.6099" lon="3.83936">
        <ele>1299.1727294922</ele>
        <time>2020-10-16T13:12:22.521Z</time>
      </trkpt>
      <trkpt lat="44.61" lon="3.83935">
        <ele>1298.525390625</ele>
        <time>2020-10-16T13:12:27.958Z</time>
      </trkpt>
      <trkpt lat="44.61006" lon="3.83934">
        <ele>1298.0224609375</ele>
        <time>2020-10-16T13:12:33.396Z</time>
      </trkpt>
      <trkpt lat="44.61025" lon="3.83929">
        <ele>1296.1232910156</ele>
        <time>2020-10-16T13:12:38.838Z</time>
      </trkpt>
      <trkpt lat="44.61033" lon="3.83928">
        <ele>1295.8157958984</ele>
        <time>2020-10-16T13:12:44.282Z</time>
      </trkpt>
      <trkpt lat="44.61042" lon="3.83927">
        <ele>1295.2521972656</ele>
        <time>2020-10-16T13:12:49.728Z</time>
      </trkpt>
      <trkpt lat="44.61051" lon="3.83928">
        <ele>1294.7213134766</ele>
        <time>2020-10-16T13:12:55.175Z</time>
      </trkpt>
      <trkpt lat="44.61071" lon="3.83934">
        <ele>1293.8221435547</ele>
        <time>2020-10-16T13:13:00.627Z</time>
      </trkpt>
      <trkpt lat="44.6108" lon="3.83937">
        <ele>1293.5063476562</ele>
        <time>2020-10-16T13:13:06.080Z</time>
      </trkpt>
      <trkpt lat="44.6109" lon="3.83941">
        <ele>1293.0947265625</ele>
        <time>2020-10-16T13:13:11.535Z</time>
      </trkpt>
      <trkpt lat="44.61103" lon="3.83948">
        <ele>1292.2305908203</ele>
        <time>2020-10-16T13:13:16.993Z</time>
      </trkpt>
      <trkpt lat="44.61119" lon="3.83955">
        <ele>1291.1915283203</ele>
        <time>2020-10-16T13:13:22.455Z</time>
      </trkpt>
      <trkpt lat="44.61125" lon="3.83957">
        <ele>1291.1370849609</ele>
        <time>2020-10-16T13:13:27.918Z</time>
      </trkpt>
      <trkpt lat="44.61133" lon="3.83959">
        <ele>1291.0603027344</ele>
        <time>2020-10-16T13:13:33.383Z</time>
      </trkpt>
      <trkpt lat="44.61142" lon="3.83959">
        <ele>1290.8712158203</ele>
        <time>2020-10-16T13:13:38.849Z</time>
      </trkpt>
      <trkpt lat="44.61152" lon="3.83958">
        <ele>1290.4871826172</ele>
        <time>2020-10-16T13:13:44.317Z</time>
      </trkpt>
      <trkpt lat="44.6116" lon="3.83955">
        <ele>1290.0877685547</ele>
        <time>2020-10-16T13:13:49.787Z</time>
      </trkpt>
      <trkpt lat="44.61172" lon="3.8395">
        <ele>1289.4914550781</ele>
        <time>2020-10-16T13:13:55.259Z</time>
      </trkpt>
      <trkpt lat="44.61187" lon="3.83942">
        <ele>1288.6408691406</ele>
        <time>2020-10-16T13:14:00.735Z</time>
      </trkpt>
      <trkpt lat="44.61209" lon="3.83933">
        <ele>1287.3319091797</ele>
        <time>2020-10-16T13:14:06.215Z</time>
      </trkpt>
      <trkpt lat="44.61241" lon="3.83921">
        <ele>1285.7603759766</ele>
        <time>2020-10-16T13:14:11.702Z</time>
      </trkpt>
      <trkpt lat="44.61253" lon="3.83917">
        <ele>1285.2269287109</ele>
        <time>2020-10-16T13:14:17.191Z</time>
      </trkpt>
      <trkpt lat="44.61267" lon="3.83911">
        <ele>1284.9750976562</ele>
        <time>2020-10-16T13:14:22.683Z</time>
      </trkpt>
      <trkpt lat="44.61274" lon="3.83906">
        <ele>1285.0202636719</ele>
        <time>2020-10-16T13:14:28.177Z</time>
      </trkpt>
      <trkpt lat="44.61284" lon="3.83898">
        <ele>1284.9901123047</ele>
        <time>2020-10-16T13:14:33.673Z</time>
      </trkpt>
      <trkpt lat="44.6129" lon="3.83892">
        <ele>1284.4945068359</ele>
        <time>2020-10-16T13:14:39.171Z</time>
      </trkpt>
      <trkpt lat="44.61298" lon="3.83887">
        <ele>1283.8940429688</ele>
        <time>2020-10-16T13:14:44.670Z</time>
      </trkpt>
      <trkpt lat="44.61306" lon="3.83884">
        <ele>1283.3634033203</ele>
        <time>2020-10-16T13:14:50.171Z</time>
      </trkpt>
      <trkpt lat="44.61317" lon="3.83883">
        <ele>1282.7514648438</ele>
        <time>2020-10-16T13:14:55.674Z</time>
      </trkpt>
      <trkpt lat="44.61327" lon="3.83881">
        <ele>1281.9997558594</ele>
        <time>2020-10-16T13:15:01.179Z</time>
      </trkpt>
      <trkpt lat="44.61338" lon="3.83876">
        <ele>1281.1005859375</ele>
        <time>2020-10-16T13:15:06.686Z</time>
      </trkpt>
      <trkpt lat="44.61348" lon="3.83869">
        <ele>1280.021484375</ele>
        <time>2020-10-16T13:15:12.196Z</time>
      </trkpt>
      <trkpt lat="44.6136" lon="3.8386">
        <ele>1278.7716064453</ele>
        <time>2020-10-16T13:15:17.709Z</time>
      </trkpt>
      <trkpt lat="44.61371" lon="3.83854">
        <ele>1277.7694091797</ele>
        <time>2020-10-16T13:15:23.224Z</time>
      </trkpt>
      <trkpt lat="44.61381" lon="3.83849">
        <ele>1276.8272705078</ele>
        <time>2020-10-16T13:15:28.741Z</time>
      </trkpt>
      <trkpt lat="44.61409" lon="3.83832">
        <ele>1274.0366210938</ele>
        <time>2020-10-16T13:15:34.264Z</time>
      </trkpt>
      <trkpt lat="44.61433" lon="3.83815">
        <ele>1271.3173828125</ele>
        <time>2020-10-16T13:15:39.792Z</time>
      </trkpt>
      <trkpt lat="44.61456" lon="3.83794">
        <ele>1268.2322998047</ele>
        <time>2020-10-16T13:15:45.326Z</time>
      </trkpt>
      <trkpt lat="44.61489" lon="3.83769">
        <ele>1266.576171875</ele>
        <time>2020-10-16T13:15:50.867Z</time>
      </trkpt>
      <trkpt lat="44.61522" lon="3.83746">
        <ele>1263.6715087891</ele>
        <time>2020-10-16T13:15:56.416Z</time>
      </trkpt>
      <trkpt lat="44.61538" lon="3.83735">
        <ele>1263.0986328125</ele>
        <time>2020-10-16T13:16:01.968Z</time>
      </trkpt>
      <trkpt lat="44.61555" lon="3.83719">
        <ele>1260.2794189453</ele>
        <time>2020-10-16T13:16:07.524Z</time>
      </trkpt>
      <trkpt lat="44.61566" lon="3.83708">
        <ele>1259.9913330078</ele>
        <time>2020-10-16T13:16:13.083Z</time>
      </trkpt>
      <trkpt lat="44.61576" lon="3.83697">
        <ele>1261.3112792969</ele>
        <time>2020-10-16T13:16:18.645Z</time>
      </trkpt>
      <trkpt lat="44.61598" lon="3.83664">
        <ele>1259.2016601562</ele>
        <time>2020-10-16T13:16:24.213Z</time>
      </trkpt>
      <trkpt lat="44.61612" lon="3.83646">
        <ele>1259.4708251953</ele>
        <time>2020-10-16T13:16:29.785Z</time>
      </trkpt>
      <trkpt lat="44.61624" lon="3.83633">
        <ele>1258.8879394531</ele>
        <time>2020-10-16T13:16:35.360Z</time>
      </trkpt>
      <trkpt lat="44.61637" lon="3.83619">
        <ele>1257.2586669922</ele>
        <time>2020-10-16T13:16:40.938Z</time>
      </trkpt>
      <trkpt lat="44.61658" lon="3.83602">
        <ele>1259.4210205078</ele>
        <time>2020-10-16T13:16:46.521Z</time>
      </trkpt>
      <trkpt lat="44.61704" lon="3.83565">
        <ele>1261.2456054688</ele>
        <time>2020-10-16T13:16:52.115Z</time>
      </trkpt>
      <trkpt lat="44.6172" lon="3.83551">
        <ele>1260.2935791016</ele>
        <time>2020-10-16T13:16:57.712Z</time>
      </trkpt>
      <trkpt lat="44.61728" lon="3.83541">
        <ele>1260.3515625</ele>
        <time>2020-10-16T13:17:03.312Z</time>
      </trkpt>
      <trkpt lat="44.61738" lon="3.83528">
        <ele>1261.7150878906</ele>
        <time>2020-10-16T13:17:08.914Z</time>
      </trkpt>
      <trkpt lat="44.61754" lon="3.83504">
        <ele>1260.6265869141</ele>
        <time>2020-10-16T13:17:14.521Z</time>
      </trkpt>
      <trkpt lat="44.61763" lon="3.83494">
        <ele>1260.5440673828</ele>
        <time>2020-10-16T13:17:20.130Z</time>
      </trkpt>
      <trkpt lat="44.61771" lon="3.83488">
        <ele>1261.5557861328</ele>
        <time>2020-10-16T13:17:25.741Z</time>
      </trkpt>
      <trkpt lat="44.61779" lon="3.83485">
        <ele>1263.0113525391</ele>
        <time>2020-10-16T13:17:31.354Z</time>
      </trkpt>
      <trkpt lat="44.61791" lon="3.83482">
        <ele>1264.5632324219</ele>
        <time>2020-10-16T13:17:36.969Z</time>
      </trkpt>
      <trkpt lat="44.61811" lon="3.83477">
        <ele>1265.7329101562</ele>
        <time>2020-10-16T13:17:42.588Z</time>
      </trkpt>
      <trkpt lat="44.61847" lon="3.83468">
        <ele>1268.8237304688</ele>
        <time>2020-10-16T13:17:48.215Z</time>
      </trkpt>
      <trkpt lat="44.61892" lon="3.83455">
        <ele>1270.5042724609</ele>
        <time>2020-10-16T13:17:53.851Z</time>
      </trkpt>
      <trkpt lat="44.61935" lon="3.83446">
        <ele>1272.3654785156</ele>
        <time>2020-10-16T13:17:59.496Z</time>
      </trkpt>
      <trkpt lat="44.61987" lon="3.83435">
        <ele>1271.7795410156</ele>
        <time>2020-10-16T13:18:05.151Z</time>
      </trkpt>
      <trkpt lat="44.62015" lon="3.8343">
        <ele>1270.5645751953</ele>
        <time>2020-10-16T13:18:10.812Z</time>
      </trkpt>
      <trkpt lat="44.62031" lon="3.83429">
        <ele>1270.2738037109</ele>
        <time>2020-10-16T13:18:16.476Z</time>
      </trkpt>
      <trkpt lat="44.62049" lon="3.8343">
        <ele>1269.4855957031</ele>
        <time>2020-10-16T13:18:22.144Z</time>
      </trkpt>
      <trkpt lat="44.62064" lon="3.83435">
        <ele>1269.1754150391</ele>
        <time>2020-10-16T13:18:27.815Z</time>
      </trkpt>
      <trkpt lat="44.62075" lon="3.83439">
        <ele>1269.0966796875</ele>
        <time>2020-10-16T13:18:33.488Z</time>
      </trkpt>
      <trkpt lat="44.62081" lon="3.8344">
        <ele>1268.7113037109</ele>
        <time>2020-10-16T13:18:39.162Z</time>
      </trkpt>
      <trkpt lat="44.62087" lon="3.83441">
        <ele>1268.2667236328</ele>
        <time>2020-10-16T13:18:44.837Z</time>
      </trkpt>
      <trkpt lat="44.62099" lon="3.83441">
        <ele>1267.3884277344</ele>
        <time>2020-10-16T13:18:50.515Z</time>
      </trkpt>
      <trkpt lat="44.62113" lon="3.83441">
        <ele>1266.3548583984</ele>
        <time>2020-10-16T13:18:56.196Z</time>
      </trkpt>
      <trkpt lat="44.62125" lon="3.83444">
        <ele>1265.3289794922</ele>
        <time>2020-10-16T13:19:01.879Z</time>
      </trkpt>
      <trkpt lat="44.62137" lon="3.83448">
        <ele>1263.9030761719</ele>
        <time>2020-10-16T13:19:07.564Z</time>
      </trkpt>
      <trkpt lat="44.62149" lon="3.83454">
        <ele>1262.5668945312</ele>
        <time>2020-10-16T13:19:13.252Z</time>
      </trkpt>
      <trkpt lat="44.62171" lon="3.83466">
        <ele>1260.0997314453</ele>
        <time>2020-10-16T13:19:18.945Z</time>
      </trkpt>
      <trkpt lat="44.62195" lon="3.83476">
        <ele>1257.3319091797</ele>
        <time>2020-10-16T13:19:24.643Z</time>
      </trkpt>
      <trkpt lat="44.62208" lon="3.83483">
        <ele>1255.9454345703</ele>
        <time>2020-10-16T13:19:30.343Z</time>
      </trkpt>
      <trkpt lat="44.62218" lon="3.83489">
        <ele>1255.0354003906</ele>
        <time>2020-10-16T13:19:36.046Z</time>
      </trkpt>
      <trkpt lat="44.62252" lon="3.83512">
        <ele>1252.0924072266</ele>
        <time>2020-10-16T13:19:41.756Z</time>
      </trkpt>
      <trkpt lat="44.62276" lon="3.83527">
        <ele>1249.6729736328</ele>
        <time>2020-10-16T13:19:47.471Z</time>
      </trkpt>
      <trkpt lat="44.62312" lon="3.8355">
        <ele>1247.3253173828</ele>
        <time>2020-10-16T13:19:53.194Z</time>
      </trkpt>
      <trkpt lat="44.62325" lon="3.83558">
        <ele>1246.7276611328</ele>
        <time>2020-10-16T13:19:58.920Z</time>
      </trkpt>
      <trkpt lat="44.62334" lon="3.83563">
        <ele>1246.2708740234</ele>
        <time>2020-10-16T13:20:04.648Z</time>
      </trkpt>
      <trkpt lat="44.62358" lon="3.83574">
        <ele>1245.1563720703</ele>
        <time>2020-10-16T13:20:10.381Z</time>
      </trkpt>
      <trkpt lat="44.62367" lon="3.8358">
        <ele>1244.6871337891</ele>
        <time>2020-10-16T13:20:16.116Z</time>
      </trkpt>
      <trkpt lat="44.62378" lon="3.83586">
        <ele>1244.2424316406</ele>
        <time>2020-10-16T13:20:21.854Z</time>
      </trkpt>
      <trkpt lat="44.62386" lon="3.8359">
        <ele>1243.9588623047</ele>
        <time>2020-10-16T13:20:27.593Z</time>
      </trkpt>
      <trkpt lat="44.62394" lon="3.83591">
        <ele>1243.7467041016</ele>
        <time>2020-10-16T13:20:33.334Z</time>
      </trkpt>
      <trkpt lat="44.62401" lon="3.83592">
        <ele>1243.5739746094</ele>
        <time>2020-10-16T13:20:39.076Z</time>
      </trkpt>
      <trkpt lat="44.62418" lon="3.83591">
        <ele>1243.1768798828</ele>
        <time>2020-10-16T13:20:44.822Z</time>
      </trkpt>
      <trkpt lat="44.62433" lon="3.8359">
        <ele>1242.8337402344</ele>
        <time>2020-10-16T13:20:50.571Z</time>
      </trkpt>
      <trkpt lat="44.62464" lon="3.83591">
        <ele>1240.9207763672</ele>
        <time>2020-10-16T13:20:56.326Z</time>
      </trkpt>
      <trkpt lat="44.62472" lon="3.8359">
        <ele>1240.4826660156</ele>
        <time>2020-10-16T13:21:02.082Z</time>
      </trkpt>
      <trkpt lat="44.62481" lon="3.83586">
        <ele>1239.9014892578</ele>
        <time>2020-10-16T13:21:07.840Z</time>
      </trkpt>
      <trkpt lat="44.62499" lon="3.83579">
        <ele>1238.7980957031</ele>
        <time>2020-10-16T13:21:13.602Z</time>
      </trkpt>
      <trkpt lat="44.6251" lon="3.83578">
        <ele>1238.1694335938</ele>
        <time>2020-10-16T13:21:19.366Z</time>
      </trkpt>
      <trkpt lat="44.62519" lon="3.8358">
        <ele>1237.5377197266</ele>
        <time>2020-10-16T13:21:25.132Z</time>
      </trkpt>
      <trkpt lat="44.62529" lon="3.83584">
        <ele>1237.0130615234</ele>
        <time>2020-10-16T13:21:30.900Z</time>
      </trkpt>
      <trkpt lat="44.62541" lon="3.83592">
        <ele>1236.5932617188</ele>
        <time>2020-10-16T13:21:36.671Z</time>
      </trkpt>
      <trkpt lat="44.62558" lon="3.83605">
        <ele>1236.2878417969</ele>
        <time>2020-10-16T13:21:42.446Z</time>
      </trkpt>
      <trkpt lat="44.6258" lon="3.83621">
        <ele>1234.4438476562</ele>
        <time>2020-10-16T13:21:48.226Z</time>
      </trkpt>
      <trkpt lat="44.62597" lon="3.83638">
        <ele>1232.828125</ele>
        <time>2020-10-16T13:21:54.010Z</time>
      </trkpt>
      <trkpt lat="44.62607" lon="3.8365">
        <ele>1231.759765625</ele>
        <time>2020-10-16T13:21:59.797Z</time>
      </trkpt>
      <trkpt lat="44.62618" lon="3.83666">
        <ele>1230.5876464844</ele>
        <time>2020-10-16T13:22:05.587Z</time>
      </trkpt>
      <trkpt lat="44.62626" lon="3.83682">
        <ele>1229.0866699219</ele>
        <time>2020-10-16T13:22:11.379Z</time>
      </trkpt>
      <trkpt lat="44.62632" lon="3.837">
        <ele>1227.7857666016</ele>
        <time>2020-10-16T13:22:17.174Z</time>
      </trkpt>
      <trkpt lat="44.62635" lon="3.83715">
        <ele>1226.3996582031</ele>
        <time>2020-10-16T13:22:22.972Z</time>
      </trkpt>
      <trkpt lat="44.62637" lon="3.83731">
        <ele>1224.9064941406</ele>
        <time>2020-10-16T13:22:28.772Z</time>
      </trkpt>
      <trkpt lat="44.62637" lon="3.83748">
        <ele>1223.5380859375</ele>
        <time>2020-10-16T13:22:34.574Z</time>
      </trkpt>
      <trkpt lat="44.62636" lon="3.83759">
        <ele>1222.6236572266</ele>
        <time>2020-10-16T13:22:40.378Z</time>
      </trkpt>
      <trkpt lat="44.62636" lon="3.83773">
        <ele>1221.5205078125</ele>
        <time>2020-10-16T13:22:46.184Z</time>
      </trkpt>
      <trkpt lat="44.62639" lon="3.83786">
        <ele>1221.1866455078</ele>
        <time>2020-10-16T13:22:51.992Z</time>
      </trkpt>
      <trkpt lat="44.62643" lon="3.83799">
        <ele>1220.4288330078</ele>
        <time>2020-10-16T13:22:57.802Z</time>
      </trkpt>
      <trkpt lat="44.62649" lon="3.83814">
        <ele>1218.9685058594</ele>
        <time>2020-10-16T13:23:03.614Z</time>
      </trkpt>
      <trkpt lat="44.62658" lon="3.83833">
        <ele>1217.1455078125</ele>
        <time>2020-10-16T13:23:09.430Z</time>
      </trkpt>
      <trkpt lat="44.62665" lon="3.83847">
        <ele>1215.7878417969</ele>
        <time>2020-10-16T13:23:15.248Z</time>
      </trkpt>
      <trkpt lat="44.62674" lon="3.8386">
        <ele>1215</ele>
        <time>2020-10-16T13:23:21.069Z</time>
      </trkpt>
      <trkpt lat="44.62685" lon="3.8387">
        <ele>1215</ele>
        <time>2020-10-16T13:23:26.892Z</time>
      </trkpt>
      <trkpt lat="44.62698" lon="3.83879">
        <ele>1215</ele>
        <time>2020-10-16T13:23:32.718Z</time>
      </trkpt>
      <trkpt lat="44.62721" lon="3.8389">
        <ele>1215.9074707031</ele>
        <time>2020-10-16T13:23:38.549Z</time>
      </trkpt>
      <trkpt lat="44.62741" lon="3.83896">
        <ele>1216.8564453125</ele>
        <time>2020-10-16T13:23:44.384Z</time>
      </trkpt>
      <trkpt lat="44.62756" lon="3.839">
        <ele>1217.0345458984</ele>
        <time>2020-10-16T13:23:50.222Z</time>
      </trkpt>
      <trkpt lat="44.62778" lon="3.83906">
        <ele>1217.0902099609</ele>
        <time>2020-10-16T13:23:56.065Z</time>
      </trkpt>
      <trkpt lat="44.6279" lon="3.83908">
        <ele>1217.1647949219</ele>
        <time>2020-10-16T13:24:01.910Z</time>
      </trkpt>
      <trkpt lat="44.628" lon="3.8391">
        <ele>1217.2409667969</ele>
        <time>2020-10-16T13:24:07.757Z</time>
      </trkpt>
      <trkpt lat="44.6281" lon="3.8391">
        <ele>1217.2681884766</ele>
        <time>2020-10-16T13:24:13.606Z</time>
      </trkpt>
      <trkpt lat="44.6282" lon="3.83911">
        <ele>1217.3089599609</ele>
        <time>2020-10-16T13:24:19.457Z</time>
      </trkpt>
      <trkpt lat="44.62829" lon="3.83913">
        <ele>1217.4342041016</ele>
        <time>2020-10-16T13:24:25.310Z</time>
      </trkpt>
      <trkpt lat="44.62838" lon="3.83917">
        <ele>1217.6799316406</ele>
        <time>2020-10-16T13:24:31.165Z</time>
      </trkpt>
      <trkpt lat="44.62845" lon="3.83923">
        <ele>1218.0142822266</ele>
        <time>2020-10-16T13:24:37.021Z</time>
      </trkpt>
      <trkpt lat="44.62872" lon="3.83945">
        <ele>1218.9390869141</ele>
        <time>2020-10-16T13:24:42.884Z</time>
      </trkpt>
      <trkpt lat="44.62909" lon="3.83974">
        <ele>1219.6474609375</ele>
        <time>2020-10-16T13:24:48.755Z</time>
      </trkpt>
      <trkpt lat="44.62932" lon="3.83993">
        <ele>1220.1021728516</ele>
        <time>2020-10-16T13:24:54.632Z</time>
      </trkpt>
      <trkpt lat="44.62945" lon="3.84002">
        <ele>1220.3924560547</ele>
        <time>2020-10-16T13:25:00.512Z</time>
      </trkpt>
      <trkpt lat="44.62958" lon="3.8401">
        <ele>1220.7176513672</ele>
        <time>2020-10-16T13:25:06.394Z</time>
      </trkpt>
      <trkpt lat="44.62977" lon="3.84018">
        <ele>1221.3431396484</ele>
        <time>2020-10-16T13:25:12.280Z</time>
      </trkpt>
      <trkpt lat="44.62997" lon="3.84024">
        <ele>1221.9591064453</ele>
        <time>2020-10-16T13:25:18.170Z</time>
      </trkpt>
      <trkpt lat="44.63028" lon="3.84032">
        <ele>1222.7115478516</ele>
        <time>2020-10-16T13:25:24.067Z</time>
      </trkpt>
      <trkpt lat="44.63065" lon="3.8404">
        <ele>1222.0046386719</ele>
        <time>2020-10-16T13:25:29.971Z</time>
      </trkpt>
      <trkpt lat="44.63074" lon="3.84042">
        <ele>1221.7008056641</ele>
        <time>2020-10-16T13:25:35.877Z</time>
      </trkpt>
      <trkpt lat="44.63099" lon="3.84046">
        <ele>1220.7579345703</ele>
        <time>2020-10-16T13:25:41.788Z</time>
      </trkpt>
      <trkpt lat="44.63127" lon="3.84052">
        <ele>1219.8356933594</ele>
        <time>2020-10-16T13:25:47.705Z</time>
      </trkpt>
      <trkpt lat="44.63145" lon="3.84057">
        <ele>1219.4842529297</ele>
        <time>2020-10-16T13:25:53.625Z</time>
      </trkpt>
      <trkpt lat="44.63158" lon="3.84064">
        <ele>1219.0084228516</ele>
        <time>2020-10-16T13:25:59.548Z</time>
      </trkpt>
      <trkpt lat="44.63172" lon="3.84073">
        <ele>1218.3424072266</ele>
        <time>2020-10-16T13:26:05.474Z</time>
      </trkpt>
      <trkpt lat="44.63187" lon="3.84083">
        <ele>1217.5202636719</ele>
        <time>2020-10-16T13:26:11.404Z</time>
      </trkpt>
      <trkpt lat="44.632" lon="3.84095">
        <ele>1216.6727294922</ele>
        <time>2020-10-16T13:26:17.337Z</time>
      </trkpt>
      <trkpt lat="44.63216" lon="3.84112">
        <ele>1216.2938232422</ele>
        <time>2020-10-16T13:26:23.274Z</time>
      </trkpt>
      <trkpt lat="44.63256" lon="3.8416">
        <ele>1214.7227783203</ele>
        <time>2020-10-16T13:26:29.221Z</time>
      </trkpt>
      <trkpt lat="44.63269" lon="3.84174">
        <ele>1214.1265869141</ele>
        <time>2020-10-16T13:26:35.171Z</time>
      </trkpt>
      <trkpt lat="44.63278" lon="3.84187">
        <ele>1213.4826660156</ele>
        <time>2020-10-16T13:26:41.124Z</time>
      </trkpt>
      <trkpt lat="44.63285" lon="3.84199">
        <ele>1212.947265625</ele>
        <time>2020-10-16T13:26:47.079Z</time>
      </trkpt>
      <trkpt lat="44.63295" lon="3.84221">
        <ele>1212.0578613281</ele>
        <time>2020-10-16T13:26:53.038Z</time>
      </trkpt>
      <trkpt lat="44.63309" lon="3.84249">
        <ele>1211.0637207031</ele>
        <time>2020-10-16T13:26:59.002Z</time>
      </trkpt>
      <trkpt lat="44.63316" lon="3.84262">
        <ele>1210.7239990234</ele>
        <time>2020-10-16T13:27:04.968Z</time>
      </trkpt>
      <trkpt lat="44.63323" lon="3.84269">
        <ele>1210.8497314453</ele>
        <time>2020-10-16T13:27:10.936Z</time>
      </trkpt>
      <trkpt lat="44.63328" lon="3.84289">
        <ele>1211.9327392578</ele>
        <time>2020-10-16T13:27:16.907Z</time>
      </trkpt>
      <trkpt lat="44.63333" lon="3.84309">
        <ele>1213.4119873047</ele>
        <time>2020-10-16T13:27:22.881Z</time>
      </trkpt>
      <trkpt lat="44.63342" lon="3.84342">
        <ele>1215.2885742188</ele>
        <time>2020-10-16T13:27:28.860Z</time>
      </trkpt>
      <trkpt lat="44.63352" lon="3.84364">
        <ele>1217.1713867188</ele>
        <time>2020-10-16T13:27:34.843Z</time>
      </trkpt>
      <trkpt lat="44.63366" lon="3.84382">
        <ele>1220.1436767578</ele>
        <time>2020-10-16T13:27:40.830Z</time>
      </trkpt>
      <trkpt lat="44.63391" lon="3.84405">
        <ele>1222.5012207031</ele>
        <time>2020-10-16T13:27:46.822Z</time>
      </trkpt>
      <trkpt lat="44.63414" lon="3.84429">
        <ele>1224.4680175781</ele>
        <time>2020-10-16T13:27:52.820Z</time>
      </trkpt>
      <trkpt lat="44.63435" lon="3.84458">
        <ele>1226.1851806641</ele>
        <time>2020-10-16T13:27:58.824Z</time>
      </trkpt>
      <trkpt lat="44.63446" lon="3.84476">
        <ele>1227.0809326172</ele>
        <time>2020-10-16T13:28:04.832Z</time>
      </trkpt>
      <trkpt lat="44.63459" lon="3.84507">
        <ele>1227.6530761719</ele>
        <time>2020-10-16T13:28:10.845Z</time>
      </trkpt>
      <trkpt lat="44.6347" lon="3.84537">
        <ele>1227.7342529297</ele>
        <time>2020-10-16T13:28:16.862Z</time>
      </trkpt>
      <trkpt lat="44.63482" lon="3.84562">
        <ele>1227.6475830078</ele>
        <time>2020-10-16T13:28:22.884Z</time>
      </trkpt>
      <trkpt lat="44.63498" lon="3.84595">
        <ele>1227.4534912109</ele>
        <time>2020-10-16T13:28:28.911Z</time>
      </trkpt>
      <trkpt lat="44.63513" lon="3.84624">
        <ele>1226.8358154297</ele>
        <time>2020-10-16T13:28:34.944Z</time>
      </trkpt>
      <trkpt lat="44.63529" lon="3.84646">
        <ele>1226.1197509766</ele>
        <time>2020-10-16T13:28:40.981Z</time>
      </trkpt>
      <trkpt lat="44.63551" lon="3.84672">
        <ele>1227.0447998047</ele>
        <time>2020-10-16T13:28:47.024Z</time>
      </trkpt>
      <trkpt lat="44.63577" lon="3.84693">
        <ele>1229.1428222656</ele>
        <time>2020-10-16T13:28:53.073Z</time>
      </trkpt>
      <trkpt lat="44.63598" lon="3.84708">
        <ele>1229.9152832031</ele>
        <time>2020-10-16T13:28:59.127Z</time>
      </trkpt>
      <trkpt lat="44.63626" lon="3.84714">
        <ele>1231.6102294922</ele>
        <time>2020-10-16T13:29:05.186Z</time>
      </trkpt>
      <trkpt lat="44.63654" lon="3.84715">
        <ele>1231.2717285156</ele>
        <time>2020-10-16T13:29:11.251Z</time>
      </trkpt>
      <trkpt lat="44.63686" lon="3.8471">
        <ele>1230.9178466797</ele>
        <time>2020-10-16T13:29:17.322Z</time>
      </trkpt>
      <trkpt lat="44.63705" lon="3.84717">
        <ele>1230.0472412109</ele>
        <time>2020-10-16T13:29:23.397Z</time>
      </trkpt>
      <trkpt lat="44.63729" lon="3.84742">
        <ele>1228.5091552734</ele>
        <time>2020-10-16T13:29:29.478Z</time>
      </trkpt>
      <trkpt lat="44.63751" lon="3.84771">
        <ele>1226.6911621094</ele>
        <time>2020-10-16T13:29:35.565Z</time>
      </trkpt>
      <trkpt lat="44.63767" lon="3.84796">
        <ele>1227.8880615234</ele>
        <time>2020-10-16T13:29:41.657Z</time>
      </trkpt>
      <trkpt lat="44.63783" lon="3.84834">
        <ele>1229.9233398438</ele>
        <time>2020-10-16T13:29:47.755Z</time>
      </trkpt>
      <trkpt lat="44.63795" lon="3.84863">
        <ele>1231.875</ele>
        <time>2020-10-16T13:29:53.858Z</time>
      </trkpt>
      <trkpt lat="44.63814" lon="3.84911">
        <ele>1233.0295410156</ele>
        <time>2020-10-16T13:29:59.969Z</time>
      </trkpt>
      <trkpt lat="44.63826" lon="3.8494">
        <ele>1233.8868408203</ele>
        <time>2020-10-16T13:30:06.085Z</time>
      </trkpt>
      <trkpt lat="44.63849" lon="3.84983">
        <ele>1237.0705566406</ele>
        <time>2020-10-16T13:30:12.208Z</time>
      </trkpt>
      <trkpt lat="44.63879" lon="3.85019">
        <ele>1241.0369873047</ele>
        <time>2020-10-16T13:30:18.339Z</time>
      </trkpt>
      <trkpt lat="44.63917" lon="3.85063">
        <ele>1242.7778320312</ele>
        <time>2020-10-16T13:30:24.480Z</time>
      </trkpt>
      <trkpt lat="44.63948" lon="3.85112">
        <ele>1242.6062011719</ele>
        <time>2020-10-16T13:30:30.630Z</time>
      </trkpt>
      <trkpt lat="44.6397" lon="3.85149">
        <ele>1240.0689697266</ele>
        <time>2020-10-16T13:30:36.787Z</time>
      </trkpt>
      <trkpt lat="44.63986" lon="3.85198">
        <ele>1235.4221191406</ele>
        <time>2020-10-16T13:30:42.952Z</time>
      </trkpt>
      <trkpt lat="44.63995" lon="3.85231">
        <ele>1233.5373535156</ele>
        <time>2020-10-16T13:30:49.122Z</time>
      </trkpt>
      <trkpt lat="44.64002" lon="3.85295">
        <ele>1229.0076904297</ele>
        <time>2020-10-16T13:30:55.301Z</time>
      </trkpt>
      <trkpt lat="44.64011" lon="3.85376">
        <ele>1224.8872070312</ele>
        <time>2020-10-16T13:31:01.492Z</time>
      </trkpt>
      <trkpt lat="44.64021" lon="3.85507">
        <ele>1220.2674560547</ele>
        <time>2020-10-16T13:31:07.702Z</time>
      </trkpt>
      <trkpt lat="44.64023" lon="3.85607">
        <ele>1216.8841552734</ele>
        <time>2020-10-16T13:31:13.926Z</time>
      </trkpt>
      <trkpt lat="44.64022" lon="3.85702">
        <ele>1213.1979980469</ele>
        <time>2020-10-16T13:31:20.164Z</time>
      </trkpt>
      <trkpt lat="44.64025" lon="3.85734">
        <ele>1213.3546142578</ele>
        <time>2020-10-16T13:31:26.406Z</time>
      </trkpt>
      <trkpt lat="44.64052" lon="3.85735">
        <ele>1214.1966552734</ele>
        <time>2020-10-16T13:31:32.654Z</time>
      </trkpt>
      <trkpt lat="44.64085" lon="3.85718">
        <ele>1214.8392333984</ele>
        <time>2020-10-16T13:31:38.909Z</time>
      </trkpt>
      <trkpt lat="44.64137" lon="3.85696">
        <ele>1215.6030273438</ele>
        <time>2020-10-16T13:31:45.175Z</time>
      </trkpt>
      <trkpt lat="44.64165" lon="3.85676">
        <ele>1217.08984375</ele>
        <time>2020-10-16T13:31:51.447Z</time>
      </trkpt>
      <trkpt lat="44.64198" lon="3.85645">
        <ele>1218.7791748047</ele>
        <time>2020-10-16T13:31:57.727Z</time>
      </trkpt>
      <trkpt lat="44.64225" lon="3.85627">
        <ele>1218.6341552734</ele>
        <time>2020-10-16T13:32:04.013Z</time>
      </trkpt>
      <trkpt lat="44.64262" lon="3.8563">
        <ele>1216.7326660156</ele>
        <time>2020-10-16T13:32:10.306Z</time>
      </trkpt>
      <trkpt lat="44.64296" lon="3.85641">
        <ele>1214.7608642578</ele>
        <time>2020-10-16T13:32:16.606Z</time>
      </trkpt>
      <trkpt lat="44.6434" lon="3.85647">
        <ele>1214.0628662109</ele>
        <time>2020-10-16T13:32:22.915Z</time>
      </trkpt>
      <trkpt lat="44.64345" lon="3.85647">
        <ele>1214.02734375</ele>
        <time>2020-10-16T13:32:29.225Z</time>
      </trkpt>
      <trkpt lat="44.64351" lon="3.85645">
        <ele>1214.1743164062</ele>
        <time>2020-10-16T13:32:35.536Z</time>
      </trkpt>
      <trkpt lat="44.64386" lon="3.85623">
        <ele>1214.12109375</ele>
        <time>2020-10-16T13:32:41.855Z</time>
      </trkpt>
      <trkpt lat="44.64442" lon="3.85587">
        <ele>1214.8355712891</ele>
        <time>2020-10-16T13:32:48.186Z</time>
      </trkpt>
      <trkpt lat="44.64466" lon="3.85575">
        <ele>1213.6236572266</ele>
        <time>2020-10-16T13:32:54.523Z</time>
      </trkpt>
      <trkpt lat="44.64484" lon="3.85566">
        <ele>1212.0649414062</ele>
        <time>2020-10-16T13:33:00.863Z</time>
      </trkpt>
      <trkpt lat="44.64493" lon="3.85561">
        <ele>1211.3140869141</ele>
        <time>2020-10-16T13:33:07.205Z</time>
      </trkpt>
      <trkpt lat="44.64503" lon="3.85555">
        <ele>1210.1600341797</ele>
        <time>2020-10-16T13:33:13.550Z</time>
      </trkpt>
      <trkpt lat="44.64511" lon="3.85549">
        <ele>1209.3143310547</ele>
        <time>2020-10-16T13:33:19.896Z</time>
      </trkpt>
      <trkpt lat="44.6452" lon="3.85541">
        <ele>1208.3780517578</ele>
        <time>2020-10-16T13:33:26.244Z</time>
      </trkpt>
      <trkpt lat="44.64532" lon="3.85527">
        <ele>1207.3875732422</ele>
        <time>2020-10-16T13:33:32.595Z</time>
      </trkpt>
      <trkpt lat="44.64543" lon="3.85511">
        <ele>1205.6833496094</ele>
        <time>2020-10-16T13:33:38.950Z</time>
      </trkpt>
      <trkpt lat="44.64558" lon="3.85485">
        <ele>1203.1397705078</ele>
        <time>2020-10-16T13:33:45.310Z</time>
      </trkpt>
      <trkpt lat="44.6458" lon="3.85438">
        <ele>1200.1616210938</ele>
        <time>2020-10-16T13:33:51.678Z</time>
      </trkpt>
      <trkpt lat="44.64592" lon="3.85412">
        <ele>1198.2055664062</ele>
        <time>2020-10-16T13:33:58.050Z</time>
      </trkpt>
      <trkpt lat="44.64598" lon="3.85393">
        <ele>1197.1968994141</ele>
        <time>2020-10-16T13:34:04.425Z</time>
      </trkpt>
      <trkpt lat="44.64601" lon="3.85382">
        <ele>1196.7163085938</ele>
        <time>2020-10-16T13:34:10.802Z</time>
      </trkpt>
      <trkpt lat="44.64604" lon="3.85376">
        <ele>1196.2581787109</ele>
        <time>2020-10-16T13:34:17.180Z</time>
      </trkpt>
      <trkpt lat="44.64608" lon="3.85372">
        <ele>1195.6556396484</ele>
        <time>2020-10-16T13:34:23.559Z</time>
      </trkpt>
      <trkpt lat="44.64613" lon="3.85373">
        <ele>1195.0363769531</ele>
        <time>2020-10-16T13:34:29.939Z</time>
      </trkpt>
      <trkpt lat="44.64621" lon="3.85376">
        <ele>1194.2867431641</ele>
        <time>2020-10-16T13:34:36.320Z</time>
      </trkpt>
      <trkpt lat="44.64631" lon="3.85381">
        <ele>1194.5791015625</ele>
        <time>2020-10-16T13:34:42.703Z</time>
      </trkpt>
      <trkpt lat="44.64641" lon="3.85384">
        <ele>1194.8734130859</ele>
        <time>2020-10-16T13:34:49.089Z</time>
      </trkpt>
      <trkpt lat="44.64655" lon="3.85387">
        <ele>1195.2434082031</ele>
        <time>2020-10-16T13:34:55.477Z</time>
      </trkpt>
      <trkpt lat="44.64661" lon="3.85387">
        <ele>1195.3692626953</ele>
        <time>2020-10-16T13:35:01.867Z</time>
      </trkpt>
      <trkpt lat="44.64665" lon="3.85383">
        <ele>1195.4272460938</ele>
        <time>2020-10-16T13:35:08.258Z</time>
      </trkpt>
      <trkpt lat="44.64668" lon="3.85377">
        <ele>1195.4291992188</ele>
        <time>2020-10-16T13:35:14.650Z</time>
      </trkpt>
      <trkpt lat="44.64675" lon="3.85363">
        <ele>1195.4191894531</ele>
        <time>2020-10-16T13:35:21.044Z</time>
      </trkpt>
      <trkpt lat="44.64684" lon="3.85348">
        <ele>1195.6531982422</ele>
        <time>2020-10-16T13:35:27.441Z</time>
      </trkpt>
      <trkpt lat="44.64686" lon="3.85346">
        <ele>1195.7177734375</ele>
        <time>2020-10-16T13:35:33.838Z</time>
      </trkpt>
      <trkpt lat="44.6469" lon="3.85338">
        <ele>1195.5611572266</ele>
        <time>2020-10-16T13:35:40.237Z</time>
      </trkpt>
      <trkpt lat="44.64704" lon="3.85304">
        <ele>1193.1064453125</ele>
        <time>2020-10-16T13:35:46.641Z</time>
      </trkpt>
      <trkpt lat="44.64708" lon="3.85296">
        <ele>1193.1533203125</ele>
        <time>2020-10-16T13:35:53.047Z</time>
      </trkpt>
      <trkpt lat="44.64712" lon="3.85291">
        <ele>1193.3819580078</ele>
        <time>2020-10-16T13:35:59.454Z</time>
      </trkpt>
      <trkpt lat="44.64714" lon="3.85289">
        <ele>1193.4732666016</ele>
        <time>2020-10-16T13:36:05.861Z</time>
      </trkpt>
      <trkpt lat="44.6472" lon="3.85284">
        <ele>1194.1917724609</ele>
        <time>2020-10-16T13:36:12.270Z</time>
      </trkpt>
      <trkpt lat="44.6472" lon="3.853">
        <ele>1194.9399414062</ele>
        <time>2020-10-16T13:36:18.681Z</time>
      </trkpt>
      <trkpt lat="44.64717" lon="3.85331">
        <ele>1196.4372558594</ele>
        <time>2020-10-16T13:36:25.096Z</time>
      </trkpt>
      <trkpt lat="44.64715" lon="3.85365">
        <ele>1197.7336425781</ele>
        <time>2020-10-16T13:36:31.516Z</time>
      </trkpt>
      <trkpt lat="44.64714" lon="3.85391">
        <ele>1197.8801269531</ele>
        <time>2020-10-16T13:36:37.940Z</time>
      </trkpt>
      <trkpt lat="44.64716" lon="3.85422">
        <ele>1198.5126953125</ele>
        <time>2020-10-16T13:36:44.368Z</time>
      </trkpt>
      <trkpt lat="44.6472" lon="3.8545">
        <ele>1199.2166748047</ele>
        <time>2020-10-16T13:36:50.801Z</time>
      </trkpt>
      <trkpt lat="44.64726" lon="3.85471">
        <ele>1199.837890625</ele>
        <time>2020-10-16T13:36:57.237Z</time>
      </trkpt>
      <trkpt lat="44.64732" lon="3.85483">
        <ele>1200.4948730469</ele>
        <time>2020-10-16T13:37:03.675Z</time>
      </trkpt>
      <trkpt lat="44.64741" lon="3.85499">
        <ele>1201.6640625</ele>
        <time>2020-10-16T13:37:10.116Z</time>
      </trkpt>
      <trkpt lat="44.64755" lon="3.85512">
        <ele>1203.2464599609</ele>
        <time>2020-10-16T13:37:16.560Z</time>
      </trkpt>
      <trkpt lat="44.64771" lon="3.85524">
        <ele>1205.1912841797</ele>
        <time>2020-10-16T13:37:23.008Z</time>
      </trkpt>
      <trkpt lat="44.64782" lon="3.85532">
        <ele>1206.0010986328</ele>
        <time>2020-10-16T13:37:29.458Z</time>
      </trkpt>
      <trkpt lat="44.64796" lon="3.85548">
        <ele>1206.6765136719</ele>
        <time>2020-10-16T13:37:35.912Z</time>
      </trkpt>
      <trkpt lat="44.64831" lon="3.85586">
        <ele>1208.5819091797</ele>
        <time>2020-10-16T13:37:42.375Z</time>
      </trkpt>
      <trkpt lat="44.64849" lon="3.85601">
        <ele>1209.8648681641</ele>
        <time>2020-10-16T13:37:48.842Z</time>
      </trkpt>
      <trkpt lat="44.64859" lon="3.85608">
        <ele>1210.6745605469</ele>
        <time>2020-10-16T13:37:55.311Z</time>
      </trkpt>
      <trkpt lat="44.64867" lon="3.85618">
        <ele>1211.279296875</ele>
        <time>2020-10-16T13:38:01.782Z</time>
      </trkpt>
      <trkpt lat="44.64872" lon="3.8563">
        <ele>1211.423828125</ele>
        <time>2020-10-16T13:38:08.255Z</time>
      </trkpt>
      <trkpt lat="44.64876" lon="3.85646">
        <ele>1211.1864013672</ele>
        <time>2020-10-16T13:38:14.731Z</time>
      </trkpt>
      <trkpt lat="44.64877" lon="3.85663">
        <ele>1210.7133789062</ele>
        <time>2020-10-16T13:38:21.209Z</time>
      </trkpt>
      <trkpt lat="44.64875" lon="3.85694">
        <ele>1209.9163818359</ele>
        <time>2020-10-16T13:38:27.692Z</time>
      </trkpt>
      <trkpt lat="44.64868" lon="3.8577">
        <ele>1211.8046875</ele>
        <time>2020-10-16T13:38:34.185Z</time>
      </trkpt>
      <trkpt lat="44.64865" lon="3.85804">
        <ele>1214.0173339844</ele>
        <time>2020-10-16T13:38:40.683Z</time>
      </trkpt>
      <trkpt lat="44.64864" lon="3.85828">
        <ele>1215.6121826172</ele>
        <time>2020-10-16T13:38:47.185Z</time>
      </trkpt>
      <trkpt lat="44.64873" lon="3.85823">
        <ele>1216.0227050781</ele>
        <time>2020-10-16T13:38:53.689Z</time>
      </trkpt>
      <trkpt lat="44.64879" lon="3.85818">
        <ele>1216.3892822266</ele>
        <time>2020-10-16T13:39:00.194Z</time>
      </trkpt>
      <trkpt lat="44.64887" lon="3.85811">
        <ele>1216.6818847656</ele>
        <time>2020-10-16T13:39:06.701Z</time>
      </trkpt>
      <trkpt lat="44.64899" lon="3.85797">
        <ele>1217.1131591797</ele>
        <time>2020-10-16T13:39:13.211Z</time>
      </trkpt>
      <trkpt lat="44.64917" lon="3.85774">
        <ele>1218.4219970703</ele>
        <time>2020-10-16T13:39:19.726Z</time>
      </trkpt>
      <trkpt lat="44.64928" lon="3.85758">
        <ele>1219.2736816406</ele>
        <time>2020-10-16T13:39:26.244Z</time>
      </trkpt>
      <trkpt lat="44.64937" lon="3.85743">
        <ele>1219.41015625</ele>
        <time>2020-10-16T13:39:32.765Z</time>
      </trkpt>
      <trkpt lat="44.6495" lon="3.85715">
        <ele>1218.6284179688</ele>
        <time>2020-10-16T13:39:39.291Z</time>
      </trkpt>
      <trkpt lat="44.64965" lon="3.85682">
        <ele>1218.4089355469</ele>
        <time>2020-10-16T13:39:45.822Z</time>
      </trkpt>
      <trkpt lat="44.64972" lon="3.85668">
        <ele>1219.4211425781</ele>
        <time>2020-10-16T13:39:52.356Z</time>
      </trkpt>
      <trkpt lat="44.64977" lon="3.85662">
        <ele>1220.0041503906</ele>
        <time>2020-10-16T13:39:58.891Z</time>
      </trkpt>
      <trkpt lat="44.6498" lon="3.8566">
        <ele>1220.3436279297</ele>
        <time>2020-10-16T13:40:05.427Z</time>
      </trkpt>
      <trkpt lat="44.64984" lon="3.85658">
        <ele>1220.7265625</ele>
        <time>2020-10-16T13:40:11.964Z</time>
      </trkpt>
      <trkpt lat="44.64988" lon="3.85657">
        <ele>1221.1529541016</ele>
        <time>2020-10-16T13:40:18.501Z</time>
      </trkpt>
      <trkpt lat="44.64993" lon="3.85658">
        <ele>1221.6540527344</ele>
        <time>2020-10-16T13:40:25.039Z</time>
      </trkpt>
      <trkpt lat="44.65" lon="3.85659">
        <ele>1222.2398681641</ele>
        <time>2020-10-16T13:40:31.579Z</time>
      </trkpt>
      <trkpt lat="44.65016" lon="3.85662">
        <ele>1223.5716552734</ele>
        <time>2020-10-16T13:40:38.122Z</time>
      </trkpt>
      <trkpt lat="44.65025" lon="3.85665">
        <ele>1224.2156982422</ele>
        <time>2020-10-16T13:40:44.667Z</time>
      </trkpt>
      <trkpt lat="44.65031" lon="3.85666">
        <ele>1224.6118164062</ele>
        <time>2020-10-16T13:40:51.213Z</time>
      </trkpt>
      <trkpt lat="44.65035" lon="3.85665">
        <ele>1224.9440917969</ele>
        <time>2020-10-16T13:40:57.760Z</time>
      </trkpt>
      <trkpt lat="44.6504" lon="3.85664">
        <ele>1225.1336669922</ele>
        <time>2020-10-16T13:41:04.308Z</time>
      </trkpt>
      <trkpt lat="44.65047" lon="3.85661">
        <ele>1225.3975830078</ele>
        <time>2020-10-16T13:41:10.857Z</time>
      </trkpt>
      <trkpt lat="44.65057" lon="3.85654">
        <ele>1225.7543945312</ele>
        <time>2020-10-16T13:41:17.409Z</time>
      </trkpt>
      <trkpt lat="44.65079" lon="3.85636">
        <ele>1226.0889892578</ele>
        <time>2020-10-16T13:41:23.966Z</time>
      </trkpt>
      <trkpt lat="44.65143" lon="3.85584">
        <ele>1225.5252685547</ele>
        <time>2020-10-16T13:41:30.538Z</time>
      </trkpt>
      <trkpt lat="44.65219" lon="3.85522">
        <ele>1223.2999267578</ele>
        <time>2020-10-16T13:41:37.127Z</time>
      </trkpt>
      <trkpt lat="44.65271" lon="3.85481">
        <ele>1222.4399414062</ele>
        <time>2020-10-16T13:41:43.728Z</time>
      </trkpt>
      <trkpt lat="44.65297" lon="3.85462">
        <ele>1221.0386962891</ele>
        <time>2020-10-16T13:41:50.335Z</time>
      </trkpt>
      <trkpt lat="44.65326" lon="3.85443">
        <ele>1218.7547607422</ele>
        <time>2020-10-16T13:41:56.948Z</time>
      </trkpt>
      <trkpt lat="44.65332" lon="3.8544">
        <ele>1218.1368408203</ele>
        <time>2020-10-16T13:42:03.563Z</time>
      </trkpt>
      <trkpt lat="44.65338" lon="3.85434">
        <ele>1218.0646972656</ele>
        <time>2020-10-16T13:42:10.179Z</time>
      </trkpt>
      <trkpt lat="44.65345" lon="3.85428">
        <ele>1218.1781005859</ele>
        <time>2020-10-16T13:42:16.797Z</time>
      </trkpt>
      <trkpt lat="44.65351" lon="3.8542">
        <ele>1218.3822021484</ele>
        <time>2020-10-16T13:42:23.416Z</time>
      </trkpt>
      <trkpt lat="44.65367" lon="3.85401">
        <ele>1218.8188476562</ele>
        <time>2020-10-16T13:42:30.040Z</time>
      </trkpt>
      <trkpt lat="44.65375" lon="3.85394">
        <ele>1219.1767578125</ele>
        <time>2020-10-16T13:42:36.665Z</time>
      </trkpt>
      <trkpt lat="44.65385" lon="3.85388">
        <ele>1219.5993652344</ele>
        <time>2020-10-16T13:42:43.293Z</time>
      </trkpt>
      <trkpt lat="44.65396" lon="3.8538">
        <ele>1219.8532714844</ele>
        <time>2020-10-16T13:42:49.923Z</time>
      </trkpt>
      <trkpt lat="44.65424" lon="3.85363">
        <ele>1217.5679931641</ele>
        <time>2020-10-16T13:42:56.559Z</time>
      </trkpt>
      <trkpt lat="44.65441" lon="3.85351">
        <ele>1216.7514648438</ele>
        <time>2020-10-16T13:43:03.199Z</time>
      </trkpt>
      <trkpt lat="44.6545" lon="3.85341">
        <ele>1217.0036621094</ele>
        <time>2020-10-16T13:43:09.841Z</time>
      </trkpt>
      <trkpt lat="44.65462" lon="3.85329">
        <ele>1217.6353759766</ele>
        <time>2020-10-16T13:43:16.486Z</time>
      </trkpt>
      <trkpt lat="44.65472" lon="3.85321">
        <ele>1218.0155029297</ele>
        <time>2020-10-16T13:43:23.133Z</time>
      </trkpt>
      <trkpt lat="44.6548" lon="3.85318">
        <ele>1217.9792480469</ele>
        <time>2020-10-16T13:43:29.782Z</time>
      </trkpt>
      <trkpt lat="44.65488" lon="3.85316">
        <ele>1217.6206054688</ele>
        <time>2020-10-16T13:43:36.433Z</time>
      </trkpt>
      <trkpt lat="44.65503" lon="3.85316">
        <ele>1216.564453125</ele>
        <time>2020-10-16T13:43:43.087Z</time>
      </trkpt>
      <trkpt lat="44.65538" lon="3.85312">
        <ele>1213.4697265625</ele>
        <time>2020-10-16T13:43:49.748Z</time>
      </trkpt>
      <trkpt lat="44.65571" lon="3.85308">
        <ele>1211.5053710938</ele>
        <time>2020-10-16T13:43:56.415Z</time>
      </trkpt>
      <trkpt lat="44.65603" lon="3.85303">
        <ele>1208.3026123047</ele>
        <time>2020-10-16T13:44:03.089Z</time>
      </trkpt>
      <trkpt lat="44.65616" lon="3.853">
        <ele>1207.0596923828</ele>
        <time>2020-10-16T13:44:09.766Z</time>
      </trkpt>
      <trkpt lat="44.65625" lon="3.85296">
        <ele>1206.3176269531</ele>
        <time>2020-10-16T13:44:16.444Z</time>
      </trkpt>
      <trkpt lat="44.65634" lon="3.85291">
        <ele>1205.6912841797</ele>
        <time>2020-10-16T13:44:23.124Z</time>
      </trkpt>
      <trkpt lat="44.65644" lon="3.85286">
        <ele>1204.7152099609</ele>
        <time>2020-10-16T13:44:29.806Z</time>
      </trkpt>
      <trkpt lat="44.65655" lon="3.85281">
        <ele>1203.54296875</ele>
        <time>2020-10-16T13:44:36.491Z</time>
      </trkpt>
      <trkpt lat="44.65663" lon="3.85279">
        <ele>1202.6296386719</ele>
        <time>2020-10-16T13:44:43.177Z</time>
      </trkpt>
      <trkpt lat="44.65675" lon="3.85278">
        <ele>1201.1787109375</ele>
        <time>2020-10-16T13:44:49.866Z</time>
      </trkpt>
      <trkpt lat="44.65694" lon="3.85276">
        <ele>1198.9201660156</ele>
        <time>2020-10-16T13:44:56.559Z</time>
      </trkpt>
      <trkpt lat="44.65705" lon="3.85272">
        <ele>1197.7691650391</ele>
        <time>2020-10-16T13:45:03.254Z</time>
      </trkpt>
      <trkpt lat="44.65713" lon="3.85269">
        <ele>1197.2962646484</ele>
        <time>2020-10-16T13:45:09.951Z</time>
      </trkpt>
      <trkpt lat="44.65722" lon="3.85262">
        <ele>1197.0218505859</ele>
        <time>2020-10-16T13:45:16.650Z</time>
      </trkpt>
      <trkpt lat="44.65729" lon="3.85255">
        <ele>1196.8787841797</ele>
        <time>2020-10-16T13:45:23.350Z</time>
      </trkpt>
      <trkpt lat="44.65734" lon="3.85247">
        <ele>1197.1303710938</ele>
        <time>2020-10-16T13:45:30.052Z</time>
      </trkpt>
      <trkpt lat="44.6577" lon="3.85153">
        <ele>1196.30859375</ele>
        <time>2020-10-16T13:45:36.769Z</time>
      </trkpt>
      <trkpt lat="44.65841" lon="3.84967">
        <ele>1190.3901367188</ele>
        <time>2020-10-16T13:45:43.516Z</time>
      </trkpt>
      <trkpt lat="44.65848" lon="3.84947">
        <ele>1189.0861816406</ele>
        <time>2020-10-16T13:45:50.266Z</time>
      </trkpt>
      <trkpt lat="44.65852" lon="3.84926">
        <ele>1187.220703125</ele>
        <time>2020-10-16T13:45:57.019Z</time>
      </trkpt>
      <trkpt lat="44.65855" lon="3.84898">
        <ele>1185.681640625</ele>
        <time>2020-10-16T13:46:03.777Z</time>
      </trkpt>
      <trkpt lat="44.65863" lon="3.84845">
        <ele>1182.55859375</ele>
        <time>2020-10-16T13:46:10.542Z</time>
      </trkpt>
      <trkpt lat="44.65869" lon="3.84814">
        <ele>1180.6220703125</ele>
        <time>2020-10-16T13:46:17.312Z</time>
      </trkpt>
      <trkpt lat="44.65873" lon="3.84783">
        <ele>1178.6809082031</ele>
        <time>2020-10-16T13:46:24.086Z</time>
      </trkpt>
      <trkpt lat="44.65879" lon="3.84756">
        <ele>1176.8483886719</ele>
        <time>2020-10-16T13:46:30.864Z</time>
      </trkpt>
      <trkpt lat="44.6589" lon="3.84727">
        <ele>1174.2161865234</ele>
        <time>2020-10-16T13:46:37.647Z</time>
      </trkpt>
      <trkpt lat="44.65903" lon="3.84699">
        <ele>1172.2178955078</ele>
        <time>2020-10-16T13:46:44.435Z</time>
      </trkpt>
      <trkpt lat="44.65906" lon="3.84693">
        <ele>1171.9818115234</ele>
        <time>2020-10-16T13:46:51.224Z</time>
      </trkpt>
      <trkpt lat="44.65924" lon="3.84657">
        <ele>1170.3175048828</ele>
        <time>2020-10-16T13:46:58.019Z</time>
      </trkpt>
      <trkpt lat="44.65936" lon="3.84639">
        <ele>1170.7904052734</ele>
        <time>2020-10-16T13:47:04.818Z</time>
      </trkpt>
      <trkpt lat="44.65946" lon="3.8463">
        <ele>1170.8471679688</ele>
        <time>2020-10-16T13:47:11.619Z</time>
      </trkpt>
      <trkpt lat="44.65973" lon="3.84616">
        <ele>1169.9719238281</ele>
        <time>2020-10-16T13:47:18.426Z</time>
      </trkpt>
      <trkpt lat="44.66017" lon="3.84592">
        <ele>1169.5842285156</ele>
        <time>2020-10-16T13:47:25.242Z</time>
      </trkpt>
      <trkpt lat="44.66051" lon="3.8457">
        <ele>1169.9614257812</ele>
        <time>2020-10-16T13:47:32.066Z</time>
      </trkpt>
      <trkpt lat="44.66062" lon="3.8456">
        <ele>1169.9260253906</ele>
        <time>2020-10-16T13:47:38.892Z</time>
      </trkpt>
      <trkpt lat="44.66072" lon="3.8455">
        <ele>1170.0885009766</ele>
        <time>2020-10-16T13:47:45.721Z</time>
      </trkpt>
      <trkpt lat="44.66092" lon="3.84521">
        <ele>1171.0434570312</ele>
        <time>2020-10-16T13:47:52.555Z</time>
      </trkpt>
      <trkpt lat="44.66108" lon="3.845">
        <ele>1170.6584472656</ele>
        <time>2020-10-16T13:47:59.394Z</time>
      </trkpt>
      <trkpt lat="44.66127" lon="3.8447">
        <ele>1169.8232421875</ele>
        <time>2020-10-16T13:48:06.239Z</time>
      </trkpt>
      <trkpt lat="44.66145" lon="3.84452">
        <ele>1169.3269042969</ele>
        <time>2020-10-16T13:48:13.088Z</time>
      </trkpt>
      <trkpt lat="44.66158" lon="3.84441">
        <ele>1170.3894042969</ele>
        <time>2020-10-16T13:48:19.940Z</time>
      </trkpt>
      <trkpt lat="44.6617" lon="3.84435">
        <ele>1170.5970458984</ele>
        <time>2020-10-16T13:48:26.795Z</time>
      </trkpt>
      <trkpt lat="44.66183" lon="3.84434">
        <ele>1170.2397460938</ele>
        <time>2020-10-16T13:48:33.652Z</time>
      </trkpt>
      <trkpt lat="44.66193" lon="3.84436">
        <ele>1169.5991210938</ele>
        <time>2020-10-16T13:48:40.511Z</time>
      </trkpt>
      <trkpt lat="44.66205" lon="3.84444">
        <ele>1168.6363525391</ele>
        <time>2020-10-16T13:48:47.373Z</time>
      </trkpt>
      <trkpt lat="44.66214" lon="3.84456">
        <ele>1167.7065429688</ele>
        <time>2020-10-16T13:48:54.238Z</time>
      </trkpt>
      <trkpt lat="44.66222" lon="3.84475">
        <ele>1165.8488769531</ele>
        <time>2020-10-16T13:49:01.106Z</time>
      </trkpt>
      <trkpt lat="44.66234" lon="3.84512">
        <ele>1161.998046875</ele>
        <time>2020-10-16T13:49:07.979Z</time>
      </trkpt>
      <trkpt lat="44.66245" lon="3.84534">
        <ele>1159.6119384766</ele>
        <time>2020-10-16T13:49:14.856Z</time>
      </trkpt>
      <trkpt lat="44.66265" lon="3.84562">
        <ele>1156.6585693359</ele>
        <time>2020-10-16T13:49:21.739Z</time>
      </trkpt>
      <trkpt lat="44.66291" lon="3.84593">
        <ele>1154.0296630859</ele>
        <time>2020-10-16T13:49:28.629Z</time>
      </trkpt>
      <trkpt lat="44.66298" lon="3.84602">
        <ele>1153.8656005859</ele>
        <time>2020-10-16T13:49:35.521Z</time>
      </trkpt>
      <trkpt lat="44.66328" lon="3.8463">
        <ele>1155.9567871094</ele>
        <time>2020-10-16T13:49:42.420Z</time>
      </trkpt>
      <trkpt lat="44.66349" lon="3.84641">
        <ele>1158.5804443359</ele>
        <time>2020-10-16T13:49:49.323Z</time>
      </trkpt>
      <trkpt lat="44.66361" lon="3.84645">
        <ele>1160.2777099609</ele>
        <time>2020-10-16T13:49:56.229Z</time>
      </trkpt>
      <trkpt lat="44.66377" lon="3.8465">
        <ele>1161.8531494141</ele>
        <time>2020-10-16T13:50:03.138Z</time>
      </trkpt>
      <trkpt lat="44.66395" lon="3.84656">
        <ele>1162.7930908203</ele>
        <time>2020-10-16T13:50:10.051Z</time>
      </trkpt>
      <trkpt lat="44.66414" lon="3.84658">
        <ele>1164.1280517578</ele>
        <time>2020-10-16T13:50:16.968Z</time>
      </trkpt>
      <trkpt lat="44.66434" lon="3.8466">
        <ele>1166.1218261719</ele>
        <time>2020-10-16T13:50:23.889Z</time>
      </trkpt>
      <trkpt lat="44.66453" lon="3.84665">
        <ele>1167.7718505859</ele>
        <time>2020-10-16T13:50:30.814Z</time>
      </trkpt>
      <trkpt lat="44.6647" lon="3.84673">
        <ele>1167.3267822266</ele>
        <time>2020-10-16T13:50:37.742Z</time>
      </trkpt>
      <trkpt lat="44.66506" lon="3.84691">
        <ele>1166.2713623047</ele>
        <time>2020-10-16T13:50:44.678Z</time>
      </trkpt>
      <trkpt lat="44.66539" lon="3.84705">
        <ele>1165.609375</ele>
        <time>2020-10-16T13:50:51.621Z</time>
      </trkpt>
      <trkpt lat="44.66556" lon="3.84708">
        <ele>1166.4971923828</ele>
        <time>2020-10-16T13:50:58.567Z</time>
      </trkpt>
      <trkpt lat="44.66583" lon="3.8471">
        <ele>1168.5212402344</ele>
        <time>2020-10-16T13:51:05.518Z</time>
      </trkpt>
      <trkpt lat="44.66608" lon="3.84714">
        <ele>1169.8046875</ele>
        <time>2020-10-16T13:51:12.475Z</time>
      </trkpt>
      <trkpt lat="44.66645" lon="3.84728">
        <ele>1169.7423095703</ele>
        <time>2020-10-16T13:51:19.439Z</time>
      </trkpt>
      <trkpt lat="44.66682" lon="3.84741">
        <ele>1168.9538574219</ele>
        <time>2020-10-16T13:51:26.411Z</time>
      </trkpt>
      <trkpt lat="44.66707" lon="3.84744">
        <ele>1168.7659912109</ele>
        <time>2020-10-16T13:51:33.388Z</time>
      </trkpt>
      <trkpt lat="44.66718" lon="3.84745">
        <ele>1168.5667724609</ele>
        <time>2020-10-16T13:51:40.367Z</time>
      </trkpt>
      <trkpt lat="44.66758" lon="3.84747">
        <ele>1168.3468017578</ele>
        <time>2020-10-16T13:51:47.354Z</time>
      </trkpt>
      <trkpt lat="44.66804" lon="3.84748">
        <ele>1166.5977783203</ele>
        <time>2020-10-16T13:51:54.350Z</time>
      </trkpt>
      <trkpt lat="44.66828" lon="3.84747">
        <ele>1166.1032714844</ele>
        <time>2020-10-16T13:52:01.351Z</time>
      </trkpt>
      <trkpt lat="44.66867" lon="3.84743">
        <ele>1164.5960693359</ele>
        <time>2020-10-16T13:52:08.360Z</time>
      </trkpt>
      <trkpt lat="44.66895" lon="3.84739">
        <ele>1164.0028076172</ele>
        <time>2020-10-16T13:52:15.375Z</time>
      </trkpt>
      <trkpt lat="44.66903" lon="3.84735">
        <ele>1163.9835205078</ele>
        <time>2020-10-16T13:52:22.391Z</time>
      </trkpt>
      <trkpt lat="44.66912" lon="3.84729">
        <ele>1164.0402832031</ele>
        <time>2020-10-16T13:52:29.409Z</time>
      </trkpt>
      <trkpt lat="44.6692" lon="3.84722">
        <ele>1163.9791259766</ele>
        <time>2020-10-16T13:52:36.429Z</time>
      </trkpt>
      <trkpt lat="44.66921" lon="3.84722">
        <ele>1163.9730224609</ele>
        <time>2020-10-16T13:52:43.449Z</time>
      </trkpt>
      <trkpt lat="44.66925" lon="3.84722">
        <ele>1163.8051757812</ele>
        <time>2020-10-16T13:52:50.470Z</time>
      </trkpt>
      <trkpt lat="44.6695" lon="3.84724">
        <ele>1162.8610839844</ele>
        <time>2020-10-16T13:52:57.496Z</time>
      </trkpt>
      <trkpt lat="44.66962" lon="3.84723">
        <ele>1162.6668701172</ele>
        <time>2020-10-16T13:53:04.524Z</time>
      </trkpt>
      <trkpt lat="44.66965" lon="3.84732">
        <ele>1162.3131103516</ele>
        <time>2020-10-16T13:53:11.554Z</time>
      </trkpt>
      <trkpt lat="44.66966" lon="3.84738">
        <ele>1162.0758056641</ele>
        <time>2020-10-16T13:53:18.585Z</time>
      </trkpt>
      <trkpt lat="44.66967" lon="3.84744">
        <ele>1161.8408203125</ele>
        <time>2020-10-16T13:53:25.617Z</time>
      </trkpt>
      <trkpt lat="44.66973" lon="3.8475">
        <ele>1161.5773925781</ele>
        <time>2020-10-16T13:53:32.650Z</time>
      </trkpt>
      <trkpt lat="44.66982" lon="3.84753">
        <ele>1161.3680419922</ele>
        <time>2020-10-16T13:53:39.685Z</time>
      </trkpt>
      <trkpt lat="44.66996" lon="3.84763">
        <ele>1160.8413085938</ele>
        <time>2020-10-16T13:53:46.723Z</time>
      </trkpt>
      <trkpt lat="44.67013" lon="3.84773">
        <ele>1160.2729492188</ele>
        <time>2020-10-16T13:53:53.765Z</time>
      </trkpt>
      <trkpt lat="44.67025" lon="3.84784">
        <ele>1160.1340332031</ele>
        <time>2020-10-16T13:54:00.810Z</time>
      </trkpt>
      <trkpt lat="44.67039" lon="3.84797">
        <ele>1159.9387207031</ele>
        <time>2020-10-16T13:54:07.858Z</time>
      </trkpt>
      <trkpt lat="44.67057" lon="3.84812">
        <ele>1159.5126953125</ele>
        <time>2020-10-16T13:54:14.910Z</time>
      </trkpt>
      <trkpt lat="44.67071" lon="3.84823">
        <ele>1159.171875</ele>
        <time>2020-10-16T13:54:21.965Z</time>
      </trkpt>
      <trkpt lat="44.67091" lon="3.84839">
        <ele>1158.6832275391</ele>
        <time>2020-10-16T13:54:29.025Z</time>
      </trkpt>
      <trkpt lat="44.67112" lon="3.84857">
        <ele>1158.1553955078</ele>
        <time>2020-10-16T13:54:36.090Z</time>
      </trkpt>
      <trkpt lat="44.67127" lon="3.84869">
        <ele>1158.1259765625</ele>
        <time>2020-10-16T13:54:43.158Z</time>
      </trkpt>
      <trkpt lat="44.67139" lon="3.84882">
        <ele>1158.5483398438</ele>
        <time>2020-10-16T13:54:50.229Z</time>
      </trkpt>
      <trkpt lat="44.6716" lon="3.84899">
        <ele>1159.4041748047</ele>
        <time>2020-10-16T13:54:57.305Z</time>
      </trkpt>
      <trkpt lat="44.67178" lon="3.84912">
        <ele>1160.0161132812</ele>
        <time>2020-10-16T13:55:04.385Z</time>
      </trkpt>
      <trkpt lat="44.6719" lon="3.84918">
        <ele>1160.2508544922</ele>
        <time>2020-10-16T13:55:11.468Z</time>
      </trkpt>
      <trkpt lat="44.67201" lon="3.84926">
        <ele>1160.533203125</ele>
        <time>2020-10-16T13:55:18.553Z</time>
      </trkpt>
      <trkpt lat="44.67221" lon="3.84938">
        <ele>1161.3742675781</ele>
        <time>2020-10-16T13:55:25.643Z</time>
      </trkpt>
      <trkpt lat="44.67232" lon="3.84946">
        <ele>1162.1323242188</ele>
        <time>2020-10-16T13:55:32.735Z</time>
      </trkpt>
      <trkpt lat="44.67246" lon="3.84959">
        <ele>1163.2209472656</ele>
        <time>2020-10-16T13:55:39.831Z</time>
      </trkpt>
      <trkpt lat="44.67257" lon="3.84972">
        <ele>1164.2641601562</ele>
        <time>2020-10-16T13:55:46.930Z</time>
      </trkpt>
      <trkpt lat="44.67267" lon="3.84979">
        <ele>1164.9405517578</ele>
        <time>2020-10-16T13:55:54.031Z</time>
      </trkpt>
      <trkpt lat="44.67284" lon="3.84995">
        <ele>1166.2659912109</ele>
        <time>2020-10-16T13:56:01.136Z</time>
      </trkpt>
      <trkpt lat="44.67295" lon="3.85005">
        <ele>1167.1525878906</ele>
        <time>2020-10-16T13:56:08.243Z</time>
      </trkpt>
      <trkpt lat="44.6731" lon="3.85016">
        <ele>1168.1472167969</ele>
        <time>2020-10-16T13:56:15.354Z</time>
      </trkpt>
      <trkpt lat="44.67325" lon="3.85028">
        <ele>1168.9920654297</ele>
        <time>2020-10-16T13:56:22.468Z</time>
      </trkpt>
      <trkpt lat="44.6734" lon="3.8504">
        <ele>1169.4986572266</ele>
        <time>2020-10-16T13:56:29.586Z</time>
      </trkpt>
      <trkpt lat="44.67356" lon="3.85052">
        <ele>1170.0322265625</ele>
        <time>2020-10-16T13:56:36.707Z</time>
      </trkpt>
      <trkpt lat="44.67365" lon="3.85062">
        <ele>1170.3575439453</ele>
        <time>2020-10-16T13:56:43.831Z</time>
      </trkpt>
      <trkpt lat="44.67376" lon="3.85072">
        <ele>1170.8112792969</ele>
        <time>2020-10-16T13:56:50.957Z</time>
      </trkpt>
      <trkpt lat="44.67388" lon="3.85085">
        <ele>1171.4127197266</ele>
        <time>2020-10-16T13:56:58.086Z</time>
      </trkpt>
      <trkpt lat="44.67399" lon="3.85092">
        <ele>1171.8997802734</ele>
        <time>2020-10-16T13:57:05.218Z</time>
      </trkpt>
      <trkpt lat="44.67418" lon="3.85102">
        <ele>1172.6767578125</ele>
        <time>2020-10-16T13:57:12.354Z</time>
      </trkpt>
      <trkpt lat="44.67437" lon="3.85115">
        <ele>1173.0750732422</ele>
        <time>2020-10-16T13:57:19.494Z</time>
      </trkpt>
      <trkpt lat="44.67455" lon="3.85127">
        <ele>1173.1170654297</ele>
        <time>2020-10-16T13:57:26.638Z</time>
      </trkpt>
      <trkpt lat="44.67468" lon="3.85133">
        <ele>1172.3137207031</ele>
        <time>2020-10-16T13:57:33.785Z</time>
      </trkpt>
      <trkpt lat="44.67482" lon="3.85145">
        <ele>1171.1804199219</ele>
        <time>2020-10-16T13:57:40.935Z</time>
      </trkpt>
      <trkpt lat="44.67498" lon="3.85154">
        <ele>1170.1086425781</ele>
        <time>2020-10-16T13:57:48.088Z</time>
      </trkpt>
      <trkpt lat="44.67523" lon="3.85168">
        <ele>1167.83984375</ele>
        <time>2020-10-16T13:57:55.247Z</time>
      </trkpt>
      <trkpt lat="44.67552" lon="3.85185">
        <ele>1165.1870117188</ele>
        <time>2020-10-16T13:58:02.412Z</time>
      </trkpt>
      <trkpt lat="44.67581" lon="3.85201">
        <ele>1162.4973144531</ele>
        <time>2020-10-16T13:58:09.583Z</time>
      </trkpt>
      <trkpt lat="44.67608" lon="3.85217">
        <ele>1159.87109375</ele>
        <time>2020-10-16T13:58:16.760Z</time>
      </trkpt>
      <trkpt lat="44.67634" lon="3.85233">
        <ele>1158.1823730469</ele>
        <time>2020-10-16T13:58:23.943Z</time>
      </trkpt>
      <trkpt lat="44.67659" lon="3.85247">
        <ele>1157.0422363281</ele>
        <time>2020-10-16T13:58:31.131Z</time>
      </trkpt>
      <trkpt lat="44.6768" lon="3.85262">
        <ele>1156.1353759766</ele>
        <time>2020-10-16T13:58:38.324Z</time>
      </trkpt>
      <trkpt lat="44.67689" lon="3.85268">
        <ele>1155.7163085938</ele>
        <time>2020-10-16T13:58:45.519Z</time>
      </trkpt>
      <trkpt lat="44.67691" lon="3.85278">
        <ele>1155.7253417969</ele>
        <time>2020-10-16T13:58:52.715Z</time>
      </trkpt>
      <trkpt lat="44.67691" lon="3.85279">
        <ele>1155.7203369141</ele>
        <time>2020-10-16T13:58:59.912Z</time>
      </trkpt>
      <trkpt lat="44.6769" lon="3.85288">
        <ele>1155.7746582031</ele>
        <time>2020-10-16T13:59:07.110Z</time>
      </trkpt>
      <trkpt lat="44.67689" lon="3.85312">
        <ele>1155.8658447266</ele>
        <time>2020-10-16T13:59:14.311Z</time>
      </trkpt>
      <trkpt lat="44.67688" lon="3.85329">
        <ele>1155.9134521484</ele>
        <time>2020-10-16T13:59:21.515Z</time>
      </trkpt>
      <trkpt lat="44.67686" lon="3.85343">
        <ele>1155.7686767578</ele>
        <time>2020-10-16T13:59:28.721Z</time>
      </trkpt>
      <trkpt lat="44.67684" lon="3.85358">
        <ele>1154.7155761719</ele>
        <time>2020-10-16T13:59:35.929Z</time>
      </trkpt>
      <trkpt lat="44.67681" lon="3.85375">
        <ele>1152.7335205078</ele>
        <time>2020-10-16T13:59:43.139Z</time>
      </trkpt>
      <trkpt lat="44.67679" lon="3.85393">
        <ele>1150.5748291016</ele>
        <time>2020-10-16T13:59:50.352Z</time>
      </trkpt>
      <trkpt lat="44.67677" lon="3.85408">
        <ele>1148.7507324219</ele>
        <time>2020-10-16T13:59:57.567Z</time>
      </trkpt>
      <trkpt lat="44.67676" lon="3.85426">
        <ele>1146.8957519531</ele>
        <time>2020-10-16T14:00:04.785Z</time>
      </trkpt>
      <trkpt lat="44.67676" lon="3.85439">
        <ele>1145.7102050781</ele>
        <time>2020-10-16T14:00:12.005Z</time>
      </trkpt>
      <trkpt lat="44.67673" lon="3.85453">
        <ele>1144.7016601562</ele>
        <time>2020-10-16T14:00:19.227Z</time>
      </trkpt>
      <trkpt lat="44.67672" lon="3.85464">
        <ele>1143.9681396484</ele>
        <time>2020-10-16T14:00:26.450Z</time>
      </trkpt>
      <trkpt lat="44.67672" lon="3.85475">
        <ele>1143.1833496094</ele>
        <time>2020-10-16T14:00:33.675Z</time>
      </trkpt>
      <trkpt lat="44.67672" lon="3.85476">
        <ele>1143.1003417969</ele>
        <time>2020-10-16T14:00:40.900Z</time>
      </trkpt>
      <trkpt lat="44.67673" lon="3.85488">
        <ele>1142.1872558594</ele>
        <time>2020-10-16T14:00:48.127Z</time>
      </trkpt>
      <trkpt lat="44.67678" lon="3.85499">
        <ele>1141.2707519531</ele>
        <time>2020-10-16T14:00:55.356Z</time>
      </trkpt>
      <trkpt lat="44.67684" lon="3.85511">
        <ele>1140.0827636719</ele>
        <time>2020-10-16T14:01:02.587Z</time>
      </trkpt>
      <trkpt lat="44.67692" lon="3.85525">
        <ele>1138.75</ele>
        <time>2020-10-16T14:01:09.820Z</time>
      </trkpt>
      <trkpt lat="44.67702" lon="3.85539">
        <ele>1137.4283447266</ele>
        <time>2020-10-16T14:01:17.056Z</time>
      </trkpt>
      <trkpt lat="44.67711" lon="3.85553">
        <ele>1136.1083984375</ele>
        <time>2020-10-16T14:01:24.295Z</time>
      </trkpt>
      <trkpt lat="44.67715" lon="3.85562">
        <ele>1135.1916503906</ele>
        <time>2020-10-16T14:01:31.535Z</time>
      </trkpt>
      <trkpt lat="44.67718" lon="3.8557">
        <ele>1134.4829101562</ele>
        <time>2020-10-16T14:01:38.777Z</time>
      </trkpt>
      <trkpt lat="44.67721" lon="3.85579">
        <ele>1133.6069335938</ele>
        <time>2020-10-16T14:01:46.020Z</time>
      </trkpt>
      <trkpt lat="44.67723" lon="3.85593">
        <ele>1132.2833251953</ele>
        <time>2020-10-16T14:01:53.265Z</time>
      </trkpt>
      <trkpt lat="44.67724" lon="3.85609">
        <ele>1130.5631103516</ele>
        <time>2020-10-16T14:02:00.512Z</time>
      </trkpt>
      <trkpt lat="44.67725" lon="3.85623">
        <ele>1128.4143066406</ele>
        <time>2020-10-16T14:02:07.761Z</time>
      </trkpt>
      <trkpt lat="44.67728" lon="3.85637">
        <ele>1125.75</ele>
        <time>2020-10-16T14:02:15.012Z</time>
      </trkpt>
      <trkpt lat="44.67731" lon="3.85652">
        <ele>1122.6044921875</ele>
        <time>2020-10-16T14:02:22.266Z</time>
      </trkpt>
      <trkpt lat="44.67737" lon="3.85668">
        <ele>1119.2254638672</ele>
        <time>2020-10-16T14:02:29.522Z</time>
      </trkpt>
      <trkpt lat="44.6774" lon="3.8568">
        <ele>1116.8536376953</ele>
        <time>2020-10-16T14:02:36.780Z</time>
      </trkpt>
      <trkpt lat="44.67741" lon="3.8569">
        <ele>1114.5902099609</ele>
        <time>2020-10-16T14:02:44.040Z</time>
      </trkpt>
      <trkpt lat="44.67741" lon="3.85691">
        <ele>1114.5050048828</ele>
        <time>2020-10-16T14:02:51.300Z</time>
      </trkpt>
      <trkpt lat="44.6774" lon="3.85699">
        <ele>1113.3654785156</ele>
        <time>2020-10-16T14:02:58.561Z</time>
      </trkpt>
      <trkpt lat="44.67739" lon="3.85708">
        <ele>1112.1748046875</ele>
        <time>2020-10-16T14:03:05.823Z</time>
      </trkpt>
      <trkpt lat="44.67738" lon="3.85719">
        <ele>1110.5994873047</ele>
        <time>2020-10-16T14:03:13.087Z</time>
      </trkpt>
      <trkpt lat="44.67738" lon="3.85731">
        <ele>1108.6630859375</ele>
        <time>2020-10-16T14:03:20.352Z</time>
      </trkpt>
      <trkpt lat="44.67738" lon="3.85732">
        <ele>1108.5147705078</ele>
        <time>2020-10-16T14:03:27.617Z</time>
      </trkpt>
      <trkpt lat="44.67738" lon="3.85745">
        <ele>1106.0825195312</ele>
        <time>2020-10-16T14:03:34.884Z</time>
      </trkpt>
      <trkpt lat="44.67739" lon="3.8576">
        <ele>1103.5111083984</ele>
        <time>2020-10-16T14:03:42.154Z</time>
      </trkpt>
      <trkpt lat="44.67739" lon="3.85772">
        <ele>1101.4283447266</ele>
        <time>2020-10-16T14:03:49.425Z</time>
      </trkpt>
      <trkpt lat="44.6774" lon="3.85788">
        <ele>1099.1619873047</ele>
        <time>2020-10-16T14:03:56.699Z</time>
      </trkpt>
      <trkpt lat="44.6774" lon="3.858">
        <ele>1097.4816894531</ele>
        <time>2020-10-16T14:04:03.974Z</time>
      </trkpt>
      <trkpt lat="44.6774" lon="3.85809">
        <ele>1096.2630615234</ele>
        <time>2020-10-16T14:04:11.250Z</time>
      </trkpt>
      <trkpt lat="44.6774" lon="3.8581">
        <ele>1096.0786132812</ele>
        <time>2020-10-16T14:04:18.527Z</time>
      </trkpt>
      <trkpt lat="44.67738" lon="3.85822">
        <ele>1094.4321289062</ele>
        <time>2020-10-16T14:04:25.805Z</time>
      </trkpt>
      <trkpt lat="44.67735" lon="3.8584">
        <ele>1091.9779052734</ele>
        <time>2020-10-16T14:04:33.086Z</time>
      </trkpt>
      <trkpt lat="44.67732" lon="3.85855">
        <ele>1089.8280029297</ele>
        <time>2020-10-16T14:04:40.369Z</time>
      </trkpt>
      <trkpt lat="44.67728" lon="3.85869">
        <ele>1087.7142333984</ele>
        <time>2020-10-16T14:04:47.654Z</time>
      </trkpt>
      <trkpt lat="44.67727" lon="3.85882">
        <ele>1086.0234375</ele>
        <time>2020-10-16T14:04:54.941Z</time>
      </trkpt>
      <trkpt lat="44.67725" lon="3.85896">
        <ele>1085.3492431641</ele>
        <time>2020-10-16T14:05:02.230Z</time>
      </trkpt>
      <trkpt lat="44.67723" lon="3.85904">
        <ele>1084.9189453125</ele>
        <time>2020-10-16T14:05:09.521Z</time>
      </trkpt>
      <trkpt lat="44.67718" lon="3.85914">
        <ele>1084.4157714844</ele>
        <time>2020-10-16T14:05:16.813Z</time>
      </trkpt>
      <trkpt lat="44.67712" lon="3.85923">
        <ele>1083.9172363281</ele>
        <time>2020-10-16T14:05:24.107Z</time>
      </trkpt>
      <trkpt lat="44.67724" lon="3.85934">
        <ele>1083.5063476562</ele>
        <time>2020-10-16T14:05:31.404Z</time>
      </trkpt>
      <trkpt lat="44.67745" lon="3.85944">
        <ele>1083.0534667969</ele>
        <time>2020-10-16T14:05:38.705Z</time>
      </trkpt>
      <trkpt lat="44.67783" lon="3.85952">
        <ele>1082.5880126953</ele>
        <time>2020-10-16T14:05:46.014Z</time>
      </trkpt>
      <trkpt lat="44.67823" lon="3.85951">
        <ele>1081.9807128906</ele>
        <time>2020-10-16T14:05:53.331Z</time>
      </trkpt>
      <trkpt lat="44.67837" lon="3.85957">
        <ele>1081.0335693359</ele>
        <time>2020-10-16T14:06:00.651Z</time>
      </trkpt>
      <trkpt lat="44.67853" lon="3.85986">
        <ele>1076.2244873047</ele>
        <time>2020-10-16T14:06:07.976Z</time>
      </trkpt>
      <trkpt lat="44.67877" lon="3.86005">
        <ele>1073.6573486328</ele>
        <time>2020-10-16T14:06:15.306Z</time>
      </trkpt>
      <trkpt lat="44.67906" lon="3.86021">
        <ele>1073.7282714844</ele>
        <time>2020-10-16T14:06:22.643Z</time>
      </trkpt>
      <trkpt lat="44.67926" lon="3.86032">
        <ele>1073.9624023438</ele>
        <time>2020-10-16T14:06:29.984Z</time>
      </trkpt>
      <trkpt lat="44.6796" lon="3.86077">
        <ele>1070.5694580078</ele>
        <time>2020-10-16T14:06:37.334Z</time>
      </trkpt>
      <trkpt lat="44.68012" lon="3.86142">
        <ele>1068.3953857422</ele>
        <time>2020-10-16T14:06:44.698Z</time>
      </trkpt>
      <trkpt lat="44.68032" lon="3.86167">
        <ele>1067.6932373047</ele>
        <time>2020-10-16T14:06:52.068Z</time>
      </trkpt>
      <trkpt lat="44.68054" lon="3.86178">
        <ele>1069.5447998047</ele>
        <time>2020-10-16T14:06:59.442Z</time>
      </trkpt>
      <trkpt lat="44.68081" lon="3.86186">
        <ele>1072.9721679688</ele>
        <time>2020-10-16T14:07:06.822Z</time>
      </trkpt>
      <trkpt lat="44.68117" lon="3.86188">
        <ele>1078.8609619141</ele>
        <time>2020-10-16T14:07:14.209Z</time>
      </trkpt>
      <trkpt lat="44.68159" lon="3.8618">
        <ele>1082.0974121094</ele>
        <time>2020-10-16T14:07:21.605Z</time>
      </trkpt>
      <trkpt lat="44.68196" lon="3.86161">
        <ele>1087.7458496094</ele>
        <time>2020-10-16T14:07:29.008Z</time>
      </trkpt>
      <trkpt lat="44.68203" lon="3.86158">
        <ele>1089.1046142578</ele>
        <time>2020-10-16T14:07:36.413Z</time>
      </trkpt>
      <trkpt lat="44.6825" lon="3.86135">
        <ele>1090.0213623047</ele>
        <time>2020-10-16T14:07:43.828Z</time>
      </trkpt>
      <trkpt lat="44.68274" lon="3.86126">
        <ele>1090.1728515625</ele>
        <time>2020-10-16T14:07:51.248Z</time>
      </trkpt>
      <trkpt lat="44.68324" lon="3.86111">
        <ele>1089.9840087891</ele>
        <time>2020-10-16T14:07:58.678Z</time>
      </trkpt>
      <trkpt lat="44.68383" lon="3.86112">
        <ele>1087.1463623047</ele>
        <time>2020-10-16T14:08:06.120Z</time>
      </trkpt>
      <trkpt lat="44.68446" lon="3.861">
        <ele>1088.0655517578</ele>
        <time>2020-10-16T14:08:13.575Z</time>
      </trkpt>
      <trkpt lat="44.68498" lon="3.86098">
        <ele>1085.3214111328</ele>
        <time>2020-10-16T14:08:21.040Z</time>
      </trkpt>
      <trkpt lat="44.68504" lon="3.86097">
        <ele>1085.0222167969</ele>
        <time>2020-10-16T14:08:28.506Z</time>
      </trkpt>
      <trkpt lat="44.68518" lon="3.86097">
        <ele>1084.2255859375</ele>
        <time>2020-10-16T14:08:35.975Z</time>
      </trkpt>
      <trkpt lat="44.68546" lon="3.86088">
        <ele>1083.0240478516</ele>
        <time>2020-10-16T14:08:43.450Z</time>
      </trkpt>
      <trkpt lat="44.68588" lon="3.86063">
        <ele>1082.30859375</ele>
        <time>2020-10-16T14:08:50.934Z</time>
      </trkpt>
      <trkpt lat="44.6865" lon="3.86034">
        <ele>1076.9685058594</ele>
        <time>2020-10-16T14:08:58.431Z</time>
      </trkpt>
      <trkpt lat="44.68668" lon="3.86039">
        <ele>1075.7496337891</ele>
        <time>2020-10-16T14:09:05.932Z</time>
      </trkpt>
      <trkpt lat="44.68685" lon="3.8604">
        <ele>1074.4022216797</ele>
        <time>2020-10-16T14:09:13.436Z</time>
      </trkpt>
      <trkpt lat="44.68713" lon="3.86032">
        <ele>1072.4844970703</ele>
        <time>2020-10-16T14:09:20.946Z</time>
      </trkpt>
      <trkpt lat="44.68729" lon="3.86025">
        <ele>1070.984375</ele>
        <time>2020-10-16T14:09:28.459Z</time>
      </trkpt>
      <trkpt lat="44.68751" lon="3.86014">
        <ele>1070.4295654297</ele>
        <time>2020-10-16T14:09:35.977Z</time>
      </trkpt>
      <trkpt lat="44.68772" lon="3.85991">
        <ele>1070.5831298828</ele>
        <time>2020-10-16T14:09:43.500Z</time>
      </trkpt>
      <trkpt lat="44.6878" lon="3.85989">
        <ele>1069.8953857422</ele>
        <time>2020-10-16T14:09:51.025Z</time>
      </trkpt>
      <trkpt lat="44.68843" lon="3.8597">
        <ele>1066.9870605469</ele>
        <time>2020-10-16T14:09:58.563Z</time>
      </trkpt>
      <trkpt lat="44.68896" lon="3.85969">
        <ele>1062.5925292969</ele>
        <time>2020-10-16T14:10:06.111Z</time>
      </trkpt>
      <trkpt lat="44.68912" lon="3.85966">
        <ele>1059.9248046875</ele>
        <time>2020-10-16T14:10:13.662Z</time>
      </trkpt>
      <trkpt lat="44.6901" lon="3.85915">
        <ele>1044.8776855469</ele>
        <time>2020-10-16T14:10:21.234Z</time>
      </trkpt>
      <trkpt lat="44.69054" lon="3.85886">
        <ele>1034.4096679688</ele>
        <time>2020-10-16T14:10:28.816Z</time>
      </trkpt>
      <trkpt lat="44.69083" lon="3.85877">
        <ele>1028.7368164062</ele>
        <time>2020-10-16T14:10:36.404Z</time>
      </trkpt>
      <trkpt lat="44.69163" lon="3.85929">
        <ele>1017.9281616211</ele>
        <time>2020-10-16T14:10:44.010Z</time>
      </trkpt>
      <trkpt lat="44.69199" lon="3.85936">
        <ele>1009.8350830078</ele>
        <time>2020-10-16T14:10:51.623Z</time>
      </trkpt>
      <trkpt lat="44.69211" lon="3.85945">
        <ele>1007.7001953125</ele>
        <time>2020-10-16T14:10:59.239Z</time>
      </trkpt>
      <trkpt lat="44.69226" lon="3.85966">
        <ele>1005.908996582</ele>
        <time>2020-10-16T14:11:06.859Z</time>
      </trkpt>
      <trkpt lat="44.69229" lon="3.85964">
        <ele>1004.6952514648</ele>
        <time>2020-10-16T14:11:14.479Z</time>
      </trkpt>
      <trkpt lat="44.69229" lon="3.85945">
        <ele>1004.0227050781</ele>
        <time>2020-10-16T14:11:22.102Z</time>
      </trkpt>
      <trkpt lat="44.6923" lon="3.85922">
        <ele>1001.6614379883</ele>
        <time>2020-10-16T14:11:29.729Z</time>
      </trkpt>
      <trkpt lat="44.69235" lon="3.85904">
        <ele>998.63177490234</ele>
        <time>2020-10-16T14:11:37.358Z</time>
      </trkpt>
      <trkpt lat="44.69245" lon="3.85893">
        <ele>996.11999511719</ele>
        <time>2020-10-16T14:11:44.990Z</time>
      </trkpt>
      <trkpt lat="44.69248" lon="3.85883">
        <ele>996.13690185547</ele>
        <time>2020-10-16T14:11:52.623Z</time>
      </trkpt>
      <trkpt lat="44.69259" lon="3.85853">
        <ele>996.31079101562</ele>
        <time>2020-10-16T14:12:00.261Z</time>
      </trkpt>
      <trkpt lat="44.69262" lon="3.85846">
        <ele>996.77941894531</ele>
        <time>2020-10-16T14:12:07.900Z</time>
      </trkpt>
      <trkpt lat="44.69265" lon="3.85841">
        <ele>997.00695800781</ele>
        <time>2020-10-16T14:12:15.540Z</time>
      </trkpt>
      <trkpt lat="44.6927" lon="3.85838">
        <ele>996.85522460938</ele>
        <time>2020-10-16T14:12:23.181Z</time>
      </trkpt>
      <trkpt lat="44.69274" lon="3.85836">
        <ele>996.38165283203</ele>
        <time>2020-10-16T14:12:30.823Z</time>
      </trkpt>
      <trkpt lat="44.69279" lon="3.85836">
        <ele>995.74963378906</ele>
        <time>2020-10-16T14:12:38.466Z</time>
      </trkpt>
      <trkpt lat="44.69283" lon="3.85838">
        <ele>995.1494140625</ele>
        <time>2020-10-16T14:12:46.110Z</time>
      </trkpt>
      <trkpt lat="44.69286" lon="3.85843">
        <ele>994.50250244141</ele>
        <time>2020-10-16T14:12:53.755Z</time>
      </trkpt>
      <trkpt lat="44.69289" lon="3.85851">
        <ele>994.54888916016</ele>
        <time>2020-10-16T14:13:01.401Z</time>
      </trkpt>
      <trkpt lat="44.69295" lon="3.85873">
        <ele>994.46203613281</ele>
        <time>2020-10-16T14:13:09.051Z</time>
      </trkpt>
      <trkpt lat="44.69301" lon="3.85899">
        <ele>994.51086425781</ele>
        <time>2020-10-16T14:13:16.705Z</time>
      </trkpt>
      <trkpt lat="44.69307" lon="3.85916">
        <ele>994.73095703125</ele>
        <time>2020-10-16T14:13:24.361Z</time>
      </trkpt>
      <trkpt lat="44.69312" lon="3.85923">
        <ele>995.11151123047</ele>
        <time>2020-10-16T14:13:32.019Z</time>
      </trkpt>
      <trkpt lat="44.6932" lon="3.85928">
        <ele>995.86041259766</ele>
        <time>2020-10-16T14:13:39.678Z</time>
      </trkpt>
      <trkpt lat="44.6933" lon="3.8593">
        <ele>996.90679931641</ele>
        <time>2020-10-16T14:13:47.340Z</time>
      </trkpt>
      <trkpt lat="44.6934" lon="3.85928">
        <ele>997.99633789062</ele>
        <time>2020-10-16T14:13:55.003Z</time>
      </trkpt>
      <trkpt lat="44.69349" lon="3.85924">
        <ele>999.05798339844</ele>
        <time>2020-10-16T14:14:02.668Z</time>
      </trkpt>
      <trkpt lat="44.69368" lon="3.85915">
        <ele>1001.8804321289</ele>
        <time>2020-10-16T14:14:10.337Z</time>
      </trkpt>
      <trkpt lat="44.69384" lon="3.85914">
        <ele>1003.4233398438</ele>
        <time>2020-10-16T14:14:18.010Z</time>
      </trkpt>
      <trkpt lat="44.69394" lon="3.85914">
        <ele>1004.2672119141</ele>
        <time>2020-10-16T14:14:25.685Z</time>
      </trkpt>
      <trkpt lat="44.69405" lon="3.85915">
        <ele>1005.1463012695</ele>
        <time>2020-10-16T14:14:33.362Z</time>
      </trkpt>
      <trkpt lat="44.69414" lon="3.85918">
        <ele>1005.7547607422</ele>
        <time>2020-10-16T14:14:41.041Z</time>
      </trkpt>
      <trkpt lat="44.69431" lon="3.85928">
        <ele>1006.6405029297</ele>
        <time>2020-10-16T14:14:48.723Z</time>
      </trkpt>
      <trkpt lat="44.69457" lon="3.8594">
        <ele>1008.2498168945</ele>
        <time>2020-10-16T14:14:56.411Z</time>
      </trkpt>
      <trkpt lat="44.69467" lon="3.85943">
        <ele>1008.922668457</ele>
        <time>2020-10-16T14:15:04.101Z</time>
      </trkpt>
      <trkpt lat="44.69486" lon="3.85945">
        <ele>1010.2265014648</ele>
        <time>2020-10-16T14:15:11.795Z</time>
      </trkpt>
      <trkpt lat="44.69532" lon="3.85954">
        <ele>1013.2872314453</ele>
        <time>2020-10-16T14:15:19.498Z</time>
      </trkpt>
      <trkpt lat="44.69587" lon="3.85965">
        <ele>1013.6972045898</ele>
        <time>2020-10-16T14:15:27.212Z</time>
      </trkpt>
      <trkpt lat="44.69624" lon="3.8597">
        <ele>1013.4340820312</ele>
        <time>2020-10-16T14:15:34.934Z</time>
      </trkpt>
      <trkpt lat="44.69645" lon="3.85972">
        <ele>1012.3887329102</ele>
        <time>2020-10-16T14:15:42.660Z</time>
      </trkpt>
      <trkpt lat="44.69672" lon="3.85967">
        <ele>1010.8874511719</ele>
        <time>2020-10-16T14:15:50.391Z</time>
      </trkpt>
      <trkpt lat="44.69691" lon="3.85958">
        <ele>1009.7327270508</ele>
        <time>2020-10-16T14:15:58.126Z</time>
      </trkpt>
      <trkpt lat="44.69718" lon="3.85941">
        <ele>1008.7116088867</ele>
        <time>2020-10-16T14:16:05.867Z</time>
      </trkpt>
      <trkpt lat="44.69765" lon="3.85907">
        <ele>1007.7635498047</ele>
        <time>2020-10-16T14:16:13.619Z</time>
      </trkpt>
      <trkpt lat="44.69809" lon="3.85881">
        <ele>1006.4682006836</ele>
        <time>2020-10-16T14:16:21.380Z</time>
      </trkpt>
      <trkpt lat="44.6984" lon="3.85863">
        <ele>1007.3818359375</ele>
        <time>2020-10-16T14:16:29.148Z</time>
      </trkpt>
      <trkpt lat="44.69896" lon="3.85833">
        <ele>1007.6317138672</ele>
        <time>2020-10-16T14:16:36.928Z</time>
      </trkpt>
      <trkpt lat="44.69922" lon="3.85818">
        <ele>1006.9768066406</ele>
        <time>2020-10-16T14:16:44.714Z</time>
      </trkpt>
      <trkpt lat="44.69959" lon="3.85805">
        <ele>1005.6167602539</ele>
        <time>2020-10-16T14:16:52.507Z</time>
      </trkpt>
      <trkpt lat="44.69989" lon="3.85797">
        <ele>1005.1369628906</ele>
        <time>2020-10-16T14:17:00.306Z</time>
      </trkpt>
      <trkpt lat="44.70031" lon="3.85788">
        <ele>1002.8612060547</ele>
        <time>2020-10-16T14:17:08.114Z</time>
      </trkpt>
      <trkpt lat="44.70063" lon="3.85782">
        <ele>1001.4837646484</ele>
        <time>2020-10-16T14:17:15.928Z</time>
      </trkpt>
      <trkpt lat="44.70096" lon="3.85776">
        <ele>1000.606628418</ele>
        <time>2020-10-16T14:17:23.749Z</time>
      </trkpt>
      <trkpt lat="44.70154" lon="3.85754">
        <ele>997.50854492188</ele>
        <time>2020-10-16T14:17:31.582Z</time>
      </trkpt>
      <trkpt lat="44.70183" lon="3.85744">
        <ele>995.61322021484</ele>
        <time>2020-10-16T14:17:39.421Z</time>
      </trkpt>
      <trkpt lat="44.70244" lon="3.85719">
        <ele>991.35321044922</ele>
        <time>2020-10-16T14:17:47.273Z</time>
      </trkpt>
      <trkpt lat="44.70262" lon="3.85712">
        <ele>989.85632324219</ele>
        <time>2020-10-16T14:17:55.128Z</time>
      </trkpt>
      <trkpt lat="44.70331" lon="3.85689">
        <ele>985.94091796875</ele>
        <time>2020-10-16T14:18:02.998Z</time>
      </trkpt>
      <trkpt lat="44.70356" lon="3.85681">
        <ele>985.24499511719</ele>
        <time>2020-10-16T14:18:10.873Z</time>
      </trkpt>
      <trkpt lat="44.7038" lon="3.85679">
        <ele>984.13763427734</ele>
        <time>2020-10-16T14:18:18.753Z</time>
      </trkpt>
      <trkpt lat="44.70412" lon="3.85675">
        <ele>981.80084228516</ele>
        <time>2020-10-16T14:18:26.639Z</time>
      </trkpt>
      <trkpt lat="44.70428" lon="3.85675">
        <ele>980.66754150391</ele>
        <time>2020-10-16T14:18:34.528Z</time>
      </trkpt>
      <trkpt lat="44.70454" lon="3.85677">
        <ele>979.22039794922</ele>
        <time>2020-10-16T14:18:42.422Z</time>
      </trkpt>
      <trkpt lat="44.70472" lon="3.85674">
        <ele>978.05694580078</ele>
        <time>2020-10-16T14:18:50.320Z</time>
      </trkpt>
      <trkpt lat="44.70497" lon="3.8567">
        <ele>976.35852050781</ele>
        <time>2020-10-16T14:18:58.223Z</time>
      </trkpt>
      <trkpt lat="44.7056" lon="3.85653">
        <ele>975.640625</ele>
        <time>2020-10-16T14:19:06.139Z</time>
      </trkpt>
      <trkpt lat="44.70571" lon="3.85649">
        <ele>975.93060302734</ele>
        <time>2020-10-16T14:19:14.057Z</time>
      </trkpt>
      <trkpt lat="44.70593" lon="3.85644">
        <ele>975.82690429688</ele>
        <time>2020-10-16T14:19:21.980Z</time>
      </trkpt>
      <trkpt lat="44.70606" lon="3.85645">
        <ele>975.4619140625</ele>
        <time>2020-10-16T14:19:29.905Z</time>
      </trkpt>
      <trkpt lat="44.70619" lon="3.85653">
        <ele>974.78295898438</ele>
        <time>2020-10-16T14:19:37.833Z</time>
      </trkpt>
      <trkpt lat="44.70638" lon="3.85668">
        <ele>974.89556884766</ele>
        <time>2020-10-16T14:19:45.765Z</time>
      </trkpt>
      <trkpt lat="44.70657" lon="3.85685">
        <ele>974.94982910156</ele>
        <time>2020-10-16T14:19:53.702Z</time>
      </trkpt>
      <trkpt lat="44.70664" lon="3.85684">
        <ele>975.33367919922</ele>
        <time>2020-10-16T14:20:01.640Z</time>
      </trkpt>
      <trkpt lat="44.70671" lon="3.85684">
        <ele>975.70336914062</ele>
        <time>2020-10-16T14:20:09.580Z</time>
      </trkpt>
      <trkpt lat="44.70681" lon="3.85684">
        <ele>976.14038085938</ele>
        <time>2020-10-16T14:20:17.522Z</time>
      </trkpt>
      <trkpt lat="44.70701" lon="3.85691">
        <ele>976.86065673828</ele>
        <time>2020-10-16T14:20:25.468Z</time>
      </trkpt>
      <trkpt lat="44.70718" lon="3.85694">
        <ele>977.47534179688</ele>
        <time>2020-10-16T14:20:33.417Z</time>
      </trkpt>
      <trkpt lat="44.70742" lon="3.85694">
        <ele>978.33538818359</ele>
        <time>2020-10-16T14:20:41.371Z</time>
      </trkpt>
      <trkpt lat="44.70763" lon="3.85692">
        <ele>979.11938476562</ele>
        <time>2020-10-16T14:20:49.329Z</time>
      </trkpt>
      <trkpt lat="44.70787" lon="3.85689">
        <ele>980.00714111328</ele>
        <time>2020-10-16T14:20:57.292Z</time>
      </trkpt>
      <trkpt lat="44.70812" lon="3.85682">
        <ele>978.95501708984</ele>
        <time>2020-10-16T14:21:05.260Z</time>
      </trkpt>
      <trkpt lat="44.70873" lon="3.85669">
        <ele>976.56616210938</ele>
        <time>2020-10-16T14:21:13.241Z</time>
      </trkpt>
      <trkpt lat="44.70929" lon="3.85655">
        <ele>973.61602783203</ele>
        <time>2020-10-16T14:21:21.233Z</time>
      </trkpt>
      <trkpt lat="44.7098" lon="3.85643">
        <ele>971.47814941406</ele>
        <time>2020-10-16T14:21:29.235Z</time>
      </trkpt>
      <trkpt lat="44.71002" lon="3.85639">
        <ele>971.41058349609</ele>
        <time>2020-10-16T14:21:37.242Z</time>
      </trkpt>
      <trkpt lat="44.71018" lon="3.85638">
        <ele>971.44677734375</ele>
        <time>2020-10-16T14:21:45.252Z</time>
      </trkpt>
      <trkpt lat="44.71048" lon="3.85638">
        <ele>971.59161376953</ele>
        <time>2020-10-16T14:21:53.268Z</time>
      </trkpt>
      <trkpt lat="44.71107" lon="3.85644">
        <ele>971.63458251953</ele>
        <time>2020-10-16T14:22:01.296Z</time>
      </trkpt>
      <trkpt lat="44.7115" lon="3.85649">
        <ele>971.80352783203</ele>
        <time>2020-10-16T14:22:09.332Z</time>
      </trkpt>
      <trkpt lat="44.7116" lon="3.85652">
        <ele>971.83197021484</ele>
        <time>2020-10-16T14:22:17.370Z</time>
      </trkpt>
      <trkpt lat="44.71187" lon="3.8566">
        <ele>971.71441650391</ele>
        <time>2020-10-16T14:22:25.414Z</time>
      </trkpt>
      <trkpt lat="44.71203" lon="3.85665">
        <ele>971.57873535156</ele>
        <time>2020-10-16T14:22:33.461Z</time>
      </trkpt>
      <trkpt lat="44.71212" lon="3.85667">
        <ele>971.22924804688</ele>
        <time>2020-10-16T14:22:41.510Z</time>
      </trkpt>
      <trkpt lat="44.71223" lon="3.85668">
        <ele>970.82525634766</ele>
        <time>2020-10-16T14:22:49.561Z</time>
      </trkpt>
      <trkpt lat="44.7125" lon="3.85665">
        <ele>969.92016601562</ele>
        <time>2020-10-16T14:22:57.618Z</time>
      </trkpt>
      <trkpt lat="44.71278" lon="3.85663">
        <ele>968.93231201172</ele>
        <time>2020-10-16T14:23:05.680Z</time>
      </trkpt>
      <trkpt lat="44.71333" lon="3.85661">
        <ele>965.91009521484</ele>
        <time>2020-10-16T14:23:13.753Z</time>
      </trkpt>
      <trkpt lat="44.7138" lon="3.85657">
        <ele>962.65649414062</ele>
        <time>2020-10-16T14:23:21.836Z</time>
      </trkpt>
      <trkpt lat="44.71389" lon="3.85657">
        <ele>962.32580566406</ele>
        <time>2020-10-16T14:23:29.920Z</time>
      </trkpt>
      <trkpt lat="44.714" lon="3.85656">
        <ele>961.9345703125</ele>
        <time>2020-10-16T14:23:38.007Z</time>
      </trkpt>
      <trkpt lat="44.71412" lon="3.85653">
        <ele>961.51306152344</ele>
        <time>2020-10-16T14:23:46.096Z</time>
      </trkpt>
      <trkpt lat="44.71435" lon="3.85647">
        <ele>961.52746582031</ele>
        <time>2020-10-16T14:23:54.190Z</time>
      </trkpt>
      <trkpt lat="44.71461" lon="3.8564">
        <ele>961.849609375</ele>
        <time>2020-10-16T14:24:02.289Z</time>
      </trkpt>
      <trkpt lat="44.71478" lon="3.85638">
        <ele>962.15447998047</ele>
        <time>2020-10-16T14:24:10.391Z</time>
      </trkpt>
      <trkpt lat="44.715" lon="3.85635">
        <ele>962.48937988281</ele>
        <time>2020-10-16T14:24:18.498Z</time>
      </trkpt>
      <trkpt lat="44.71536" lon="3.8563">
        <ele>963.1298828125</ele>
        <time>2020-10-16T14:24:26.612Z</time>
      </trkpt>
      <trkpt lat="44.71564" lon="3.85624">
        <ele>963.67321777344</ele>
        <time>2020-10-16T14:24:34.732Z</time>
      </trkpt>
      <trkpt lat="44.71595" lon="3.85617">
        <ele>963.29864501953</ele>
        <time>2020-10-16T14:24:42.858Z</time>
      </trkpt>
      <trkpt lat="44.71634" lon="3.85606">
        <ele>962.52124023438</ele>
        <time>2020-10-16T14:24:50.992Z</time>
      </trkpt>
      <trkpt lat="44.71639" lon="3.85603">
        <ele>962.37768554688</ele>
        <time>2020-10-16T14:24:59.127Z</time>
      </trkpt>
      <trkpt lat="44.71645" lon="3.85601">
        <ele>962.25347900391</ele>
        <time>2020-10-16T14:25:07.263Z</time>
      </trkpt>
      <trkpt lat="44.71648" lon="3.85598">
        <ele>962.189453125</ele>
        <time>2020-10-16T14:25:15.400Z</time>
      </trkpt>
      <trkpt lat="44.71648" lon="3.85598">
        <ele>962.18902587891</ele>
        <time>2020-10-16T14:25:23.537Z</time>
      </trkpt>
      <trkpt lat="44.71658" lon="3.856">
        <ele>961.79638671875</ele>
        <time>2020-10-16T14:25:31.676Z</time>
      </trkpt>
      <trkpt lat="44.71688" lon="3.85599">
        <ele>960.74395751953</ele>
        <time>2020-10-16T14:25:39.821Z</time>
      </trkpt>
      <trkpt lat="44.71719" lon="3.856">
        <ele>958.86138916016</ele>
        <time>2020-10-16T14:25:47.972Z</time>
      </trkpt>
      <trkpt lat="44.71734" lon="3.856">
        <ele>957.97760009766</ele>
        <time>2020-10-16T14:25:56.126Z</time>
      </trkpt>
      <trkpt lat="44.71795" lon="3.85605">
        <ele>954.56890869141</ele>
        <time>2020-10-16T14:26:04.293Z</time>
      </trkpt>
      <trkpt lat="44.71821" lon="3.85608">
        <ele>953.37677001953</ele>
        <time>2020-10-16T14:26:12.465Z</time>
      </trkpt>
      <trkpt lat="44.71863" lon="3.85613">
        <ele>951.41845703125</ele>
        <time>2020-10-16T14:26:20.645Z</time>
      </trkpt>
      <trkpt lat="44.71874" lon="3.85613">
        <ele>950.90069580078</ele>
        <time>2020-10-16T14:26:28.827Z</time>
      </trkpt>
      <trkpt lat="44.71883" lon="3.85612">
        <ele>950.46356201172</ele>
        <time>2020-10-16T14:26:37.011Z</time>
      </trkpt>
      <trkpt lat="44.71894" lon="3.8561">
        <ele>949.91638183594</ele>
        <time>2020-10-16T14:26:45.197Z</time>
      </trkpt>
      <trkpt lat="44.71929" lon="3.85599">
        <ele>947.94403076172</ele>
        <time>2020-10-16T14:26:53.391Z</time>
      </trkpt>
      <trkpt lat="44.71962" lon="3.85587">
        <ele>945.60052490234</ele>
        <time>2020-10-16T14:27:01.591Z</time>
      </trkpt>
      <trkpt lat="44.71984" lon="3.85581">
        <ele>943.98223876953</ele>
        <time>2020-10-16T14:27:09.796Z</time>
      </trkpt>
      <trkpt lat="44.71991" lon="3.8558">
        <ele>943.52325439453</ele>
        <time>2020-10-16T14:27:18.002Z</time>
      </trkpt>
      <trkpt lat="44.72002" lon="3.85579">
        <ele>942.85131835938</ele>
        <time>2020-10-16T14:27:26.210Z</time>
      </trkpt>
      <trkpt lat="44.72015" lon="3.85581">
        <ele>942.19952392578</ele>
        <time>2020-10-16T14:27:34.421Z</time>
      </trkpt>
      <trkpt lat="44.72047" lon="3.85584">
        <ele>941.48114013672</ele>
        <time>2020-10-16T14:27:42.639Z</time>
      </trkpt>
      <trkpt lat="44.7206" lon="3.85585">
        <ele>941.4990234375</ele>
        <time>2020-10-16T14:27:50.859Z</time>
      </trkpt>
      <trkpt lat="44.72073" lon="3.85585">
        <ele>941.49853515625</ele>
        <time>2020-10-16T14:27:59.082Z</time>
      </trkpt>
      <trkpt lat="44.72083" lon="3.85583">
        <ele>941.45678710938</ele>
        <time>2020-10-16T14:28:07.307Z</time>
      </trkpt>
      <trkpt lat="44.72093" lon="3.8558">
        <ele>941.38580322266</ele>
        <time>2020-10-16T14:28:15.534Z</time>
      </trkpt>
      <trkpt lat="44.72139" lon="3.85562">
        <ele>938.53564453125</ele>
        <time>2020-10-16T14:28:23.770Z</time>
      </trkpt>
      <trkpt lat="44.72164" lon="3.85556">
        <ele>936.84033203125</ele>
        <time>2020-10-16T14:28:32.011Z</time>
      </trkpt>
      <trkpt lat="44.72192" lon="3.85551">
        <ele>935.78198242188</ele>
        <time>2020-10-16T14:28:40.258Z</time>
      </trkpt>
      <trkpt lat="44.72198" lon="3.8555">
        <ele>935.52838134766</ele>
        <time>2020-10-16T14:28:48.506Z</time>
      </trkpt>
      <trkpt lat="44.72198" lon="3.85551">
        <ele>935.53259277344</ele>
        <time>2020-10-16T14:28:56.754Z</time>
      </trkpt>
      <trkpt lat="44.72202" lon="3.8555">
        <ele>935.41021728516</ele>
        <time>2020-10-16T14:29:05.003Z</time>
      </trkpt>
      <trkpt lat="44.72202" lon="3.8555">
        <ele>935.40991210938</ele>
        <time>2020-10-16T14:29:13.252Z</time>
      </trkpt>
      <trkpt lat="44.72223" lon="3.8555">
        <ele>933.24670410156</ele>
        <time>2020-10-16T14:29:21.505Z</time>
      </trkpt>
      <trkpt lat="44.72249" lon="3.85564">
        <ele>930.59356689453</ele>
        <time>2020-10-16T14:29:29.764Z</time>
      </trkpt>
      <trkpt lat="44.72301" lon="3.85628">
        <ele>927.78076171875</ele>
        <time>2020-10-16T14:29:38.037Z</time>
      </trkpt>
      <trkpt lat="44.72306" lon="3.85627">
        <ele>927.7421875</ele>
        <time>2020-10-16T14:29:46.311Z</time>
      </trkpt>
      <trkpt lat="44.72331" lon="3.85622">
        <ele>925.23516845703</ele>
        <time>2020-10-16T14:29:54.590Z</time>
      </trkpt>
      <trkpt lat="44.72316" lon="3.85575">
        <ele>923.79595947266</ele>
        <time>2020-10-16T14:30:02.876Z</time>
      </trkpt>
      <trkpt lat="44.72278" lon="3.85529">
        <ele>926.26745605469</ele>
        <time>2020-10-16T14:30:11.172Z</time>
      </trkpt>
      <trkpt lat="44.72272" lon="3.85497">
        <ele>926.18157958984</ele>
        <time>2020-10-16T14:30:19.473Z</time>
      </trkpt>
      <trkpt lat="44.72271" lon="3.8542">
        <ele>922.84338378906</ele>
        <time>2020-10-16T14:30:27.785Z</time>
      </trkpt>
      <trkpt lat="44.72277" lon="3.85381">
        <ele>919.29058837891</ele>
        <time>2020-10-16T14:30:36.103Z</time>
      </trkpt>
      <trkpt lat="44.72289" lon="3.85363">
        <ele>916.31378173828</ele>
        <time>2020-10-16T14:30:44.424Z</time>
      </trkpt>
      <trkpt lat="44.72305" lon="3.85358">
        <ele>915.34020996094</ele>
        <time>2020-10-16T14:30:52.748Z</time>
      </trkpt>
      <trkpt lat="44.72319" lon="3.85363">
        <ele>914.78674316406</ele>
        <time>2020-10-16T14:31:01.075Z</time>
      </trkpt>
      <trkpt lat="44.72352" lon="3.85401">
        <ele>913.11944580078</ele>
        <time>2020-10-16T14:31:09.411Z</time>
      </trkpt>
    </trkseg>
  </trk>
  <trk>
    <name><![CDATA[ESI0326 - CIRCUIT DE STE GERMAINE]]></name>
    <extensions>
      <line xmlns="http://www.topografix.com/GPX/gpx_style/0/2">
        <color>f90b2f</color>
        <width>4</width>
      </line>
    </extensions>
    <trkseg>
      <trkpt lat="44.72361" lon="3.85411">
        <ele>912.67449951172</ele>
        <time>2020-10-16T08:48:31.000Z</time>
      </trkpt>
      <trkpt lat="44.72357" lon="3.85407">
        <ele>912.86871337891</ele>
        <time>2020-10-16T08:48:31.001Z</time>
      </trkpt>
      <trkpt lat="44.72319" lon="3.85363">
        <ele>914.78674316406</ele>
        <time>2020-10-16T08:48:31.012Z</time>
      </trkpt>
      <trkpt lat="44.72305" lon="3.85358">
        <ele>915.34020996094</ele>
        <time>2020-10-16T08:48:31.026Z</time>
      </trkpt>
      <trkpt lat="44.72289" lon="3.85363">
        <ele>916.31378173828</ele>
        <time>2020-10-16T08:48:31.043Z</time>
      </trkpt>
      <trkpt lat="44.72277" lon="3.85381">
        <ele>919.29058837891</ele>
        <time>2020-10-16T08:48:31.064Z</time>
      </trkpt>
      <trkpt lat="44.72271" lon="3.8542">
        <ele>922.84338378906</ele>
        <time>2020-10-16T08:48:31.090Z</time>
      </trkpt>
      <trkpt lat="44.72272" lon="3.85497">
        <ele>926.18157958984</ele>
        <time>2020-10-16T08:48:31.127Z</time>
      </trkpt>
      <trkpt lat="44.72278" lon="3.85529">
        <ele>926.26745605469</ele>
        <time>2020-10-16T08:48:31.169Z</time>
      </trkpt>
      <trkpt lat="44.72316" lon="3.85575">
        <ele>923.79595947266</ele>
        <time>2020-10-16T08:48:31.221Z</time>
      </trkpt>
      <trkpt lat="44.72331" lon="3.85622">
        <ele>925.23443603516</ele>
        <time>2020-10-16T08:48:31.280Z</time>
      </trkpt>
      <trkpt lat="44.72306" lon="3.85627">
        <ele>927.7421875</ele>
        <time>2020-10-16T08:48:31.345Z</time>
      </trkpt>
      <trkpt lat="44.72301" lon="3.85628">
        <ele>927.78076171875</ele>
        <time>2020-10-16T08:48:31.411Z</time>
      </trkpt>
      <trkpt lat="44.72249" lon="3.85564">
        <ele>930.59356689453</ele>
        <time>2020-10-16T08:48:31.490Z</time>
      </trkpt>
      <trkpt lat="44.72223" lon="3.8555">
        <ele>933.24670410156</ele>
        <time>2020-10-16T08:48:31.575Z</time>
      </trkpt>
      <trkpt lat="44.72202" lon="3.8555">
        <ele>935.41021728516</ele>
        <time>2020-10-16T08:48:31.664Z</time>
      </trkpt>
      <trkpt lat="44.72193" lon="3.85541">
        <ele>935.59765625</ele>
        <time>2020-10-16T08:48:31.755Z</time>
      </trkpt>
      <trkpt lat="44.72194" lon="3.85541">
        <ele>935.58209228516</ele>
        <time>2020-10-16T08:48:31.846Z</time>
      </trkpt>
      <trkpt lat="44.72193" lon="3.8554">
        <ele>935.60504150391</ele>
        <time>2020-10-16T08:48:31.938Z</time>
      </trkpt>
      <trkpt lat="44.72182" lon="3.85526">
        <ele>935.82427978516</ele>
        <time>2020-10-16T08:48:32.033Z</time>
      </trkpt>
      <trkpt lat="44.72164" lon="3.85508">
        <ele>935.91522216797</ele>
        <time>2020-10-16T08:48:32.132Z</time>
      </trkpt>
      <trkpt lat="44.72152" lon="3.85498">
        <ele>935.98229980469</ele>
        <time>2020-10-16T08:48:32.234Z</time>
      </trkpt>
      <trkpt lat="44.72131" lon="3.85482">
        <ele>936.16052246094</ele>
        <time>2020-10-16T08:48:32.341Z</time>
      </trkpt>
      <trkpt lat="44.72122" lon="3.85466">
        <ele>935.90100097656</ele>
        <time>2020-10-16T08:48:32.450Z</time>
      </trkpt>
      <trkpt lat="44.72109" lon="3.85445">
        <ele>934.9306640625</ele>
        <time>2020-10-16T08:48:32.563Z</time>
      </trkpt>
      <trkpt lat="44.72097" lon="3.85427">
        <ele>934.13439941406</ele>
        <time>2020-10-16T08:48:32.680Z</time>
      </trkpt>
      <trkpt lat="44.72081" lon="3.85408">
        <ele>933.28936767578</ele>
        <time>2020-10-16T08:48:32.801Z</time>
      </trkpt>
      <trkpt lat="44.7207" lon="3.854">
        <ele>932.84057617188</ele>
        <time>2020-10-16T08:48:32.925Z</time>
      </trkpt>
      <trkpt lat="44.72054" lon="3.85391">
        <ele>932.23413085938</ele>
        <time>2020-10-16T08:48:33.052Z</time>
      </trkpt>
      <trkpt lat="44.7203" lon="3.85374">
        <ele>931.92236328125</ele>
        <time>2020-10-16T08:48:33.184Z</time>
      </trkpt>
      <trkpt lat="44.72007" lon="3.85364">
        <ele>933.36431884766</ele>
        <time>2020-10-16T08:48:33.321Z</time>
      </trkpt>
      <trkpt lat="44.71988" lon="3.85355">
        <ele>934.53216552734</ele>
        <time>2020-10-16T08:48:33.462Z</time>
      </trkpt>
      <trkpt lat="44.71978" lon="3.85354">
        <ele>935.31146240234</ele>
        <time>2020-10-16T08:48:33.605Z</time>
      </trkpt>
      <trkpt lat="44.71961" lon="3.85353">
        <ele>936.53479003906</ele>
        <time>2020-10-16T08:48:33.752Z</time>
      </trkpt>
      <trkpt lat="44.71943" lon="3.85351">
        <ele>937.84967041016</ele>
        <time>2020-10-16T08:48:33.902Z</time>
      </trkpt>
      <trkpt lat="44.71926" lon="3.85352">
        <ele>939.23968505859</ele>
        <time>2020-10-16T08:48:34.056Z</time>
      </trkpt>
      <trkpt lat="44.71903" lon="3.85353">
        <ele>941.23486328125</ele>
        <time>2020-10-16T08:48:34.214Z</time>
      </trkpt>
      <trkpt lat="44.71895" lon="3.85349">
        <ele>941.87286376953</ele>
        <time>2020-10-16T08:48:34.374Z</time>
      </trkpt>
      <trkpt lat="44.71884" lon="3.85338">
        <ele>942.60809326172</ele>
        <time>2020-10-16T08:48:34.537Z</time>
      </trkpt>
      <trkpt lat="44.71868" lon="3.8532">
        <ele>943.75677490234</ele>
        <time>2020-10-16T08:48:34.704Z</time>
      </trkpt>
      <trkpt lat="44.71854" lon="3.85312">
        <ele>945.02374267578</ele>
        <time>2020-10-16T08:48:34.874Z</time>
      </trkpt>
      <trkpt lat="44.71842" lon="3.85311">
        <ele>946.18115234375</ele>
        <time>2020-10-16T08:48:35.046Z</time>
      </trkpt>
      <trkpt lat="44.7182" lon="3.85314">
        <ele>948.11016845703</ele>
        <time>2020-10-16T08:48:35.223Z</time>
      </trkpt>
      <trkpt lat="44.71807" lon="3.85312">
        <ele>949.0556640625</ele>
        <time>2020-10-16T08:48:35.402Z</time>
      </trkpt>
      <trkpt lat="44.71793" lon="3.85311">
        <ele>950.09851074219</ele>
        <time>2020-10-16T08:48:35.584Z</time>
      </trkpt>
      <trkpt lat="44.71778" lon="3.85307">
        <ele>951.25317382812</ele>
        <time>2020-10-16T08:48:35.769Z</time>
      </trkpt>
      <trkpt lat="44.71763" lon="3.85305">
        <ele>952.35333251953</ele>
        <time>2020-10-16T08:48:35.957Z</time>
      </trkpt>
      <trkpt lat="44.71747" lon="3.85304">
        <ele>953.53656005859</ele>
        <time>2020-10-16T08:48:36.148Z</time>
      </trkpt>
      <trkpt lat="44.71725" lon="3.85305">
        <ele>955.34210205078</ele>
        <time>2020-10-16T08:48:36.344Z</time>
      </trkpt>
      <trkpt lat="44.71719" lon="3.85307">
        <ele>955.95861816406</ele>
        <time>2020-10-16T08:48:36.541Z</time>
      </trkpt>
      <trkpt lat="44.71707" lon="3.8531">
        <ele>957.13732910156</ele>
        <time>2020-10-16T08:48:36.740Z</time>
      </trkpt>
      <trkpt lat="44.71685" lon="3.8532">
        <ele>959.84692382812</ele>
        <time>2020-10-16T08:48:36.944Z</time>
      </trkpt>
      <trkpt lat="44.71641" lon="3.85348">
        <ele>964.07641601562</ele>
        <time>2020-10-16T08:48:37.158Z</time>
      </trkpt>
      <trkpt lat="44.71625" lon="3.85357">
        <ele>965.486328125</ele>
        <time>2020-10-16T08:48:37.375Z</time>
      </trkpt>
      <trkpt lat="44.7161" lon="3.85361">
        <ele>966.65472412109</ele>
        <time>2020-10-16T08:48:37.595Z</time>
      </trkpt>
      <trkpt lat="44.71597" lon="3.85363">
        <ele>967.52099609375</ele>
        <time>2020-10-16T08:48:37.818Z</time>
      </trkpt>
      <trkpt lat="44.71589" lon="3.85362">
        <ele>968.07958984375</ele>
        <time>2020-10-16T08:48:38.042Z</time>
      </trkpt>
      <trkpt lat="44.71559" lon="3.85359">
        <ele>970.365234375</ele>
        <time>2020-10-16T08:48:38.273Z</time>
      </trkpt>
      <trkpt lat="44.71543" lon="3.85359">
        <ele>971.49328613281</ele>
        <time>2020-10-16T08:48:38.507Z</time>
      </trkpt>
      <trkpt lat="44.71536" lon="3.8536">
        <ele>971.87927246094</ele>
        <time>2020-10-16T08:48:38.742Z</time>
      </trkpt>
      <trkpt lat="44.71533" lon="3.8536">
        <ele>971.91027832031</ele>
        <time>2020-10-16T08:48:38.978Z</time>
      </trkpt>
      <trkpt lat="44.71514" lon="3.85364">
        <ele>971.99273681641</ele>
        <time>2020-10-16T08:48:39.217Z</time>
      </trkpt>
      <trkpt lat="44.71514" lon="3.85364">
        <ele>971.99304199219</ele>
        <time>2020-10-16T08:48:39.456Z</time>
      </trkpt>
      <trkpt lat="44.71504" lon="3.85367">
        <ele>972.00604248047</ele>
        <time>2020-10-16T08:48:39.698Z</time>
      </trkpt>
      <trkpt lat="44.71487" lon="3.85341">
        <ele>973.15881347656</ele>
        <time>2020-10-16T08:48:39.945Z</time>
      </trkpt>
      <trkpt lat="44.71474" lon="3.85323">
        <ele>973.94360351562</ele>
        <time>2020-10-16T08:48:40.195Z</time>
      </trkpt>
      <trkpt lat="44.71464" lon="3.85312">
        <ele>974.46740722656</ele>
        <time>2020-10-16T08:48:40.448Z</time>
      </trkpt>
      <trkpt lat="44.71441" lon="3.85293">
        <ele>975.89331054688</ele>
        <time>2020-10-16T08:48:40.706Z</time>
      </trkpt>
      <trkpt lat="44.71405" lon="3.85264">
        <ele>978.87628173828</ele>
        <time>2020-10-16T08:48:40.972Z</time>
      </trkpt>
      <trkpt lat="44.71361" lon="3.85226">
        <ele>982.79565429688</ele>
        <time>2020-10-16T08:48:41.249Z</time>
      </trkpt>
      <trkpt lat="44.71348" lon="3.85215">
        <ele>983.43646240234</ele>
        <time>2020-10-16T08:48:41.529Z</time>
      </trkpt>
      <trkpt lat="44.71307" lon="3.85182">
        <ele>985.4521484375</ele>
        <time>2020-10-16T08:48:41.818Z</time>
      </trkpt>
      <trkpt lat="44.71286" lon="3.85163">
        <ele>986.537109375</ele>
        <time>2020-10-16T08:48:42.112Z</time>
      </trkpt>
      <trkpt lat="44.71271" lon="3.85146">
        <ele>986.84985351562</ele>
        <time>2020-10-16T08:48:42.410Z</time>
      </trkpt>
      <trkpt lat="44.71257" lon="3.85122">
        <ele>987.59814453125</ele>
        <time>2020-10-16T08:48:42.712Z</time>
      </trkpt>
      <trkpt lat="44.71229" lon="3.85066">
        <ele>990.07537841797</ele>
        <time>2020-10-16T08:48:43.024Z</time>
      </trkpt>
      <trkpt lat="44.71212" lon="3.85036">
        <ele>991.47381591797</ele>
        <time>2020-10-16T08:48:43.342Z</time>
      </trkpt>
      <trkpt lat="44.71195" lon="3.8501">
        <ele>993.60821533203</ele>
        <time>2020-10-16T08:48:43.665Z</time>
      </trkpt>
      <trkpt lat="44.71182" lon="3.84991">
        <ele>995.99310302734</ele>
        <time>2020-10-16T08:48:43.992Z</time>
      </trkpt>
      <trkpt lat="44.71169" lon="3.84977">
        <ele>998.05084228516</ele>
        <time>2020-10-16T08:48:44.322Z</time>
      </trkpt>
      <trkpt lat="44.71157" lon="3.84967">
        <ele>999.77081298828</ele>
        <time>2020-10-16T08:48:44.655Z</time>
      </trkpt>
      <trkpt lat="44.71144" lon="3.84963">
        <ele>1001.3049926758</ele>
        <time>2020-10-16T08:48:44.990Z</time>
      </trkpt>
      <trkpt lat="44.71072" lon="3.84958">
        <ele>1007.6740722656</ele>
        <time>2020-10-16T08:48:45.340Z</time>
      </trkpt>
      <trkpt lat="44.71054" lon="3.84952">
        <ele>1009.6553955078</ele>
        <time>2020-10-16T08:48:45.693Z</time>
      </trkpt>
      <trkpt lat="44.71038" lon="3.84945">
        <ele>1011.3884277344</ele>
        <time>2020-10-16T08:48:46.050Z</time>
      </trkpt>
      <trkpt lat="44.71018" lon="3.84941">
        <ele>1012.4759521484</ele>
        <time>2020-10-16T08:48:46.411Z</time>
      </trkpt>
      <trkpt lat="44.70996" lon="3.84942">
        <ele>1013.1775512695</ele>
        <time>2020-10-16T08:48:46.776Z</time>
      </trkpt>
      <trkpt lat="44.70979" lon="3.84942">
        <ele>1013.876159668</ele>
        <time>2020-10-16T08:48:47.145Z</time>
      </trkpt>
      <trkpt lat="44.70958" lon="3.84938">
        <ele>1014.8801269531</ele>
        <time>2020-10-16T08:48:47.518Z</time>
      </trkpt>
      <trkpt lat="44.70928" lon="3.84931">
        <ele>1015.935546875</ele>
        <time>2020-10-16T08:48:47.897Z</time>
      </trkpt>
      <trkpt lat="44.7091" lon="3.84925">
        <ele>1016.5719604492</ele>
        <time>2020-10-16T08:48:48.280Z</time>
      </trkpt>
      <trkpt lat="44.70884" lon="3.84913">
        <ele>1017.5048828125</ele>
        <time>2020-10-16T08:48:48.668Z</time>
      </trkpt>
      <trkpt lat="44.70836" lon="3.84887">
        <ele>1019.2211303711</ele>
        <time>2020-10-16T08:48:49.066Z</time>
      </trkpt>
      <trkpt lat="44.70806" lon="3.84872">
        <ele>1020.323059082</ele>
        <time>2020-10-16T08:48:49.471Z</time>
      </trkpt>
      <trkpt lat="44.70793" lon="3.84866">
        <ele>1020.7415161133</ele>
        <time>2020-10-16T08:48:49.879Z</time>
      </trkpt>
      <trkpt lat="44.70783" lon="3.84858">
        <ele>1020.8765258789</ele>
        <time>2020-10-16T08:48:50.289Z</time>
      </trkpt>
      <trkpt lat="44.70778" lon="3.84851">
        <ele>1021.1684570312</ele>
        <time>2020-10-16T08:48:50.700Z</time>
      </trkpt>
      <trkpt lat="44.70771" lon="3.84846">
        <ele>1021.4108886719</ele>
        <time>2020-10-16T08:48:51.113Z</time>
      </trkpt>
      <trkpt lat="44.70758" lon="3.84842">
        <ele>1021.4662475586</ele>
        <time>2020-10-16T08:48:51.528Z</time>
      </trkpt>
      <trkpt lat="44.70703" lon="3.84823">
        <ele>1021.7304077148</ele>
        <time>2020-10-16T08:48:51.955Z</time>
      </trkpt>
      <trkpt lat="44.70683" lon="3.84811">
        <ele>1022.2338256836</ele>
        <time>2020-10-16T08:48:52.386Z</time>
      </trkpt>
      <trkpt lat="44.70646" lon="3.84788">
        <ele>1023.3257446289</ele>
        <time>2020-10-16T08:48:52.825Z</time>
      </trkpt>
      <trkpt lat="44.70616" lon="3.84771">
        <ele>1023.9774169922</ele>
        <time>2020-10-16T08:48:53.271Z</time>
      </trkpt>
      <trkpt lat="44.70616" lon="3.8477">
        <ele>1023.9762573242</ele>
        <time>2020-10-16T08:48:53.717Z</time>
      </trkpt>
      <trkpt lat="44.70567" lon="3.84746">
        <ele>1023.6926879883</ele>
        <time>2020-10-16T08:48:54.173Z</time>
      </trkpt>
      <trkpt lat="44.70548" lon="3.8474">
        <ele>1023.4531860352</ele>
        <time>2020-10-16T08:48:54.633Z</time>
      </trkpt>
      <trkpt lat="44.70534" lon="3.84739">
        <ele>1022.8668212891</ele>
        <time>2020-10-16T08:48:55.096Z</time>
      </trkpt>
      <trkpt lat="44.70508" lon="3.84742">
        <ele>1019.9776000977</ele>
        <time>2020-10-16T08:48:55.564Z</time>
      </trkpt>
      <trkpt lat="44.70489" lon="3.84745">
        <ele>1019.7651367188</ele>
        <time>2020-10-16T08:48:56.036Z</time>
      </trkpt>
      <trkpt lat="44.70467" lon="3.8475">
        <ele>1019.829284668</ele>
        <time>2020-10-16T08:48:56.512Z</time>
      </trkpt>
      <trkpt lat="44.70438" lon="3.84759">
        <ele>1019.3362426758</ele>
        <time>2020-10-16T08:48:56.994Z</time>
      </trkpt>
      <trkpt lat="44.70424" lon="3.84764">
        <ele>1019.2125244141</ele>
        <time>2020-10-16T08:48:57.479Z</time>
      </trkpt>
      <trkpt lat="44.70407" lon="3.84768">
        <ele>1018.9418334961</ele>
        <time>2020-10-16T08:48:57.968Z</time>
      </trkpt>
      <trkpt lat="44.7039" lon="3.84771">
        <ele>1018.5821533203</ele>
        <time>2020-10-16T08:48:58.460Z</time>
      </trkpt>
      <trkpt lat="44.70345" lon="3.84775">
        <ele>1017.9729614258</ele>
        <time>2020-10-16T08:48:58.961Z</time>
      </trkpt>
      <trkpt lat="44.70289" lon="3.84779">
        <ele>1018.0180053711</ele>
        <time>2020-10-16T08:48:59.473Z</time>
      </trkpt>
      <trkpt lat="44.70262" lon="3.84784">
        <ele>1019.6409301758</ele>
        <time>2020-10-16T08:48:59.991Z</time>
      </trkpt>
      <trkpt lat="44.70234" lon="3.84788">
        <ele>1021.3457641602</ele>
        <time>2020-10-16T08:49:00.514Z</time>
      </trkpt>
      <trkpt lat="44.7019" lon="3.84794">
        <ele>1023.0939941406</ele>
        <time>2020-10-16T08:49:01.046Z</time>
      </trkpt>
      <trkpt lat="44.70146" lon="3.84797">
        <ele>1022.6087036133</ele>
        <time>2020-10-16T08:49:01.587Z</time>
      </trkpt>
      <trkpt lat="44.70131" lon="3.84796">
        <ele>1022.259765625</ele>
        <time>2020-10-16T08:49:02.131Z</time>
      </trkpt>
      <trkpt lat="44.70022" lon="3.84768">
        <ele>1019.6616210938</ele>
        <time>2020-10-16T08:49:02.697Z</time>
      </trkpt>
      <trkpt lat="44.70003" lon="3.84766">
        <ele>1019.5396118164</ele>
        <time>2020-10-16T08:49:03.267Z</time>
      </trkpt>
      <trkpt lat="44.69961" lon="3.84764">
        <ele>1019.4225463867</ele>
        <time>2020-10-16T08:49:03.845Z</time>
      </trkpt>
      <trkpt lat="44.69875" lon="3.84761">
        <ele>1024.26953125</ele>
        <time>2020-10-16T08:49:04.440Z</time>
      </trkpt>
      <trkpt lat="44.69878" lon="3.84747">
        <ele>1023.5989990234</ele>
        <time>2020-10-16T08:49:05.038Z</time>
      </trkpt>
      <trkpt lat="44.69879" lon="3.84732">
        <ele>1023.0002441406</ele>
        <time>2020-10-16T08:49:05.638Z</time>
      </trkpt>
      <trkpt lat="44.69879" lon="3.84709">
        <ele>1022.16015625</ele>
        <time>2020-10-16T08:49:06.241Z</time>
      </trkpt>
      <trkpt lat="44.69878" lon="3.84677">
        <ele>1020.6262817383</ele>
        <time>2020-10-16T08:49:06.849Z</time>
      </trkpt>
      <trkpt lat="44.69876" lon="3.8465">
        <ele>1019.6038818359</ele>
        <time>2020-10-16T08:49:07.460Z</time>
      </trkpt>
      <trkpt lat="44.69871" lon="3.84625">
        <ele>1018.8473510742</ele>
        <time>2020-10-16T08:49:08.075Z</time>
      </trkpt>
      <trkpt lat="44.69866" lon="3.84607">
        <ele>1018.8659057617</ele>
        <time>2020-10-16T08:49:08.693Z</time>
      </trkpt>
      <trkpt lat="44.69862" lon="3.84586">
        <ele>1019.0927734375</ele>
        <time>2020-10-16T08:49:09.314Z</time>
      </trkpt>
      <trkpt lat="44.69866" lon="3.84564">
        <ele>1018.5950927734</ele>
        <time>2020-10-16T08:49:09.938Z</time>
      </trkpt>
      <trkpt lat="44.69882" lon="3.8452">
        <ele>1016.2982788086</ele>
        <time>2020-10-16T08:49:10.569Z</time>
      </trkpt>
      <trkpt lat="44.69891" lon="3.84497">
        <ele>1016.5848999023</ele>
        <time>2020-10-16T08:49:11.204Z</time>
      </trkpt>
      <trkpt lat="44.69894" lon="3.84485">
        <ele>1016.977355957</ele>
        <time>2020-10-16T08:49:11.841Z</time>
      </trkpt>
      <trkpt lat="44.69896" lon="3.84472">
        <ele>1017.6040649414</ele>
        <time>2020-10-16T08:49:12.480Z</time>
      </trkpt>
      <trkpt lat="44.699" lon="3.84446">
        <ele>1019.153503418</ele>
        <time>2020-10-16T08:49:13.122Z</time>
      </trkpt>
      <trkpt lat="44.69902" lon="3.84436">
        <ele>1019.5204467773</ele>
        <time>2020-10-16T08:49:13.766Z</time>
      </trkpt>
      <trkpt lat="44.6991" lon="3.84416">
        <ele>1019.3466186523</ele>
        <time>2020-10-16T08:49:14.413Z</time>
      </trkpt>
      <trkpt lat="44.69918" lon="3.84397">
        <ele>1019.1341552734</ele>
        <time>2020-10-16T08:49:15.063Z</time>
      </trkpt>
      <trkpt lat="44.69927" lon="3.84378">
        <ele>1019.151550293</ele>
        <time>2020-10-16T08:49:15.717Z</time>
      </trkpt>
      <trkpt lat="44.69934" lon="3.84359">
        <ele>1019.3822021484</ele>
        <time>2020-10-16T08:49:16.374Z</time>
      </trkpt>
      <trkpt lat="44.69939" lon="3.84332">
        <ele>1018.8707275391</ele>
        <time>2020-10-16T08:49:17.035Z</time>
      </trkpt>
      <trkpt lat="44.69945" lon="3.84309">
        <ele>1019.3161621094</ele>
        <time>2020-10-16T08:49:17.699Z</time>
      </trkpt>
      <trkpt lat="44.69945" lon="3.84293">
        <ele>1019.8560791016</ele>
        <time>2020-10-16T08:49:18.366Z</time>
      </trkpt>
      <trkpt lat="44.69942" lon="3.84275">
        <ele>1020.7135620117</ele>
        <time>2020-10-16T08:49:19.035Z</time>
      </trkpt>
      <trkpt lat="44.69938" lon="3.84251">
        <ele>1020.0584716797</ele>
        <time>2020-10-16T08:49:19.708Z</time>
      </trkpt>
      <trkpt lat="44.69936" lon="3.84234">
        <ele>1019.7116699219</ele>
        <time>2020-10-16T08:49:20.383Z</time>
      </trkpt>
      <trkpt lat="44.69936" lon="3.84217">
        <ele>1019.2970581055</ele>
        <time>2020-10-16T08:49:21.061Z</time>
      </trkpt>
      <trkpt lat="44.69938" lon="3.84201">
        <ele>1018.823425293</ele>
        <time>2020-10-16T08:49:21.741Z</time>
      </trkpt>
      <trkpt lat="44.69943" lon="3.84185">
        <ele>1017.8571777344</ele>
        <time>2020-10-16T08:49:22.423Z</time>
      </trkpt>
      <trkpt lat="44.69951" lon="3.84171">
        <ele>1016.7939453125</ele>
        <time>2020-10-16T08:49:23.108Z</time>
      </trkpt>
      <trkpt lat="44.69956" lon="3.84163">
        <ele>1016.2537231445</ele>
        <time>2020-10-16T08:49:23.794Z</time>
      </trkpt>
      <trkpt lat="44.69964" lon="3.84156">
        <ele>1015.346862793</ele>
        <time>2020-10-16T08:49:24.482Z</time>
      </trkpt>
      <trkpt lat="44.69962" lon="3.84137">
        <ele>1014.4071655273</ele>
        <time>2020-10-16T08:49:25.173Z</time>
      </trkpt>
      <trkpt lat="44.69956" lon="3.84124">
        <ele>1013.9206542969</ele>
        <time>2020-10-16T08:49:25.866Z</time>
      </trkpt>
      <trkpt lat="44.69947" lon="3.84107">
        <ele>1012.8631591797</ele>
        <time>2020-10-16T08:49:26.562Z</time>
      </trkpt>
      <trkpt lat="44.69939" lon="3.8409">
        <ele>1010.8395385742</ele>
        <time>2020-10-16T08:49:27.261Z</time>
      </trkpt>
      <trkpt lat="44.69928" lon="3.84073">
        <ele>1008.9356689453</ele>
        <time>2020-10-16T08:49:27.963Z</time>
      </trkpt>
      <trkpt lat="44.6992" lon="3.84069">
        <ele>1008.0407714844</ele>
        <time>2020-10-16T08:49:28.667Z</time>
      </trkpt>
      <trkpt lat="44.69901" lon="3.84065">
        <ele>1006.7416381836</ele>
        <time>2020-10-16T08:49:29.375Z</time>
      </trkpt>
      <trkpt lat="44.69888" lon="3.84065">
        <ele>1006.2151489258</ele>
        <time>2020-10-16T08:49:30.086Z</time>
      </trkpt>
      <trkpt lat="44.69876" lon="3.84064">
        <ele>1005.688659668</ele>
        <time>2020-10-16T08:49:30.799Z</time>
      </trkpt>
      <trkpt lat="44.69858" lon="3.84055">
        <ele>1004.9650268555</ele>
        <time>2020-10-16T08:49:31.516Z</time>
      </trkpt>
      <trkpt lat="44.69843" lon="3.84043">
        <ele>1004.1567993164</ele>
        <time>2020-10-16T08:49:32.236Z</time>
      </trkpt>
      <trkpt lat="44.69832" lon="3.84025">
        <ele>1002.6838378906</ele>
        <time>2020-10-16T08:49:32.960Z</time>
      </trkpt>
      <trkpt lat="44.69822" lon="3.84008">
        <ele>1000.8703613281</ele>
        <time>2020-10-16T08:49:33.687Z</time>
      </trkpt>
      <trkpt lat="44.69808" lon="3.83994">
        <ele>999.52502441406</ele>
        <time>2020-10-16T08:49:34.417Z</time>
      </trkpt>
      <trkpt lat="44.69796" lon="3.83976">
        <ele>997.57653808594</ele>
        <time>2020-10-16T08:49:35.151Z</time>
      </trkpt>
      <trkpt lat="44.69794" lon="3.83973">
        <ele>997.19702148438</ele>
        <time>2020-10-16T08:49:35.885Z</time>
      </trkpt>
      <trkpt lat="44.69791" lon="3.83971">
        <ele>997.01257324219</ele>
        <time>2020-10-16T08:49:36.620Z</time>
      </trkpt>
      <trkpt lat="44.69788" lon="3.83968">
        <ele>996.81597900391</ele>
        <time>2020-10-16T08:49:37.356Z</time>
      </trkpt>
      <trkpt lat="44.69772" lon="3.8396">
        <ele>994.72857666016</ele>
        <time>2020-10-16T08:49:38.095Z</time>
      </trkpt>
      <trkpt lat="44.69756" lon="3.83955">
        <ele>992.93377685547</ele>
        <time>2020-10-16T08:49:38.837Z</time>
      </trkpt>
      <trkpt lat="44.69737" lon="3.83947">
        <ele>990.46411132812</ele>
        <time>2020-10-16T08:49:39.583Z</time>
      </trkpt>
      <trkpt lat="44.69724" lon="3.83943">
        <ele>988.97564697266</ele>
        <time>2020-10-16T08:49:40.332Z</time>
      </trkpt>
      <trkpt lat="44.69714" lon="3.83939">
        <ele>987.71807861328</ele>
        <time>2020-10-16T08:49:41.083Z</time>
      </trkpt>
      <trkpt lat="44.69702" lon="3.83935">
        <ele>986.40850830078</ele>
        <time>2020-10-16T08:49:41.837Z</time>
      </trkpt>
      <trkpt lat="44.69702" lon="3.83935">
        <ele>986.30133056641</ele>
        <time>2020-10-16T08:49:42.591Z</time>
      </trkpt>
      <trkpt lat="44.69685" lon="3.83931">
        <ele>983.99719238281</ele>
        <time>2020-10-16T08:49:43.348Z</time>
      </trkpt>
      <trkpt lat="44.69676" lon="3.83929">
        <ele>982.73431396484</ele>
        <time>2020-10-16T08:49:44.107Z</time>
      </trkpt>
      <trkpt lat="44.69658" lon="3.83931">
        <ele>980.77496337891</ele>
        <time>2020-10-16T08:49:44.870Z</time>
      </trkpt>
      <trkpt lat="44.6964" lon="3.83937">
        <ele>979.13946533203</ele>
        <time>2020-10-16T08:49:45.636Z</time>
      </trkpt>
      <trkpt lat="44.69626" lon="3.83938">
        <ele>977.55505371094</ele>
        <time>2020-10-16T08:49:46.405Z</time>
      </trkpt>
      <trkpt lat="44.69625" lon="3.83938">
        <ele>977.50946044922</ele>
        <time>2020-10-16T08:49:47.174Z</time>
      </trkpt>
      <trkpt lat="44.69623" lon="3.83929">
        <ele>976.42364501953</ele>
        <time>2020-10-16T08:49:47.944Z</time>
      </trkpt>
      <trkpt lat="44.69626" lon="3.83913">
        <ele>975.17388916016</ele>
        <time>2020-10-16T08:49:48.717Z</time>
      </trkpt>
      <trkpt lat="44.69635" lon="3.83893">
        <ele>974.30828857422</ele>
        <time>2020-10-16T08:49:49.493Z</time>
      </trkpt>
      <trkpt lat="44.69657" lon="3.83857">
        <ele>972.80029296875</ele>
        <time>2020-10-16T08:49:50.276Z</time>
      </trkpt>
      <trkpt lat="44.6967" lon="3.8384">
        <ele>973.40704345703</ele>
        <time>2020-10-16T08:49:51.062Z</time>
      </trkpt>
      <trkpt lat="44.69685" lon="3.83829">
        <ele>973.83807373047</ele>
        <time>2020-10-16T08:49:51.852Z</time>
      </trkpt>
      <trkpt lat="44.69703" lon="3.8382">
        <ele>972.66735839844</ele>
        <time>2020-10-16T08:49:52.646Z</time>
      </trkpt>
      <trkpt lat="44.69708" lon="3.83817">
        <ele>972.54345703125</ele>
        <time>2020-10-16T08:49:53.441Z</time>
      </trkpt>
      <trkpt lat="44.69716" lon="3.8381">
        <ele>972.0234375</ele>
        <time>2020-10-16T08:49:54.238Z</time>
      </trkpt>
      <trkpt lat="44.69718" lon="3.8381">
        <ele>972.00952148438</ele>
        <time>2020-10-16T08:49:55.035Z</time>
      </trkpt>
      <trkpt lat="44.69719" lon="3.83792">
        <ele>969.89666748047</ele>
        <time>2020-10-16T08:49:55.835Z</time>
      </trkpt>
      <trkpt lat="44.69713" lon="3.83783">
        <ele>968.66607666016</ele>
        <time>2020-10-16T08:49:56.636Z</time>
      </trkpt>
      <trkpt lat="44.69699" lon="3.83771">
        <ele>967.17120361328</ele>
        <time>2020-10-16T08:49:57.441Z</time>
      </trkpt>
      <trkpt lat="44.69688" lon="3.8377">
        <ele>967.20654296875</ele>
        <time>2020-10-16T08:49:58.248Z</time>
      </trkpt>
      <trkpt lat="44.69677" lon="3.8377">
        <ele>967.24194335938</ele>
        <time>2020-10-16T08:49:59.057Z</time>
      </trkpt>
      <trkpt lat="44.69669" lon="3.83769">
        <ele>967.31121826172</ele>
        <time>2020-10-16T08:49:59.868Z</time>
      </trkpt>
      <trkpt lat="44.69661" lon="3.83756">
        <ele>968.59173583984</ele>
        <time>2020-10-16T08:50:00.681Z</time>
      </trkpt>
      <trkpt lat="44.69656" lon="3.83744">
        <ele>969.71813964844</ele>
        <time>2020-10-16T08:50:01.496Z</time>
      </trkpt>
      <trkpt lat="44.69655" lon="3.83742">
        <ele>969.94635009766</ele>
        <time>2020-10-16T08:50:02.311Z</time>
      </trkpt>
      <trkpt lat="44.6965" lon="3.83726">
        <ele>971.49243164062</ele>
        <time>2020-10-16T08:50:03.129Z</time>
      </trkpt>
      <trkpt lat="44.69657" lon="3.83701">
        <ele>970.26879882812</ele>
        <time>2020-10-16T08:50:03.951Z</time>
      </trkpt>
      <trkpt lat="44.69671" lon="3.83684">
        <ele>967.24719238281</ele>
        <time>2020-10-16T08:50:04.777Z</time>
      </trkpt>
      <trkpt lat="44.69682" lon="3.83669">
        <ele>964.65795898438</ele>
        <time>2020-10-16T08:50:05.606Z</time>
      </trkpt>
      <trkpt lat="44.69685" lon="3.83652">
        <ele>962.54565429688</ele>
        <time>2020-10-16T08:50:06.437Z</time>
      </trkpt>
      <trkpt lat="44.6968" lon="3.83642">
        <ele>962.41790771484</ele>
        <time>2020-10-16T08:50:07.270Z</time>
      </trkpt>
      <trkpt lat="44.69664" lon="3.83636">
        <ele>964.54095458984</ele>
        <time>2020-10-16T08:50:08.106Z</time>
      </trkpt>
      <trkpt lat="44.69646" lon="3.83618">
        <ele>965.86993408203</ele>
        <time>2020-10-16T08:50:08.947Z</time>
      </trkpt>
      <trkpt lat="44.6963" lon="3.83598">
        <ele>966.63098144531</ele>
        <time>2020-10-16T08:50:09.792Z</time>
      </trkpt>
      <trkpt lat="44.69624" lon="3.83582">
        <ele>966.33782958984</ele>
        <time>2020-10-16T08:50:10.639Z</time>
      </trkpt>
      <trkpt lat="44.69618" lon="3.83567">
        <ele>966.06823730469</ele>
        <time>2020-10-16T08:50:11.489Z</time>
      </trkpt>
      <trkpt lat="44.69609" lon="3.83538">
        <ele>965.24078369141</ele>
        <time>2020-10-16T08:50:12.343Z</time>
      </trkpt>
      <trkpt lat="44.69601" lon="3.8351">
        <ele>965.28594970703</ele>
        <time>2020-10-16T08:50:13.202Z</time>
      </trkpt>
      <trkpt lat="44.69592" lon="3.83482">
        <ele>966.33508300781</ele>
        <time>2020-10-16T08:50:14.065Z</time>
      </trkpt>
      <trkpt lat="44.69584" lon="3.83454">
        <ele>967.30090332031</ele>
        <time>2020-10-16T08:50:14.932Z</time>
      </trkpt>
      <trkpt lat="44.69588" lon="3.83442">
        <ele>966.3037109375</ele>
        <time>2020-10-16T08:50:15.801Z</time>
      </trkpt>
      <trkpt lat="44.69584" lon="3.83439">
        <ele>966.95660400391</ele>
        <time>2020-10-16T08:50:16.671Z</time>
      </trkpt>
      <trkpt lat="44.6958" lon="3.83431">
        <ele>967.34313964844</ele>
        <time>2020-10-16T08:50:17.542Z</time>
      </trkpt>
      <trkpt lat="44.69576" lon="3.83412">
        <ele>967.47845458984</ele>
        <time>2020-10-16T08:50:18.416Z</time>
      </trkpt>
      <trkpt lat="44.69569" lon="3.83392">
        <ele>968.0615234375</ele>
        <time>2020-10-16T08:50:19.293Z</time>
      </trkpt>
      <trkpt lat="44.69564" lon="3.83381">
        <ele>968.70947265625</ele>
        <time>2020-10-16T08:50:20.172Z</time>
      </trkpt>
      <trkpt lat="44.69557" lon="3.83368">
        <ele>969.87957763672</ele>
        <time>2020-10-16T08:50:21.054Z</time>
      </trkpt>
      <trkpt lat="44.69545" lon="3.83355">
        <ele>971.78002929688</ele>
        <time>2020-10-16T08:50:21.939Z</time>
      </trkpt>
      <trkpt lat="44.6951" lon="3.83326">
        <ele>969.79095458984</ele>
        <time>2020-10-16T08:50:22.832Z</time>
      </trkpt>
      <trkpt lat="44.69497" lon="3.83316">
        <ele>968.80334472656</ele>
        <time>2020-10-16T08:50:23.728Z</time>
      </trkpt>
      <trkpt lat="44.69488" lon="3.83313">
        <ele>968.98895263672</ele>
        <time>2020-10-16T08:50:24.626Z</time>
      </trkpt>
      <trkpt lat="44.69479" lon="3.83311">
        <ele>969.55804443359</ele>
        <time>2020-10-16T08:50:25.525Z</time>
      </trkpt>
      <trkpt lat="44.6947" lon="3.83311">
        <ele>970.49847412109</ele>
        <time>2020-10-16T08:50:26.426Z</time>
      </trkpt>
      <trkpt lat="44.69461" lon="3.83312">
        <ele>971.70648193359</ele>
        <time>2020-10-16T08:50:27.329Z</time>
      </trkpt>
      <trkpt lat="44.69452" lon="3.83316">
        <ele>973.43572998047</ele>
        <time>2020-10-16T08:50:28.234Z</time>
      </trkpt>
      <trkpt lat="44.69442" lon="3.83324">
        <ele>974.95758056641</ele>
        <time>2020-10-16T08:50:29.141Z</time>
      </trkpt>
      <trkpt lat="44.694" lon="3.8336">
        <ele>982.10931396484</ele>
        <time>2020-10-16T08:50:30.058Z</time>
      </trkpt>
      <trkpt lat="44.69368" lon="3.83385">
        <ele>986.38177490234</ele>
        <time>2020-10-16T08:50:30.982Z</time>
      </trkpt>
      <trkpt lat="44.6936" lon="3.83393">
        <ele>987.32788085938</ele>
        <time>2020-10-16T08:50:31.908Z</time>
      </trkpt>
      <trkpt lat="44.69352" lon="3.83406">
        <ele>989.02105712891</ele>
        <time>2020-10-16T08:50:32.837Z</time>
      </trkpt>
      <trkpt lat="44.69339" lon="3.83434">
        <ele>993.42120361328</ele>
        <time>2020-10-16T08:50:33.771Z</time>
      </trkpt>
      <trkpt lat="44.69322" lon="3.83468">
        <ele>994.75262451172</ele>
        <time>2020-10-16T08:50:34.710Z</time>
      </trkpt>
      <trkpt lat="44.69312" lon="3.83484">
        <ele>996.30310058594</ele>
        <time>2020-10-16T08:50:35.653Z</time>
      </trkpt>
      <trkpt lat="44.69301" lon="3.83497">
        <ele>997.78900146484</ele>
        <time>2020-10-16T08:50:36.598Z</time>
      </trkpt>
      <trkpt lat="44.69282" lon="3.83514">
        <ele>999.88934326172</ele>
        <time>2020-10-16T08:50:37.548Z</time>
      </trkpt>
      <trkpt lat="44.69261" lon="3.8353">
        <ele>1002.2525024414</ele>
        <time>2020-10-16T08:50:38.503Z</time>
      </trkpt>
      <trkpt lat="44.69237" lon="3.83548">
        <ele>1004.3259277344</ele>
        <time>2020-10-16T08:50:39.463Z</time>
      </trkpt>
      <trkpt lat="44.69215" lon="3.8357">
        <ele>1007.1510009766</ele>
        <time>2020-10-16T08:50:40.429Z</time>
      </trkpt>
      <trkpt lat="44.69188" lon="3.83595">
        <ele>1009.8294067383</ele>
        <time>2020-10-16T08:50:41.401Z</time>
      </trkpt>
      <trkpt lat="44.69169" lon="3.83617">
        <ele>1011.8215332031</ele>
        <time>2020-10-16T08:50:42.378Z</time>
      </trkpt>
      <trkpt lat="44.69159" lon="3.83626">
        <ele>1012.0518188477</ele>
        <time>2020-10-16T08:50:43.357Z</time>
      </trkpt>
      <trkpt lat="44.69146" lon="3.83635">
        <ele>1012.4784545898</ele>
        <time>2020-10-16T08:50:44.339Z</time>
      </trkpt>
      <trkpt lat="44.69109" lon="3.83654">
        <ele>1014.2299804688</ele>
        <time>2020-10-16T08:50:45.329Z</time>
      </trkpt>
      <trkpt lat="44.69046" lon="3.83683">
        <ele>1018.8312988281</ele>
        <time>2020-10-16T08:50:46.332Z</time>
      </trkpt>
      <trkpt lat="44.69023" lon="3.83696">
        <ele>1019.3516235352</ele>
        <time>2020-10-16T08:50:47.340Z</time>
      </trkpt>
      <trkpt lat="44.69006" lon="3.83707">
        <ele>1018.4647827148</ele>
        <time>2020-10-16T08:50:48.352Z</time>
      </trkpt>
      <trkpt lat="44.68985" lon="3.83721">
        <ele>1017.4013671875</ele>
        <time>2020-10-16T08:50:49.369Z</time>
      </trkpt>
      <trkpt lat="44.68946" lon="3.83749">
        <ele>1024.3247070312</ele>
        <time>2020-10-16T08:50:50.395Z</time>
      </trkpt>
      <trkpt lat="44.68909" lon="3.83775">
        <ele>1030.9012451172</ele>
        <time>2020-10-16T08:50:51.429Z</time>
      </trkpt>
      <trkpt lat="44.68873" lon="3.83798">
        <ele>1035.9350585938</ele>
        <time>2020-10-16T08:50:52.471Z</time>
      </trkpt>
      <trkpt lat="44.68844" lon="3.83815">
        <ele>1038.4893798828</ele>
        <time>2020-10-16T08:50:53.519Z</time>
      </trkpt>
      <trkpt lat="44.68802" lon="3.83836">
        <ele>1041.1765136719</ele>
        <time>2020-10-16T08:50:54.576Z</time>
      </trkpt>
      <trkpt lat="44.68771" lon="3.8385">
        <ele>1044.2593994141</ele>
        <time>2020-10-16T08:50:55.639Z</time>
      </trkpt>
      <trkpt lat="44.6874" lon="3.83864">
        <ele>1048.0435791016</ele>
        <time>2020-10-16T08:50:56.709Z</time>
      </trkpt>
      <trkpt lat="44.68711" lon="3.83882">
        <ele>1050.3288574219</ele>
        <time>2020-10-16T08:50:57.785Z</time>
      </trkpt>
      <trkpt lat="44.68672" lon="3.83908">
        <ele>1054.5255126953</ele>
        <time>2020-10-16T08:50:58.870Z</time>
      </trkpt>
      <trkpt lat="44.68652" lon="3.83919">
        <ele>1057.3208007812</ele>
        <time>2020-10-16T08:50:59.959Z</time>
      </trkpt>
      <trkpt lat="44.68634" lon="3.8393">
        <ele>1060.0217285156</ele>
        <time>2020-10-16T08:51:01.052Z</time>
      </trkpt>
      <trkpt lat="44.68617" lon="3.83935">
        <ele>1062.3470458984</ele>
        <time>2020-10-16T08:51:02.149Z</time>
      </trkpt>
      <trkpt lat="44.68581" lon="3.83943">
        <ele>1065.6833496094</ele>
        <time>2020-10-16T08:51:03.253Z</time>
      </trkpt>
      <trkpt lat="44.68531" lon="3.83952">
        <ele>1069.8586425781</ele>
        <time>2020-10-16T08:51:04.367Z</time>
      </trkpt>
      <trkpt lat="44.68503" lon="3.83961">
        <ele>1069.7430419922</ele>
        <time>2020-10-16T08:51:05.487Z</time>
      </trkpt>
      <trkpt lat="44.68476" lon="3.8397">
        <ele>1070.2027587891</ele>
        <time>2020-10-16T08:51:06.612Z</time>
      </trkpt>
      <trkpt lat="44.68458" lon="3.83974">
        <ele>1072.0893554688</ele>
        <time>2020-10-16T08:51:07.741Z</time>
      </trkpt>
      <trkpt lat="44.6844" lon="3.83977">
        <ele>1072.5427246094</ele>
        <time>2020-10-16T08:51:08.873Z</time>
      </trkpt>
      <trkpt lat="44.68417" lon="3.8398">
        <ele>1072.5084228516</ele>
        <time>2020-10-16T08:51:10.010Z</time>
      </trkpt>
      <trkpt lat="44.68368" lon="3.83986">
        <ele>1073.3520507812</ele>
        <time>2020-10-16T08:51:11.157Z</time>
      </trkpt>
      <trkpt lat="44.68359" lon="3.83985">
        <ele>1072.5427246094</ele>
        <time>2020-10-16T08:51:12.306Z</time>
      </trkpt>
      <trkpt lat="44.68349" lon="3.83982">
        <ele>1071.4865722656</ele>
        <time>2020-10-16T08:51:13.457Z</time>
      </trkpt>
      <trkpt lat="44.68335" lon="3.83979">
        <ele>1070.1434326172</ele>
        <time>2020-10-16T08:51:14.611Z</time>
      </trkpt>
      <trkpt lat="44.68328" lon="3.83978">
        <ele>1069.42578125</ele>
        <time>2020-10-16T08:51:15.766Z</time>
      </trkpt>
      <trkpt lat="44.68321" lon="3.8398">
        <ele>1069.3610839844</ele>
        <time>2020-10-16T08:51:16.923Z</time>
      </trkpt>
      <trkpt lat="44.68305" lon="3.83985">
        <ele>1069.6661376953</ele>
        <time>2020-10-16T08:51:18.083Z</time>
      </trkpt>
      <trkpt lat="44.68275" lon="3.83996">
        <ele>1070.5855712891</ele>
        <time>2020-10-16T08:51:19.249Z</time>
      </trkpt>
      <trkpt lat="44.68244" lon="3.84005">
        <ele>1073.6811523438</ele>
        <time>2020-10-16T08:51:20.421Z</time>
      </trkpt>
      <trkpt lat="44.68225" lon="3.8401">
        <ele>1076.0133056641</ele>
        <time>2020-10-16T08:51:21.597Z</time>
      </trkpt>
      <trkpt lat="44.68207" lon="3.84015">
        <ele>1078.3439941406</ele>
        <time>2020-10-16T08:51:22.777Z</time>
      </trkpt>
      <trkpt lat="44.68191" lon="3.8402">
        <ele>1081.2810058594</ele>
        <time>2020-10-16T08:51:23.960Z</time>
      </trkpt>
      <trkpt lat="44.68185" lon="3.84022">
        <ele>1082.3343505859</ele>
        <time>2020-10-16T08:51:25.144Z</time>
      </trkpt>
      <trkpt lat="44.68171" lon="3.84029">
        <ele>1084.2097167969</ele>
        <time>2020-10-16T08:51:26.331Z</time>
      </trkpt>
      <trkpt lat="44.6815" lon="3.84043">
        <ele>1086.9647216797</ele>
        <time>2020-10-16T08:51:27.523Z</time>
      </trkpt>
      <trkpt lat="44.68138" lon="3.84053">
        <ele>1088.5844726562</ele>
        <time>2020-10-16T08:51:28.718Z</time>
      </trkpt>
      <trkpt lat="44.68126" lon="3.84067">
        <ele>1090.2335205078</ele>
        <time>2020-10-16T08:51:29.916Z</time>
      </trkpt>
      <trkpt lat="44.68114" lon="3.84084">
        <ele>1091.8098144531</ele>
        <time>2020-10-16T08:51:31.117Z</time>
      </trkpt>
      <trkpt lat="44.68092" lon="3.84113">
        <ele>1096.2525634766</ele>
        <time>2020-10-16T08:51:32.324Z</time>
      </trkpt>
      <trkpt lat="44.68079" lon="3.84127">
        <ele>1098.6442871094</ele>
        <time>2020-10-16T08:51:33.535Z</time>
      </trkpt>
      <trkpt lat="44.68063" lon="3.84142">
        <ele>1101.5639648438</ele>
        <time>2020-10-16T08:51:34.749Z</time>
      </trkpt>
      <trkpt lat="44.68032" lon="3.84169">
        <ele>1107.1154785156</ele>
        <time>2020-10-16T08:51:35.971Z</time>
      </trkpt>
      <trkpt lat="44.67996" lon="3.84202">
        <ele>1108.3348388672</ele>
        <time>2020-10-16T08:51:37.201Z</time>
      </trkpt>
      <trkpt lat="44.67963" lon="3.84233">
        <ele>1109.2630615234</ele>
        <time>2020-10-16T08:51:38.439Z</time>
      </trkpt>
      <trkpt lat="44.6793" lon="3.8426">
        <ele>1106.7076416016</ele>
        <time>2020-10-16T08:51:39.685Z</time>
      </trkpt>
      <trkpt lat="44.67926" lon="3.84265">
        <ele>1106.9846191406</ele>
        <time>2020-10-16T08:51:40.932Z</time>
      </trkpt>
      <trkpt lat="44.67924" lon="3.84269">
        <ele>1107.2446289062</ele>
        <time>2020-10-16T08:51:42.180Z</time>
      </trkpt>
      <trkpt lat="44.67922" lon="3.84275">
        <ele>1107.5875244141</ele>
        <time>2020-10-16T08:51:43.429Z</time>
      </trkpt>
      <trkpt lat="44.6793" lon="3.84273">
        <ele>1107.8951416016</ele>
        <time>2020-10-16T08:51:44.679Z</time>
      </trkpt>
      <trkpt lat="44.67938" lon="3.84274">
        <ele>1108.2868652344</ele>
        <time>2020-10-16T08:51:45.931Z</time>
      </trkpt>
      <trkpt lat="44.67949" lon="3.84278">
        <ele>1108.9273681641</ele>
        <time>2020-10-16T08:51:47.185Z</time>
      </trkpt>
      <trkpt lat="44.67988" lon="3.84299">
        <ele>1107.7575683594</ele>
        <time>2020-10-16T08:51:48.447Z</time>
      </trkpt>
      <trkpt lat="44.68042" lon="3.84328">
        <ele>1104.7974853516</ele>
        <time>2020-10-16T08:51:49.721Z</time>
      </trkpt>
      <trkpt lat="44.68067" lon="3.84343">
        <ele>1101.5750732422</ele>
        <time>2020-10-16T08:51:51.001Z</time>
      </trkpt>
      <trkpt lat="44.68089" lon="3.84357">
        <ele>1098.9317626953</ele>
        <time>2020-10-16T08:51:52.285Z</time>
      </trkpt>
      <trkpt lat="44.68124" lon="3.84384">
        <ele>1096.1229248047</ele>
        <time>2020-10-16T08:51:53.577Z</time>
      </trkpt>
      <trkpt lat="44.68182" lon="3.84425">
        <ele>1093.1313476562</ele>
        <time>2020-10-16T08:51:54.882Z</time>
      </trkpt>
      <trkpt lat="44.68199" lon="3.84433">
        <ele>1091.908203125</ele>
        <time>2020-10-16T08:51:56.191Z</time>
      </trkpt>
      <trkpt lat="44.68217" lon="3.84439">
        <ele>1091.5228271484</ele>
        <time>2020-10-16T08:51:57.504Z</time>
      </trkpt>
      <trkpt lat="44.68233" lon="3.84443">
        <ele>1091.1684570312</ele>
        <time>2020-10-16T08:51:58.820Z</time>
      </trkpt>
      <trkpt lat="44.68233" lon="3.84456">
        <ele>1091.9370117188</ele>
        <time>2020-10-16T08:52:00.138Z</time>
      </trkpt>
      <trkpt lat="44.68234" lon="3.8448">
        <ele>1093.5728759766</ele>
        <time>2020-10-16T08:52:01.459Z</time>
      </trkpt>
      <trkpt lat="44.6824" lon="3.84561">
        <ele>1098.2260742188</ele>
        <time>2020-10-16T08:52:02.792Z</time>
      </trkpt>
      <trkpt lat="44.68241" lon="3.84596">
        <ele>1100.2243652344</ele>
        <time>2020-10-16T08:52:04.130Z</time>
      </trkpt>
      <trkpt lat="44.68241" lon="3.84608">
        <ele>1100.8011474609</ele>
        <time>2020-10-16T08:52:05.469Z</time>
      </trkpt>
      <trkpt lat="44.68242" lon="3.84637">
        <ele>1100.7633056641</ele>
        <time>2020-10-16T08:52:06.813Z</time>
      </trkpt>
      <trkpt lat="44.68242" lon="3.84667">
        <ele>1101.3216552734</ele>
        <time>2020-10-16T08:52:08.161Z</time>
      </trkpt>
      <trkpt lat="44.68236" lon="3.84698">
        <ele>1101.9163818359</ele>
        <time>2020-10-16T08:52:09.513Z</time>
      </trkpt>
      <trkpt lat="44.68224" lon="3.84743">
        <ele>1101.6953125</ele>
        <time>2020-10-16T08:52:10.872Z</time>
      </trkpt>
      <trkpt lat="44.68215" lon="3.84766">
        <ele>1102.4915771484</ele>
        <time>2020-10-16T08:52:12.235Z</time>
      </trkpt>
      <trkpt lat="44.68189" lon="3.84802">
        <ele>1102.7589111328</ele>
        <time>2020-10-16T08:52:13.605Z</time>
      </trkpt>
      <trkpt lat="44.68182" lon="3.84835">
        <ele>1100.8010253906</ele>
        <time>2020-10-16T08:52:14.980Z</time>
      </trkpt>
      <trkpt lat="44.68177" lon="3.84865">
        <ele>1099.2570800781</ele>
        <time>2020-10-16T08:52:16.360Z</time>
      </trkpt>
      <trkpt lat="44.68171" lon="3.84891">
        <ele>1097.7757568359</ele>
        <time>2020-10-16T08:52:17.744Z</time>
      </trkpt>
      <trkpt lat="44.68191" lon="3.84922">
        <ele>1094.0871582031</ele>
        <time>2020-10-16T08:52:19.134Z</time>
      </trkpt>
      <trkpt lat="44.68212" lon="3.84958">
        <ele>1091.9724121094</ele>
        <time>2020-10-16T08:52:20.530Z</time>
      </trkpt>
      <trkpt lat="44.68248" lon="3.8499">
        <ele>1090.0386962891</ele>
        <time>2020-10-16T08:52:21.935Z</time>
      </trkpt>
      <trkpt lat="44.68374" lon="3.85096">
        <ele>1085.3739013672</ele>
        <time>2020-10-16T08:52:23.369Z</time>
      </trkpt>
      <trkpt lat="44.68476" lon="3.85159">
        <ele>1082.0676269531</ele>
        <time>2020-10-16T08:52:24.825Z</time>
      </trkpt>
      <trkpt lat="44.68507" lon="3.85179">
        <ele>1080.5650634766</ele>
        <time>2020-10-16T08:52:26.288Z</time>
      </trkpt>
      <trkpt lat="44.68544" lon="3.85206">
        <ele>1079.2379150391</ele>
        <time>2020-10-16T08:52:27.760Z</time>
      </trkpt>
      <trkpt lat="44.6858" lon="3.85261">
        <ele>1081.5670166016</ele>
        <time>2020-10-16T08:52:29.242Z</time>
      </trkpt>
      <trkpt lat="44.68594" lon="3.85275">
        <ele>1081.3497314453</ele>
        <time>2020-10-16T08:52:30.728Z</time>
      </trkpt>
      <trkpt lat="44.68627" lon="3.85335">
        <ele>1082.8883056641</ele>
        <time>2020-10-16T08:52:32.224Z</time>
      </trkpt>
      <trkpt lat="44.68643" lon="3.85401">
        <ele>1083.912109375</ele>
        <time>2020-10-16T08:52:33.730Z</time>
      </trkpt>
      <trkpt lat="44.6865" lon="3.85464">
        <ele>1084.4583740234</ele>
        <time>2020-10-16T08:52:35.246Z</time>
      </trkpt>
      <trkpt lat="44.68644" lon="3.85507">
        <ele>1086.7578125</ele>
        <time>2020-10-16T08:52:36.768Z</time>
      </trkpt>
      <trkpt lat="44.68641" lon="3.85562">
        <ele>1087.2470703125</ele>
        <time>2020-10-16T08:52:38.298Z</time>
      </trkpt>
      <trkpt lat="44.6864" lon="3.85607">
        <ele>1085.8311767578</ele>
        <time>2020-10-16T08:52:39.834Z</time>
      </trkpt>
      <trkpt lat="44.68642" lon="3.8565">
        <ele>1084.775390625</ele>
        <time>2020-10-16T08:52:41.376Z</time>
      </trkpt>
      <trkpt lat="44.68654" lon="3.85716">
        <ele>1083.7548828125</ele>
        <time>2020-10-16T08:52:42.928Z</time>
      </trkpt>
      <trkpt lat="44.68659" lon="3.85737">
        <ele>1083.8934326172</ele>
        <time>2020-10-16T08:52:44.483Z</time>
      </trkpt>
      <trkpt lat="44.68663" lon="3.85751">
        <ele>1083.818359375</ele>
        <time>2020-10-16T08:52:46.040Z</time>
      </trkpt>
      <trkpt lat="44.68664" lon="3.85776">
        <ele>1084.3837890625</ele>
        <time>2020-10-16T08:52:47.601Z</time>
      </trkpt>
      <trkpt lat="44.68665" lon="3.85809">
        <ele>1085.8322753906</ele>
        <time>2020-10-16T08:52:49.167Z</time>
      </trkpt>
      <trkpt lat="44.68655" lon="3.85835">
        <ele>1086.8918457031</ele>
        <time>2020-10-16T08:52:50.737Z</time>
      </trkpt>
      <trkpt lat="44.68602" lon="3.8592">
        <ele>1088.6870117188</ele>
        <time>2020-10-16T08:52:52.323Z</time>
      </trkpt>
      <trkpt lat="44.68547" lon="3.86005">
        <ele>1089.4045410156</ele>
        <time>2020-10-16T08:52:53.925Z</time>
      </trkpt>
      <trkpt lat="44.68518" lon="3.86052">
        <ele>1088.3021240234</ele>
        <time>2020-10-16T08:52:55.536Z</time>
      </trkpt>
      <trkpt lat="44.68503" lon="3.86085">
        <ele>1086.5721435547</ele>
        <time>2020-10-16T08:52:57.153Z</time>
      </trkpt>
      <trkpt lat="44.68499" lon="3.86095">
        <ele>1085.5969238281</ele>
        <time>2020-10-16T08:52:58.771Z</time>
      </trkpt>
      <trkpt lat="44.68498" lon="3.86098">
        <ele>1085.3214111328</ele>
        <time>2020-10-16T08:53:00.390Z</time>
      </trkpt>
      <trkpt lat="44.68504" lon="3.86097">
        <ele>1085.0222167969</ele>
        <time>2020-10-16T08:53:02.010Z</time>
      </trkpt>
      <trkpt lat="44.68518" lon="3.86097">
        <ele>1084.2255859375</ele>
        <time>2020-10-16T08:53:03.633Z</time>
      </trkpt>
      <trkpt lat="44.68546" lon="3.86088">
        <ele>1083.0240478516</ele>
        <time>2020-10-16T08:53:05.261Z</time>
      </trkpt>
      <trkpt lat="44.68588" lon="3.86063">
        <ele>1082.30859375</ele>
        <time>2020-10-16T08:53:06.899Z</time>
      </trkpt>
      <trkpt lat="44.6865" lon="3.86034">
        <ele>1076.9685058594</ele>
        <time>2020-10-16T08:53:08.550Z</time>
      </trkpt>
      <trkpt lat="44.68668" lon="3.86039">
        <ele>1075.7496337891</ele>
        <time>2020-10-16T08:53:10.204Z</time>
      </trkpt>
      <trkpt lat="44.68685" lon="3.8604">
        <ele>1074.4022216797</ele>
        <time>2020-10-16T08:53:11.862Z</time>
      </trkpt>
      <trkpt lat="44.68713" lon="3.86032">
        <ele>1072.4844970703</ele>
        <time>2020-10-16T08:53:13.526Z</time>
      </trkpt>
      <trkpt lat="44.68729" lon="3.86025">
        <ele>1070.984375</ele>
        <time>2020-10-16T08:53:15.193Z</time>
      </trkpt>
      <trkpt lat="44.68751" lon="3.86014">
        <ele>1070.4295654297</ele>
        <time>2020-10-16T08:53:16.865Z</time>
      </trkpt>
      <trkpt lat="44.68772" lon="3.85991">
        <ele>1070.5831298828</ele>
        <time>2020-10-16T08:53:18.542Z</time>
      </trkpt>
      <trkpt lat="44.6878" lon="3.85989">
        <ele>1069.8953857422</ele>
        <time>2020-10-16T08:53:20.220Z</time>
      </trkpt>
      <trkpt lat="44.68843" lon="3.8597">
        <ele>1066.9870605469</ele>
        <time>2020-10-16T08:53:21.911Z</time>
      </trkpt>
      <trkpt lat="44.68896" lon="3.85969">
        <ele>1062.5925292969</ele>
        <time>2020-10-16T08:53:23.613Z</time>
      </trkpt>
      <trkpt lat="44.68912" lon="3.85966">
        <ele>1059.9248046875</ele>
        <time>2020-10-16T08:53:25.318Z</time>
      </trkpt>
      <trkpt lat="44.6901" lon="3.85915">
        <ele>1044.8776855469</ele>
        <time>2020-10-16T08:53:27.044Z</time>
      </trkpt>
      <trkpt lat="44.69054" lon="3.85886">
        <ele>1034.4096679688</ele>
        <time>2020-10-16T08:53:28.780Z</time>
      </trkpt>
      <trkpt lat="44.69083" lon="3.85877">
        <ele>1028.7368164062</ele>
        <time>2020-10-16T08:53:30.522Z</time>
      </trkpt>
      <trkpt lat="44.69163" lon="3.85929">
        <ele>1017.9281616211</ele>
        <time>2020-10-16T08:53:32.281Z</time>
      </trkpt>
      <trkpt lat="44.69199" lon="3.85936">
        <ele>1009.8350830078</ele>
        <time>2020-10-16T08:53:34.048Z</time>
      </trkpt>
      <trkpt lat="44.69211" lon="3.85945">
        <ele>1007.7001953125</ele>
        <time>2020-10-16T08:53:35.817Z</time>
      </trkpt>
      <trkpt lat="44.69226" lon="3.85966">
        <ele>1005.908996582</ele>
        <time>2020-10-16T08:53:37.591Z</time>
      </trkpt>
      <trkpt lat="44.69229" lon="3.85964">
        <ele>1004.6952514648</ele>
        <time>2020-10-16T08:53:39.365Z</time>
      </trkpt>
      <trkpt lat="44.69229" lon="3.85945">
        <ele>1004.0227050781</ele>
        <time>2020-10-16T08:53:41.142Z</time>
      </trkpt>
      <trkpt lat="44.6923" lon="3.85922">
        <ele>1001.6614379883</ele>
        <time>2020-10-16T08:53:42.922Z</time>
      </trkpt>
      <trkpt lat="44.69235" lon="3.85904">
        <ele>998.63177490234</ele>
        <time>2020-10-16T08:53:44.705Z</time>
      </trkpt>
      <trkpt lat="44.69245" lon="3.85893">
        <ele>996.11999511719</ele>
        <time>2020-10-16T08:53:46.491Z</time>
      </trkpt>
      <trkpt lat="44.69248" lon="3.85883">
        <ele>996.13690185547</ele>
        <time>2020-10-16T08:53:48.278Z</time>
      </trkpt>
      <trkpt lat="44.69259" lon="3.85853">
        <ele>996.31079101562</ele>
        <time>2020-10-16T08:53:50.070Z</time>
      </trkpt>
      <trkpt lat="44.69262" lon="3.85846">
        <ele>996.77941894531</ele>
        <time>2020-10-16T08:53:51.863Z</time>
      </trkpt>
      <trkpt lat="44.69265" lon="3.85841">
        <ele>997.00695800781</ele>
        <time>2020-10-16T08:53:53.657Z</time>
      </trkpt>
      <trkpt lat="44.6927" lon="3.85838">
        <ele>996.85522460938</ele>
        <time>2020-10-16T08:53:55.452Z</time>
      </trkpt>
      <trkpt lat="44.69274" lon="3.85836">
        <ele>996.38165283203</ele>
        <time>2020-10-16T08:53:57.248Z</time>
      </trkpt>
      <trkpt lat="44.69279" lon="3.85836">
        <ele>995.74963378906</ele>
        <time>2020-10-16T08:53:59.045Z</time>
      </trkpt>
      <trkpt lat="44.69283" lon="3.85838">
        <ele>995.1494140625</ele>
        <time>2020-10-16T08:54:00.843Z</time>
      </trkpt>
      <trkpt lat="44.69286" lon="3.85843">
        <ele>994.50250244141</ele>
        <time>2020-10-16T08:54:02.642Z</time>
      </trkpt>
      <trkpt lat="44.69289" lon="3.85851">
        <ele>994.54888916016</ele>
        <time>2020-10-16T08:54:04.442Z</time>
      </trkpt>
      <trkpt lat="44.69295" lon="3.85873">
        <ele>994.46203613281</ele>
        <time>2020-10-16T08:54:06.246Z</time>
      </trkpt>
      <trkpt lat="44.69301" lon="3.85899">
        <ele>994.51086425781</ele>
        <time>2020-10-16T08:54:08.053Z</time>
      </trkpt>
      <trkpt lat="44.69307" lon="3.85916">
        <ele>994.73095703125</ele>
        <time>2020-10-16T08:54:09.863Z</time>
      </trkpt>
      <trkpt lat="44.69312" lon="3.85923">
        <ele>995.11151123047</ele>
        <time>2020-10-16T08:54:11.674Z</time>
      </trkpt>
      <trkpt lat="44.6932" lon="3.85928">
        <ele>995.86041259766</ele>
        <time>2020-10-16T08:54:13.487Z</time>
      </trkpt>
      <trkpt lat="44.6933" lon="3.8593">
        <ele>996.90679931641</ele>
        <time>2020-10-16T08:54:15.302Z</time>
      </trkpt>
      <trkpt lat="44.6934" lon="3.85928">
        <ele>997.99633789062</ele>
        <time>2020-10-16T08:54:17.119Z</time>
      </trkpt>
      <trkpt lat="44.69349" lon="3.85924">
        <ele>999.05798339844</ele>
        <time>2020-10-16T08:54:18.938Z</time>
      </trkpt>
      <trkpt lat="44.69368" lon="3.85915">
        <ele>1001.8804321289</ele>
        <time>2020-10-16T08:54:20.761Z</time>
      </trkpt>
      <trkpt lat="44.69384" lon="3.85914">
        <ele>1003.4233398438</ele>
        <time>2020-10-16T08:54:22.588Z</time>
      </trkpt>
      <trkpt lat="44.69394" lon="3.85914">
        <ele>1004.2672119141</ele>
        <time>2020-10-16T08:54:24.417Z</time>
      </trkpt>
      <trkpt lat="44.69405" lon="3.85915">
        <ele>1005.1463012695</ele>
        <time>2020-10-16T08:54:26.248Z</time>
      </trkpt>
      <trkpt lat="44.69414" lon="3.85918">
        <ele>1005.7547607422</ele>
        <time>2020-10-16T08:54:28.081Z</time>
      </trkpt>
      <trkpt lat="44.69431" lon="3.85928">
        <ele>1006.6405029297</ele>
        <time>2020-10-16T08:54:29.917Z</time>
      </trkpt>
      <trkpt lat="44.69457" lon="3.8594">
        <ele>1008.2498168945</ele>
        <time>2020-10-16T08:54:31.759Z</time>
      </trkpt>
      <trkpt lat="44.69467" lon="3.85943">
        <ele>1008.922668457</ele>
        <time>2020-10-16T08:54:33.603Z</time>
      </trkpt>
      <trkpt lat="44.69486" lon="3.85945">
        <ele>1010.2265014648</ele>
        <time>2020-10-16T08:54:35.451Z</time>
      </trkpt>
      <trkpt lat="44.69532" lon="3.85954">
        <ele>1013.2872314453</ele>
        <time>2020-10-16T08:54:37.308Z</time>
      </trkpt>
      <trkpt lat="44.69587" lon="3.85965">
        <ele>1013.6972045898</ele>
        <time>2020-10-16T08:54:39.176Z</time>
      </trkpt>
      <trkpt lat="44.69624" lon="3.8597">
        <ele>1013.4340820312</ele>
        <time>2020-10-16T08:54:41.051Z</time>
      </trkpt>
      <trkpt lat="44.69645" lon="3.85972">
        <ele>1012.3887329102</ele>
        <time>2020-10-16T08:54:42.931Z</time>
      </trkpt>
      <trkpt lat="44.69672" lon="3.85967">
        <ele>1010.8874511719</ele>
        <time>2020-10-16T08:54:44.816Z</time>
      </trkpt>
      <trkpt lat="44.69691" lon="3.85958">
        <ele>1009.7327270508</ele>
        <time>2020-10-16T08:54:46.705Z</time>
      </trkpt>
      <trkpt lat="44.69718" lon="3.85941">
        <ele>1008.7116088867</ele>
        <time>2020-10-16T08:54:48.600Z</time>
      </trkpt>
      <trkpt lat="44.69765" lon="3.85907">
        <ele>1007.7635498047</ele>
        <time>2020-10-16T08:54:50.506Z</time>
      </trkpt>
      <trkpt lat="44.69809" lon="3.85881">
        <ele>1006.4682006836</ele>
        <time>2020-10-16T08:54:52.421Z</time>
      </trkpt>
      <trkpt lat="44.6984" lon="3.85863">
        <ele>1007.3818359375</ele>
        <time>2020-10-16T08:54:54.343Z</time>
      </trkpt>
      <trkpt lat="44.69847" lon="3.85859">
        <ele>1007.6147460938</ele>
        <time>2020-10-16T08:54:56.266Z</time>
      </trkpt>
      <trkpt lat="44.69896" lon="3.85833">
        <ele>1007.6317138672</ele>
        <time>2020-10-16T08:54:58.200Z</time>
      </trkpt>
      <trkpt lat="44.69922" lon="3.85818">
        <ele>1006.9768066406</ele>
        <time>2020-10-16T08:55:00.139Z</time>
      </trkpt>
      <trkpt lat="44.69959" lon="3.85805">
        <ele>1005.6167602539</ele>
        <time>2020-10-16T08:55:02.086Z</time>
      </trkpt>
      <trkpt lat="44.69989" lon="3.85797">
        <ele>1005.1369628906</ele>
        <time>2020-10-16T08:55:04.039Z</time>
      </trkpt>
      <trkpt lat="44.70031" lon="3.85788">
        <ele>1002.8612060547</ele>
        <time>2020-10-16T08:55:06.001Z</time>
      </trkpt>
      <trkpt lat="44.70063" lon="3.85782">
        <ele>1001.4837646484</ele>
        <time>2020-10-16T08:55:07.969Z</time>
      </trkpt>
      <trkpt lat="44.70096" lon="3.85776">
        <ele>1000.606628418</ele>
        <time>2020-10-16T08:55:09.944Z</time>
      </trkpt>
      <trkpt lat="44.70154" lon="3.85754">
        <ele>997.50854492188</ele>
        <time>2020-10-16T08:55:11.931Z</time>
      </trkpt>
      <trkpt lat="44.70183" lon="3.85744">
        <ele>995.61322021484</ele>
        <time>2020-10-16T08:55:13.924Z</time>
      </trkpt>
      <trkpt lat="44.70244" lon="3.85719">
        <ele>991.35321044922</ele>
        <time>2020-10-16T08:55:15.929Z</time>
      </trkpt>
      <trkpt lat="44.70262" lon="3.85712">
        <ele>989.85632324219</ele>
        <time>2020-10-16T08:55:17.938Z</time>
      </trkpt>
      <trkpt lat="44.70331" lon="3.85689">
        <ele>985.94091796875</ele>
        <time>2020-10-16T08:55:19.961Z</time>
      </trkpt>
      <trkpt lat="44.70356" lon="3.85681">
        <ele>985.24499511719</ele>
        <time>2020-10-16T08:55:21.990Z</time>
      </trkpt>
      <trkpt lat="44.7038" lon="3.85679">
        <ele>984.13763427734</ele>
        <time>2020-10-16T08:55:24.023Z</time>
      </trkpt>
      <trkpt lat="44.70412" lon="3.85675">
        <ele>981.80084228516</ele>
        <time>2020-10-16T08:55:26.063Z</time>
      </trkpt>
      <trkpt lat="44.70428" lon="3.85675">
        <ele>980.66754150391</ele>
        <time>2020-10-16T08:55:28.106Z</time>
      </trkpt>
      <trkpt lat="44.70454" lon="3.85677">
        <ele>979.22039794922</ele>
        <time>2020-10-16T08:55:30.154Z</time>
      </trkpt>
      <trkpt lat="44.70472" lon="3.85674">
        <ele>978.05694580078</ele>
        <time>2020-10-16T08:55:32.206Z</time>
      </trkpt>
      <trkpt lat="44.70497" lon="3.8567">
        <ele>976.35852050781</ele>
        <time>2020-10-16T08:55:34.263Z</time>
      </trkpt>
      <trkpt lat="44.7056" lon="3.85653">
        <ele>975.640625</ele>
        <time>2020-10-16T08:55:36.333Z</time>
      </trkpt>
      <trkpt lat="44.70571" lon="3.85649">
        <ele>975.93060302734</ele>
        <time>2020-10-16T08:55:38.405Z</time>
      </trkpt>
      <trkpt lat="44.70593" lon="3.85644">
        <ele>975.82690429688</ele>
        <time>2020-10-16T08:55:40.481Z</time>
      </trkpt>
      <trkpt lat="44.70606" lon="3.85645">
        <ele>975.4619140625</ele>
        <time>2020-10-16T08:55:42.560Z</time>
      </trkpt>
      <trkpt lat="44.70619" lon="3.85653">
        <ele>974.78295898438</ele>
        <time>2020-10-16T08:55:44.642Z</time>
      </trkpt>
      <trkpt lat="44.70638" lon="3.85668">
        <ele>974.89556884766</ele>
        <time>2020-10-16T08:55:46.728Z</time>
      </trkpt>
      <trkpt lat="44.70657" lon="3.85685">
        <ele>974.94982910156</ele>
        <time>2020-10-16T08:55:48.819Z</time>
      </trkpt>
      <trkpt lat="44.70664" lon="3.85684">
        <ele>975.33367919922</ele>
        <time>2020-10-16T08:55:50.911Z</time>
      </trkpt>
      <trkpt lat="44.70671" lon="3.85684">
        <ele>975.70336914062</ele>
        <time>2020-10-16T08:55:53.004Z</time>
      </trkpt>
      <trkpt lat="44.70681" lon="3.85684">
        <ele>976.14038085938</ele>
        <time>2020-10-16T08:55:55.099Z</time>
      </trkpt>
      <trkpt lat="44.70701" lon="3.85691">
        <ele>976.86065673828</ele>
        <time>2020-10-16T08:55:57.199Z</time>
      </trkpt>
      <trkpt lat="44.70718" lon="3.85694">
        <ele>977.47534179688</ele>
        <time>2020-10-16T08:55:59.302Z</time>
      </trkpt>
      <trkpt lat="44.70742" lon="3.85694">
        <ele>978.33538818359</ele>
        <time>2020-10-16T08:56:01.410Z</time>
      </trkpt>
      <trkpt lat="44.70763" lon="3.85692">
        <ele>979.11938476562</ele>
        <time>2020-10-16T08:56:03.522Z</time>
      </trkpt>
      <trkpt lat="44.70787" lon="3.85689">
        <ele>980.00714111328</ele>
        <time>2020-10-16T08:56:05.639Z</time>
      </trkpt>
      <trkpt lat="44.70812" lon="3.85682">
        <ele>978.95501708984</ele>
        <time>2020-10-16T08:56:07.761Z</time>
      </trkpt>
      <trkpt lat="44.70873" lon="3.85669">
        <ele>976.56616210938</ele>
        <time>2020-10-16T08:56:09.895Z</time>
      </trkpt>
      <trkpt lat="44.70929" lon="3.85655">
        <ele>973.61602783203</ele>
        <time>2020-10-16T08:56:12.041Z</time>
      </trkpt>
      <trkpt lat="44.7098" lon="3.85643">
        <ele>971.47814941406</ele>
        <time>2020-10-16T08:56:14.197Z</time>
      </trkpt>
      <trkpt lat="44.71002" lon="3.85639">
        <ele>971.41058349609</ele>
        <time>2020-10-16T08:56:16.357Z</time>
      </trkpt>
      <trkpt lat="44.71018" lon="3.85638">
        <ele>971.44677734375</ele>
        <time>2020-10-16T08:56:18.521Z</time>
      </trkpt>
      <trkpt lat="44.71048" lon="3.85638">
        <ele>971.59161376953</ele>
        <time>2020-10-16T08:56:20.691Z</time>
      </trkpt>
      <trkpt lat="44.71107" lon="3.85644">
        <ele>971.63458251953</ele>
        <time>2020-10-16T08:56:22.873Z</time>
      </trkpt>
      <trkpt lat="44.7115" lon="3.85649">
        <ele>971.80352783203</ele>
        <time>2020-10-16T08:56:25.063Z</time>
      </trkpt>
      <trkpt lat="44.7116" lon="3.85652">
        <ele>971.83197021484</ele>
        <time>2020-10-16T08:56:27.255Z</time>
      </trkpt>
      <trkpt lat="44.71187" lon="3.8566">
        <ele>971.71441650391</ele>
        <time>2020-10-16T08:56:29.453Z</time>
      </trkpt>
      <trkpt lat="44.71203" lon="3.85665">
        <ele>971.57873535156</ele>
        <time>2020-10-16T08:56:31.654Z</time>
      </trkpt>
      <trkpt lat="44.71212" lon="3.85667">
        <ele>971.22924804688</ele>
        <time>2020-10-16T08:56:33.857Z</time>
      </trkpt>
      <trkpt lat="44.71223" lon="3.85668">
        <ele>970.82525634766</ele>
        <time>2020-10-16T08:56:36.062Z</time>
      </trkpt>
      <trkpt lat="44.7125" lon="3.85665">
        <ele>969.92016601562</ele>
        <time>2020-10-16T08:56:38.272Z</time>
      </trkpt>
      <trkpt lat="44.71278" lon="3.85663">
        <ele>968.93231201172</ele>
        <time>2020-10-16T08:56:40.488Z</time>
      </trkpt>
      <trkpt lat="44.71333" lon="3.85661">
        <ele>965.91009521484</ele>
        <time>2020-10-16T08:56:42.715Z</time>
      </trkpt>
      <trkpt lat="44.7138" lon="3.85657">
        <ele>962.65649414062</ele>
        <time>2020-10-16T08:56:44.951Z</time>
      </trkpt>
      <trkpt lat="44.71389" lon="3.85657">
        <ele>962.32580566406</ele>
        <time>2020-10-16T08:56:47.189Z</time>
      </trkpt>
      <trkpt lat="44.714" lon="3.85656">
        <ele>961.9345703125</ele>
        <time>2020-10-16T08:56:49.429Z</time>
      </trkpt>
      <trkpt lat="44.71412" lon="3.85653">
        <ele>961.51306152344</ele>
        <time>2020-10-16T08:56:51.672Z</time>
      </trkpt>
      <trkpt lat="44.71435" lon="3.85647">
        <ele>961.52746582031</ele>
        <time>2020-10-16T08:56:53.920Z</time>
      </trkpt>
      <trkpt lat="44.71461" lon="3.8564">
        <ele>961.849609375</ele>
        <time>2020-10-16T08:56:56.173Z</time>
      </trkpt>
      <trkpt lat="44.71478" lon="3.85638">
        <ele>962.15447998047</ele>
        <time>2020-10-16T08:56:58.429Z</time>
      </trkpt>
      <trkpt lat="44.715" lon="3.85635">
        <ele>962.48937988281</ele>
        <time>2020-10-16T08:57:00.690Z</time>
      </trkpt>
      <trkpt lat="44.71536" lon="3.8563">
        <ele>963.1298828125</ele>
        <time>2020-10-16T08:57:02.958Z</time>
      </trkpt>
      <trkpt lat="44.71564" lon="3.85624">
        <ele>963.67321777344</ele>
        <time>2020-10-16T08:57:05.232Z</time>
      </trkpt>
      <trkpt lat="44.71595" lon="3.85617">
        <ele>963.29864501953</ele>
        <time>2020-10-16T08:57:07.512Z</time>
      </trkpt>
      <trkpt lat="44.71634" lon="3.85606">
        <ele>962.52124023438</ele>
        <time>2020-10-16T08:57:09.800Z</time>
      </trkpt>
      <trkpt lat="44.71639" lon="3.85603">
        <ele>962.37768554688</ele>
        <time>2020-10-16T08:57:12.089Z</time>
      </trkpt>
      <trkpt lat="44.71639" lon="3.85603">
        <ele>962.38470458984</ele>
        <time>2020-10-16T08:57:14.378Z</time>
      </trkpt>
      <trkpt lat="44.71647" lon="3.85602">
        <ele>962.15173339844</ele>
        <time>2020-10-16T08:57:16.669Z</time>
      </trkpt>
      <trkpt lat="44.71654" lon="3.856">
        <ele>961.92047119141</ele>
        <time>2020-10-16T08:57:18.961Z</time>
      </trkpt>
      <trkpt lat="44.71709" lon="3.85601">
        <ele>959.48559570312</ele>
        <time>2020-10-16T08:57:21.264Z</time>
      </trkpt>
      <trkpt lat="44.71874" lon="3.85615">
        <ele>950.91253662109</ele>
        <time>2020-10-16T08:57:23.600Z</time>
      </trkpt>
      <trkpt lat="44.7193" lon="3.85598">
        <ele>947.82879638672</ele>
        <time>2020-10-16T08:57:25.948Z</time>
      </trkpt>
      <trkpt lat="44.7193" lon="3.85598">
        <ele>947.82836914062</ele>
        <time>2020-10-16T08:57:28.296Z</time>
      </trkpt>
      <trkpt lat="44.71999" lon="3.8558">
        <ele>943.06793212891</ele>
        <time>2020-10-16T08:57:30.658Z</time>
      </trkpt>
      <trkpt lat="44.72075" lon="3.85587">
        <ele>941.54223632812</ele>
        <time>2020-10-16T08:57:33.035Z</time>
      </trkpt>
      <trkpt lat="44.72144" lon="3.8556">
        <ele>938.12139892578</ele>
        <time>2020-10-16T08:57:35.426Z</time>
      </trkpt>
      <trkpt lat="44.7219" lon="3.85553">
        <ele>935.86047363281</ele>
        <time>2020-10-16T08:57:37.826Z</time>
      </trkpt>
      <trkpt lat="44.72202" lon="3.8555">
        <ele>935.41021728516</ele>
        <time>2020-10-16T08:57:40.229Z</time>
      </trkpt>
      <trkpt lat="44.72202" lon="3.8555">
        <ele>935.40991210938</ele>
        <time>2020-10-16T08:57:42.632Z</time>
      </trkpt>
      <trkpt lat="44.72223" lon="3.8555">
        <ele>933.24670410156</ele>
        <time>2020-10-16T08:57:45.039Z</time>
      </trkpt>
      <trkpt lat="44.72249" lon="3.85564">
        <ele>930.59356689453</ele>
        <time>2020-10-16T08:57:47.452Z</time>
      </trkpt>
      <trkpt lat="44.72301" lon="3.85628">
        <ele>927.78076171875</ele>
        <time>2020-10-16T08:57:49.878Z</time>
      </trkpt>
      <trkpt lat="44.72306" lon="3.85627">
        <ele>927.7421875</ele>
        <time>2020-10-16T08:57:52.305Z</time>
      </trkpt>
      <trkpt lat="44.72331" lon="3.85622">
        <ele>925.23516845703</ele>
        <time>2020-10-16T08:57:54.737Z</time>
      </trkpt>
      <trkpt lat="44.72316" lon="3.85575">
        <ele>923.79595947266</ele>
        <time>2020-10-16T08:57:57.177Z</time>
      </trkpt>
      <trkpt lat="44.72278" lon="3.85529">
        <ele>926.26745605469</ele>
        <time>2020-10-16T08:57:59.627Z</time>
      </trkpt>
      <trkpt lat="44.72272" lon="3.85497">
        <ele>926.18157958984</ele>
        <time>2020-10-16T08:58:02.082Z</time>
      </trkpt>
      <trkpt lat="44.72271" lon="3.8542">
        <ele>922.84338378906</ele>
        <time>2020-10-16T08:58:04.548Z</time>
      </trkpt>
      <trkpt lat="44.72277" lon="3.85381">
        <ele>919.29058837891</ele>
        <time>2020-10-16T08:58:07.019Z</time>
      </trkpt>
      <trkpt lat="44.72289" lon="3.85363">
        <ele>916.31378173828</ele>
        <time>2020-10-16T08:58:09.494Z</time>
      </trkpt>
      <trkpt lat="44.72305" lon="3.85358">
        <ele>915.34020996094</ele>
        <time>2020-10-16T08:58:11.972Z</time>
      </trkpt>
      <trkpt lat="44.72319" lon="3.85363">
        <ele>914.78674316406</ele>
        <time>2020-10-16T08:58:14.453Z</time>
      </trkpt>
      <trkpt lat="44.72357" lon="3.85407">
        <ele>912.86785888672</ele>
        <time>2020-10-16T08:58:16.944Z</time>
      </trkpt>
    </trkseg>
  </trk>
  <trk>
    <name><![CDATA[ESI0237 - CIRCUIT DES HUTTES]]></name>
    <extensions>
      <line xmlns="http://www.topografix.com/GPX/gpx_style/0/2">
        <color>fd214d</color>
        <width>4</width>
      </line>
    </extensions>
    <trkseg>
      <trkpt lat="44.72356" lon="3.85411">
        <ele>912.86871337891</ele>
        <time>2020-10-16T09:11:11.000Z</time>
      </trkpt>
      <trkpt lat="44.72357" lon="3.85407">
        <ele>912.86871337891</ele>
        <time>2020-10-16T09:11:11.001Z</time>
      </trkpt>
      <trkpt lat="44.72319" lon="3.85363">
        <ele>914.78674316406</ele>
        <time>2020-10-16T09:11:11.012Z</time>
      </trkpt>
      <trkpt lat="44.72305" lon="3.85358">
        <ele>915.34020996094</ele>
        <time>2020-10-16T09:11:11.025Z</time>
      </trkpt>
      <trkpt lat="44.72289" lon="3.85363">
        <ele>916.31378173828</ele>
        <time>2020-10-16T09:11:11.042Z</time>
      </trkpt>
      <trkpt lat="44.72277" lon="3.85381">
        <ele>919.29058837891</ele>
        <time>2020-10-16T09:11:11.062Z</time>
      </trkpt>
      <trkpt lat="44.72271" lon="3.8542">
        <ele>922.84338378906</ele>
        <time>2020-10-16T09:11:11.088Z</time>
      </trkpt>
      <trkpt lat="44.72272" lon="3.85497">
        <ele>926.18157958984</ele>
        <time>2020-10-16T09:11:11.125Z</time>
      </trkpt>
      <trkpt lat="44.72278" lon="3.85529">
        <ele>926.26745605469</ele>
        <time>2020-10-16T09:11:11.167Z</time>
      </trkpt>
      <trkpt lat="44.72316" lon="3.85575">
        <ele>923.79595947266</ele>
        <time>2020-10-16T09:11:11.219Z</time>
      </trkpt>
      <trkpt lat="44.72331" lon="3.85622">
        <ele>925.23443603516</ele>
        <time>2020-10-16T09:11:11.278Z</time>
      </trkpt>
      <trkpt lat="44.72306" lon="3.85627">
        <ele>927.7421875</ele>
        <time>2020-10-16T09:11:11.342Z</time>
      </trkpt>
      <trkpt lat="44.72301" lon="3.85628">
        <ele>927.78076171875</ele>
        <time>2020-10-16T09:11:11.407Z</time>
      </trkpt>
      <trkpt lat="44.72249" lon="3.85564">
        <ele>930.59356689453</ele>
        <time>2020-10-16T09:11:11.486Z</time>
      </trkpt>
      <trkpt lat="44.72223" lon="3.8555">
        <ele>933.24670410156</ele>
        <time>2020-10-16T09:11:11.571Z</time>
      </trkpt>
      <trkpt lat="44.72202" lon="3.8555">
        <ele>935.41021728516</ele>
        <time>2020-10-16T09:11:11.660Z</time>
      </trkpt>
      <trkpt lat="44.72198" lon="3.85546">
        <ele>935.49328613281</ele>
        <time>2020-10-16T09:11:11.750Z</time>
      </trkpt>
      <trkpt lat="44.72199" lon="3.85545">
        <ele>935.44635009766</ele>
        <time>2020-10-16T09:11:11.840Z</time>
      </trkpt>
      <trkpt lat="44.72193" lon="3.8554">
        <ele>935.60504150391</ele>
        <time>2020-10-16T09:11:11.931Z</time>
      </trkpt>
      <trkpt lat="44.72182" lon="3.85526">
        <ele>935.82427978516</ele>
        <time>2020-10-16T09:11:12.025Z</time>
      </trkpt>
      <trkpt lat="44.72164" lon="3.85508">
        <ele>935.91522216797</ele>
        <time>2020-10-16T09:11:12.124Z</time>
      </trkpt>
      <trkpt lat="44.72152" lon="3.85498">
        <ele>935.98229980469</ele>
        <time>2020-10-16T09:11:12.226Z</time>
      </trkpt>
      <trkpt lat="44.72131" lon="3.85482">
        <ele>936.16052246094</ele>
        <time>2020-10-16T09:11:12.333Z</time>
      </trkpt>
      <trkpt lat="44.72122" lon="3.85466">
        <ele>935.90100097656</ele>
        <time>2020-10-16T09:11:12.442Z</time>
      </trkpt>
      <trkpt lat="44.72109" lon="3.85445">
        <ele>934.9306640625</ele>
        <time>2020-10-16T09:11:12.555Z</time>
      </trkpt>
      <trkpt lat="44.72097" lon="3.85427">
        <ele>934.13439941406</ele>
        <time>2020-10-16T09:11:12.672Z</time>
      </trkpt>
      <trkpt lat="44.72081" lon="3.85408">
        <ele>933.28936767578</ele>
        <time>2020-10-16T09:11:12.793Z</time>
      </trkpt>
      <trkpt lat="44.7207" lon="3.854">
        <ele>932.84057617188</ele>
        <time>2020-10-16T09:11:12.917Z</time>
      </trkpt>
      <trkpt lat="44.72054" lon="3.85391">
        <ele>932.23413085938</ele>
        <time>2020-10-16T09:11:13.044Z</time>
      </trkpt>
      <trkpt lat="44.7203" lon="3.85374">
        <ele>931.92236328125</ele>
        <time>2020-10-16T09:11:13.176Z</time>
      </trkpt>
      <trkpt lat="44.72007" lon="3.85364">
        <ele>933.36431884766</ele>
        <time>2020-10-16T09:11:13.313Z</time>
      </trkpt>
      <trkpt lat="44.71988" lon="3.85355">
        <ele>934.53216552734</ele>
        <time>2020-10-16T09:11:13.454Z</time>
      </trkpt>
      <trkpt lat="44.71978" lon="3.85354">
        <ele>935.31146240234</ele>
        <time>2020-10-16T09:11:13.597Z</time>
      </trkpt>
      <trkpt lat="44.71961" lon="3.85353">
        <ele>936.53479003906</ele>
        <time>2020-10-16T09:11:13.744Z</time>
      </trkpt>
      <trkpt lat="44.71943" lon="3.85351">
        <ele>937.84967041016</ele>
        <time>2020-10-16T09:11:13.894Z</time>
      </trkpt>
      <trkpt lat="44.71926" lon="3.85352">
        <ele>939.23968505859</ele>
        <time>2020-10-16T09:11:14.047Z</time>
      </trkpt>
      <trkpt lat="44.71903" lon="3.85353">
        <ele>941.23486328125</ele>
        <time>2020-10-16T09:11:14.205Z</time>
      </trkpt>
      <trkpt lat="44.71895" lon="3.85349">
        <ele>941.87286376953</ele>
        <time>2020-10-16T09:11:14.365Z</time>
      </trkpt>
      <trkpt lat="44.71884" lon="3.85338">
        <ele>942.60809326172</ele>
        <time>2020-10-16T09:11:14.527Z</time>
      </trkpt>
      <trkpt lat="44.71868" lon="3.8532">
        <ele>943.75677490234</ele>
        <time>2020-10-16T09:11:14.694Z</time>
      </trkpt>
      <trkpt lat="44.71854" lon="3.85312">
        <ele>945.02374267578</ele>
        <time>2020-10-16T09:11:14.864Z</time>
      </trkpt>
      <trkpt lat="44.71842" lon="3.85311">
        <ele>946.18115234375</ele>
        <time>2020-10-16T09:11:15.036Z</time>
      </trkpt>
      <trkpt lat="44.7182" lon="3.85314">
        <ele>948.11016845703</ele>
        <time>2020-10-16T09:11:15.212Z</time>
      </trkpt>
      <trkpt lat="44.71807" lon="3.85312">
        <ele>949.0556640625</ele>
        <time>2020-10-16T09:11:15.391Z</time>
      </trkpt>
      <trkpt lat="44.71793" lon="3.85311">
        <ele>950.09851074219</ele>
        <time>2020-10-16T09:11:15.573Z</time>
      </trkpt>
      <trkpt lat="44.71778" lon="3.85307">
        <ele>951.25317382812</ele>
        <time>2020-10-16T09:11:15.758Z</time>
      </trkpt>
      <trkpt lat="44.71763" lon="3.85305">
        <ele>952.35333251953</ele>
        <time>2020-10-16T09:11:15.946Z</time>
      </trkpt>
      <trkpt lat="44.71747" lon="3.85304">
        <ele>953.53656005859</ele>
        <time>2020-10-16T09:11:16.137Z</time>
      </trkpt>
      <trkpt lat="44.71725" lon="3.85305">
        <ele>955.34210205078</ele>
        <time>2020-10-16T09:11:16.333Z</time>
      </trkpt>
      <trkpt lat="44.71719" lon="3.85307">
        <ele>955.95861816406</ele>
        <time>2020-10-16T09:11:16.530Z</time>
      </trkpt>
      <trkpt lat="44.71707" lon="3.8531">
        <ele>957.13732910156</ele>
        <time>2020-10-16T09:11:16.729Z</time>
      </trkpt>
      <trkpt lat="44.71685" lon="3.8532">
        <ele>959.84692382812</ele>
        <time>2020-10-16T09:11:16.933Z</time>
      </trkpt>
      <trkpt lat="44.71641" lon="3.85348">
        <ele>964.07641601562</ele>
        <time>2020-10-16T09:11:17.147Z</time>
      </trkpt>
      <trkpt lat="44.71625" lon="3.85357">
        <ele>965.486328125</ele>
        <time>2020-10-16T09:11:17.364Z</time>
      </trkpt>
      <trkpt lat="44.7161" lon="3.85361">
        <ele>966.65472412109</ele>
        <time>2020-10-16T09:11:17.584Z</time>
      </trkpt>
      <trkpt lat="44.71597" lon="3.85363">
        <ele>967.52099609375</ele>
        <time>2020-10-16T09:11:17.807Z</time>
      </trkpt>
      <trkpt lat="44.71589" lon="3.85362">
        <ele>968.07958984375</ele>
        <time>2020-10-16T09:11:18.031Z</time>
      </trkpt>
      <trkpt lat="44.71559" lon="3.85359">
        <ele>970.365234375</ele>
        <time>2020-10-16T09:11:18.261Z</time>
      </trkpt>
      <trkpt lat="44.71543" lon="3.85359">
        <ele>971.49328613281</ele>
        <time>2020-10-16T09:11:18.494Z</time>
      </trkpt>
      <trkpt lat="44.71536" lon="3.8536">
        <ele>971.87927246094</ele>
        <time>2020-10-16T09:11:18.729Z</time>
      </trkpt>
      <trkpt lat="44.71533" lon="3.8536">
        <ele>971.91027832031</ele>
        <time>2020-10-16T09:11:18.965Z</time>
      </trkpt>
      <trkpt lat="44.71514" lon="3.85364">
        <ele>971.99273681641</ele>
        <time>2020-10-16T09:11:19.204Z</time>
      </trkpt>
      <trkpt lat="44.71514" lon="3.85364">
        <ele>971.99304199219</ele>
        <time>2020-10-16T09:11:19.443Z</time>
      </trkpt>
      <trkpt lat="44.71504" lon="3.85367">
        <ele>972.00604248047</ele>
        <time>2020-10-16T09:11:19.684Z</time>
      </trkpt>
      <trkpt lat="44.71487" lon="3.85341">
        <ele>973.15881347656</ele>
        <time>2020-10-16T09:11:19.930Z</time>
      </trkpt>
      <trkpt lat="44.71474" lon="3.85323">
        <ele>973.94360351562</ele>
        <time>2020-10-16T09:11:20.180Z</time>
      </trkpt>
      <trkpt lat="44.71464" lon="3.85312">
        <ele>974.46740722656</ele>
        <time>2020-10-16T09:11:20.433Z</time>
      </trkpt>
      <trkpt lat="44.71441" lon="3.85293">
        <ele>975.89331054688</ele>
        <time>2020-10-16T09:11:20.691Z</time>
      </trkpt>
      <trkpt lat="44.71405" lon="3.85264">
        <ele>978.87628173828</ele>
        <time>2020-10-16T09:11:20.957Z</time>
      </trkpt>
      <trkpt lat="44.71361" lon="3.85226">
        <ele>982.79565429688</ele>
        <time>2020-10-16T09:11:21.234Z</time>
      </trkpt>
      <trkpt lat="44.71348" lon="3.85215">
        <ele>983.43646240234</ele>
        <time>2020-10-16T09:11:21.514Z</time>
      </trkpt>
      <trkpt lat="44.71307" lon="3.85182">
        <ele>985.4521484375</ele>
        <time>2020-10-16T09:11:21.803Z</time>
      </trkpt>
      <trkpt lat="44.71286" lon="3.85163">
        <ele>986.537109375</ele>
        <time>2020-10-16T09:11:22.097Z</time>
      </trkpt>
      <trkpt lat="44.71271" lon="3.85146">
        <ele>986.84985351562</ele>
        <time>2020-10-16T09:11:22.395Z</time>
      </trkpt>
      <trkpt lat="44.71257" lon="3.85122">
        <ele>987.59814453125</ele>
        <time>2020-10-16T09:11:22.697Z</time>
      </trkpt>
      <trkpt lat="44.71229" lon="3.85066">
        <ele>990.07537841797</ele>
        <time>2020-10-16T09:11:23.009Z</time>
      </trkpt>
      <trkpt lat="44.71212" lon="3.85036">
        <ele>991.47381591797</ele>
        <time>2020-10-16T09:11:23.327Z</time>
      </trkpt>
      <trkpt lat="44.71195" lon="3.8501">
        <ele>993.60821533203</ele>
        <time>2020-10-16T09:11:23.650Z</time>
      </trkpt>
      <trkpt lat="44.71182" lon="3.84991">
        <ele>995.99310302734</ele>
        <time>2020-10-16T09:11:23.976Z</time>
      </trkpt>
      <trkpt lat="44.71169" lon="3.84977">
        <ele>998.05084228516</ele>
        <time>2020-10-16T09:11:24.306Z</time>
      </trkpt>
      <trkpt lat="44.71157" lon="3.84967">
        <ele>999.77081298828</ele>
        <time>2020-10-16T09:11:24.638Z</time>
      </trkpt>
      <trkpt lat="44.71144" lon="3.84963">
        <ele>1001.3049926758</ele>
        <time>2020-10-16T09:11:24.973Z</time>
      </trkpt>
      <trkpt lat="44.71072" lon="3.84958">
        <ele>1007.6740722656</ele>
        <time>2020-10-16T09:11:25.323Z</time>
      </trkpt>
      <trkpt lat="44.71054" lon="3.84952">
        <ele>1009.6553955078</ele>
        <time>2020-10-16T09:11:25.676Z</time>
      </trkpt>
      <trkpt lat="44.71038" lon="3.84945">
        <ele>1011.3884277344</ele>
        <time>2020-10-16T09:11:26.033Z</time>
      </trkpt>
      <trkpt lat="44.71018" lon="3.84941">
        <ele>1012.4759521484</ele>
        <time>2020-10-16T09:11:26.394Z</time>
      </trkpt>
      <trkpt lat="44.70996" lon="3.84942">
        <ele>1013.1775512695</ele>
        <time>2020-10-16T09:11:26.759Z</time>
      </trkpt>
      <trkpt lat="44.70979" lon="3.84942">
        <ele>1013.876159668</ele>
        <time>2020-10-16T09:11:27.128Z</time>
      </trkpt>
      <trkpt lat="44.70958" lon="3.84938">
        <ele>1014.8801269531</ele>
        <time>2020-10-16T09:11:27.501Z</time>
      </trkpt>
      <trkpt lat="44.70928" lon="3.84931">
        <ele>1015.935546875</ele>
        <time>2020-10-16T09:11:27.880Z</time>
      </trkpt>
      <trkpt lat="44.7091" lon="3.84925">
        <ele>1016.5719604492</ele>
        <time>2020-10-16T09:11:28.262Z</time>
      </trkpt>
      <trkpt lat="44.70884" lon="3.84913">
        <ele>1017.5048828125</ele>
        <time>2020-10-16T09:11:28.650Z</time>
      </trkpt>
      <trkpt lat="44.70836" lon="3.84887">
        <ele>1019.2211303711</ele>
        <time>2020-10-16T09:11:29.048Z</time>
      </trkpt>
      <trkpt lat="44.70806" lon="3.84872">
        <ele>1020.323059082</ele>
        <time>2020-10-16T09:11:29.453Z</time>
      </trkpt>
      <trkpt lat="44.70793" lon="3.84866">
        <ele>1020.7415161133</ele>
        <time>2020-10-16T09:11:29.860Z</time>
      </trkpt>
      <trkpt lat="44.70783" lon="3.84858">
        <ele>1020.8765258789</ele>
        <time>2020-10-16T09:11:30.270Z</time>
      </trkpt>
      <trkpt lat="44.70778" lon="3.84851">
        <ele>1021.1684570312</ele>
        <time>2020-10-16T09:11:30.681Z</time>
      </trkpt>
      <trkpt lat="44.70771" lon="3.84846">
        <ele>1021.4108886719</ele>
        <time>2020-10-16T09:11:31.094Z</time>
      </trkpt>
      <trkpt lat="44.70758" lon="3.84842">
        <ele>1021.4662475586</ele>
        <time>2020-10-16T09:11:31.509Z</time>
      </trkpt>
      <trkpt lat="44.70703" lon="3.84823">
        <ele>1021.7304077148</ele>
        <time>2020-10-16T09:11:31.936Z</time>
      </trkpt>
      <trkpt lat="44.70683" lon="3.84811">
        <ele>1022.2338256836</ele>
        <time>2020-10-16T09:11:32.367Z</time>
      </trkpt>
      <trkpt lat="44.70646" lon="3.84788">
        <ele>1023.3257446289</ele>
        <time>2020-10-16T09:11:32.806Z</time>
      </trkpt>
      <trkpt lat="44.70616" lon="3.8477">
        <ele>1023.9762573242</ele>
        <time>2020-10-16T09:11:33.252Z</time>
      </trkpt>
      <trkpt lat="44.70567" lon="3.84746">
        <ele>1023.6926879883</ele>
        <time>2020-10-16T09:11:33.708Z</time>
      </trkpt>
      <trkpt lat="44.70548" lon="3.8474">
        <ele>1023.4531860352</ele>
        <time>2020-10-16T09:11:34.168Z</time>
      </trkpt>
      <trkpt lat="44.70534" lon="3.84739">
        <ele>1022.8668212891</ele>
        <time>2020-10-16T09:11:34.631Z</time>
      </trkpt>
      <trkpt lat="44.70508" lon="3.84742">
        <ele>1019.9776000977</ele>
        <time>2020-10-16T09:11:35.099Z</time>
      </trkpt>
      <trkpt lat="44.70489" lon="3.84745">
        <ele>1019.7651367188</ele>
        <time>2020-10-16T09:11:35.571Z</time>
      </trkpt>
      <trkpt lat="44.70467" lon="3.8475">
        <ele>1019.829284668</ele>
        <time>2020-10-16T09:11:36.047Z</time>
      </trkpt>
      <trkpt lat="44.70438" lon="3.84759">
        <ele>1019.3362426758</ele>
        <time>2020-10-16T09:11:36.529Z</time>
      </trkpt>
      <trkpt lat="44.70424" lon="3.84764">
        <ele>1019.2125244141</ele>
        <time>2020-10-16T09:11:37.014Z</time>
      </trkpt>
      <trkpt lat="44.70407" lon="3.84768">
        <ele>1018.9418334961</ele>
        <time>2020-10-16T09:11:37.502Z</time>
      </trkpt>
      <trkpt lat="44.7039" lon="3.84771">
        <ele>1018.5821533203</ele>
        <time>2020-10-16T09:11:37.994Z</time>
      </trkpt>
      <trkpt lat="44.70345" lon="3.84775">
        <ele>1017.9729614258</ele>
        <time>2020-10-16T09:11:38.495Z</time>
      </trkpt>
      <trkpt lat="44.70289" lon="3.84779">
        <ele>1018.0180053711</ele>
        <time>2020-10-16T09:11:39.007Z</time>
      </trkpt>
      <trkpt lat="44.70262" lon="3.84784">
        <ele>1019.6409301758</ele>
        <time>2020-10-16T09:11:39.525Z</time>
      </trkpt>
      <trkpt lat="44.70234" lon="3.84788">
        <ele>1021.3457641602</ele>
        <time>2020-10-16T09:11:40.048Z</time>
      </trkpt>
      <trkpt lat="44.7019" lon="3.84794">
        <ele>1023.0939941406</ele>
        <time>2020-10-16T09:11:40.580Z</time>
      </trkpt>
      <trkpt lat="44.70146" lon="3.84797">
        <ele>1022.6087036133</ele>
        <time>2020-10-16T09:11:41.121Z</time>
      </trkpt>
      <trkpt lat="44.70131" lon="3.84796">
        <ele>1022.259765625</ele>
        <time>2020-10-16T09:11:41.665Z</time>
      </trkpt>
      <trkpt lat="44.70022" lon="3.84768">
        <ele>1019.6616210938</ele>
        <time>2020-10-16T09:11:42.231Z</time>
      </trkpt>
      <trkpt lat="44.70003" lon="3.84766">
        <ele>1019.5396118164</ele>
        <time>2020-10-16T09:11:42.801Z</time>
      </trkpt>
      <trkpt lat="44.69961" lon="3.84764">
        <ele>1019.4225463867</ele>
        <time>2020-10-16T09:11:43.379Z</time>
      </trkpt>
      <trkpt lat="44.69875" lon="3.84761">
        <ele>1024.26953125</ele>
        <time>2020-10-16T09:11:43.974Z</time>
      </trkpt>
      <trkpt lat="44.69878" lon="3.84747">
        <ele>1023.5989990234</ele>
        <time>2020-10-16T09:11:44.571Z</time>
      </trkpt>
      <trkpt lat="44.69879" lon="3.84732">
        <ele>1023.0002441406</ele>
        <time>2020-10-16T09:11:45.171Z</time>
      </trkpt>
      <trkpt lat="44.69879" lon="3.84709">
        <ele>1022.16015625</ele>
        <time>2020-10-16T09:11:45.774Z</time>
      </trkpt>
      <trkpt lat="44.69878" lon="3.84677">
        <ele>1020.6262817383</ele>
        <time>2020-10-16T09:11:46.381Z</time>
      </trkpt>
      <trkpt lat="44.69876" lon="3.8465">
        <ele>1019.6038818359</ele>
        <time>2020-10-16T09:11:46.992Z</time>
      </trkpt>
      <trkpt lat="44.69871" lon="3.84625">
        <ele>1018.8473510742</ele>
        <time>2020-10-16T09:11:47.607Z</time>
      </trkpt>
      <trkpt lat="44.69866" lon="3.84607">
        <ele>1018.8659057617</ele>
        <time>2020-10-16T09:11:48.225Z</time>
      </trkpt>
      <trkpt lat="44.69862" lon="3.84586">
        <ele>1019.0927734375</ele>
        <time>2020-10-16T09:11:48.846Z</time>
      </trkpt>
      <trkpt lat="44.69866" lon="3.84564">
        <ele>1018.5950927734</ele>
        <time>2020-10-16T09:11:49.470Z</time>
      </trkpt>
      <trkpt lat="44.69882" lon="3.8452">
        <ele>1016.2982788086</ele>
        <time>2020-10-16T09:11:50.101Z</time>
      </trkpt>
      <trkpt lat="44.69891" lon="3.84497">
        <ele>1016.5848999023</ele>
        <time>2020-10-16T09:11:50.736Z</time>
      </trkpt>
      <trkpt lat="44.69894" lon="3.84485">
        <ele>1016.977355957</ele>
        <time>2020-10-16T09:11:51.373Z</time>
      </trkpt>
      <trkpt lat="44.69896" lon="3.84472">
        <ele>1017.6040649414</ele>
        <time>2020-10-16T09:11:52.012Z</time>
      </trkpt>
      <trkpt lat="44.699" lon="3.84446">
        <ele>1019.153503418</ele>
        <time>2020-10-16T09:11:52.654Z</time>
      </trkpt>
      <trkpt lat="44.69902" lon="3.84436">
        <ele>1019.5204467773</ele>
        <time>2020-10-16T09:11:53.298Z</time>
      </trkpt>
      <trkpt lat="44.6991" lon="3.84416">
        <ele>1019.3466186523</ele>
        <time>2020-10-16T09:11:53.945Z</time>
      </trkpt>
      <trkpt lat="44.69918" lon="3.84397">
        <ele>1019.1341552734</ele>
        <time>2020-10-16T09:11:54.595Z</time>
      </trkpt>
      <trkpt lat="44.69927" lon="3.84378">
        <ele>1019.151550293</ele>
        <time>2020-10-16T09:11:55.249Z</time>
      </trkpt>
      <trkpt lat="44.69934" lon="3.84359">
        <ele>1019.3822021484</ele>
        <time>2020-10-16T09:11:55.906Z</time>
      </trkpt>
      <trkpt lat="44.69939" lon="3.84332">
        <ele>1018.8707275391</ele>
        <time>2020-10-16T09:11:56.567Z</time>
      </trkpt>
      <trkpt lat="44.69945" lon="3.84309">
        <ele>1019.3161621094</ele>
        <time>2020-10-16T09:11:57.231Z</time>
      </trkpt>
      <trkpt lat="44.69945" lon="3.84293">
        <ele>1019.8560791016</ele>
        <time>2020-10-16T09:11:57.897Z</time>
      </trkpt>
      <trkpt lat="44.69942" lon="3.84275">
        <ele>1020.7135620117</ele>
        <time>2020-10-16T09:11:58.566Z</time>
      </trkpt>
      <trkpt lat="44.69938" lon="3.84251">
        <ele>1020.0584716797</ele>
        <time>2020-10-16T09:11:59.238Z</time>
      </trkpt>
      <trkpt lat="44.69936" lon="3.84234">
        <ele>1019.7116699219</ele>
        <time>2020-10-16T09:11:59.913Z</time>
      </trkpt>
      <trkpt lat="44.69936" lon="3.84217">
        <ele>1019.2970581055</ele>
        <time>2020-10-16T09:12:00.590Z</time>
      </trkpt>
      <trkpt lat="44.69938" lon="3.84201">
        <ele>1018.823425293</ele>
        <time>2020-10-16T09:12:01.270Z</time>
      </trkpt>
      <trkpt lat="44.69943" lon="3.84185">
        <ele>1017.8571777344</ele>
        <time>2020-10-16T09:12:01.952Z</time>
      </trkpt>
      <trkpt lat="44.69951" lon="3.84171">
        <ele>1016.7939453125</ele>
        <time>2020-10-16T09:12:02.637Z</time>
      </trkpt>
      <trkpt lat="44.69956" lon="3.84163">
        <ele>1016.2537231445</ele>
        <time>2020-10-16T09:12:03.323Z</time>
      </trkpt>
      <trkpt lat="44.69964" lon="3.84156">
        <ele>1015.346862793</ele>
        <time>2020-10-16T09:12:04.011Z</time>
      </trkpt>
      <trkpt lat="44.69962" lon="3.84137">
        <ele>1014.4071655273</ele>
        <time>2020-10-16T09:12:04.702Z</time>
      </trkpt>
      <trkpt lat="44.69956" lon="3.84124">
        <ele>1013.9206542969</ele>
        <time>2020-10-16T09:12:05.395Z</time>
      </trkpt>
      <trkpt lat="44.69947" lon="3.84107">
        <ele>1012.8631591797</ele>
        <time>2020-10-16T09:12:06.091Z</time>
      </trkpt>
      <trkpt lat="44.69939" lon="3.8409">
        <ele>1010.8395385742</ele>
        <time>2020-10-16T09:12:06.790Z</time>
      </trkpt>
      <trkpt lat="44.69928" lon="3.84073">
        <ele>1008.9356689453</ele>
        <time>2020-10-16T09:12:07.492Z</time>
      </trkpt>
      <trkpt lat="44.6992" lon="3.84069">
        <ele>1008.0407714844</ele>
        <time>2020-10-16T09:12:08.196Z</time>
      </trkpt>
      <trkpt lat="44.69901" lon="3.84065">
        <ele>1006.7416381836</ele>
        <time>2020-10-16T09:12:08.904Z</time>
      </trkpt>
      <trkpt lat="44.69888" lon="3.84065">
        <ele>1006.2151489258</ele>
        <time>2020-10-16T09:12:09.614Z</time>
      </trkpt>
      <trkpt lat="44.69876" lon="3.84064">
        <ele>1005.688659668</ele>
        <time>2020-10-16T09:12:10.327Z</time>
      </trkpt>
      <trkpt lat="44.69858" lon="3.84055">
        <ele>1004.9650268555</ele>
        <time>2020-10-16T09:12:11.044Z</time>
      </trkpt>
      <trkpt lat="44.69843" lon="3.84043">
        <ele>1004.1567993164</ele>
        <time>2020-10-16T09:12:11.764Z</time>
      </trkpt>
      <trkpt lat="44.69832" lon="3.84025">
        <ele>1002.6838378906</ele>
        <time>2020-10-16T09:12:12.487Z</time>
      </trkpt>
      <trkpt lat="44.69822" lon="3.84008">
        <ele>1000.8703613281</ele>
        <time>2020-10-16T09:12:13.214Z</time>
      </trkpt>
      <trkpt lat="44.69808" lon="3.83994">
        <ele>999.52502441406</ele>
        <time>2020-10-16T09:12:13.944Z</time>
      </trkpt>
      <trkpt lat="44.69796" lon="3.83976">
        <ele>997.57653808594</ele>
        <time>2020-10-16T09:12:14.678Z</time>
      </trkpt>
      <trkpt lat="44.69794" lon="3.83973">
        <ele>997.19702148438</ele>
        <time>2020-10-16T09:12:15.412Z</time>
      </trkpt>
      <trkpt lat="44.69791" lon="3.83971">
        <ele>997.01257324219</ele>
        <time>2020-10-16T09:12:16.147Z</time>
      </trkpt>
      <trkpt lat="44.69788" lon="3.83968">
        <ele>996.81597900391</ele>
        <time>2020-10-16T09:12:16.883Z</time>
      </trkpt>
      <trkpt lat="44.69772" lon="3.8396">
        <ele>994.72857666016</ele>
        <time>2020-10-16T09:12:17.622Z</time>
      </trkpt>
      <trkpt lat="44.69756" lon="3.83955">
        <ele>992.93377685547</ele>
        <time>2020-10-16T09:12:18.364Z</time>
      </trkpt>
      <trkpt lat="44.69737" lon="3.83947">
        <ele>990.46411132812</ele>
        <time>2020-10-16T09:12:19.110Z</time>
      </trkpt>
      <trkpt lat="44.69724" lon="3.83943">
        <ele>988.97564697266</ele>
        <time>2020-10-16T09:12:19.859Z</time>
      </trkpt>
      <trkpt lat="44.69714" lon="3.83939">
        <ele>987.71807861328</ele>
        <time>2020-10-16T09:12:20.610Z</time>
      </trkpt>
      <trkpt lat="44.69702" lon="3.83935">
        <ele>986.40850830078</ele>
        <time>2020-10-16T09:12:21.363Z</time>
      </trkpt>
      <trkpt lat="44.69702" lon="3.83935">
        <ele>986.30133056641</ele>
        <time>2020-10-16T09:12:22.117Z</time>
      </trkpt>
      <trkpt lat="44.69685" lon="3.83931">
        <ele>983.99719238281</ele>
        <time>2020-10-16T09:12:22.874Z</time>
      </trkpt>
      <trkpt lat="44.69676" lon="3.83929">
        <ele>982.73431396484</ele>
        <time>2020-10-16T09:12:23.633Z</time>
      </trkpt>
      <trkpt lat="44.69658" lon="3.83931">
        <ele>980.77496337891</ele>
        <time>2020-10-16T09:12:24.395Z</time>
      </trkpt>
      <trkpt lat="44.6964" lon="3.83937">
        <ele>979.13946533203</ele>
        <time>2020-10-16T09:12:25.161Z</time>
      </trkpt>
      <trkpt lat="44.69626" lon="3.83938">
        <ele>977.55505371094</ele>
        <time>2020-10-16T09:12:25.930Z</time>
      </trkpt>
      <trkpt lat="44.69625" lon="3.83938">
        <ele>977.50946044922</ele>
        <time>2020-10-16T09:12:26.699Z</time>
      </trkpt>
      <trkpt lat="44.69623" lon="3.83929">
        <ele>976.42364501953</ele>
        <time>2020-10-16T09:12:27.469Z</time>
      </trkpt>
      <trkpt lat="44.69626" lon="3.83913">
        <ele>975.17388916016</ele>
        <time>2020-10-16T09:12:28.242Z</time>
      </trkpt>
      <trkpt lat="44.69635" lon="3.83893">
        <ele>974.30828857422</ele>
        <time>2020-10-16T09:12:29.018Z</time>
      </trkpt>
      <trkpt lat="44.69657" lon="3.83857">
        <ele>972.80029296875</ele>
        <time>2020-10-16T09:12:29.801Z</time>
      </trkpt>
      <trkpt lat="44.6967" lon="3.8384">
        <ele>973.40704345703</ele>
        <time>2020-10-16T09:12:30.587Z</time>
      </trkpt>
      <trkpt lat="44.69685" lon="3.83829">
        <ele>973.83807373047</ele>
        <time>2020-10-16T09:12:31.377Z</time>
      </trkpt>
      <trkpt lat="44.69703" lon="3.8382">
        <ele>972.66735839844</ele>
        <time>2020-10-16T09:12:32.171Z</time>
      </trkpt>
      <trkpt lat="44.69708" lon="3.83817">
        <ele>972.54345703125</ele>
        <time>2020-10-16T09:12:32.966Z</time>
      </trkpt>
      <trkpt lat="44.69716" lon="3.8381">
        <ele>972.0234375</ele>
        <time>2020-10-16T09:12:33.763Z</time>
      </trkpt>
      <trkpt lat="44.69718" lon="3.8381">
        <ele>972.00952148438</ele>
        <time>2020-10-16T09:12:34.560Z</time>
      </trkpt>
      <trkpt lat="44.69719" lon="3.83792">
        <ele>969.89666748047</ele>
        <time>2020-10-16T09:12:35.359Z</time>
      </trkpt>
      <trkpt lat="44.69713" lon="3.83783">
        <ele>968.66607666016</ele>
        <time>2020-10-16T09:12:36.160Z</time>
      </trkpt>
      <trkpt lat="44.69699" lon="3.83771">
        <ele>967.17120361328</ele>
        <time>2020-10-16T09:12:36.964Z</time>
      </trkpt>
      <trkpt lat="44.69688" lon="3.8377">
        <ele>967.20654296875</ele>
        <time>2020-10-16T09:12:37.771Z</time>
      </trkpt>
      <trkpt lat="44.69677" lon="3.8377">
        <ele>967.24194335938</ele>
        <time>2020-10-16T09:12:38.580Z</time>
      </trkpt>
      <trkpt lat="44.69669" lon="3.83769">
        <ele>967.31121826172</ele>
        <time>2020-10-16T09:12:39.391Z</time>
      </trkpt>
      <trkpt lat="44.69661" lon="3.83756">
        <ele>968.59173583984</ele>
        <time>2020-10-16T09:12:40.204Z</time>
      </trkpt>
      <trkpt lat="44.69655" lon="3.83742">
        <ele>969.94635009766</ele>
        <time>2020-10-16T09:12:41.019Z</time>
      </trkpt>
      <trkpt lat="44.6965" lon="3.83726">
        <ele>971.49243164062</ele>
        <time>2020-10-16T09:12:41.837Z</time>
      </trkpt>
      <trkpt lat="44.69657" lon="3.83701">
        <ele>970.26879882812</ele>
        <time>2020-10-16T09:12:42.659Z</time>
      </trkpt>
      <trkpt lat="44.69671" lon="3.83684">
        <ele>967.24719238281</ele>
        <time>2020-10-16T09:12:43.484Z</time>
      </trkpt>
      <trkpt lat="44.69682" lon="3.83669">
        <ele>964.65795898438</ele>
        <time>2020-10-16T09:12:44.312Z</time>
      </trkpt>
      <trkpt lat="44.69685" lon="3.83652">
        <ele>962.54565429688</ele>
        <time>2020-10-16T09:12:45.143Z</time>
      </trkpt>
      <trkpt lat="44.6968" lon="3.83642">
        <ele>962.41790771484</ele>
        <time>2020-10-16T09:12:45.976Z</time>
      </trkpt>
      <trkpt lat="44.69664" lon="3.83636">
        <ele>964.54095458984</ele>
        <time>2020-10-16T09:12:46.812Z</time>
      </trkpt>
      <trkpt lat="44.69646" lon="3.83618">
        <ele>965.86993408203</ele>
        <time>2020-10-16T09:12:47.652Z</time>
      </trkpt>
      <trkpt lat="44.6963" lon="3.83598">
        <ele>966.63098144531</ele>
        <time>2020-10-16T09:12:48.497Z</time>
      </trkpt>
      <trkpt lat="44.69624" lon="3.83582">
        <ele>966.33782958984</ele>
        <time>2020-10-16T09:12:49.344Z</time>
      </trkpt>
      <trkpt lat="44.69618" lon="3.83567">
        <ele>966.06823730469</ele>
        <time>2020-10-16T09:12:50.194Z</time>
      </trkpt>
      <trkpt lat="44.69609" lon="3.83538">
        <ele>965.24078369141</ele>
        <time>2020-10-16T09:12:51.048Z</time>
      </trkpt>
      <trkpt lat="44.69601" lon="3.8351">
        <ele>965.28594970703</ele>
        <time>2020-10-16T09:12:51.906Z</time>
      </trkpt>
      <trkpt lat="44.69592" lon="3.83482">
        <ele>966.33508300781</ele>
        <time>2020-10-16T09:12:52.769Z</time>
      </trkpt>
      <trkpt lat="44.69584" lon="3.83454">
        <ele>967.30090332031</ele>
        <time>2020-10-16T09:12:53.636Z</time>
      </trkpt>
      <trkpt lat="44.69588" lon="3.83442">
        <ele>966.3037109375</ele>
        <time>2020-10-16T09:12:54.505Z</time>
      </trkpt>
      <trkpt lat="44.69591" lon="3.83442">
        <ele>965.57348632812</ele>
        <time>2020-10-16T09:12:55.375Z</time>
      </trkpt>
      <trkpt lat="44.69601" lon="3.83439">
        <ele>963.55737304688</ele>
        <time>2020-10-16T09:12:56.247Z</time>
      </trkpt>
      <trkpt lat="44.6963" lon="3.83431">
        <ele>960.33123779297</ele>
        <time>2020-10-16T09:12:57.125Z</time>
      </trkpt>
      <trkpt lat="44.69651" lon="3.83426">
        <ele>960.88323974609</ele>
        <time>2020-10-16T09:12:58.007Z</time>
      </trkpt>
      <trkpt lat="44.69666" lon="3.83427">
        <ele>961.23980712891</ele>
        <time>2020-10-16T09:12:58.892Z</time>
      </trkpt>
      <trkpt lat="44.69693" lon="3.83432">
        <ele>961.83221435547</ele>
        <time>2020-10-16T09:12:59.782Z</time>
      </trkpt>
      <trkpt lat="44.69711" lon="3.83433">
        <ele>964.45568847656</ele>
        <time>2020-10-16T09:13:00.676Z</time>
      </trkpt>
      <trkpt lat="44.6972" lon="3.83434">
        <ele>965.97711181641</ele>
        <time>2020-10-16T09:13:01.572Z</time>
      </trkpt>
      <trkpt lat="44.69728" lon="3.83436">
        <ele>966.93414306641</ele>
        <time>2020-10-16T09:13:02.469Z</time>
      </trkpt>
      <trkpt lat="44.69734" lon="3.8344">
        <ele>967.47503662109</ele>
        <time>2020-10-16T09:13:03.368Z</time>
      </trkpt>
      <trkpt lat="44.69761" lon="3.83461">
        <ele>969.47766113281</ele>
        <time>2020-10-16T09:13:04.273Z</time>
      </trkpt>
      <trkpt lat="44.69768" lon="3.83465">
        <ele>970.19976806641</ele>
        <time>2020-10-16T09:13:05.179Z</time>
      </trkpt>
      <trkpt lat="44.69772" lon="3.83465">
        <ele>970.87854003906</ele>
        <time>2020-10-16T09:13:06.086Z</time>
      </trkpt>
      <trkpt lat="44.69783" lon="3.83477">
        <ele>971.33508300781</ele>
        <time>2020-10-16T09:13:06.996Z</time>
      </trkpt>
      <trkpt lat="44.6979" lon="3.83486">
        <ele>971.01171875</ele>
        <time>2020-10-16T09:13:07.908Z</time>
      </trkpt>
      <trkpt lat="44.69797" lon="3.83491">
        <ele>970.96569824219</ele>
        <time>2020-10-16T09:13:08.822Z</time>
      </trkpt>
      <trkpt lat="44.69807" lon="3.83489">
        <ele>971.92950439453</ele>
        <time>2020-10-16T09:13:09.738Z</time>
      </trkpt>
      <trkpt lat="44.69822" lon="3.8348">
        <ele>974.17144775391</ele>
        <time>2020-10-16T09:13:10.657Z</time>
      </trkpt>
      <trkpt lat="44.69837" lon="3.83469">
        <ele>978.12890625</ele>
        <time>2020-10-16T09:13:11.579Z</time>
      </trkpt>
      <trkpt lat="44.6985" lon="3.83458">
        <ele>982.09283447266</ele>
        <time>2020-10-16T09:13:12.504Z</time>
      </trkpt>
      <trkpt lat="44.69864" lon="3.83449">
        <ele>986.162109375</ele>
        <time>2020-10-16T09:13:13.432Z</time>
      </trkpt>
      <trkpt lat="44.69873" lon="3.83444">
        <ele>987.84808349609</ele>
        <time>2020-10-16T09:13:14.362Z</time>
      </trkpt>
      <trkpt lat="44.69883" lon="3.83438">
        <ele>988.64056396484</ele>
        <time>2020-10-16T09:13:15.294Z</time>
      </trkpt>
      <trkpt lat="44.69892" lon="3.83429">
        <ele>989.84204101562</ele>
        <time>2020-10-16T09:13:16.229Z</time>
      </trkpt>
      <trkpt lat="44.69893" lon="3.83428">
        <ele>990.07019042969</ele>
        <time>2020-10-16T09:13:17.164Z</time>
      </trkpt>
      <trkpt lat="44.69906" lon="3.83409">
        <ele>992.74114990234</ele>
        <time>2020-10-16T09:13:18.103Z</time>
      </trkpt>
      <trkpt lat="44.69921" lon="3.83383">
        <ele>995.71069335938</ele>
        <time>2020-10-16T09:13:19.046Z</time>
      </trkpt>
      <trkpt lat="44.69926" lon="3.83369">
        <ele>997.13293457031</ele>
        <time>2020-10-16T09:13:19.992Z</time>
      </trkpt>
      <trkpt lat="44.69935" lon="3.83352">
        <ele>998.52532958984</ele>
        <time>2020-10-16T09:13:20.941Z</time>
      </trkpt>
      <trkpt lat="44.69945" lon="3.83346">
        <ele>998.05377197266</ele>
        <time>2020-10-16T09:13:21.892Z</time>
      </trkpt>
      <trkpt lat="44.69966" lon="3.8334">
        <ele>996.86193847656</ele>
        <time>2020-10-16T09:13:22.847Z</time>
      </trkpt>
      <trkpt lat="44.69993" lon="3.83333">
        <ele>995.25219726562</ele>
        <time>2020-10-16T09:13:23.808Z</time>
      </trkpt>
      <trkpt lat="44.70017" lon="3.83326">
        <ele>994.33367919922</ele>
        <time>2020-10-16T09:13:24.774Z</time>
      </trkpt>
      <trkpt lat="44.70029" lon="3.83319">
        <ele>994.67730712891</ele>
        <time>2020-10-16T09:13:25.742Z</time>
      </trkpt>
      <trkpt lat="44.7005" lon="3.83309">
        <ele>994.86047363281</ele>
        <time>2020-10-16T09:13:26.715Z</time>
      </trkpt>
      <trkpt lat="44.70076" lon="3.83294">
        <ele>995.865234375</ele>
        <time>2020-10-16T09:13:27.693Z</time>
      </trkpt>
      <trkpt lat="44.70095" lon="3.83282">
        <ele>997.58355712891</ele>
        <time>2020-10-16T09:13:28.675Z</time>
      </trkpt>
      <trkpt lat="44.70112" lon="3.83259">
        <ele>1000.7637939453</ele>
        <time>2020-10-16T09:13:29.662Z</time>
      </trkpt>
      <trkpt lat="44.70126" lon="3.8324">
        <ele>1003.6387329102</ele>
        <time>2020-10-16T09:13:30.653Z</time>
      </trkpt>
      <trkpt lat="44.7014" lon="3.83216">
        <ele>1006.4020996094</ele>
        <time>2020-10-16T09:13:31.649Z</time>
      </trkpt>
      <trkpt lat="44.70154" lon="3.83193">
        <ele>1007.8292236328</ele>
        <time>2020-10-16T09:13:32.649Z</time>
      </trkpt>
      <trkpt lat="44.70163" lon="3.83185">
        <ele>1007.7384643555</ele>
        <time>2020-10-16T09:13:33.651Z</time>
      </trkpt>
      <trkpt lat="44.70183" lon="3.8318">
        <ele>1006.0998535156</ele>
        <time>2020-10-16T09:13:34.657Z</time>
      </trkpt>
      <trkpt lat="44.70198" lon="3.83174">
        <ele>1004.7368774414</ele>
        <time>2020-10-16T09:13:35.666Z</time>
      </trkpt>
      <trkpt lat="44.70203" lon="3.83169">
        <ele>1004.4455566406</ele>
        <time>2020-10-16T09:13:36.676Z</time>
      </trkpt>
      <trkpt lat="44.70202" lon="3.83156">
        <ele>1005.5904541016</ele>
        <time>2020-10-16T09:13:37.688Z</time>
      </trkpt>
      <trkpt lat="44.70194" lon="3.83144">
        <ele>1007.5053100586</ele>
        <time>2020-10-16T09:13:38.703Z</time>
      </trkpt>
      <trkpt lat="44.70178" lon="3.83136">
        <ele>1010.1963500977</ele>
        <time>2020-10-16T09:13:39.721Z</time>
      </trkpt>
      <trkpt lat="44.70162" lon="3.83125">
        <ele>1012.9832763672</ele>
        <time>2020-10-16T09:13:40.742Z</time>
      </trkpt>
      <trkpt lat="44.70149" lon="3.83121">
        <ele>1015.1119995117</ele>
        <time>2020-10-16T09:13:41.766Z</time>
      </trkpt>
      <trkpt lat="44.70126" lon="3.8312">
        <ele>1017.9916992188</ele>
        <time>2020-10-16T09:13:42.795Z</time>
      </trkpt>
      <trkpt lat="44.701" lon="3.83117">
        <ele>1019.387512207</ele>
        <time>2020-10-16T09:13:43.829Z</time>
      </trkpt>
      <trkpt lat="44.70069" lon="3.83112">
        <ele>1020.5892944336</ele>
        <time>2020-10-16T09:13:44.869Z</time>
      </trkpt>
      <trkpt lat="44.70043" lon="3.83105">
        <ele>1021.9474487305</ele>
        <time>2020-10-16T09:13:45.915Z</time>
      </trkpt>
      <trkpt lat="44.70014" lon="3.83093">
        <ele>1024.6181640625</ele>
        <time>2020-10-16T09:13:46.967Z</time>
      </trkpt>
      <trkpt lat="44.69995" lon="3.83084">
        <ele>1026.5554199219</ele>
        <time>2020-10-16T09:13:48.023Z</time>
      </trkpt>
      <trkpt lat="44.69954" lon="3.83071">
        <ele>1029.6640625</ele>
        <time>2020-10-16T09:13:49.087Z</time>
      </trkpt>
      <trkpt lat="44.69918" lon="3.83058">
        <ele>1029.9356689453</ele>
        <time>2020-10-16T09:13:50.159Z</time>
      </trkpt>
      <trkpt lat="44.69873" lon="3.83042">
        <ele>1031.4146728516</ele>
        <time>2020-10-16T09:13:51.240Z</time>
      </trkpt>
      <trkpt lat="44.69843" lon="3.83029">
        <ele>1034.4022216797</ele>
        <time>2020-10-16T09:13:52.327Z</time>
      </trkpt>
      <trkpt lat="44.6979" lon="3.83006">
        <ele>1038.6384277344</ele>
        <time>2020-10-16T09:13:53.425Z</time>
      </trkpt>
      <trkpt lat="44.69775" lon="3.82996">
        <ele>1039.2491455078</ele>
        <time>2020-10-16T09:13:54.526Z</time>
      </trkpt>
      <trkpt lat="44.69754" lon="3.82976">
        <ele>1040.2177734375</ele>
        <time>2020-10-16T09:13:55.633Z</time>
      </trkpt>
      <trkpt lat="44.69725" lon="3.82943">
        <ele>1041.8253173828</ele>
        <time>2020-10-16T09:13:56.747Z</time>
      </trkpt>
      <trkpt lat="44.69717" lon="3.82931">
        <ele>1042.1959228516</ele>
        <time>2020-10-16T09:13:57.863Z</time>
      </trkpt>
      <trkpt lat="44.69711" lon="3.82917">
        <ele>1042.5163574219</ele>
        <time>2020-10-16T09:13:58.982Z</time>
      </trkpt>
      <trkpt lat="44.69705" lon="3.82905">
        <ele>1042.8106689453</ele>
        <time>2020-10-16T09:14:00.103Z</time>
      </trkpt>
      <trkpt lat="44.69693" lon="3.82887">
        <ele>1042.4053955078</ele>
        <time>2020-10-16T09:14:01.227Z</time>
      </trkpt>
      <trkpt lat="44.6969" lon="3.82877">
        <ele>1042.3831787109</ele>
        <time>2020-10-16T09:14:02.353Z</time>
      </trkpt>
      <trkpt lat="44.6969" lon="3.82867">
        <ele>1042.5555419922</ele>
        <time>2020-10-16T09:14:03.480Z</time>
      </trkpt>
      <trkpt lat="44.6969" lon="3.82824">
        <ele>1044.0629882812</ele>
        <time>2020-10-16T09:14:04.613Z</time>
      </trkpt>
      <trkpt lat="44.6969" lon="3.82817">
        <ele>1044.1319580078</ele>
        <time>2020-10-16T09:14:05.747Z</time>
      </trkpt>
      <trkpt lat="44.69688" lon="3.82813">
        <ele>1044.1461181641</ele>
        <time>2020-10-16T09:14:06.882Z</time>
      </trkpt>
      <trkpt lat="44.69683" lon="3.82802">
        <ele>1044.1550292969</ele>
        <time>2020-10-16T09:14:08.019Z</time>
      </trkpt>
      <trkpt lat="44.69671" lon="3.82784">
        <ele>1044.08203125</ele>
        <time>2020-10-16T09:14:09.159Z</time>
      </trkpt>
      <trkpt lat="44.69653" lon="3.82765">
        <ele>1043.888671875</ele>
        <time>2020-10-16T09:14:10.304Z</time>
      </trkpt>
      <trkpt lat="44.69641" lon="3.82754">
        <ele>1043.734375</ele>
        <time>2020-10-16T09:14:11.452Z</time>
      </trkpt>
      <trkpt lat="44.69628" lon="3.82744">
        <ele>1043.5324707031</ele>
        <time>2020-10-16T09:14:12.603Z</time>
      </trkpt>
      <trkpt lat="44.69611" lon="3.82734">
        <ele>1042.7419433594</ele>
        <time>2020-10-16T09:14:13.757Z</time>
      </trkpt>
      <trkpt lat="44.69603" lon="3.82731">
        <ele>1042.0480957031</ele>
        <time>2020-10-16T09:14:14.913Z</time>
      </trkpt>
      <trkpt lat="44.69601" lon="3.8273">
        <ele>1041.9112548828</ele>
        <time>2020-10-16T09:14:16.070Z</time>
      </trkpt>
      <trkpt lat="44.69592" lon="3.82728">
        <ele>1041.1533203125</ele>
        <time>2020-10-16T09:14:17.228Z</time>
      </trkpt>
      <trkpt lat="44.69585" lon="3.82726">
        <ele>1040.5828857422</ele>
        <time>2020-10-16T09:14:18.388Z</time>
      </trkpt>
      <trkpt lat="44.69585" lon="3.82717">
        <ele>1040.7288818359</ele>
        <time>2020-10-16T09:14:19.549Z</time>
      </trkpt>
      <trkpt lat="44.6959" lon="3.82668">
        <ele>1043.6877441406</ele>
        <time>2020-10-16T09:14:20.717Z</time>
      </trkpt>
      <trkpt lat="44.69592" lon="3.8264">
        <ele>1046.1593017578</ele>
        <time>2020-10-16T09:14:21.889Z</time>
      </trkpt>
      <trkpt lat="44.69592" lon="3.8263">
        <ele>1046.8703613281</ele>
        <time>2020-10-16T09:14:23.063Z</time>
      </trkpt>
      <trkpt lat="44.69591" lon="3.82615">
        <ele>1047.9499511719</ele>
        <time>2020-10-16T09:14:24.239Z</time>
      </trkpt>
      <trkpt lat="44.69589" lon="3.82588">
        <ele>1049.9281005859</ele>
        <time>2020-10-16T09:14:25.419Z</time>
      </trkpt>
      <trkpt lat="44.69588" lon="3.82581">
        <ele>1050.4768066406</ele>
        <time>2020-10-16T09:14:26.600Z</time>
      </trkpt>
      <trkpt lat="44.69584" lon="3.82568">
        <ele>1051.3983154297</ele>
        <time>2020-10-16T09:14:27.783Z</time>
      </trkpt>
      <trkpt lat="44.6958" lon="3.82569">
        <ele>1051.1533203125</ele>
        <time>2020-10-16T09:14:28.967Z</time>
      </trkpt>
      <trkpt lat="44.69577" lon="3.82569">
        <ele>1050.9720458984</ele>
        <time>2020-10-16T09:14:30.151Z</time>
      </trkpt>
      <trkpt lat="44.69573" lon="3.82569">
        <ele>1050.8170166016</ele>
        <time>2020-10-16T09:14:31.336Z</time>
      </trkpt>
      <trkpt lat="44.69569" lon="3.82568">
        <ele>1050.7214355469</ele>
        <time>2020-10-16T09:14:32.522Z</time>
      </trkpt>
      <trkpt lat="44.69565" lon="3.82566">
        <ele>1050.6667480469</ele>
        <time>2020-10-16T09:14:33.709Z</time>
      </trkpt>
      <trkpt lat="44.69561" lon="3.82564">
        <ele>1050.6403808594</ele>
        <time>2020-10-16T09:14:34.897Z</time>
      </trkpt>
      <trkpt lat="44.69557" lon="3.82562">
        <ele>1050.6333007812</ele>
        <time>2020-10-16T09:14:36.085Z</time>
      </trkpt>
      <trkpt lat="44.69554" lon="3.8256">
        <ele>1050.6329345703</ele>
        <time>2020-10-16T09:14:37.274Z</time>
      </trkpt>
      <trkpt lat="44.6955" lon="3.82558">
        <ele>1050.64453125</ele>
        <time>2020-10-16T09:14:38.464Z</time>
      </trkpt>
      <trkpt lat="44.69546" lon="3.82555">
        <ele>1050.6527099609</ele>
        <time>2020-10-16T09:14:39.655Z</time>
      </trkpt>
      <trkpt lat="44.69542" lon="3.82553">
        <ele>1050.6534423828</ele>
        <time>2020-10-16T09:14:40.847Z</time>
      </trkpt>
      <trkpt lat="44.69539" lon="3.82551">
        <ele>1050.6453857422</ele>
        <time>2020-10-16T09:14:42.039Z</time>
      </trkpt>
      <trkpt lat="44.69534" lon="3.82549">
        <ele>1050.6334228516</ele>
        <time>2020-10-16T09:14:43.232Z</time>
      </trkpt>
      <trkpt lat="44.69529" lon="3.82546">
        <ele>1050.6174316406</ele>
        <time>2020-10-16T09:14:44.426Z</time>
      </trkpt>
      <trkpt lat="44.69524" lon="3.82543">
        <ele>1050.6080322266</ele>
        <time>2020-10-16T09:14:45.622Z</time>
      </trkpt>
      <trkpt lat="44.69514" lon="3.82538">
        <ele>1050.5581054688</ele>
        <time>2020-10-16T09:14:46.820Z</time>
      </trkpt>
      <trkpt lat="44.6951" lon="3.82536">
        <ele>1050.5366210938</ele>
        <time>2020-10-16T09:14:48.019Z</time>
      </trkpt>
      <trkpt lat="44.69505" lon="3.82534">
        <ele>1050.5144042969</ele>
        <time>2020-10-16T09:14:49.219Z</time>
      </trkpt>
      <trkpt lat="44.69495" lon="3.82528">
        <ele>1050.4750976562</ele>
        <time>2020-10-16T09:14:50.421Z</time>
      </trkpt>
      <trkpt lat="44.69469" lon="3.82515">
        <ele>1049.9261474609</ele>
        <time>2020-10-16T09:14:51.628Z</time>
      </trkpt>
      <trkpt lat="44.69464" lon="3.82512">
        <ele>1049.7492675781</ele>
        <time>2020-10-16T09:14:52.836Z</time>
      </trkpt>
      <trkpt lat="44.69459" lon="3.82509">
        <ele>1049.5843505859</ele>
        <time>2020-10-16T09:14:54.045Z</time>
      </trkpt>
      <trkpt lat="44.69451" lon="3.82503">
        <ele>1049.2811279297</ele>
        <time>2020-10-16T09:14:55.256Z</time>
      </trkpt>
      <trkpt lat="44.69444" lon="3.82497">
        <ele>1048.8323974609</ele>
        <time>2020-10-16T09:14:56.469Z</time>
      </trkpt>
      <trkpt lat="44.69439" lon="3.82492">
        <ele>1048.5268554688</ele>
        <time>2020-10-16T09:14:57.683Z</time>
      </trkpt>
      <trkpt lat="44.69434" lon="3.82487">
        <ele>1048.1823730469</ele>
        <time>2020-10-16T09:14:58.898Z</time>
      </trkpt>
      <trkpt lat="44.69427" lon="3.82482">
        <ele>1047.7854003906</ele>
        <time>2020-10-16T09:15:00.115Z</time>
      </trkpt>
      <trkpt lat="44.69421" lon="3.82478">
        <ele>1047.3549804688</ele>
        <time>2020-10-16T09:15:01.333Z</time>
      </trkpt>
      <trkpt lat="44.69415" lon="3.82474">
        <ele>1046.9180908203</ele>
        <time>2020-10-16T09:15:02.553Z</time>
      </trkpt>
      <trkpt lat="44.69408" lon="3.8247">
        <ele>1046.4853515625</ele>
        <time>2020-10-16T09:15:03.774Z</time>
      </trkpt>
      <trkpt lat="44.69402" lon="3.82466">
        <ele>1046.0577392578</ele>
        <time>2020-10-16T09:15:04.996Z</time>
      </trkpt>
      <trkpt lat="44.69396" lon="3.82462">
        <ele>1045.6473388672</ele>
        <time>2020-10-16T09:15:06.220Z</time>
      </trkpt>
      <trkpt lat="44.69391" lon="3.82458">
        <ele>1045.2692871094</ele>
        <time>2020-10-16T09:15:07.445Z</time>
      </trkpt>
      <trkpt lat="44.69385" lon="3.82453">
        <ele>1044.9342041016</ele>
        <time>2020-10-16T09:15:08.671Z</time>
      </trkpt>
      <trkpt lat="44.6938" lon="3.82448">
        <ele>1044.6480712891</ele>
        <time>2020-10-16T09:15:09.898Z</time>
      </trkpt>
      <trkpt lat="44.69376" lon="3.82442">
        <ele>1044.4028320312</ele>
        <time>2020-10-16T09:15:11.127Z</time>
      </trkpt>
      <trkpt lat="44.69371" lon="3.82436">
        <ele>1044.2171630859</ele>
        <time>2020-10-16T09:15:12.357Z</time>
      </trkpt>
      <trkpt lat="44.69367" lon="3.82429">
        <ele>1044.2391357422</ele>
        <time>2020-10-16T09:15:13.588Z</time>
      </trkpt>
      <trkpt lat="44.69363" lon="3.82422">
        <ele>1044.33203125</ele>
        <time>2020-10-16T09:15:14.820Z</time>
      </trkpt>
      <trkpt lat="44.69358" lon="3.82415">
        <ele>1044.4427490234</ele>
        <time>2020-10-16T09:15:16.054Z</time>
      </trkpt>
      <trkpt lat="44.69354" lon="3.82407">
        <ele>1044.5556640625</ele>
        <time>2020-10-16T09:15:17.289Z</time>
      </trkpt>
      <trkpt lat="44.69349" lon="3.82399">
        <ele>1044.6599121094</ele>
        <time>2020-10-16T09:15:18.526Z</time>
      </trkpt>
      <trkpt lat="44.69344" lon="3.82392">
        <ele>1044.7626953125</ele>
        <time>2020-10-16T09:15:19.764Z</time>
      </trkpt>
      <trkpt lat="44.6934" lon="3.82385">
        <ele>1044.8623046875</ele>
        <time>2020-10-16T09:15:21.004Z</time>
      </trkpt>
      <trkpt lat="44.69335" lon="3.82377">
        <ele>1044.9586181641</ele>
        <time>2020-10-16T09:15:22.245Z</time>
      </trkpt>
      <trkpt lat="44.69331" lon="3.8237">
        <ele>1045.0550537109</ele>
        <time>2020-10-16T09:15:23.487Z</time>
      </trkpt>
      <trkpt lat="44.69326" lon="3.82363">
        <ele>1045.1550292969</ele>
        <time>2020-10-16T09:15:24.731Z</time>
      </trkpt>
      <trkpt lat="44.69322" lon="3.82356">
        <ele>1045.2681884766</ele>
        <time>2020-10-16T09:15:25.976Z</time>
      </trkpt>
      <trkpt lat="44.69318" lon="3.82348">
        <ele>1045.2088623047</ele>
        <time>2020-10-16T09:15:27.222Z</time>
      </trkpt>
      <trkpt lat="44.69313" lon="3.82341">
        <ele>1045.1420898438</ele>
        <time>2020-10-16T09:15:28.470Z</time>
      </trkpt>
      <trkpt lat="44.6931" lon="3.82333">
        <ele>1045.0944824219</ele>
        <time>2020-10-16T09:15:29.719Z</time>
      </trkpt>
      <trkpt lat="44.69305" lon="3.82325">
        <ele>1045.0372314453</ele>
        <time>2020-10-16T09:15:30.970Z</time>
      </trkpt>
      <trkpt lat="44.69301" lon="3.82317">
        <ele>1044.9993896484</ele>
        <time>2020-10-16T09:15:32.222Z</time>
      </trkpt>
      <trkpt lat="44.69294" lon="3.823">
        <ele>1044.9138183594</ele>
        <time>2020-10-16T09:15:33.477Z</time>
      </trkpt>
      <trkpt lat="44.6929" lon="3.82292">
        <ele>1044.8701171875</ele>
        <time>2020-10-16T09:15:34.733Z</time>
      </trkpt>
      <trkpt lat="44.69286" lon="3.82284">
        <ele>1044.9528808594</ele>
        <time>2020-10-16T09:15:35.991Z</time>
      </trkpt>
      <trkpt lat="44.69281" lon="3.82277">
        <ele>1045.4918212891</ele>
        <time>2020-10-16T09:15:37.250Z</time>
      </trkpt>
      <trkpt lat="44.69276" lon="3.8227">
        <ele>1046.1805419922</ele>
        <time>2020-10-16T09:15:38.510Z</time>
      </trkpt>
      <trkpt lat="44.6927" lon="3.82264">
        <ele>1047.1060791016</ele>
        <time>2020-10-16T09:15:39.772Z</time>
      </trkpt>
      <trkpt lat="44.69263" lon="3.8226">
        <ele>1047.9731445312</ele>
        <time>2020-10-16T09:15:41.035Z</time>
      </trkpt>
      <trkpt lat="44.69257" lon="3.82257">
        <ele>1048.7691650391</ele>
        <time>2020-10-16T09:15:42.300Z</time>
      </trkpt>
      <trkpt lat="44.6925" lon="3.82255">
        <ele>1049.5203857422</ele>
        <time>2020-10-16T09:15:43.566Z</time>
      </trkpt>
      <trkpt lat="44.69243" lon="3.82254">
        <ele>1050.2495117188</ele>
        <time>2020-10-16T09:15:44.833Z</time>
      </trkpt>
      <trkpt lat="44.69236" lon="3.82254">
        <ele>1050.9495849609</ele>
        <time>2020-10-16T09:15:46.102Z</time>
      </trkpt>
      <trkpt lat="44.69229" lon="3.82254">
        <ele>1051.6186523438</ele>
        <time>2020-10-16T09:15:47.372Z</time>
      </trkpt>
      <trkpt lat="44.69222" lon="3.82254">
        <ele>1052.2731933594</ele>
        <time>2020-10-16T09:15:48.644Z</time>
      </trkpt>
      <trkpt lat="44.69215" lon="3.82254">
        <ele>1052.9575195312</ele>
        <time>2020-10-16T09:15:49.917Z</time>
      </trkpt>
      <trkpt lat="44.69213" lon="3.82254">
        <ele>1053.1519775391</ele>
        <time>2020-10-16T09:15:51.190Z</time>
      </trkpt>
      <trkpt lat="44.69208" lon="3.82254">
        <ele>1053.6414794922</ele>
        <time>2020-10-16T09:15:52.464Z</time>
      </trkpt>
      <trkpt lat="44.69201" lon="3.82253">
        <ele>1054.0495605469</ele>
        <time>2020-10-16T09:15:53.740Z</time>
      </trkpt>
      <trkpt lat="44.69194" lon="3.82253">
        <ele>1053.8349609375</ele>
        <time>2020-10-16T09:15:55.017Z</time>
      </trkpt>
      <trkpt lat="44.69187" lon="3.82252">
        <ele>1053.6262207031</ele>
        <time>2020-10-16T09:15:56.296Z</time>
      </trkpt>
      <trkpt lat="44.6918" lon="3.82251">
        <ele>1053.4567871094</ele>
        <time>2020-10-16T09:15:57.576Z</time>
      </trkpt>
      <trkpt lat="44.69173" lon="3.8225">
        <ele>1053.3293457031</ele>
        <time>2020-10-16T09:15:58.858Z</time>
      </trkpt>
      <trkpt lat="44.69165" lon="3.82249">
        <ele>1053.2038574219</ele>
        <time>2020-10-16T09:16:00.141Z</time>
      </trkpt>
      <trkpt lat="44.6915" lon="3.82247">
        <ele>1052.9488525391</ele>
        <time>2020-10-16T09:16:01.427Z</time>
      </trkpt>
      <trkpt lat="44.69135" lon="3.82244">
        <ele>1052.7005615234</ele>
        <time>2020-10-16T09:16:02.716Z</time>
      </trkpt>
      <trkpt lat="44.69128" lon="3.82243">
        <ele>1052.5888671875</ele>
        <time>2020-10-16T09:16:04.006Z</time>
      </trkpt>
      <trkpt lat="44.69121" lon="3.82241">
        <ele>1052.5164794922</ele>
        <time>2020-10-16T09:16:05.298Z</time>
      </trkpt>
      <trkpt lat="44.69111" lon="3.82238">
        <ele>1052.3272705078</ele>
        <time>2020-10-16T09:16:06.592Z</time>
      </trkpt>
      <trkpt lat="44.69103" lon="3.82236">
        <ele>1052.1352539062</ele>
        <time>2020-10-16T09:16:07.888Z</time>
      </trkpt>
      <trkpt lat="44.69094" lon="3.82236">
        <ele>1051.8146972656</ele>
        <time>2020-10-16T09:16:09.185Z</time>
      </trkpt>
      <trkpt lat="44.69087" lon="3.82239">
        <ele>1051.4273681641</ele>
        <time>2020-10-16T09:16:10.484Z</time>
      </trkpt>
      <trkpt lat="44.69079" lon="3.82243">
        <ele>1051.4879150391</ele>
        <time>2020-10-16T09:16:11.785Z</time>
      </trkpt>
      <trkpt lat="44.69072" lon="3.82251">
        <ele>1051.5765380859</ele>
        <time>2020-10-16T09:16:13.087Z</time>
      </trkpt>
      <trkpt lat="44.69065" lon="3.82258">
        <ele>1051.6558837891</ele>
        <time>2020-10-16T09:16:14.391Z</time>
      </trkpt>
      <trkpt lat="44.69057" lon="3.8227">
        <ele>1051.7513427734</ele>
        <time>2020-10-16T09:16:15.697Z</time>
      </trkpt>
      <trkpt lat="44.6905" lon="3.8228">
        <ele>1051.1975097656</ele>
        <time>2020-10-16T09:16:17.005Z</time>
      </trkpt>
      <trkpt lat="44.69043" lon="3.8229">
        <ele>1051.5379638672</ele>
        <time>2020-10-16T09:16:18.315Z</time>
      </trkpt>
      <trkpt lat="44.69029" lon="3.82311">
        <ele>1053.9763183594</ele>
        <time>2020-10-16T09:16:19.630Z</time>
      </trkpt>
      <trkpt lat="44.69023" lon="3.82321">
        <ele>1055.4129638672</ele>
        <time>2020-10-16T09:16:20.946Z</time>
      </trkpt>
      <trkpt lat="44.69016" lon="3.82332">
        <ele>1056.80859375</ele>
        <time>2020-10-16T09:16:22.264Z</time>
      </trkpt>
      <trkpt lat="44.6901" lon="3.82342">
        <ele>1058.4990234375</ele>
        <time>2020-10-16T09:16:23.584Z</time>
      </trkpt>
      <trkpt lat="44.69004" lon="3.82352">
        <ele>1060.2651367188</ele>
        <time>2020-10-16T09:16:24.906Z</time>
      </trkpt>
      <trkpt lat="44.68998" lon="3.82361">
        <ele>1061.6268310547</ele>
        <time>2020-10-16T09:16:26.230Z</time>
      </trkpt>
      <trkpt lat="44.68991" lon="3.82371">
        <ele>1062.7136230469</ele>
        <time>2020-10-16T09:16:27.556Z</time>
      </trkpt>
      <trkpt lat="44.68985" lon="3.82381">
        <ele>1063.7921142578</ele>
        <time>2020-10-16T09:16:28.884Z</time>
      </trkpt>
      <trkpt lat="44.6896" lon="3.82418">
        <ele>1069.4571533203</ele>
        <time>2020-10-16T09:16:30.219Z</time>
      </trkpt>
      <trkpt lat="44.6894" lon="3.82452">
        <ele>1071.7843017578</ele>
        <time>2020-10-16T09:16:31.560Z</time>
      </trkpt>
      <trkpt lat="44.68922" lon="3.82479">
        <ele>1072.51953125</ele>
        <time>2020-10-16T09:16:32.907Z</time>
      </trkpt>
      <trkpt lat="44.68911" lon="3.82495">
        <ele>1072.4805908203</ele>
        <time>2020-10-16T09:16:34.257Z</time>
      </trkpt>
      <trkpt lat="44.68887" lon="3.82518">
        <ele>1072.2915039062</ele>
        <time>2020-10-16T09:16:35.613Z</time>
      </trkpt>
      <trkpt lat="44.68857" lon="3.82541">
        <ele>1071.3419189453</ele>
        <time>2020-10-16T09:16:36.975Z</time>
      </trkpt>
      <trkpt lat="44.68841" lon="3.82556">
        <ele>1070.0861816406</ele>
        <time>2020-10-16T09:16:38.341Z</time>
      </trkpt>
      <trkpt lat="44.68819" lon="3.8257">
        <ele>1068.6721191406</ele>
        <time>2020-10-16T09:16:39.712Z</time>
      </trkpt>
      <trkpt lat="44.68798" lon="3.82581">
        <ele>1067.0894775391</ele>
        <time>2020-10-16T09:16:41.088Z</time>
      </trkpt>
      <trkpt lat="44.68766" lon="3.82596">
        <ele>1065.6505126953</ele>
        <time>2020-10-16T09:16:42.470Z</time>
      </trkpt>
      <trkpt lat="44.68733" lon="3.82612">
        <ele>1064.0998535156</ele>
        <time>2020-10-16T09:16:43.859Z</time>
      </trkpt>
      <trkpt lat="44.68705" lon="3.82622">
        <ele>1062.8660888672</ele>
        <time>2020-10-16T09:16:45.254Z</time>
      </trkpt>
      <trkpt lat="44.68679" lon="3.82633">
        <ele>1060.8404541016</ele>
        <time>2020-10-16T09:16:46.655Z</time>
      </trkpt>
      <trkpt lat="44.6866" lon="3.8264">
        <ele>1059.3638916016</ele>
        <time>2020-10-16T09:16:48.060Z</time>
      </trkpt>
      <trkpt lat="44.68654" lon="3.82638">
        <ele>1059.4957275391</ele>
        <time>2020-10-16T09:16:49.466Z</time>
      </trkpt>
      <trkpt lat="44.68649" lon="3.82638">
        <ele>1059.5314941406</ele>
        <time>2020-10-16T09:16:50.873Z</time>
      </trkpt>
      <trkpt lat="44.68643" lon="3.82637">
        <ele>1059.5948486328</ele>
        <time>2020-10-16T09:16:52.281Z</time>
      </trkpt>
      <trkpt lat="44.68637" lon="3.82637">
        <ele>1059.5902099609</ele>
        <time>2020-10-16T09:16:53.690Z</time>
      </trkpt>
      <trkpt lat="44.68625" lon="3.82637">
        <ele>1059.5441894531</ele>
        <time>2020-10-16T09:16:55.102Z</time>
      </trkpt>
      <trkpt lat="44.6862" lon="3.82637">
        <ele>1059.5727539062</ele>
        <time>2020-10-16T09:16:56.515Z</time>
      </trkpt>
      <trkpt lat="44.68615" lon="3.82637">
        <ele>1059.4593505859</ele>
        <time>2020-10-16T09:16:57.929Z</time>
      </trkpt>
      <trkpt lat="44.68605" lon="3.82636">
        <ele>1059.3723144531</ele>
        <time>2020-10-16T09:16:59.345Z</time>
      </trkpt>
      <trkpt lat="44.68593" lon="3.82634">
        <ele>1059.2481689453</ele>
        <time>2020-10-16T09:17:00.763Z</time>
      </trkpt>
      <trkpt lat="44.68581" lon="3.82632">
        <ele>1059.1702880859</ele>
        <time>2020-10-16T09:17:02.183Z</time>
      </trkpt>
      <trkpt lat="44.68575" lon="3.82631">
        <ele>1059.12109375</ele>
        <time>2020-10-16T09:17:03.605Z</time>
      </trkpt>
      <trkpt lat="44.68568" lon="3.8263">
        <ele>1059.0942382812</ele>
        <time>2020-10-16T09:17:05.028Z</time>
      </trkpt>
      <trkpt lat="44.68563" lon="3.82629">
        <ele>1059.0850830078</ele>
        <time>2020-10-16T09:17:06.452Z</time>
      </trkpt>
      <trkpt lat="44.68557" lon="3.82628">
        <ele>1059.0593261719</ele>
        <time>2020-10-16T09:17:07.877Z</time>
      </trkpt>
      <trkpt lat="44.68552" lon="3.82627">
        <ele>1059.021484375</ele>
        <time>2020-10-16T09:17:09.303Z</time>
      </trkpt>
      <trkpt lat="44.68547" lon="3.82626">
        <ele>1058.9287109375</ele>
        <time>2020-10-16T09:17:10.730Z</time>
      </trkpt>
      <trkpt lat="44.68541" lon="3.82626">
        <ele>1058.6787109375</ele>
        <time>2020-10-16T09:17:12.159Z</time>
      </trkpt>
      <trkpt lat="44.68536" lon="3.82609">
        <ele>1060.5336914062</ele>
        <time>2020-10-16T09:17:13.590Z</time>
      </trkpt>
      <trkpt lat="44.68529" lon="3.82589">
        <ele>1062.2453613281</ele>
        <time>2020-10-16T09:17:15.024Z</time>
      </trkpt>
      <trkpt lat="44.68526" lon="3.82582">
        <ele>1062.7398681641</ele>
        <time>2020-10-16T09:17:16.459Z</time>
      </trkpt>
      <trkpt lat="44.68524" lon="3.8258">
        <ele>1062.8121337891</ele>
        <time>2020-10-16T09:17:17.895Z</time>
      </trkpt>
      <trkpt lat="44.68522" lon="3.8257">
        <ele>1063.8223876953</ele>
        <time>2020-10-16T09:17:19.333Z</time>
      </trkpt>
      <trkpt lat="44.68524" lon="3.82554">
        <ele>1065.6505126953</ele>
        <time>2020-10-16T09:17:20.773Z</time>
      </trkpt>
      <trkpt lat="44.6852" lon="3.82542">
        <ele>1066.7048339844</ele>
        <time>2020-10-16T09:17:22.215Z</time>
      </trkpt>
      <trkpt lat="44.68513" lon="3.8253">
        <ele>1067.4743652344</ele>
        <time>2020-10-16T09:17:23.659Z</time>
      </trkpt>
      <trkpt lat="44.68502" lon="3.82518">
        <ele>1068.4014892578</ele>
        <time>2020-10-16T09:17:25.106Z</time>
      </trkpt>
      <trkpt lat="44.68486" lon="3.82508">
        <ele>1069.5341796875</ele>
        <time>2020-10-16T09:17:26.556Z</time>
      </trkpt>
      <trkpt lat="44.68465" lon="3.82497">
        <ele>1070.490234375</ele>
        <time>2020-10-16T09:17:28.011Z</time>
      </trkpt>
      <trkpt lat="44.68453" lon="3.82491">
        <ele>1071.0196533203</ele>
        <time>2020-10-16T09:17:29.468Z</time>
      </trkpt>
      <trkpt lat="44.6844" lon="3.82474">
        <ele>1074.1484375</ele>
        <time>2020-10-16T09:17:30.929Z</time>
      </trkpt>
      <trkpt lat="44.6843" lon="3.82456">
        <ele>1077.4340820312</ele>
        <time>2020-10-16T09:17:32.393Z</time>
      </trkpt>
      <trkpt lat="44.68416" lon="3.82437">
        <ele>1080.5444335938</ele>
        <time>2020-10-16T09:17:33.861Z</time>
      </trkpt>
      <trkpt lat="44.68408" lon="3.82426">
        <ele>1081.1207275391</ele>
        <time>2020-10-16T09:17:35.331Z</time>
      </trkpt>
      <trkpt lat="44.68399" lon="3.82415">
        <ele>1081.6970214844</ele>
        <time>2020-10-16T09:17:36.804Z</time>
      </trkpt>
      <trkpt lat="44.68391" lon="3.82397">
        <ele>1083.0194091797</ele>
        <time>2020-10-16T09:17:38.280Z</time>
      </trkpt>
      <trkpt lat="44.68382" lon="3.82379">
        <ele>1084.341796875</ele>
        <time>2020-10-16T09:17:39.759Z</time>
      </trkpt>
      <trkpt lat="44.68374" lon="3.82361">
        <ele>1085.6641845703</ele>
        <time>2020-10-16T09:17:41.241Z</time>
      </trkpt>
      <trkpt lat="44.68365" lon="3.82342">
        <ele>1088.5562744141</ele>
        <time>2020-10-16T09:17:42.726Z</time>
      </trkpt>
      <trkpt lat="44.68358" lon="3.82324">
        <ele>1091.9128417969</ele>
        <time>2020-10-16T09:17:44.214Z</time>
      </trkpt>
      <trkpt lat="44.68356" lon="3.82301">
        <ele>1095.9133300781</ele>
        <time>2020-10-16T09:17:45.705Z</time>
      </trkpt>
      <trkpt lat="44.68354" lon="3.82278">
        <ele>1099.9138183594</ele>
        <time>2020-10-16T09:17:47.200Z</time>
      </trkpt>
      <trkpt lat="44.68353" lon="3.82255">
        <ele>1103.5015869141</ele>
        <time>2020-10-16T09:17:48.698Z</time>
      </trkpt>
      <trkpt lat="44.68347" lon="3.82241">
        <ele>1105.4954833984</ele>
        <time>2020-10-16T09:17:50.198Z</time>
      </trkpt>
      <trkpt lat="44.68338" lon="3.82232">
        <ele>1107.2828369141</ele>
        <time>2020-10-16T09:17:51.700Z</time>
      </trkpt>
      <trkpt lat="44.68326" lon="3.82226">
        <ele>1109.2153320312</ele>
        <time>2020-10-16T09:17:53.205Z</time>
      </trkpt>
      <trkpt lat="44.68314" lon="3.82219">
        <ele>1110.9814453125</ele>
        <time>2020-10-16T09:17:54.713Z</time>
      </trkpt>
      <trkpt lat="44.68295" lon="3.82209">
        <ele>1113.5466308594</ele>
        <time>2020-10-16T09:17:56.224Z</time>
      </trkpt>
      <trkpt lat="44.68277" lon="3.82199">
        <ele>1115.6744384766</ele>
        <time>2020-10-16T09:17:57.739Z</time>
      </trkpt>
      <trkpt lat="44.68259" lon="3.8219">
        <ele>1117.1887207031</ele>
        <time>2020-10-16T09:17:59.258Z</time>
      </trkpt>
      <trkpt lat="44.68243" lon="3.82179">
        <ele>1118.0745849609</ele>
        <time>2020-10-16T09:18:00.781Z</time>
      </trkpt>
      <trkpt lat="44.68228" lon="3.82169">
        <ele>1118.8754882812</ele>
        <time>2020-10-16T09:18:02.307Z</time>
      </trkpt>
      <trkpt lat="44.68214" lon="3.82153">
        <ele>1119.9945068359</ele>
        <time>2020-10-16T09:18:03.837Z</time>
      </trkpt>
      <trkpt lat="44.68203" lon="3.82136">
        <ele>1121.1408691406</ele>
        <time>2020-10-16T09:18:05.370Z</time>
      </trkpt>
      <trkpt lat="44.68202" lon="3.82117">
        <ele>1122.1885986328</ele>
        <time>2020-10-16T09:18:06.906Z</time>
      </trkpt>
      <trkpt lat="44.68201" lon="3.82098">
        <ele>1123.1313476562</ele>
        <time>2020-10-16T09:18:08.444Z</time>
      </trkpt>
      <trkpt lat="44.68198" lon="3.82075">
        <ele>1124.1883544922</ele>
        <time>2020-10-16T09:18:09.986Z</time>
      </trkpt>
      <trkpt lat="44.68195" lon="3.82051">
        <ele>1125.2453613281</ele>
        <time>2020-10-16T09:18:11.531Z</time>
      </trkpt>
      <trkpt lat="44.68194" lon="3.82029">
        <ele>1126.5462646484</ele>
        <time>2020-10-16T09:18:13.079Z</time>
      </trkpt>
      <trkpt lat="44.68194" lon="3.82007">
        <ele>1127.9388427734</ele>
        <time>2020-10-16T09:18:14.631Z</time>
      </trkpt>
      <trkpt lat="44.68196" lon="3.81986">
        <ele>1128.5179443359</ele>
        <time>2020-10-16T09:18:16.186Z</time>
      </trkpt>
      <trkpt lat="44.68197" lon="3.81964">
        <ele>1129.0970458984</ele>
        <time>2020-10-16T09:18:17.744Z</time>
      </trkpt>
      <trkpt lat="44.68196" lon="3.81948">
        <ele>1129.4188232422</ele>
        <time>2020-10-16T09:18:19.304Z</time>
      </trkpt>
      <trkpt lat="44.68195" lon="3.81933">
        <ele>1130.4036865234</ele>
        <time>2020-10-16T09:18:20.866Z</time>
      </trkpt>
      <trkpt lat="44.68196" lon="3.81917">
        <ele>1132.3474121094</ele>
        <time>2020-10-16T09:18:22.430Z</time>
      </trkpt>
      <trkpt lat="44.68204" lon="3.81899">
        <ele>1134.8131103516</ele>
        <time>2020-10-16T09:18:23.997Z</time>
      </trkpt>
      <trkpt lat="44.68209" lon="3.81881">
        <ele>1137.0327148438</ele>
        <time>2020-10-16T09:18:25.567Z</time>
      </trkpt>
      <trkpt lat="44.68209" lon="3.81863">
        <ele>1139.1735839844</ele>
        <time>2020-10-16T09:18:27.140Z</time>
      </trkpt>
      <trkpt lat="44.68192" lon="3.81863">
        <ele>1138.6837158203</ele>
        <time>2020-10-16T09:18:28.716Z</time>
      </trkpt>
      <trkpt lat="44.68176" lon="3.81864">
        <ele>1138.0087890625</ele>
        <time>2020-10-16T09:18:30.295Z</time>
      </trkpt>
      <trkpt lat="44.68157" lon="3.81864">
        <ele>1137.3198242188</ele>
        <time>2020-10-16T09:18:31.878Z</time>
      </trkpt>
      <trkpt lat="44.68135" lon="3.81864">
        <ele>1136.5535888672</ele>
        <time>2020-10-16T09:18:33.466Z</time>
      </trkpt>
      <trkpt lat="44.68128" lon="3.81861">
        <ele>1136.5736083984</ele>
        <time>2020-10-16T09:18:35.055Z</time>
      </trkpt>
      <trkpt lat="44.68121" lon="3.81853">
        <ele>1137.2139892578</ele>
        <time>2020-10-16T09:18:36.646Z</time>
      </trkpt>
      <trkpt lat="44.68114" lon="3.81853">
        <ele>1136.7358398438</ele>
        <time>2020-10-16T09:18:38.238Z</time>
      </trkpt>
      <trkpt lat="44.68092" lon="3.81843">
        <ele>1135.8928222656</ele>
        <time>2020-10-16T09:18:39.835Z</time>
      </trkpt>
      <trkpt lat="44.68082" lon="3.81835">
        <ele>1135.7231445312</ele>
        <time>2020-10-16T09:18:41.434Z</time>
      </trkpt>
      <trkpt lat="44.68076" lon="3.81831">
        <ele>1135.6196289062</ele>
        <time>2020-10-16T09:18:43.035Z</time>
      </trkpt>
      <trkpt lat="44.68066" lon="3.81822">
        <ele>1135.5030517578</ele>
        <time>2020-10-16T09:18:44.638Z</time>
      </trkpt>
      <trkpt lat="44.68053" lon="3.81818">
        <ele>1134.84375</ele>
        <time>2020-10-16T09:18:46.244Z</time>
      </trkpt>
      <trkpt lat="44.68042" lon="3.81817">
        <ele>1134.2260742188</ele>
        <time>2020-10-16T09:18:47.852Z</time>
      </trkpt>
      <trkpt lat="44.68032" lon="3.81815">
        <ele>1133.8851318359</ele>
        <time>2020-10-16T09:18:49.462Z</time>
      </trkpt>
      <trkpt lat="44.68019" lon="3.81821">
        <ele>1133.4691162109</ele>
        <time>2020-10-16T09:18:51.075Z</time>
      </trkpt>
      <trkpt lat="44.68002" lon="3.81818">
        <ele>1133.6555175781</ele>
        <time>2020-10-16T09:18:52.691Z</time>
      </trkpt>
      <trkpt lat="44.67989" lon="3.81817">
        <ele>1133.6160888672</ele>
        <time>2020-10-16T09:18:54.310Z</time>
      </trkpt>
      <trkpt lat="44.6798" lon="3.81819">
        <ele>1133.3475341797</ele>
        <time>2020-10-16T09:18:55.930Z</time>
      </trkpt>
      <trkpt lat="44.67971" lon="3.81829">
        <ele>1132.4372558594</ele>
        <time>2020-10-16T09:18:57.553Z</time>
      </trkpt>
      <trkpt lat="44.67961" lon="3.81841">
        <ele>1131.3076171875</ele>
        <time>2020-10-16T09:18:59.178Z</time>
      </trkpt>
      <trkpt lat="44.6795" lon="3.81847">
        <ele>1130.3580322266</ele>
        <time>2020-10-16T09:19:00.806Z</time>
      </trkpt>
      <trkpt lat="44.67937" lon="3.81851">
        <ele>1129.2690429688</ele>
        <time>2020-10-16T09:19:02.436Z</time>
      </trkpt>
      <trkpt lat="44.67924" lon="3.81854">
        <ele>1128.3013916016</ele>
        <time>2020-10-16T09:19:04.069Z</time>
      </trkpt>
      <trkpt lat="44.67908" lon="3.81855">
        <ele>1127.2985839844</ele>
        <time>2020-10-16T09:19:05.705Z</time>
      </trkpt>
      <trkpt lat="44.67891" lon="3.81856">
        <ele>1126.1973876953</ele>
        <time>2020-10-16T09:19:07.345Z</time>
      </trkpt>
      <trkpt lat="44.67877" lon="3.81847">
        <ele>1125.8616943359</ele>
        <time>2020-10-16T09:19:08.988Z</time>
      </trkpt>
      <trkpt lat="44.67866" lon="3.81833">
        <ele>1126.2888183594</ele>
        <time>2020-10-16T09:19:10.634Z</time>
      </trkpt>
      <trkpt lat="44.67854" lon="3.81823">
        <ele>1127.4956054688</ele>
        <time>2020-10-16T09:19:12.282Z</time>
      </trkpt>
      <trkpt lat="44.67846" lon="3.81813">
        <ele>1128.4639892578</ele>
        <time>2020-10-16T09:19:13.933Z</time>
      </trkpt>
      <trkpt lat="44.67838" lon="3.81807">
        <ele>1129.2325439453</ele>
        <time>2020-10-16T09:19:15.585Z</time>
      </trkpt>
      <trkpt lat="44.67832" lon="3.81802">
        <ele>1129.7742919922</ele>
        <time>2020-10-16T09:19:17.239Z</time>
      </trkpt>
      <trkpt lat="44.67821" lon="3.81803">
        <ele>1130.4154052734</ele>
        <time>2020-10-16T09:19:18.895Z</time>
      </trkpt>
      <trkpt lat="44.67813" lon="3.81808">
        <ele>1130.4852294922</ele>
        <time>2020-10-16T09:19:20.553Z</time>
      </trkpt>
      <trkpt lat="44.67794" lon="3.81822">
        <ele>1130.0947265625</ele>
        <time>2020-10-16T09:19:22.215Z</time>
      </trkpt>
      <trkpt lat="44.67778" lon="3.81833">
        <ele>1129.4910888672</ele>
        <time>2020-10-16T09:19:23.881Z</time>
      </trkpt>
      <trkpt lat="44.67766" lon="3.81842">
        <ele>1128.6387939453</ele>
        <time>2020-10-16T09:19:25.549Z</time>
      </trkpt>
      <trkpt lat="44.67752" lon="3.81845">
        <ele>1128.0463867188</ele>
        <time>2020-10-16T09:19:27.220Z</time>
      </trkpt>
      <trkpt lat="44.6774" lon="3.81843">
        <ele>1127.9183349609</ele>
        <time>2020-10-16T09:19:28.894Z</time>
      </trkpt>
      <trkpt lat="44.67722" lon="3.8184">
        <ele>1127.7276611328</ele>
        <time>2020-10-16T09:19:30.571Z</time>
      </trkpt>
      <trkpt lat="44.67703" lon="3.81838">
        <ele>1127.4300537109</ele>
        <time>2020-10-16T09:19:32.252Z</time>
      </trkpt>
      <trkpt lat="44.6769" lon="3.81835">
        <ele>1126.9289550781</ele>
        <time>2020-10-16T09:19:33.936Z</time>
      </trkpt>
      <trkpt lat="44.67676" lon="3.81833">
        <ele>1126.6444091797</ele>
        <time>2020-10-16T09:19:35.622Z</time>
      </trkpt>
      <trkpt lat="44.67667" lon="3.81825">
        <ele>1126.8686523438</ele>
        <time>2020-10-16T09:19:37.311Z</time>
      </trkpt>
      <trkpt lat="44.67663" lon="3.81817">
        <ele>1126.9501953125</ele>
        <time>2020-10-16T09:19:39.001Z</time>
      </trkpt>
      <trkpt lat="44.67658" lon="3.81809">
        <ele>1127.2127685547</ele>
        <time>2020-10-16T09:19:40.692Z</time>
      </trkpt>
      <trkpt lat="44.67649" lon="3.81806">
        <ele>1127.2982177734</ele>
        <time>2020-10-16T09:19:42.385Z</time>
      </trkpt>
      <trkpt lat="44.67639" lon="3.81811">
        <ele>1127.5422363281</ele>
        <time>2020-10-16T09:19:44.081Z</time>
      </trkpt>
      <trkpt lat="44.67628" lon="3.81821">
        <ele>1127.8010253906</ele>
        <time>2020-10-16T09:19:45.779Z</time>
      </trkpt>
      <trkpt lat="44.6762" lon="3.81832">
        <ele>1127.9916992188</ele>
        <time>2020-10-16T09:19:47.479Z</time>
      </trkpt>
      <trkpt lat="44.67609" lon="3.81851">
        <ele>1129.3016357422</ele>
        <time>2020-10-16T09:19:49.183Z</time>
      </trkpt>
      <trkpt lat="44.67602" lon="3.81872">
        <ele>1129.6311035156</ele>
        <time>2020-10-16T09:19:50.890Z</time>
      </trkpt>
      <trkpt lat="44.67595" lon="3.8189">
        <ele>1129.3404541016</ele>
        <time>2020-10-16T09:19:52.600Z</time>
      </trkpt>
      <trkpt lat="44.67589" lon="3.81918">
        <ele>1129.3419189453</ele>
        <time>2020-10-16T09:19:54.314Z</time>
      </trkpt>
      <trkpt lat="44.67584" lon="3.81948">
        <ele>1130.8780517578</ele>
        <time>2020-10-16T09:19:56.033Z</time>
      </trkpt>
      <trkpt lat="44.67585" lon="3.81978">
        <ele>1130.8134765625</ele>
        <time>2020-10-16T09:19:57.756Z</time>
      </trkpt>
      <trkpt lat="44.67581" lon="3.8201">
        <ele>1131.7121582031</ele>
        <time>2020-10-16T09:19:59.483Z</time>
      </trkpt>
      <trkpt lat="44.6758" lon="3.82015">
        <ele>1132.0024414062</ele>
        <time>2020-10-16T09:20:01.211Z</time>
      </trkpt>
      <trkpt lat="44.67577" lon="3.8203">
        <ele>1132.7340087891</ele>
        <time>2020-10-16T09:20:02.942Z</time>
      </trkpt>
      <trkpt lat="44.67569" lon="3.82053">
        <ele>1134.3924560547</ele>
        <time>2020-10-16T09:20:04.676Z</time>
      </trkpt>
      <trkpt lat="44.67566" lon="3.82063">
        <ele>1134.5458984375</ele>
        <time>2020-10-16T09:20:06.412Z</time>
      </trkpt>
      <trkpt lat="44.67563" lon="3.82077">
        <ele>1134.2529296875</ele>
        <time>2020-10-16T09:20:08.150Z</time>
      </trkpt>
      <trkpt lat="44.67563" lon="3.82104">
        <ele>1132.6912841797</ele>
        <time>2020-10-16T09:20:09.892Z</time>
      </trkpt>
      <trkpt lat="44.67561" lon="3.82131">
        <ele>1132.3187255859</ele>
        <time>2020-10-16T09:20:11.637Z</time>
      </trkpt>
      <trkpt lat="44.67561" lon="3.82152">
        <ele>1131.6202392578</ele>
        <time>2020-10-16T09:20:13.386Z</time>
      </trkpt>
      <trkpt lat="44.67561" lon="3.82173">
        <ele>1130.841796875</ele>
        <time>2020-10-16T09:20:15.138Z</time>
      </trkpt>
      <trkpt lat="44.6756" lon="3.82194">
        <ele>1130.1242675781</ele>
        <time>2020-10-16T09:20:16.893Z</time>
      </trkpt>
      <trkpt lat="44.6756" lon="3.8221">
        <ele>1129.2186279297</ele>
        <time>2020-10-16T09:20:18.650Z</time>
      </trkpt>
      <trkpt lat="44.67557" lon="3.82233">
        <ele>1129.0404052734</ele>
        <time>2020-10-16T09:20:20.410Z</time>
      </trkpt>
      <trkpt lat="44.67552" lon="3.82258">
        <ele>1129.2136230469</ele>
        <time>2020-10-16T09:20:22.174Z</time>
      </trkpt>
      <trkpt lat="44.6755" lon="3.82269">
        <ele>1129.0867919922</ele>
        <time>2020-10-16T09:20:23.939Z</time>
      </trkpt>
      <trkpt lat="44.6755" lon="3.8227">
        <ele>1129.1605224609</ele>
        <time>2020-10-16T09:20:25.705Z</time>
      </trkpt>
      <trkpt lat="44.67543" lon="3.82282">
        <ele>1129.771484375</ele>
        <time>2020-10-16T09:20:27.473Z</time>
      </trkpt>
      <trkpt lat="44.67538" lon="3.82288">
        <ele>1130.4838867188</ele>
        <time>2020-10-16T09:20:29.242Z</time>
      </trkpt>
      <trkpt lat="44.67532" lon="3.82295">
        <ele>1131.0225830078</ele>
        <time>2020-10-16T09:20:31.013Z</time>
      </trkpt>
      <trkpt lat="44.6753" lon="3.82298">
        <ele>1131.1157226562</ele>
        <time>2020-10-16T09:20:32.784Z</time>
      </trkpt>
      <trkpt lat="44.67528" lon="3.82303">
        <ele>1131.2253417969</ele>
        <time>2020-10-16T09:20:34.556Z</time>
      </trkpt>
      <trkpt lat="44.67524" lon="3.8231">
        <ele>1131.416015625</ele>
        <time>2020-10-16T09:20:36.329Z</time>
      </trkpt>
      <trkpt lat="44.6752" lon="3.82317">
        <ele>1131.4635009766</ele>
        <time>2020-10-16T09:20:38.104Z</time>
      </trkpt>
      <trkpt lat="44.67517" lon="3.82326">
        <ele>1131.384765625</ele>
        <time>2020-10-16T09:20:39.880Z</time>
      </trkpt>
      <trkpt lat="44.67514" lon="3.82334">
        <ele>1131.1943359375</ele>
        <time>2020-10-16T09:20:41.657Z</time>
      </trkpt>
      <trkpt lat="44.67513" lon="3.82343">
        <ele>1130.7332763672</ele>
        <time>2020-10-16T09:20:43.436Z</time>
      </trkpt>
      <trkpt lat="44.67511" lon="3.82353">
        <ele>1130.1184082031</ele>
        <time>2020-10-16T09:20:45.216Z</time>
      </trkpt>
      <trkpt lat="44.67511" lon="3.82362">
        <ele>1129.4741210938</ele>
        <time>2020-10-16T09:20:46.997Z</time>
      </trkpt>
      <trkpt lat="44.6751" lon="3.82371">
        <ele>1128.8190917969</ele>
        <time>2020-10-16T09:20:48.780Z</time>
      </trkpt>
      <trkpt lat="44.67509" lon="3.8238">
        <ele>1128.1687011719</ele>
        <time>2020-10-16T09:20:50.564Z</time>
      </trkpt>
      <trkpt lat="44.67508" lon="3.82389">
        <ele>1127.6197509766</ele>
        <time>2020-10-16T09:20:52.349Z</time>
      </trkpt>
      <trkpt lat="44.67505" lon="3.82397">
        <ele>1127.3073730469</ele>
        <time>2020-10-16T09:20:54.136Z</time>
      </trkpt>
      <trkpt lat="44.67502" lon="3.82405">
        <ele>1127.1953125</ele>
        <time>2020-10-16T09:20:55.924Z</time>
      </trkpt>
      <trkpt lat="44.67497" lon="3.82412">
        <ele>1126.9149169922</ele>
        <time>2020-10-16T09:20:57.713Z</time>
      </trkpt>
      <trkpt lat="44.67492" lon="3.82418">
        <ele>1126.7731933594</ele>
        <time>2020-10-16T09:20:59.504Z</time>
      </trkpt>
      <trkpt lat="44.67487" lon="3.82424">
        <ele>1126.7357177734</ele>
        <time>2020-10-16T09:21:01.296Z</time>
      </trkpt>
      <trkpt lat="44.67481" lon="3.82429">
        <ele>1126.8382568359</ele>
        <time>2020-10-16T09:21:03.089Z</time>
      </trkpt>
      <trkpt lat="44.67475" lon="3.82433">
        <ele>1127.1092529297</ele>
        <time>2020-10-16T09:21:04.884Z</time>
      </trkpt>
      <trkpt lat="44.67469" lon="3.82435">
        <ele>1127.6232910156</ele>
        <time>2020-10-16T09:21:06.680Z</time>
      </trkpt>
      <trkpt lat="44.67462" lon="3.82435">
        <ele>1128.3687744141</ele>
        <time>2020-10-16T09:21:08.477Z</time>
      </trkpt>
      <trkpt lat="44.67455" lon="3.82435">
        <ele>1129.2604980469</ele>
        <time>2020-10-16T09:21:10.276Z</time>
      </trkpt>
      <trkpt lat="44.67448" lon="3.82434">
        <ele>1129.8430175781</ele>
        <time>2020-10-16T09:21:12.076Z</time>
      </trkpt>
      <trkpt lat="44.67432" lon="3.82435">
        <ele>1130.5334472656</ele>
        <time>2020-10-16T09:21:13.879Z</time>
      </trkpt>
      <trkpt lat="44.67424" lon="3.82435">
        <ele>1130.8690185547</ele>
        <time>2020-10-16T09:21:15.684Z</time>
      </trkpt>
      <trkpt lat="44.67416" lon="3.82435">
        <ele>1131.2081298828</ele>
        <time>2020-10-16T09:21:17.490Z</time>
      </trkpt>
      <trkpt lat="44.67408" lon="3.82436">
        <ele>1131.5139160156</ele>
        <time>2020-10-16T09:21:19.298Z</time>
      </trkpt>
      <trkpt lat="44.674" lon="3.82437">
        <ele>1131.8106689453</ele>
        <time>2020-10-16T09:21:21.108Z</time>
      </trkpt>
      <trkpt lat="44.67393" lon="3.82437">
        <ele>1132.1278076172</ele>
        <time>2020-10-16T09:21:22.919Z</time>
      </trkpt>
      <trkpt lat="44.67385" lon="3.82437">
        <ele>1132.4423828125</ele>
        <time>2020-10-16T09:21:24.732Z</time>
      </trkpt>
      <trkpt lat="44.67377" lon="3.82438">
        <ele>1132.7442626953</ele>
        <time>2020-10-16T09:21:26.546Z</time>
      </trkpt>
      <trkpt lat="44.6737" lon="3.82439">
        <ele>1133.0047607422</ele>
        <time>2020-10-16T09:21:28.362Z</time>
      </trkpt>
      <trkpt lat="44.67363" lon="3.82439">
        <ele>1132.7220458984</ele>
        <time>2020-10-16T09:21:30.179Z</time>
      </trkpt>
      <trkpt lat="44.67356" lon="3.8244">
        <ele>1132.4642333984</ele>
        <time>2020-10-16T09:21:31.998Z</time>
      </trkpt>
      <trkpt lat="44.67349" lon="3.8244">
        <ele>1132.2368164062</ele>
        <time>2020-10-16T09:21:33.818Z</time>
      </trkpt>
      <trkpt lat="44.67342" lon="3.8244">
        <ele>1132.0153808594</ele>
        <time>2020-10-16T09:21:35.639Z</time>
      </trkpt>
      <trkpt lat="44.67335" lon="3.82441">
        <ele>1131.7907714844</ele>
        <time>2020-10-16T09:21:37.462Z</time>
      </trkpt>
      <trkpt lat="44.67328" lon="3.82441">
        <ele>1131.5789794922</ele>
        <time>2020-10-16T09:21:39.286Z</time>
      </trkpt>
      <trkpt lat="44.67321" lon="3.82441">
        <ele>1131.3786621094</ele>
        <time>2020-10-16T09:21:41.111Z</time>
      </trkpt>
      <trkpt lat="44.67315" lon="3.82441">
        <ele>1131.2242431641</ele>
        <time>2020-10-16T09:21:42.938Z</time>
      </trkpt>
      <trkpt lat="44.67308" lon="3.82441">
        <ele>1131.0943603516</ele>
        <time>2020-10-16T09:21:44.766Z</time>
      </trkpt>
      <trkpt lat="44.67302" lon="3.8244">
        <ele>1131.0434570312</ele>
        <time>2020-10-16T09:21:46.595Z</time>
      </trkpt>
      <trkpt lat="44.67296" lon="3.82439">
        <ele>1131.1262207031</ele>
        <time>2020-10-16T09:21:48.426Z</time>
      </trkpt>
      <trkpt lat="44.6729" lon="3.82437">
        <ele>1131.2453613281</ele>
        <time>2020-10-16T09:21:50.258Z</time>
      </trkpt>
      <trkpt lat="44.67284" lon="3.82434">
        <ele>1131.2561035156</ele>
        <time>2020-10-16T09:21:52.091Z</time>
      </trkpt>
      <trkpt lat="44.67279" lon="3.82431">
        <ele>1131.1038818359</ele>
        <time>2020-10-16T09:21:53.925Z</time>
      </trkpt>
      <trkpt lat="44.67275" lon="3.82427">
        <ele>1131.0344238281</ele>
        <time>2020-10-16T09:21:55.760Z</time>
      </trkpt>
      <trkpt lat="44.6727" lon="3.82422">
        <ele>1131.0502929688</ele>
        <time>2020-10-16T09:21:57.596Z</time>
      </trkpt>
      <trkpt lat="44.67266" lon="3.82417">
        <ele>1131.1336669922</ele>
        <time>2020-10-16T09:21:59.433Z</time>
      </trkpt>
      <trkpt lat="44.67261" lon="3.82412">
        <ele>1131.2420654297</ele>
        <time>2020-10-16T09:22:01.272Z</time>
      </trkpt>
      <trkpt lat="44.67257" lon="3.82407">
        <ele>1131.2983398438</ele>
        <time>2020-10-16T09:22:03.112Z</time>
      </trkpt>
      <trkpt lat="44.67253" lon="3.82402">
        <ele>1131.2895507812</ele>
        <time>2020-10-16T09:22:04.953Z</time>
      </trkpt>
      <trkpt lat="44.67222" lon="3.82394">
        <ele>1130.0665283203</ele>
        <time>2020-10-16T09:22:06.800Z</time>
      </trkpt>
      <trkpt lat="44.67201" lon="3.82389">
        <ele>1129.2468261719</ele>
        <time>2020-10-16T09:22:08.651Z</time>
      </trkpt>
      <trkpt lat="44.67183" lon="3.82385">
        <ele>1128.1669921875</ele>
        <time>2020-10-16T09:22:10.506Z</time>
      </trkpt>
      <trkpt lat="44.67167" lon="3.82381">
        <ele>1127.2075195312</ele>
        <time>2020-10-16T09:22:12.364Z</time>
      </trkpt>
      <trkpt lat="44.67137" lon="3.82382">
        <ele>1124.8586425781</ele>
        <time>2020-10-16T09:22:14.228Z</time>
      </trkpt>
      <trkpt lat="44.67092" lon="3.8239">
        <ele>1121.9093017578</ele>
        <time>2020-10-16T09:22:16.101Z</time>
      </trkpt>
      <trkpt lat="44.67091" lon="3.82395">
        <ele>1121.5908203125</ele>
        <time>2020-10-16T09:22:17.975Z</time>
      </trkpt>
      <trkpt lat="44.6709" lon="3.824">
        <ele>1121.2507324219</ele>
        <time>2020-10-16T09:22:19.850Z</time>
      </trkpt>
      <trkpt lat="44.67083" lon="3.82408">
        <ele>1120.6080322266</ele>
        <time>2020-10-16T09:22:21.726Z</time>
      </trkpt>
      <trkpt lat="44.67068" lon="3.82425">
        <ele>1119.40625</ele>
        <time>2020-10-16T09:22:23.606Z</time>
      </trkpt>
      <trkpt lat="44.67036" lon="3.82461">
        <ele>1117.6929931641</ele>
        <time>2020-10-16T09:22:25.495Z</time>
      </trkpt>
      <trkpt lat="44.67009" lon="3.82489">
        <ele>1115.0998535156</ele>
        <time>2020-10-16T09:22:27.390Z</time>
      </trkpt>
      <trkpt lat="44.66973" lon="3.82522">
        <ele>1113.974609375</ele>
        <time>2020-10-16T09:22:29.294Z</time>
      </trkpt>
      <trkpt lat="44.66956" lon="3.82537">
        <ele>1112.3713378906</ele>
        <time>2020-10-16T09:22:31.202Z</time>
      </trkpt>
      <trkpt lat="44.66939" lon="3.82549">
        <ele>1109.6336669922</ele>
        <time>2020-10-16T09:22:33.114Z</time>
      </trkpt>
      <trkpt lat="44.66932" lon="3.82555">
        <ele>1108.1434326172</ele>
        <time>2020-10-16T09:22:35.027Z</time>
      </trkpt>
      <trkpt lat="44.66921" lon="3.82561">
        <ele>1105.9477539062</ele>
        <time>2020-10-16T09:22:36.943Z</time>
      </trkpt>
      <trkpt lat="44.66909" lon="3.82569">
        <ele>1103.7852783203</ele>
        <time>2020-10-16T09:22:38.861Z</time>
      </trkpt>
      <trkpt lat="44.66899" lon="3.8257">
        <ele>1102.5142822266</ele>
        <time>2020-10-16T09:22:40.781Z</time>
      </trkpt>
      <trkpt lat="44.66889" lon="3.82566">
        <ele>1101.1314697266</ele>
        <time>2020-10-16T09:22:42.703Z</time>
      </trkpt>
      <trkpt lat="44.66884" lon="3.82562">
        <ele>1100.3363037109</ele>
        <time>2020-10-16T09:22:44.627Z</time>
      </trkpt>
      <trkpt lat="44.66877" lon="3.82561">
        <ele>1099.4114990234</ele>
        <time>2020-10-16T09:22:46.552Z</time>
      </trkpt>
      <trkpt lat="44.66872" lon="3.82561">
        <ele>1098.7315673828</ele>
        <time>2020-10-16T09:22:48.478Z</time>
      </trkpt>
      <trkpt lat="44.66867" lon="3.82565">
        <ele>1097.9537353516</ele>
        <time>2020-10-16T09:22:50.405Z</time>
      </trkpt>
      <trkpt lat="44.66869" lon="3.82572">
        <ele>1098.3845214844</ele>
        <time>2020-10-16T09:22:52.333Z</time>
      </trkpt>
      <trkpt lat="44.66872" lon="3.82579">
        <ele>1099.0244140625</ele>
        <time>2020-10-16T09:22:54.262Z</time>
      </trkpt>
      <trkpt lat="44.66883" lon="3.82594">
        <ele>1100.7026367188</ele>
        <time>2020-10-16T09:22:56.194Z</time>
      </trkpt>
      <trkpt lat="44.66883" lon="3.82608">
        <ele>1100.2846679688</ele>
        <time>2020-10-16T09:22:58.128Z</time>
      </trkpt>
      <trkpt lat="44.66873" lon="3.82611">
        <ele>1098.5377197266</ele>
        <time>2020-10-16T09:23:00.065Z</time>
      </trkpt>
      <trkpt lat="44.66856" lon="3.82612">
        <ele>1095.6458740234</ele>
        <time>2020-10-16T09:23:02.005Z</time>
      </trkpt>
      <trkpt lat="44.66839" lon="3.82612">
        <ele>1092.4090576172</ele>
        <time>2020-10-16T09:23:03.948Z</time>
      </trkpt>
      <trkpt lat="44.66826" lon="3.82616">
        <ele>1089.5782470703</ele>
        <time>2020-10-16T09:23:05.894Z</time>
      </trkpt>
      <trkpt lat="44.66812" lon="3.82625">
        <ele>1085.6533203125</ele>
        <time>2020-10-16T09:23:07.843Z</time>
      </trkpt>
      <trkpt lat="44.66798" lon="3.82633">
        <ele>1082.9685058594</ele>
        <time>2020-10-16T09:23:09.795Z</time>
      </trkpt>
      <trkpt lat="44.66787" lon="3.82641">
        <ele>1081.1762695312</ele>
        <time>2020-10-16T09:23:11.749Z</time>
      </trkpt>
      <trkpt lat="44.66775" lon="3.8264">
        <ele>1078.5675048828</ele>
        <time>2020-10-16T09:23:13.706Z</time>
      </trkpt>
      <trkpt lat="44.66764" lon="3.82636">
        <ele>1076.3693847656</ele>
        <time>2020-10-16T09:23:15.665Z</time>
      </trkpt>
      <trkpt lat="44.66758" lon="3.82647">
        <ele>1074.0500488281</ele>
        <time>2020-10-16T09:23:17.626Z</time>
      </trkpt>
      <trkpt lat="44.66755" lon="3.82652">
        <ele>1072.9869384766</ele>
        <time>2020-10-16T09:23:19.588Z</time>
      </trkpt>
      <trkpt lat="44.66752" lon="3.82663">
        <ele>1071.7091064453</ele>
        <time>2020-10-16T09:23:21.552Z</time>
      </trkpt>
      <trkpt lat="44.6675" lon="3.82671">
        <ele>1071.0050048828</ele>
        <time>2020-10-16T09:23:23.517Z</time>
      </trkpt>
      <trkpt lat="44.66741" lon="3.82676">
        <ele>1069.0057373047</ele>
        <time>2020-10-16T09:23:25.484Z</time>
      </trkpt>
      <trkpt lat="44.66736" lon="3.82675">
        <ele>1068.0515136719</ele>
        <time>2020-10-16T09:23:27.452Z</time>
      </trkpt>
      <trkpt lat="44.66732" lon="3.82668">
        <ele>1067.6448974609</ele>
        <time>2020-10-16T09:23:29.421Z</time>
      </trkpt>
      <trkpt lat="44.66731" lon="3.82657">
        <ele>1067.8961181641</ele>
        <time>2020-10-16T09:23:31.392Z</time>
      </trkpt>
      <trkpt lat="44.66727" lon="3.82652">
        <ele>1067.3508300781</ele>
        <time>2020-10-16T09:23:33.364Z</time>
      </trkpt>
      <trkpt lat="44.66721" lon="3.82649">
        <ele>1066.3041992188</ele>
        <time>2020-10-16T09:23:35.337Z</time>
      </trkpt>
      <trkpt lat="44.66717" lon="3.82646">
        <ele>1065.8513183594</ele>
        <time>2020-10-16T09:23:37.311Z</time>
      </trkpt>
      <trkpt lat="44.66715" lon="3.82639">
        <ele>1065.6040039062</ele>
        <time>2020-10-16T09:23:39.286Z</time>
      </trkpt>
      <trkpt lat="44.66708" lon="3.82638">
        <ele>1064.4903564453</ele>
        <time>2020-10-16T09:23:41.262Z</time>
      </trkpt>
      <trkpt lat="44.66701" lon="3.82624">
        <ele>1063.646484375</ele>
        <time>2020-10-16T09:23:43.241Z</time>
      </trkpt>
      <trkpt lat="44.66697" lon="3.82613">
        <ele>1063.1533203125</ele>
        <time>2020-10-16T09:23:45.221Z</time>
      </trkpt>
      <trkpt lat="44.66697" lon="3.82607">
        <ele>1063.3607177734</ele>
        <time>2020-10-16T09:23:47.202Z</time>
      </trkpt>
      <trkpt lat="44.66701" lon="3.82597">
        <ele>1064.0604248047</ele>
        <time>2020-10-16T09:23:49.185Z</time>
      </trkpt>
      <trkpt lat="44.66704" lon="3.82585">
        <ele>1063.9254150391</ele>
        <time>2020-10-16T09:23:51.170Z</time>
      </trkpt>
      <trkpt lat="44.66704" lon="3.82575">
        <ele>1063.4211425781</ele>
        <time>2020-10-16T09:23:53.156Z</time>
      </trkpt>
      <trkpt lat="44.667" lon="3.82571">
        <ele>1062.3023681641</ele>
        <time>2020-10-16T09:23:55.143Z</time>
      </trkpt>
      <trkpt lat="44.66696" lon="3.8257">
        <ele>1061.2956542969</ele>
        <time>2020-10-16T09:23:57.131Z</time>
      </trkpt>
      <trkpt lat="44.66691" lon="3.82574">
        <ele>1060.4848632812</ele>
        <time>2020-10-16T09:23:59.120Z</time>
      </trkpt>
      <trkpt lat="44.66683" lon="3.82584">
        <ele>1059.1810302734</ele>
        <time>2020-10-16T09:24:01.111Z</time>
      </trkpt>
      <trkpt lat="44.66676" lon="3.8259">
        <ele>1057.6071777344</ele>
        <time>2020-10-16T09:24:03.104Z</time>
      </trkpt>
      <trkpt lat="44.66669" lon="3.82598">
        <ele>1055.9881591797</ele>
        <time>2020-10-16T09:24:05.099Z</time>
      </trkpt>
      <trkpt lat="44.66663" lon="3.82609">
        <ele>1054.2114257812</ele>
        <time>2020-10-16T09:24:07.096Z</time>
      </trkpt>
      <trkpt lat="44.66659" lon="3.82623">
        <ele>1052.6733398438</ele>
        <time>2020-10-16T09:24:09.095Z</time>
      </trkpt>
      <trkpt lat="44.66655" lon="3.82633">
        <ele>1051.1271972656</ele>
        <time>2020-10-16T09:24:11.096Z</time>
      </trkpt>
      <trkpt lat="44.66651" lon="3.82634">
        <ele>1049.9886474609</ele>
        <time>2020-10-16T09:24:13.097Z</time>
      </trkpt>
      <trkpt lat="44.66643" lon="3.82631">
        <ele>1048.0594482422</ele>
        <time>2020-10-16T09:24:15.100Z</time>
      </trkpt>
      <trkpt lat="44.6664" lon="3.82623">
        <ele>1047.4415283203</ele>
        <time>2020-10-16T09:24:17.104Z</time>
      </trkpt>
      <trkpt lat="44.66638" lon="3.82613">
        <ele>1047.4350585938</ele>
        <time>2020-10-16T09:24:19.110Z</time>
      </trkpt>
      <trkpt lat="44.66636" lon="3.82604">
        <ele>1047.3704833984</ele>
        <time>2020-10-16T09:24:21.117Z</time>
      </trkpt>
      <trkpt lat="44.66635" lon="3.82592">
        <ele>1046.6481933594</ele>
        <time>2020-10-16T09:24:23.126Z</time>
      </trkpt>
      <trkpt lat="44.66634" lon="3.82584">
        <ele>1046.2872314453</ele>
        <time>2020-10-16T09:24:25.136Z</time>
      </trkpt>
      <trkpt lat="44.66638" lon="3.82574">
        <ele>1047.162109375</ele>
        <time>2020-10-16T09:24:27.148Z</time>
      </trkpt>
      <trkpt lat="44.66641" lon="3.82566">
        <ele>1047.7322998047</ele>
        <time>2020-10-16T09:24:29.161Z</time>
      </trkpt>
      <trkpt lat="44.66638" lon="3.8256">
        <ele>1046.7734375</ele>
        <time>2020-10-16T09:24:31.175Z</time>
      </trkpt>
      <trkpt lat="44.66632" lon="3.82564">
        <ele>1045.3375244141</ele>
        <time>2020-10-16T09:24:33.190Z</time>
      </trkpt>
      <trkpt lat="44.66627" lon="3.82574">
        <ele>1044.2404785156</ele>
        <time>2020-10-16T09:24:35.207Z</time>
      </trkpt>
      <trkpt lat="44.66622" lon="3.82585">
        <ele>1043.1231689453</ele>
        <time>2020-10-16T09:24:37.226Z</time>
      </trkpt>
      <trkpt lat="44.66615" lon="3.82595">
        <ele>1043.185546875</ele>
        <time>2020-10-16T09:24:39.247Z</time>
      </trkpt>
      <trkpt lat="44.66609" lon="3.8261">
        <ele>1043.9146728516</ele>
        <time>2020-10-16T09:24:41.270Z</time>
      </trkpt>
      <trkpt lat="44.66606" lon="3.82626">
        <ele>1043.4532470703</ele>
        <time>2020-10-16T09:24:43.296Z</time>
      </trkpt>
      <trkpt lat="44.66605" lon="3.82639">
        <ele>1043.0166015625</ele>
        <time>2020-10-16T09:24:45.324Z</time>
      </trkpt>
      <trkpt lat="44.66603" lon="3.82652">
        <ele>1042.5294189453</ele>
        <time>2020-10-16T09:24:47.354Z</time>
      </trkpt>
      <trkpt lat="44.66599" lon="3.82664">
        <ele>1042.3878173828</ele>
        <time>2020-10-16T09:24:49.385Z</time>
      </trkpt>
      <trkpt lat="44.66595" lon="3.82669">
        <ele>1042.5369873047</ele>
        <time>2020-10-16T09:24:51.417Z</time>
      </trkpt>
      <trkpt lat="44.6659" lon="3.82667">
        <ele>1043.1263427734</ele>
        <time>2020-10-16T09:24:53.451Z</time>
      </trkpt>
      <trkpt lat="44.66587" lon="3.82653">
        <ele>1044.1889648438</ele>
        <time>2020-10-16T09:24:55.487Z</time>
      </trkpt>
      <trkpt lat="44.66583" lon="3.82641">
        <ele>1045.2563476562</ele>
        <time>2020-10-16T09:24:57.525Z</time>
      </trkpt>
      <trkpt lat="44.66576" lon="3.82627">
        <ele>1046.6134033203</ele>
        <time>2020-10-16T09:24:59.565Z</time>
      </trkpt>
      <trkpt lat="44.66572" lon="3.82614">
        <ele>1047.6685791016</ele>
        <time>2020-10-16T09:25:01.607Z</time>
      </trkpt>
      <trkpt lat="44.66568" lon="3.82599">
        <ele>1048.4603271484</ele>
        <time>2020-10-16T09:25:03.651Z</time>
      </trkpt>
      <trkpt lat="44.66564" lon="3.82588">
        <ele>1048.6177978516</ele>
        <time>2020-10-16T09:25:05.697Z</time>
      </trkpt>
      <trkpt lat="44.66552" lon="3.82581">
        <ele>1049.7464599609</ele>
        <time>2020-10-16T09:25:07.746Z</time>
      </trkpt>
      <trkpt lat="44.66541" lon="3.82574">
        <ele>1050.7362060547</ele>
        <time>2020-10-16T09:25:09.797Z</time>
      </trkpt>
      <trkpt lat="44.66532" lon="3.82571">
        <ele>1051.0826416016</ele>
        <time>2020-10-16T09:25:11.850Z</time>
      </trkpt>
      <trkpt lat="44.66528" lon="3.82572">
        <ele>1051.0081787109</ele>
        <time>2020-10-16T09:25:13.904Z</time>
      </trkpt>
      <trkpt lat="44.66526" lon="3.82579">
        <ele>1051.1107177734</ele>
        <time>2020-10-16T09:25:15.959Z</time>
      </trkpt>
      <trkpt lat="44.66525" lon="3.82589">
        <ele>1051.326171875</ele>
        <time>2020-10-16T09:25:18.015Z</time>
      </trkpt>
      <trkpt lat="44.66522" lon="3.82597">
        <ele>1052.3428955078</ele>
        <time>2020-10-16T09:25:20.072Z</time>
      </trkpt>
      <trkpt lat="44.66518" lon="3.82613">
        <ele>1053.7768554688</ele>
        <time>2020-10-16T09:25:22.132Z</time>
      </trkpt>
      <trkpt lat="44.66511" lon="3.82635">
        <ele>1053.3106689453</ele>
        <time>2020-10-16T09:25:24.195Z</time>
      </trkpt>
      <trkpt lat="44.66505" lon="3.82646">
        <ele>1053.3560791016</ele>
        <time>2020-10-16T09:25:26.260Z</time>
      </trkpt>
      <trkpt lat="44.66501" lon="3.82659">
        <ele>1054.1046142578</ele>
        <time>2020-10-16T09:25:28.327Z</time>
      </trkpt>
      <trkpt lat="44.665" lon="3.82667">
        <ele>1055.4904785156</ele>
        <time>2020-10-16T09:25:30.395Z</time>
      </trkpt>
      <trkpt lat="44.66493" lon="3.82679">
        <ele>1059.6118164062</ele>
        <time>2020-10-16T09:25:32.466Z</time>
      </trkpt>
      <trkpt lat="44.66487" lon="3.82686">
        <ele>1062.5655517578</ele>
        <time>2020-10-16T09:25:34.538Z</time>
      </trkpt>
      <trkpt lat="44.66485" lon="3.82693">
        <ele>1063.2633056641</ele>
        <time>2020-10-16T09:25:36.611Z</time>
      </trkpt>
      <trkpt lat="44.66482" lon="3.82708">
        <ele>1063.7463378906</ele>
        <time>2020-10-16T09:25:38.686Z</time>
      </trkpt>
      <trkpt lat="44.6648" lon="3.82721">
        <ele>1064.3276367188</ele>
        <time>2020-10-16T09:25:40.763Z</time>
      </trkpt>
      <trkpt lat="44.66479" lon="3.82729">
        <ele>1065.0958251953</ele>
        <time>2020-10-16T09:25:42.842Z</time>
      </trkpt>
      <trkpt lat="44.66477" lon="3.82739">
        <ele>1066.7127685547</ele>
        <time>2020-10-16T09:25:44.922Z</time>
      </trkpt>
      <trkpt lat="44.66474" lon="3.82751">
        <ele>1068.4797363281</ele>
        <time>2020-10-16T09:25:47.004Z</time>
      </trkpt>
      <trkpt lat="44.66472" lon="3.8276">
        <ele>1069.6860351562</ele>
        <time>2020-10-16T09:25:49.087Z</time>
      </trkpt>
      <trkpt lat="44.66471" lon="3.82766">
        <ele>1070.3828125</ele>
        <time>2020-10-16T09:25:51.171Z</time>
      </trkpt>
      <trkpt lat="44.66468" lon="3.82777">
        <ele>1072.0739746094</ele>
        <time>2020-10-16T09:25:53.257Z</time>
      </trkpt>
      <trkpt lat="44.66467" lon="3.82785">
        <ele>1073.0239257812</ele>
        <time>2020-10-16T09:25:55.344Z</time>
      </trkpt>
      <trkpt lat="44.66464" lon="3.82792">
        <ele>1073.9483642578</ele>
        <time>2020-10-16T09:25:57.432Z</time>
      </trkpt>
      <trkpt lat="44.66464" lon="3.82806">
        <ele>1073.8653564453</ele>
        <time>2020-10-16T09:25:59.522Z</time>
      </trkpt>
      <trkpt lat="44.66462" lon="3.82814">
        <ele>1074.4119873047</ele>
        <time>2020-10-16T09:26:01.613Z</time>
      </trkpt>
      <trkpt lat="44.6646" lon="3.82822">
        <ele>1075.1469726562</ele>
        <time>2020-10-16T09:26:03.706Z</time>
      </trkpt>
      <trkpt lat="44.66459" lon="3.82832">
        <ele>1075.2498779297</ele>
        <time>2020-10-16T09:26:05.800Z</time>
      </trkpt>
      <trkpt lat="44.66459" lon="3.8284">
        <ele>1075.2680664062</ele>
        <time>2020-10-16T09:26:07.895Z</time>
      </trkpt>
      <trkpt lat="44.6646" lon="3.82853">
        <ele>1074.6604003906</ele>
        <time>2020-10-16T09:26:09.992Z</time>
      </trkpt>
      <trkpt lat="44.66465" lon="3.8286">
        <ele>1073.9915771484</ele>
        <time>2020-10-16T09:26:12.090Z</time>
      </trkpt>
      <trkpt lat="44.66468" lon="3.82869">
        <ele>1074.4934082031</ele>
        <time>2020-10-16T09:26:14.190Z</time>
      </trkpt>
      <trkpt lat="44.6647" lon="3.82875">
        <ele>1074.6502685547</ele>
        <time>2020-10-16T09:26:16.291Z</time>
      </trkpt>
      <trkpt lat="44.66481" lon="3.82888">
        <ele>1073.2913818359</ele>
        <time>2020-10-16T09:26:18.395Z</time>
      </trkpt>
      <trkpt lat="44.66487" lon="3.82896">
        <ele>1072.5002441406</ele>
        <time>2020-10-16T09:26:20.500Z</time>
      </trkpt>
      <trkpt lat="44.66492" lon="3.82904">
        <ele>1072.1057128906</ele>
        <time>2020-10-16T09:26:22.607Z</time>
      </trkpt>
      <trkpt lat="44.665" lon="3.82914">
        <ele>1071.0786132812</ele>
        <time>2020-10-16T09:26:24.716Z</time>
      </trkpt>
      <trkpt lat="44.6651" lon="3.82926">
        <ele>1069.7652587891</ele>
        <time>2020-10-16T09:26:26.828Z</time>
      </trkpt>
      <trkpt lat="44.66516" lon="3.82936">
        <ele>1069.1514892578</ele>
        <time>2020-10-16T09:26:28.941Z</time>
      </trkpt>
      <trkpt lat="44.66526" lon="3.82947">
        <ele>1068.6843261719</ele>
        <time>2020-10-16T09:26:31.057Z</time>
      </trkpt>
      <trkpt lat="44.66543" lon="3.82968">
        <ele>1069.0150146484</ele>
        <time>2020-10-16T09:26:33.178Z</time>
      </trkpt>
      <trkpt lat="44.66556" lon="3.82982">
        <ele>1069.9888916016</ele>
        <time>2020-10-16T09:26:35.302Z</time>
      </trkpt>
      <trkpt lat="44.66568" lon="3.82998">
        <ele>1071.1149902344</ele>
        <time>2020-10-16T09:26:37.429Z</time>
      </trkpt>
      <trkpt lat="44.66577" lon="3.83009">
        <ele>1071.8155517578</ele>
        <time>2020-10-16T09:26:39.558Z</time>
      </trkpt>
      <trkpt lat="44.66584" lon="3.83019">
        <ele>1072.6833496094</ele>
        <time>2020-10-16T09:26:41.689Z</time>
      </trkpt>
      <trkpt lat="44.66591" lon="3.83028">
        <ele>1073.2166748047</ele>
        <time>2020-10-16T09:26:43.822Z</time>
      </trkpt>
      <trkpt lat="44.66598" lon="3.83032">
        <ele>1073.1486816406</ele>
        <time>2020-10-16T09:26:45.957Z</time>
      </trkpt>
      <trkpt lat="44.66608" lon="3.83039">
        <ele>1073.0081787109</ele>
        <time>2020-10-16T09:26:48.094Z</time>
      </trkpt>
      <trkpt lat="44.66615" lon="3.83046">
        <ele>1073.2690429688</ele>
        <time>2020-10-16T09:26:50.233Z</time>
      </trkpt>
      <trkpt lat="44.66622" lon="3.83057">
        <ele>1073.8833007812</ele>
        <time>2020-10-16T09:26:52.374Z</time>
      </trkpt>
      <trkpt lat="44.66625" lon="3.83064">
        <ele>1074.6380615234</ele>
        <time>2020-10-16T09:26:54.516Z</time>
      </trkpt>
      <trkpt lat="44.66629" lon="3.83074">
        <ele>1075.4627685547</ele>
        <time>2020-10-16T09:26:56.660Z</time>
      </trkpt>
      <trkpt lat="44.66639" lon="3.8309">
        <ele>1076.2612304688</ele>
        <time>2020-10-16T09:26:58.807Z</time>
      </trkpt>
      <trkpt lat="44.66644" lon="3.831">
        <ele>1077.0386962891</ele>
        <time>2020-10-16T09:27:00.955Z</time>
      </trkpt>
      <trkpt lat="44.66648" lon="3.83109">
        <ele>1077.7058105469</ele>
        <time>2020-10-16T09:27:03.105Z</time>
      </trkpt>
      <trkpt lat="44.66658" lon="3.83123">
        <ele>1078.1009521484</ele>
        <time>2020-10-16T09:27:05.258Z</time>
      </trkpt>
      <trkpt lat="44.66674" lon="3.8314">
        <ele>1077.8076171875</ele>
        <time>2020-10-16T09:27:07.415Z</time>
      </trkpt>
      <trkpt lat="44.66688" lon="3.83155">
        <ele>1077.7008056641</ele>
        <time>2020-10-16T09:27:09.575Z</time>
      </trkpt>
      <trkpt lat="44.66706" lon="3.83173">
        <ele>1077.2841796875</ele>
        <time>2020-10-16T09:27:11.740Z</time>
      </trkpt>
      <trkpt lat="44.66718" lon="3.83185">
        <ele>1077.7241210938</ele>
        <time>2020-10-16T09:27:13.908Z</time>
      </trkpt>
      <trkpt lat="44.66723" lon="3.83192">
        <ele>1077.9519042969</ele>
        <time>2020-10-16T09:27:16.077Z</time>
      </trkpt>
      <trkpt lat="44.66728" lon="3.83202">
        <ele>1077.9639892578</ele>
        <time>2020-10-16T09:27:18.248Z</time>
      </trkpt>
      <trkpt lat="44.66733" lon="3.83214">
        <ele>1077.9844970703</ele>
        <time>2020-10-16T09:27:20.421Z</time>
      </trkpt>
      <trkpt lat="44.66738" lon="3.83226">
        <ele>1078.1978759766</ele>
        <time>2020-10-16T09:27:22.596Z</time>
      </trkpt>
      <trkpt lat="44.6674" lon="3.83238">
        <ele>1079.1014404297</ele>
        <time>2020-10-16T09:27:24.773Z</time>
      </trkpt>
      <trkpt lat="44.66742" lon="3.83253">
        <ele>1080.6158447266</ele>
        <time>2020-10-16T09:27:26.952Z</time>
      </trkpt>
      <trkpt lat="44.66744" lon="3.83273">
        <ele>1082.5299072266</ele>
        <time>2020-10-16T09:27:29.134Z</time>
      </trkpt>
      <trkpt lat="44.66747" lon="3.83288">
        <ele>1082.2423095703</ele>
        <time>2020-10-16T09:27:31.318Z</time>
      </trkpt>
      <trkpt lat="44.6675" lon="3.83313">
        <ele>1081.9625244141</ele>
        <time>2020-10-16T09:27:33.506Z</time>
      </trkpt>
      <trkpt lat="44.66753" lon="3.83331">
        <ele>1082.3532714844</ele>
        <time>2020-10-16T09:27:35.696Z</time>
      </trkpt>
      <trkpt lat="44.66759" lon="3.83355">
        <ele>1083.2069091797</ele>
        <time>2020-10-16T09:27:37.890Z</time>
      </trkpt>
      <trkpt lat="44.66763" lon="3.83371">
        <ele>1084.3166503906</ele>
        <time>2020-10-16T09:27:40.086Z</time>
      </trkpt>
      <trkpt lat="44.66769" lon="3.83383">
        <ele>1084.4534912109</ele>
        <time>2020-10-16T09:27:42.284Z</time>
      </trkpt>
      <trkpt lat="44.66775" lon="3.83394">
        <ele>1084.5889892578</ele>
        <time>2020-10-16T09:27:44.484Z</time>
      </trkpt>
      <trkpt lat="44.66779" lon="3.834">
        <ele>1084.2978515625</ele>
        <time>2020-10-16T09:27:46.686Z</time>
      </trkpt>
      <trkpt lat="44.6679" lon="3.83406">
        <ele>1082.8800048828</ele>
        <time>2020-10-16T09:27:48.890Z</time>
      </trkpt>
      <trkpt lat="44.66798" lon="3.83414">
        <ele>1082.8037109375</ele>
        <time>2020-10-16T09:27:51.096Z</time>
      </trkpt>
      <trkpt lat="44.66804" lon="3.83419">
        <ele>1082.7606201172</ele>
        <time>2020-10-16T09:27:53.303Z</time>
      </trkpt>
      <trkpt lat="44.6682" lon="3.83432">
        <ele>1082.5750732422</ele>
        <time>2020-10-16T09:27:55.514Z</time>
      </trkpt>
      <trkpt lat="44.66831" lon="3.8344">
        <ele>1082.3520507812</ele>
        <time>2020-10-16T09:27:57.727Z</time>
      </trkpt>
      <trkpt lat="44.66844" lon="3.83452">
        <ele>1083.2470703125</ele>
        <time>2020-10-16T09:27:59.944Z</time>
      </trkpt>
      <trkpt lat="44.66868" lon="3.8347">
        <ele>1084.2770996094</ele>
        <time>2020-10-16T09:28:02.166Z</time>
      </trkpt>
      <trkpt lat="44.66883" lon="3.83482">
        <ele>1084.4195556641</ele>
        <time>2020-10-16T09:28:04.391Z</time>
      </trkpt>
      <trkpt lat="44.66894" lon="3.83489">
        <ele>1083.8989257812</ele>
        <time>2020-10-16T09:28:06.619Z</time>
      </trkpt>
      <trkpt lat="44.66904" lon="3.83498">
        <ele>1084.2954101562</ele>
        <time>2020-10-16T09:28:08.849Z</time>
      </trkpt>
      <trkpt lat="44.66919" lon="3.83517">
        <ele>1085.7994384766</ele>
        <time>2020-10-16T09:28:11.083Z</time>
      </trkpt>
      <trkpt lat="44.66926" lon="3.83525">
        <ele>1086.3081054688</ele>
        <time>2020-10-16T09:28:13.319Z</time>
      </trkpt>
      <trkpt lat="44.66939" lon="3.83541">
        <ele>1086.8804931641</ele>
        <time>2020-10-16T09:28:15.559Z</time>
      </trkpt>
      <trkpt lat="44.66954" lon="3.83554">
        <ele>1086.4808349609</ele>
        <time>2020-10-16T09:28:17.802Z</time>
      </trkpt>
      <trkpt lat="44.66967" lon="3.83558">
        <ele>1085.9016113281</ele>
        <time>2020-10-16T09:28:20.048Z</time>
      </trkpt>
      <trkpt lat="44.66986" lon="3.83564">
        <ele>1084.9047851562</ele>
        <time>2020-10-16T09:28:22.298Z</time>
      </trkpt>
      <trkpt lat="44.67002" lon="3.8357">
        <ele>1084.2889404297</ele>
        <time>2020-10-16T09:28:24.551Z</time>
      </trkpt>
      <trkpt lat="44.67017" lon="3.83575">
        <ele>1083.3978271484</ele>
        <time>2020-10-16T09:28:26.807Z</time>
      </trkpt>
      <trkpt lat="44.67039" lon="3.83579">
        <ele>1081.8541259766</ele>
        <time>2020-10-16T09:28:29.067Z</time>
      </trkpt>
      <trkpt lat="44.67066" lon="3.83585">
        <ele>1082.7250976562</ele>
        <time>2020-10-16T09:28:31.333Z</time>
      </trkpt>
      <trkpt lat="44.67086" lon="3.83589">
        <ele>1083.2330322266</ele>
        <time>2020-10-16T09:28:33.603Z</time>
      </trkpt>
      <trkpt lat="44.67108" lon="3.83594">
        <ele>1083.8411865234</ele>
        <time>2020-10-16T09:28:35.877Z</time>
      </trkpt>
      <trkpt lat="44.67128" lon="3.83598">
        <ele>1084.7825927734</ele>
        <time>2020-10-16T09:28:38.155Z</time>
      </trkpt>
      <trkpt lat="44.67152" lon="3.83603">
        <ele>1086.9410400391</ele>
        <time>2020-10-16T09:28:40.438Z</time>
      </trkpt>
      <trkpt lat="44.67169" lon="3.83611">
        <ele>1089.0548095703</ele>
        <time>2020-10-16T09:28:42.725Z</time>
      </trkpt>
      <trkpt lat="44.67181" lon="3.8362">
        <ele>1090.6416015625</ele>
        <time>2020-10-16T09:28:45.015Z</time>
      </trkpt>
      <trkpt lat="44.67193" lon="3.83623">
        <ele>1091.6490478516</ele>
        <time>2020-10-16T09:28:47.307Z</time>
      </trkpt>
      <trkpt lat="44.67198" lon="3.83629">
        <ele>1092.5279541016</ele>
        <time>2020-10-16T09:28:49.600Z</time>
      </trkpt>
      <trkpt lat="44.67199" lon="3.83636">
        <ele>1093.4809570312</ele>
        <time>2020-10-16T09:28:51.894Z</time>
      </trkpt>
      <trkpt lat="44.67196" lon="3.83642">
        <ele>1093.9997558594</ele>
        <time>2020-10-16T09:28:54.189Z</time>
      </trkpt>
      <trkpt lat="44.67192" lon="3.83645">
        <ele>1094.1768798828</ele>
        <time>2020-10-16T09:28:56.485Z</time>
      </trkpt>
      <trkpt lat="44.67186" lon="3.83645">
        <ele>1093.9331054688</ele>
        <time>2020-10-16T09:28:58.782Z</time>
      </trkpt>
      <trkpt lat="44.67179" lon="3.8365">
        <ele>1094.1560058594</ele>
        <time>2020-10-16T09:29:01.081Z</time>
      </trkpt>
      <trkpt lat="44.67165" lon="3.8366">
        <ele>1095.3143310547</ele>
        <time>2020-10-16T09:29:03.383Z</time>
      </trkpt>
      <trkpt lat="44.67144" lon="3.83678">
        <ele>1098.6823730469</ele>
        <time>2020-10-16T09:29:05.690Z</time>
      </trkpt>
      <trkpt lat="44.67124" lon="3.83693">
        <ele>1100.9029541016</ele>
        <time>2020-10-16T09:29:08.002Z</time>
      </trkpt>
      <trkpt lat="44.6711" lon="3.83705">
        <ele>1102.0590820312</ele>
        <time>2020-10-16T09:29:10.317Z</time>
      </trkpt>
      <trkpt lat="44.67093" lon="3.83718">
        <ele>1103.056640625</ele>
        <time>2020-10-16T09:29:12.636Z</time>
      </trkpt>
      <trkpt lat="44.67077" lon="3.83731">
        <ele>1104.041015625</ele>
        <time>2020-10-16T09:29:14.958Z</time>
      </trkpt>
      <trkpt lat="44.67071" lon="3.83733">
        <ele>1105.0078125</ele>
        <time>2020-10-16T09:29:17.282Z</time>
      </trkpt>
      <trkpt lat="44.67053" lon="3.83737">
        <ele>1107.3374023438</ele>
        <time>2020-10-16T09:29:19.609Z</time>
      </trkpt>
      <trkpt lat="44.67031" lon="3.83744">
        <ele>1110.5743408203</ele>
        <time>2020-10-16T09:29:21.941Z</time>
      </trkpt>
      <trkpt lat="44.67016" lon="3.83747">
        <ele>1112.7021484375</ele>
        <time>2020-10-16T09:29:24.276Z</time>
      </trkpt>
      <trkpt lat="44.67001" lon="3.83747">
        <ele>1115.1411132812</ele>
        <time>2020-10-16T09:29:26.614Z</time>
      </trkpt>
      <trkpt lat="44.66988" lon="3.83744">
        <ele>1116.9967041016</ele>
        <time>2020-10-16T09:29:28.955Z</time>
      </trkpt>
      <trkpt lat="44.66978" lon="3.83739">
        <ele>1118.0411376953</ele>
        <time>2020-10-16T09:29:31.298Z</time>
      </trkpt>
      <trkpt lat="44.66971" lon="3.83741">
        <ele>1119.673828125</ele>
        <time>2020-10-16T09:29:33.642Z</time>
      </trkpt>
      <trkpt lat="44.66968" lon="3.83748">
        <ele>1121.8618164062</ele>
        <time>2020-10-16T09:29:35.987Z</time>
      </trkpt>
      <trkpt lat="44.66971" lon="3.83757">
        <ele>1123.2921142578</ele>
        <time>2020-10-16T09:29:38.334Z</time>
      </trkpt>
      <trkpt lat="44.66977" lon="3.83769">
        <ele>1124.5227050781</ele>
        <time>2020-10-16T09:29:40.683Z</time>
      </trkpt>
      <trkpt lat="44.66988" lon="3.83783">
        <ele>1124.2967529297</ele>
        <time>2020-10-16T09:29:43.035Z</time>
      </trkpt>
      <trkpt lat="44.66997" lon="3.83799">
        <ele>1124.390625</ele>
        <time>2020-10-16T09:29:45.390Z</time>
      </trkpt>
      <trkpt lat="44.67003" lon="3.83819">
        <ele>1125.3414306641</ele>
        <time>2020-10-16T09:29:47.748Z</time>
      </trkpt>
      <trkpt lat="44.67009" lon="3.83834">
        <ele>1125.90234375</ele>
        <time>2020-10-16T09:29:50.108Z</time>
      </trkpt>
      <trkpt lat="44.67012" lon="3.8385">
        <ele>1127.095703125</ele>
        <time>2020-10-16T09:29:52.470Z</time>
      </trkpt>
      <trkpt lat="44.67015" lon="3.83866">
        <ele>1127.9384765625</ele>
        <time>2020-10-16T09:29:54.835Z</time>
      </trkpt>
      <trkpt lat="44.67019" lon="3.83882">
        <ele>1128.1014404297</ele>
        <time>2020-10-16T09:29:57.202Z</time>
      </trkpt>
      <trkpt lat="44.67026" lon="3.83899">
        <ele>1128.0988769531</ele>
        <time>2020-10-16T09:29:59.572Z</time>
      </trkpt>
      <trkpt lat="44.67033" lon="3.83921">
        <ele>1128.3380126953</ele>
        <time>2020-10-16T09:30:01.946Z</time>
      </trkpt>
      <trkpt lat="44.67038" lon="3.83942">
        <ele>1128.7000732422</ele>
        <time>2020-10-16T09:30:04.323Z</time>
      </trkpt>
      <trkpt lat="44.67042" lon="3.83958">
        <ele>1128.8118896484</ele>
        <time>2020-10-16T09:30:06.702Z</time>
      </trkpt>
      <trkpt lat="44.67047" lon="3.83982">
        <ele>1129.1594238281</ele>
        <time>2020-10-16T09:30:09.085Z</time>
      </trkpt>
      <trkpt lat="44.67053" lon="3.84005">
        <ele>1129.1732177734</ele>
        <time>2020-10-16T09:30:11.471Z</time>
      </trkpt>
      <trkpt lat="44.67059" lon="3.84031">
        <ele>1129.5042724609</ele>
        <time>2020-10-16T09:30:13.861Z</time>
      </trkpt>
      <trkpt lat="44.67062" lon="3.84043">
        <ele>1129.8406982422</ele>
        <time>2020-10-16T09:30:16.253Z</time>
      </trkpt>
      <trkpt lat="44.67066" lon="3.84062">
        <ele>1130.3969726562</ele>
        <time>2020-10-16T09:30:18.648Z</time>
      </trkpt>
      <trkpt lat="44.6707" lon="3.84077">
        <ele>1130.6123046875</ele>
        <time>2020-10-16T09:30:21.045Z</time>
      </trkpt>
      <trkpt lat="44.67075" lon="3.84093">
        <ele>1130.6728515625</ele>
        <time>2020-10-16T09:30:23.444Z</time>
      </trkpt>
      <trkpt lat="44.67083" lon="3.84109">
        <ele>1130.2451171875</ele>
        <time>2020-10-16T09:30:25.846Z</time>
      </trkpt>
      <trkpt lat="44.67089" lon="3.84124">
        <ele>1130.1983642578</ele>
        <time>2020-10-16T09:30:28.251Z</time>
      </trkpt>
      <trkpt lat="44.67095" lon="3.84137">
        <ele>1129.9899902344</ele>
        <time>2020-10-16T09:30:30.658Z</time>
      </trkpt>
      <trkpt lat="44.671" lon="3.84152">
        <ele>1130.0695800781</ele>
        <time>2020-10-16T09:30:33.067Z</time>
      </trkpt>
      <trkpt lat="44.67106" lon="3.84164">
        <ele>1129.9117431641</ele>
        <time>2020-10-16T09:30:35.478Z</time>
      </trkpt>
      <trkpt lat="44.6711" lon="3.84177">
        <ele>1130.1022949219</ele>
        <time>2020-10-16T09:30:37.891Z</time>
      </trkpt>
      <trkpt lat="44.67114" lon="3.84192">
        <ele>1130.208984375</ele>
        <time>2020-10-16T09:30:40.307Z</time>
      </trkpt>
      <trkpt lat="44.67118" lon="3.84203">
        <ele>1130.2194824219</ele>
        <time>2020-10-16T09:30:42.724Z</time>
      </trkpt>
      <trkpt lat="44.67123" lon="3.84217">
        <ele>1130.6760253906</ele>
        <time>2020-10-16T09:30:45.144Z</time>
      </trkpt>
      <trkpt lat="44.67131" lon="3.84229">
        <ele>1131.4039306641</ele>
        <time>2020-10-16T09:30:47.566Z</time>
      </trkpt>
      <trkpt lat="44.67136" lon="3.84237">
        <ele>1131.9008789062</ele>
        <time>2020-10-16T09:30:49.990Z</time>
      </trkpt>
      <trkpt lat="44.6714" lon="3.84249">
        <ele>1132.6011962891</ele>
        <time>2020-10-16T09:30:52.415Z</time>
      </trkpt>
      <trkpt lat="44.67143" lon="3.84259">
        <ele>1133.2169189453</ele>
        <time>2020-10-16T09:30:54.842Z</time>
      </trkpt>
      <trkpt lat="44.67145" lon="3.84267">
        <ele>1133.6877441406</ele>
        <time>2020-10-16T09:30:57.270Z</time>
      </trkpt>
      <trkpt lat="44.67148" lon="3.84275">
        <ele>1134.1080322266</ele>
        <time>2020-10-16T09:30:59.699Z</time>
      </trkpt>
      <trkpt lat="44.67154" lon="3.84283">
        <ele>1134.4874267578</ele>
        <time>2020-10-16T09:31:02.130Z</time>
      </trkpt>
      <trkpt lat="44.6716" lon="3.84291">
        <ele>1134.8851318359</ele>
        <time>2020-10-16T09:31:04.563Z</time>
      </trkpt>
      <trkpt lat="44.67163" lon="3.84298">
        <ele>1135.2333984375</ele>
        <time>2020-10-16T09:31:06.997Z</time>
      </trkpt>
      <trkpt lat="44.67166" lon="3.84303">
        <ele>1135.4858398438</ele>
        <time>2020-10-16T09:31:09.432Z</time>
      </trkpt>
      <trkpt lat="44.67173" lon="3.84307">
        <ele>1135.6447753906</ele>
        <time>2020-10-16T09:31:11.868Z</time>
      </trkpt>
      <trkpt lat="44.67184" lon="3.8431">
        <ele>1135.796875</ele>
        <time>2020-10-16T09:31:14.307Z</time>
      </trkpt>
      <trkpt lat="44.67192" lon="3.84311">
        <ele>1135.8502197266</ele>
        <time>2020-10-16T09:31:16.747Z</time>
      </trkpt>
      <trkpt lat="44.67199" lon="3.84315">
        <ele>1136.0576171875</ele>
        <time>2020-10-16T09:31:19.189Z</time>
      </trkpt>
      <trkpt lat="44.67205" lon="3.8432">
        <ele>1136.2938232422</ele>
        <time>2020-10-16T09:31:21.632Z</time>
      </trkpt>
      <trkpt lat="44.67212" lon="3.84325">
        <ele>1136.6094970703</ele>
        <time>2020-10-16T09:31:24.077Z</time>
      </trkpt>
      <trkpt lat="44.67222" lon="3.8433">
        <ele>1137.0100097656</ele>
        <time>2020-10-16T09:31:26.524Z</time>
      </trkpt>
      <trkpt lat="44.67253" lon="3.84344">
        <ele>1138.0228271484</ele>
        <time>2020-10-16T09:31:28.977Z</time>
      </trkpt>
      <trkpt lat="44.67257" lon="3.84347">
        <ele>1138.2102050781</ele>
        <time>2020-10-16T09:31:31.431Z</time>
      </trkpt>
      <trkpt lat="44.67261" lon="3.84353">
        <ele>1138.5637207031</ele>
        <time>2020-10-16T09:31:33.886Z</time>
      </trkpt>
      <trkpt lat="44.67265" lon="3.84363">
        <ele>1138.5798339844</ele>
        <time>2020-10-16T09:31:36.343Z</time>
      </trkpt>
      <trkpt lat="44.67272" lon="3.84387">
        <ele>1138.0897216797</ele>
        <time>2020-10-16T09:31:38.804Z</time>
      </trkpt>
      <trkpt lat="44.67282" lon="3.84411">
        <ele>1137.638671875</ele>
        <time>2020-10-16T09:31:41.269Z</time>
      </trkpt>
      <trkpt lat="44.67303" lon="3.84447">
        <ele>1135.2174072266</ele>
        <time>2020-10-16T09:31:43.740Z</time>
      </trkpt>
      <trkpt lat="44.67329" lon="3.84485">
        <ele>1133.123046875</ele>
        <time>2020-10-16T09:31:46.219Z</time>
      </trkpt>
      <trkpt lat="44.67341" lon="3.84498">
        <ele>1132.060546875</ele>
        <time>2020-10-16T09:31:48.701Z</time>
      </trkpt>
      <trkpt lat="44.67354" lon="3.8451">
        <ele>1130.62109375</ele>
        <time>2020-10-16T09:31:51.186Z</time>
      </trkpt>
      <trkpt lat="44.67369" lon="3.84521">
        <ele>1129.0159912109</ele>
        <time>2020-10-16T09:31:53.674Z</time>
      </trkpt>
      <trkpt lat="44.6738" lon="3.84527">
        <ele>1128.3256835938</ele>
        <time>2020-10-16T09:31:56.165Z</time>
      </trkpt>
      <trkpt lat="44.67437" lon="3.84553">
        <ele>1125.4284667969</ele>
        <time>2020-10-16T09:31:58.668Z</time>
      </trkpt>
      <trkpt lat="44.6744" lon="3.84555">
        <ele>1125.2860107422</ele>
        <time>2020-10-16T09:32:01.171Z</time>
      </trkpt>
      <trkpt lat="44.67451" lon="3.84562">
        <ele>1125.0157470703</ele>
        <time>2020-10-16T09:32:03.677Z</time>
      </trkpt>
      <trkpt lat="44.67427" lon="3.84566">
        <ele>1128.0532226562</ele>
        <time>2020-10-16T09:32:06.188Z</time>
      </trkpt>
      <trkpt lat="44.67365" lon="3.84579">
        <ele>1135.8671875</ele>
        <time>2020-10-16T09:32:08.711Z</time>
      </trkpt>
      <trkpt lat="44.67337" lon="3.84588">
        <ele>1140.2678222656</ele>
        <time>2020-10-16T09:32:11.240Z</time>
      </trkpt>
      <trkpt lat="44.67317" lon="3.84601">
        <ele>1142.8471679688</ele>
        <time>2020-10-16T09:32:13.773Z</time>
      </trkpt>
      <trkpt lat="44.6729" lon="3.84621">
        <ele>1146.626953125</ele>
        <time>2020-10-16T09:32:16.312Z</time>
      </trkpt>
      <trkpt lat="44.67269" lon="3.84633">
        <ele>1148.92578125</ele>
        <time>2020-10-16T09:32:18.856Z</time>
      </trkpt>
      <trkpt lat="44.67252" lon="3.8464">
        <ele>1150.4611816406</ele>
        <time>2020-10-16T09:32:21.403Z</time>
      </trkpt>
      <trkpt lat="44.67238" lon="3.84643">
        <ele>1151.6872558594</ele>
        <time>2020-10-16T09:32:23.953Z</time>
      </trkpt>
      <trkpt lat="44.67217" lon="3.84642">
        <ele>1152.8688964844</ele>
        <time>2020-10-16T09:32:26.507Z</time>
      </trkpt>
      <trkpt lat="44.67188" lon="3.84639">
        <ele>1154.2974853516</ele>
        <time>2020-10-16T09:32:29.067Z</time>
      </trkpt>
      <trkpt lat="44.67177" lon="3.84638">
        <ele>1154.8078613281</ele>
        <time>2020-10-16T09:32:31.630Z</time>
      </trkpt>
      <trkpt lat="44.67151" lon="3.84639">
        <ele>1156.0385742188</ele>
        <time>2020-10-16T09:32:34.198Z</time>
      </trkpt>
      <trkpt lat="44.6712" lon="3.84648">
        <ele>1157.0020751953</ele>
        <time>2020-10-16T09:32:36.772Z</time>
      </trkpt>
      <trkpt lat="44.67065" lon="3.84671">
        <ele>1159.3122558594</ele>
        <time>2020-10-16T09:32:39.357Z</time>
      </trkpt>
      <trkpt lat="44.6704" lon="3.84683">
        <ele>1160.6536865234</ele>
        <time>2020-10-16T09:32:41.948Z</time>
      </trkpt>
      <trkpt lat="44.67023" lon="3.84693">
        <ele>1161.4312744141</ele>
        <time>2020-10-16T09:32:44.543Z</time>
      </trkpt>
      <trkpt lat="44.67" lon="3.8471">
        <ele>1162.0455322266</ele>
        <time>2020-10-16T09:32:47.143Z</time>
      </trkpt>
      <trkpt lat="44.66982" lon="3.8472">
        <ele>1162.5426025391</ele>
        <time>2020-10-16T09:32:49.747Z</time>
      </trkpt>
      <trkpt lat="44.66969" lon="3.84723">
        <ele>1162.5931396484</ele>
        <time>2020-10-16T09:32:52.353Z</time>
      </trkpt>
      <trkpt lat="44.66962" lon="3.84723">
        <ele>1162.6668701172</ele>
        <time>2020-10-16T09:32:54.961Z</time>
      </trkpt>
      <trkpt lat="44.66965" lon="3.84732">
        <ele>1162.3131103516</ele>
        <time>2020-10-16T09:32:57.570Z</time>
      </trkpt>
      <trkpt lat="44.66966" lon="3.84738">
        <ele>1162.0758056641</ele>
        <time>2020-10-16T09:33:00.180Z</time>
      </trkpt>
      <trkpt lat="44.66967" lon="3.84744">
        <ele>1161.8408203125</ele>
        <time>2020-10-16T09:33:02.791Z</time>
      </trkpt>
      <trkpt lat="44.66973" lon="3.8475">
        <ele>1161.5773925781</ele>
        <time>2020-10-16T09:33:05.403Z</time>
      </trkpt>
      <trkpt lat="44.66982" lon="3.84753">
        <ele>1161.3680419922</ele>
        <time>2020-10-16T09:33:08.017Z</time>
      </trkpt>
      <trkpt lat="44.66996" lon="3.84763">
        <ele>1160.8413085938</ele>
        <time>2020-10-16T09:33:10.634Z</time>
      </trkpt>
      <trkpt lat="44.67013" lon="3.84773">
        <ele>1160.2729492188</ele>
        <time>2020-10-16T09:33:13.255Z</time>
      </trkpt>
      <trkpt lat="44.67025" lon="3.84784">
        <ele>1160.1340332031</ele>
        <time>2020-10-16T09:33:15.879Z</time>
      </trkpt>
      <trkpt lat="44.67039" lon="3.84797">
        <ele>1159.9387207031</ele>
        <time>2020-10-16T09:33:18.506Z</time>
      </trkpt>
      <trkpt lat="44.67057" lon="3.84812">
        <ele>1159.5126953125</ele>
        <time>2020-10-16T09:33:21.137Z</time>
      </trkpt>
      <trkpt lat="44.67071" lon="3.84823">
        <ele>1159.171875</ele>
        <time>2020-10-16T09:33:23.771Z</time>
      </trkpt>
      <trkpt lat="44.67091" lon="3.84839">
        <ele>1158.6832275391</ele>
        <time>2020-10-16T09:33:26.410Z</time>
      </trkpt>
      <trkpt lat="44.67112" lon="3.84857">
        <ele>1158.1553955078</ele>
        <time>2020-10-16T09:33:29.054Z</time>
      </trkpt>
      <trkpt lat="44.67127" lon="3.84869">
        <ele>1158.1259765625</ele>
        <time>2020-10-16T09:33:31.702Z</time>
      </trkpt>
      <trkpt lat="44.67139" lon="3.84882">
        <ele>1158.5483398438</ele>
        <time>2020-10-16T09:33:34.353Z</time>
      </trkpt>
      <trkpt lat="44.6716" lon="3.84899">
        <ele>1159.4041748047</ele>
        <time>2020-10-16T09:33:37.008Z</time>
      </trkpt>
      <trkpt lat="44.67178" lon="3.84912">
        <ele>1160.0161132812</ele>
        <time>2020-10-16T09:33:39.667Z</time>
      </trkpt>
      <trkpt lat="44.6719" lon="3.84918">
        <ele>1160.2508544922</ele>
        <time>2020-10-16T09:33:42.329Z</time>
      </trkpt>
      <trkpt lat="44.67201" lon="3.84926">
        <ele>1160.533203125</ele>
        <time>2020-10-16T09:33:44.993Z</time>
      </trkpt>
      <trkpt lat="44.67221" lon="3.84938">
        <ele>1161.3742675781</ele>
        <time>2020-10-16T09:33:47.662Z</time>
      </trkpt>
      <trkpt lat="44.67232" lon="3.84946">
        <ele>1162.1323242188</ele>
        <time>2020-10-16T09:33:50.333Z</time>
      </trkpt>
      <trkpt lat="44.67246" lon="3.84959">
        <ele>1163.2209472656</ele>
        <time>2020-10-16T09:33:53.008Z</time>
      </trkpt>
      <trkpt lat="44.67257" lon="3.84972">
        <ele>1164.2641601562</ele>
        <time>2020-10-16T09:33:55.686Z</time>
      </trkpt>
      <trkpt lat="44.67267" lon="3.84979">
        <ele>1164.9405517578</ele>
        <time>2020-10-16T09:33:58.366Z</time>
      </trkpt>
      <trkpt lat="44.67284" lon="3.84995">
        <ele>1166.2659912109</ele>
        <time>2020-10-16T09:34:01.050Z</time>
      </trkpt>
      <trkpt lat="44.67295" lon="3.85005">
        <ele>1167.1525878906</ele>
        <time>2020-10-16T09:34:03.736Z</time>
      </trkpt>
      <trkpt lat="44.6731" lon="3.85016">
        <ele>1168.1472167969</ele>
        <time>2020-10-16T09:34:06.426Z</time>
      </trkpt>
      <trkpt lat="44.67325" lon="3.85028">
        <ele>1168.9920654297</ele>
        <time>2020-10-16T09:34:09.119Z</time>
      </trkpt>
      <trkpt lat="44.6734" lon="3.8504">
        <ele>1169.4986572266</ele>
        <time>2020-10-16T09:34:11.816Z</time>
      </trkpt>
      <trkpt lat="44.67356" lon="3.85052">
        <ele>1170.0322265625</ele>
        <time>2020-10-16T09:34:14.516Z</time>
      </trkpt>
      <trkpt lat="44.67365" lon="3.85062">
        <ele>1170.3575439453</ele>
        <time>2020-10-16T09:34:17.219Z</time>
      </trkpt>
      <trkpt lat="44.67376" lon="3.85072">
        <ele>1170.8112792969</ele>
        <time>2020-10-16T09:34:19.924Z</time>
      </trkpt>
      <trkpt lat="44.67388" lon="3.85085">
        <ele>1171.4127197266</ele>
        <time>2020-10-16T09:34:22.632Z</time>
      </trkpt>
      <trkpt lat="44.67399" lon="3.85092">
        <ele>1171.8997802734</ele>
        <time>2020-10-16T09:34:25.343Z</time>
      </trkpt>
      <trkpt lat="44.67418" lon="3.85102">
        <ele>1172.6767578125</ele>
        <time>2020-10-16T09:34:28.058Z</time>
      </trkpt>
      <trkpt lat="44.67437" lon="3.85115">
        <ele>1173.0750732422</ele>
        <time>2020-10-16T09:34:30.777Z</time>
      </trkpt>
      <trkpt lat="44.67455" lon="3.85127">
        <ele>1173.1170654297</ele>
        <time>2020-10-16T09:34:33.500Z</time>
      </trkpt>
      <trkpt lat="44.67468" lon="3.85133">
        <ele>1172.3137207031</ele>
        <time>2020-10-16T09:34:36.226Z</time>
      </trkpt>
      <trkpt lat="44.67482" lon="3.85145">
        <ele>1171.1804199219</ele>
        <time>2020-10-16T09:34:38.955Z</time>
      </trkpt>
      <trkpt lat="44.67498" lon="3.85154">
        <ele>1170.1086425781</ele>
        <time>2020-10-16T09:34:41.687Z</time>
      </trkpt>
      <trkpt lat="44.67523" lon="3.85168">
        <ele>1167.83984375</ele>
        <time>2020-10-16T09:34:44.425Z</time>
      </trkpt>
      <trkpt lat="44.67552" lon="3.85185">
        <ele>1165.1870117188</ele>
        <time>2020-10-16T09:34:47.169Z</time>
      </trkpt>
      <trkpt lat="44.67581" lon="3.85201">
        <ele>1162.4973144531</ele>
        <time>2020-10-16T09:34:49.919Z</time>
      </trkpt>
      <trkpt lat="44.67608" lon="3.85217">
        <ele>1159.87109375</ele>
        <time>2020-10-16T09:34:52.675Z</time>
      </trkpt>
      <trkpt lat="44.67634" lon="3.85233">
        <ele>1158.1823730469</ele>
        <time>2020-10-16T09:34:55.437Z</time>
      </trkpt>
      <trkpt lat="44.67659" lon="3.85247">
        <ele>1157.0422363281</ele>
        <time>2020-10-16T09:34:58.204Z</time>
      </trkpt>
      <trkpt lat="44.6768" lon="3.85262">
        <ele>1156.1353759766</ele>
        <time>2020-10-16T09:35:00.976Z</time>
      </trkpt>
      <trkpt lat="44.67689" lon="3.85268">
        <ele>1155.7163085938</ele>
        <time>2020-10-16T09:35:03.750Z</time>
      </trkpt>
      <trkpt lat="44.67691" lon="3.85278">
        <ele>1155.7253417969</ele>
        <time>2020-10-16T09:35:06.526Z</time>
      </trkpt>
      <trkpt lat="44.67691" lon="3.85279">
        <ele>1155.7203369141</ele>
        <time>2020-10-16T09:35:09.302Z</time>
      </trkpt>
      <trkpt lat="44.6769" lon="3.85288">
        <ele>1155.7746582031</ele>
        <time>2020-10-16T09:35:12.079Z</time>
      </trkpt>
      <trkpt lat="44.67689" lon="3.85312">
        <ele>1155.8658447266</ele>
        <time>2020-10-16T09:35:14.859Z</time>
      </trkpt>
      <trkpt lat="44.67688" lon="3.85329">
        <ele>1155.9134521484</ele>
        <time>2020-10-16T09:35:17.642Z</time>
      </trkpt>
      <trkpt lat="44.67686" lon="3.85343">
        <ele>1155.7686767578</ele>
        <time>2020-10-16T09:35:20.427Z</time>
      </trkpt>
      <trkpt lat="44.67684" lon="3.85358">
        <ele>1154.7155761719</ele>
        <time>2020-10-16T09:35:23.214Z</time>
      </trkpt>
      <trkpt lat="44.67681" lon="3.85375">
        <ele>1152.7335205078</ele>
        <time>2020-10-16T09:35:26.003Z</time>
      </trkpt>
      <trkpt lat="44.67679" lon="3.85393">
        <ele>1150.5748291016</ele>
        <time>2020-10-16T09:35:28.795Z</time>
      </trkpt>
      <trkpt lat="44.67677" lon="3.85408">
        <ele>1148.7507324219</ele>
        <time>2020-10-16T09:35:31.589Z</time>
      </trkpt>
      <trkpt lat="44.67676" lon="3.85426">
        <ele>1146.8957519531</ele>
        <time>2020-10-16T09:35:34.386Z</time>
      </trkpt>
      <trkpt lat="44.67676" lon="3.85439">
        <ele>1145.7102050781</ele>
        <time>2020-10-16T09:35:37.185Z</time>
      </trkpt>
      <trkpt lat="44.67673" lon="3.85453">
        <ele>1144.7016601562</ele>
        <time>2020-10-16T09:35:39.986Z</time>
      </trkpt>
      <trkpt lat="44.67672" lon="3.85464">
        <ele>1143.9681396484</ele>
        <time>2020-10-16T09:35:42.788Z</time>
      </trkpt>
      <trkpt lat="44.67672" lon="3.85475">
        <ele>1143.1833496094</ele>
        <time>2020-10-16T09:35:45.592Z</time>
      </trkpt>
      <trkpt lat="44.67672" lon="3.85476">
        <ele>1143.1003417969</ele>
        <time>2020-10-16T09:35:48.396Z</time>
      </trkpt>
      <trkpt lat="44.67673" lon="3.85488">
        <ele>1142.1872558594</ele>
        <time>2020-10-16T09:35:51.202Z</time>
      </trkpt>
      <trkpt lat="44.67678" lon="3.85499">
        <ele>1141.2707519531</ele>
        <time>2020-10-16T09:35:54.010Z</time>
      </trkpt>
      <trkpt lat="44.67684" lon="3.85511">
        <ele>1140.0827636719</ele>
        <time>2020-10-16T09:35:56.820Z</time>
      </trkpt>
      <trkpt lat="44.67692" lon="3.85525">
        <ele>1138.75</ele>
        <time>2020-10-16T09:35:59.632Z</time>
      </trkpt>
      <trkpt lat="44.67702" lon="3.85539">
        <ele>1137.4283447266</ele>
        <time>2020-10-16T09:36:02.447Z</time>
      </trkpt>
      <trkpt lat="44.67711" lon="3.85553">
        <ele>1136.1083984375</ele>
        <time>2020-10-16T09:36:05.265Z</time>
      </trkpt>
      <trkpt lat="44.67715" lon="3.85562">
        <ele>1135.1916503906</ele>
        <time>2020-10-16T09:36:08.084Z</time>
      </trkpt>
      <trkpt lat="44.67718" lon="3.8557">
        <ele>1134.4829101562</ele>
        <time>2020-10-16T09:36:10.905Z</time>
      </trkpt>
      <trkpt lat="44.67721" lon="3.85579">
        <ele>1133.6069335938</ele>
        <time>2020-10-16T09:36:13.727Z</time>
      </trkpt>
      <trkpt lat="44.67723" lon="3.85593">
        <ele>1132.2833251953</ele>
        <time>2020-10-16T09:36:16.551Z</time>
      </trkpt>
      <trkpt lat="44.67724" lon="3.85609">
        <ele>1130.5631103516</ele>
        <time>2020-10-16T09:36:19.377Z</time>
      </trkpt>
      <trkpt lat="44.67725" lon="3.85623">
        <ele>1128.4143066406</ele>
        <time>2020-10-16T09:36:22.205Z</time>
      </trkpt>
      <trkpt lat="44.67728" lon="3.85637">
        <ele>1125.75</ele>
        <time>2020-10-16T09:36:25.035Z</time>
      </trkpt>
      <trkpt lat="44.67731" lon="3.85652">
        <ele>1122.6044921875</ele>
        <time>2020-10-16T09:36:27.868Z</time>
      </trkpt>
      <trkpt lat="44.67737" lon="3.85668">
        <ele>1119.2254638672</ele>
        <time>2020-10-16T09:36:30.703Z</time>
      </trkpt>
      <trkpt lat="44.6774" lon="3.8568">
        <ele>1116.8536376953</ele>
        <time>2020-10-16T09:36:33.540Z</time>
      </trkpt>
      <trkpt lat="44.67741" lon="3.8569">
        <ele>1114.5902099609</ele>
        <time>2020-10-16T09:36:36.379Z</time>
      </trkpt>
      <trkpt lat="44.67741" lon="3.85691">
        <ele>1114.5050048828</ele>
        <time>2020-10-16T09:36:39.218Z</time>
      </trkpt>
      <trkpt lat="44.6774" lon="3.85699">
        <ele>1113.3654785156</ele>
        <time>2020-10-16T09:36:42.058Z</time>
      </trkpt>
      <trkpt lat="44.67739" lon="3.85708">
        <ele>1112.1748046875</ele>
        <time>2020-10-16T09:36:44.899Z</time>
      </trkpt>
      <trkpt lat="44.67738" lon="3.85719">
        <ele>1110.5994873047</ele>
        <time>2020-10-16T09:36:47.742Z</time>
      </trkpt>
      <trkpt lat="44.67738" lon="3.85731">
        <ele>1108.6630859375</ele>
        <time>2020-10-16T09:36:50.586Z</time>
      </trkpt>
      <trkpt lat="44.67738" lon="3.85732">
        <ele>1108.5147705078</ele>
        <time>2020-10-16T09:36:53.430Z</time>
      </trkpt>
      <trkpt lat="44.67738" lon="3.85745">
        <ele>1106.0825195312</ele>
        <time>2020-10-16T09:36:56.276Z</time>
      </trkpt>
      <trkpt lat="44.67739" lon="3.8576">
        <ele>1103.5111083984</ele>
        <time>2020-10-16T09:36:59.125Z</time>
      </trkpt>
      <trkpt lat="44.67739" lon="3.85772">
        <ele>1101.4283447266</ele>
        <time>2020-10-16T09:37:01.975Z</time>
      </trkpt>
      <trkpt lat="44.6774" lon="3.85788">
        <ele>1099.1619873047</ele>
        <time>2020-10-16T09:37:04.828Z</time>
      </trkpt>
      <trkpt lat="44.6774" lon="3.858">
        <ele>1097.4816894531</ele>
        <time>2020-10-16T09:37:07.682Z</time>
      </trkpt>
      <trkpt lat="44.6774" lon="3.85809">
        <ele>1096.2630615234</ele>
        <time>2020-10-16T09:37:10.537Z</time>
      </trkpt>
      <trkpt lat="44.6774" lon="3.8581">
        <ele>1096.0786132812</ele>
        <time>2020-10-16T09:37:13.393Z</time>
      </trkpt>
      <trkpt lat="44.67738" lon="3.85822">
        <ele>1094.4321289062</ele>
        <time>2020-10-16T09:37:16.250Z</time>
      </trkpt>
      <trkpt lat="44.67735" lon="3.8584">
        <ele>1091.9779052734</ele>
        <time>2020-10-16T09:37:19.110Z</time>
      </trkpt>
      <trkpt lat="44.67732" lon="3.85855">
        <ele>1089.8280029297</ele>
        <time>2020-10-16T09:37:21.972Z</time>
      </trkpt>
      <trkpt lat="44.67728" lon="3.85869">
        <ele>1087.7142333984</ele>
        <time>2020-10-16T09:37:24.836Z</time>
      </trkpt>
      <trkpt lat="44.67727" lon="3.85882">
        <ele>1086.0234375</ele>
        <time>2020-10-16T09:37:27.702Z</time>
      </trkpt>
      <trkpt lat="44.67725" lon="3.85896">
        <ele>1085.3492431641</ele>
        <time>2020-10-16T09:37:30.570Z</time>
      </trkpt>
      <trkpt lat="44.67723" lon="3.85904">
        <ele>1084.9189453125</ele>
        <time>2020-10-16T09:37:33.440Z</time>
      </trkpt>
      <trkpt lat="44.67718" lon="3.85914">
        <ele>1084.4157714844</ele>
        <time>2020-10-16T09:37:36.311Z</time>
      </trkpt>
      <trkpt lat="44.67712" lon="3.85923">
        <ele>1083.9172363281</ele>
        <time>2020-10-16T09:37:39.184Z</time>
      </trkpt>
      <trkpt lat="44.67724" lon="3.85934">
        <ele>1083.5063476562</ele>
        <time>2020-10-16T09:37:42.060Z</time>
      </trkpt>
      <trkpt lat="44.67745" lon="3.85944">
        <ele>1083.0534667969</ele>
        <time>2020-10-16T09:37:44.940Z</time>
      </trkpt>
      <trkpt lat="44.67783" lon="3.85952">
        <ele>1082.5880126953</ele>
        <time>2020-10-16T09:37:47.828Z</time>
      </trkpt>
      <trkpt lat="44.67823" lon="3.85951">
        <ele>1081.9807128906</ele>
        <time>2020-10-16T09:37:50.724Z</time>
      </trkpt>
      <trkpt lat="44.67837" lon="3.85957">
        <ele>1081.0335693359</ele>
        <time>2020-10-16T09:37:53.623Z</time>
      </trkpt>
      <trkpt lat="44.67853" lon="3.85986">
        <ele>1076.2244873047</ele>
        <time>2020-10-16T09:37:56.527Z</time>
      </trkpt>
      <trkpt lat="44.67877" lon="3.86005">
        <ele>1073.6573486328</ele>
        <time>2020-10-16T09:37:59.437Z</time>
      </trkpt>
      <trkpt lat="44.67906" lon="3.86021">
        <ele>1073.7282714844</ele>
        <time>2020-10-16T09:38:02.353Z</time>
      </trkpt>
      <trkpt lat="44.67926" lon="3.86032">
        <ele>1073.9624023438</ele>
        <time>2020-10-16T09:38:05.273Z</time>
      </trkpt>
      <trkpt lat="44.6796" lon="3.86077">
        <ele>1070.5694580078</ele>
        <time>2020-10-16T09:38:08.202Z</time>
      </trkpt>
      <trkpt lat="44.68012" lon="3.86142">
        <ele>1068.3953857422</ele>
        <time>2020-10-16T09:38:11.145Z</time>
      </trkpt>
      <trkpt lat="44.68032" lon="3.86167">
        <ele>1067.6932373047</ele>
        <time>2020-10-16T09:38:14.094Z</time>
      </trkpt>
      <trkpt lat="44.68054" lon="3.86178">
        <ele>1069.5447998047</ele>
        <time>2020-10-16T09:38:17.047Z</time>
      </trkpt>
      <trkpt lat="44.68081" lon="3.86186">
        <ele>1072.9721679688</ele>
        <time>2020-10-16T09:38:20.006Z</time>
      </trkpt>
      <trkpt lat="44.68117" lon="3.86188">
        <ele>1078.8609619141</ele>
        <time>2020-10-16T09:38:22.972Z</time>
      </trkpt>
      <trkpt lat="44.68159" lon="3.8618">
        <ele>1082.0974121094</ele>
        <time>2020-10-16T09:38:25.947Z</time>
      </trkpt>
      <trkpt lat="44.68196" lon="3.86161">
        <ele>1087.7458496094</ele>
        <time>2020-10-16T09:38:28.929Z</time>
      </trkpt>
      <trkpt lat="44.68203" lon="3.86158">
        <ele>1089.1046142578</ele>
        <time>2020-10-16T09:38:31.913Z</time>
      </trkpt>
      <trkpt lat="44.6825" lon="3.86135">
        <ele>1090.0213623047</ele>
        <time>2020-10-16T09:38:34.907Z</time>
      </trkpt>
      <trkpt lat="44.68274" lon="3.86126">
        <ele>1090.1728515625</ele>
        <time>2020-10-16T09:38:37.906Z</time>
      </trkpt>
      <trkpt lat="44.68324" lon="3.86111">
        <ele>1089.9840087891</ele>
        <time>2020-10-16T09:38:40.915Z</time>
      </trkpt>
      <trkpt lat="44.68383" lon="3.86112">
        <ele>1087.1463623047</ele>
        <time>2020-10-16T09:38:43.936Z</time>
      </trkpt>
      <trkpt lat="44.68446" lon="3.861">
        <ele>1088.0655517578</ele>
        <time>2020-10-16T09:38:46.970Z</time>
      </trkpt>
      <trkpt lat="44.68498" lon="3.86098">
        <ele>1085.3214111328</ele>
        <time>2020-10-16T09:38:50.014Z</time>
      </trkpt>
      <trkpt lat="44.68504" lon="3.86097">
        <ele>1085.0222167969</ele>
        <time>2020-10-16T09:38:53.059Z</time>
      </trkpt>
      <trkpt lat="44.68518" lon="3.86097">
        <ele>1084.2255859375</ele>
        <time>2020-10-16T09:38:56.107Z</time>
      </trkpt>
      <trkpt lat="44.68546" lon="3.86088">
        <ele>1083.0240478516</ele>
        <time>2020-10-16T09:38:59.161Z</time>
      </trkpt>
      <trkpt lat="44.68588" lon="3.86063">
        <ele>1082.30859375</ele>
        <time>2020-10-16T09:39:02.224Z</time>
      </trkpt>
      <trkpt lat="44.6865" lon="3.86034">
        <ele>1076.9685058594</ele>
        <time>2020-10-16T09:39:05.300Z</time>
      </trkpt>
      <trkpt lat="44.68668" lon="3.86039">
        <ele>1075.7496337891</ele>
        <time>2020-10-16T09:39:08.380Z</time>
      </trkpt>
      <trkpt lat="44.68685" lon="3.8604">
        <ele>1074.4022216797</ele>
        <time>2020-10-16T09:39:11.463Z</time>
      </trkpt>
      <trkpt lat="44.68713" lon="3.86032">
        <ele>1072.4844970703</ele>
        <time>2020-10-16T09:39:14.552Z</time>
      </trkpt>
      <trkpt lat="44.68729" lon="3.86025">
        <ele>1070.984375</ele>
        <time>2020-10-16T09:39:17.644Z</time>
      </trkpt>
      <trkpt lat="44.68751" lon="3.86014">
        <ele>1070.4295654297</ele>
        <time>2020-10-16T09:39:20.741Z</time>
      </trkpt>
      <trkpt lat="44.68772" lon="3.85991">
        <ele>1070.5831298828</ele>
        <time>2020-10-16T09:39:23.843Z</time>
      </trkpt>
      <trkpt lat="44.6878" lon="3.85989">
        <ele>1069.8953857422</ele>
        <time>2020-10-16T09:39:26.947Z</time>
      </trkpt>
      <trkpt lat="44.68843" lon="3.8597">
        <ele>1066.9870605469</ele>
        <time>2020-10-16T09:39:30.064Z</time>
      </trkpt>
      <trkpt lat="44.68896" lon="3.85969">
        <ele>1062.5925292969</ele>
        <time>2020-10-16T09:39:33.191Z</time>
      </trkpt>
      <trkpt lat="44.68912" lon="3.85966">
        <ele>1059.9248046875</ele>
        <time>2020-10-16T09:39:36.321Z</time>
      </trkpt>
      <trkpt lat="44.6901" lon="3.85915">
        <ele>1044.8776855469</ele>
        <time>2020-10-16T09:39:39.472Z</time>
      </trkpt>
      <trkpt lat="44.69054" lon="3.85886">
        <ele>1034.4096679688</ele>
        <time>2020-10-16T09:39:42.633Z</time>
      </trkpt>
      <trkpt lat="44.69083" lon="3.85877">
        <ele>1028.7368164062</ele>
        <time>2020-10-16T09:39:45.800Z</time>
      </trkpt>
      <trkpt lat="44.69163" lon="3.85929">
        <ele>1017.9281616211</ele>
        <time>2020-10-16T09:39:48.985Z</time>
      </trkpt>
      <trkpt lat="44.69199" lon="3.85936">
        <ele>1009.8350830078</ele>
        <time>2020-10-16T09:39:52.177Z</time>
      </trkpt>
      <trkpt lat="44.69211" lon="3.85945">
        <ele>1007.7001953125</ele>
        <time>2020-10-16T09:39:55.372Z</time>
      </trkpt>
      <trkpt lat="44.69226" lon="3.85966">
        <ele>1005.908996582</ele>
        <time>2020-10-16T09:39:58.571Z</time>
      </trkpt>
      <trkpt lat="44.69229" lon="3.85964">
        <ele>1004.6952514648</ele>
        <time>2020-10-16T09:40:01.770Z</time>
      </trkpt>
      <trkpt lat="44.69229" lon="3.85945">
        <ele>1004.0227050781</ele>
        <time>2020-10-16T09:40:04.972Z</time>
      </trkpt>
      <trkpt lat="44.6923" lon="3.85922">
        <ele>1001.6614379883</ele>
        <time>2020-10-16T09:40:08.178Z</time>
      </trkpt>
      <trkpt lat="44.69235" lon="3.85904">
        <ele>998.63177490234</ele>
        <time>2020-10-16T09:40:11.386Z</time>
      </trkpt>
      <trkpt lat="44.69245" lon="3.85893">
        <ele>996.11999511719</ele>
        <time>2020-10-16T09:40:14.597Z</time>
      </trkpt>
      <trkpt lat="44.69248" lon="3.85883">
        <ele>996.13690185547</ele>
        <time>2020-10-16T09:40:17.809Z</time>
      </trkpt>
      <trkpt lat="44.69259" lon="3.85853">
        <ele>996.31079101562</ele>
        <time>2020-10-16T09:40:21.026Z</time>
      </trkpt>
      <trkpt lat="44.69262" lon="3.85846">
        <ele>996.77941894531</ele>
        <time>2020-10-16T09:40:24.244Z</time>
      </trkpt>
      <trkpt lat="44.69265" lon="3.85841">
        <ele>997.00695800781</ele>
        <time>2020-10-16T09:40:27.463Z</time>
      </trkpt>
      <trkpt lat="44.6927" lon="3.85838">
        <ele>996.85522460938</ele>
        <time>2020-10-16T09:40:30.683Z</time>
      </trkpt>
      <trkpt lat="44.69274" lon="3.85836">
        <ele>996.38165283203</ele>
        <time>2020-10-16T09:40:33.904Z</time>
      </trkpt>
      <trkpt lat="44.69279" lon="3.85836">
        <ele>995.74963378906</ele>
        <time>2020-10-16T09:40:37.126Z</time>
      </trkpt>
      <trkpt lat="44.69283" lon="3.85838">
        <ele>995.1494140625</ele>
        <time>2020-10-16T09:40:40.349Z</time>
      </trkpt>
      <trkpt lat="44.69286" lon="3.85843">
        <ele>994.50250244141</ele>
        <time>2020-10-16T09:40:43.573Z</time>
      </trkpt>
      <trkpt lat="44.69289" lon="3.85851">
        <ele>994.54888916016</ele>
        <time>2020-10-16T09:40:46.798Z</time>
      </trkpt>
      <trkpt lat="44.69295" lon="3.85873">
        <ele>994.46203613281</ele>
        <time>2020-10-16T09:40:50.027Z</time>
      </trkpt>
      <trkpt lat="44.69301" lon="3.85899">
        <ele>994.51086425781</ele>
        <time>2020-10-16T09:40:53.260Z</time>
      </trkpt>
      <trkpt lat="44.69307" lon="3.85916">
        <ele>994.73095703125</ele>
        <time>2020-10-16T09:40:56.495Z</time>
      </trkpt>
      <trkpt lat="44.69312" lon="3.85923">
        <ele>995.11151123047</ele>
        <time>2020-10-16T09:40:59.732Z</time>
      </trkpt>
      <trkpt lat="44.6932" lon="3.85928">
        <ele>995.86041259766</ele>
        <time>2020-10-16T09:41:02.971Z</time>
      </trkpt>
      <trkpt lat="44.6933" lon="3.8593">
        <ele>996.90679931641</ele>
        <time>2020-10-16T09:41:06.212Z</time>
      </trkpt>
      <trkpt lat="44.6934" lon="3.85928">
        <ele>997.99633789062</ele>
        <time>2020-10-16T09:41:09.455Z</time>
      </trkpt>
      <trkpt lat="44.69349" lon="3.85924">
        <ele>999.05798339844</ele>
        <time>2020-10-16T09:41:12.699Z</time>
      </trkpt>
      <trkpt lat="44.69368" lon="3.85915">
        <ele>1001.8804321289</ele>
        <time>2020-10-16T09:41:15.947Z</time>
      </trkpt>
      <trkpt lat="44.69384" lon="3.85914">
        <ele>1003.4233398438</ele>
        <time>2020-10-16T09:41:19.199Z</time>
      </trkpt>
      <trkpt lat="44.69394" lon="3.85914">
        <ele>1004.2672119141</ele>
        <time>2020-10-16T09:41:22.453Z</time>
      </trkpt>
      <trkpt lat="44.69405" lon="3.85915">
        <ele>1005.1463012695</ele>
        <time>2020-10-16T09:41:25.709Z</time>
      </trkpt>
      <trkpt lat="44.69414" lon="3.85918">
        <ele>1005.7547607422</ele>
        <time>2020-10-16T09:41:28.967Z</time>
      </trkpt>
      <trkpt lat="44.69431" lon="3.85928">
        <ele>1006.6405029297</ele>
        <time>2020-10-16T09:41:32.228Z</time>
      </trkpt>
      <trkpt lat="44.69457" lon="3.8594">
        <ele>1008.2498168945</ele>
        <time>2020-10-16T09:41:35.495Z</time>
      </trkpt>
      <trkpt lat="44.69467" lon="3.85943">
        <ele>1008.922668457</ele>
        <time>2020-10-16T09:41:38.764Z</time>
      </trkpt>
      <trkpt lat="44.69486" lon="3.85945">
        <ele>1010.2265014648</ele>
        <time>2020-10-16T09:41:42.037Z</time>
      </trkpt>
      <trkpt lat="44.69532" lon="3.85954">
        <ele>1013.2872314453</ele>
        <time>2020-10-16T09:41:45.319Z</time>
      </trkpt>
      <trkpt lat="44.69587" lon="3.85965">
        <ele>1013.6972045898</ele>
        <time>2020-10-16T09:41:48.612Z</time>
      </trkpt>
      <trkpt lat="44.69624" lon="3.8597">
        <ele>1013.4340820312</ele>
        <time>2020-10-16T09:41:51.913Z</time>
      </trkpt>
      <trkpt lat="44.69645" lon="3.85972">
        <ele>1012.3887329102</ele>
        <time>2020-10-16T09:41:55.218Z</time>
      </trkpt>
      <trkpt lat="44.69672" lon="3.85967">
        <ele>1010.8874511719</ele>
        <time>2020-10-16T09:41:58.528Z</time>
      </trkpt>
      <trkpt lat="44.69691" lon="3.85958">
        <ele>1009.7327270508</ele>
        <time>2020-10-16T09:42:01.842Z</time>
      </trkpt>
      <trkpt lat="44.69718" lon="3.85941">
        <ele>1008.7116088867</ele>
        <time>2020-10-16T09:42:05.162Z</time>
      </trkpt>
      <trkpt lat="44.69765" lon="3.85907">
        <ele>1007.7635498047</ele>
        <time>2020-10-16T09:42:08.493Z</time>
      </trkpt>
      <trkpt lat="44.69809" lon="3.85881">
        <ele>1006.4682006836</ele>
        <time>2020-10-16T09:42:11.833Z</time>
      </trkpt>
      <trkpt lat="44.6984" lon="3.85863">
        <ele>1007.3818359375</ele>
        <time>2020-10-16T09:42:15.180Z</time>
      </trkpt>
      <trkpt lat="44.69896" lon="3.85833">
        <ele>1007.6317138672</ele>
        <time>2020-10-16T09:42:18.539Z</time>
      </trkpt>
      <trkpt lat="44.69922" lon="3.85818">
        <ele>1006.9768066406</ele>
        <time>2020-10-16T09:42:21.904Z</time>
      </trkpt>
      <trkpt lat="44.69959" lon="3.85805">
        <ele>1005.6167602539</ele>
        <time>2020-10-16T09:42:25.276Z</time>
      </trkpt>
      <trkpt lat="44.69989" lon="3.85797">
        <ele>1005.1369628906</ele>
        <time>2020-10-16T09:42:28.654Z</time>
      </trkpt>
      <trkpt lat="44.70031" lon="3.85788">
        <ele>1002.8612060547</ele>
        <time>2020-10-16T09:42:32.041Z</time>
      </trkpt>
      <trkpt lat="44.70063" lon="3.85782">
        <ele>1001.4837646484</ele>
        <time>2020-10-16T09:42:35.434Z</time>
      </trkpt>
      <trkpt lat="44.70096" lon="3.85776">
        <ele>1000.606628418</ele>
        <time>2020-10-16T09:42:38.834Z</time>
      </trkpt>
      <trkpt lat="44.70154" lon="3.85754">
        <ele>997.50854492188</ele>
        <time>2020-10-16T09:42:42.246Z</time>
      </trkpt>
      <trkpt lat="44.70183" lon="3.85744">
        <ele>995.61322021484</ele>
        <time>2020-10-16T09:42:45.664Z</time>
      </trkpt>
      <trkpt lat="44.70244" lon="3.85719">
        <ele>991.35321044922</ele>
        <time>2020-10-16T09:42:49.095Z</time>
      </trkpt>
      <trkpt lat="44.70262" lon="3.85712">
        <ele>989.85632324219</ele>
        <time>2020-10-16T09:42:52.529Z</time>
      </trkpt>
      <trkpt lat="44.70331" lon="3.85689">
        <ele>985.94091796875</ele>
        <time>2020-10-16T09:42:55.978Z</time>
      </trkpt>
      <trkpt lat="44.70356" lon="3.85681">
        <ele>985.24499511719</ele>
        <time>2020-10-16T09:42:59.432Z</time>
      </trkpt>
      <trkpt lat="44.7038" lon="3.85679">
        <ele>984.13763427734</ele>
        <time>2020-10-16T09:43:02.891Z</time>
      </trkpt>
      <trkpt lat="44.70412" lon="3.85675">
        <ele>981.80084228516</ele>
        <time>2020-10-16T09:43:06.356Z</time>
      </trkpt>
      <trkpt lat="44.70428" lon="3.85675">
        <ele>980.66754150391</ele>
        <time>2020-10-16T09:43:09.824Z</time>
      </trkpt>
      <trkpt lat="44.70454" lon="3.85677">
        <ele>979.22039794922</ele>
        <time>2020-10-16T09:43:13.297Z</time>
      </trkpt>
      <trkpt lat="44.70472" lon="3.85674">
        <ele>978.05694580078</ele>
        <time>2020-10-16T09:43:16.774Z</time>
      </trkpt>
      <trkpt lat="44.70497" lon="3.8567">
        <ele>976.35852050781</ele>
        <time>2020-10-16T09:43:20.256Z</time>
      </trkpt>
      <trkpt lat="44.7056" lon="3.85653">
        <ele>975.640625</ele>
        <time>2020-10-16T09:43:23.751Z</time>
      </trkpt>
      <trkpt lat="44.70571" lon="3.85649">
        <ele>975.93060302734</ele>
        <time>2020-10-16T09:43:27.248Z</time>
      </trkpt>
      <trkpt lat="44.70593" lon="3.85644">
        <ele>975.82690429688</ele>
        <time>2020-10-16T09:43:30.750Z</time>
      </trkpt>
      <trkpt lat="44.70606" lon="3.85645">
        <ele>975.4619140625</ele>
        <time>2020-10-16T09:43:34.254Z</time>
      </trkpt>
      <trkpt lat="44.70619" lon="3.85653">
        <ele>974.78295898438</ele>
        <time>2020-10-16T09:43:37.761Z</time>
      </trkpt>
      <trkpt lat="44.70638" lon="3.85668">
        <ele>974.89556884766</ele>
        <time>2020-10-16T09:43:41.272Z</time>
      </trkpt>
      <trkpt lat="44.70657" lon="3.85685">
        <ele>974.94982910156</ele>
        <time>2020-10-16T09:43:44.788Z</time>
      </trkpt>
      <trkpt lat="44.70664" lon="3.85684">
        <ele>975.33367919922</ele>
        <time>2020-10-16T09:43:48.305Z</time>
      </trkpt>
      <trkpt lat="44.70671" lon="3.85684">
        <ele>975.70336914062</ele>
        <time>2020-10-16T09:43:51.824Z</time>
      </trkpt>
      <trkpt lat="44.70681" lon="3.85684">
        <ele>976.14038085938</ele>
        <time>2020-10-16T09:43:55.345Z</time>
      </trkpt>
      <trkpt lat="44.70701" lon="3.85691">
        <ele>976.86065673828</ele>
        <time>2020-10-16T09:43:58.870Z</time>
      </trkpt>
      <trkpt lat="44.70718" lon="3.85694">
        <ele>977.47534179688</ele>
        <time>2020-10-16T09:44:02.398Z</time>
      </trkpt>
      <trkpt lat="44.70742" lon="3.85694">
        <ele>978.33538818359</ele>
        <time>2020-10-16T09:44:05.931Z</time>
      </trkpt>
      <trkpt lat="44.70763" lon="3.85692">
        <ele>979.11938476562</ele>
        <time>2020-10-16T09:44:09.468Z</time>
      </trkpt>
      <trkpt lat="44.70787" lon="3.85689">
        <ele>980.00714111328</ele>
        <time>2020-10-16T09:44:13.010Z</time>
      </trkpt>
      <trkpt lat="44.70812" lon="3.85682">
        <ele>978.95501708984</ele>
        <time>2020-10-16T09:44:16.557Z</time>
      </trkpt>
      <trkpt lat="44.70873" lon="3.85669">
        <ele>976.56616210938</ele>
        <time>2020-10-16T09:44:20.117Z</time>
      </trkpt>
      <trkpt lat="44.70929" lon="3.85655">
        <ele>973.61602783203</ele>
        <time>2020-10-16T09:44:23.688Z</time>
      </trkpt>
      <trkpt lat="44.7098" lon="3.85643">
        <ele>971.47814941406</ele>
        <time>2020-10-16T09:44:27.269Z</time>
      </trkpt>
      <trkpt lat="44.71002" lon="3.85639">
        <ele>971.41058349609</ele>
        <time>2020-10-16T09:44:30.855Z</time>
      </trkpt>
      <trkpt lat="44.71018" lon="3.85638">
        <ele>971.44677734375</ele>
        <time>2020-10-16T09:44:34.444Z</time>
      </trkpt>
      <trkpt lat="44.71048" lon="3.85638">
        <ele>971.59161376953</ele>
        <time>2020-10-16T09:44:38.039Z</time>
      </trkpt>
      <trkpt lat="44.71107" lon="3.85644">
        <ele>971.63458251953</ele>
        <time>2020-10-16T09:44:41.646Z</time>
      </trkpt>
      <trkpt lat="44.7115" lon="3.85649">
        <ele>971.80352783203</ele>
        <time>2020-10-16T09:44:45.261Z</time>
      </trkpt>
      <trkpt lat="44.7116" lon="3.85652">
        <ele>971.83197021484</ele>
        <time>2020-10-16T09:44:48.878Z</time>
      </trkpt>
      <trkpt lat="44.71187" lon="3.8566">
        <ele>971.71441650391</ele>
        <time>2020-10-16T09:44:52.501Z</time>
      </trkpt>
      <trkpt lat="44.71203" lon="3.85665">
        <ele>971.57873535156</ele>
        <time>2020-10-16T09:44:56.127Z</time>
      </trkpt>
      <trkpt lat="44.71212" lon="3.85667">
        <ele>971.22924804688</ele>
        <time>2020-10-16T09:44:59.755Z</time>
      </trkpt>
      <trkpt lat="44.71223" lon="3.85668">
        <ele>970.82525634766</ele>
        <time>2020-10-16T09:45:03.385Z</time>
      </trkpt>
      <trkpt lat="44.7125" lon="3.85665">
        <ele>969.92016601562</ele>
        <time>2020-10-16T09:45:07.021Z</time>
      </trkpt>
      <trkpt lat="44.71278" lon="3.85663">
        <ele>968.93231201172</ele>
        <time>2020-10-16T09:45:10.662Z</time>
      </trkpt>
      <trkpt lat="44.71333" lon="3.85661">
        <ele>965.91009521484</ele>
        <time>2020-10-16T09:45:14.314Z</time>
      </trkpt>
      <trkpt lat="44.7138" lon="3.85657">
        <ele>962.65649414062</ele>
        <time>2020-10-16T09:45:17.976Z</time>
      </trkpt>
      <trkpt lat="44.71389" lon="3.85657">
        <ele>962.32580566406</ele>
        <time>2020-10-16T09:45:21.640Z</time>
      </trkpt>
      <trkpt lat="44.714" lon="3.85656">
        <ele>961.9345703125</ele>
        <time>2020-10-16T09:45:25.306Z</time>
      </trkpt>
      <trkpt lat="44.71412" lon="3.85653">
        <ele>961.51306152344</ele>
        <time>2020-10-16T09:45:28.974Z</time>
      </trkpt>
      <trkpt lat="44.71435" lon="3.85647">
        <ele>961.52746582031</ele>
        <time>2020-10-16T09:45:32.647Z</time>
      </trkpt>
      <trkpt lat="44.71461" lon="3.8564">
        <ele>961.849609375</ele>
        <time>2020-10-16T09:45:36.325Z</time>
      </trkpt>
      <trkpt lat="44.71478" lon="3.85638">
        <ele>962.15447998047</ele>
        <time>2020-10-16T09:45:40.007Z</time>
      </trkpt>
      <trkpt lat="44.715" lon="3.85635">
        <ele>962.48937988281</ele>
        <time>2020-10-16T09:45:43.693Z</time>
      </trkpt>
      <trkpt lat="44.71536" lon="3.8563">
        <ele>963.1298828125</ele>
        <time>2020-10-16T09:45:47.386Z</time>
      </trkpt>
      <trkpt lat="44.71564" lon="3.85624">
        <ele>963.67321777344</ele>
        <time>2020-10-16T09:45:51.085Z</time>
      </trkpt>
      <trkpt lat="44.71595" lon="3.85617">
        <ele>963.29864501953</ele>
        <time>2020-10-16T09:45:54.790Z</time>
      </trkpt>
      <trkpt lat="44.71634" lon="3.85606">
        <ele>962.52124023438</ele>
        <time>2020-10-16T09:45:58.503Z</time>
      </trkpt>
      <trkpt lat="44.71639" lon="3.85603">
        <ele>962.37768554688</ele>
        <time>2020-10-16T09:46:02.217Z</time>
      </trkpt>
      <trkpt lat="44.71645" lon="3.85601">
        <ele>962.25347900391</ele>
        <time>2020-10-16T09:46:05.932Z</time>
      </trkpt>
      <trkpt lat="44.71648" lon="3.85598">
        <ele>962.189453125</ele>
        <time>2020-10-16T09:46:09.648Z</time>
      </trkpt>
      <trkpt lat="44.71648" lon="3.85598">
        <ele>962.18902587891</ele>
        <time>2020-10-16T09:46:13.364Z</time>
      </trkpt>
      <trkpt lat="44.71658" lon="3.856">
        <ele>961.79638671875</ele>
        <time>2020-10-16T09:46:17.082Z</time>
      </trkpt>
      <trkpt lat="44.71688" lon="3.85599">
        <ele>960.74395751953</ele>
        <time>2020-10-16T09:46:20.806Z</time>
      </trkpt>
      <trkpt lat="44.71719" lon="3.856">
        <ele>958.86138916016</ele>
        <time>2020-10-16T09:46:24.536Z</time>
      </trkpt>
      <trkpt lat="44.71734" lon="3.856">
        <ele>957.97760009766</ele>
        <time>2020-10-16T09:46:28.269Z</time>
      </trkpt>
      <trkpt lat="44.71795" lon="3.85605">
        <ele>954.56890869141</ele>
        <time>2020-10-16T09:46:32.015Z</time>
      </trkpt>
      <trkpt lat="44.71821" lon="3.85608">
        <ele>953.37677001953</ele>
        <time>2020-10-16T09:46:35.766Z</time>
      </trkpt>
      <trkpt lat="44.71863" lon="3.85613">
        <ele>951.41845703125</ele>
        <time>2020-10-16T09:46:39.525Z</time>
      </trkpt>
      <trkpt lat="44.71874" lon="3.85613">
        <ele>950.90069580078</ele>
        <time>2020-10-16T09:46:43.286Z</time>
      </trkpt>
      <trkpt lat="44.71883" lon="3.85612">
        <ele>950.46356201172</ele>
        <time>2020-10-16T09:46:47.049Z</time>
      </trkpt>
      <trkpt lat="44.71894" lon="3.8561">
        <ele>949.91638183594</ele>
        <time>2020-10-16T09:46:50.814Z</time>
      </trkpt>
      <trkpt lat="44.71929" lon="3.85599">
        <ele>947.94403076172</ele>
        <time>2020-10-16T09:46:54.587Z</time>
      </trkpt>
      <trkpt lat="44.71962" lon="3.85587">
        <ele>945.60052490234</ele>
        <time>2020-10-16T09:46:58.366Z</time>
      </trkpt>
      <trkpt lat="44.71984" lon="3.85581">
        <ele>943.98223876953</ele>
        <time>2020-10-16T09:47:02.150Z</time>
      </trkpt>
      <trkpt lat="44.71991" lon="3.8558">
        <ele>943.52325439453</ele>
        <time>2020-10-16T09:47:05.935Z</time>
      </trkpt>
      <trkpt lat="44.72002" lon="3.85579">
        <ele>942.85131835938</ele>
        <time>2020-10-16T09:47:09.723Z</time>
      </trkpt>
      <trkpt lat="44.72015" lon="3.85581">
        <ele>942.19952392578</ele>
        <time>2020-10-16T09:47:13.513Z</time>
      </trkpt>
      <trkpt lat="44.72047" lon="3.85584">
        <ele>941.48114013672</ele>
        <time>2020-10-16T09:47:17.310Z</time>
      </trkpt>
      <trkpt lat="44.7206" lon="3.85585">
        <ele>941.4990234375</ele>
        <time>2020-10-16T09:47:21.109Z</time>
      </trkpt>
      <trkpt lat="44.72073" lon="3.85585">
        <ele>941.49853515625</ele>
        <time>2020-10-16T09:47:24.911Z</time>
      </trkpt>
      <trkpt lat="44.72083" lon="3.85583">
        <ele>941.45678710938</ele>
        <time>2020-10-16T09:47:28.715Z</time>
      </trkpt>
      <trkpt lat="44.72093" lon="3.8558">
        <ele>941.38580322266</ele>
        <time>2020-10-16T09:47:32.521Z</time>
      </trkpt>
      <trkpt lat="44.72139" lon="3.85562">
        <ele>938.53564453125</ele>
        <time>2020-10-16T09:47:36.336Z</time>
      </trkpt>
      <trkpt lat="44.72164" lon="3.85556">
        <ele>936.84033203125</ele>
        <time>2020-10-16T09:47:40.156Z</time>
      </trkpt>
      <trkpt lat="44.7219" lon="3.85552">
        <ele>935.82971191406</ele>
        <time>2020-10-16T09:47:43.982Z</time>
      </trkpt>
      <trkpt lat="44.7219" lon="3.85553">
        <ele>935.86077880859</ele>
        <time>2020-10-16T09:47:47.808Z</time>
      </trkpt>
      <trkpt lat="44.7219" lon="3.85553">
        <ele>935.86047363281</ele>
        <time>2020-10-16T09:47:51.634Z</time>
      </trkpt>
      <trkpt lat="44.72202" lon="3.8555">
        <ele>935.41021728516</ele>
        <time>2020-10-16T09:47:55.462Z</time>
      </trkpt>
      <trkpt lat="44.72202" lon="3.8555">
        <ele>935.40991210938</ele>
        <time>2020-10-16T09:47:59.290Z</time>
      </trkpt>
      <trkpt lat="44.72223" lon="3.8555">
        <ele>933.24670410156</ele>
        <time>2020-10-16T09:48:03.123Z</time>
      </trkpt>
      <trkpt lat="44.72249" lon="3.85564">
        <ele>930.59356689453</ele>
        <time>2020-10-16T09:48:06.961Z</time>
      </trkpt>
      <trkpt lat="44.72301" lon="3.85628">
        <ele>927.78076171875</ele>
        <time>2020-10-16T09:48:10.813Z</time>
      </trkpt>
      <trkpt lat="44.72306" lon="3.85627">
        <ele>927.7421875</ele>
        <time>2020-10-16T09:48:14.666Z</time>
      </trkpt>
      <trkpt lat="44.72331" lon="3.85622">
        <ele>925.23516845703</ele>
        <time>2020-10-16T09:48:18.524Z</time>
      </trkpt>
      <trkpt lat="44.72316" lon="3.85575">
        <ele>923.79595947266</ele>
        <time>2020-10-16T09:48:22.389Z</time>
      </trkpt>
      <trkpt lat="44.72278" lon="3.85529">
        <ele>926.26745605469</ele>
        <time>2020-10-16T09:48:26.265Z</time>
      </trkpt>
      <trkpt lat="44.72272" lon="3.85497">
        <ele>926.18157958984</ele>
        <time>2020-10-16T09:48:30.145Z</time>
      </trkpt>
      <trkpt lat="44.72271" lon="3.8542">
        <ele>922.84338378906</ele>
        <time>2020-10-16T09:48:34.036Z</time>
      </trkpt>
      <trkpt lat="44.72277" lon="3.85381">
        <ele>919.29058837891</ele>
        <time>2020-10-16T09:48:37.933Z</time>
      </trkpt>
      <trkpt lat="44.72289" lon="3.85363">
        <ele>916.31378173828</ele>
        <time>2020-10-16T09:48:41.833Z</time>
      </trkpt>
      <trkpt lat="44.72305" lon="3.85358">
        <ele>915.34020996094</ele>
        <time>2020-10-16T09:48:45.737Z</time>
      </trkpt>
      <trkpt lat="44.72319" lon="3.85363">
        <ele>914.78674316406</ele>
        <time>2020-10-16T09:48:49.644Z</time>
      </trkpt>
      <trkpt lat="44.72357" lon="3.85407">
        <ele>912.86871337891</ele>
        <time>2020-10-16T09:48:53.561Z</time>
      </trkpt>
    </trkseg>
  </trk>
  <trk>
    <name><![CDATA[ESI0336 - CIRCUIT DU CHATEAU]]></name>
    <extensions>
      <line xmlns="http://www.topografix.com/GPX/gpx_style/0/2">
        <color>f71844</color>
        <width>4</width>
      </line>
    </extensions>
    <trkseg>
      <trkpt lat="44.75327" lon="3.72581">
        <ele>994.02374267578</ele>
        <time>2020-11-02T09:08:10.000Z</time>
      </trkpt>
      <trkpt lat="44.75334" lon="3.72587">
        <ele>995.51147460938</ele>
        <time>2020-11-02T09:08:10.002Z</time>
      </trkpt>
      <trkpt lat="44.75337" lon="3.72598">
        <ele>996.35131835938</ele>
        <time>2020-11-02T09:08:10.005Z</time>
      </trkpt>
      <trkpt lat="44.75336" lon="3.72647">
        <ele>998.37255859375</ele>
        <time>2020-11-02T09:08:10.015Z</time>
      </trkpt>
      <trkpt lat="44.75335" lon="3.72676">
        <ele>998.67980957031</ele>
        <time>2020-11-02T09:08:10.029Z</time>
      </trkpt>
      <trkpt lat="44.75322" lon="3.72716">
        <ele>998.96862792969</ele>
        <time>2020-11-02T09:08:10.050Z</time>
      </trkpt>
      <trkpt lat="44.75312" lon="3.7274">
        <ele>997.91522216797</ele>
        <time>2020-11-02T09:08:10.075Z</time>
      </trkpt>
      <trkpt lat="44.75311" lon="3.7275">
        <ele>998.23913574219</ele>
        <time>2020-11-02T09:08:10.101Z</time>
      </trkpt>
      <trkpt lat="44.75305" lon="3.72779">
        <ele>998.42553710938</ele>
        <time>2020-11-02T09:08:10.131Z</time>
      </trkpt>
      <trkpt lat="44.753" lon="3.72796">
        <ele>999.37005615234</ele>
        <time>2020-11-02T09:08:10.164Z</time>
      </trkpt>
      <trkpt lat="44.75295" lon="3.72807">
        <ele>1000.1259155273</ele>
        <time>2020-11-02T09:08:10.199Z</time>
      </trkpt>
      <trkpt lat="44.75283" lon="3.72822">
        <ele>1000.5453491211</ele>
        <time>2020-11-02T09:08:10.237Z</time>
      </trkpt>
      <trkpt lat="44.75263" lon="3.72826">
        <ele>999.00964355469</ele>
        <time>2020-11-02T09:08:10.279Z</time>
      </trkpt>
      <trkpt lat="44.75237" lon="3.72829">
        <ele>995.43395996094</ele>
        <time>2020-11-02T09:08:10.326Z</time>
      </trkpt>
      <trkpt lat="44.75224" lon="3.72835">
        <ele>994.05419921875</ele>
        <time>2020-11-02T09:08:10.376Z</time>
      </trkpt>
      <trkpt lat="44.75207" lon="3.72853">
        <ele>993.34631347656</ele>
        <time>2020-11-02T09:08:10.430Z</time>
      </trkpt>
      <trkpt lat="44.7517" lon="3.72882">
        <ele>997.85626220703</ele>
        <time>2020-11-02T09:08:10.493Z</time>
      </trkpt>
      <trkpt lat="44.7512" lon="3.72908">
        <ele>996.47027587891</ele>
        <time>2020-11-02T09:08:10.567Z</time>
      </trkpt>
      <trkpt lat="44.75087" lon="3.72918">
        <ele>997.36499023438</ele>
        <time>2020-11-02T09:08:10.647Z</time>
      </trkpt>
      <trkpt lat="44.75075" lon="3.72919">
        <ele>997.83288574219</ele>
        <time>2020-11-02T09:08:10.730Z</time>
      </trkpt>
      <trkpt lat="44.75073" lon="3.72917">
        <ele>997.52093505859</ele>
        <time>2020-11-02T09:08:10.813Z</time>
      </trkpt>
      <trkpt lat="44.75072" lon="3.72913">
        <ele>996.82507324219</ele>
        <time>2020-11-02T09:08:10.897Z</time>
      </trkpt>
      <trkpt lat="44.7505" lon="3.72918">
        <ele>998.25280761719</ele>
        <time>2020-11-02T09:08:10.985Z</time>
      </trkpt>
      <trkpt lat="44.75018" lon="3.72921">
        <ele>1000.5461425781</ele>
        <time>2020-11-02T09:08:11.080Z</time>
      </trkpt>
      <trkpt lat="44.74989" lon="3.72918">
        <ele>1003.9295654297</ele>
        <time>2020-11-02T09:08:11.180Z</time>
      </trkpt>
      <trkpt lat="44.74964" lon="3.7291">
        <ele>1005.4172973633</ele>
        <time>2020-11-02T09:08:11.286Z</time>
      </trkpt>
      <trkpt lat="44.74948" lon="3.72902">
        <ele>1005.6834106445</ele>
        <time>2020-11-02T09:08:11.395Z</time>
      </trkpt>
      <trkpt lat="44.74923" lon="3.72886">
        <ele>1005.3594360352</ele>
        <time>2020-11-02T09:08:11.509Z</time>
      </trkpt>
      <trkpt lat="44.749" lon="3.72864">
        <ele>1003.139831543</ele>
        <time>2020-11-02T09:08:11.629Z</time>
      </trkpt>
      <trkpt lat="44.74882" lon="3.72857">
        <ele>1004.0996704102</ele>
        <time>2020-11-02T09:08:11.753Z</time>
      </trkpt>
      <trkpt lat="44.7486" lon="3.72856">
        <ele>1007.5283813477</ele>
        <time>2020-11-02T09:08:11.881Z</time>
      </trkpt>
      <trkpt lat="44.74846" lon="3.72852">
        <ele>1008.6711425781</ele>
        <time>2020-11-02T09:08:12.012Z</time>
      </trkpt>
      <trkpt lat="44.7481" lon="3.72831">
        <ele>1008.9230957031</ele>
        <time>2020-11-02T09:08:12.151Z</time>
      </trkpt>
      <trkpt lat="44.74733" lon="3.72786">
        <ele>1006.1705932617</ele>
        <time>2020-11-02T09:08:12.307Z</time>
      </trkpt>
      <trkpt lat="44.74691" lon="3.72761">
        <ele>1003.8967895508</ele>
        <time>2020-11-02T09:08:12.472Z</time>
      </trkpt>
      <trkpt lat="44.74676" lon="3.72759">
        <ele>1002.6370239258</ele>
        <time>2020-11-02T09:08:12.640Z</time>
      </trkpt>
      <trkpt lat="44.74675" lon="3.72755">
        <ele>1002.5530395508</ele>
        <time>2020-11-02T09:08:12.808Z</time>
      </trkpt>
      <trkpt lat="44.74669" lon="3.72746">
        <ele>1002.0491333008</ele>
        <time>2020-11-02T09:08:12.978Z</time>
      </trkpt>
      <trkpt lat="44.74648" lon="3.72734">
        <ele>1000.2854003906</ele>
        <time>2020-11-02T09:08:13.153Z</time>
      </trkpt>
      <trkpt lat="44.74624" lon="3.72727">
        <ele>998.26977539062</ele>
        <time>2020-11-02T09:08:13.332Z</time>
      </trkpt>
      <trkpt lat="44.74605" lon="3.72722">
        <ele>998</ele>
        <time>2020-11-02T09:08:13.515Z</time>
      </trkpt>
      <trkpt lat="44.7459" lon="3.72714">
        <ele>998</ele>
        <time>2020-11-02T09:08:13.702Z</time>
      </trkpt>
      <trkpt lat="44.74579" lon="3.72704">
        <ele>998</ele>
        <time>2020-11-02T09:08:13.891Z</time>
      </trkpt>
      <trkpt lat="44.74569" lon="3.72691">
        <ele>998</ele>
        <time>2020-11-02T09:08:14.083Z</time>
      </trkpt>
      <trkpt lat="44.74559" lon="3.72683">
        <ele>997.85186767578</ele>
        <time>2020-11-02T09:08:14.277Z</time>
      </trkpt>
      <trkpt lat="44.74554" lon="3.72682">
        <ele>997.81585693359</ele>
        <time>2020-11-02T09:08:14.472Z</time>
      </trkpt>
      <trkpt lat="44.74538" lon="3.7269">
        <ele>997.97210693359</ele>
        <time>2020-11-02T09:08:14.671Z</time>
      </trkpt>
      <trkpt lat="44.74515" lon="3.72705">
        <ele>1002.3626098633</ele>
        <time>2020-11-02T09:08:14.875Z</time>
      </trkpt>
      <trkpt lat="44.74498" lon="3.7272">
        <ele>1005.6500854492</ele>
        <time>2020-11-02T09:08:15.083Z</time>
      </trkpt>
      <trkpt lat="44.74488" lon="3.72732">
        <ele>1008.5994262695</ele>
        <time>2020-11-02T09:08:15.293Z</time>
      </trkpt>
      <trkpt lat="44.74462" lon="3.72762">
        <ele>1018.9177246094</ele>
        <time>2020-11-02T09:08:15.510Z</time>
      </trkpt>
      <trkpt lat="44.74451" lon="3.7277">
        <ele>1022.4918823242</ele>
        <time>2020-11-02T09:08:15.730Z</time>
      </trkpt>
      <trkpt lat="44.74445" lon="3.72768">
        <ele>1023.379699707</ele>
        <time>2020-11-02T09:08:15.951Z</time>
      </trkpt>
      <trkpt lat="44.74436" lon="3.72758">
        <ele>1024.2915039062</ele>
        <time>2020-11-02T09:08:16.174Z</time>
      </trkpt>
      <trkpt lat="44.74423" lon="3.72716">
        <ele>1023.3948364258</ele>
        <time>2020-11-02T09:08:16.404Z</time>
      </trkpt>
      <trkpt lat="44.74417" lon="3.72706">
        <ele>1023.7067871094</ele>
        <time>2020-11-02T09:08:16.635Z</time>
      </trkpt>
      <trkpt lat="44.74409" lon="3.72695">
        <ele>1024.3187255859</ele>
        <time>2020-11-02T09:08:16.869Z</time>
      </trkpt>
      <trkpt lat="44.74401" lon="3.7269">
        <ele>1025.4344482422</ele>
        <time>2020-11-02T09:08:17.104Z</time>
      </trkpt>
      <trkpt lat="44.74395" lon="3.72687">
        <ele>1026.3426513672</ele>
        <time>2020-11-02T09:08:17.341Z</time>
      </trkpt>
      <trkpt lat="44.74392" lon="3.72696">
        <ele>1027.6661376953</ele>
        <time>2020-11-02T09:08:17.579Z</time>
      </trkpt>
      <trkpt lat="44.74383" lon="3.72709">
        <ele>1030.2545166016</ele>
        <time>2020-11-02T09:08:17.820Z</time>
      </trkpt>
      <trkpt lat="44.74374" lon="3.72712">
        <ele>1031.9462890625</ele>
        <time>2020-11-02T09:08:18.063Z</time>
      </trkpt>
      <trkpt lat="44.74358" lon="3.7271">
        <ele>1033.443359375</ele>
        <time>2020-11-02T09:08:18.309Z</time>
      </trkpt>
      <trkpt lat="44.74346" lon="3.7271">
        <ele>1034.451171875</ele>
        <time>2020-11-02T09:08:18.557Z</time>
      </trkpt>
      <trkpt lat="44.74325" lon="3.72718">
        <ele>1036.6948242188</ele>
        <time>2020-11-02T09:08:18.810Z</time>
      </trkpt>
      <trkpt lat="44.74315" lon="3.72725">
        <ele>1036.3507080078</ele>
        <time>2020-11-02T09:08:19.065Z</time>
      </trkpt>
      <trkpt lat="44.74301" lon="3.7273">
        <ele>1034.8629150391</ele>
        <time>2020-11-02T09:08:19.323Z</time>
      </trkpt>
      <trkpt lat="44.7428" lon="3.72732">
        <ele>1034.1357421875</ele>
        <time>2020-11-02T09:08:19.585Z</time>
      </trkpt>
      <trkpt lat="44.74266" lon="3.72732">
        <ele>1034.9755859375</ele>
        <time>2020-11-02T09:08:19.850Z</time>
      </trkpt>
      <trkpt lat="44.74256" lon="3.72729">
        <ele>1035.8634033203</ele>
        <time>2020-11-02T09:08:20.117Z</time>
      </trkpt>
      <trkpt lat="44.74247" lon="3.72721">
        <ele>1037.1712646484</ele>
        <time>2020-11-02T09:08:20.386Z</time>
      </trkpt>
      <trkpt lat="44.74231" lon="3.72711">
        <ele>1039.0909423828</ele>
        <time>2020-11-02T09:08:20.658Z</time>
      </trkpt>
      <trkpt lat="44.74215" lon="3.72709">
        <ele>1038.7994384766</ele>
        <time>2020-11-02T09:08:20.934Z</time>
      </trkpt>
      <trkpt lat="44.7419" lon="3.72712">
        <ele>1039.1818847656</ele>
        <time>2020-11-02T09:08:21.215Z</time>
      </trkpt>
      <trkpt lat="44.74175" lon="3.72711">
        <ele>1041.3895263672</ele>
        <time>2020-11-02T09:08:21.499Z</time>
      </trkpt>
      <trkpt lat="44.74149" lon="3.7271">
        <ele>1045.0489501953</ele>
        <time>2020-11-02T09:08:21.788Z</time>
      </trkpt>
      <trkpt lat="44.74122" lon="3.72714">
        <ele>1045.8583984375</ele>
        <time>2020-11-02T09:08:22.082Z</time>
      </trkpt>
      <trkpt lat="44.74098" lon="3.72715">
        <ele>1051.0844726562</ele>
        <time>2020-11-02T09:08:22.381Z</time>
      </trkpt>
      <trkpt lat="44.74065" lon="3.72717">
        <ele>1058.3493652344</ele>
        <time>2020-11-02T09:08:22.687Z</time>
      </trkpt>
      <trkpt lat="44.74035" lon="3.72722">
        <ele>1063.2369384766</ele>
        <time>2020-11-02T09:08:22.999Z</time>
      </trkpt>
      <trkpt lat="44.73976" lon="3.72738">
        <ele>1072.5435791016</ele>
        <time>2020-11-02T09:08:23.323Z</time>
      </trkpt>
      <trkpt lat="44.73862" lon="3.72805">
        <ele>1084.4122314453</ele>
        <time>2020-11-02T09:08:23.671Z</time>
      </trkpt>
      <trkpt lat="44.73832" lon="3.72822">
        <ele>1087.7952880859</ele>
        <time>2020-11-02T09:08:24.026Z</time>
      </trkpt>
      <trkpt lat="44.73815" lon="3.72835">
        <ele>1091.1787109375</ele>
        <time>2020-11-02T09:08:24.385Z</time>
      </trkpt>
      <trkpt lat="44.73733" lon="3.72924">
        <ele>1092.130859375</ele>
        <time>2020-11-02T09:08:24.765Z</time>
      </trkpt>
      <trkpt lat="44.73712" lon="3.7294">
        <ele>1093.8843994141</ele>
        <time>2020-11-02T09:08:25.149Z</time>
      </trkpt>
      <trkpt lat="44.73682" lon="3.72956">
        <ele>1095.9979248047</ele>
        <time>2020-11-02T09:08:25.540Z</time>
      </trkpt>
      <trkpt lat="44.73668" lon="3.72967">
        <ele>1096.1658935547</ele>
        <time>2020-11-02T09:08:25.934Z</time>
      </trkpt>
      <trkpt lat="44.73663" lon="3.72976">
        <ele>1095.3740234375</ele>
        <time>2020-11-02T09:08:26.330Z</time>
      </trkpt>
      <trkpt lat="44.7366" lon="3.72998">
        <ele>1094.943359375</ele>
        <time>2020-11-02T09:08:26.729Z</time>
      </trkpt>
      <trkpt lat="44.73656" lon="3.73033">
        <ele>1094.6374511719</ele>
        <time>2020-11-02T09:08:27.133Z</time>
      </trkpt>
      <trkpt lat="44.73642" lon="3.73081">
        <ele>1094.3199462891</ele>
        <time>2020-11-02T09:08:27.544Z</time>
      </trkpt>
      <trkpt lat="44.73626" lon="3.73113">
        <ele>1095.1021728516</ele>
        <time>2020-11-02T09:08:27.961Z</time>
      </trkpt>
      <trkpt lat="44.73615" lon="3.73134">
        <ele>1093.8060302734</ele>
        <time>2020-11-02T09:08:28.381Z</time>
      </trkpt>
      <trkpt lat="44.73603" lon="3.73152">
        <ele>1093.6619873047</ele>
        <time>2020-11-02T09:08:28.805Z</time>
      </trkpt>
      <trkpt lat="44.73592" lon="3.73165">
        <ele>1093.8798828125</ele>
        <time>2020-11-02T09:08:29.232Z</time>
      </trkpt>
      <trkpt lat="44.73584" lon="3.73171">
        <ele>1094.3117675781</ele>
        <time>2020-11-02T09:08:29.661Z</time>
      </trkpt>
      <trkpt lat="44.73572" lon="3.73177">
        <ele>1095.4636230469</ele>
        <time>2020-11-02T09:08:30.092Z</time>
      </trkpt>
      <trkpt lat="44.73553" lon="3.73181">
        <ele>1098.2111816406</ele>
        <time>2020-11-02T09:08:30.527Z</time>
      </trkpt>
      <trkpt lat="44.73507" lon="3.73185">
        <ele>1104.6490478516</ele>
        <time>2020-11-02T09:08:30.971Z</time>
      </trkpt>
      <trkpt lat="44.73465" lon="3.73196">
        <ele>1108.2939453125</ele>
        <time>2020-11-02T09:08:31.424Z</time>
      </trkpt>
      <trkpt lat="44.73448" lon="3.73204">
        <ele>1109.5335693359</ele>
        <time>2020-11-02T09:08:31.880Z</time>
      </trkpt>
      <trkpt lat="44.73432" lon="3.73214">
        <ele>1108.8135986328</ele>
        <time>2020-11-02T09:08:32.340Z</time>
      </trkpt>
      <trkpt lat="44.73399" lon="3.73234">
        <ele>1107.8748779297</ele>
        <time>2020-11-02T09:08:32.807Z</time>
      </trkpt>
      <trkpt lat="44.73364" lon="3.73244">
        <ele>1108.6641845703</ele>
        <time>2020-11-02T09:08:33.281Z</time>
      </trkpt>
      <trkpt lat="44.73346" lon="3.73243">
        <ele>1108.3762207031</ele>
        <time>2020-11-02T09:08:33.759Z</time>
      </trkpt>
      <trkpt lat="44.73334" lon="3.73235">
        <ele>1109.1656494141</ele>
        <time>2020-11-02T09:08:34.240Z</time>
      </trkpt>
      <trkpt lat="44.73323" lon="3.73225">
        <ele>1110.26953125</ele>
        <time>2020-11-02T09:08:34.723Z</time>
      </trkpt>
      <trkpt lat="44.73298" lon="3.73194">
        <ele>1114.279296875</ele>
        <time>2020-11-02T09:08:35.213Z</time>
      </trkpt>
      <trkpt lat="44.73271" lon="3.73164">
        <ele>1116.8096923828</ele>
        <time>2020-11-02T09:08:35.710Z</time>
      </trkpt>
      <trkpt lat="44.73257" lon="3.73148">
        <ele>1117.8895263672</ele>
        <time>2020-11-02T09:08:36.210Z</time>
      </trkpt>
      <trkpt lat="44.73248" lon="3.73141">
        <ele>1118.189453125</ele>
        <time>2020-11-02T09:08:36.712Z</time>
      </trkpt>
      <trkpt lat="44.73242" lon="3.73138">
        <ele>1118.189453125</ele>
        <time>2020-11-02T09:08:37.216Z</time>
      </trkpt>
      <trkpt lat="44.73242" lon="3.73134">
        <ele>1118.6693115234</ele>
        <time>2020-11-02T09:08:37.720Z</time>
      </trkpt>
      <trkpt lat="44.73242" lon="3.73124">
        <ele>1119.869140625</ele>
        <time>2020-11-02T09:08:38.226Z</time>
      </trkpt>
      <trkpt lat="44.73258" lon="3.73115">
        <ele>1121.9088134766</ele>
        <time>2020-11-02T09:08:38.735Z</time>
      </trkpt>
      <trkpt lat="44.73276" lon="3.73108">
        <ele>1123.8284912109</ele>
        <time>2020-11-02T09:08:39.248Z</time>
      </trkpt>
      <trkpt lat="44.73298" lon="3.73097">
        <ele>1126.1627197266</ele>
        <time>2020-11-02T09:08:39.765Z</time>
      </trkpt>
      <trkpt lat="44.73303" lon="3.73082">
        <ele>1128.2623291016</ele>
        <time>2020-11-02T09:08:40.285Z</time>
      </trkpt>
      <trkpt lat="44.73302" lon="3.73073">
        <ele>1129.4261474609</ele>
        <time>2020-11-02T09:08:40.806Z</time>
      </trkpt>
      <trkpt lat="44.73296" lon="3.73066">
        <ele>1130.2060546875</ele>
        <time>2020-11-02T09:08:41.329Z</time>
      </trkpt>
      <trkpt lat="44.73287" lon="3.73068">
        <ele>1129.7427978516</ele>
        <time>2020-11-02T09:08:41.854Z</time>
      </trkpt>
      <trkpt lat="44.73285" lon="3.73067">
        <ele>1129.9708251953</ele>
        <time>2020-11-02T09:08:42.379Z</time>
      </trkpt>
      <trkpt lat="44.73266" lon="3.73061">
        <ele>1131.6745605469</ele>
        <time>2020-11-02T09:08:42.908Z</time>
      </trkpt>
      <trkpt lat="44.73246" lon="3.7305">
        <ele>1134.0860595703</ele>
        <time>2020-11-02T09:08:43.441Z</time>
      </trkpt>
      <trkpt lat="44.73201" lon="3.73016">
        <ele>1140.66796875</ele>
        <time>2020-11-02T09:08:43.984Z</time>
      </trkpt>
      <trkpt lat="44.73168" lon="3.72997">
        <ele>1143.8297119141</ele>
        <time>2020-11-02T09:08:44.535Z</time>
      </trkpt>
      <trkpt lat="44.73077" lon="3.72944">
        <ele>1151.7835693359</ele>
        <time>2020-11-02T09:08:45.105Z</time>
      </trkpt>
      <trkpt lat="44.73045" lon="3.72927">
        <ele>1154.0031738281</ele>
        <time>2020-11-02T09:08:45.682Z</time>
      </trkpt>
      <trkpt lat="44.73005" lon="3.72911">
        <ele>1156.1384277344</ele>
        <time>2020-11-02T09:08:46.267Z</time>
      </trkpt>
      <trkpt lat="44.72948" lon="3.72888">
        <ele>1159.2485351562</ele>
        <time>2020-11-02T09:08:46.864Z</time>
      </trkpt>
      <trkpt lat="44.72901" lon="3.72869">
        <ele>1164.34765625</ele>
        <time>2020-11-02T09:08:47.471Z</time>
      </trkpt>
      <trkpt lat="44.72854" lon="3.72864">
        <ele>1167.4935302734</ele>
        <time>2020-11-02T09:08:48.087Z</time>
      </trkpt>
      <trkpt lat="44.72831" lon="3.72863">
        <ele>1168.4293212891</ele>
        <time>2020-11-02T09:08:48.708Z</time>
      </trkpt>
      <trkpt lat="44.72817" lon="3.7286">
        <ele>1169.2572021484</ele>
        <time>2020-11-02T09:08:49.332Z</time>
      </trkpt>
      <trkpt lat="44.72807" lon="3.72854">
        <ele>1170.2650146484</ele>
        <time>2020-11-02T09:08:49.958Z</time>
      </trkpt>
      <trkpt lat="44.72788" lon="3.72838">
        <ele>1172.4869384766</ele>
        <time>2020-11-02T09:08:50.589Z</time>
      </trkpt>
      <trkpt lat="44.7276" lon="3.72815">
        <ele>1173.7479248047</ele>
        <time>2020-11-02T09:08:51.226Z</time>
      </trkpt>
      <trkpt lat="44.72729" lon="3.72788">
        <ele>1175.2237548828</ele>
        <time>2020-11-02T09:08:51.870Z</time>
      </trkpt>
      <trkpt lat="44.72698" lon="3.72759">
        <ele>1176.2683105469</ele>
        <time>2020-11-02T09:08:52.522Z</time>
      </trkpt>
      <trkpt lat="44.72683" lon="3.72736">
        <ele>1176.4842529297</ele>
        <time>2020-11-02T09:08:53.178Z</time>
      </trkpt>
      <trkpt lat="44.72669" lon="3.72697">
        <ele>1177.9479980469</ele>
        <time>2020-11-02T09:08:53.840Z</time>
      </trkpt>
      <trkpt lat="44.72649" lon="3.72646">
        <ele>1179.6997070312</ele>
        <time>2020-11-02T09:08:54.511Z</time>
      </trkpt>
      <trkpt lat="44.72629" lon="3.72589">
        <ele>1181.3985595703</ele>
        <time>2020-11-02T09:08:55.191Z</time>
      </trkpt>
      <trkpt lat="44.72608" lon="3.72533">
        <ele>1182.9005126953</ele>
        <time>2020-11-02T09:08:55.880Z</time>
      </trkpt>
      <trkpt lat="44.72593" lon="3.72487">
        <ele>1183.0952148438</ele>
        <time>2020-11-02T09:08:56.576Z</time>
      </trkpt>
      <trkpt lat="44.72582" lon="3.72458">
        <ele>1182.5192871094</ele>
        <time>2020-11-02T09:08:57.277Z</time>
      </trkpt>
      <trkpt lat="44.72568" lon="3.72416">
        <ele>1182.3530273438</ele>
        <time>2020-11-02T09:08:57.984Z</time>
      </trkpt>
      <trkpt lat="44.72548" lon="3.72363">
        <ele>1182.4838867188</ele>
        <time>2020-11-02T09:08:58.700Z</time>
      </trkpt>
      <trkpt lat="44.7253" lon="3.7231">
        <ele>1180.2554931641</ele>
        <time>2020-11-02T09:08:59.424Z</time>
      </trkpt>
      <trkpt lat="44.72514" lon="3.72272">
        <ele>1178.5037841797</ele>
        <time>2020-11-02T09:09:00.155Z</time>
      </trkpt>
      <trkpt lat="44.72499" lon="3.72227">
        <ele>1177.3753662109</ele>
        <time>2020-11-02T09:09:00.893Z</time>
      </trkpt>
      <trkpt lat="44.72476" lon="3.72165">
        <ele>1175.9975585938</ele>
        <time>2020-11-02T09:09:01.641Z</time>
      </trkpt>
      <trkpt lat="44.72458" lon="3.72119">
        <ele>1176.7653808594</ele>
        <time>2020-11-02T09:09:02.396Z</time>
      </trkpt>
      <trkpt lat="44.7244" lon="3.72074">
        <ele>1177.1910400391</ele>
        <time>2020-11-02T09:09:03.158Z</time>
      </trkpt>
      <trkpt lat="44.72432" lon="3.72052">
        <ele>1177.3590087891</ele>
        <time>2020-11-02T09:09:03.924Z</time>
      </trkpt>
      <trkpt lat="44.72422" lon="3.72027">
        <ele>1177.5390625</ele>
        <time>2020-11-02T09:09:04.694Z</time>
      </trkpt>
      <trkpt lat="44.72396" lon="3.71961">
        <ele>1176.576171875</ele>
        <time>2020-11-02T09:09:05.475Z</time>
      </trkpt>
      <trkpt lat="44.72382" lon="3.71914">
        <ele>1176.2758789062</ele>
        <time>2020-11-02T09:09:06.263Z</time>
      </trkpt>
      <trkpt lat="44.72363" lon="3.71863">
        <ele>1176.7098388672</ele>
        <time>2020-11-02T09:09:07.059Z</time>
      </trkpt>
      <trkpt lat="44.72354" lon="3.71824">
        <ele>1177.1968994141</ele>
        <time>2020-11-02T09:09:07.861Z</time>
      </trkpt>
      <trkpt lat="44.72348" lon="3.71783">
        <ele>1177.2689208984</ele>
        <time>2020-11-02T09:09:08.669Z</time>
      </trkpt>
      <trkpt lat="44.72323" lon="3.71707">
        <ele>1178.3282470703</ele>
        <time>2020-11-02T09:09:09.489Z</time>
      </trkpt>
      <trkpt lat="44.72294" lon="3.71641">
        <ele>1177.8142089844</ele>
        <time>2020-11-02T09:09:10.320Z</time>
      </trkpt>
      <trkpt lat="44.72282" lon="3.71612">
        <ele>1177.2015380859</ele>
        <time>2020-11-02T09:09:11.156Z</time>
      </trkpt>
      <trkpt lat="44.72272" lon="3.71581">
        <ele>1176.4575195312</ele>
        <time>2020-11-02T09:09:11.997Z</time>
      </trkpt>
      <trkpt lat="44.72264" lon="3.7152">
        <ele>1173.8210449219</ele>
        <time>2020-11-02T09:09:12.847Z</time>
      </trkpt>
      <trkpt lat="44.72261" lon="3.71485">
        <ele>1172.7795410156</ele>
        <time>2020-11-02T09:09:13.702Z</time>
      </trkpt>
      <trkpt lat="44.72265" lon="3.71454">
        <ele>1171.9396972656</ele>
        <time>2020-11-02T09:09:14.561Z</time>
      </trkpt>
      <trkpt lat="44.72266" lon="3.71431">
        <ele>1171.5764160156</ele>
        <time>2020-11-02T09:09:15.423Z</time>
      </trkpt>
      <trkpt lat="44.72264" lon="3.71415">
        <ele>1171.8162841797</ele>
        <time>2020-11-02T09:09:16.288Z</time>
      </trkpt>
      <trkpt lat="44.72249" lon="3.71349">
        <ele>1171.3382568359</ele>
        <time>2020-11-02T09:09:17.163Z</time>
      </trkpt>
      <trkpt lat="44.72229" lon="3.71275">
        <ele>1174.1635742188</ele>
        <time>2020-11-02T09:09:18.049Z</time>
      </trkpt>
      <trkpt lat="44.72223" lon="3.71247">
        <ele>1174.2587890625</ele>
        <time>2020-11-02T09:09:18.939Z</time>
      </trkpt>
      <trkpt lat="44.72229" lon="3.71243">
        <ele>1174.0668945312</ele>
        <time>2020-11-02T09:09:19.830Z</time>
      </trkpt>
      <trkpt lat="44.72229" lon="3.71242">
        <ele>1174.0714111328</ele>
        <time>2020-11-02T09:09:20.721Z</time>
      </trkpt>
      <trkpt lat="44.72229" lon="3.71243">
        <ele>1174.0668945312</ele>
        <time>2020-11-02T09:09:21.613Z</time>
      </trkpt>
      <trkpt lat="44.72249" lon="3.71254">
        <ele>1173.7188720703</ele>
        <time>2020-11-02T09:09:22.509Z</time>
      </trkpt>
      <trkpt lat="44.72262" lon="3.71264">
        <ele>1173.5269775391</ele>
        <time>2020-11-02T09:09:23.408Z</time>
      </trkpt>
      <trkpt lat="44.72282" lon="3.71281">
        <ele>1172.6038818359</ele>
        <time>2020-11-02T09:09:24.312Z</time>
      </trkpt>
      <trkpt lat="44.72305" lon="3.71291">
        <ele>1170.9265136719</ele>
        <time>2020-11-02T09:09:25.220Z</time>
      </trkpt>
      <trkpt lat="44.72362" lon="3.71237">
        <ele>1172.6873779297</ele>
        <time>2020-11-02T09:09:26.142Z</time>
      </trkpt>
      <trkpt lat="44.72434" lon="3.7116">
        <ele>1167.9638671875</ele>
        <time>2020-11-02T09:09:27.082Z</time>
      </trkpt>
      <trkpt lat="44.72451" lon="3.71144">
        <ele>1165.4923095703</ele>
        <time>2020-11-02T09:09:28.026Z</time>
      </trkpt>
      <trkpt lat="44.72472" lon="3.71129">
        <ele>1163.4189453125</ele>
        <time>2020-11-02T09:09:28.975Z</time>
      </trkpt>
      <trkpt lat="44.72516" lon="3.711">
        <ele>1152.3896484375</ele>
        <time>2020-11-02T09:09:29.934Z</time>
      </trkpt>
      <trkpt lat="44.72532" lon="3.71093">
        <ele>1148.6632080078</ele>
        <time>2020-11-02T09:09:30.896Z</time>
      </trkpt>
      <trkpt lat="44.72544" lon="3.71093">
        <ele>1147.4560546875</ele>
        <time>2020-11-02T09:09:31.861Z</time>
      </trkpt>
      <trkpt lat="44.72562" lon="3.71096">
        <ele>1147.1320800781</ele>
        <time>2020-11-02T09:09:32.829Z</time>
      </trkpt>
      <trkpt lat="44.72569" lon="3.71094">
        <ele>1146.8920898438</ele>
        <time>2020-11-02T09:09:33.799Z</time>
      </trkpt>
      <trkpt lat="44.72576" lon="3.71092">
        <ele>1146.6520996094</ele>
        <time>2020-11-02T09:09:34.770Z</time>
      </trkpt>
      <trkpt lat="44.72581" lon="3.71087">
        <ele>1146.3521728516</ele>
        <time>2020-11-02T09:09:35.742Z</time>
      </trkpt>
      <trkpt lat="44.72594" lon="3.71064">
        <ele>1144.5854492188</ele>
        <time>2020-11-02T09:09:36.718Z</time>
      </trkpt>
      <trkpt lat="44.72606" lon="3.71047">
        <ele>1142.2938232422</ele>
        <time>2020-11-02T09:09:37.698Z</time>
      </trkpt>
      <trkpt lat="44.72624" lon="3.71034">
        <ele>1140.1188964844</ele>
        <time>2020-11-02T09:09:38.682Z</time>
      </trkpt>
      <trkpt lat="44.72641" lon="3.71025">
        <ele>1139.3475341797</ele>
        <time>2020-11-02T09:09:39.670Z</time>
      </trkpt>
      <trkpt lat="44.72668" lon="3.71015">
        <ele>1138.9379882812</ele>
        <time>2020-11-02T09:09:40.663Z</time>
      </trkpt>
      <trkpt lat="44.72684" lon="3.71007">
        <ele>1138.8419189453</ele>
        <time>2020-11-02T09:09:41.660Z</time>
      </trkpt>
      <trkpt lat="44.72694" lon="3.71001">
        <ele>1138.5451660156</ele>
        <time>2020-11-02T09:09:42.659Z</time>
      </trkpt>
      <trkpt lat="44.72706" lon="3.71">
        <ele>1138.1684570312</ele>
        <time>2020-11-02T09:09:43.660Z</time>
      </trkpt>
      <trkpt lat="44.7273" lon="3.71008">
        <ele>1137.3045654297</ele>
        <time>2020-11-02T09:09:44.666Z</time>
      </trkpt>
      <trkpt lat="44.72749" lon="3.71021">
        <ele>1136.9104003906</ele>
        <time>2020-11-02T09:09:45.676Z</time>
      </trkpt>
      <trkpt lat="44.72765" lon="3.71033">
        <ele>1137.2943115234</ele>
        <time>2020-11-02T09:09:46.690Z</time>
      </trkpt>
      <trkpt lat="44.72783" lon="3.71039">
        <ele>1137.0063476562</ele>
        <time>2020-11-02T09:09:47.708Z</time>
      </trkpt>
      <trkpt lat="44.72812" lon="3.71043">
        <ele>1136.3452148438</ele>
        <time>2020-11-02T09:09:48.731Z</time>
      </trkpt>
      <trkpt lat="44.7282" lon="3.71045">
        <ele>1136.3931884766</ele>
        <time>2020-11-02T09:09:49.756Z</time>
      </trkpt>
      <trkpt lat="44.72831" lon="3.71054">
        <ele>1136.9091796875</ele>
        <time>2020-11-02T09:09:50.784Z</time>
      </trkpt>
      <trkpt lat="44.72854" lon="3.7107">
        <ele>1137.7850341797</ele>
        <time>2020-11-02T09:09:51.817Z</time>
      </trkpt>
      <trkpt lat="44.72869" lon="3.71075">
        <ele>1137.9649658203</ele>
        <time>2020-11-02T09:09:52.853Z</time>
      </trkpt>
      <trkpt lat="44.72905" lon="3.71078">
        <ele>1138.9908447266</ele>
        <time>2020-11-02T09:09:53.896Z</time>
      </trkpt>
      <trkpt lat="44.72944" lon="3.71078">
        <ele>1139.9267578125</ele>
        <time>2020-11-02T09:09:54.947Z</time>
      </trkpt>
      <trkpt lat="44.72962" lon="3.71075">
        <ele>1140.1427001953</ele>
        <time>2020-11-02T09:09:56.001Z</time>
      </trkpt>
      <trkpt lat="44.72982" lon="3.71067">
        <ele>1140.0467529297</ele>
        <time>2020-11-02T09:09:57.060Z</time>
      </trkpt>
      <trkpt lat="44.72996" lon="3.71056">
        <ele>1139.3630371094</ele>
        <time>2020-11-02T09:09:58.122Z</time>
      </trkpt>
      <trkpt lat="44.73016" lon="3.71042">
        <ele>1137.611328125</ele>
        <time>2020-11-02T09:09:59.188Z</time>
      </trkpt>
      <trkpt lat="44.73049" lon="3.71028">
        <ele>1136.5521240234</ele>
        <time>2020-11-02T09:10:00.261Z</time>
      </trkpt>
      <trkpt lat="44.73062" lon="3.71028">
        <ele>1137.0201416016</ele>
        <time>2020-11-02T09:10:01.337Z</time>
      </trkpt>
      <trkpt lat="44.731" lon="3.71032">
        <ele>1138.9637451172</ele>
        <time>2020-11-02T09:10:02.420Z</time>
      </trkpt>
      <trkpt lat="44.73132" lon="3.71039">
        <ele>1141.1234130859</ele>
        <time>2020-11-02T09:10:03.510Z</time>
      </trkpt>
      <trkpt lat="44.73185" lon="3.71056">
        <ele>1144.1044921875</ele>
        <time>2020-11-02T09:10:04.611Z</time>
      </trkpt>
      <trkpt lat="44.73237" lon="3.71074">
        <ele>1145.3468017578</ele>
        <time>2020-11-02T09:10:05.722Z</time>
      </trkpt>
      <trkpt lat="44.73272" lon="3.71089">
        <ele>1146.1267089844</ele>
        <time>2020-11-02T09:10:06.841Z</time>
      </trkpt>
      <trkpt lat="44.73288" lon="3.71099">
        <ele>1146.6773681641</ele>
        <time>2020-11-02T09:10:07.963Z</time>
      </trkpt>
      <trkpt lat="44.73316" lon="3.71133">
        <ele>1144.6427001953</ele>
        <time>2020-11-02T09:10:09.093Z</time>
      </trkpt>
      <trkpt lat="44.73342" lon="3.71166">
        <ele>1142.4470214844</ele>
        <time>2020-11-02T09:10:10.230Z</time>
      </trkpt>
      <trkpt lat="44.7336" lon="3.71186">
        <ele>1140.5513916016</ele>
        <time>2020-11-02T09:10:11.371Z</time>
      </trkpt>
      <trkpt lat="44.73377" lon="3.71205">
        <ele>1137.0350341797</ele>
        <time>2020-11-02T09:10:12.517Z</time>
      </trkpt>
      <trkpt lat="44.73389" lon="3.71226">
        <ele>1134.7674560547</ele>
        <time>2020-11-02T09:10:13.666Z</time>
      </trkpt>
      <trkpt lat="44.73398" lon="3.7126">
        <ele>1133.7236328125</ele>
        <time>2020-11-02T09:10:14.821Z</time>
      </trkpt>
      <trkpt lat="44.73404" lon="3.71297">
        <ele>1131.2939453125</ele>
        <time>2020-11-02T09:10:15.981Z</time>
      </trkpt>
      <trkpt lat="44.73402" lon="3.7131">
        <ele>1130.7724609375</ele>
        <time>2020-11-02T09:10:17.143Z</time>
      </trkpt>
      <trkpt lat="44.73392" lon="3.71333">
        <ele>1130.6044921875</ele>
        <time>2020-11-02T09:10:18.309Z</time>
      </trkpt>
      <trkpt lat="44.73384" lon="3.71353">
        <ele>1130.3165283203</ele>
        <time>2020-11-02T09:10:19.478Z</time>
      </trkpt>
      <trkpt lat="44.73376" lon="3.71375">
        <ele>1129.5822753906</ele>
        <time>2020-11-02T09:10:20.651Z</time>
      </trkpt>
      <trkpt lat="44.73375" lon="3.71376">
        <ele>1129.6182861328</ele>
        <time>2020-11-02T09:10:21.824Z</time>
      </trkpt>
      <trkpt lat="44.73363" lon="3.71409">
        <ele>1127.8034667969</ele>
        <time>2020-11-02T09:10:23.002Z</time>
      </trkpt>
      <trkpt lat="44.73354" lon="3.71445">
        <ele>1125.998046875</ele>
        <time>2020-11-02T09:10:24.186Z</time>
      </trkpt>
      <trkpt lat="44.7335" lon="3.71474">
        <ele>1124.7742919922</ele>
        <time>2020-11-02T09:10:25.374Z</time>
      </trkpt>
      <trkpt lat="44.73352" lon="3.71487">
        <ele>1123.4064941406</ele>
        <time>2020-11-02T09:10:26.564Z</time>
      </trkpt>
      <trkpt lat="44.73357" lon="3.71491">
        <ele>1122.0386962891</ele>
        <time>2020-11-02T09:10:27.755Z</time>
      </trkpt>
      <trkpt lat="44.73365" lon="3.71492">
        <ele>1120.2390136719</ele>
        <time>2020-11-02T09:10:28.947Z</time>
      </trkpt>
      <trkpt lat="44.73376" lon="3.71489">
        <ele>1118.6646728516</ele>
        <time>2020-11-02T09:10:30.142Z</time>
      </trkpt>
      <trkpt lat="44.73388" lon="3.71482">
        <ele>1117.8728027344</ele>
        <time>2020-11-02T09:10:31.339Z</time>
      </trkpt>
      <trkpt lat="44.73406" lon="3.71467">
        <ele>1116.7532958984</ele>
        <time>2020-11-02T09:10:32.540Z</time>
      </trkpt>
      <trkpt lat="44.73419" lon="3.7146">
        <ele>1114.8935546875</ele>
        <time>2020-11-02T09:10:33.744Z</time>
      </trkpt>
      <trkpt lat="44.7345" lon="3.71451">
        <ele>1110.2742919922</ele>
        <time>2020-11-02T09:10:34.955Z</time>
      </trkpt>
      <trkpt lat="44.73477" lon="3.71448">
        <ele>1109.0257568359</ele>
        <time>2020-11-02T09:10:36.171Z</time>
      </trkpt>
      <trkpt lat="44.73501" lon="3.71448">
        <ele>1107.8739013672</ele>
        <time>2020-11-02T09:10:37.392Z</time>
      </trkpt>
      <trkpt lat="44.73512" lon="3.71449">
        <ele>1107.3580322266</ele>
        <time>2020-11-02T09:10:38.615Z</time>
      </trkpt>
      <trkpt lat="44.73527" lon="3.71447">
        <ele>1106.6141357422</ele>
        <time>2020-11-02T09:10:39.841Z</time>
      </trkpt>
      <trkpt lat="44.73545" lon="3.71438">
        <ele>1106.4512939453</ele>
        <time>2020-11-02T09:10:41.071Z</time>
      </trkpt>
      <trkpt lat="44.73554" lon="3.71437">
        <ele>1107.1951904297</ele>
        <time>2020-11-02T09:10:42.303Z</time>
      </trkpt>
      <trkpt lat="44.73586" lon="3.71444">
        <ele>1108.8269042969</ele>
        <time>2020-11-02T09:10:43.541Z</time>
      </trkpt>
      <trkpt lat="44.73607" lon="3.71448">
        <ele>1109.9547119141</ele>
        <time>2020-11-02T09:10:44.783Z</time>
      </trkpt>
      <trkpt lat="44.73622" lon="3.71447">
        <ele>1111.0147705078</ele>
        <time>2020-11-02T09:10:46.028Z</time>
      </trkpt>
      <trkpt lat="44.73656" lon="3.71442">
        <ele>1112.5402832031</ele>
        <time>2020-11-02T09:10:47.280Z</time>
      </trkpt>
      <trkpt lat="44.73712" lon="3.71447">
        <ele>1113.2578125</ele>
        <time>2020-11-02T09:10:48.543Z</time>
      </trkpt>
      <trkpt lat="44.73741" lon="3.71454">
        <ele>1112.1630859375</ele>
        <time>2020-11-02T09:10:49.812Z</time>
      </trkpt>
      <trkpt lat="44.73766" lon="3.71457">
        <ele>1111.8872070312</ele>
        <time>2020-11-02T09:10:51.086Z</time>
      </trkpt>
      <trkpt lat="44.73777" lon="3.71456">
        <ele>1112.2110595703</ele>
        <time>2020-11-02T09:10:52.363Z</time>
      </trkpt>
      <trkpt lat="44.73781" lon="3.71455">
        <ele>1112.4510498047</ele>
        <time>2020-11-02T09:10:53.640Z</time>
      </trkpt>
      <trkpt lat="44.73784" lon="3.7145">
        <ele>1113.4468994141</ele>
        <time>2020-11-02T09:10:54.918Z</time>
      </trkpt>
      <trkpt lat="44.73796" lon="3.71432">
        <ele>1117.263671875</ele>
        <time>2020-11-02T09:10:56.200Z</time>
      </trkpt>
      <trkpt lat="44.73836" lon="3.71381">
        <ele>1129.5621337891</ele>
        <time>2020-11-02T09:10:57.493Z</time>
      </trkpt>
      <trkpt lat="44.73874" lon="3.71337">
        <ele>1132.1491699219</ele>
        <time>2020-11-02T09:10:58.795Z</time>
      </trkpt>
      <trkpt lat="44.73904" lon="3.713">
        <ele>1131.5281982422</ele>
        <time>2020-11-02T09:11:00.105Z</time>
      </trkpt>
      <trkpt lat="44.73925" lon="3.71264">
        <ele>1128.7927246094</ele>
        <time>2020-11-02T09:11:01.422Z</time>
      </trkpt>
      <trkpt lat="44.73938" lon="3.71238">
        <ele>1127.4273681641</ele>
        <time>2020-11-02T09:11:02.744Z</time>
      </trkpt>
      <trkpt lat="44.7394" lon="3.7122">
        <ele>1127.9312744141</ele>
        <time>2020-11-02T09:11:04.068Z</time>
      </trkpt>
      <trkpt lat="44.73936" lon="3.71196">
        <ele>1129.8029785156</ele>
        <time>2020-11-02T09:11:05.396Z</time>
      </trkpt>
      <trkpt lat="44.73923" lon="3.71165">
        <ele>1133.3679199219</ele>
        <time>2020-11-02T09:11:06.729Z</time>
      </trkpt>
      <trkpt lat="44.7392" lon="3.7115">
        <ele>1134.5163574219</ele>
        <time>2020-11-02T09:11:08.064Z</time>
      </trkpt>
      <trkpt lat="44.73921" lon="3.71133">
        <ele>1135.3801269531</ele>
        <time>2020-11-02T09:11:09.402Z</time>
      </trkpt>
      <trkpt lat="44.73924" lon="3.71124">
        <ele>1135.4521484375</ele>
        <time>2020-11-02T09:11:10.741Z</time>
      </trkpt>
      <trkpt lat="44.73929" lon="3.71119">
        <ele>1134.9722900391</ele>
        <time>2020-11-02T09:11:12.081Z</time>
      </trkpt>
      <trkpt lat="44.73948" lon="3.7111">
        <ele>1132.5485839844</ele>
        <time>2020-11-02T09:11:13.425Z</time>
      </trkpt>
      <trkpt lat="44.73973" lon="3.71108">
        <ele>1132.4685058594</ele>
        <time>2020-11-02T09:11:14.774Z</time>
      </trkpt>
      <trkpt lat="44.73986" lon="3.71099">
        <ele>1133.6394042969</ele>
        <time>2020-11-02T09:11:16.126Z</time>
      </trkpt>
      <trkpt lat="44.73989" lon="3.71094">
        <ele>1134.2872314453</ele>
        <time>2020-11-02T09:11:17.479Z</time>
      </trkpt>
      <trkpt lat="44.7399" lon="3.71082">
        <ele>1135.6190185547</ele>
        <time>2020-11-02T09:11:18.834Z</time>
      </trkpt>
      <trkpt lat="44.73987" lon="3.71071">
        <ele>1136.6988525391</ele>
        <time>2020-11-02T09:11:20.190Z</time>
      </trkpt>
      <trkpt lat="44.73979" lon="3.71049">
        <ele>1138.7864990234</ele>
        <time>2020-11-02T09:11:21.550Z</time>
      </trkpt>
      <trkpt lat="44.73967" lon="3.71032">
        <ele>1140.1484375</ele>
        <time>2020-11-02T09:11:22.913Z</time>
      </trkpt>
      <trkpt lat="44.73942" lon="3.70991">
        <ele>1146.3732910156</ele>
        <time>2020-11-02T09:11:24.284Z</time>
      </trkpt>
      <trkpt lat="44.73922" lon="3.70962">
        <ele>1152.9721679688</ele>
        <time>2020-11-02T09:11:25.661Z</time>
      </trkpt>
      <trkpt lat="44.73912" lon="3.70952">
        <ele>1155.7316894531</ele>
        <time>2020-11-02T09:11:27.040Z</time>
      </trkpt>
      <trkpt lat="44.73907" lon="3.70945">
        <ele>1157.3514404297</ele>
        <time>2020-11-02T09:11:28.421Z</time>
      </trkpt>
      <trkpt lat="44.73907" lon="3.7094">
        <ele>1157.9514160156</ele>
        <time>2020-11-02T09:11:29.802Z</time>
      </trkpt>
      <trkpt lat="44.73907" lon="3.70908">
        <ele>1160.7531738281</ele>
        <time>2020-11-02T09:11:31.188Z</time>
      </trkpt>
      <trkpt lat="44.739" lon="3.70899">
        <ele>1162.6009521484</ele>
        <time>2020-11-02T09:11:32.576Z</time>
      </trkpt>
      <trkpt lat="44.73892" lon="3.70898">
        <ele>1163.9327392578</ele>
        <time>2020-11-02T09:11:33.965Z</time>
      </trkpt>
      <trkpt lat="44.73885" lon="3.70894">
        <ele>1165.3604736328</ele>
        <time>2020-11-02T09:11:35.356Z</time>
      </trkpt>
      <trkpt lat="44.73884" lon="3.70887">
        <ele>1166.1043701172</ele>
        <time>2020-11-02T09:11:36.748Z</time>
      </trkpt>
      <trkpt lat="44.73894" lon="3.70844">
        <ele>1170.2822265625</ele>
        <time>2020-11-02T09:11:38.146Z</time>
      </trkpt>
      <trkpt lat="44.73893" lon="3.70834">
        <ele>1171.0621337891</ele>
        <time>2020-11-02T09:11:39.546Z</time>
      </trkpt>
      <trkpt lat="44.73895" lon="3.70818">
        <ele>1172.0939941406</ele>
        <time>2020-11-02T09:11:40.948Z</time>
      </trkpt>
      <trkpt lat="44.73913" lon="3.70769">
        <ele>1176.0112304688</ele>
        <time>2020-11-02T09:11:42.358Z</time>
      </trkpt>
      <trkpt lat="44.73924" lon="3.70749">
        <ele>1176.2271728516</ele>
        <time>2020-11-02T09:11:43.772Z</time>
      </trkpt>
      <trkpt lat="44.73926" lon="3.70739">
        <ele>1176.4565429688</ele>
        <time>2020-11-02T09:11:45.187Z</time>
      </trkpt>
      <trkpt lat="44.73926" lon="3.70718">
        <ele>1177.2124023438</ele>
        <time>2020-11-02T09:11:46.605Z</time>
      </trkpt>
      <trkpt lat="44.73921" lon="3.70688">
        <ele>1178.3522949219</ele>
        <time>2020-11-02T09:11:48.027Z</time>
      </trkpt>
      <trkpt lat="44.73904" lon="3.70636">
        <ele>1181.609375</ele>
        <time>2020-11-02T09:11:49.458Z</time>
      </trkpt>
      <trkpt lat="44.73898" lon="3.70606">
        <ele>1182.3293457031</ele>
        <time>2020-11-02T09:11:50.893Z</time>
      </trkpt>
      <trkpt lat="44.7389" lon="3.70582">
        <ele>1182.8399658203</ele>
        <time>2020-11-02T09:11:52.332Z</time>
      </trkpt>
      <trkpt lat="44.73874" lon="3.70556">
        <ele>1183.7998046875</ele>
        <time>2020-11-02T09:11:53.776Z</time>
      </trkpt>
      <trkpt lat="44.7387" lon="3.70539">
        <ele>1184.0318603516</ele>
        <time>2020-11-02T09:11:55.222Z</time>
      </trkpt>
      <trkpt lat="44.73873" lon="3.70515">
        <ele>1184.1320800781</ele>
        <time>2020-11-02T09:11:56.672Z</time>
      </trkpt>
      <trkpt lat="44.73889" lon="3.70441">
        <ele>1187.2534179688</ele>
        <time>2020-11-02T09:11:58.133Z</time>
      </trkpt>
      <trkpt lat="44.73889" lon="3.70424">
        <ele>1188.3243408203</ele>
        <time>2020-11-02T09:11:59.596Z</time>
      </trkpt>
      <trkpt lat="44.73884" lon="3.70404">
        <ele>1189.6440429688</ele>
        <time>2020-11-02T09:12:01.062Z</time>
      </trkpt>
      <trkpt lat="44.7388" lon="3.70366">
        <ele>1192.0196533203</ele>
        <time>2020-11-02T09:12:02.534Z</time>
      </trkpt>
      <trkpt lat="44.73873" lon="3.70339">
        <ele>1192.9719238281</ele>
        <time>2020-11-02T09:12:04.010Z</time>
      </trkpt>
      <trkpt lat="44.73871" lon="3.70306">
        <ele>1192.9959716797</ele>
        <time>2020-11-02T09:12:05.491Z</time>
      </trkpt>
      <trkpt lat="44.73877" lon="3.70274">
        <ele>1192.9525146484</ele>
        <time>2020-11-02T09:12:06.976Z</time>
      </trkpt>
      <trkpt lat="44.73887" lon="3.70239">
        <ele>1193.7449951172</ele>
        <time>2020-11-02T09:12:08.467Z</time>
      </trkpt>
      <trkpt lat="44.73888" lon="3.7023">
        <ele>1193.9609375</ele>
        <time>2020-11-02T09:12:09.959Z</time>
      </trkpt>
      <trkpt lat="44.73886" lon="3.70196">
        <ele>1194.7043457031</ele>
        <time>2020-11-02T09:12:11.456Z</time>
      </trkpt>
      <trkpt lat="44.73872" lon="3.70119">
        <ele>1196.6085205078</ele>
        <time>2020-11-02T09:12:12.964Z</time>
      </trkpt>
      <trkpt lat="44.73858" lon="3.70058">
        <ele>1197</ele>
        <time>2020-11-02T09:12:14.481Z</time>
      </trkpt>
      <trkpt lat="44.73858" lon="3.70044">
        <ele>1197</ele>
        <time>2020-11-02T09:12:16.000Z</time>
      </trkpt>
      <trkpt lat="44.73855" lon="3.70016">
        <ele>1197.1441650391</ele>
        <time>2020-11-02T09:12:17.523Z</time>
      </trkpt>
      <trkpt lat="44.73846" lon="3.69974">
        <ele>1198.3997802734</ele>
        <time>2020-11-02T09:12:19.053Z</time>
      </trkpt>
      <trkpt lat="44.73838" lon="3.69943">
        <ele>1199.2397460938</ele>
        <time>2020-11-02T09:12:20.587Z</time>
      </trkpt>
      <trkpt lat="44.73836" lon="3.6992">
        <ele>1200.0155029297</ele>
        <time>2020-11-02T09:12:22.125Z</time>
      </trkpt>
      <trkpt lat="44.73826" lon="3.69894">
        <ele>1201.0712890625</ele>
        <time>2020-11-02T09:12:23.667Z</time>
      </trkpt>
      <trkpt lat="44.7382" lon="3.69874">
        <ele>1201.8631591797</ele>
        <time>2020-11-02T09:12:25.212Z</time>
      </trkpt>
      <trkpt lat="44.73816" lon="3.69846">
        <ele>1202.6558837891</ele>
        <time>2020-11-02T09:12:26.761Z</time>
      </trkpt>
      <trkpt lat="44.73816" lon="3.69824">
        <ele>1202.6558837891</ele>
        <time>2020-11-02T09:12:28.313Z</time>
      </trkpt>
      <trkpt lat="44.73815" lon="3.69806">
        <ele>1202.6678466797</ele>
        <time>2020-11-02T09:12:29.868Z</time>
      </trkpt>
      <trkpt lat="44.73807" lon="3.69765">
        <ele>1204.2999267578</ele>
        <time>2020-11-02T09:12:31.429Z</time>
      </trkpt>
      <trkpt lat="44.73791" lon="3.69703">
        <ele>1204.8278808594</ele>
        <time>2020-11-02T09:12:32.999Z</time>
      </trkpt>
      <trkpt lat="44.73783" lon="3.69637">
        <ele>1206.0352783203</ele>
        <time>2020-11-02T09:12:34.579Z</time>
      </trkpt>
      <trkpt lat="44.73779" lon="3.69561">
        <ele>1208.3218994141</ele>
        <time>2020-11-02T09:12:36.170Z</time>
      </trkpt>
      <trkpt lat="44.73779" lon="3.69493">
        <ele>1210.7694091797</ele>
        <time>2020-11-02T09:12:37.770Z</time>
      </trkpt>
      <trkpt lat="44.73783" lon="3.69471">
        <ele>1211.6573486328</ele>
        <time>2020-11-02T09:12:39.373Z</time>
      </trkpt>
      <trkpt lat="44.73792" lon="3.69443">
        <ele>1213.3306884766</ele>
        <time>2020-11-02T09:12:40.981Z</time>
      </trkpt>
      <trkpt lat="44.73798" lon="3.6938">
        <ele>1213.7691650391</ele>
        <time>2020-11-02T09:12:42.598Z</time>
      </trkpt>
      <trkpt lat="44.738" lon="3.69349">
        <ele>1213.8553466797</ele>
        <time>2020-11-02T09:12:44.219Z</time>
      </trkpt>
      <trkpt lat="44.738" lon="3.69349">
        <ele>1213.8624267578</ele>
        <time>2020-11-02T09:12:45.840Z</time>
      </trkpt>
      <trkpt lat="44.73796" lon="3.69302">
        <ele>1213.0104980469</ele>
        <time>2020-11-02T09:12:47.468Z</time>
      </trkpt>
      <trkpt lat="44.738" lon="3.69219">
        <ele>1213.5218505859</ele>
        <time>2020-11-02T09:12:49.108Z</time>
      </trkpt>
      <trkpt lat="44.73802" lon="3.69156">
        <ele>1215.0369873047</ele>
        <time>2020-11-02T09:12:50.757Z</time>
      </trkpt>
      <trkpt lat="44.73806" lon="3.69055">
        <ele>1217.7254638672</ele>
        <time>2020-11-02T09:12:52.420Z</time>
      </trkpt>
      <trkpt lat="44.7382" lon="3.69001">
        <ele>1218.7945556641</ele>
        <time>2020-11-02T09:12:54.092Z</time>
      </trkpt>
      <trkpt lat="44.73823" lon="3.68974">
        <ele>1219.2625732422</ele>
        <time>2020-11-02T09:12:55.768Z</time>
      </trkpt>
      <trkpt lat="44.73821" lon="3.68958">
        <ele>1219.06640625</ele>
        <time>2020-11-02T09:12:57.446Z</time>
      </trkpt>
      <trkpt lat="44.73816" lon="3.68864">
        <ele>1223.0369873047</ele>
        <time>2020-11-02T09:12:59.137Z</time>
      </trkpt>
      <trkpt lat="44.73814" lon="3.68846">
        <ele>1224.4117431641</ele>
        <time>2020-11-02T09:13:00.831Z</time>
      </trkpt>
      <trkpt lat="44.73809" lon="3.68826">
        <ele>1226.4514160156</ele>
        <time>2020-11-02T09:13:02.528Z</time>
      </trkpt>
      <trkpt lat="44.73803" lon="3.6881">
        <ele>1228.03515625</ele>
        <time>2020-11-02T09:13:04.227Z</time>
      </trkpt>
      <trkpt lat="44.73817" lon="3.68815">
        <ele>1227.8634033203</ele>
        <time>2020-11-02T09:13:05.929Z</time>
      </trkpt>
      <trkpt lat="44.73818" lon="3.68815">
        <ele>1227.8551025391</ele>
        <time>2020-11-02T09:13:07.632Z</time>
      </trkpt>
      <trkpt lat="44.73854" lon="3.68828">
        <ele>1227.1116943359</ele>
        <time>2020-11-02T09:13:09.342Z</time>
      </trkpt>
      <trkpt lat="44.73893" lon="3.68841">
        <ele>1226.5559082031</ele>
        <time>2020-11-02T09:13:11.060Z</time>
      </trkpt>
      <trkpt lat="44.74016" lon="3.68884">
        <ele>1224.7653808594</ele>
        <time>2020-11-02T09:13:12.803Z</time>
      </trkpt>
      <trkpt lat="44.74031" lon="3.68887">
        <ele>1224.1175537109</ele>
        <time>2020-11-02T09:13:14.549Z</time>
      </trkpt>
      <trkpt lat="44.74051" lon="3.6889">
        <ele>1223.720703125</ele>
        <time>2020-11-02T09:13:16.299Z</time>
      </trkpt>
      <trkpt lat="44.74083" lon="3.68888">
        <ele>1223.0299072266</ele>
        <time>2020-11-02T09:13:18.056Z</time>
      </trkpt>
      <trkpt lat="44.741" lon="3.68908">
        <ele>1223.3779296875</ele>
        <time>2020-11-02T09:13:19.817Z</time>
      </trkpt>
      <trkpt lat="44.74113" lon="3.68916">
        <ele>1223.2939453125</ele>
        <time>2020-11-02T09:13:21.581Z</time>
      </trkpt>
      <trkpt lat="44.74133" lon="3.68926">
        <ele>1223.2015380859</ele>
        <time>2020-11-02T09:13:23.349Z</time>
      </trkpt>
      <trkpt lat="44.7416" lon="3.68943">
        <ele>1223.3695068359</ele>
        <time>2020-11-02T09:13:25.123Z</time>
      </trkpt>
      <trkpt lat="44.74183" lon="3.68963">
        <ele>1223.77734375</ele>
        <time>2020-11-02T09:13:26.903Z</time>
      </trkpt>
      <trkpt lat="44.74197" lon="3.68979">
        <ele>1224.2093505859</ele>
        <time>2020-11-02T09:13:28.686Z</time>
      </trkpt>
      <trkpt lat="44.74208" lon="3.69004">
        <ele>1224.9556884766</ele>
        <time>2020-11-02T09:13:30.474Z</time>
      </trkpt>
      <trkpt lat="44.74222" lon="3.69042">
        <ele>1225.1254882812</ele>
        <time>2020-11-02T09:13:32.268Z</time>
      </trkpt>
      <trkpt lat="44.74242" lon="3.69079">
        <ele>1224.7415771484</ele>
        <time>2020-11-02T09:13:34.068Z</time>
      </trkpt>
      <trkpt lat="44.74266" lon="3.69117">
        <ele>1223.6422119141</ele>
        <time>2020-11-02T09:13:35.875Z</time>
      </trkpt>
      <trkpt lat="44.74272" lon="3.69131">
        <ele>1223.3303222656</ele>
        <time>2020-11-02T09:13:37.685Z</time>
      </trkpt>
      <trkpt lat="44.74283" lon="3.69172">
        <ele>1223.1263427734</ele>
        <time>2020-11-02T09:13:39.501Z</time>
      </trkpt>
      <trkpt lat="44.74287" lon="3.69191">
        <ele>1223.0335693359</ele>
        <time>2020-11-02T09:13:41.320Z</time>
      </trkpt>
      <trkpt lat="44.74295" lon="3.69224">
        <ele>1222.9088134766</ele>
        <time>2020-11-02T09:13:43.144Z</time>
      </trkpt>
      <trkpt lat="44.74295" lon="3.69264">
        <ele>1222.9088134766</ele>
        <time>2020-11-02T09:13:44.974Z</time>
      </trkpt>
      <trkpt lat="44.74295" lon="3.69304">
        <ele>1221.4071044922</ele>
        <time>2020-11-02T09:13:46.809Z</time>
      </trkpt>
      <trkpt lat="44.74302" lon="3.69367">
        <ele>1218.3077392578</ele>
        <time>2020-11-02T09:13:48.653Z</time>
      </trkpt>
      <trkpt lat="44.74303" lon="3.69412">
        <ele>1216.57421875</ele>
        <time>2020-11-02T09:13:50.504Z</time>
      </trkpt>
      <trkpt lat="44.74302" lon="3.69444">
        <ele>1215.5955810547</ele>
        <time>2020-11-02T09:13:52.359Z</time>
      </trkpt>
      <trkpt lat="44.74304" lon="3.69508">
        <ele>1209.9450683594</ele>
        <time>2020-11-02T09:13:54.223Z</time>
      </trkpt>
      <trkpt lat="44.74307" lon="3.69563">
        <ele>1207.7775878906</ele>
        <time>2020-11-02T09:13:56.095Z</time>
      </trkpt>
      <trkpt lat="44.7431" lon="3.69591">
        <ele>1207.3337402344</ele>
        <time>2020-11-02T09:13:57.971Z</time>
      </trkpt>
      <trkpt lat="44.74314" lon="3.69603">
        <ele>1207.0457763672</ele>
        <time>2020-11-02T09:13:59.849Z</time>
      </trkpt>
      <trkpt lat="44.74306" lon="3.6962">
        <ele>1206.7282714844</ele>
        <time>2020-11-02T09:14:01.730Z</time>
      </trkpt>
      <trkpt lat="44.7429" lon="3.69653">
        <ele>1207.2473144531</ele>
        <time>2020-11-02T09:14:03.617Z</time>
      </trkpt>
      <trkpt lat="44.74286" lon="3.69674">
        <ele>1207.2185058594</ele>
        <time>2020-11-02T09:14:05.507Z</time>
      </trkpt>
      <trkpt lat="44.74291" lon="3.69718">
        <ele>1206.0308837891</ele>
        <time>2020-11-02T09:14:07.403Z</time>
      </trkpt>
      <trkpt lat="44.74297" lon="3.69813">
        <ele>1203.7369384766</ele>
        <time>2020-11-02T09:14:09.313Z</time>
      </trkpt>
      <trkpt lat="44.74298" lon="3.69825">
        <ele>1203.4249267578</ele>
        <time>2020-11-02T09:14:11.225Z</time>
      </trkpt>
      <trkpt lat="44.74302" lon="3.69848">
        <ele>1202.7770996094</ele>
        <time>2020-11-02T09:14:13.140Z</time>
      </trkpt>
      <trkpt lat="44.74319" lon="3.69881">
        <ele>1202.2416992188</ele>
        <time>2020-11-02T09:14:15.061Z</time>
      </trkpt>
      <trkpt lat="44.7433" lon="3.69907">
        <ele>1201.9777832031</ele>
        <time>2020-11-02T09:14:16.986Z</time>
      </trkpt>
      <trkpt lat="44.74354" lon="3.69976">
        <ele>1200.4577636719</ele>
        <time>2020-11-02T09:14:18.922Z</time>
      </trkpt>
      <trkpt lat="44.74371" lon="3.70043">
        <ele>1199.2728271484</ele>
        <time>2020-11-02T09:14:20.868Z</time>
      </trkpt>
      <trkpt lat="44.74375" lon="3.70075">
        <ele>1199.6087646484</ele>
        <time>2020-11-02T09:14:22.819Z</time>
      </trkpt>
      <trkpt lat="44.74376" lon="3.70095">
        <ele>1199.8367919922</ele>
        <time>2020-11-02T09:14:24.773Z</time>
      </trkpt>
      <trkpt lat="44.74385" lon="3.70157">
        <ele>1197.5559082031</ele>
        <time>2020-11-02T09:14:26.736Z</time>
      </trkpt>
      <trkpt lat="44.74394" lon="3.70206">
        <ele>1195.4682617188</ele>
        <time>2020-11-02T09:14:28.706Z</time>
      </trkpt>
      <trkpt lat="44.744" lon="3.70228">
        <ele>1194.0268554688</ele>
        <time>2020-11-02T09:14:30.679Z</time>
      </trkpt>
      <trkpt lat="44.74409" lon="3.70246">
        <ele>1192.7310791016</ele>
        <time>2020-11-02T09:14:32.655Z</time>
      </trkpt>
      <trkpt lat="44.74421" lon="3.70271">
        <ele>1190.8741455078</ele>
        <time>2020-11-02T09:14:34.636Z</time>
      </trkpt>
      <trkpt lat="44.74432" lon="3.70288">
        <ele>1188.6304931641</ele>
        <time>2020-11-02T09:14:36.620Z</time>
      </trkpt>
      <trkpt lat="44.74439" lon="3.70312">
        <ele>1185.4630126953</ele>
        <time>2020-11-02T09:14:38.608Z</time>
      </trkpt>
      <trkpt lat="44.74446" lon="3.70342">
        <ele>1181.5036621094</ele>
        <time>2020-11-02T09:14:40.600Z</time>
      </trkpt>
      <trkpt lat="44.74468" lon="3.70403">
        <ele>1175.0493164062</ele>
        <time>2020-11-02T09:14:42.602Z</time>
      </trkpt>
      <trkpt lat="44.7447" lon="3.70415">
        <ele>1173.7535400391</ele>
        <time>2020-11-02T09:14:44.606Z</time>
      </trkpt>
      <trkpt lat="44.74472" lon="3.70439">
        <ele>1171.0451660156</ele>
        <time>2020-11-02T09:14:46.613Z</time>
      </trkpt>
      <trkpt lat="44.74469" lon="3.70463">
        <ele>1168.5100097656</ele>
        <time>2020-11-02T09:14:48.624Z</time>
      </trkpt>
      <trkpt lat="44.74457" lon="3.70503">
        <ele>1164.5747070312</ele>
        <time>2020-11-02T09:14:50.641Z</time>
      </trkpt>
      <trkpt lat="44.74446" lon="3.70547">
        <ele>1163.6165771484</ele>
        <time>2020-11-02T09:14:52.664Z</time>
      </trkpt>
      <trkpt lat="44.74448" lon="3.70564">
        <ele>1162.8967285156</ele>
        <time>2020-11-02T09:14:54.690Z</time>
      </trkpt>
      <trkpt lat="44.74452" lon="3.70573">
        <ele>1162.0568847656</ele>
        <time>2020-11-02T09:14:56.717Z</time>
      </trkpt>
      <trkpt lat="44.7446" lon="3.70581">
        <ele>1161.1131591797</ele>
        <time>2020-11-02T09:14:58.746Z</time>
      </trkpt>
      <trkpt lat="44.74485" lon="3.70603">
        <ele>1158.7855224609</ele>
        <time>2020-11-02T09:15:00.781Z</time>
      </trkpt>
      <trkpt lat="44.74513" lon="3.70648">
        <ele>1153.5513916016</ele>
        <time>2020-11-02T09:15:02.825Z</time>
      </trkpt>
      <trkpt lat="44.74525" lon="3.70662">
        <ele>1151.6796875</ele>
        <time>2020-11-02T09:15:04.872Z</time>
      </trkpt>
      <trkpt lat="44.7454" lon="3.70676">
        <ele>1149.7762451172</ele>
        <time>2020-11-02T09:15:06.922Z</time>
      </trkpt>
      <trkpt lat="44.74555" lon="3.70694">
        <ele>1148.220703125</ele>
        <time>2020-11-02T09:15:08.976Z</time>
      </trkpt>
      <trkpt lat="44.74567" lon="3.70712">
        <ele>1146.2769775391</ele>
        <time>2020-11-02T09:15:11.034Z</time>
      </trkpt>
      <trkpt lat="44.74575" lon="3.7073">
        <ele>1144.7406005859</ele>
        <time>2020-11-02T09:15:13.095Z</time>
      </trkpt>
      <trkpt lat="44.7458" lon="3.70754">
        <ele>1143.5168457031</ele>
        <time>2020-11-02T09:15:15.160Z</time>
      </trkpt>
      <trkpt lat="44.74588" lon="3.70782">
        <ele>1141.505859375</ele>
        <time>2020-11-02T09:15:17.229Z</time>
      </trkpt>
      <trkpt lat="44.74597" lon="3.70798">
        <ele>1139.7061767578</ele>
        <time>2020-11-02T09:15:19.301Z</time>
      </trkpt>
      <trkpt lat="44.74612" lon="3.70813">
        <ele>1137.5465087891</ele>
        <time>2020-11-02T09:15:21.376Z</time>
      </trkpt>
      <trkpt lat="44.74621" lon="3.70827">
        <ele>1135.9111328125</ele>
        <time>2020-11-02T09:15:23.454Z</time>
      </trkpt>
      <trkpt lat="44.74629" lon="3.70871">
        <ele>1133.1458740234</ele>
        <time>2020-11-02T09:15:25.539Z</time>
      </trkpt>
      <trkpt lat="44.7464" lon="3.70909">
        <ele>1131.1301269531</ele>
        <time>2020-11-02T09:15:27.629Z</time>
      </trkpt>
      <trkpt lat="44.74646" lon="3.70945">
        <ele>1128.9183349609</ele>
        <time>2020-11-02T09:15:29.725Z</time>
      </trkpt>
      <trkpt lat="44.74651" lon="3.70971">
        <ele>1126.9973144531</ele>
        <time>2020-11-02T09:15:31.825Z</time>
      </trkpt>
      <trkpt lat="44.74658" lon="3.70985">
        <ele>1126.2414550781</ele>
        <time>2020-11-02T09:15:33.927Z</time>
      </trkpt>
      <trkpt lat="44.74668" lon="3.70999">
        <ele>1125.4495849609</ele>
        <time>2020-11-02T09:15:36.032Z</time>
      </trkpt>
      <trkpt lat="44.74682" lon="3.71015">
        <ele>1124.5137939453</ele>
        <time>2020-11-02T09:15:38.140Z</time>
      </trkpt>
      <trkpt lat="44.74712" lon="3.71046">
        <ele>1122.8687744141</ele>
        <time>2020-11-02T09:15:40.256Z</time>
      </trkpt>
      <trkpt lat="44.74724" lon="3.71063">
        <ele>1123.0246582031</ele>
        <time>2020-11-02T09:15:42.375Z</time>
      </trkpt>
      <trkpt lat="44.7473" lon="3.71079">
        <ele>1122.4727783203</ele>
        <time>2020-11-02T09:15:44.497Z</time>
      </trkpt>
      <trkpt lat="44.74739" lon="3.71109">
        <ele>1120.9437255859</ele>
        <time>2020-11-02T09:15:46.623Z</time>
      </trkpt>
      <trkpt lat="44.7475" lon="3.71146">
        <ele>1117.9561767578</ele>
        <time>2020-11-02T09:15:48.755Z</time>
      </trkpt>
      <trkpt lat="44.74757" lon="3.71164">
        <ele>1116.8117675781</ele>
        <time>2020-11-02T09:15:50.890Z</time>
      </trkpt>
      <trkpt lat="44.74786" lon="3.71215">
        <ele>1114.1090087891</ele>
        <time>2020-11-02T09:15:53.034Z</time>
      </trkpt>
      <trkpt lat="44.7481" lon="3.71256">
        <ele>1112.6580810547</ele>
        <time>2020-11-02T09:15:55.186Z</time>
      </trkpt>
      <trkpt lat="44.74819" lon="3.71272">
        <ele>1112.1654052734</ele>
        <time>2020-11-02T09:15:57.341Z</time>
      </trkpt>
      <trkpt lat="44.74827" lon="3.7129">
        <ele>1112.2133789062</ele>
        <time>2020-11-02T09:15:59.499Z</time>
      </trkpt>
      <trkpt lat="44.74835" lon="3.71302">
        <ele>1112.693359375</ele>
        <time>2020-11-02T09:16:01.659Z</time>
      </trkpt>
      <trkpt lat="44.74841" lon="3.71319">
        <ele>1112.4774169922</ele>
        <time>2020-11-02T09:16:03.822Z</time>
      </trkpt>
      <trkpt lat="44.74853" lon="3.71373">
        <ele>1112.0051269531</ele>
        <time>2020-11-02T09:16:05.993Z</time>
      </trkpt>
      <trkpt lat="44.74862" lon="3.71408">
        <ele>1113.5168457031</ele>
        <time>2020-11-02T09:16:08.169Z</time>
      </trkpt>
      <trkpt lat="44.74864" lon="3.71427">
        <ele>1113.8527832031</ele>
        <time>2020-11-02T09:16:10.348Z</time>
      </trkpt>
      <trkpt lat="44.74864" lon="3.71437">
        <ele>1113.7708740234</ele>
        <time>2020-11-02T09:16:12.528Z</time>
      </trkpt>
      <trkpt lat="44.74871" lon="3.71461">
        <ele>1115.0163574219</ele>
        <time>2020-11-02T09:16:14.712Z</time>
      </trkpt>
      <trkpt lat="44.74876" lon="3.71478">
        <ele>1115.4962158203</ele>
        <time>2020-11-02T09:16:16.899Z</time>
      </trkpt>
      <trkpt lat="44.7487" lon="3.71483">
        <ele>1114.8507080078</ele>
        <time>2020-11-02T09:16:19.087Z</time>
      </trkpt>
      <trkpt lat="44.74865" lon="3.71496">
        <ele>1113.9508056641</ele>
        <time>2020-11-02T09:16:21.277Z</time>
      </trkpt>
      <trkpt lat="44.74864" lon="3.71518">
        <ele>1113.7708740234</ele>
        <time>2020-11-02T09:16:23.470Z</time>
      </trkpt>
      <trkpt lat="44.74865" lon="3.7156">
        <ele>1111.0895996094</ele>
        <time>2020-11-02T09:16:25.669Z</time>
      </trkpt>
      <trkpt lat="44.74868" lon="3.71584">
        <ele>1109.9018554688</ele>
        <time>2020-11-02T09:16:27.872Z</time>
      </trkpt>
      <trkpt lat="44.74873" lon="3.716">
        <ele>1109.4155273438</ele>
        <time>2020-11-02T09:16:30.077Z</time>
      </trkpt>
      <trkpt lat="44.74889" lon="3.71645">
        <ele>1106.8918457031</ele>
        <time>2020-11-02T09:16:32.290Z</time>
      </trkpt>
      <trkpt lat="44.74894" lon="3.71661">
        <ele>1105.9799804688</ele>
        <time>2020-11-02T09:16:34.505Z</time>
      </trkpt>
      <trkpt lat="44.74896" lon="3.71685">
        <ele>1104.3482666016</ele>
        <time>2020-11-02T09:16:36.724Z</time>
      </trkpt>
      <trkpt lat="44.74893" lon="3.71697">
        <ele>1103.4610595703</ele>
        <time>2020-11-02T09:16:38.944Z</time>
      </trkpt>
      <trkpt lat="44.74884" lon="3.71725">
        <ele>1102.2449951172</ele>
        <time>2020-11-02T09:16:41.169Z</time>
      </trkpt>
      <trkpt lat="44.74879" lon="3.71735">
        <ele>1101.9461669922</ele>
        <time>2020-11-02T09:16:43.395Z</time>
      </trkpt>
      <trkpt lat="44.74878" lon="3.71734">
        <ele>1101.95703125</ele>
        <time>2020-11-02T09:16:45.622Z</time>
      </trkpt>
      <trkpt lat="44.74866" lon="3.71763">
        <ele>1100.4217529297</ele>
        <time>2020-11-02T09:16:47.853Z</time>
      </trkpt>
      <trkpt lat="44.74852" lon="3.71788">
        <ele>1095.8714599609</ele>
        <time>2020-11-02T09:16:50.089Z</time>
      </trkpt>
      <trkpt lat="44.74846" lon="3.71804">
        <ele>1093.6158447266</ele>
        <time>2020-11-02T09:16:52.328Z</time>
      </trkpt>
      <trkpt lat="44.74848" lon="3.7182">
        <ele>1093.087890625</ele>
        <time>2020-11-02T09:16:54.569Z</time>
      </trkpt>
      <trkpt lat="44.74857" lon="3.71832">
        <ele>1094.3116455078</ele>
        <time>2020-11-02T09:16:56.812Z</time>
      </trkpt>
      <trkpt lat="44.74868" lon="3.71832">
        <ele>1096.6872558594</ele>
        <time>2020-11-02T09:16:59.058Z</time>
      </trkpt>
      <trkpt lat="44.74882" lon="3.71823">
        <ele>1097.3022460938</ele>
        <time>2020-11-02T09:17:01.307Z</time>
      </trkpt>
      <trkpt lat="44.749" lon="3.71807">
        <ele>1097.3981933594</ele>
        <time>2020-11-02T09:17:03.560Z</time>
      </trkpt>
      <trkpt lat="44.74932" lon="3.71785">
        <ele>1099.9698486328</ele>
        <time>2020-11-02T09:17:05.820Z</time>
      </trkpt>
      <trkpt lat="44.74949" lon="3.71777">
        <ele>1101.1335449219</ele>
        <time>2020-11-02T09:17:08.084Z</time>
      </trkpt>
      <trkpt lat="44.74965" lon="3.71766">
        <ele>1100.5695800781</ele>
        <time>2020-11-02T09:17:10.351Z</time>
      </trkpt>
      <trkpt lat="44.74998" lon="3.71746">
        <ele>1096.6223144531</ele>
        <time>2020-11-02T09:17:12.625Z</time>
      </trkpt>
      <trkpt lat="44.75034" lon="3.7173">
        <ele>1094.1730957031</ele>
        <time>2020-11-02T09:17:14.907Z</time>
      </trkpt>
      <trkpt lat="44.75061" lon="3.71715">
        <ele>1091.9729003906</ele>
        <time>2020-11-02T09:17:17.195Z</time>
      </trkpt>
      <trkpt lat="44.75138" lon="3.71677">
        <ele>1089.3323974609</ele>
        <time>2020-11-02T09:17:19.499Z</time>
      </trkpt>
      <trkpt lat="44.75188" lon="3.7165">
        <ele>1089.5635986328</ele>
        <time>2020-11-02T09:17:21.814Z</time>
      </trkpt>
      <trkpt lat="44.75207" lon="3.71636">
        <ele>1090.0137939453</ele>
        <time>2020-11-02T09:17:24.133Z</time>
      </trkpt>
      <trkpt lat="44.75245" lon="3.71602">
        <ele>1088.4448242188</ele>
        <time>2020-11-02T09:17:26.461Z</time>
      </trkpt>
      <trkpt lat="44.75272" lon="3.71576">
        <ele>1085.7092285156</ele>
        <time>2020-11-02T09:17:28.796Z</time>
      </trkpt>
      <trkpt lat="44.75289" lon="3.7156">
        <ele>1083.8819580078</ele>
        <time>2020-11-02T09:17:31.135Z</time>
      </trkpt>
      <trkpt lat="44.75309" lon="3.71536">
        <ele>1081.8182373047</ele>
        <time>2020-11-02T09:17:33.479Z</time>
      </trkpt>
      <trkpt lat="44.75334" lon="3.7151">
        <ele>1078.2937011719</ele>
        <time>2020-11-02T09:17:35.829Z</time>
      </trkpt>
      <trkpt lat="44.75372" lon="3.71493">
        <ele>1073.1478271484</ele>
        <time>2020-11-02T09:17:38.187Z</time>
      </trkpt>
      <trkpt lat="44.75391" lon="3.71482">
        <ele>1074.515625</ele>
        <time>2020-11-02T09:17:40.549Z</time>
      </trkpt>
      <trkpt lat="44.75413" lon="3.71466">
        <ele>1076.0637207031</ele>
        <time>2020-11-02T09:17:42.916Z</time>
      </trkpt>
      <trkpt lat="44.75418" lon="3.71463">
        <ele>1075.9677734375</ele>
        <time>2020-11-02T09:17:45.284Z</time>
      </trkpt>
      <trkpt lat="44.75428" lon="3.71461">
        <ele>1075.1038818359</ele>
        <time>2020-11-02T09:17:47.654Z</time>
      </trkpt>
      <trkpt lat="44.75438" lon="3.71464">
        <ele>1073.4001464844</ele>
        <time>2020-11-02T09:17:50.026Z</time>
      </trkpt>
      <trkpt lat="44.75444" lon="3.7146">
        <ele>1073.3521728516</ele>
        <time>2020-11-02T09:17:52.400Z</time>
      </trkpt>
      <trkpt lat="44.75438" lon="3.71464">
        <ele>1073.4001464844</ele>
        <time>2020-11-02T09:17:54.775Z</time>
      </trkpt>
      <trkpt lat="44.75424" lon="3.71483">
        <ele>1071.8884277344</ele>
        <time>2020-11-02T09:17:57.154Z</time>
      </trkpt>
      <trkpt lat="44.7541" lon="3.715">
        <ele>1069.2724609375</ele>
        <time>2020-11-02T09:17:59.537Z</time>
      </trkpt>
      <trkpt lat="44.75381" lon="3.71526">
        <ele>1065.2230224609</ele>
        <time>2020-11-02T09:18:01.927Z</time>
      </trkpt>
      <trkpt lat="44.75351" lon="3.71553">
        <ele>1067.7806396484</ele>
        <time>2020-11-02T09:18:04.324Z</time>
      </trkpt>
      <trkpt lat="44.75341" lon="3.71565">
        <ele>1068.8123779297</ele>
        <time>2020-11-02T09:18:06.723Z</time>
      </trkpt>
      <trkpt lat="44.75326" lon="3.71596">
        <ele>1068.4885253906</ele>
        <time>2020-11-02T09:18:09.128Z</time>
      </trkpt>
      <trkpt lat="44.753" lon="3.71644">
        <ele>1066.9256591797</ele>
        <time>2020-11-02T09:18:11.541Z</time>
      </trkpt>
      <trkpt lat="44.75282" lon="3.71673">
        <ele>1065.1807861328</ele>
        <time>2020-11-02T09:18:13.960Z</time>
      </trkpt>
      <trkpt lat="44.7527" lon="3.71688">
        <ele>1064.5919189453</ele>
        <time>2020-11-02T09:18:16.382Z</time>
      </trkpt>
      <trkpt lat="44.75252" lon="3.71718">
        <ele>1062.7202148438</ele>
        <time>2020-11-02T09:18:18.809Z</time>
      </trkpt>
      <trkpt lat="44.75246" lon="3.71734">
        <ele>1060.8812255859</ele>
        <time>2020-11-02T09:18:21.239Z</time>
      </trkpt>
      <trkpt lat="44.75243" lon="3.71754">
        <ele>1057.4138183594</ele>
        <time>2020-11-02T09:18:23.672Z</time>
      </trkpt>
      <trkpt lat="44.7524" lon="3.71783">
        <ele>1053.9396972656</ele>
        <time>2020-11-02T09:18:26.109Z</time>
      </trkpt>
      <trkpt lat="44.7524" lon="3.71809">
        <ele>1052.3449707031</ele>
        <time>2020-11-02T09:18:28.550Z</time>
      </trkpt>
      <trkpt lat="44.7524" lon="3.71841">
        <ele>1050.0413818359</ele>
        <time>2020-11-02T09:18:30.995Z</time>
      </trkpt>
      <trkpt lat="44.75242" lon="3.71859">
        <ele>1048.9399414062</ele>
        <time>2020-11-02T09:18:33.443Z</time>
      </trkpt>
      <trkpt lat="44.75248" lon="3.71865">
        <ele>1048.0041503906</ele>
        <time>2020-11-02T09:18:35.892Z</time>
      </trkpt>
      <trkpt lat="44.75259" lon="3.71881">
        <ele>1046.4683837891</ele>
        <time>2020-11-02T09:18:38.345Z</time>
      </trkpt>
      <trkpt lat="44.75266" lon="3.71891">
        <ele>1045.4846191406</ele>
        <time>2020-11-02T09:18:40.800Z</time>
      </trkpt>
      <trkpt lat="44.75276" lon="3.71916">
        <ele>1044.4647216797</ele>
        <time>2020-11-02T09:18:43.259Z</time>
      </trkpt>
      <trkpt lat="44.75277" lon="3.71924">
        <ele>1044.5606689453</ele>
        <time>2020-11-02T09:18:45.719Z</time>
      </trkpt>
      <trkpt lat="44.7528" lon="3.71924">
        <ele>1043.9848632812</ele>
        <time>2020-11-02T09:18:48.180Z</time>
      </trkpt>
      <trkpt lat="44.75286" lon="3.71927">
        <ele>1042.9410400391</ele>
        <time>2020-11-02T09:18:50.642Z</time>
      </trkpt>
      <trkpt lat="44.75294" lon="3.71952">
        <ele>1041.7905273438</ele>
        <time>2020-11-02T09:18:53.108Z</time>
      </trkpt>
      <trkpt lat="44.75299" lon="3.71958">
        <ele>1040.7827148438</ele>
        <time>2020-11-02T09:18:55.575Z</time>
      </trkpt>
      <trkpt lat="44.75304" lon="3.71959">
        <ele>1039.71484375</ele>
        <time>2020-11-02T09:18:58.043Z</time>
      </trkpt>
      <trkpt lat="44.75314" lon="3.71977">
        <ele>1037.7712402344</ele>
        <time>2020-11-02T09:19:00.514Z</time>
      </trkpt>
      <trkpt lat="44.75322" lon="3.71989">
        <ele>1036.1875</ele>
        <time>2020-11-02T09:19:02.988Z</time>
      </trkpt>
      <trkpt lat="44.75327" lon="3.72002">
        <ele>1035.263671875</ele>
        <time>2020-11-02T09:19:05.464Z</time>
      </trkpt>
      <trkpt lat="44.7533" lon="3.72019">
        <ele>1034.8197021484</ele>
        <time>2020-11-02T09:19:07.942Z</time>
      </trkpt>
      <trkpt lat="44.75332" lon="3.72042">
        <ele>1034.6636962891</ele>
        <time>2020-11-02T09:19:10.424Z</time>
      </trkpt>
      <trkpt lat="44.75328" lon="3.72073">
        <ele>1035.166015625</ele>
        <time>2020-11-02T09:19:12.910Z</time>
      </trkpt>
      <trkpt lat="44.75316" lon="3.72103">
        <ele>1035.5979003906</ele>
        <time>2020-11-02T09:19:15.401Z</time>
      </trkpt>
      <trkpt lat="44.75308" lon="3.72116">
        <ele>1035.0397949219</ele>
        <time>2020-11-02T09:19:17.894Z</time>
      </trkpt>
      <trkpt lat="44.75314" lon="3.72136">
        <ele>1031.2244873047</ele>
        <time>2020-11-02T09:19:20.390Z</time>
      </trkpt>
      <trkpt lat="44.75314" lon="3.72166">
        <ele>1026.9051513672</ele>
        <time>2020-11-02T09:19:22.891Z</time>
      </trkpt>
      <trkpt lat="44.75286" lon="3.72198">
        <ele>1025.1989746094</ele>
        <time>2020-11-02T09:19:25.399Z</time>
      </trkpt>
      <trkpt lat="44.75272" lon="3.72213">
        <ele>1023.0753173828</ele>
        <time>2020-11-02T09:19:27.910Z</time>
      </trkpt>
      <trkpt lat="44.75266" lon="3.72223">
        <ele>1021.1796264648</ele>
        <time>2020-11-02T09:19:30.423Z</time>
      </trkpt>
      <trkpt lat="44.75245" lon="3.72246">
        <ele>1019.3835449219</ele>
        <time>2020-11-02T09:19:32.942Z</time>
      </trkpt>
      <trkpt lat="44.75224" lon="3.72265">
        <ele>1020.5233764648</ele>
        <time>2020-11-02T09:19:35.466Z</time>
      </trkpt>
      <trkpt lat="44.7522" lon="3.72272">
        <ele>1019.9747924805</ele>
        <time>2020-11-02T09:19:37.991Z</time>
      </trkpt>
      <trkpt lat="44.752" lon="3.72301">
        <ele>1017.8295898438</ele>
        <time>2020-11-02T09:19:40.522Z</time>
      </trkpt>
      <trkpt lat="44.75179" lon="3.72337">
        <ele>1014.8768920898</ele>
        <time>2020-11-02T09:19:43.059Z</time>
      </trkpt>
      <trkpt lat="44.75172" lon="3.72355">
        <ele>1015.6098632812</ele>
        <time>2020-11-02T09:19:45.599Z</time>
      </trkpt>
      <trkpt lat="44.75168" lon="3.72371">
        <ele>1014.2660522461</ele>
        <time>2020-11-02T09:19:48.142Z</time>
      </trkpt>
      <trkpt lat="44.75167" lon="3.72397">
        <ele>1010.2347412109</ele>
        <time>2020-11-02T09:19:50.688Z</time>
      </trkpt>
      <trkpt lat="44.75164" lon="3.7242">
        <ele>1009.3229980469</ele>
        <time>2020-11-02T09:19:53.238Z</time>
      </trkpt>
      <trkpt lat="44.75164" lon="3.72419">
        <ele>1009.5032958984</ele>
        <time>2020-11-02T09:19:55.788Z</time>
      </trkpt>
      <trkpt lat="44.75162" lon="3.72436">
        <ele>1008.8190917969</ele>
        <time>2020-11-02T09:19:58.340Z</time>
      </trkpt>
      <trkpt lat="44.75156" lon="3.7248">
        <ele>1008.7669067383</ele>
        <time>2020-11-02T09:20:00.899Z</time>
      </trkpt>
      <trkpt lat="44.75155" lon="3.72494">
        <ele>1008.5269165039</ele>
        <time>2020-11-02T09:20:03.460Z</time>
      </trkpt>
      <trkpt lat="44.75155" lon="3.72507">
        <ele>1007.9030151367</ele>
        <time>2020-11-02T09:20:06.022Z</time>
      </trkpt>
      <trkpt lat="44.75163" lon="3.72512">
        <ele>1004.2076416016</ele>
        <time>2020-11-02T09:20:08.586Z</time>
      </trkpt>
      <trkpt lat="44.75174" lon="3.72514">
        <ele>999.36047363281</ele>
        <time>2020-11-02T09:20:11.152Z</time>
      </trkpt>
      <trkpt lat="44.75198" lon="3.72516">
        <ele>988.89819335938</ele>
        <time>2020-11-02T09:20:13.723Z</time>
      </trkpt>
      <trkpt lat="44.75216" lon="3.72518">
        <ele>986.00390625</ele>
        <time>2020-11-02T09:20:16.298Z</time>
      </trkpt>
      <trkpt lat="44.75224" lon="3.72537">
        <ele>986.16046142578</ele>
        <time>2020-11-02T09:20:18.876Z</time>
      </trkpt>
      <trkpt lat="44.75231" lon="3.72549">
        <ele>986.29974365234</ele>
        <time>2020-11-02T09:20:21.456Z</time>
      </trkpt>
      <trkpt lat="44.7525" lon="3.72582">
        <ele>986.35974121094</ele>
        <time>2020-11-02T09:20:24.042Z</time>
      </trkpt>
      <trkpt lat="44.75258" lon="3.72592">
        <ele>986.43176269531</ele>
        <time>2020-11-02T09:20:26.630Z</time>
      </trkpt>
      <trkpt lat="44.75268" lon="3.7259">
        <ele>986.69567871094</ele>
        <time>2020-11-02T09:20:29.220Z</time>
      </trkpt>
      <trkpt lat="44.75273" lon="3.72593">
        <ele>986.77966308594</ele>
        <time>2020-11-02T09:20:31.811Z</time>
      </trkpt>
      <trkpt lat="44.75275" lon="3.72599">
        <ele>986.75567626953</ele>
        <time>2020-11-02T09:20:34.403Z</time>
      </trkpt>
      <trkpt lat="44.75277" lon="3.72615">
        <ele>986.88122558594</ele>
        <time>2020-11-02T09:20:36.998Z</time>
      </trkpt>
      <trkpt lat="44.7528" lon="3.72625">
        <ele>987.07318115234</ele>
        <time>2020-11-02T09:20:39.594Z</time>
      </trkpt>
      <trkpt lat="44.75292" lon="3.72625">
        <ele>988.26556396484</ele>
        <time>2020-11-02T09:20:42.193Z</time>
      </trkpt>
      <trkpt lat="44.75294" lon="3.7261">
        <ele>988.5341796875</ele>
        <time>2020-11-02T09:20:44.794Z</time>
      </trkpt>
      <trkpt lat="44.75298" lon="3.72607">
        <ele>989.15808105469</ele>
        <time>2020-11-02T09:20:47.396Z</time>
      </trkpt>
      <trkpt lat="44.75308" lon="3.72604">
        <ele>990.93377685547</ele>
        <time>2020-11-02T09:20:50.000Z</time>
      </trkpt>
      <trkpt lat="44.75311" lon="3.72607">
        <ele>991.65368652344</ele>
        <time>2020-11-02T09:20:52.605Z</time>
      </trkpt>
      <trkpt lat="44.75312" lon="3.72616">
        <ele>992.27758789062</ele>
        <time>2020-11-02T09:20:55.211Z</time>
      </trkpt>
      <trkpt lat="44.75313" lon="3.72633">
        <ele>993.14874267578</ele>
        <time>2020-11-02T09:20:57.819Z</time>
      </trkpt>
      <trkpt lat="44.75336" lon="3.7263">
        <ele>997.55670166016</ele>
        <time>2020-11-02T09:21:00.432Z</time>
      </trkpt>
      <trkpt lat="44.75336" lon="3.72591">
        <ele>995.99139404297</ele>
        <time>2020-11-02T09:21:03.050Z</time>
      </trkpt>
      <trkpt lat="44.7533" lon="3.72583">
        <ele>994.64764404297</ele>
        <time>2020-11-02T09:21:05.670Z</time>
      </trkpt>
      <trkpt lat="44.75327" lon="3.72581">
        <ele>994.02374267578</ele>
        <time>2020-11-02T09:21:08.291Z</time>
      </trkpt>
    </trkseg>
  </trk>
  <trk>
    <name><![CDATA[ESI0331 - LE TOUR DU LAC]]></name>
    <extensions>
      <line xmlns="http://www.topografix.com/GPX/gpx_style/0/2">
        <color>0d0202</color>
        <width>4</width>
      </line>
    </extensions>
    <trkseg>
      <trkpt lat="44.73568" lon="3.83474">
        <ele>944.93463134766</ele>
        <time>2020-10-16T12:33:34.000Z</time>
      </trkpt>
      <trkpt lat="44.73541" lon="3.83478">
        <ele>943.54052734375</ele>
        <time>2020-10-16T12:33:34.005Z</time>
      </trkpt>
      <trkpt lat="44.73531" lon="3.83483">
        <ele>943.69958496094</ele>
        <time>2020-10-16T12:33:34.012Z</time>
      </trkpt>
      <trkpt lat="44.73519" lon="3.83491">
        <ele>944.3291015625</ele>
        <time>2020-10-16T12:33:34.022Z</time>
      </trkpt>
      <trkpt lat="44.73504" lon="3.83501">
        <ele>945.11895751953</ele>
        <time>2020-10-16T12:33:34.035Z</time>
      </trkpt>
      <trkpt lat="44.73495" lon="3.83506">
        <ele>945.51928710938</ele>
        <time>2020-10-16T12:33:34.050Z</time>
      </trkpt>
      <trkpt lat="44.73486" lon="3.8351">
        <ele>945.85833740234</ele>
        <time>2020-10-16T12:33:34.067Z</time>
      </trkpt>
      <trkpt lat="44.73473" lon="3.8351">
        <ele>946.02722167969</ele>
        <time>2020-10-16T12:33:34.087Z</time>
      </trkpt>
      <trkpt lat="44.73461" lon="3.8351">
        <ele>946.18176269531</ele>
        <time>2020-10-16T12:33:34.109Z</time>
      </trkpt>
      <trkpt lat="44.73457" lon="3.8351">
        <ele>946.244140625</ele>
        <time>2020-10-16T12:33:34.132Z</time>
      </trkpt>
      <trkpt lat="44.73447" lon="3.83511">
        <ele>946.32562255859</ele>
        <time>2020-10-16T12:33:34.157Z</time>
      </trkpt>
      <trkpt lat="44.73401" lon="3.83528">
        <ele>946.23126220703</ele>
        <time>2020-10-16T12:33:34.192Z</time>
      </trkpt>
      <trkpt lat="44.73323" lon="3.83558">
        <ele>945.86169433594</ele>
        <time>2020-10-16T12:33:34.243Z</time>
      </trkpt>
      <trkpt lat="44.73267" lon="3.83581">
        <ele>948.82830810547</ele>
        <time>2020-10-16T12:33:34.305Z</time>
      </trkpt>
      <trkpt lat="44.73262" lon="3.83583">
        <ele>949.18493652344</ele>
        <time>2020-10-16T12:33:34.369Z</time>
      </trkpt>
      <trkpt lat="44.73256" lon="3.83586">
        <ele>949.58776855469</ele>
        <time>2020-10-16T12:33:34.434Z</time>
      </trkpt>
      <trkpt lat="44.73246" lon="3.83588">
        <ele>950.13427734375</ele>
        <time>2020-10-16T12:33:34.501Z</time>
      </trkpt>
      <trkpt lat="44.73232" lon="3.83592">
        <ele>950.89080810547</ele>
        <time>2020-10-16T12:33:34.571Z</time>
      </trkpt>
      <trkpt lat="44.73238" lon="3.83603">
        <ele>951.94189453125</ele>
        <time>2020-10-16T12:33:34.643Z</time>
      </trkpt>
      <trkpt lat="44.73222" lon="3.83607">
        <ele>952.734375</ele>
        <time>2020-10-16T12:33:34.718Z</time>
      </trkpt>
      <trkpt lat="44.7319" lon="3.83615">
        <ele>953.48663330078</ele>
        <time>2020-10-16T12:33:34.800Z</time>
      </trkpt>
      <trkpt lat="44.73162" lon="3.83622">
        <ele>953.2490234375</ele>
        <time>2020-10-16T12:33:34.887Z</time>
      </trkpt>
      <trkpt lat="44.73113" lon="3.83633">
        <ele>954.04766845703</ele>
        <time>2020-10-16T12:33:34.984Z</time>
      </trkpt>
      <trkpt lat="44.73075" lon="3.83641">
        <ele>954.38580322266</ele>
        <time>2020-10-16T12:33:35.089Z</time>
      </trkpt>
      <trkpt lat="44.73045" lon="3.83648">
        <ele>955.55114746094</ele>
        <time>2020-10-16T12:33:35.200Z</time>
      </trkpt>
      <trkpt lat="44.73009" lon="3.83658">
        <ele>957.33215332031</ele>
        <time>2020-10-16T12:33:35.318Z</time>
      </trkpt>
      <trkpt lat="44.72966" lon="3.83672">
        <ele>956.60870361328</ele>
        <time>2020-10-16T12:33:35.445Z</time>
      </trkpt>
      <trkpt lat="44.72911" lon="3.83687">
        <ele>957.82696533203</ele>
        <time>2020-10-16T12:33:35.583Z</time>
      </trkpt>
      <trkpt lat="44.72855" lon="3.837">
        <ele>959.35211181641</ele>
        <time>2020-10-16T12:33:35.733Z</time>
      </trkpt>
      <trkpt lat="44.72773" lon="3.8372">
        <ele>959.37756347656</ele>
        <time>2020-10-16T12:33:35.899Z</time>
      </trkpt>
      <trkpt lat="44.72699" lon="3.83739">
        <ele>958.49322509766</ele>
        <time>2020-10-16T12:33:36.080Z</time>
      </trkpt>
      <trkpt lat="44.72685" lon="3.83743">
        <ele>958.38806152344</ele>
        <time>2020-10-16T12:33:36.264Z</time>
      </trkpt>
      <trkpt lat="44.72674" lon="3.83747">
        <ele>958.34869384766</ele>
        <time>2020-10-16T12:33:36.451Z</time>
      </trkpt>
      <trkpt lat="44.72641" lon="3.83765">
        <ele>957.05908203125</ele>
        <time>2020-10-16T12:33:36.645Z</time>
      </trkpt>
      <trkpt lat="44.72629" lon="3.83772">
        <ele>956.72845458984</ele>
        <time>2020-10-16T12:33:36.841Z</time>
      </trkpt>
      <trkpt lat="44.72619" lon="3.8378">
        <ele>956.6455078125</ele>
        <time>2020-10-16T12:33:37.039Z</time>
      </trkpt>
      <trkpt lat="44.72565" lon="3.83832">
        <ele>957.42761230469</ele>
        <time>2020-10-16T12:33:37.251Z</time>
      </trkpt>
      <trkpt lat="44.72528" lon="3.83875">
        <ele>959.15979003906</ele>
        <time>2020-10-16T12:33:37.472Z</time>
      </trkpt>
      <trkpt lat="44.72498" lon="3.83915">
        <ele>961.09747314453</ele>
        <time>2020-10-16T12:33:37.701Z</time>
      </trkpt>
      <trkpt lat="44.72483" lon="3.83937">
        <ele>962.23657226562</ele>
        <time>2020-10-16T12:33:37.935Z</time>
      </trkpt>
      <trkpt lat="44.72481" lon="3.83943">
        <ele>962.40856933594</ele>
        <time>2020-10-16T12:33:38.170Z</time>
      </trkpt>
      <trkpt lat="44.7248" lon="3.83949">
        <ele>962.52056884766</ele>
        <time>2020-10-16T12:33:38.406Z</time>
      </trkpt>
      <trkpt lat="44.72477" lon="3.83952">
        <ele>962.41949462891</ele>
        <time>2020-10-16T12:33:38.643Z</time>
      </trkpt>
      <trkpt lat="44.72471" lon="3.8396">
        <ele>962.32086181641</ele>
        <time>2020-10-16T12:33:38.881Z</time>
      </trkpt>
      <trkpt lat="44.72466" lon="3.83968">
        <ele>962.25030517578</ele>
        <time>2020-10-16T12:33:39.121Z</time>
      </trkpt>
      <trkpt lat="44.72461" lon="3.83976">
        <ele>962.21466064453</ele>
        <time>2020-10-16T12:33:39.362Z</time>
      </trkpt>
      <trkpt lat="44.72455" lon="3.83985">
        <ele>962.17840576172</ele>
        <time>2020-10-16T12:33:39.605Z</time>
      </trkpt>
      <trkpt lat="44.7245" lon="3.83994">
        <ele>962.27575683594</ele>
        <time>2020-10-16T12:33:39.849Z</time>
      </trkpt>
      <trkpt lat="44.72445" lon="3.84006">
        <ele>962.50329589844</ele>
        <time>2020-10-16T12:33:40.095Z</time>
      </trkpt>
      <trkpt lat="44.72443" lon="3.84012">
        <ele>962.62078857422</ele>
        <time>2020-10-16T12:33:40.342Z</time>
      </trkpt>
      <trkpt lat="44.72433" lon="3.84041">
        <ele>962.77716064453</ele>
        <time>2020-10-16T12:33:40.594Z</time>
      </trkpt>
      <trkpt lat="44.72428" lon="3.84054">
        <ele>962.62243652344</ele>
        <time>2020-10-16T12:33:40.848Z</time>
      </trkpt>
      <trkpt lat="44.72423" lon="3.84063">
        <ele>962.51104736328</ele>
        <time>2020-10-16T12:33:41.104Z</time>
      </trkpt>
      <trkpt lat="44.72417" lon="3.84073">
        <ele>962.47705078125</ele>
        <time>2020-10-16T12:33:41.362Z</time>
      </trkpt>
      <trkpt lat="44.72411" lon="3.84082">
        <ele>962.74719238281</ele>
        <time>2020-10-16T12:33:41.621Z</time>
      </trkpt>
      <trkpt lat="44.72382" lon="3.8412">
        <ele>963.60211181641</ele>
        <time>2020-10-16T12:33:41.888Z</time>
      </trkpt>
      <trkpt lat="44.72368" lon="3.84137">
        <ele>964.11566162109</ele>
        <time>2020-10-16T12:33:42.159Z</time>
      </trkpt>
      <trkpt lat="44.72341" lon="3.84173">
        <ele>965.59051513672</ele>
        <time>2020-10-16T12:33:42.438Z</time>
      </trkpt>
      <trkpt lat="44.72338" lon="3.84165">
        <ele>965.66333007812</ele>
        <time>2020-10-16T12:33:42.718Z</time>
      </trkpt>
      <trkpt lat="44.72334" lon="3.84148">
        <ele>965.76953125</ele>
        <time>2020-10-16T12:33:43.000Z</time>
      </trkpt>
      <trkpt lat="44.72324" lon="3.84134">
        <ele>966.21020507812</ele>
        <time>2020-10-16T12:33:43.285Z</time>
      </trkpt>
      <trkpt lat="44.72314" lon="3.84115">
        <ele>966.70648193359</ele>
        <time>2020-10-16T12:33:43.573Z</time>
      </trkpt>
      <trkpt lat="44.72303" lon="3.84094">
        <ele>966.81335449219</ele>
        <time>2020-10-16T12:33:43.865Z</time>
      </trkpt>
      <trkpt lat="44.72299" lon="3.84086">
        <ele>966.71313476562</ele>
        <time>2020-10-16T12:33:44.159Z</time>
      </trkpt>
      <trkpt lat="44.72292" lon="3.8408">
        <ele>966.83355712891</ele>
        <time>2020-10-16T12:33:44.454Z</time>
      </trkpt>
      <trkpt lat="44.72281" lon="3.84077">
        <ele>967.341796875</ele>
        <time>2020-10-16T12:33:44.751Z</time>
      </trkpt>
      <trkpt lat="44.72266" lon="3.84069">
        <ele>967.91534423828</ele>
        <time>2020-10-16T12:33:45.052Z</time>
      </trkpt>
      <trkpt lat="44.72253" lon="3.84059">
        <ele>968.36932373047</ele>
        <time>2020-10-16T12:33:45.356Z</time>
      </trkpt>
      <trkpt lat="44.72238" lon="3.84047">
        <ele>968.84942626953</ele>
        <time>2020-10-16T12:33:45.663Z</time>
      </trkpt>
      <trkpt lat="44.7222" lon="3.84032">
        <ele>969.35955810547</ele>
        <time>2020-10-16T12:33:45.974Z</time>
      </trkpt>
      <trkpt lat="44.72204" lon="3.84017">
        <ele>969.93286132812</ele>
        <time>2020-10-16T12:33:46.289Z</time>
      </trkpt>
      <trkpt lat="44.72183" lon="3.84">
        <ele>970.72174072266</ele>
        <time>2020-10-16T12:33:46.609Z</time>
      </trkpt>
      <trkpt lat="44.72174" lon="3.83991">
        <ele>971.05847167969</ele>
        <time>2020-10-16T12:33:46.931Z</time>
      </trkpt>
      <trkpt lat="44.72161" lon="3.83979">
        <ele>971.53204345703</ele>
        <time>2020-10-16T12:33:47.256Z</time>
      </trkpt>
      <trkpt lat="44.72147" lon="3.83967">
        <ele>972.00695800781</ele>
        <time>2020-10-16T12:33:47.585Z</time>
      </trkpt>
      <trkpt lat="44.72133" lon="3.83955">
        <ele>972.4521484375</ele>
        <time>2020-10-16T12:33:47.917Z</time>
      </trkpt>
      <trkpt lat="44.72121" lon="3.83942">
        <ele>972.92254638672</ele>
        <time>2020-10-16T12:33:48.252Z</time>
      </trkpt>
      <trkpt lat="44.72102" lon="3.83927">
        <ele>973.64202880859</ele>
        <time>2020-10-16T12:33:48.591Z</time>
      </trkpt>
      <trkpt lat="44.72083" lon="3.83909">
        <ele>974.52557373047</ele>
        <time>2020-10-16T12:33:48.935Z</time>
      </trkpt>
      <trkpt lat="44.72074" lon="3.83901">
        <ele>974.92095947266</ele>
        <time>2020-10-16T12:33:49.281Z</time>
      </trkpt>
      <trkpt lat="44.72062" lon="3.8389">
        <ele>975.46899414062</ele>
        <time>2020-10-16T12:33:49.630Z</time>
      </trkpt>
      <trkpt lat="44.72045" lon="3.83875">
        <ele>976.20874023438</ele>
        <time>2020-10-16T12:33:49.983Z</time>
      </trkpt>
      <trkpt lat="44.72025" lon="3.83859">
        <ele>977.15740966797</ele>
        <time>2020-10-16T12:33:50.340Z</time>
      </trkpt>
      <trkpt lat="44.72006" lon="3.83841">
        <ele>977.74017333984</ele>
        <time>2020-10-16T12:33:50.702Z</time>
      </trkpt>
      <trkpt lat="44.71998" lon="3.83831">
        <ele>977.93267822266</ele>
        <time>2020-10-16T12:33:51.066Z</time>
      </trkpt>
      <trkpt lat="44.71991" lon="3.8382">
        <ele>978.10803222656</ele>
        <time>2020-10-16T12:33:51.432Z</time>
      </trkpt>
      <trkpt lat="44.71983" lon="3.83805">
        <ele>978.30529785156</ele>
        <time>2020-10-16T12:33:51.801Z</time>
      </trkpt>
      <trkpt lat="44.71967" lon="3.83785">
        <ele>978.66729736328</ele>
        <time>2020-10-16T12:33:52.174Z</time>
      </trkpt>
      <trkpt lat="44.71956" lon="3.8377">
        <ele>978.81707763672</ele>
        <time>2020-10-16T12:33:52.550Z</time>
      </trkpt>
      <trkpt lat="44.71932" lon="3.83744">
        <ele>977.97796630859</ele>
        <time>2020-10-16T12:33:52.932Z</time>
      </trkpt>
      <trkpt lat="44.71914" lon="3.83727">
        <ele>977.35522460938</ele>
        <time>2020-10-16T12:33:53.319Z</time>
      </trkpt>
      <trkpt lat="44.7189" lon="3.83703">
        <ele>976.50024414062</ele>
        <time>2020-10-16T12:33:53.712Z</time>
      </trkpt>
      <trkpt lat="44.71862" lon="3.83672">
        <ele>976.30120849609</ele>
        <time>2020-10-16T12:33:54.112Z</time>
      </trkpt>
      <trkpt lat="44.71832" lon="3.8364">
        <ele>977.04852294922</ele>
        <time>2020-10-16T12:33:54.519Z</time>
      </trkpt>
      <trkpt lat="44.71813" lon="3.83615">
        <ele>977.57275390625</ele>
        <time>2020-10-16T12:33:54.931Z</time>
      </trkpt>
      <trkpt lat="44.71801" lon="3.83601">
        <ele>977.72595214844</ele>
        <time>2020-10-16T12:33:55.347Z</time>
      </trkpt>
      <trkpt lat="44.71793" lon="3.83592">
        <ele>977.60046386719</ele>
        <time>2020-10-16T12:33:55.765Z</time>
      </trkpt>
      <trkpt lat="44.71778" lon="3.83571">
        <ele>977.51171875</ele>
        <time>2020-10-16T12:33:56.187Z</time>
      </trkpt>
      <trkpt lat="44.71757" lon="3.83547">
        <ele>977.66613769531</ele>
        <time>2020-10-16T12:33:56.614Z</time>
      </trkpt>
      <trkpt lat="44.71738" lon="3.83524">
        <ele>977.80242919922</ele>
        <time>2020-10-16T12:33:57.046Z</time>
      </trkpt>
      <trkpt lat="44.71723" lon="3.83507">
        <ele>978.66796875</ele>
        <time>2020-10-16T12:33:57.482Z</time>
      </trkpt>
      <trkpt lat="44.71702" lon="3.83489">
        <ele>979.90112304688</ele>
        <time>2020-10-16T12:33:57.923Z</time>
      </trkpt>
      <trkpt lat="44.71689" lon="3.83484">
        <ele>980.61047363281</ele>
        <time>2020-10-16T12:33:58.367Z</time>
      </trkpt>
      <trkpt lat="44.71675" lon="3.83483">
        <ele>981.30572509766</ele>
        <time>2020-10-16T12:33:58.814Z</time>
      </trkpt>
      <trkpt lat="44.71664" lon="3.83477">
        <ele>981.98907470703</ele>
        <time>2020-10-16T12:33:59.263Z</time>
      </trkpt>
      <trkpt lat="44.71651" lon="3.83466">
        <ele>982.86358642578</ele>
        <time>2020-10-16T12:33:59.715Z</time>
      </trkpt>
      <trkpt lat="44.71639" lon="3.83456">
        <ele>983.69561767578</ele>
        <time>2020-10-16T12:34:00.170Z</time>
      </trkpt>
      <trkpt lat="44.71627" lon="3.83437">
        <ele>984.72869873047</ele>
        <time>2020-10-16T12:34:00.628Z</time>
      </trkpt>
      <trkpt lat="44.71623" lon="3.83427">
        <ele>985.16131591797</ele>
        <time>2020-10-16T12:34:01.088Z</time>
      </trkpt>
      <trkpt lat="44.71616" lon="3.83412">
        <ele>985.71453857422</ele>
        <time>2020-10-16T12:34:01.551Z</time>
      </trkpt>
      <trkpt lat="44.71606" lon="3.83393">
        <ele>986.28234863281</ele>
        <time>2020-10-16T12:34:02.017Z</time>
      </trkpt>
      <trkpt lat="44.71599" lon="3.83381">
        <ele>986.63922119141</ele>
        <time>2020-10-16T12:34:02.485Z</time>
      </trkpt>
      <trkpt lat="44.7159" lon="3.83367">
        <ele>987.08642578125</ele>
        <time>2020-10-16T12:34:02.956Z</time>
      </trkpt>
      <trkpt lat="44.7158" lon="3.83353">
        <ele>987.61779785156</ele>
        <time>2020-10-16T12:34:03.430Z</time>
      </trkpt>
      <trkpt lat="44.71572" lon="3.83337">
        <ele>988.48883056641</ele>
        <time>2020-10-16T12:34:03.907Z</time>
      </trkpt>
      <trkpt lat="44.71562" lon="3.8332">
        <ele>989.41607666016</ele>
        <time>2020-10-16T12:34:04.387Z</time>
      </trkpt>
      <trkpt lat="44.7155" lon="3.83298">
        <ele>990.61358642578</ele>
        <time>2020-10-16T12:34:04.871Z</time>
      </trkpt>
      <trkpt lat="44.71539" lon="3.83274">
        <ele>991.87292480469</ele>
        <time>2020-10-16T12:34:05.359Z</time>
      </trkpt>
      <trkpt lat="44.71531" lon="3.83255">
        <ele>992.13391113281</ele>
        <time>2020-10-16T12:34:05.850Z</time>
      </trkpt>
      <trkpt lat="44.71522" lon="3.83233">
        <ele>992.29461669922</ele>
        <time>2020-10-16T12:34:06.344Z</time>
      </trkpt>
      <trkpt lat="44.71512" lon="3.8321">
        <ele>992.45782470703</ele>
        <time>2020-10-16T12:34:06.842Z</time>
      </trkpt>
      <trkpt lat="44.71505" lon="3.83195">
        <ele>992.53857421875</ele>
        <time>2020-10-16T12:34:07.343Z</time>
      </trkpt>
      <trkpt lat="44.71496" lon="3.83175">
        <ele>993.02319335938</ele>
        <time>2020-10-16T12:34:07.847Z</time>
      </trkpt>
      <trkpt lat="44.71484" lon="3.83142">
        <ele>994.07061767578</ele>
        <time>2020-10-16T12:34:08.356Z</time>
      </trkpt>
      <trkpt lat="44.71476" lon="3.83124">
        <ele>994.51458740234</ele>
        <time>2020-10-16T12:34:08.869Z</time>
      </trkpt>
      <trkpt lat="44.71464" lon="3.83096">
        <ele>994.87927246094</ele>
        <time>2020-10-16T12:34:09.386Z</time>
      </trkpt>
      <trkpt lat="44.71451" lon="3.83071">
        <ele>995.08557128906</ele>
        <time>2020-10-16T12:34:09.908Z</time>
      </trkpt>
      <trkpt lat="44.71435" lon="3.8304">
        <ele>995.66961669922</ele>
        <time>2020-10-16T12:34:10.435Z</time>
      </trkpt>
      <trkpt lat="44.71424" lon="3.83027">
        <ele>996.08392333984</ele>
        <time>2020-10-16T12:34:10.965Z</time>
      </trkpt>
      <trkpt lat="44.71415" lon="3.83018">
        <ele>996.43890380859</ele>
        <time>2020-10-16T12:34:11.497Z</time>
      </trkpt>
      <trkpt lat="44.71415" lon="3.83018">
        <ele>996.4482421875</ele>
        <time>2020-10-16T12:34:12.029Z</time>
      </trkpt>
      <trkpt lat="44.71406" lon="3.83011">
        <ele>996.85681152344</ele>
        <time>2020-10-16T12:34:12.563Z</time>
      </trkpt>
      <trkpt lat="44.71392" lon="3.83">
        <ele>997.46893310547</ele>
        <time>2020-10-16T12:34:13.100Z</time>
      </trkpt>
      <trkpt lat="44.71371" lon="3.82982">
        <ele>998.44830322266</ele>
        <time>2020-10-16T12:34:13.642Z</time>
      </trkpt>
      <trkpt lat="44.7135" lon="3.82956">
        <ele>999.04144287109</ele>
        <time>2020-10-16T12:34:14.190Z</time>
      </trkpt>
      <trkpt lat="44.71333" lon="3.82941">
        <ele>999.42150878906</ele>
        <time>2020-10-16T12:34:14.742Z</time>
      </trkpt>
      <trkpt lat="44.7133" lon="3.8294">
        <ele>999.47845458984</ele>
        <time>2020-10-16T12:34:15.295Z</time>
      </trkpt>
      <trkpt lat="44.71328" lon="3.8294">
        <ele>999.49664306641</ele>
        <time>2020-10-16T12:34:15.848Z</time>
      </trkpt>
      <trkpt lat="44.7133" lon="3.82925">
        <ele>999.99792480469</ele>
        <time>2020-10-16T12:34:16.403Z</time>
      </trkpt>
      <trkpt lat="44.71335" lon="3.82905">
        <ele>1000.639831543</ele>
        <time>2020-10-16T12:34:16.961Z</time>
      </trkpt>
      <trkpt lat="44.71343" lon="3.82877">
        <ele>1001.557800293</ele>
        <time>2020-10-16T12:34:17.523Z</time>
      </trkpt>
      <trkpt lat="44.71349" lon="3.82854">
        <ele>1002.3257446289</ele>
        <time>2020-10-16T12:34:18.089Z</time>
      </trkpt>
      <trkpt lat="44.71355" lon="3.82835">
        <ele>1002.8420410156</ele>
        <time>2020-10-16T12:34:18.658Z</time>
      </trkpt>
      <trkpt lat="44.71361" lon="3.82812">
        <ele>1003.2619628906</ele>
        <time>2020-10-16T12:34:19.230Z</time>
      </trkpt>
      <trkpt lat="44.7137" lon="3.82778">
        <ele>1003.8545532227</ele>
        <time>2020-10-16T12:34:19.807Z</time>
      </trkpt>
      <trkpt lat="44.71374" lon="3.82757">
        <ele>1003.6852416992</ele>
        <time>2020-10-16T12:34:20.388Z</time>
      </trkpt>
      <trkpt lat="44.7138" lon="3.82727">
        <ele>1003.0916137695</ele>
        <time>2020-10-16T12:34:20.973Z</time>
      </trkpt>
      <trkpt lat="44.71379" lon="3.82712">
        <ele>1003.1727905273</ele>
        <time>2020-10-16T12:34:21.560Z</time>
      </trkpt>
      <trkpt lat="44.71378" lon="3.82705">
        <ele>1003.3044433594</ele>
        <time>2020-10-16T12:34:22.148Z</time>
      </trkpt>
      <trkpt lat="44.71376" lon="3.82702">
        <ele>1003.439453125</ele>
        <time>2020-10-16T12:34:22.737Z</time>
      </trkpt>
      <trkpt lat="44.71379" lon="3.82692">
        <ele>1003.2447509766</ele>
        <time>2020-10-16T12:34:23.327Z</time>
      </trkpt>
      <trkpt lat="44.71381" lon="3.82678">
        <ele>1003.134765625</ele>
        <time>2020-10-16T12:34:23.919Z</time>
      </trkpt>
      <trkpt lat="44.71381" lon="3.82657">
        <ele>1003.1013793945</ele>
        <time>2020-10-16T12:34:24.514Z</time>
      </trkpt>
      <trkpt lat="44.71379" lon="3.82638">
        <ele>1003.2496948242</ele>
        <time>2020-10-16T12:34:25.112Z</time>
      </trkpt>
      <trkpt lat="44.71378" lon="3.82608">
        <ele>1003.5548095703</ele>
        <time>2020-10-16T12:34:25.714Z</time>
      </trkpt>
      <trkpt lat="44.71377" lon="3.82575">
        <ele>1004.0657348633</ele>
        <time>2020-10-16T12:34:26.321Z</time>
      </trkpt>
      <trkpt lat="44.71377" lon="3.8256">
        <ele>1004.2329711914</ele>
        <time>2020-10-16T12:34:26.930Z</time>
      </trkpt>
      <trkpt lat="44.71387" lon="3.82556">
        <ele>1003.8016357422</ele>
        <time>2020-10-16T12:34:27.541Z</time>
      </trkpt>
      <trkpt lat="44.71394" lon="3.82553">
        <ele>1003.4848632812</ele>
        <time>2020-10-16T12:34:28.154Z</time>
      </trkpt>
      <trkpt lat="44.71399" lon="3.82549">
        <ele>1003.3668823242</ele>
        <time>2020-10-16T12:34:28.768Z</time>
      </trkpt>
      <trkpt lat="44.71402" lon="3.82537">
        <ele>1004.1256713867</ele>
        <time>2020-10-16T12:34:29.384Z</time>
      </trkpt>
      <trkpt lat="44.71405" lon="3.82526">
        <ele>1004.7645874023</ele>
        <time>2020-10-16T12:34:30.001Z</time>
      </trkpt>
      <trkpt lat="44.7141" lon="3.82509">
        <ele>1005.3207397461</ele>
        <time>2020-10-16T12:34:30.621Z</time>
      </trkpt>
      <trkpt lat="44.71421" lon="3.82494">
        <ele>1005.6695556641</ele>
        <time>2020-10-16T12:34:31.244Z</time>
      </trkpt>
      <trkpt lat="44.71436" lon="3.82492">
        <ele>1005.8698120117</ele>
        <time>2020-10-16T12:34:31.870Z</time>
      </trkpt>
      <trkpt lat="44.71448" lon="3.82493">
        <ele>1005.9795532227</ele>
        <time>2020-10-16T12:34:32.498Z</time>
      </trkpt>
      <trkpt lat="44.71462" lon="3.82495">
        <ele>1005.9707641602</ele>
        <time>2020-10-16T12:34:33.129Z</time>
      </trkpt>
      <trkpt lat="44.71483" lon="3.82502">
        <ele>1005.7313232422</ele>
        <time>2020-10-16T12:34:33.765Z</time>
      </trkpt>
      <trkpt lat="44.71508" lon="3.82505">
        <ele>1005.6218261719</ele>
        <time>2020-10-16T12:34:34.406Z</time>
      </trkpt>
      <trkpt lat="44.71529" lon="3.82507">
        <ele>1005.5505371094</ele>
        <time>2020-10-16T12:34:35.051Z</time>
      </trkpt>
      <trkpt lat="44.71554" lon="3.82504">
        <ele>1005.8579101562</ele>
        <time>2020-10-16T12:34:35.701Z</time>
      </trkpt>
      <trkpt lat="44.7157" lon="3.825">
        <ele>1006.1910400391</ele>
        <time>2020-10-16T12:34:36.354Z</time>
      </trkpt>
      <trkpt lat="44.71605" lon="3.82492">
        <ele>1007.2310791016</ele>
        <time>2020-10-16T12:34:37.014Z</time>
      </trkpt>
      <trkpt lat="44.7163" lon="3.82486">
        <ele>1007.9078369141</ele>
        <time>2020-10-16T12:34:37.679Z</time>
      </trkpt>
      <trkpt lat="44.71639" lon="3.82484">
        <ele>1007.8602905273</ele>
        <time>2020-10-16T12:34:38.346Z</time>
      </trkpt>
      <trkpt lat="44.7165" lon="3.82478">
        <ele>1007.9414672852</ele>
        <time>2020-10-16T12:34:39.015Z</time>
      </trkpt>
      <trkpt lat="44.71666" lon="3.82477">
        <ele>1007.6044311523</ele>
        <time>2020-10-16T12:34:39.688Z</time>
      </trkpt>
      <trkpt lat="44.71679" lon="3.82485">
        <ele>1006.8508300781</ele>
        <time>2020-10-16T12:34:40.363Z</time>
      </trkpt>
      <trkpt lat="44.7169" lon="3.82496">
        <ele>1005.8930053711</ele>
        <time>2020-10-16T12:34:41.041Z</time>
      </trkpt>
      <trkpt lat="44.71698" lon="3.82505">
        <ele>1005.1979980469</ele>
        <time>2020-10-16T12:34:41.721Z</time>
      </trkpt>
      <trkpt lat="44.71705" lon="3.82505">
        <ele>1005.0121459961</ele>
        <time>2020-10-16T12:34:42.403Z</time>
      </trkpt>
      <trkpt lat="44.71716" lon="3.82506">
        <ele>1004.8018188477</ele>
        <time>2020-10-16T12:34:43.087Z</time>
      </trkpt>
      <trkpt lat="44.71725" lon="3.82504">
        <ele>1004.8145141602</ele>
        <time>2020-10-16T12:34:43.773Z</time>
      </trkpt>
      <trkpt lat="44.71744" lon="3.82497">
        <ele>1005.0524291992</ele>
        <time>2020-10-16T12:34:44.463Z</time>
      </trkpt>
      <trkpt lat="44.71755" lon="3.82488">
        <ele>1005.396484375</ele>
        <time>2020-10-16T12:34:45.155Z</time>
      </trkpt>
      <trkpt lat="44.71767" lon="3.82477">
        <ele>1005.3586425781</ele>
        <time>2020-10-16T12:34:45.850Z</time>
      </trkpt>
      <trkpt lat="44.7178" lon="3.82464">
        <ele>1005.3336791992</ele>
        <time>2020-10-16T12:34:46.548Z</time>
      </trkpt>
      <trkpt lat="44.71791" lon="3.82456">
        <ele>1005.0965576172</ele>
        <time>2020-10-16T12:34:47.249Z</time>
      </trkpt>
      <trkpt lat="44.71817" lon="3.82439">
        <ele>1004.9449462891</ele>
        <time>2020-10-16T12:34:47.955Z</time>
      </trkpt>
      <trkpt lat="44.71832" lon="3.82425">
        <ele>1005.5153198242</ele>
        <time>2020-10-16T12:34:48.665Z</time>
      </trkpt>
      <trkpt lat="44.71846" lon="3.82418">
        <ele>1005.5972900391</ele>
        <time>2020-10-16T12:34:49.378Z</time>
      </trkpt>
      <trkpt lat="44.71864" lon="3.82408">
        <ele>1004.9396362305</ele>
        <time>2020-10-16T12:34:50.095Z</time>
      </trkpt>
      <trkpt lat="44.71876" lon="3.82401">
        <ele>1004.2416381836</ele>
        <time>2020-10-16T12:34:50.814Z</time>
      </trkpt>
      <trkpt lat="44.71897" lon="3.82393">
        <ele>1002.3317871094</ele>
        <time>2020-10-16T12:34:51.538Z</time>
      </trkpt>
      <trkpt lat="44.71909" lon="3.8239">
        <ele>1001.1626586914</ele>
        <time>2020-10-16T12:34:52.264Z</time>
      </trkpt>
      <trkpt lat="44.71925" lon="3.82385">
        <ele>999.34655761719</ele>
        <time>2020-10-16T12:34:52.994Z</time>
      </trkpt>
      <trkpt lat="44.71961" lon="3.82364">
        <ele>995.92663574219</ele>
        <time>2020-10-16T12:34:53.731Z</time>
      </trkpt>
      <trkpt lat="44.71968" lon="3.82359">
        <ele>995.46118164062</ele>
        <time>2020-10-16T12:34:54.470Z</time>
      </trkpt>
      <trkpt lat="44.71974" lon="3.82352">
        <ele>995.34991455078</ele>
        <time>2020-10-16T12:34:55.210Z</time>
      </trkpt>
      <trkpt lat="44.71983" lon="3.8234">
        <ele>995.53271484375</ele>
        <time>2020-10-16T12:34:55.953Z</time>
      </trkpt>
      <trkpt lat="44.71998" lon="3.82317">
        <ele>995.95629882812</ele>
        <time>2020-10-16T12:34:56.700Z</time>
      </trkpt>
      <trkpt lat="44.72012" lon="3.82304">
        <ele>995.14709472656</ele>
        <time>2020-10-16T12:34:57.451Z</time>
      </trkpt>
      <trkpt lat="44.72019" lon="3.823">
        <ele>994.54071044922</ele>
        <time>2020-10-16T12:34:58.203Z</time>
      </trkpt>
      <trkpt lat="44.72023" lon="3.823">
        <ele>994.04016113281</ele>
        <time>2020-10-16T12:34:58.956Z</time>
      </trkpt>
      <trkpt lat="44.72028" lon="3.82302">
        <ele>993.3310546875</ele>
        <time>2020-10-16T12:34:59.710Z</time>
      </trkpt>
      <trkpt lat="44.72032" lon="3.82305">
        <ele>992.60198974609</ele>
        <time>2020-10-16T12:35:00.465Z</time>
      </trkpt>
      <trkpt lat="44.72036" lon="3.82312">
        <ele>991.70336914062</ele>
        <time>2020-10-16T12:35:01.221Z</time>
      </trkpt>
      <trkpt lat="44.72039" lon="3.82319">
        <ele>991.07305908203</ele>
        <time>2020-10-16T12:35:01.978Z</time>
      </trkpt>
      <trkpt lat="44.72042" lon="3.82334">
        <ele>990.05383300781</ele>
        <time>2020-10-16T12:35:02.738Z</time>
      </trkpt>
      <trkpt lat="44.72044" lon="3.82346">
        <ele>989.23327636719</ele>
        <time>2020-10-16T12:35:03.499Z</time>
      </trkpt>
      <trkpt lat="44.72047" lon="3.82354">
        <ele>988.60003662109</ele>
        <time>2020-10-16T12:35:04.262Z</time>
      </trkpt>
      <trkpt lat="44.72051" lon="3.82362">
        <ele>987.93560791016</ele>
        <time>2020-10-16T12:35:05.026Z</time>
      </trkpt>
      <trkpt lat="44.7207" lon="3.82381">
        <ele>985.85089111328</ele>
        <time>2020-10-16T12:35:05.795Z</time>
      </trkpt>
      <trkpt lat="44.72077" lon="3.8239">
        <ele>984.97570800781</ele>
        <time>2020-10-16T12:35:06.566Z</time>
      </trkpt>
      <trkpt lat="44.72087" lon="3.82407">
        <ele>983.56323242188</ele>
        <time>2020-10-16T12:35:07.340Z</time>
      </trkpt>
      <trkpt lat="44.72096" lon="3.82427">
        <ele>982.06207275391</ele>
        <time>2020-10-16T12:35:08.117Z</time>
      </trkpt>
      <trkpt lat="44.72101" lon="3.82434">
        <ele>981.41552734375</ele>
        <time>2020-10-16T12:35:08.896Z</time>
      </trkpt>
      <trkpt lat="44.72106" lon="3.82438">
        <ele>980.88555908203</ele>
        <time>2020-10-16T12:35:09.676Z</time>
      </trkpt>
      <trkpt lat="44.72112" lon="3.8244">
        <ele>980.43719482422</ele>
        <time>2020-10-16T12:35:10.457Z</time>
      </trkpt>
      <trkpt lat="44.72118" lon="3.82441">
        <ele>980.03564453125</ele>
        <time>2020-10-16T12:35:11.239Z</time>
      </trkpt>
      <trkpt lat="44.72138" lon="3.82441">
        <ele>979.29797363281</ele>
        <time>2020-10-16T12:35:12.025Z</time>
      </trkpt>
      <trkpt lat="44.72163" lon="3.82445">
        <ele>978.30902099609</ele>
        <time>2020-10-16T12:35:12.816Z</time>
      </trkpt>
      <trkpt lat="44.72175" lon="3.82447">
        <ele>977.84320068359</ele>
        <time>2020-10-16T12:35:13.610Z</time>
      </trkpt>
      <trkpt lat="44.72193" lon="3.82448">
        <ele>977.20422363281</ele>
        <time>2020-10-16T12:35:14.407Z</time>
      </trkpt>
      <trkpt lat="44.72206" lon="3.82448">
        <ele>976.94195556641</ele>
        <time>2020-10-16T12:35:15.207Z</time>
      </trkpt>
      <trkpt lat="44.72226" lon="3.82446">
        <ele>976.17755126953</ele>
        <time>2020-10-16T12:35:16.011Z</time>
      </trkpt>
      <trkpt lat="44.72246" lon="3.82442">
        <ele>975.26043701172</ele>
        <time>2020-10-16T12:35:16.819Z</time>
      </trkpt>
      <trkpt lat="44.72284" lon="3.82438">
        <ele>973.26354980469</ele>
        <time>2020-10-16T12:35:17.635Z</time>
      </trkpt>
      <trkpt lat="44.72323" lon="3.8243">
        <ele>973.74652099609</ele>
        <time>2020-10-16T12:35:18.458Z</time>
      </trkpt>
      <trkpt lat="44.72354" lon="3.82423">
        <ele>974.34106445312</ele>
        <time>2020-10-16T12:35:19.288Z</time>
      </trkpt>
      <trkpt lat="44.7236" lon="3.82422">
        <ele>973.86059570312</ele>
        <time>2020-10-16T12:35:20.119Z</time>
      </trkpt>
      <trkpt lat="44.72366" lon="3.82423">
        <ele>973.33294677734</ele>
        <time>2020-10-16T12:35:20.951Z</time>
      </trkpt>
      <trkpt lat="44.72373" lon="3.82425">
        <ele>972.66278076172</ele>
        <time>2020-10-16T12:35:21.785Z</time>
      </trkpt>
      <trkpt lat="44.72397" lon="3.82435">
        <ele>969.79943847656</ele>
        <time>2020-10-16T12:35:22.624Z</time>
      </trkpt>
      <trkpt lat="44.72402" lon="3.82436">
        <ele>969.16589355469</ele>
        <time>2020-10-16T12:35:23.464Z</time>
      </trkpt>
      <trkpt lat="44.72407" lon="3.82435">
        <ele>968.65081787109</ele>
        <time>2020-10-16T12:35:24.304Z</time>
      </trkpt>
      <trkpt lat="44.7241" lon="3.82432">
        <ele>968.28784179688</ele>
        <time>2020-10-16T12:35:25.145Z</time>
      </trkpt>
      <trkpt lat="44.72412" lon="3.82427">
        <ele>967.97473144531</ele>
        <time>2020-10-16T12:35:25.987Z</time>
      </trkpt>
      <trkpt lat="44.72416" lon="3.82416">
        <ele>967.50207519531</ele>
        <time>2020-10-16T12:35:26.831Z</time>
      </trkpt>
      <trkpt lat="44.7242" lon="3.82406">
        <ele>967.09875488281</ele>
        <time>2020-10-16T12:35:27.676Z</time>
      </trkpt>
      <trkpt lat="44.72423" lon="3.82399">
        <ele>966.68096923828</ele>
        <time>2020-10-16T12:35:28.523Z</time>
      </trkpt>
      <trkpt lat="44.72427" lon="3.82395">
        <ele>966.17944335938</ele>
        <time>2020-10-16T12:35:29.371Z</time>
      </trkpt>
      <trkpt lat="44.72434" lon="3.82392">
        <ele>965.37066650391</ele>
        <time>2020-10-16T12:35:30.220Z</time>
      </trkpt>
      <trkpt lat="44.72447" lon="3.82388">
        <ele>963.78942871094</ele>
        <time>2020-10-16T12:35:31.072Z</time>
      </trkpt>
      <trkpt lat="44.72454" lon="3.82384">
        <ele>962.99188232422</ele>
        <time>2020-10-16T12:35:31.925Z</time>
      </trkpt>
      <trkpt lat="44.72461" lon="3.82377">
        <ele>962.66015625</ele>
        <time>2020-10-16T12:35:32.780Z</time>
      </trkpt>
      <trkpt lat="44.72468" lon="3.82368">
        <ele>962.27392578125</ele>
        <time>2020-10-16T12:35:33.637Z</time>
      </trkpt>
      <trkpt lat="44.72475" lon="3.82364">
        <ele>961.71527099609</ele>
        <time>2020-10-16T12:35:34.495Z</time>
      </trkpt>
      <trkpt lat="44.72482" lon="3.82363">
        <ele>961.11285400391</ele>
        <time>2020-10-16T12:35:35.355Z</time>
      </trkpt>
      <trkpt lat="44.72491" lon="3.82363">
        <ele>960.49365234375</ele>
        <time>2020-10-16T12:35:36.217Z</time>
      </trkpt>
      <trkpt lat="44.72505" lon="3.82365">
        <ele>959.5849609375</ele>
        <time>2020-10-16T12:35:37.081Z</time>
      </trkpt>
      <trkpt lat="44.72508" lon="3.82367">
        <ele>959.35382080078</ele>
        <time>2020-10-16T12:35:37.946Z</time>
      </trkpt>
      <trkpt lat="44.72513" lon="3.82369">
        <ele>959.08990478516</ele>
        <time>2020-10-16T12:35:38.812Z</time>
      </trkpt>
      <trkpt lat="44.72516" lon="3.82371">
        <ele>958.91094970703</ele>
        <time>2020-10-16T12:35:39.679Z</time>
      </trkpt>
      <trkpt lat="44.7252" lon="3.82371">
        <ele>958.64031982422</ele>
        <time>2020-10-16T12:35:40.546Z</time>
      </trkpt>
      <trkpt lat="44.72522" lon="3.82369">
        <ele>958.41424560547</ele>
        <time>2020-10-16T12:35:41.414Z</time>
      </trkpt>
      <trkpt lat="44.72524" lon="3.82365">
        <ele>958.17785644531</ele>
        <time>2020-10-16T12:35:42.283Z</time>
      </trkpt>
      <trkpt lat="44.72525" lon="3.82355">
        <ele>957.87591552734</ele>
        <time>2020-10-16T12:35:43.153Z</time>
      </trkpt>
      <trkpt lat="44.7253" lon="3.82294">
        <ele>958.28112792969</ele>
        <time>2020-10-16T12:35:44.032Z</time>
      </trkpt>
      <trkpt lat="44.72535" lon="3.82231">
        <ele>958.61535644531</ele>
        <time>2020-10-16T12:35:44.920Z</time>
      </trkpt>
      <trkpt lat="44.7254" lon="3.82167">
        <ele>959.11907958984</ele>
        <time>2020-10-16T12:35:45.817Z</time>
      </trkpt>
      <trkpt lat="44.72549" lon="3.82061">
        <ele>957.65557861328</ele>
        <time>2020-10-16T12:35:46.729Z</time>
      </trkpt>
      <trkpt lat="44.7255" lon="3.82038">
        <ele>956.78033447266</ele>
        <time>2020-10-16T12:35:47.645Z</time>
      </trkpt>
      <trkpt lat="44.7255" lon="3.82014">
        <ele>956.05078125</ele>
        <time>2020-10-16T12:35:48.564Z</time>
      </trkpt>
      <trkpt lat="44.72547" lon="3.81981">
        <ele>955.44635009766</ele>
        <time>2020-10-16T12:35:49.488Z</time>
      </trkpt>
      <trkpt lat="44.72543" lon="3.81961">
        <ele>955.18292236328</ele>
        <time>2020-10-16T12:35:50.415Z</time>
      </trkpt>
      <trkpt lat="44.72539" lon="3.81949">
        <ele>955.11883544922</ele>
        <time>2020-10-16T12:35:51.344Z</time>
      </trkpt>
      <trkpt lat="44.72536" lon="3.81939">
        <ele>955.19390869141</ele>
        <time>2020-10-16T12:35:52.274Z</time>
      </trkpt>
      <trkpt lat="44.72534" lon="3.8193">
        <ele>956.14135742188</ele>
        <time>2020-10-16T12:35:53.206Z</time>
      </trkpt>
      <trkpt lat="44.72535" lon="3.81925">
        <ele>956.58746337891</ele>
        <time>2020-10-16T12:35:54.138Z</time>
      </trkpt>
      <trkpt lat="44.72538" lon="3.81919">
        <ele>956.77435302734</ele>
        <time>2020-10-16T12:35:55.071Z</time>
      </trkpt>
      <trkpt lat="44.72562" lon="3.81904">
        <ele>956.26593017578</ele>
        <time>2020-10-16T12:35:56.010Z</time>
      </trkpt>
      <trkpt lat="44.72594" lon="3.81882">
        <ele>954.25427246094</ele>
        <time>2020-10-16T12:35:56.956Z</time>
      </trkpt>
      <trkpt lat="44.72603" lon="3.81875">
        <ele>953.39892578125</ele>
        <time>2020-10-16T12:35:57.904Z</time>
      </trkpt>
      <trkpt lat="44.72609" lon="3.81867">
        <ele>953.00793457031</ele>
        <time>2020-10-16T12:35:58.853Z</time>
      </trkpt>
      <trkpt lat="44.72612" lon="3.81859">
        <ele>952.91021728516</ele>
        <time>2020-10-16T12:35:59.804Z</time>
      </trkpt>
      <trkpt lat="44.72615" lon="3.81848">
        <ele>952.91674804688</ele>
        <time>2020-10-16T12:36:00.756Z</time>
      </trkpt>
      <trkpt lat="44.72616" lon="3.8184">
        <ele>953.00030517578</ele>
        <time>2020-10-16T12:36:01.710Z</time>
      </trkpt>
      <trkpt lat="44.72616" lon="3.81832">
        <ele>953.20965576172</ele>
        <time>2020-10-16T12:36:02.665Z</time>
      </trkpt>
      <trkpt lat="44.72615" lon="3.81823">
        <ele>953.56024169922</ele>
        <time>2020-10-16T12:36:03.621Z</time>
      </trkpt>
      <trkpt lat="44.72611" lon="3.81813">
        <ele>954.26171875</ele>
        <time>2020-10-16T12:36:04.579Z</time>
      </trkpt>
      <trkpt lat="44.72606" lon="3.81804">
        <ele>955.11859130859</ele>
        <time>2020-10-16T12:36:05.538Z</time>
      </trkpt>
      <trkpt lat="44.72601" lon="3.81795">
        <ele>956.07653808594</ele>
        <time>2020-10-16T12:36:06.499Z</time>
      </trkpt>
      <trkpt lat="44.72598" lon="3.81789">
        <ele>956.61584472656</ele>
        <time>2020-10-16T12:36:07.461Z</time>
      </trkpt>
      <trkpt lat="44.72593" lon="3.81773">
        <ele>957.60998535156</ele>
        <time>2020-10-16T12:36:08.425Z</time>
      </trkpt>
      <trkpt lat="44.72589" lon="3.81752">
        <ele>956.98260498047</ele>
        <time>2020-10-16T12:36:09.393Z</time>
      </trkpt>
      <trkpt lat="44.72586" lon="3.81727">
        <ele>956.74255371094</ele>
        <time>2020-10-16T12:36:10.364Z</time>
      </trkpt>
      <trkpt lat="44.72586" lon="3.81705">
        <ele>957.27258300781</ele>
        <time>2020-10-16T12:36:11.338Z</time>
      </trkpt>
      <trkpt lat="44.72586" lon="3.81692">
        <ele>957.58795166016</ele>
        <time>2020-10-16T12:36:12.314Z</time>
      </trkpt>
      <trkpt lat="44.72589" lon="3.81683">
        <ele>957.86376953125</ele>
        <time>2020-10-16T12:36:13.292Z</time>
      </trkpt>
      <trkpt lat="44.72594" lon="3.8168">
        <ele>957.81762695312</ele>
        <time>2020-10-16T12:36:14.271Z</time>
      </trkpt>
      <trkpt lat="44.72599" lon="3.81679">
        <ele>957.59509277344</ele>
        <time>2020-10-16T12:36:15.251Z</time>
      </trkpt>
      <trkpt lat="44.72605" lon="3.81682">
        <ele>957.15637207031</ele>
        <time>2020-10-16T12:36:16.232Z</time>
      </trkpt>
      <trkpt lat="44.72617" lon="3.81689">
        <ele>956.15399169922</ele>
        <time>2020-10-16T12:36:17.216Z</time>
      </trkpt>
      <trkpt lat="44.72631" lon="3.81695">
        <ele>955.35314941406</ele>
        <time>2020-10-16T12:36:18.203Z</time>
      </trkpt>
      <trkpt lat="44.72633" lon="3.81704">
        <ele>954.88317871094</ele>
        <time>2020-10-16T12:36:19.191Z</time>
      </trkpt>
      <trkpt lat="44.72641" lon="3.81711">
        <ele>954.21490478516</ele>
        <time>2020-10-16T12:36:20.181Z</time>
      </trkpt>
      <trkpt lat="44.72652" lon="3.81718">
        <ele>953.46112060547</ele>
        <time>2020-10-16T12:36:21.173Z</time>
      </trkpt>
      <trkpt lat="44.72666" lon="3.81726">
        <ele>952.66607666016</ele>
        <time>2020-10-16T12:36:22.168Z</time>
      </trkpt>
      <trkpt lat="44.72677" lon="3.8173">
        <ele>952.15972900391</ele>
        <time>2020-10-16T12:36:23.165Z</time>
      </trkpt>
      <trkpt lat="44.72689" lon="3.81734">
        <ele>951.67553710938</ele>
        <time>2020-10-16T12:36:24.165Z</time>
      </trkpt>
      <trkpt lat="44.72699" lon="3.81731">
        <ele>951.56890869141</ele>
        <time>2020-10-16T12:36:25.167Z</time>
      </trkpt>
      <trkpt lat="44.72703" lon="3.81725">
        <ele>951.83386230469</ele>
        <time>2020-10-16T12:36:26.170Z</time>
      </trkpt>
      <trkpt lat="44.72707" lon="3.81718">
        <ele>952.126953125</ele>
        <time>2020-10-16T12:36:27.174Z</time>
      </trkpt>
      <trkpt lat="44.72716" lon="3.81716">
        <ele>952.09356689453</ele>
        <time>2020-10-16T12:36:28.180Z</time>
      </trkpt>
      <trkpt lat="44.72724" lon="3.81717">
        <ele>951.80633544922</ele>
        <time>2020-10-16T12:36:29.188Z</time>
      </trkpt>
      <trkpt lat="44.72729" lon="3.8171">
        <ele>952.05187988281</ele>
        <time>2020-10-16T12:36:30.197Z</time>
      </trkpt>
      <trkpt lat="44.72741" lon="3.81697">
        <ele>952.25427246094</ele>
        <time>2020-10-16T12:36:31.209Z</time>
      </trkpt>
      <trkpt lat="44.72746" lon="3.81692">
        <ele>952.34338378906</ele>
        <time>2020-10-16T12:36:32.222Z</time>
      </trkpt>
      <trkpt lat="44.72751" lon="3.81684">
        <ele>952.55853271484</ele>
        <time>2020-10-16T12:36:33.237Z</time>
      </trkpt>
      <trkpt lat="44.72755" lon="3.81676">
        <ele>952.75048828125</ele>
        <time>2020-10-16T12:36:34.253Z</time>
      </trkpt>
      <trkpt lat="44.72759" lon="3.8167">
        <ele>952.873046875</ele>
        <time>2020-10-16T12:36:35.271Z</time>
      </trkpt>
      <trkpt lat="44.72771" lon="3.81654">
        <ele>952.35699462891</ele>
        <time>2020-10-16T12:36:36.292Z</time>
      </trkpt>
      <trkpt lat="44.72776" lon="3.8164">
        <ele>951.96801757812</ele>
        <time>2020-10-16T12:36:37.315Z</time>
      </trkpt>
      <trkpt lat="44.7278" lon="3.81625">
        <ele>951.61840820312</ele>
        <time>2020-10-16T12:36:38.340Z</time>
      </trkpt>
      <trkpt lat="44.72786" lon="3.81606">
        <ele>951.08673095703</ele>
        <time>2020-10-16T12:36:39.368Z</time>
      </trkpt>
      <trkpt lat="44.72788" lon="3.81592">
        <ele>950.89776611328</ele>
        <time>2020-10-16T12:36:40.398Z</time>
      </trkpt>
      <trkpt lat="44.72788" lon="3.81583">
        <ele>950.95245361328</ele>
        <time>2020-10-16T12:36:41.430Z</time>
      </trkpt>
      <trkpt lat="44.72787" lon="3.81575">
        <ele>951.02728271484</ele>
        <time>2020-10-16T12:36:42.463Z</time>
      </trkpt>
      <trkpt lat="44.72788" lon="3.8156">
        <ele>950.95837402344</ele>
        <time>2020-10-16T12:36:43.498Z</time>
      </trkpt>
      <trkpt lat="44.72788" lon="3.81547">
        <ele>950.95031738281</ele>
        <time>2020-10-16T12:36:44.535Z</time>
      </trkpt>
      <trkpt lat="44.72786" lon="3.8154">
        <ele>951.10601806641</ele>
        <time>2020-10-16T12:36:45.573Z</time>
      </trkpt>
      <trkpt lat="44.72779" lon="3.81533">
        <ele>951.72180175781</ele>
        <time>2020-10-16T12:36:46.613Z</time>
      </trkpt>
      <trkpt lat="44.72769" lon="3.81523">
        <ele>952.515625</ele>
        <time>2020-10-16T12:36:47.655Z</time>
      </trkpt>
      <trkpt lat="44.72764" lon="3.81515">
        <ele>952.93115234375</ele>
        <time>2020-10-16T12:36:48.698Z</time>
      </trkpt>
      <trkpt lat="44.7276" lon="3.81506">
        <ele>953.32568359375</ele>
        <time>2020-10-16T12:36:49.743Z</time>
      </trkpt>
      <trkpt lat="44.72756" lon="3.81493">
        <ele>953.61773681641</ele>
        <time>2020-10-16T12:36:50.790Z</time>
      </trkpt>
      <trkpt lat="44.72756" lon="3.81482">
        <ele>953.40368652344</ele>
        <time>2020-10-16T12:36:51.839Z</time>
      </trkpt>
      <trkpt lat="44.72757" lon="3.81472">
        <ele>953.09564208984</ele>
        <time>2020-10-16T12:36:52.889Z</time>
      </trkpt>
      <trkpt lat="44.72756" lon="3.81462">
        <ele>952.93237304688</ele>
        <time>2020-10-16T12:36:53.940Z</time>
      </trkpt>
      <trkpt lat="44.72754" lon="3.81446">
        <ele>952.73986816406</ele>
        <time>2020-10-16T12:36:54.994Z</time>
      </trkpt>
      <trkpt lat="44.72752" lon="3.81436">
        <ele>952.87835693359</ele>
        <time>2020-10-16T12:36:56.049Z</time>
      </trkpt>
      <trkpt lat="44.72749" lon="3.81427">
        <ele>953.38958740234</ele>
        <time>2020-10-16T12:36:57.106Z</time>
      </trkpt>
      <trkpt lat="44.72745" lon="3.81421">
        <ele>953.9677734375</ele>
        <time>2020-10-16T12:36:58.164Z</time>
      </trkpt>
      <trkpt lat="44.72741" lon="3.81416">
        <ele>954.55627441406</ele>
        <time>2020-10-16T12:36:59.223Z</time>
      </trkpt>
      <trkpt lat="44.72739" lon="3.81412">
        <ele>954.79638671875</ele>
        <time>2020-10-16T12:37:00.283Z</time>
      </trkpt>
      <trkpt lat="44.72741" lon="3.81407">
        <ele>954.72430419922</ele>
        <time>2020-10-16T12:37:01.343Z</time>
      </trkpt>
      <trkpt lat="44.72747" lon="3.81392">
        <ele>954.52838134766</ele>
        <time>2020-10-16T12:37:02.406Z</time>
      </trkpt>
      <trkpt lat="44.72749" lon="3.81388">
        <ele>954.44000244141</ele>
        <time>2020-10-16T12:37:03.470Z</time>
      </trkpt>
      <trkpt lat="44.72754" lon="3.81389">
        <ele>953.92193603516</ele>
        <time>2020-10-16T12:37:04.535Z</time>
      </trkpt>
      <trkpt lat="44.72761" lon="3.81393">
        <ele>953.18280029297</ele>
        <time>2020-10-16T12:37:05.601Z</time>
      </trkpt>
      <trkpt lat="44.72766" lon="3.81394">
        <ele>952.64233398438</ele>
        <time>2020-10-16T12:37:06.668Z</time>
      </trkpt>
      <trkpt lat="44.72769" lon="3.81389">
        <ele>952.55450439453</ele>
        <time>2020-10-16T12:37:07.736Z</time>
      </trkpt>
      <trkpt lat="44.72774" lon="3.81384">
        <ele>952.22570800781</ele>
        <time>2020-10-16T12:37:08.805Z</time>
      </trkpt>
      <trkpt lat="44.72782" lon="3.81379">
        <ele>951.6328125</ele>
        <time>2020-10-16T12:37:09.876Z</time>
      </trkpt>
      <trkpt lat="44.72789" lon="3.81373">
        <ele>951.20922851562</ele>
        <time>2020-10-16T12:37:10.948Z</time>
      </trkpt>
      <trkpt lat="44.72797" lon="3.81367">
        <ele>950.81329345703</ele>
        <time>2020-10-16T12:37:12.022Z</time>
      </trkpt>
      <trkpt lat="44.72805" lon="3.81356">
        <ele>950.88134765625</ele>
        <time>2020-10-16T12:37:13.099Z</time>
      </trkpt>
      <trkpt lat="44.72812" lon="3.81349">
        <ele>950.74627685547</ele>
        <time>2020-10-16T12:37:14.177Z</time>
      </trkpt>
      <trkpt lat="44.72821" lon="3.81338">
        <ele>950.57116699219</ele>
        <time>2020-10-16T12:37:15.258Z</time>
      </trkpt>
      <trkpt lat="44.72832" lon="3.81325">
        <ele>950.38842773438</ele>
        <time>2020-10-16T12:37:16.342Z</time>
      </trkpt>
      <trkpt lat="44.72841" lon="3.81315">
        <ele>950.07073974609</ele>
        <time>2020-10-16T12:37:17.428Z</time>
      </trkpt>
      <trkpt lat="44.72855" lon="3.81299">
        <ele>949.49792480469</ele>
        <time>2020-10-16T12:37:18.517Z</time>
      </trkpt>
      <trkpt lat="44.72859" lon="3.81293">
        <ele>949.31958007812</ele>
        <time>2020-10-16T12:37:19.608Z</time>
      </trkpt>
      <trkpt lat="44.7287" lon="3.81281">
        <ele>948.85314941406</ele>
        <time>2020-10-16T12:37:20.701Z</time>
      </trkpt>
      <trkpt lat="44.72878" lon="3.81272">
        <ele>948.39801025391</ele>
        <time>2020-10-16T12:37:21.796Z</time>
      </trkpt>
      <trkpt lat="44.72885" lon="3.81263">
        <ele>946.99291992188</ele>
        <time>2020-10-16T12:37:22.893Z</time>
      </trkpt>
      <trkpt lat="44.72893" lon="3.81254">
        <ele>945.55078125</ele>
        <time>2020-10-16T12:37:23.993Z</time>
      </trkpt>
      <trkpt lat="44.72899" lon="3.81245">
        <ele>944.35375976562</ele>
        <time>2020-10-16T12:37:25.094Z</time>
      </trkpt>
      <trkpt lat="44.72904" lon="3.81239">
        <ele>943.43090820312</ele>
        <time>2020-10-16T12:37:26.196Z</time>
      </trkpt>
      <trkpt lat="44.72907" lon="3.81228">
        <ele>942.31799316406</ele>
        <time>2020-10-16T12:37:27.300Z</time>
      </trkpt>
      <trkpt lat="44.72906" lon="3.8122">
        <ele>942</ele>
        <time>2020-10-16T12:37:28.405Z</time>
      </trkpt>
      <trkpt lat="44.72903" lon="3.81217">
        <ele>942</ele>
        <time>2020-10-16T12:37:29.511Z</time>
      </trkpt>
      <trkpt lat="44.72898" lon="3.81216">
        <ele>942</ele>
        <time>2020-10-16T12:37:30.618Z</time>
      </trkpt>
      <trkpt lat="44.72889" lon="3.81214">
        <ele>942.59826660156</ele>
        <time>2020-10-16T12:37:31.727Z</time>
      </trkpt>
      <trkpt lat="44.72874" lon="3.81213">
        <ele>943.79498291016</ele>
        <time>2020-10-16T12:37:32.839Z</time>
      </trkpt>
      <trkpt lat="44.72862" lon="3.81213">
        <ele>944.05841064453</ele>
        <time>2020-10-16T12:37:33.953Z</time>
      </trkpt>
      <trkpt lat="44.72855" lon="3.81216">
        <ele>944.275390625</ele>
        <time>2020-10-16T12:37:35.069Z</time>
      </trkpt>
      <trkpt lat="44.72849" lon="3.81217">
        <ele>944.3798828125</ele>
        <time>2020-10-16T12:37:36.186Z</time>
      </trkpt>
      <trkpt lat="44.72841" lon="3.81215">
        <ele>944.23034667969</ele>
        <time>2020-10-16T12:37:37.304Z</time>
      </trkpt>
      <trkpt lat="44.72832" lon="3.81216">
        <ele>944.27551269531</ele>
        <time>2020-10-16T12:37:38.424Z</time>
      </trkpt>
      <trkpt lat="44.72827" lon="3.81218">
        <ele>944.49389648438</ele>
        <time>2020-10-16T12:37:39.545Z</time>
      </trkpt>
      <trkpt lat="44.72804" lon="3.81223">
        <ele>946.06652832031</ele>
        <time>2020-10-16T12:37:40.671Z</time>
      </trkpt>
      <trkpt lat="44.72789" lon="3.81224">
        <ele>947.42431640625</ele>
        <time>2020-10-16T12:37:41.800Z</time>
      </trkpt>
      <trkpt lat="44.72772" lon="3.81224">
        <ele>949.44641113281</ele>
        <time>2020-10-16T12:37:42.932Z</time>
      </trkpt>
      <trkpt lat="44.72756" lon="3.81221">
        <ele>950.79742431641</ele>
        <time>2020-10-16T12:37:44.068Z</time>
      </trkpt>
      <trkpt lat="44.72733" lon="3.81218">
        <ele>953.04583740234</ele>
        <time>2020-10-16T12:37:45.208Z</time>
      </trkpt>
      <trkpt lat="44.72714" lon="3.81213">
        <ele>953.86761474609</ele>
        <time>2020-10-16T12:37:46.352Z</time>
      </trkpt>
      <trkpt lat="44.72695" lon="3.81209">
        <ele>954.87799072266</ele>
        <time>2020-10-16T12:37:47.500Z</time>
      </trkpt>
      <trkpt lat="44.72675" lon="3.81195">
        <ele>954.74768066406</ele>
        <time>2020-10-16T12:37:48.653Z</time>
      </trkpt>
      <trkpt lat="44.72665" lon="3.81182">
        <ele>954.20239257812</ele>
        <time>2020-10-16T12:37:49.808Z</time>
      </trkpt>
      <trkpt lat="44.72662" lon="3.81175">
        <ele>953.8623046875</ele>
        <time>2020-10-16T12:37:50.964Z</time>
      </trkpt>
      <trkpt lat="44.72654" lon="3.81163">
        <ele>953.40203857422</ele>
        <time>2020-10-16T12:37:52.123Z</time>
      </trkpt>
      <trkpt lat="44.72647" lon="3.81157">
        <ele>953.44464111328</ele>
        <time>2020-10-16T12:37:53.283Z</time>
      </trkpt>
      <trkpt lat="44.72633" lon="3.81151">
        <ele>953.95922851562</ele>
        <time>2020-10-16T12:37:54.446Z</time>
      </trkpt>
      <trkpt lat="44.72621" lon="3.81153">
        <ele>955.01116943359</ele>
        <time>2020-10-16T12:37:55.612Z</time>
      </trkpt>
      <trkpt lat="44.72612" lon="3.81158">
        <ele>956.38208007812</ele>
        <time>2020-10-16T12:37:56.780Z</time>
      </trkpt>
      <trkpt lat="44.726" lon="3.81161">
        <ele>957.90570068359</ele>
        <time>2020-10-16T12:37:57.950Z</time>
      </trkpt>
      <trkpt lat="44.72596" lon="3.81159">
        <ele>958.22186279297</ele>
        <time>2020-10-16T12:37:59.121Z</time>
      </trkpt>
      <trkpt lat="44.72591" lon="3.8116">
        <ele>958.82843017578</ele>
        <time>2020-10-16T12:38:00.293Z</time>
      </trkpt>
      <trkpt lat="44.72585" lon="3.81161">
        <ele>960.1611328125</ele>
        <time>2020-10-16T12:38:01.466Z</time>
      </trkpt>
      <trkpt lat="44.72577" lon="3.8116">
        <ele>961.35809326172</ele>
        <time>2020-10-16T12:38:02.641Z</time>
      </trkpt>
      <trkpt lat="44.72567" lon="3.81158">
        <ele>962.92578125</ele>
        <time>2020-10-16T12:38:03.818Z</time>
      </trkpt>
      <trkpt lat="44.72556" lon="3.8115">
        <ele>963.56945800781</ele>
        <time>2020-10-16T12:38:04.997Z</time>
      </trkpt>
      <trkpt lat="44.72547" lon="3.81138">
        <ele>963.42333984375</ele>
        <time>2020-10-16T12:38:06.179Z</time>
      </trkpt>
      <trkpt lat="44.7254" lon="3.81131">
        <ele>963.44219970703</ele>
        <time>2020-10-16T12:38:07.362Z</time>
      </trkpt>
      <trkpt lat="44.7253" lon="3.81117">
        <ele>962.017578125</ele>
        <time>2020-10-16T12:38:08.548Z</time>
      </trkpt>
      <trkpt lat="44.72525" lon="3.81112">
        <ele>961.29675292969</ele>
        <time>2020-10-16T12:38:09.736Z</time>
      </trkpt>
      <trkpt lat="44.72518" lon="3.81106">
        <ele>960.61224365234</ele>
        <time>2020-10-16T12:38:10.925Z</time>
      </trkpt>
      <trkpt lat="44.72514" lon="3.81101">
        <ele>961.13861083984</ele>
        <time>2020-10-16T12:38:12.115Z</time>
      </trkpt>
      <trkpt lat="44.72508" lon="3.81088">
        <ele>963.01025390625</ele>
        <time>2020-10-16T12:38:13.307Z</time>
      </trkpt>
      <trkpt lat="44.72506" lon="3.81084">
        <ele>963.60040283203</ele>
        <time>2020-10-16T12:38:14.500Z</time>
      </trkpt>
      <trkpt lat="44.72502" lon="3.81078">
        <ele>964.39752197266</ele>
        <time>2020-10-16T12:38:15.694Z</time>
      </trkpt>
      <trkpt lat="44.72496" lon="3.81077">
        <ele>964.65209960938</ele>
        <time>2020-10-16T12:38:16.890Z</time>
      </trkpt>
      <trkpt lat="44.72491" lon="3.81078">
        <ele>964.72528076172</ele>
        <time>2020-10-16T12:38:18.086Z</time>
      </trkpt>
      <trkpt lat="44.72488" lon="3.81072">
        <ele>965.51623535156</ele>
        <time>2020-10-16T12:38:19.283Z</time>
      </trkpt>
      <trkpt lat="44.72482" lon="3.81057">
        <ele>967.66442871094</ele>
        <time>2020-10-16T12:38:20.483Z</time>
      </trkpt>
      <trkpt lat="44.7248" lon="3.81051">
        <ele>968.60064697266</ele>
        <time>2020-10-16T12:38:21.684Z</time>
      </trkpt>
      <trkpt lat="44.7248" lon="3.81048">
        <ele>968.90765380859</ele>
        <time>2020-10-16T12:38:22.885Z</time>
      </trkpt>
      <trkpt lat="44.72479" lon="3.81045">
        <ele>969.38720703125</ele>
        <time>2020-10-16T12:38:24.087Z</time>
      </trkpt>
      <trkpt lat="44.72483" lon="3.81032">
        <ele>971.21179199219</ele>
        <time>2020-10-16T12:38:25.291Z</time>
      </trkpt>
      <trkpt lat="44.72491" lon="3.81032">
        <ele>971.04644775391</ele>
        <time>2020-10-16T12:38:26.496Z</time>
      </trkpt>
      <trkpt lat="44.72497" lon="3.81038">
        <ele>970.09729003906</ele>
        <time>2020-10-16T12:38:27.703Z</time>
      </trkpt>
      <trkpt lat="44.72505" lon="3.81047">
        <ele>968.74011230469</ele>
        <time>2020-10-16T12:38:28.912Z</time>
      </trkpt>
      <trkpt lat="44.72512" lon="3.81049">
        <ele>968.39916992188</ele>
        <time>2020-10-16T12:38:30.122Z</time>
      </trkpt>
      <trkpt lat="44.7252" lon="3.81049">
        <ele>968.23718261719</ele>
        <time>2020-10-16T12:38:31.334Z</time>
      </trkpt>
      <trkpt lat="44.72529" lon="3.8104">
        <ele>969.46594238281</ele>
        <time>2020-10-16T12:38:32.548Z</time>
      </trkpt>
      <trkpt lat="44.7254" lon="3.81029">
        <ele>970.58917236328</ele>
        <time>2020-10-16T12:38:33.765Z</time>
      </trkpt>
      <trkpt lat="44.72557" lon="3.8102">
        <ele>970.57537841797</ele>
        <time>2020-10-16T12:38:34.986Z</time>
      </trkpt>
      <trkpt lat="44.72578" lon="3.81014">
        <ele>969.90875244141</ele>
        <time>2020-10-16T12:38:36.211Z</time>
      </trkpt>
      <trkpt lat="44.72606" lon="3.81007">
        <ele>968.87713623047</ele>
        <time>2020-10-16T12:38:37.442Z</time>
      </trkpt>
      <trkpt lat="44.72622" lon="3.81003">
        <ele>968.49652099609</ele>
        <time>2020-10-16T12:38:38.676Z</time>
      </trkpt>
      <trkpt lat="44.72636" lon="3.81006">
        <ele>966.88470458984</ele>
        <time>2020-10-16T12:38:39.913Z</time>
      </trkpt>
      <trkpt lat="44.72663" lon="3.81006">
        <ele>965.16198730469</ele>
        <time>2020-10-16T12:38:41.155Z</time>
      </trkpt>
      <trkpt lat="44.72675" lon="3.81011">
        <ele>963.43096923828</ele>
        <time>2020-10-16T12:38:42.400Z</time>
      </trkpt>
      <trkpt lat="44.72694" lon="3.81008">
        <ele>962.84777832031</ele>
        <time>2020-10-16T12:38:43.648Z</time>
      </trkpt>
      <trkpt lat="44.72711" lon="3.80994">
        <ele>964.01684570312</ele>
        <time>2020-10-16T12:38:44.900Z</time>
      </trkpt>
      <trkpt lat="44.72738" lon="3.80972">
        <ele>965.45812988281</ele>
        <time>2020-10-16T12:38:46.158Z</time>
      </trkpt>
      <trkpt lat="44.72771" lon="3.80949">
        <ele>963.20745849609</ele>
        <time>2020-10-16T12:38:47.424Z</time>
      </trkpt>
      <trkpt lat="44.72827" lon="3.80916">
        <ele>960.86779785156</ele>
        <time>2020-10-16T12:38:48.702Z</time>
      </trkpt>
      <trkpt lat="44.7285" lon="3.809">
        <ele>959.90802001953</ele>
        <time>2020-10-16T12:38:49.985Z</time>
      </trkpt>
      <trkpt lat="44.72857" lon="3.80896">
        <ele>959.21923828125</ele>
        <time>2020-10-16T12:38:51.270Z</time>
      </trkpt>
      <trkpt lat="44.72896" lon="3.80876">
        <ele>957.70416259766</ele>
        <time>2020-10-16T12:38:52.563Z</time>
      </trkpt>
      <trkpt lat="44.72918" lon="3.80866">
        <ele>957.26708984375</ele>
        <time>2020-10-16T12:38:53.861Z</time>
      </trkpt>
      <trkpt lat="44.72941" lon="3.80855">
        <ele>956.74395751953</ele>
        <time>2020-10-16T12:38:55.163Z</time>
      </trkpt>
      <trkpt lat="44.72955" lon="3.80848">
        <ele>955.92169189453</ele>
        <time>2020-10-16T12:38:56.468Z</time>
      </trkpt>
      <trkpt lat="44.72968" lon="3.80845">
        <ele>954.99426269531</ele>
        <time>2020-10-16T12:38:57.776Z</time>
      </trkpt>
      <trkpt lat="44.72976" lon="3.80836">
        <ele>954.38305664062</ele>
        <time>2020-10-16T12:38:59.086Z</time>
      </trkpt>
      <trkpt lat="44.72979" lon="3.80835">
        <ele>954.15802001953</ele>
        <time>2020-10-16T12:39:00.397Z</time>
      </trkpt>
      <trkpt lat="44.72985" lon="3.80833">
        <ele>953.73663330078</ele>
        <time>2020-10-16T12:39:01.709Z</time>
      </trkpt>
      <trkpt lat="44.72996" lon="3.80822">
        <ele>953.00402832031</ele>
        <time>2020-10-16T12:39:03.024Z</time>
      </trkpt>
      <trkpt lat="44.73005" lon="3.80814">
        <ele>951.40277099609</ele>
        <time>2020-10-16T12:39:04.341Z</time>
      </trkpt>
      <trkpt lat="44.73011" lon="3.80798">
        <ele>948.97497558594</ele>
        <time>2020-10-16T12:39:05.660Z</time>
      </trkpt>
      <trkpt lat="44.7301" lon="3.80784">
        <ele>947.69873046875</ele>
        <time>2020-10-16T12:39:06.981Z</time>
      </trkpt>
      <trkpt lat="44.73005" lon="3.80776">
        <ele>947.92352294922</ele>
        <time>2020-10-16T12:39:08.304Z</time>
      </trkpt>
      <trkpt lat="44.72995" lon="3.80771">
        <ele>949.05596923828</ele>
        <time>2020-10-16T12:39:09.629Z</time>
      </trkpt>
      <trkpt lat="44.72985" lon="3.80768">
        <ele>950.45080566406</ele>
        <time>2020-10-16T12:39:10.956Z</time>
      </trkpt>
      <trkpt lat="44.72979" lon="3.80766">
        <ele>951.37091064453</ele>
        <time>2020-10-16T12:39:12.284Z</time>
      </trkpt>
      <trkpt lat="44.72975" lon="3.80757">
        <ele>951.33441162109</ele>
        <time>2020-10-16T12:39:13.614Z</time>
      </trkpt>
      <trkpt lat="44.72971" lon="3.80747">
        <ele>951.34191894531</ele>
        <time>2020-10-16T12:39:14.945Z</time>
      </trkpt>
      <trkpt lat="44.72964" lon="3.80745">
        <ele>952.38195800781</ele>
        <time>2020-10-16T12:39:16.278Z</time>
      </trkpt>
      <trkpt lat="44.72953" lon="3.80741">
        <ele>953.81170654297</ele>
        <time>2020-10-16T12:39:17.613Z</time>
      </trkpt>
      <trkpt lat="44.72947" lon="3.80743">
        <ele>954.38592529297</ele>
        <time>2020-10-16T12:39:18.949Z</time>
      </trkpt>
      <trkpt lat="44.72937" lon="3.80744">
        <ele>955.19946289062</ele>
        <time>2020-10-16T12:39:20.287Z</time>
      </trkpt>
      <trkpt lat="44.72928" lon="3.80738">
        <ele>955.40264892578</ele>
        <time>2020-10-16T12:39:21.627Z</time>
      </trkpt>
      <trkpt lat="44.72909" lon="3.80728">
        <ele>956.07489013672</ele>
        <time>2020-10-16T12:39:22.971Z</time>
      </trkpt>
      <trkpt lat="44.72897" lon="3.80716">
        <ele>956.10778808594</ele>
        <time>2020-10-16T12:39:24.318Z</time>
      </trkpt>
      <trkpt lat="44.72895" lon="3.80711">
        <ele>955.89630126953</ele>
        <time>2020-10-16T12:39:25.666Z</time>
      </trkpt>
      <trkpt lat="44.72892" lon="3.80709">
        <ele>955.89172363281</ele>
        <time>2020-10-16T12:39:27.015Z</time>
      </trkpt>
      <trkpt lat="44.72886" lon="3.80705">
        <ele>956.03778076172</ele>
        <time>2020-10-16T12:39:28.365Z</time>
      </trkpt>
      <trkpt lat="44.72879" lon="3.80701">
        <ele>956.21240234375</ele>
        <time>2020-10-16T12:39:29.717Z</time>
      </trkpt>
      <trkpt lat="44.72874" lon="3.80696">
        <ele>956.23077392578</ele>
        <time>2020-10-16T12:39:31.070Z</time>
      </trkpt>
      <trkpt lat="44.72873" lon="3.8069">
        <ele>955.94512939453</ele>
        <time>2020-10-16T12:39:32.424Z</time>
      </trkpt>
      <trkpt lat="44.72872" lon="3.80682">
        <ele>956.72454833984</ele>
        <time>2020-10-16T12:39:33.779Z</time>
      </trkpt>
      <trkpt lat="44.72873" lon="3.80675">
        <ele>957.58892822266</ele>
        <time>2020-10-16T12:39:35.135Z</time>
      </trkpt>
      <trkpt lat="44.72873" lon="3.80668">
        <ele>958.55163574219</ele>
        <time>2020-10-16T12:39:36.492Z</time>
      </trkpt>
      <trkpt lat="44.72877" lon="3.80661">
        <ele>959.17669677734</ele>
        <time>2020-10-16T12:39:37.850Z</time>
      </trkpt>
      <trkpt lat="44.72884" lon="3.80654">
        <ele>959.52716064453</ele>
        <time>2020-10-16T12:39:39.210Z</time>
      </trkpt>
      <trkpt lat="44.72893" lon="3.80645">
        <ele>960.06732177734</ele>
        <time>2020-10-16T12:39:40.572Z</time>
      </trkpt>
      <trkpt lat="44.72899" lon="3.80644">
        <ele>959.76434326172</ele>
        <time>2020-10-16T12:39:41.935Z</time>
      </trkpt>
      <trkpt lat="44.72908" lon="3.80644">
        <ele>959.21520996094</ele>
        <time>2020-10-16T12:39:43.300Z</time>
      </trkpt>
      <trkpt lat="44.72918" lon="3.80642">
        <ele>958.05645751953</ele>
        <time>2020-10-16T12:39:44.667Z</time>
      </trkpt>
      <trkpt lat="44.72921" lon="3.80639">
        <ele>957.84075927734</ele>
        <time>2020-10-16T12:39:46.035Z</time>
      </trkpt>
      <trkpt lat="44.72926" lon="3.80639">
        <ele>957.2578125</ele>
        <time>2020-10-16T12:39:47.404Z</time>
      </trkpt>
      <trkpt lat="44.72933" lon="3.80639">
        <ele>956.34539794922</ele>
        <time>2020-10-16T12:39:48.774Z</time>
      </trkpt>
      <trkpt lat="44.72937" lon="3.80639">
        <ele>955.77508544922</ele>
        <time>2020-10-16T12:39:50.145Z</time>
      </trkpt>
      <trkpt lat="44.72942" lon="3.80637">
        <ele>955.29333496094</ele>
        <time>2020-10-16T12:39:51.517Z</time>
      </trkpt>
      <trkpt lat="44.7295" lon="3.80633">
        <ele>954.53894042969</ele>
        <time>2020-10-16T12:39:52.891Z</time>
      </trkpt>
      <trkpt lat="44.72954" lon="3.80624">
        <ele>954.59600830078</ele>
        <time>2020-10-16T12:39:54.266Z</time>
      </trkpt>
      <trkpt lat="44.72954" lon="3.80611">
        <ele>955.5107421875</ele>
        <time>2020-10-16T12:39:55.643Z</time>
      </trkpt>
      <trkpt lat="44.72953" lon="3.80602">
        <ele>956.23083496094</ele>
        <time>2020-10-16T12:39:57.021Z</time>
      </trkpt>
      <trkpt lat="44.72948" lon="3.80594">
        <ele>956.92523193359</ele>
        <time>2020-10-16T12:39:58.401Z</time>
      </trkpt>
      <trkpt lat="44.72943" lon="3.80589">
        <ele>957.87860107422</ele>
        <time>2020-10-16T12:39:59.782Z</time>
      </trkpt>
      <trkpt lat="44.72936" lon="3.80582">
        <ele>958.958984375</ele>
        <time>2020-10-16T12:40:01.165Z</time>
      </trkpt>
      <trkpt lat="44.72934" lon="3.80578">
        <ele>959.30584716797</ele>
        <time>2020-10-16T12:40:02.549Z</time>
      </trkpt>
      <trkpt lat="44.7293" lon="3.80574">
        <ele>959.97308349609</ele>
        <time>2020-10-16T12:40:03.934Z</time>
      </trkpt>
      <trkpt lat="44.72923" lon="3.80568">
        <ele>961.11853027344</ele>
        <time>2020-10-16T12:40:05.320Z</time>
      </trkpt>
      <trkpt lat="44.72914" lon="3.80559">
        <ele>962.67614746094</ele>
        <time>2020-10-16T12:40:06.708Z</time>
      </trkpt>
      <trkpt lat="44.72907" lon="3.8054">
        <ele>963.93359375</ele>
        <time>2020-10-16T12:40:08.099Z</time>
      </trkpt>
      <trkpt lat="44.72898" lon="3.80523">
        <ele>965.38470458984</ele>
        <time>2020-10-16T12:40:09.494Z</time>
      </trkpt>
      <trkpt lat="44.72891" lon="3.80506">
        <ele>966.33258056641</ele>
        <time>2020-10-16T12:40:10.891Z</time>
      </trkpt>
      <trkpt lat="44.72883" lon="3.8048">
        <ele>967.36126708984</ele>
        <time>2020-10-16T12:40:12.292Z</time>
      </trkpt>
      <trkpt lat="44.7288" lon="3.80462">
        <ele>967.73205566406</ele>
        <time>2020-10-16T12:40:13.696Z</time>
      </trkpt>
      <trkpt lat="44.72879" lon="3.80442">
        <ele>967.74365234375</ele>
        <time>2020-10-16T12:40:15.103Z</time>
      </trkpt>
      <trkpt lat="44.72873" lon="3.80384">
        <ele>973.2255859375</ele>
        <time>2020-10-16T12:40:16.518Z</time>
      </trkpt>
      <trkpt lat="44.72875" lon="3.80373">
        <ele>973.83416748047</ele>
        <time>2020-10-16T12:40:17.935Z</time>
      </trkpt>
      <trkpt lat="44.7288" lon="3.80366">
        <ele>973.49713134766</ele>
        <time>2020-10-16T12:40:19.353Z</time>
      </trkpt>
      <trkpt lat="44.72892" lon="3.80364">
        <ele>971.32855224609</ele>
        <time>2020-10-16T12:40:20.774Z</time>
      </trkpt>
      <trkpt lat="44.72901" lon="3.80365">
        <ele>969.38238525391</ele>
        <time>2020-10-16T12:40:22.196Z</time>
      </trkpt>
      <trkpt lat="44.72922" lon="3.80371">
        <ele>964.87280273438</ele>
        <time>2020-10-16T12:40:23.623Z</time>
      </trkpt>
      <trkpt lat="44.7293" lon="3.80374">
        <ele>963.25170898438</ele>
        <time>2020-10-16T12:40:25.051Z</time>
      </trkpt>
      <trkpt lat="44.7294" lon="3.80379">
        <ele>960.93341064453</ele>
        <time>2020-10-16T12:40:26.482Z</time>
      </trkpt>
      <trkpt lat="44.72951" lon="3.8039">
        <ele>958.24700927734</ele>
        <time>2020-10-16T12:40:27.915Z</time>
      </trkpt>
      <trkpt lat="44.72958" lon="3.80399">
        <ele>957.65277099609</ele>
        <time>2020-10-16T12:40:29.350Z</time>
      </trkpt>
      <trkpt lat="44.72963" lon="3.80405">
        <ele>957.74139404297</ele>
        <time>2020-10-16T12:40:30.786Z</time>
      </trkpt>
      <trkpt lat="44.72968" lon="3.80409">
        <ele>957.93530273438</ele>
        <time>2020-10-16T12:40:32.224Z</time>
      </trkpt>
      <trkpt lat="44.72976" lon="3.80414">
        <ele>958.21496582031</ele>
        <time>2020-10-16T12:40:33.663Z</time>
      </trkpt>
      <trkpt lat="44.72984" lon="3.8042">
        <ele>958.44427490234</ele>
        <time>2020-10-16T12:40:35.104Z</time>
      </trkpt>
      <trkpt lat="44.72994" lon="3.80438">
        <ele>958.43304443359</ele>
        <time>2020-10-16T12:40:36.548Z</time>
      </trkpt>
      <trkpt lat="44.73" lon="3.80447">
        <ele>957.96301269531</ele>
        <time>2020-10-16T12:40:37.994Z</time>
      </trkpt>
      <trkpt lat="44.7301" lon="3.80465">
        <ele>956.82037353516</ele>
        <time>2020-10-16T12:40:39.443Z</time>
      </trkpt>
      <trkpt lat="44.73038" lon="3.80503">
        <ele>954.85980224609</ele>
        <time>2020-10-16T12:40:40.900Z</time>
      </trkpt>
      <trkpt lat="44.73053" lon="3.80521">
        <ele>954.70562744141</ele>
        <time>2020-10-16T12:40:42.361Z</time>
      </trkpt>
      <trkpt lat="44.73066" lon="3.80525">
        <ele>955.66229248047</ele>
        <time>2020-10-16T12:40:43.825Z</time>
      </trkpt>
      <trkpt lat="44.73083" lon="3.80534">
        <ele>956.28546142578</ele>
        <time>2020-10-16T12:40:45.292Z</time>
      </trkpt>
      <trkpt lat="44.73089" lon="3.80545">
        <ele>955.57342529297</ele>
        <time>2020-10-16T12:40:46.761Z</time>
      </trkpt>
      <trkpt lat="44.73092" lon="3.80558">
        <ele>954.06671142578</ele>
        <time>2020-10-16T12:40:48.232Z</time>
      </trkpt>
      <trkpt lat="44.73092" lon="3.80568">
        <ele>952.71313476562</ele>
        <time>2020-10-16T12:40:49.705Z</time>
      </trkpt>
      <trkpt lat="44.73091" lon="3.80577">
        <ele>951.46112060547</ele>
        <time>2020-10-16T12:40:51.179Z</time>
      </trkpt>
      <trkpt lat="44.73091" lon="3.80584">
        <ele>950.54327392578</ele>
        <time>2020-10-16T12:40:52.654Z</time>
      </trkpt>
      <trkpt lat="44.73095" lon="3.80594">
        <ele>949.70544433594</ele>
        <time>2020-10-16T12:40:54.131Z</time>
      </trkpt>
      <trkpt lat="44.73101" lon="3.806">
        <ele>949.60711669922</ele>
        <time>2020-10-16T12:40:55.609Z</time>
      </trkpt>
      <trkpt lat="44.73109" lon="3.80602">
        <ele>950.13677978516</ele>
        <time>2020-10-16T12:40:57.089Z</time>
      </trkpt>
      <trkpt lat="44.73121" lon="3.80609">
        <ele>950.70220947266</ele>
        <time>2020-10-16T12:40:58.571Z</time>
      </trkpt>
      <trkpt lat="44.7314" lon="3.80624">
        <ele>951.72235107422</ele>
        <time>2020-10-16T12:41:00.058Z</time>
      </trkpt>
      <trkpt lat="44.73154" lon="3.80632">
        <ele>952.49127197266</ele>
        <time>2020-10-16T12:41:01.548Z</time>
      </trkpt>
      <trkpt lat="44.73175" lon="3.80645">
        <ele>953.67712402344</ele>
        <time>2020-10-16T12:41:03.042Z</time>
      </trkpt>
      <trkpt lat="44.73192" lon="3.80657">
        <ele>954.51812744141</ele>
        <time>2020-10-16T12:41:04.540Z</time>
      </trkpt>
      <trkpt lat="44.73211" lon="3.80671">
        <ele>954.40850830078</ele>
        <time>2020-10-16T12:41:06.043Z</time>
      </trkpt>
      <trkpt lat="44.73221" lon="3.80678">
        <ele>953.49151611328</ele>
        <time>2020-10-16T12:41:07.548Z</time>
      </trkpt>
      <trkpt lat="44.73221" lon="3.80661">
        <ele>954.28625488281</ele>
        <time>2020-10-16T12:41:09.055Z</time>
      </trkpt>
      <trkpt lat="44.7322" lon="3.8064">
        <ele>955.35931396484</ele>
        <time>2020-10-16T12:41:10.565Z</time>
      </trkpt>
      <trkpt lat="44.73219" lon="3.80624">
        <ele>956.24176025391</ele>
        <time>2020-10-16T12:41:12.078Z</time>
      </trkpt>
      <trkpt lat="44.73218" lon="3.80607">
        <ele>957.37573242188</ele>
        <time>2020-10-16T12:41:13.593Z</time>
      </trkpt>
      <trkpt lat="44.73211" lon="3.80576">
        <ele>960.22845458984</ele>
        <time>2020-10-16T12:41:15.113Z</time>
      </trkpt>
      <trkpt lat="44.73205" lon="3.80552">
        <ele>962.42596435547</ele>
        <time>2020-10-16T12:41:16.636Z</time>
      </trkpt>
      <trkpt lat="44.73203" lon="3.80537">
        <ele>963.67041015625</ele>
        <time>2020-10-16T12:41:18.161Z</time>
      </trkpt>
      <trkpt lat="44.73198" lon="3.80519">
        <ele>965.16912841797</ele>
        <time>2020-10-16T12:41:19.689Z</time>
      </trkpt>
      <trkpt lat="44.73194" lon="3.80507">
        <ele>966.50518798828</ele>
        <time>2020-10-16T12:41:21.219Z</time>
      </trkpt>
      <trkpt lat="44.73191" lon="3.80495">
        <ele>967.54058837891</ele>
        <time>2020-10-16T12:41:22.751Z</time>
      </trkpt>
      <trkpt lat="44.73189" lon="3.80487">
        <ele>968.29278564453</ele>
        <time>2020-10-16T12:41:24.284Z</time>
      </trkpt>
      <trkpt lat="44.73187" lon="3.8048">
        <ele>968.89611816406</ele>
        <time>2020-10-16T12:41:25.818Z</time>
      </trkpt>
      <trkpt lat="44.73186" lon="3.80473">
        <ele>969.53942871094</ele>
        <time>2020-10-16T12:41:27.353Z</time>
      </trkpt>
      <trkpt lat="44.73183" lon="3.80465">
        <ele>970.30120849609</ele>
        <time>2020-10-16T12:41:28.889Z</time>
      </trkpt>
      <trkpt lat="44.73181" lon="3.80453">
        <ele>971.37182617188</ele>
        <time>2020-10-16T12:41:30.427Z</time>
      </trkpt>
      <trkpt lat="44.73178" lon="3.80431">
        <ele>973.62750244141</ele>
        <time>2020-10-16T12:41:31.968Z</time>
      </trkpt>
      <trkpt lat="44.73176" lon="3.8041">
        <ele>976.76324462891</ele>
        <time>2020-10-16T12:41:33.512Z</time>
      </trkpt>
      <trkpt lat="44.73175" lon="3.804">
        <ele>977.73779296875</ele>
        <time>2020-10-16T12:41:35.058Z</time>
      </trkpt>
      <trkpt lat="44.73173" lon="3.80389">
        <ele>978.98645019531</ele>
        <time>2020-10-16T12:41:36.605Z</time>
      </trkpt>
      <trkpt lat="44.73171" lon="3.80372">
        <ele>980.80383300781</ele>
        <time>2020-10-16T12:41:38.155Z</time>
      </trkpt>
      <trkpt lat="44.73169" lon="3.80359">
        <ele>982.14300537109</ele>
        <time>2020-10-16T12:41:39.707Z</time>
      </trkpt>
      <trkpt lat="44.73167" lon="3.80349">
        <ele>983.1875</ele>
        <time>2020-10-16T12:41:41.260Z</time>
      </trkpt>
      <trkpt lat="44.73163" lon="3.80345">
        <ele>983.9033203125</ele>
        <time>2020-10-16T12:41:42.814Z</time>
      </trkpt>
      <trkpt lat="44.73158" lon="3.80338">
        <ele>984.90472412109</ele>
        <time>2020-10-16T12:41:44.370Z</time>
      </trkpt>
      <trkpt lat="44.73156" lon="3.80333">
        <ele>985.52941894531</ele>
        <time>2020-10-16T12:41:45.926Z</time>
      </trkpt>
      <trkpt lat="44.73156" lon="3.80327">
        <ele>986.16735839844</ele>
        <time>2020-10-16T12:41:47.483Z</time>
      </trkpt>
      <trkpt lat="44.73157" lon="3.8032">
        <ele>986.79138183594</ele>
        <time>2020-10-16T12:41:49.041Z</time>
      </trkpt>
      <trkpt lat="44.73158" lon="3.8031">
        <ele>987.64013671875</ele>
        <time>2020-10-16T12:41:50.601Z</time>
      </trkpt>
      <trkpt lat="44.73161" lon="3.803">
        <ele>988.33276367188</ele>
        <time>2020-10-16T12:41:52.162Z</time>
      </trkpt>
      <trkpt lat="44.73163" lon="3.80296">
        <ele>988.62921142578</ele>
        <time>2020-10-16T12:41:53.724Z</time>
      </trkpt>
      <trkpt lat="44.73163" lon="3.8029">
        <ele>989.17663574219</ele>
        <time>2020-10-16T12:41:55.287Z</time>
      </trkpt>
      <trkpt lat="44.73164" lon="3.80283">
        <ele>989.75384521484</ele>
        <time>2020-10-16T12:41:56.851Z</time>
      </trkpt>
      <trkpt lat="44.73166" lon="3.80264">
        <ele>991.23876953125</ele>
        <time>2020-10-16T12:41:58.418Z</time>
      </trkpt>
      <trkpt lat="44.73164" lon="3.8025">
        <ele>992.20220947266</ele>
        <time>2020-10-16T12:41:59.987Z</time>
      </trkpt>
      <trkpt lat="44.73163" lon="3.80239">
        <ele>992.89361572266</ele>
        <time>2020-10-16T12:42:01.557Z</time>
      </trkpt>
      <trkpt lat="44.73161" lon="3.80225">
        <ele>993.91625976562</ele>
        <time>2020-10-16T12:42:03.129Z</time>
      </trkpt>
      <trkpt lat="44.73161" lon="3.80216">
        <ele>994.55908203125</ele>
        <time>2020-10-16T12:42:04.702Z</time>
      </trkpt>
      <trkpt lat="44.73161" lon="3.80208">
        <ele>995.14453125</ele>
        <time>2020-10-16T12:42:06.277Z</time>
      </trkpt>
      <trkpt lat="44.73159" lon="3.80204">
        <ele>995.60925292969</ele>
        <time>2020-10-16T12:42:07.852Z</time>
      </trkpt>
      <trkpt lat="44.73154" lon="3.80199">
        <ele>996.21343994141</ele>
        <time>2020-10-16T12:42:09.428Z</time>
      </trkpt>
      <trkpt lat="44.7315" lon="3.80191">
        <ele>997.01983642578</ele>
        <time>2020-10-16T12:42:11.006Z</time>
      </trkpt>
      <trkpt lat="44.73147" lon="3.80182">
        <ele>997.63879394531</ele>
        <time>2020-10-16T12:42:12.585Z</time>
      </trkpt>
      <trkpt lat="44.73147" lon="3.80171">
        <ele>998.03057861328</ele>
        <time>2020-10-16T12:42:14.166Z</time>
      </trkpt>
      <trkpt lat="44.73146" lon="3.80161">
        <ele>998.47045898438</ele>
        <time>2020-10-16T12:42:15.748Z</time>
      </trkpt>
      <trkpt lat="44.73145" lon="3.80152">
        <ele>998.86486816406</ele>
        <time>2020-10-16T12:42:17.332Z</time>
      </trkpt>
      <trkpt lat="44.73142" lon="3.80147">
        <ele>999.22991943359</ele>
        <time>2020-10-16T12:42:18.917Z</time>
      </trkpt>
      <trkpt lat="44.73141" lon="3.80138">
        <ele>999.59924316406</ele>
        <time>2020-10-16T12:42:20.503Z</time>
      </trkpt>
      <trkpt lat="44.73139" lon="3.80126">
        <ele>1000.1402587891</ele>
        <time>2020-10-16T12:42:22.091Z</time>
      </trkpt>
      <trkpt lat="44.73135" lon="3.80119">
        <ele>1000.6732177734</ele>
        <time>2020-10-16T12:42:23.680Z</time>
      </trkpt>
      <trkpt lat="44.73129" lon="3.80114">
        <ele>1001.1732177734</ele>
        <time>2020-10-16T12:42:25.270Z</time>
      </trkpt>
      <trkpt lat="44.73125" lon="3.80105">
        <ele>1001.8289794922</ele>
        <time>2020-10-16T12:42:26.862Z</time>
      </trkpt>
      <trkpt lat="44.73123" lon="3.80098">
        <ele>1001.9901123047</ele>
        <time>2020-10-16T12:42:28.455Z</time>
      </trkpt>
      <trkpt lat="44.73125" lon="3.80087">
        <ele>1002.063659668</ele>
        <time>2020-10-16T12:42:30.049Z</time>
      </trkpt>
      <trkpt lat="44.73126" lon="3.80079">
        <ele>1002.1120605469</ele>
        <time>2020-10-16T12:42:31.645Z</time>
      </trkpt>
      <trkpt lat="44.7313" lon="3.8007">
        <ele>1002.098449707</ele>
        <time>2020-10-16T12:42:33.242Z</time>
      </trkpt>
      <trkpt lat="44.73132" lon="3.80063">
        <ele>1002.1111450195</ele>
        <time>2020-10-16T12:42:34.840Z</time>
      </trkpt>
      <trkpt lat="44.73134" lon="3.80056">
        <ele>1002.0861816406</ele>
        <time>2020-10-16T12:42:36.439Z</time>
      </trkpt>
      <trkpt lat="44.73136" lon="3.80049">
        <ele>1002.1195678711</ele>
        <time>2020-10-16T12:42:38.039Z</time>
      </trkpt>
      <trkpt lat="44.73136" lon="3.80042">
        <ele>1002.204284668</ele>
        <time>2020-10-16T12:42:39.640Z</time>
      </trkpt>
      <trkpt lat="44.73135" lon="3.80035">
        <ele>1002.3721923828</ele>
        <time>2020-10-16T12:42:41.242Z</time>
      </trkpt>
      <trkpt lat="44.73132" lon="3.80028">
        <ele>1002.7536010742</ele>
        <time>2020-10-16T12:42:42.845Z</time>
      </trkpt>
      <trkpt lat="44.73127" lon="3.80018">
        <ele>1003.1532592773</ele>
        <time>2020-10-16T12:42:44.450Z</time>
      </trkpt>
      <trkpt lat="44.73124" lon="3.80005">
        <ele>1003.4482421875</ele>
        <time>2020-10-16T12:42:46.057Z</time>
      </trkpt>
      <trkpt lat="44.7312" lon="3.79992">
        <ele>1003.5021972656</ele>
        <time>2020-10-16T12:42:47.666Z</time>
      </trkpt>
      <trkpt lat="44.73117" lon="3.79984">
        <ele>1003.2242431641</ele>
        <time>2020-10-16T12:42:49.276Z</time>
      </trkpt>
      <trkpt lat="44.73117" lon="3.79973">
        <ele>1003.486328125</ele>
        <time>2020-10-16T12:42:50.888Z</time>
      </trkpt>
      <trkpt lat="44.73118" lon="3.79961">
        <ele>1003.8807983398</ele>
        <time>2020-10-16T12:42:52.502Z</time>
      </trkpt>
      <trkpt lat="44.73117" lon="3.79954">
        <ele>1003.9612426758</ele>
        <time>2020-10-16T12:42:54.117Z</time>
      </trkpt>
      <trkpt lat="44.73115" lon="3.79944">
        <ele>1003.7970581055</ele>
        <time>2020-10-16T12:42:55.733Z</time>
      </trkpt>
      <trkpt lat="44.73114" lon="3.79934">
        <ele>1003.9213256836</ele>
        <time>2020-10-16T12:42:57.351Z</time>
      </trkpt>
      <trkpt lat="44.73114" lon="3.79925">
        <ele>1004.0326538086</ele>
        <time>2020-10-16T12:42:58.970Z</time>
      </trkpt>
      <trkpt lat="44.73112" lon="3.79913">
        <ele>1003.8717651367</ele>
        <time>2020-10-16T12:43:00.591Z</time>
      </trkpt>
      <trkpt lat="44.73109" lon="3.79898">
        <ele>1003.5863647461</ele>
        <time>2020-10-16T12:43:02.214Z</time>
      </trkpt>
      <trkpt lat="44.73109" lon="3.79886">
        <ele>1003.6564331055</ele>
        <time>2020-10-16T12:43:03.839Z</time>
      </trkpt>
      <trkpt lat="44.73111" lon="3.79881">
        <ele>1004.0432739258</ele>
        <time>2020-10-16T12:43:05.465Z</time>
      </trkpt>
      <trkpt lat="44.73113" lon="3.79878">
        <ele>1004.4658203125</ele>
        <time>2020-10-16T12:43:07.091Z</time>
      </trkpt>
      <trkpt lat="44.73117" lon="3.79874">
        <ele>1005.2576904297</ele>
        <time>2020-10-16T12:43:08.718Z</time>
      </trkpt>
      <trkpt lat="44.73121" lon="3.79868">
        <ele>1005.8548583984</ele>
        <time>2020-10-16T12:43:10.346Z</time>
      </trkpt>
      <trkpt lat="44.73123" lon="3.79864">
        <ele>1006.0186767578</ele>
        <time>2020-10-16T12:43:11.975Z</time>
      </trkpt>
      <trkpt lat="44.73127" lon="3.79856">
        <ele>1006.5646972656</ele>
        <time>2020-10-16T12:43:13.605Z</time>
      </trkpt>
      <trkpt lat="44.73127" lon="3.7985">
        <ele>1007.0771484375</ele>
        <time>2020-10-16T12:43:15.236Z</time>
      </trkpt>
      <trkpt lat="44.73126" lon="3.79844">
        <ele>1007.400390625</ele>
        <time>2020-10-16T12:43:16.868Z</time>
      </trkpt>
      <trkpt lat="44.73124" lon="3.79837">
        <ele>1007.7227172852</ele>
        <time>2020-10-16T12:43:18.501Z</time>
      </trkpt>
      <trkpt lat="44.73123" lon="3.79825">
        <ele>1008.4562988281</ele>
        <time>2020-10-16T12:43:20.136Z</time>
      </trkpt>
      <trkpt lat="44.73122" lon="3.79816">
        <ele>1008.997253418</ele>
        <time>2020-10-16T12:43:21.772Z</time>
      </trkpt>
      <trkpt lat="44.7312" lon="3.79803">
        <ele>1009.7029418945</ele>
        <time>2020-10-16T12:43:23.410Z</time>
      </trkpt>
      <trkpt lat="44.73116" lon="3.79794">
        <ele>1009.8063964844</ele>
        <time>2020-10-16T12:43:25.050Z</time>
      </trkpt>
      <trkpt lat="44.73111" lon="3.79782">
        <ele>1009.9025878906</ele>
        <time>2020-10-16T12:43:26.692Z</time>
      </trkpt>
      <trkpt lat="44.73108" lon="3.79775">
        <ele>1009.9275512695</ele>
        <time>2020-10-16T12:43:28.335Z</time>
      </trkpt>
      <trkpt lat="44.73105" lon="3.79768">
        <ele>1009.8344116211</ele>
        <time>2020-10-16T12:43:29.979Z</time>
      </trkpt>
      <trkpt lat="44.73105" lon="3.79756">
        <ele>1010.3363647461</ele>
        <time>2020-10-16T12:43:31.625Z</time>
      </trkpt>
      <trkpt lat="44.73105" lon="3.79737">
        <ele>1011.7809448242</ele>
        <time>2020-10-16T12:43:33.273Z</time>
      </trkpt>
      <trkpt lat="44.73106" lon="3.79721">
        <ele>1012.9853515625</ele>
        <time>2020-10-16T12:43:34.924Z</time>
      </trkpt>
      <trkpt lat="44.73108" lon="3.79707">
        <ele>1014.3305053711</ele>
        <time>2020-10-16T12:43:36.577Z</time>
      </trkpt>
      <trkpt lat="44.7311" lon="3.79698">
        <ele>1015.3375854492</ele>
        <time>2020-10-16T12:43:38.231Z</time>
      </trkpt>
      <trkpt lat="44.73108" lon="3.79682">
        <ele>1015.9281005859</ele>
        <time>2020-10-16T12:43:39.887Z</time>
      </trkpt>
      <trkpt lat="44.73104" lon="3.79669">
        <ele>1015.4296264648</ele>
        <time>2020-10-16T12:43:41.545Z</time>
      </trkpt>
      <trkpt lat="44.731" lon="3.7965">
        <ele>1014.8267822266</ele>
        <time>2020-10-16T12:43:43.206Z</time>
      </trkpt>
      <trkpt lat="44.73097" lon="3.79636">
        <ele>1014.3076782227</ele>
        <time>2020-10-16T12:43:44.869Z</time>
      </trkpt>
      <trkpt lat="44.73097" lon="3.79624">
        <ele>1014.3508911133</ele>
        <time>2020-10-16T12:43:46.534Z</time>
      </trkpt>
      <trkpt lat="44.73097" lon="3.79612">
        <ele>1014.3634643555</ele>
        <time>2020-10-16T12:43:48.201Z</time>
      </trkpt>
      <trkpt lat="44.73097" lon="3.79595">
        <ele>1014.842956543</ele>
        <time>2020-10-16T12:43:49.870Z</time>
      </trkpt>
      <trkpt lat="44.73097" lon="3.79582">
        <ele>1015.3876953125</ele>
        <time>2020-10-16T12:43:51.541Z</time>
      </trkpt>
      <trkpt lat="44.73095" lon="3.79571">
        <ele>1015.4834594727</ele>
        <time>2020-10-16T12:43:53.214Z</time>
      </trkpt>
      <trkpt lat="44.73094" lon="3.79563">
        <ele>1015.4577026367</ele>
        <time>2020-10-16T12:43:54.888Z</time>
      </trkpt>
      <trkpt lat="44.73092" lon="3.79551">
        <ele>1015.4869384766</ele>
        <time>2020-10-16T12:43:56.563Z</time>
      </trkpt>
      <trkpt lat="44.73091" lon="3.79538">
        <ele>1015.6447143555</ele>
        <time>2020-10-16T12:43:58.240Z</time>
      </trkpt>
      <trkpt lat="44.73088" lon="3.79529">
        <ele>1015.4885253906</ele>
        <time>2020-10-16T12:43:59.919Z</time>
      </trkpt>
      <trkpt lat="44.73087" lon="3.79516">
        <ele>1016.1101074219</ele>
        <time>2020-10-16T12:44:01.600Z</time>
      </trkpt>
      <trkpt lat="44.73086" lon="3.79498">
        <ele>1017.9658813477</ele>
        <time>2020-10-16T12:44:03.283Z</time>
      </trkpt>
      <trkpt lat="44.73083" lon="3.79472">
        <ele>1019.979309082</ele>
        <time>2020-10-16T12:44:04.970Z</time>
      </trkpt>
      <trkpt lat="44.73075" lon="3.79429">
        <ele>1022.8854980469</ele>
        <time>2020-10-16T12:44:06.663Z</time>
      </trkpt>
      <trkpt lat="44.73071" lon="3.7941">
        <ele>1025.3088378906</ele>
        <time>2020-10-16T12:44:08.359Z</time>
      </trkpt>
      <trkpt lat="44.73068" lon="3.79402">
        <ele>1026.2004394531</ele>
        <time>2020-10-16T12:44:10.056Z</time>
      </trkpt>
      <trkpt lat="44.73066" lon="3.79399">
        <ele>1026.4676513672</ele>
        <time>2020-10-16T12:44:11.754Z</time>
      </trkpt>
      <trkpt lat="44.73064" lon="3.79388">
        <ele>1027.8948974609</ele>
        <time>2020-10-16T12:44:13.454Z</time>
      </trkpt>
      <trkpt lat="44.73066" lon="3.79375">
        <ele>1028.7193603516</ele>
        <time>2020-10-16T12:44:15.155Z</time>
      </trkpt>
      <trkpt lat="44.7307" lon="3.79356">
        <ele>1028.7937011719</ele>
        <time>2020-10-16T12:44:16.859Z</time>
      </trkpt>
      <trkpt lat="44.73073" lon="3.79343">
        <ele>1029.5831298828</ele>
        <time>2020-10-16T12:44:18.565Z</time>
      </trkpt>
      <trkpt lat="44.73078" lon="3.79327">
        <ele>1030.5472412109</ele>
        <time>2020-10-16T12:44:20.274Z</time>
      </trkpt>
      <trkpt lat="44.73083" lon="3.79313">
        <ele>1031.0350341797</ele>
        <time>2020-10-16T12:44:21.985Z</time>
      </trkpt>
      <trkpt lat="44.73086" lon="3.79302">
        <ele>1030.779296875</ele>
        <time>2020-10-16T12:44:23.698Z</time>
      </trkpt>
      <trkpt lat="44.73089" lon="3.7929">
        <ele>1030.4201660156</ele>
        <time>2020-10-16T12:44:25.413Z</time>
      </trkpt>
      <trkpt lat="44.73091" lon="3.79278">
        <ele>1030.1435546875</ele>
        <time>2020-10-16T12:44:27.129Z</time>
      </trkpt>
      <trkpt lat="44.73095" lon="3.79267">
        <ele>1030.1857910156</ele>
        <time>2020-10-16T12:44:28.847Z</time>
      </trkpt>
      <trkpt lat="44.73098" lon="3.79258">
        <ele>1030.6877441406</ele>
        <time>2020-10-16T12:44:30.566Z</time>
      </trkpt>
      <trkpt lat="44.731" lon="3.79247">
        <ele>1031.4564208984</ele>
        <time>2020-10-16T12:44:32.287Z</time>
      </trkpt>
      <trkpt lat="44.73102" lon="3.79234">
        <ele>1032.3375244141</ele>
        <time>2020-10-16T12:44:34.010Z</time>
      </trkpt>
      <trkpt lat="44.73104" lon="3.79224">
        <ele>1032.9963378906</ele>
        <time>2020-10-16T12:44:35.734Z</time>
      </trkpt>
      <trkpt lat="44.73107" lon="3.79209">
        <ele>1033.8953857422</ele>
        <time>2020-10-16T12:44:37.461Z</time>
      </trkpt>
      <trkpt lat="44.73111" lon="3.79193">
        <ele>1034.7446289062</ele>
        <time>2020-10-16T12:44:39.190Z</time>
      </trkpt>
      <trkpt lat="44.73115" lon="3.79175">
        <ele>1035.6934814453</ele>
        <time>2020-10-16T12:44:40.922Z</time>
      </trkpt>
      <trkpt lat="44.73116" lon="3.79162">
        <ele>1036.6549072266</ele>
        <time>2020-10-16T12:44:42.656Z</time>
      </trkpt>
      <trkpt lat="44.73116" lon="3.79155">
        <ele>1037.2376708984</ele>
        <time>2020-10-16T12:44:44.391Z</time>
      </trkpt>
      <trkpt lat="44.73116" lon="3.79142">
        <ele>1038.2843017578</ele>
        <time>2020-10-16T12:44:46.127Z</time>
      </trkpt>
      <trkpt lat="44.73117" lon="3.79126">
        <ele>1039.5424804688</ele>
        <time>2020-10-16T12:44:47.866Z</time>
      </trkpt>
      <trkpt lat="44.73119" lon="3.79107">
        <ele>1041.0422363281</ele>
        <time>2020-10-16T12:44:49.608Z</time>
      </trkpt>
      <trkpt lat="44.73117" lon="3.79087">
        <ele>1040.8424072266</ele>
        <time>2020-10-16T12:44:51.352Z</time>
      </trkpt>
      <trkpt lat="44.73115" lon="3.79069">
        <ele>1040.5621337891</ele>
        <time>2020-10-16T12:44:53.099Z</time>
      </trkpt>
      <trkpt lat="44.73114" lon="3.7906">
        <ele>1040.3349609375</ele>
        <time>2020-10-16T12:44:54.847Z</time>
      </trkpt>
      <trkpt lat="44.73116" lon="3.79048">
        <ele>1039.6708984375</ele>
        <time>2020-10-16T12:44:56.597Z</time>
      </trkpt>
      <trkpt lat="44.73118" lon="3.79039">
        <ele>1039.0709228516</ele>
        <time>2020-10-16T12:44:58.348Z</time>
      </trkpt>
      <trkpt lat="44.73118" lon="3.79029">
        <ele>1038.6402587891</ele>
        <time>2020-10-16T12:45:00.101Z</time>
      </trkpt>
      <trkpt lat="44.73118" lon="3.79016">
        <ele>1038.2741699219</ele>
        <time>2020-10-16T12:45:01.856Z</time>
      </trkpt>
      <trkpt lat="44.73117" lon="3.79004">
        <ele>1038.1762695312</ele>
        <time>2020-10-16T12:45:03.612Z</time>
      </trkpt>
      <trkpt lat="44.73116" lon="3.7899">
        <ele>1038.0816650391</ele>
        <time>2020-10-16T12:45:05.370Z</time>
      </trkpt>
      <trkpt lat="44.73112" lon="3.78977">
        <ele>1038.2879638672</ele>
        <time>2020-10-16T12:45:07.130Z</time>
      </trkpt>
      <trkpt lat="44.73108" lon="3.78957">
        <ele>1038.5747070312</ele>
        <time>2020-10-16T12:45:08.893Z</time>
      </trkpt>
      <trkpt lat="44.73105" lon="3.78941">
        <ele>1038.7590332031</ele>
        <time>2020-10-16T12:45:10.659Z</time>
      </trkpt>
      <trkpt lat="44.73103" lon="3.78921">
        <ele>1039.2230224609</ele>
        <time>2020-10-16T12:45:12.428Z</time>
      </trkpt>
      <trkpt lat="44.73103" lon="3.78894">
        <ele>1039.8387451172</ele>
        <time>2020-10-16T12:45:14.200Z</time>
      </trkpt>
      <trkpt lat="44.73103" lon="3.78881">
        <ele>1040.0727539062</ele>
        <time>2020-10-16T12:45:15.974Z</time>
      </trkpt>
      <trkpt lat="44.73108" lon="3.78864">
        <ele>1039.7731933594</ele>
        <time>2020-10-16T12:45:17.751Z</time>
      </trkpt>
      <trkpt lat="44.73111" lon="3.78852">
        <ele>1039.5411376953</ele>
        <time>2020-10-16T12:45:19.530Z</time>
      </trkpt>
      <trkpt lat="44.7312" lon="3.78832">
        <ele>1039.9934082031</ele>
        <time>2020-10-16T12:45:21.312Z</time>
      </trkpt>
      <trkpt lat="44.73125" lon="3.78819">
        <ele>1040.7492675781</ele>
        <time>2020-10-16T12:45:23.096Z</time>
      </trkpt>
      <trkpt lat="44.73129" lon="3.78806">
        <ele>1041.6330566406</ele>
        <time>2020-10-16T12:45:24.882Z</time>
      </trkpt>
      <trkpt lat="44.73134" lon="3.78778">
        <ele>1043.3581542969</ele>
        <time>2020-10-16T12:45:26.672Z</time>
      </trkpt>
      <trkpt lat="44.73144" lon="3.78731">
        <ele>1043.7554931641</ele>
        <time>2020-10-16T12:45:28.469Z</time>
      </trkpt>
      <trkpt lat="44.7315" lon="3.787">
        <ele>1044.9350585938</ele>
        <time>2020-10-16T12:45:30.271Z</time>
      </trkpt>
      <trkpt lat="44.73154" lon="3.78683">
        <ele>1045.8634033203</ele>
        <time>2020-10-16T12:45:32.075Z</time>
      </trkpt>
      <trkpt lat="44.73158" lon="3.78648">
        <ele>1046.1568603516</ele>
        <time>2020-10-16T12:45:33.884Z</time>
      </trkpt>
      <trkpt lat="44.73162" lon="3.7862">
        <ele>1046.0258789062</ele>
        <time>2020-10-16T12:45:35.697Z</time>
      </trkpt>
      <trkpt lat="44.73168" lon="3.78587">
        <ele>1046.3701171875</ele>
        <time>2020-10-16T12:45:37.515Z</time>
      </trkpt>
      <trkpt lat="44.73173" lon="3.78556">
        <ele>1046.5629882812</ele>
        <time>2020-10-16T12:45:39.338Z</time>
      </trkpt>
      <trkpt lat="44.73178" lon="3.78536">
        <ele>1046.1989746094</ele>
        <time>2020-10-16T12:45:41.164Z</time>
      </trkpt>
      <trkpt lat="44.7318" lon="3.78519">
        <ele>1045.9616699219</ele>
        <time>2020-10-16T12:45:42.992Z</time>
      </trkpt>
      <trkpt lat="44.73183" lon="3.78496">
        <ele>1045.1831054688</ele>
        <time>2020-10-16T12:45:44.824Z</time>
      </trkpt>
      <trkpt lat="44.73185" lon="3.78472">
        <ele>1044.7486572266</ele>
        <time>2020-10-16T12:45:46.659Z</time>
      </trkpt>
      <trkpt lat="44.73186" lon="3.7846">
        <ele>1044.5775146484</ele>
        <time>2020-10-16T12:45:48.496Z</time>
      </trkpt>
      <trkpt lat="44.7318" lon="3.78444">
        <ele>1044.7670898438</ele>
        <time>2020-10-16T12:45:50.335Z</time>
      </trkpt>
      <trkpt lat="44.73178" lon="3.78428">
        <ele>1044.5487060547</ele>
        <time>2020-10-16T12:45:52.177Z</time>
      </trkpt>
      <trkpt lat="44.73179" lon="3.78418">
        <ele>1044.0494384766</ele>
        <time>2020-10-16T12:45:54.020Z</time>
      </trkpt>
      <trkpt lat="44.73181" lon="3.78409">
        <ele>1043.7657470703</ele>
        <time>2020-10-16T12:45:55.865Z</time>
      </trkpt>
      <trkpt lat="44.73181" lon="3.78398">
        <ele>1043.6090087891</ele>
        <time>2020-10-16T12:45:57.711Z</time>
      </trkpt>
      <trkpt lat="44.73181" lon="3.78389">
        <ele>1043.5026855469</ele>
        <time>2020-10-16T12:45:59.558Z</time>
      </trkpt>
      <trkpt lat="44.73181" lon="3.78366">
        <ele>1043.2471923828</ele>
        <time>2020-10-16T12:46:01.409Z</time>
      </trkpt>
      <trkpt lat="44.73179" lon="3.7834">
        <ele>1043.5428466797</ele>
        <time>2020-10-16T12:46:03.263Z</time>
      </trkpt>
      <trkpt lat="44.7318" lon="3.78326">
        <ele>1043.9283447266</ele>
        <time>2020-10-16T12:46:05.119Z</time>
      </trkpt>
      <trkpt lat="44.73184" lon="3.78308">
        <ele>1044.4102783203</ele>
        <time>2020-10-16T12:46:06.978Z</time>
      </trkpt>
      <trkpt lat="44.73187" lon="3.78298">
        <ele>1044.6716308594</ele>
        <time>2020-10-16T12:46:08.839Z</time>
      </trkpt>
      <trkpt lat="44.73197" lon="3.78274">
        <ele>1045.1654052734</ele>
        <time>2020-10-16T12:46:10.704Z</time>
      </trkpt>
      <trkpt lat="44.73201" lon="3.78261">
        <ele>1045.4681396484</ele>
        <time>2020-10-16T12:46:12.571Z</time>
      </trkpt>
      <trkpt lat="44.73203" lon="3.7825">
        <ele>1045.5965576172</ele>
        <time>2020-10-16T12:46:14.439Z</time>
      </trkpt>
      <trkpt lat="44.73205" lon="3.78233">
        <ele>1045.8668212891</ele>
        <time>2020-10-16T12:46:16.310Z</time>
      </trkpt>
      <trkpt lat="44.73207" lon="3.78217">
        <ele>1046.0906982422</ele>
        <time>2020-10-16T12:46:18.183Z</time>
      </trkpt>
      <trkpt lat="44.73209" lon="3.78206">
        <ele>1046.2379150391</ele>
        <time>2020-10-16T12:46:20.058Z</time>
      </trkpt>
      <trkpt lat="44.73207" lon="3.78189">
        <ele>1046.7547607422</ele>
        <time>2020-10-16T12:46:21.935Z</time>
      </trkpt>
      <trkpt lat="44.73206" lon="3.7817">
        <ele>1047.5201416016</ele>
        <time>2020-10-16T12:46:23.815Z</time>
      </trkpt>
      <trkpt lat="44.73206" lon="3.78151">
        <ele>1048.2203369141</ele>
        <time>2020-10-16T12:46:25.698Z</time>
      </trkpt>
      <trkpt lat="44.73207" lon="3.7814">
        <ele>1048.5715332031</ele>
        <time>2020-10-16T12:46:27.582Z</time>
      </trkpt>
      <trkpt lat="44.73211" lon="3.7813">
        <ele>1048.6854248047</ele>
        <time>2020-10-16T12:46:29.468Z</time>
      </trkpt>
      <trkpt lat="44.73218" lon="3.78117">
        <ele>1048.7796630859</ele>
        <time>2020-10-16T12:46:31.356Z</time>
      </trkpt>
      <trkpt lat="44.73222" lon="3.781">
        <ele>1049.5806884766</ele>
        <time>2020-10-16T12:46:33.247Z</time>
      </trkpt>
      <trkpt lat="44.73226" lon="3.78083">
        <ele>1050.2436523438</ele>
        <time>2020-10-16T12:46:35.140Z</time>
      </trkpt>
      <trkpt lat="44.73233" lon="3.78061">
        <ele>1051.078125</ele>
        <time>2020-10-16T12:46:37.037Z</time>
      </trkpt>
      <trkpt lat="44.73238" lon="3.78049">
        <ele>1051.3787841797</ele>
        <time>2020-10-16T12:46:38.936Z</time>
      </trkpt>
      <trkpt lat="44.73245" lon="3.78025">
        <ele>1051.8757324219</ele>
        <time>2020-10-16T12:46:40.838Z</time>
      </trkpt>
      <trkpt lat="44.73249" lon="3.78014">
        <ele>1052.1114501953</ele>
        <time>2020-10-16T12:46:42.742Z</time>
      </trkpt>
      <trkpt lat="44.73249" lon="3.78012">
        <ele>1052.1575927734</ele>
        <time>2020-10-16T12:46:44.646Z</time>
      </trkpt>
      <trkpt lat="44.73251" lon="3.78001">
        <ele>1052.4533691406</ele>
        <time>2020-10-16T12:46:46.552Z</time>
      </trkpt>
      <trkpt lat="44.73268" lon="3.78007">
        <ele>1051.447265625</ele>
        <time>2020-10-16T12:46:48.461Z</time>
      </trkpt>
      <trkpt lat="44.73281" lon="3.78016">
        <ele>1050.5268554688</ele>
        <time>2020-10-16T12:46:50.373Z</time>
      </trkpt>
      <trkpt lat="44.73288" lon="3.78019">
        <ele>1049.9949951172</ele>
        <time>2020-10-16T12:46:52.287Z</time>
      </trkpt>
      <trkpt lat="44.73296" lon="3.7802">
        <ele>1049.6856689453</ele>
        <time>2020-10-16T12:46:54.202Z</time>
      </trkpt>
      <trkpt lat="44.73303" lon="3.7802">
        <ele>1049.4613037109</ele>
        <time>2020-10-16T12:46:56.119Z</time>
      </trkpt>
      <trkpt lat="44.73303" lon="3.7802">
        <ele>1049.4443359375</ele>
        <time>2020-10-16T12:46:58.036Z</time>
      </trkpt>
      <trkpt lat="44.73312" lon="3.78017">
        <ele>1049.169921875</ele>
        <time>2020-10-16T12:46:59.955Z</time>
      </trkpt>
      <trkpt lat="44.73331" lon="3.7801">
        <ele>1048.5433349609</ele>
        <time>2020-10-16T12:47:01.878Z</time>
      </trkpt>
      <trkpt lat="44.73347" lon="3.7801">
        <ele>1048.0015869141</ele>
        <time>2020-10-16T12:47:03.804Z</time>
      </trkpt>
      <trkpt lat="44.73351" lon="3.7801">
        <ele>1047.8485107422</ele>
        <time>2020-10-16T12:47:05.730Z</time>
      </trkpt>
      <trkpt lat="44.73389" lon="3.78016">
        <ele>1046.8500976562</ele>
        <time>2020-10-16T12:47:07.664Z</time>
      </trkpt>
      <trkpt lat="44.73411" lon="3.78023">
        <ele>1046.037109375</ele>
        <time>2020-10-16T12:47:09.603Z</time>
      </trkpt>
      <trkpt lat="44.73423" lon="3.78026">
        <ele>1045.7413330078</ele>
        <time>2020-10-16T12:47:11.544Z</time>
      </trkpt>
      <trkpt lat="44.73437" lon="3.78028">
        <ele>1045.4180908203</ele>
        <time>2020-10-16T12:47:13.488Z</time>
      </trkpt>
      <trkpt lat="44.73474" lon="3.78029">
        <ele>1043.0794677734</ele>
        <time>2020-10-16T12:47:15.439Z</time>
      </trkpt>
      <trkpt lat="44.73496" lon="3.78029">
        <ele>1040.6746826172</ele>
        <time>2020-10-16T12:47:17.395Z</time>
      </trkpt>
      <trkpt lat="44.73508" lon="3.78025">
        <ele>1039.2780761719</ele>
        <time>2020-10-16T12:47:19.353Z</time>
      </trkpt>
      <trkpt lat="44.73521" lon="3.78025">
        <ele>1037.9099121094</ele>
        <time>2020-10-16T12:47:21.314Z</time>
      </trkpt>
      <trkpt lat="44.7353" lon="3.78028">
        <ele>1037.0202636719</ele>
        <time>2020-10-16T12:47:23.277Z</time>
      </trkpt>
      <trkpt lat="44.73541" lon="3.78031">
        <ele>1035.8729248047</ele>
        <time>2020-10-16T12:47:25.242Z</time>
      </trkpt>
      <trkpt lat="44.73546" lon="3.78031">
        <ele>1035.0322265625</ele>
        <time>2020-10-16T12:47:27.208Z</time>
      </trkpt>
      <trkpt lat="44.73555" lon="3.78029">
        <ele>1034.5655517578</ele>
        <time>2020-10-16T12:47:29.176Z</time>
      </trkpt>
      <trkpt lat="44.73578" lon="3.78022">
        <ele>1033.5393066406</ele>
        <time>2020-10-16T12:47:31.148Z</time>
      </trkpt>
      <trkpt lat="44.73583" lon="3.78019">
        <ele>1033.2578125</ele>
        <time>2020-10-16T12:47:33.121Z</time>
      </trkpt>
      <trkpt lat="44.7359" lon="3.78014">
        <ele>1032.8354492188</ele>
        <time>2020-10-16T12:47:35.096Z</time>
      </trkpt>
      <trkpt lat="44.73595" lon="3.78011">
        <ele>1032.5256347656</ele>
        <time>2020-10-16T12:47:37.072Z</time>
      </trkpt>
      <trkpt lat="44.736" lon="3.78011">
        <ele>1032.259765625</ele>
        <time>2020-10-16T12:47:39.049Z</time>
      </trkpt>
      <trkpt lat="44.73605" lon="3.78012">
        <ele>1031.9344482422</ele>
        <time>2020-10-16T12:47:41.027Z</time>
      </trkpt>
      <trkpt lat="44.73616" lon="3.78016">
        <ele>1031.2458496094</ele>
        <time>2020-10-16T12:47:43.007Z</time>
      </trkpt>
      <trkpt lat="44.73623" lon="3.78017">
        <ele>1030.7238769531</ele>
        <time>2020-10-16T12:47:44.989Z</time>
      </trkpt>
      <trkpt lat="44.73635" lon="3.78017">
        <ele>1029.7718505859</ele>
        <time>2020-10-16T12:47:46.973Z</time>
      </trkpt>
      <trkpt lat="44.73645" lon="3.78015">
        <ele>1028.9176025391</ele>
        <time>2020-10-16T12:47:48.959Z</time>
      </trkpt>
      <trkpt lat="44.73658" lon="3.78009">
        <ele>1027.7567138672</ele>
        <time>2020-10-16T12:47:50.948Z</time>
      </trkpt>
      <trkpt lat="44.73676" lon="3.78">
        <ele>1026.1170654297</ele>
        <time>2020-10-16T12:47:52.941Z</time>
      </trkpt>
      <trkpt lat="44.73686" lon="3.77997">
        <ele>1025.5373535156</ele>
        <time>2020-10-16T12:47:54.936Z</time>
      </trkpt>
      <trkpt lat="44.73695" lon="3.77997">
        <ele>1025.1879882812</ele>
        <time>2020-10-16T12:47:56.933Z</time>
      </trkpt>
      <trkpt lat="44.73699" lon="3.77998">
        <ele>1025.0073242188</ele>
        <time>2020-10-16T12:47:58.930Z</time>
      </trkpt>
      <trkpt lat="44.73708" lon="3.78">
        <ele>1024.6015625</ele>
        <time>2020-10-16T12:48:00.929Z</time>
      </trkpt>
      <trkpt lat="44.73719" lon="3.78003">
        <ele>1023.92578125</ele>
        <time>2020-10-16T12:48:02.931Z</time>
      </trkpt>
      <trkpt lat="44.73727" lon="3.78009">
        <ele>1023.3375244141</ele>
        <time>2020-10-16T12:48:04.934Z</time>
      </trkpt>
      <trkpt lat="44.73736" lon="3.78018">
        <ele>1022.6209716797</ele>
        <time>2020-10-16T12:48:06.939Z</time>
      </trkpt>
      <trkpt lat="44.73745" lon="3.78027">
        <ele>1022.016418457</ele>
        <time>2020-10-16T12:48:08.947Z</time>
      </trkpt>
      <trkpt lat="44.73774" lon="3.78045">
        <ele>1020.6527099609</ele>
        <time>2020-10-16T12:48:10.961Z</time>
      </trkpt>
      <trkpt lat="44.73786" lon="3.78052">
        <ele>1020.0629882812</ele>
        <time>2020-10-16T12:48:12.978Z</time>
      </trkpt>
      <trkpt lat="44.73792" lon="3.78054">
        <ele>1019.6904907227</ele>
        <time>2020-10-16T12:48:14.996Z</time>
      </trkpt>
      <trkpt lat="44.73798" lon="3.78055">
        <ele>1019.2691040039</ele>
        <time>2020-10-16T12:48:17.015Z</time>
      </trkpt>
      <trkpt lat="44.73817" lon="3.78051">
        <ele>1017.8781738281</ele>
        <time>2020-10-16T12:48:19.038Z</time>
      </trkpt>
      <trkpt lat="44.73836" lon="3.78049">
        <ele>1017.0114746094</ele>
        <time>2020-10-16T12:48:21.065Z</time>
      </trkpt>
      <trkpt lat="44.73845" lon="3.78052">
        <ele>1016.4825439453</ele>
        <time>2020-10-16T12:48:23.094Z</time>
      </trkpt>
      <trkpt lat="44.73857" lon="3.78058">
        <ele>1015.7934570312</ele>
        <time>2020-10-16T12:48:25.125Z</time>
      </trkpt>
      <trkpt lat="44.73872" lon="3.78066">
        <ele>1014.8947753906</ele>
        <time>2020-10-16T12:48:27.159Z</time>
      </trkpt>
      <trkpt lat="44.73893" lon="3.78076">
        <ele>1013.8915405273</ele>
        <time>2020-10-16T12:48:29.198Z</time>
      </trkpt>
      <trkpt lat="44.73899" lon="3.78081">
        <ele>1013.5343017578</ele>
        <time>2020-10-16T12:48:31.238Z</time>
      </trkpt>
      <trkpt lat="44.73917" lon="3.78092">
        <ele>1012.6344604492</ele>
        <time>2020-10-16T12:48:33.282Z</time>
      </trkpt>
      <trkpt lat="44.7394" lon="3.78102">
        <ele>1011.5700683594</ele>
        <time>2020-10-16T12:48:35.331Z</time>
      </trkpt>
      <trkpt lat="44.73963" lon="3.78112">
        <ele>1009.8956298828</ele>
        <time>2020-10-16T12:48:37.385Z</time>
      </trkpt>
      <trkpt lat="44.73993" lon="3.78121">
        <ele>1007.2366943359</ele>
        <time>2020-10-16T12:48:39.445Z</time>
      </trkpt>
      <trkpt lat="44.74008" lon="3.78126">
        <ele>1005.8001098633</ele>
        <time>2020-10-16T12:48:41.508Z</time>
      </trkpt>
      <trkpt lat="44.74022" lon="3.78133">
        <ele>1004.4588623047</ele>
        <time>2020-10-16T12:48:43.574Z</time>
      </trkpt>
      <trkpt lat="44.74029" lon="3.78135">
        <ele>1003.783996582</ele>
        <time>2020-10-16T12:48:45.641Z</time>
      </trkpt>
      <trkpt lat="44.74049" lon="3.78136">
        <ele>1001.7072753906</ele>
        <time>2020-10-16T12:48:47.712Z</time>
      </trkpt>
      <trkpt lat="44.74072" lon="3.78132">
        <ele>999.24139404297</ele>
        <time>2020-10-16T12:48:49.788Z</time>
      </trkpt>
      <trkpt lat="44.7409" lon="3.78123">
        <ele>997.52825927734</ele>
        <time>2020-10-16T12:48:51.868Z</time>
      </trkpt>
      <trkpt lat="44.74105" lon="3.78113">
        <ele>996.39739990234</ele>
        <time>2020-10-16T12:48:53.951Z</time>
      </trkpt>
      <trkpt lat="44.74123" lon="3.78106">
        <ele>994.796875</ele>
        <time>2020-10-16T12:48:56.038Z</time>
      </trkpt>
      <trkpt lat="44.74127" lon="3.78106">
        <ele>994.38995361328</ele>
        <time>2020-10-16T12:48:58.126Z</time>
      </trkpt>
      <trkpt lat="44.74135" lon="3.78107">
        <ele>993.66375732422</ele>
        <time>2020-10-16T12:49:00.215Z</time>
      </trkpt>
      <trkpt lat="44.74142" lon="3.78113">
        <ele>992.806640625</ele>
        <time>2020-10-16T12:49:02.306Z</time>
      </trkpt>
      <trkpt lat="44.74154" lon="3.78129">
        <ele>991.01336669922</ele>
        <time>2020-10-16T12:49:04.400Z</time>
      </trkpt>
      <trkpt lat="44.7416" lon="3.78133">
        <ele>990.34918212891</ele>
        <time>2020-10-16T12:49:06.496Z</time>
      </trkpt>
      <trkpt lat="44.74169" lon="3.78136">
        <ele>989.45324707031</ele>
        <time>2020-10-16T12:49:08.593Z</time>
      </trkpt>
      <trkpt lat="44.74177" lon="3.78137">
        <ele>988.76434326172</ele>
        <time>2020-10-16T12:49:10.692Z</time>
      </trkpt>
      <trkpt lat="44.7418" lon="3.78139">
        <ele>988.34332275391</ele>
        <time>2020-10-16T12:49:12.792Z</time>
      </trkpt>
      <trkpt lat="44.74181" lon="3.78143">
        <ele>988.12878417969</ele>
        <time>2020-10-16T12:49:14.892Z</time>
      </trkpt>
      <trkpt lat="44.7418" lon="3.78149">
        <ele>987.88604736328</ele>
        <time>2020-10-16T12:49:16.993Z</time>
      </trkpt>
      <trkpt lat="44.74179" lon="3.78155">
        <ele>987.72869873047</ele>
        <time>2020-10-16T12:49:19.095Z</time>
      </trkpt>
      <trkpt lat="44.74181" lon="3.78164">
        <ele>987.08251953125</ele>
        <time>2020-10-16T12:49:21.199Z</time>
      </trkpt>
      <trkpt lat="44.74188" lon="3.78169">
        <ele>986.30963134766</ele>
        <time>2020-10-16T12:49:23.304Z</time>
      </trkpt>
      <trkpt lat="44.74226" lon="3.78188">
        <ele>982.92175292969</ele>
        <time>2020-10-16T12:49:25.417Z</time>
      </trkpt>
      <trkpt lat="44.7427" lon="3.7821">
        <ele>980.31164550781</ele>
        <time>2020-10-16T12:49:27.540Z</time>
      </trkpt>
      <trkpt lat="44.74304" lon="3.78227">
        <ele>979.45733642578</ele>
        <time>2020-10-16T12:49:29.670Z</time>
      </trkpt>
      <trkpt lat="44.74329" lon="3.78241">
        <ele>979.71630859375</ele>
        <time>2020-10-16T12:49:31.805Z</time>
      </trkpt>
      <trkpt lat="44.74339" lon="3.78248">
        <ele>979.80938720703</ele>
        <time>2020-10-16T12:49:33.942Z</time>
      </trkpt>
      <trkpt lat="44.74338" lon="3.7823">
        <ele>980.21478271484</ele>
        <time>2020-10-16T12:49:36.082Z</time>
      </trkpt>
      <trkpt lat="44.74346" lon="3.78205">
        <ele>981.00653076172</ele>
        <time>2020-10-16T12:49:38.226Z</time>
      </trkpt>
      <trkpt lat="44.74355" lon="3.78188">
        <ele>981.62384033203</ele>
        <time>2020-10-16T12:49:40.373Z</time>
      </trkpt>
      <trkpt lat="44.74363" lon="3.78176">
        <ele>981.70654296875</ele>
        <time>2020-10-16T12:49:42.522Z</time>
      </trkpt>
      <trkpt lat="44.74365" lon="3.7816">
        <ele>981.3271484375</ele>
        <time>2020-10-16T12:49:44.674Z</time>
      </trkpt>
      <trkpt lat="44.74365" lon="3.78149">
        <ele>981.06237792969</ele>
        <time>2020-10-16T12:49:46.827Z</time>
      </trkpt>
      <trkpt lat="44.74364" lon="3.78135">
        <ele>980.73492431641</ele>
        <time>2020-10-16T12:49:48.982Z</time>
      </trkpt>
      <trkpt lat="44.74376" lon="3.78112">
        <ele>980.39770507812</ele>
        <time>2020-10-16T12:49:51.141Z</time>
      </trkpt>
      <trkpt lat="44.74386" lon="3.78089">
        <ele>980.177734375</ele>
        <time>2020-10-16T12:49:53.304Z</time>
      </trkpt>
      <trkpt lat="44.74399" lon="3.78083">
        <ele>980.77740478516</ele>
        <time>2020-10-16T12:49:55.470Z</time>
      </trkpt>
      <trkpt lat="44.74415" lon="3.78083">
        <ele>981.89831542969</ele>
        <time>2020-10-16T12:49:57.639Z</time>
      </trkpt>
      <trkpt lat="44.74423" lon="3.78075">
        <ele>982.01977539062</ele>
        <time>2020-10-16T12:49:59.810Z</time>
      </trkpt>
      <trkpt lat="44.74431" lon="3.78048">
        <ele>980.55621337891</ele>
        <time>2020-10-16T12:50:01.985Z</time>
      </trkpt>
      <trkpt lat="44.74444" lon="3.78028">
        <ele>979.81323242188</ele>
        <time>2020-10-16T12:50:04.164Z</time>
      </trkpt>
      <trkpt lat="44.74452" lon="3.78011">
        <ele>979.03033447266</ele>
        <time>2020-10-16T12:50:06.346Z</time>
      </trkpt>
      <trkpt lat="44.74458" lon="3.77996">
        <ele>977.39233398438</ele>
        <time>2020-10-16T12:50:08.530Z</time>
      </trkpt>
      <trkpt lat="44.74467" lon="3.77979">
        <ele>975.32891845703</ele>
        <time>2020-10-16T12:50:10.717Z</time>
      </trkpt>
      <trkpt lat="44.74479" lon="3.77972">
        <ele>974.1337890625</ele>
        <time>2020-10-16T12:50:12.907Z</time>
      </trkpt>
      <trkpt lat="44.74498" lon="3.77967">
        <ele>973.75408935547</ele>
        <time>2020-10-16T12:50:15.101Z</time>
      </trkpt>
      <trkpt lat="44.74517" lon="3.77959">
        <ele>974.00915527344</ele>
        <time>2020-10-16T12:50:17.299Z</time>
      </trkpt>
      <trkpt lat="44.74527" lon="3.77944">
        <ele>973.88708496094</ele>
        <time>2020-10-16T12:50:19.500Z</time>
      </trkpt>
      <trkpt lat="44.74541" lon="3.77927">
        <ele>972.60302734375</ele>
        <time>2020-10-16T12:50:21.704Z</time>
      </trkpt>
      <trkpt lat="44.7456" lon="3.77914">
        <ele>969.53234863281</ele>
        <time>2020-10-16T12:50:23.913Z</time>
      </trkpt>
      <trkpt lat="44.7458" lon="3.77895">
        <ele>965.98120117188</ele>
        <time>2020-10-16T12:50:26.126Z</time>
      </trkpt>
      <trkpt lat="44.746" lon="3.77874">
        <ele>965.47601318359</ele>
        <time>2020-10-16T12:50:28.344Z</time>
      </trkpt>
      <trkpt lat="44.74612" lon="3.77858">
        <ele>965.13922119141</ele>
        <time>2020-10-16T12:50:30.566Z</time>
      </trkpt>
      <trkpt lat="44.74632" lon="3.77829">
        <ele>962.63366699219</ele>
        <time>2020-10-16T12:50:32.793Z</time>
      </trkpt>
      <trkpt lat="44.74651" lon="3.77804">
        <ele>959.87908935547</ele>
        <time>2020-10-16T12:50:35.026Z</time>
      </trkpt>
      <trkpt lat="44.74653" lon="3.77801">
        <ele>959.6845703125</ele>
        <time>2020-10-16T12:50:37.259Z</time>
      </trkpt>
      <trkpt lat="44.74669" lon="3.77782">
        <ele>958.35321044922</ele>
        <time>2020-10-16T12:50:39.497Z</time>
      </trkpt>
      <trkpt lat="44.74677" lon="3.77772">
        <ele>957.71221923828</ele>
        <time>2020-10-16T12:50:41.736Z</time>
      </trkpt>
      <trkpt lat="44.74683" lon="3.77769">
        <ele>957.69030761719</ele>
        <time>2020-10-16T12:50:43.977Z</time>
      </trkpt>
      <trkpt lat="44.74706" lon="3.77765">
        <ele>956.67974853516</ele>
        <time>2020-10-16T12:50:46.223Z</time>
      </trkpt>
      <trkpt lat="44.74704" lon="3.7775">
        <ele>956.98132324219</ele>
        <time>2020-10-16T12:50:48.471Z</time>
      </trkpt>
      <trkpt lat="44.74696" lon="3.77737">
        <ele>957.79241943359</ele>
        <time>2020-10-16T12:50:50.721Z</time>
      </trkpt>
      <trkpt lat="44.74697" lon="3.77718">
        <ele>957.71600341797</ele>
        <time>2020-10-16T12:50:52.974Z</time>
      </trkpt>
      <trkpt lat="44.74697" lon="3.77703">
        <ele>957.728515625</ele>
        <time>2020-10-16T12:50:55.229Z</time>
      </trkpt>
      <trkpt lat="44.74699" lon="3.77687">
        <ele>957.54718017578</ele>
        <time>2020-10-16T12:50:57.486Z</time>
      </trkpt>
      <trkpt lat="44.74707" lon="3.77676">
        <ele>956.96270751953</ele>
        <time>2020-10-16T12:50:59.746Z</time>
      </trkpt>
      <trkpt lat="44.74711" lon="3.77665">
        <ele>956.43933105469</ele>
        <time>2020-10-16T12:51:02.007Z</time>
      </trkpt>
      <trkpt lat="44.74712" lon="3.77652">
        <ele>956.72497558594</ele>
        <time>2020-10-16T12:51:04.270Z</time>
      </trkpt>
      <trkpt lat="44.7471" lon="3.77635">
        <ele>957.79095458984</ele>
        <time>2020-10-16T12:51:06.536Z</time>
      </trkpt>
      <trkpt lat="44.74713" lon="3.77616">
        <ele>957.81915283203</ele>
        <time>2020-10-16T12:51:08.805Z</time>
      </trkpt>
      <trkpt lat="44.74714" lon="3.77589">
        <ele>957.07037353516</ele>
        <time>2020-10-16T12:51:11.077Z</time>
      </trkpt>
      <trkpt lat="44.74709" lon="3.77571">
        <ele>956.39324951172</ele>
        <time>2020-10-16T12:51:13.352Z</time>
      </trkpt>
      <trkpt lat="44.74702" lon="3.77554">
        <ele>956.37927246094</ele>
        <time>2020-10-16T12:51:15.630Z</time>
      </trkpt>
      <trkpt lat="44.74696" lon="3.77541">
        <ele>956.71185302734</ele>
        <time>2020-10-16T12:51:17.910Z</time>
      </trkpt>
      <trkpt lat="44.74686" lon="3.7753">
        <ele>958.46856689453</ele>
        <time>2020-10-16T12:51:20.193Z</time>
      </trkpt>
      <trkpt lat="44.7468" lon="3.77524">
        <ele>959.70745849609</ele>
        <time>2020-10-16T12:51:22.477Z</time>
      </trkpt>
      <trkpt lat="44.74673" lon="3.77508">
        <ele>960.21905517578</ele>
        <time>2020-10-16T12:51:24.764Z</time>
      </trkpt>
      <trkpt lat="44.74672" lon="3.77499">
        <ele>959.78997802734</ele>
        <time>2020-10-16T12:51:27.052Z</time>
      </trkpt>
      <trkpt lat="44.74674" lon="3.77493">
        <ele>959.01458740234</ele>
        <time>2020-10-16T12:51:29.341Z</time>
      </trkpt>
      <trkpt lat="44.74666" lon="3.77486">
        <ele>960.53125</ele>
        <time>2020-10-16T12:51:31.632Z</time>
      </trkpt>
      <trkpt lat="44.7466" lon="3.77474">
        <ele>961.47076416016</ele>
        <time>2020-10-16T12:51:33.925Z</time>
      </trkpt>
      <trkpt lat="44.74655" lon="3.7746">
        <ele>962.41235351562</ele>
        <time>2020-10-16T12:51:36.220Z</time>
      </trkpt>
      <trkpt lat="44.74647" lon="3.77444">
        <ele>963.92266845703</ele>
        <time>2020-10-16T12:51:38.518Z</time>
      </trkpt>
      <trkpt lat="44.74642" lon="3.77431">
        <ele>964.83416748047</ele>
        <time>2020-10-16T12:51:40.818Z</time>
      </trkpt>
      <trkpt lat="44.74644" lon="3.77426">
        <ele>964.26831054688</ele>
        <time>2020-10-16T12:51:43.119Z</time>
      </trkpt>
      <trkpt lat="44.74655" lon="3.77415">
        <ele>961.94409179688</ele>
        <time>2020-10-16T12:51:45.423Z</time>
      </trkpt>
      <trkpt lat="44.74662" lon="3.77418">
        <ele>960.56549072266</ele>
        <time>2020-10-16T12:51:47.728Z</time>
      </trkpt>
      <trkpt lat="44.74668" lon="3.77413">
        <ele>959.33874511719</ele>
        <time>2020-10-16T12:51:50.034Z</time>
      </trkpt>
      <trkpt lat="44.74677" lon="3.77421">
        <ele>957.88433837891</ele>
        <time>2020-10-16T12:51:52.343Z</time>
      </trkpt>
      <trkpt lat="44.74679" lon="3.7742">
        <ele>957.45831298828</ele>
        <time>2020-10-16T12:51:54.652Z</time>
      </trkpt>
      <trkpt lat="44.74681" lon="3.77418">
        <ele>956.9052734375</ele>
        <time>2020-10-16T12:51:56.962Z</time>
      </trkpt>
      <trkpt lat="44.74686" lon="3.77421">
        <ele>956.16412353516</ele>
        <time>2020-10-16T12:51:59.273Z</time>
      </trkpt>
      <trkpt lat="44.74693" lon="3.77427">
        <ele>954.95983886719</ele>
        <time>2020-10-16T12:52:01.585Z</time>
      </trkpt>
      <trkpt lat="44.74697" lon="3.77432">
        <ele>954.16125488281</ele>
        <time>2020-10-16T12:52:03.898Z</time>
      </trkpt>
      <trkpt lat="44.74706" lon="3.77435">
        <ele>953.42639160156</ele>
        <time>2020-10-16T12:52:06.213Z</time>
      </trkpt>
      <trkpt lat="44.7472" lon="3.77438">
        <ele>953.55987548828</ele>
        <time>2020-10-16T12:52:08.531Z</time>
      </trkpt>
      <trkpt lat="44.74732" lon="3.7744">
        <ele>953.81414794922</ele>
        <time>2020-10-16T12:52:10.852Z</time>
      </trkpt>
      <trkpt lat="44.74742" lon="3.7744">
        <ele>954.19036865234</ele>
        <time>2020-10-16T12:52:13.175Z</time>
      </trkpt>
      <trkpt lat="44.74744" lon="3.7744">
        <ele>954.23693847656</ele>
        <time>2020-10-16T12:52:15.498Z</time>
      </trkpt>
      <trkpt lat="44.74748" lon="3.77444">
        <ele>954.09020996094</ele>
        <time>2020-10-16T12:52:17.822Z</time>
      </trkpt>
      <trkpt lat="44.74755" lon="3.77452">
        <ele>953.65673828125</ele>
        <time>2020-10-16T12:52:20.148Z</time>
      </trkpt>
      <trkpt lat="44.74761" lon="3.7746">
        <ele>953.23156738281</ele>
        <time>2020-10-16T12:52:22.475Z</time>
      </trkpt>
      <trkpt lat="44.74771" lon="3.77464">
        <ele>953.23138427734</ele>
        <time>2020-10-16T12:52:24.804Z</time>
      </trkpt>
      <trkpt lat="44.7478" lon="3.7747">
        <ele>953.07055664062</ele>
        <time>2020-10-16T12:52:27.135Z</time>
      </trkpt>
      <trkpt lat="44.74788" lon="3.77476">
        <ele>952.79229736328</ele>
        <time>2020-10-16T12:52:29.468Z</time>
      </trkpt>
      <trkpt lat="44.74794" lon="3.77489">
        <ele>951.85345458984</ele>
        <time>2020-10-16T12:52:31.803Z</time>
      </trkpt>
      <trkpt lat="44.74805" lon="3.77501">
        <ele>951.15277099609</ele>
        <time>2020-10-16T12:52:34.141Z</time>
      </trkpt>
      <trkpt lat="44.74813" lon="3.77514">
        <ele>950.25256347656</ele>
        <time>2020-10-16T12:52:36.482Z</time>
      </trkpt>
      <trkpt lat="44.74822" lon="3.77536">
        <ele>949.09143066406</ele>
        <time>2020-10-16T12:52:38.826Z</time>
      </trkpt>
      <trkpt lat="44.74825" lon="3.77548">
        <ele>948.61639404297</ele>
        <time>2020-10-16T12:52:41.172Z</time>
      </trkpt>
      <trkpt lat="44.74829" lon="3.77558">
        <ele>948.25512695312</ele>
        <time>2020-10-16T12:52:43.520Z</time>
      </trkpt>
      <trkpt lat="44.74835" lon="3.7757">
        <ele>947.81707763672</ele>
        <time>2020-10-16T12:52:45.870Z</time>
      </trkpt>
      <trkpt lat="44.74839" lon="3.77583">
        <ele>947.40539550781</ele>
        <time>2020-10-16T12:52:48.222Z</time>
      </trkpt>
      <trkpt lat="44.74843" lon="3.77593">
        <ele>947.10223388672</ele>
        <time>2020-10-16T12:52:50.575Z</time>
      </trkpt>
      <trkpt lat="44.74853" lon="3.77597">
        <ele>947.07263183594</ele>
        <time>2020-10-16T12:52:52.930Z</time>
      </trkpt>
      <trkpt lat="44.74862" lon="3.77603">
        <ele>946.94213867188</ele>
        <time>2020-10-16T12:52:55.287Z</time>
      </trkpt>
      <trkpt lat="44.74866" lon="3.77613">
        <ele>946.42016601562</ele>
        <time>2020-10-16T12:52:57.646Z</time>
      </trkpt>
      <trkpt lat="44.74869" lon="3.77621">
        <ele>945.97283935547</ele>
        <time>2020-10-16T12:53:00.006Z</time>
      </trkpt>
      <trkpt lat="44.74875" lon="3.77623">
        <ele>946.0654296875</ele>
        <time>2020-10-16T12:53:02.368Z</time>
      </trkpt>
      <trkpt lat="44.74885" lon="3.77616">
        <ele>946.84014892578</ele>
        <time>2020-10-16T12:53:04.732Z</time>
      </trkpt>
      <trkpt lat="44.74891" lon="3.77612">
        <ele>947.31970214844</ele>
        <time>2020-10-16T12:53:07.097Z</time>
      </trkpt>
      <trkpt lat="44.74905" lon="3.77605">
        <ele>948.17974853516</ele>
        <time>2020-10-16T12:53:09.465Z</time>
      </trkpt>
      <trkpt lat="44.74915" lon="3.77604">
        <ele>948.59887695312</ele>
        <time>2020-10-16T12:53:11.835Z</time>
      </trkpt>
      <trkpt lat="44.74927" lon="3.77609">
        <ele>948.76910400391</ele>
        <time>2020-10-16T12:53:14.208Z</time>
      </trkpt>
      <trkpt lat="44.74935" lon="3.77614">
        <ele>948.72338867188</ele>
        <time>2020-10-16T12:53:16.582Z</time>
      </trkpt>
      <trkpt lat="44.74936" lon="3.77627">
        <ele>947.97827148438</ele>
        <time>2020-10-16T12:53:18.958Z</time>
      </trkpt>
      <trkpt lat="44.74932" lon="3.77643">
        <ele>946.90618896484</ele>
        <time>2020-10-16T12:53:21.337Z</time>
      </trkpt>
      <trkpt lat="44.74933" lon="3.77657">
        <ele>946.11071777344</ele>
        <time>2020-10-16T12:53:23.718Z</time>
      </trkpt>
      <trkpt lat="44.74931" lon="3.77675">
        <ele>944.93963623047</ele>
        <time>2020-10-16T12:53:26.101Z</time>
      </trkpt>
      <trkpt lat="44.74939" lon="3.77688">
        <ele>944.45922851562</ele>
        <time>2020-10-16T12:53:28.487Z</time>
      </trkpt>
      <trkpt lat="44.74949" lon="3.77694">
        <ele>944.58831787109</ele>
        <time>2020-10-16T12:53:30.875Z</time>
      </trkpt>
      <trkpt lat="44.74958" lon="3.77691">
        <ele>944.91217041016</ele>
        <time>2020-10-16T12:53:33.265Z</time>
      </trkpt>
      <trkpt lat="44.74965" lon="3.7769">
        <ele>945.02801513672</ele>
        <time>2020-10-16T12:53:35.656Z</time>
      </trkpt>
      <trkpt lat="44.74975" lon="3.77692">
        <ele>945.05834960938</ele>
        <time>2020-10-16T12:53:38.049Z</time>
      </trkpt>
      <trkpt lat="44.74982" lon="3.77687">
        <ele>945.36596679688</ele>
        <time>2020-10-16T12:53:40.444Z</time>
      </trkpt>
      <trkpt lat="44.74987" lon="3.77682">
        <ele>945.74310302734</ele>
        <time>2020-10-16T12:53:42.840Z</time>
      </trkpt>
      <trkpt lat="44.74991" lon="3.77677">
        <ele>946.09222412109</ele>
        <time>2020-10-16T12:53:45.237Z</time>
      </trkpt>
      <trkpt lat="44.75002" lon="3.77664">
        <ele>946.99774169922</ele>
        <time>2020-10-16T12:53:47.637Z</time>
      </trkpt>
      <trkpt lat="44.75013" lon="3.77652">
        <ele>947.70831298828</ele>
        <time>2020-10-16T12:53:50.040Z</time>
      </trkpt>
      <trkpt lat="44.75022" lon="3.77646">
        <ele>948.00708007812</ele>
        <time>2020-10-16T12:53:52.445Z</time>
      </trkpt>
      <trkpt lat="44.75031" lon="3.77636">
        <ele>948.48254394531</ele>
        <time>2020-10-16T12:53:54.852Z</time>
      </trkpt>
      <trkpt lat="44.75042" lon="3.77621">
        <ele>949.22906494141</ele>
        <time>2020-10-16T12:53:57.262Z</time>
      </trkpt>
      <trkpt lat="44.7505" lon="3.7761">
        <ele>949.42724609375</ele>
        <time>2020-10-16T12:53:59.674Z</time>
      </trkpt>
      <trkpt lat="44.75058" lon="3.77601">
        <ele>949.15954589844</ele>
        <time>2020-10-16T12:54:02.088Z</time>
      </trkpt>
      <trkpt lat="44.75067" lon="3.77592">
        <ele>949.07788085938</ele>
        <time>2020-10-16T12:54:04.505Z</time>
      </trkpt>
      <trkpt lat="44.75074" lon="3.77582">
        <ele>949.07739257812</ele>
        <time>2020-10-16T12:54:06.924Z</time>
      </trkpt>
      <trkpt lat="44.7508" lon="3.77572">
        <ele>949.12237548828</ele>
        <time>2020-10-16T12:54:09.344Z</time>
      </trkpt>
      <trkpt lat="44.75085" lon="3.77568">
        <ele>949.02642822266</ele>
        <time>2020-10-16T12:54:11.765Z</time>
      </trkpt>
      <trkpt lat="44.75091" lon="3.77571">
        <ele>948.71240234375</ele>
        <time>2020-10-16T12:54:14.188Z</time>
      </trkpt>
      <trkpt lat="44.75097" lon="3.77579">
        <ele>948.10241699219</ele>
        <time>2020-10-16T12:54:16.612Z</time>
      </trkpt>
      <trkpt lat="44.75099" lon="3.77589">
        <ele>947.62591552734</ele>
        <time>2020-10-16T12:54:19.038Z</time>
      </trkpt>
      <trkpt lat="44.751" lon="3.77601">
        <ele>947.15100097656</ele>
        <time>2020-10-16T12:54:21.466Z</time>
      </trkpt>
      <trkpt lat="44.75101" lon="3.77613">
        <ele>946.94720458984</ele>
        <time>2020-10-16T12:54:23.895Z</time>
      </trkpt>
      <trkpt lat="44.75105" lon="3.77627">
        <ele>946.78057861328</ele>
        <time>2020-10-16T12:54:26.326Z</time>
      </trkpt>
      <trkpt lat="44.75107" lon="3.77641">
        <ele>946.67083740234</ele>
        <time>2020-10-16T12:54:28.759Z</time>
      </trkpt>
      <trkpt lat="44.75106" lon="3.77663">
        <ele>946.70135498047</ele>
        <time>2020-10-16T12:54:31.196Z</time>
      </trkpt>
      <trkpt lat="44.75107" lon="3.77686">
        <ele>946.08959960938</ele>
        <time>2020-10-16T12:54:33.636Z</time>
      </trkpt>
      <trkpt lat="44.75104" lon="3.7771">
        <ele>945.73010253906</ele>
        <time>2020-10-16T12:54:36.079Z</time>
      </trkpt>
      <trkpt lat="44.75102" lon="3.7773">
        <ele>945.49176025391</ele>
        <time>2020-10-16T12:54:38.525Z</time>
      </trkpt>
      <trkpt lat="44.75096" lon="3.77748">
        <ele>945.22265625</ele>
        <time>2020-10-16T12:54:40.974Z</time>
      </trkpt>
      <trkpt lat="44.75088" lon="3.77768">
        <ele>943.96893310547</ele>
        <time>2020-10-16T12:54:43.426Z</time>
      </trkpt>
      <trkpt lat="44.75079" lon="3.7779">
        <ele>944.83312988281</ele>
        <time>2020-10-16T12:54:45.882Z</time>
      </trkpt>
      <trkpt lat="44.75072" lon="3.7781">
        <ele>945.68426513672</ele>
        <time>2020-10-16T12:54:48.341Z</time>
      </trkpt>
      <trkpt lat="44.75059" lon="3.77831">
        <ele>944.35626220703</ele>
        <time>2020-10-16T12:54:50.804Z</time>
      </trkpt>
      <trkpt lat="44.75051" lon="3.77843">
        <ele>943.47216796875</ele>
        <time>2020-10-16T12:54:53.270Z</time>
      </trkpt>
      <trkpt lat="44.75042" lon="3.77863">
        <ele>943.04498291016</ele>
        <time>2020-10-16T12:54:55.739Z</time>
      </trkpt>
      <trkpt lat="44.75033" lon="3.77885">
        <ele>944.53314208984</ele>
        <time>2020-10-16T12:54:58.211Z</time>
      </trkpt>
      <trkpt lat="44.75025" lon="3.77907">
        <ele>946.43298339844</ele>
        <time>2020-10-16T12:55:00.687Z</time>
      </trkpt>
      <trkpt lat="44.75018" lon="3.77926">
        <ele>947.35534667969</ele>
        <time>2020-10-16T12:55:03.166Z</time>
      </trkpt>
      <trkpt lat="44.75015" lon="3.7794">
        <ele>947.07745361328</ele>
        <time>2020-10-16T12:55:05.647Z</time>
      </trkpt>
      <trkpt lat="44.75017" lon="3.77959">
        <ele>946.72857666016</ele>
        <time>2020-10-16T12:55:08.131Z</time>
      </trkpt>
      <trkpt lat="44.7502" lon="3.77981">
        <ele>946.50146484375</ele>
        <time>2020-10-16T12:55:10.618Z</time>
      </trkpt>
      <trkpt lat="44.7502" lon="3.77998">
        <ele>946.12219238281</ele>
        <time>2020-10-16T12:55:13.107Z</time>
      </trkpt>
      <trkpt lat="44.75013" lon="3.78031">
        <ele>945.78283691406</ele>
        <time>2020-10-16T12:55:15.601Z</time>
      </trkpt>
      <trkpt lat="44.75006" lon="3.78055">
        <ele>945.93353271484</ele>
        <time>2020-10-16T12:55:18.099Z</time>
      </trkpt>
      <trkpt lat="44.75003" lon="3.7808">
        <ele>946.06378173828</ele>
        <time>2020-10-16T12:55:20.601Z</time>
      </trkpt>
      <trkpt lat="44.75001" lon="3.78107">
        <ele>945.8330078125</ele>
        <time>2020-10-16T12:55:23.107Z</time>
      </trkpt>
      <trkpt lat="44.75002" lon="3.7813">
        <ele>944.75933837891</ele>
        <time>2020-10-16T12:55:25.616Z</time>
      </trkpt>
      <trkpt lat="44.75008" lon="3.78155">
        <ele>944.08984375</ele>
        <time>2020-10-16T12:55:28.129Z</time>
      </trkpt>
      <trkpt lat="44.75012" lon="3.78173">
        <ele>944.06958007812</ele>
        <time>2020-10-16T12:55:30.644Z</time>
      </trkpt>
      <trkpt lat="44.75013" lon="3.7819">
        <ele>944.07958984375</ele>
        <time>2020-10-16T12:55:33.162Z</time>
      </trkpt>
      <trkpt lat="44.75013" lon="3.78219">
        <ele>943.744140625</ele>
        <time>2020-10-16T12:55:35.684Z</time>
      </trkpt>
      <trkpt lat="44.75013" lon="3.78247">
        <ele>943.4072265625</ele>
        <time>2020-10-16T12:55:38.210Z</time>
      </trkpt>
      <trkpt lat="44.75017" lon="3.78271">
        <ele>943.50592041016</ele>
        <time>2020-10-16T12:55:40.739Z</time>
      </trkpt>
      <trkpt lat="44.75026" lon="3.78293">
        <ele>943.19561767578</ele>
        <time>2020-10-16T12:55:43.272Z</time>
      </trkpt>
      <trkpt lat="44.75037" lon="3.78309">
        <ele>943.08404541016</ele>
        <time>2020-10-16T12:55:45.808Z</time>
      </trkpt>
      <trkpt lat="44.75054" lon="3.78333">
        <ele>943.11773681641</ele>
        <time>2020-10-16T12:55:48.349Z</time>
      </trkpt>
      <trkpt lat="44.75068" lon="3.78352">
        <ele>943.14831542969</ele>
        <time>2020-10-16T12:55:50.894Z</time>
      </trkpt>
      <trkpt lat="44.75086" lon="3.78364">
        <ele>943.74755859375</ele>
        <time>2020-10-16T12:55:53.443Z</time>
      </trkpt>
      <trkpt lat="44.75108" lon="3.78371">
        <ele>944.54321289062</ele>
        <time>2020-10-16T12:55:55.996Z</time>
      </trkpt>
      <trkpt lat="44.75133" lon="3.78378">
        <ele>944.71685791016</ele>
        <time>2020-10-16T12:55:58.554Z</time>
      </trkpt>
      <trkpt lat="44.7515" lon="3.78383">
        <ele>944.31372070312</ele>
        <time>2020-10-16T12:56:01.116Z</time>
      </trkpt>
      <trkpt lat="44.75165" lon="3.78384">
        <ele>944.11419677734</ele>
        <time>2020-10-16T12:56:03.681Z</time>
      </trkpt>
      <trkpt lat="44.7518" lon="3.78375">
        <ele>944.04998779297</ele>
        <time>2020-10-16T12:56:06.249Z</time>
      </trkpt>
      <trkpt lat="44.75189" lon="3.78361">
        <ele>944.11694335938</ele>
        <time>2020-10-16T12:56:08.820Z</time>
      </trkpt>
      <trkpt lat="44.75191" lon="3.78338">
        <ele>944.67407226562</ele>
        <time>2020-10-16T12:56:11.394Z</time>
      </trkpt>
      <trkpt lat="44.75188" lon="3.78319">
        <ele>945.005859375</ele>
        <time>2020-10-16T12:56:13.971Z</time>
      </trkpt>
      <trkpt lat="44.75184" lon="3.78295">
        <ele>945.43493652344</ele>
        <time>2020-10-16T12:56:16.551Z</time>
      </trkpt>
      <trkpt lat="44.75184" lon="3.78264">
        <ele>945.90667724609</ele>
        <time>2020-10-16T12:56:19.136Z</time>
      </trkpt>
      <trkpt lat="44.75185" lon="3.78235">
        <ele>946.56109619141</ele>
        <time>2020-10-16T12:56:21.725Z</time>
      </trkpt>
      <trkpt lat="44.75192" lon="3.7821">
        <ele>946.91473388672</ele>
        <time>2020-10-16T12:56:24.318Z</time>
      </trkpt>
      <trkpt lat="44.75199" lon="3.78182">
        <ele>947.37255859375</ele>
        <time>2020-10-16T12:56:26.915Z</time>
      </trkpt>
      <trkpt lat="44.75205" lon="3.78168">
        <ele>947.44427490234</ele>
        <time>2020-10-16T12:56:29.514Z</time>
      </trkpt>
      <trkpt lat="44.75216" lon="3.78149">
        <ele>947.38421630859</ele>
        <time>2020-10-16T12:56:32.117Z</time>
      </trkpt>
      <trkpt lat="44.75231" lon="3.78127">
        <ele>947.31292724609</ele>
        <time>2020-10-16T12:56:34.724Z</time>
      </trkpt>
      <trkpt lat="44.75232" lon="3.78115">
        <ele>947.85192871094</ele>
        <time>2020-10-16T12:56:37.333Z</time>
      </trkpt>
      <trkpt lat="44.75234" lon="3.78101">
        <ele>948.44305419922</ele>
        <time>2020-10-16T12:56:39.944Z</time>
      </trkpt>
      <trkpt lat="44.75238" lon="3.78088">
        <ele>949.00598144531</ele>
        <time>2020-10-16T12:56:42.557Z</time>
      </trkpt>
      <trkpt lat="44.7524" lon="3.78071">
        <ele>949.73913574219</ele>
        <time>2020-10-16T12:56:45.172Z</time>
      </trkpt>
      <trkpt lat="44.75241" lon="3.78051">
        <ele>950.63122558594</ele>
        <time>2020-10-16T12:56:47.790Z</time>
      </trkpt>
      <trkpt lat="44.75241" lon="3.78036">
        <ele>951.17004394531</ele>
        <time>2020-10-16T12:56:50.410Z</time>
      </trkpt>
      <trkpt lat="44.75243" lon="3.78012">
        <ele>952.1943359375</ele>
        <time>2020-10-16T12:56:53.034Z</time>
      </trkpt>
      <trkpt lat="44.75251" lon="3.77957">
        <ele>955.53454589844</ele>
        <time>2020-10-16T12:56:55.666Z</time>
      </trkpt>
      <trkpt lat="44.7526" lon="3.77896">
        <ele>956.82824707031</ele>
        <time>2020-10-16T12:56:58.307Z</time>
      </trkpt>
      <trkpt lat="44.75268" lon="3.77843">
        <ele>956.69714355469</ele>
        <time>2020-10-16T12:57:00.955Z</time>
      </trkpt>
      <trkpt lat="44.75276" lon="3.77793">
        <ele>957.18334960938</ele>
        <time>2020-10-16T12:57:03.611Z</time>
      </trkpt>
      <trkpt lat="44.75282" lon="3.77753">
        <ele>958.00305175781</ele>
        <time>2020-10-16T12:57:06.273Z</time>
      </trkpt>
      <trkpt lat="44.75285" lon="3.77726">
        <ele>958.84527587891</ele>
        <time>2020-10-16T12:57:08.938Z</time>
      </trkpt>
      <trkpt lat="44.75285" lon="3.77701">
        <ele>959.50170898438</ele>
        <time>2020-10-16T12:57:11.607Z</time>
      </trkpt>
      <trkpt lat="44.75284" lon="3.77672">
        <ele>959.30163574219</ele>
        <time>2020-10-16T12:57:14.280Z</time>
      </trkpt>
      <trkpt lat="44.75281" lon="3.77633">
        <ele>958.02984619141</ele>
        <time>2020-10-16T12:57:16.959Z</time>
      </trkpt>
      <trkpt lat="44.75274" lon="3.7757">
        <ele>956.95477294922</ele>
        <time>2020-10-16T12:57:19.647Z</time>
      </trkpt>
      <trkpt lat="44.7527" lon="3.77525">
        <ele>956.19085693359</ele>
        <time>2020-10-16T12:57:22.341Z</time>
      </trkpt>
      <trkpt lat="44.75266" lon="3.77495">
        <ele>956.55670166016</ele>
        <time>2020-10-16T12:57:25.040Z</time>
      </trkpt>
      <trkpt lat="44.75262" lon="3.77465">
        <ele>956.75512695312</ele>
        <time>2020-10-16T12:57:27.743Z</time>
      </trkpt>
      <trkpt lat="44.75258" lon="3.77444">
        <ele>956.86474609375</ele>
        <time>2020-10-16T12:57:30.449Z</time>
      </trkpt>
      <trkpt lat="44.75252" lon="3.7742">
        <ele>957.15490722656</ele>
        <time>2020-10-16T12:57:33.159Z</time>
      </trkpt>
      <trkpt lat="44.75243" lon="3.77387">
        <ele>957.46527099609</ele>
        <time>2020-10-16T12:57:35.874Z</time>
      </trkpt>
      <trkpt lat="44.75232" lon="3.77356">
        <ele>957.33624267578</ele>
        <time>2020-10-16T12:57:38.594Z</time>
      </trkpt>
      <trkpt lat="44.75212" lon="3.77302">
        <ele>959.60198974609</ele>
        <time>2020-10-16T12:57:41.322Z</time>
      </trkpt>
      <trkpt lat="44.7519" lon="3.77246">
        <ele>962.77825927734</ele>
        <time>2020-10-16T12:57:44.060Z</time>
      </trkpt>
      <trkpt lat="44.75182" lon="3.77228">
        <ele>963.89770507812</ele>
        <time>2020-10-16T12:57:46.801Z</time>
      </trkpt>
      <trkpt lat="44.7517" lon="3.77203">
        <ele>965.48956298828</ele>
        <time>2020-10-16T12:57:49.546Z</time>
      </trkpt>
      <trkpt lat="44.75148" lon="3.77157">
        <ele>969.22271728516</ele>
        <time>2020-10-16T12:57:52.299Z</time>
      </trkpt>
      <trkpt lat="44.75134" lon="3.77128">
        <ele>971.80944824219</ele>
        <time>2020-10-16T12:57:55.057Z</time>
      </trkpt>
      <trkpt lat="44.75138" lon="3.77115">
        <ele>972.26202392578</ele>
        <time>2020-10-16T12:57:57.817Z</time>
      </trkpt>
      <trkpt lat="44.75142" lon="3.77103">
        <ele>972.55554199219</ele>
        <time>2020-10-16T12:58:00.579Z</time>
      </trkpt>
      <trkpt lat="44.75147" lon="3.77085">
        <ele>973.04766845703</ele>
        <time>2020-10-16T12:58:03.343Z</time>
      </trkpt>
      <trkpt lat="44.75152" lon="3.77063">
        <ele>973.75701904297</ele>
        <time>2020-10-16T12:58:06.111Z</time>
      </trkpt>
      <trkpt lat="44.75153" lon="3.77058">
        <ele>973.90606689453</ele>
        <time>2020-10-16T12:58:08.879Z</time>
      </trkpt>
      <trkpt lat="44.75155" lon="3.7705">
        <ele>974.17736816406</ele>
        <time>2020-10-16T12:58:11.649Z</time>
      </trkpt>
      <trkpt lat="44.75158" lon="3.77043">
        <ele>974.45007324219</ele>
        <time>2020-10-16T12:58:14.420Z</time>
      </trkpt>
      <trkpt lat="44.75166" lon="3.77023">
        <ele>975.16540527344</ele>
        <time>2020-10-16T12:58:17.194Z</time>
      </trkpt>
      <trkpt lat="44.75172" lon="3.77009">
        <ele>975.21875</ele>
        <time>2020-10-16T12:58:19.970Z</time>
      </trkpt>
      <trkpt lat="44.75175" lon="3.77001">
        <ele>975.20648193359</ele>
        <time>2020-10-16T12:58:22.748Z</time>
      </trkpt>
      <trkpt lat="44.75178" lon="3.76994">
        <ele>975.21356201172</ele>
        <time>2020-10-16T12:58:25.527Z</time>
      </trkpt>
      <trkpt lat="44.7518" lon="3.76988">
        <ele>975.14624023438</ele>
        <time>2020-10-16T12:58:28.307Z</time>
      </trkpt>
      <trkpt lat="44.75182" lon="3.76982">
        <ele>975.09051513672</ele>
        <time>2020-10-16T12:58:31.088Z</time>
      </trkpt>
      <trkpt lat="44.75184" lon="3.76975">
        <ele>975.04522705078</ele>
        <time>2020-10-16T12:58:33.870Z</time>
      </trkpt>
      <trkpt lat="44.75185" lon="3.76968">
        <ele>975.02569580078</ele>
        <time>2020-10-16T12:58:36.653Z</time>
      </trkpt>
      <trkpt lat="44.75187" lon="3.76962">
        <ele>974.96929931641</ele>
        <time>2020-10-16T12:58:39.437Z</time>
      </trkpt>
      <trkpt lat="44.75188" lon="3.76956">
        <ele>974.92114257812</ele>
        <time>2020-10-16T12:58:42.222Z</time>
      </trkpt>
      <trkpt lat="44.75191" lon="3.76949">
        <ele>974.83514404297</ele>
        <time>2020-10-16T12:58:45.008Z</time>
      </trkpt>
      <trkpt lat="44.75193" lon="3.76943">
        <ele>974.71704101562</ele>
        <time>2020-10-16T12:58:47.795Z</time>
      </trkpt>
      <trkpt lat="44.75196" lon="3.76936">
        <ele>974.63507080078</ele>
        <time>2020-10-16T12:58:50.583Z</time>
      </trkpt>
      <trkpt lat="44.75198" lon="3.76931">
        <ele>974.70178222656</ele>
        <time>2020-10-16T12:58:53.372Z</time>
      </trkpt>
      <trkpt lat="44.75199" lon="3.76926">
        <ele>974.72875976562</ele>
        <time>2020-10-16T12:58:56.161Z</time>
      </trkpt>
      <trkpt lat="44.752" lon="3.76921">
        <ele>974.78491210938</ele>
        <time>2020-10-16T12:58:58.951Z</time>
      </trkpt>
      <trkpt lat="44.752" lon="3.76914">
        <ele>974.90502929688</ele>
        <time>2020-10-16T12:59:01.742Z</time>
      </trkpt>
      <trkpt lat="44.75201" lon="3.76908">
        <ele>975.03692626953</ele>
        <time>2020-10-16T12:59:04.534Z</time>
      </trkpt>
      <trkpt lat="44.75201" lon="3.76898">
        <ele>975.19372558594</ele>
        <time>2020-10-16T12:59:07.327Z</time>
      </trkpt>
      <trkpt lat="44.75202" lon="3.7689">
        <ele>975.29620361328</ele>
        <time>2020-10-16T12:59:10.122Z</time>
      </trkpt>
      <trkpt lat="44.75204" lon="3.76883">
        <ele>975.32562255859</ele>
        <time>2020-10-16T12:59:12.918Z</time>
      </trkpt>
      <trkpt lat="44.75206" lon="3.76878">
        <ele>975.29077148438</ele>
        <time>2020-10-16T12:59:15.714Z</time>
      </trkpt>
      <trkpt lat="44.75208" lon="3.76873">
        <ele>975.20611572266</ele>
        <time>2020-10-16T12:59:18.511Z</time>
      </trkpt>
      <trkpt lat="44.7521" lon="3.76868">
        <ele>975.08959960938</ele>
        <time>2020-10-16T12:59:21.309Z</time>
      </trkpt>
      <trkpt lat="44.75212" lon="3.76864">
        <ele>974.92907714844</ele>
        <time>2020-10-16T12:59:24.108Z</time>
      </trkpt>
      <trkpt lat="44.75215" lon="3.7686">
        <ele>975.04821777344</ele>
        <time>2020-10-16T12:59:26.908Z</time>
      </trkpt>
      <trkpt lat="44.75219" lon="3.76858">
        <ele>975.14904785156</ele>
        <time>2020-10-16T12:59:29.708Z</time>
      </trkpt>
      <trkpt lat="44.75222" lon="3.76857">
        <ele>975.11602783203</ele>
        <time>2020-10-16T12:59:32.509Z</time>
      </trkpt>
      <trkpt lat="44.75227" lon="3.76856">
        <ele>975.00408935547</ele>
        <time>2020-10-16T12:59:35.311Z</time>
      </trkpt>
      <trkpt lat="44.75231" lon="3.76857">
        <ele>974.80731201172</ele>
        <time>2020-10-16T12:59:38.114Z</time>
      </trkpt>
      <trkpt lat="44.75235" lon="3.76857">
        <ele>974.66497802734</ele>
        <time>2020-10-16T12:59:40.918Z</time>
      </trkpt>
      <trkpt lat="44.75239" lon="3.76856">
        <ele>974.57543945312</ele>
        <time>2020-10-16T12:59:43.722Z</time>
      </trkpt>
      <trkpt lat="44.75242" lon="3.76855">
        <ele>974.62457275391</ele>
        <time>2020-10-16T12:59:46.527Z</time>
      </trkpt>
      <trkpt lat="44.75245" lon="3.76851">
        <ele>974.55346679688</ele>
        <time>2020-10-16T12:59:49.333Z</time>
      </trkpt>
      <trkpt lat="44.75248" lon="3.76848">
        <ele>974.49890136719</ele>
        <time>2020-10-16T12:59:52.140Z</time>
      </trkpt>
      <trkpt lat="44.75251" lon="3.76843">
        <ele>974.47155761719</ele>
        <time>2020-10-16T12:59:54.948Z</time>
      </trkpt>
      <trkpt lat="44.75252" lon="3.76838">
        <ele>974.47338867188</ele>
        <time>2020-10-16T12:59:57.756Z</time>
      </trkpt>
      <trkpt lat="44.75254" lon="3.76832">
        <ele>974.49053955078</ele>
        <time>2020-10-16T13:00:00.565Z</time>
      </trkpt>
      <trkpt lat="44.75255" lon="3.76826">
        <ele>974.53326416016</ele>
        <time>2020-10-16T13:00:03.375Z</time>
      </trkpt>
      <trkpt lat="44.75255" lon="3.76819">
        <ele>974.68774414062</ele>
        <time>2020-10-16T13:00:06.186Z</time>
      </trkpt>
      <trkpt lat="44.75257" lon="3.76806">
        <ele>975.3271484375</ele>
        <time>2020-10-16T13:00:08.999Z</time>
      </trkpt>
      <trkpt lat="44.75258" lon="3.76795">
        <ele>975.85089111328</ele>
        <time>2020-10-16T13:00:11.814Z</time>
      </trkpt>
      <trkpt lat="44.75262" lon="3.76771">
        <ele>977.01776123047</ele>
        <time>2020-10-16T13:00:14.632Z</time>
      </trkpt>
      <trkpt lat="44.75266" lon="3.76754">
        <ele>977.80487060547</ele>
        <time>2020-10-16T13:00:17.453Z</time>
      </trkpt>
      <trkpt lat="44.75269" lon="3.7674">
        <ele>978.47637939453</ele>
        <time>2020-10-16T13:00:20.276Z</time>
      </trkpt>
      <trkpt lat="44.75272" lon="3.76729">
        <ele>979.03247070312</ele>
        <time>2020-10-16T13:00:23.100Z</time>
      </trkpt>
      <trkpt lat="44.75278" lon="3.7671">
        <ele>979.92578125</ele>
        <time>2020-10-16T13:00:25.927Z</time>
      </trkpt>
      <trkpt lat="44.75283" lon="3.76695">
        <ele>980.67663574219</ele>
        <time>2020-10-16T13:00:28.757Z</time>
      </trkpt>
      <trkpt lat="44.75287" lon="3.76681">
        <ele>981.10461425781</ele>
        <time>2020-10-16T13:00:31.589Z</time>
      </trkpt>
      <trkpt lat="44.75292" lon="3.76666">
        <ele>981.42639160156</ele>
        <time>2020-10-16T13:00:34.423Z</time>
      </trkpt>
      <trkpt lat="44.75297" lon="3.76653">
        <ele>981.75</ele>
        <time>2020-10-16T13:00:37.259Z</time>
      </trkpt>
      <trkpt lat="44.75301" lon="3.76641">
        <ele>982.06616210938</ele>
        <time>2020-10-16T13:00:40.097Z</time>
      </trkpt>
      <trkpt lat="44.75312" lon="3.76613">
        <ele>982.76892089844</ele>
        <time>2020-10-16T13:00:42.940Z</time>
      </trkpt>
      <trkpt lat="44.75316" lon="3.76601">
        <ele>983.21099853516</ele>
        <time>2020-10-16T13:00:45.785Z</time>
      </trkpt>
      <trkpt lat="44.75317" lon="3.76594">
        <ele>983.72442626953</ele>
        <time>2020-10-16T13:00:48.631Z</time>
      </trkpt>
      <trkpt lat="44.7532" lon="3.76582">
        <ele>984.50817871094</ele>
        <time>2020-10-16T13:00:51.478Z</time>
      </trkpt>
      <trkpt lat="44.75321" lon="3.76573">
        <ele>985.11413574219</ele>
        <time>2020-10-16T13:00:54.327Z</time>
      </trkpt>
      <trkpt lat="44.75323" lon="3.76564">
        <ele>985.70458984375</ele>
        <time>2020-10-16T13:00:57.177Z</time>
      </trkpt>
      <trkpt lat="44.75324" lon="3.76557">
        <ele>986.20550537109</ele>
        <time>2020-10-16T13:01:00.028Z</time>
      </trkpt>
      <trkpt lat="44.75325" lon="3.76548">
        <ele>986.89801025391</ele>
        <time>2020-10-16T13:01:02.880Z</time>
      </trkpt>
      <trkpt lat="44.75326" lon="3.76537">
        <ele>987.6875</ele>
        <time>2020-10-16T13:01:05.734Z</time>
      </trkpt>
      <trkpt lat="44.75327" lon="3.76526">
        <ele>988.515625</ele>
        <time>2020-10-16T13:01:08.590Z</time>
      </trkpt>
      <trkpt lat="44.75328" lon="3.76513">
        <ele>989.64855957031</ele>
        <time>2020-10-16T13:01:11.448Z</time>
      </trkpt>
      <trkpt lat="44.75328" lon="3.76502">
        <ele>990.55493164062</ele>
        <time>2020-10-16T13:01:14.307Z</time>
      </trkpt>
      <trkpt lat="44.75329" lon="3.76485">
        <ele>992.04455566406</ele>
        <time>2020-10-16T13:01:17.168Z</time>
      </trkpt>
      <trkpt lat="44.7533" lon="3.76466">
        <ele>993.29998779297</ele>
        <time>2020-10-16T13:01:20.032Z</time>
      </trkpt>
      <trkpt lat="44.7533" lon="3.76452">
        <ele>994.18139648438</ele>
        <time>2020-10-16T13:01:22.898Z</time>
      </trkpt>
      <trkpt lat="44.75331" lon="3.76444">
        <ele>994.67340087891</ele>
        <time>2020-10-16T13:01:25.765Z</time>
      </trkpt>
      <trkpt lat="44.75332" lon="3.76436">
        <ele>995.20379638672</ele>
        <time>2020-10-16T13:01:28.633Z</time>
      </trkpt>
      <trkpt lat="44.75334" lon="3.76425">
        <ele>996.00946044922</ele>
        <time>2020-10-16T13:01:31.503Z</time>
      </trkpt>
      <trkpt lat="44.75337" lon="3.76408">
        <ele>997.33227539062</ele>
        <time>2020-10-16T13:01:34.376Z</time>
      </trkpt>
      <trkpt lat="44.75339" lon="3.7639">
        <ele>998.89221191406</ele>
        <time>2020-10-16T13:01:37.251Z</time>
      </trkpt>
      <trkpt lat="44.75341" lon="3.76381">
        <ele>999.71325683594</ele>
        <time>2020-10-16T13:01:40.128Z</time>
      </trkpt>
      <trkpt lat="44.75341" lon="3.76376">
        <ele>1000.1396484375</ele>
        <time>2020-10-16T13:01:43.005Z</time>
      </trkpt>
      <trkpt lat="44.75342" lon="3.76368">
        <ele>1000.8000488281</ele>
        <time>2020-10-16T13:01:45.883Z</time>
      </trkpt>
      <trkpt lat="44.75342" lon="3.7636">
        <ele>1001.5051269531</ele>
        <time>2020-10-16T13:01:48.763Z</time>
      </trkpt>
      <trkpt lat="44.75342" lon="3.76353">
        <ele>1002.0108032227</ele>
        <time>2020-10-16T13:01:51.643Z</time>
      </trkpt>
      <trkpt lat="44.75342" lon="3.76345">
        <ele>1002.4369506836</ele>
        <time>2020-10-16T13:01:54.525Z</time>
      </trkpt>
      <trkpt lat="44.75344" lon="3.7634">
        <ele>1002.7217407227</ele>
        <time>2020-10-16T13:01:57.407Z</time>
      </trkpt>
      <trkpt lat="44.75345" lon="3.76335">
        <ele>1003.009765625</ele>
        <time>2020-10-16T13:02:00.290Z</time>
      </trkpt>
      <trkpt lat="44.75348" lon="3.76331">
        <ele>1003.3011474609</ele>
        <time>2020-10-16T13:02:03.174Z</time>
      </trkpt>
      <trkpt lat="44.7535" lon="3.76327">
        <ele>1003.7548828125</ele>
        <time>2020-10-16T13:02:06.059Z</time>
      </trkpt>
      <trkpt lat="44.75354" lon="3.76323">
        <ele>1004.2017822266</ele>
        <time>2020-10-16T13:02:08.945Z</time>
      </trkpt>
      <trkpt lat="44.75361" lon="3.76316">
        <ele>1005.134765625</ele>
        <time>2020-10-16T13:02:11.832Z</time>
      </trkpt>
      <trkpt lat="44.75368" lon="3.76307">
        <ele>1006.2600708008</ele>
        <time>2020-10-16T13:02:14.721Z</time>
      </trkpt>
      <trkpt lat="44.75373" lon="3.763">
        <ele>1006.8819580078</ele>
        <time>2020-10-16T13:02:17.612Z</time>
      </trkpt>
      <trkpt lat="44.75377" lon="3.76293">
        <ele>1007.2395019531</ele>
        <time>2020-10-16T13:02:20.504Z</time>
      </trkpt>
      <trkpt lat="44.75381" lon="3.76288">
        <ele>1007.5517578125</ele>
        <time>2020-10-16T13:02:23.397Z</time>
      </trkpt>
      <trkpt lat="44.75384" lon="3.76281">
        <ele>1007.8572998047</ele>
        <time>2020-10-16T13:02:26.291Z</time>
      </trkpt>
      <trkpt lat="44.75387" lon="3.76274">
        <ele>1007.9437255859</ele>
        <time>2020-10-16T13:02:29.186Z</time>
      </trkpt>
      <trkpt lat="44.75389" lon="3.76267">
        <ele>1008.1836547852</ele>
        <time>2020-10-16T13:02:32.082Z</time>
      </trkpt>
      <trkpt lat="44.75395" lon="3.76238">
        <ele>1009.5637207031</ele>
        <time>2020-10-16T13:02:34.983Z</time>
      </trkpt>
      <trkpt lat="44.75396" lon="3.76226">
        <ele>1010.1715087891</ele>
        <time>2020-10-16T13:02:37.885Z</time>
      </trkpt>
      <trkpt lat="44.75397" lon="3.76216">
        <ele>1010.7890625</ele>
        <time>2020-10-16T13:02:40.789Z</time>
      </trkpt>
      <trkpt lat="44.75397" lon="3.76207">
        <ele>1010.9843139648</ele>
        <time>2020-10-16T13:02:43.694Z</time>
      </trkpt>
      <trkpt lat="44.75397" lon="3.76199">
        <ele>1011.0482177734</ele>
        <time>2020-10-16T13:02:46.600Z</time>
      </trkpt>
      <trkpt lat="44.75398" lon="3.76195">
        <ele>1010.951965332</ele>
        <time>2020-10-16T13:02:49.507Z</time>
      </trkpt>
      <trkpt lat="44.754" lon="3.76193">
        <ele>1010.762512207</ele>
        <time>2020-10-16T13:02:52.414Z</time>
      </trkpt>
      <trkpt lat="44.75402" lon="3.76193">
        <ele>1010.5330810547</ele>
        <time>2020-10-16T13:02:55.322Z</time>
      </trkpt>
      <trkpt lat="44.75406" lon="3.76195">
        <ele>1010.1594238281</ele>
        <time>2020-10-16T13:02:58.231Z</time>
      </trkpt>
      <trkpt lat="44.75408" lon="3.76198">
        <ele>1009.8405761719</ele>
        <time>2020-10-16T13:03:01.140Z</time>
      </trkpt>
      <trkpt lat="44.7541" lon="3.76203">
        <ele>1009.5668334961</ele>
        <time>2020-10-16T13:03:04.050Z</time>
      </trkpt>
      <trkpt lat="44.75413" lon="3.76207">
        <ele>1009.2609863281</ele>
        <time>2020-10-16T13:03:06.961Z</time>
      </trkpt>
      <trkpt lat="44.75415" lon="3.76213">
        <ele>1008.9172973633</ele>
        <time>2020-10-16T13:03:09.873Z</time>
      </trkpt>
      <trkpt lat="44.75419" lon="3.76222">
        <ele>1008.4504394531</ele>
        <time>2020-10-16T13:03:12.786Z</time>
      </trkpt>
      <trkpt lat="44.75421" lon="3.76228">
        <ele>1008.1508789062</ele>
        <time>2020-10-16T13:03:15.700Z</time>
      </trkpt>
      <trkpt lat="44.75424" lon="3.76236">
        <ele>1007.7073364258</ele>
        <time>2020-10-16T13:03:18.615Z</time>
      </trkpt>
      <trkpt lat="44.7543" lon="3.76251">
        <ele>1006.6770019531</ele>
        <time>2020-10-16T13:03:21.533Z</time>
      </trkpt>
      <trkpt lat="44.75436" lon="3.76262">
        <ele>1005.632019043</ele>
        <time>2020-10-16T13:03:24.453Z</time>
      </trkpt>
      <trkpt lat="44.7544" lon="3.7627">
        <ele>1004.8992919922</ele>
        <time>2020-10-16T13:03:27.374Z</time>
      </trkpt>
      <trkpt lat="44.75447" lon="3.76283">
        <ele>1003.9797363281</ele>
        <time>2020-10-16T13:03:30.298Z</time>
      </trkpt>
      <trkpt lat="44.75452" lon="3.76288">
        <ele>1003.5356445312</ele>
        <time>2020-10-16T13:03:33.223Z</time>
      </trkpt>
      <trkpt lat="44.75459" lon="3.76298">
        <ele>1003.2023925781</ele>
        <time>2020-10-16T13:03:36.150Z</time>
      </trkpt>
      <trkpt lat="44.75464" lon="3.76304">
        <ele>1003.1694946289</ele>
        <time>2020-10-16T13:03:39.078Z</time>
      </trkpt>
      <trkpt lat="44.75467" lon="3.76309">
        <ele>1003.0979614258</ele>
        <time>2020-10-16T13:03:42.007Z</time>
      </trkpt>
      <trkpt lat="44.75486" lon="3.76337">
        <ele>1002.7515869141</ele>
        <time>2020-10-16T13:03:44.942Z</time>
      </trkpt>
      <trkpt lat="44.75494" lon="3.76348">
        <ele>1002.6598510742</ele>
        <time>2020-10-16T13:03:47.879Z</time>
      </trkpt>
      <trkpt lat="44.75499" lon="3.76355">
        <ele>1002.5411376953</ele>
        <time>2020-10-16T13:03:50.817Z</time>
      </trkpt>
      <trkpt lat="44.75503" lon="3.76362">
        <ele>1002.2705688477</ele>
        <time>2020-10-16T13:03:53.757Z</time>
      </trkpt>
      <trkpt lat="44.75507" lon="3.76371">
        <ele>1001.9250488281</ele>
        <time>2020-10-16T13:03:56.698Z</time>
      </trkpt>
      <trkpt lat="44.75511" lon="3.76379">
        <ele>1001.5694580078</ele>
        <time>2020-10-16T13:03:59.640Z</time>
      </trkpt>
      <trkpt lat="44.75518" lon="3.76391">
        <ele>1001.0918579102</ele>
        <time>2020-10-16T13:04:02.585Z</time>
      </trkpt>
      <trkpt lat="44.75525" lon="3.76402">
        <ele>1000.670715332</ele>
        <time>2020-10-16T13:04:05.532Z</time>
      </trkpt>
      <trkpt lat="44.75552" lon="3.76441">
        <ele>998.34747314453</ele>
        <time>2020-10-16T13:04:08.487Z</time>
      </trkpt>
      <trkpt lat="44.75561" lon="3.76454">
        <ele>997.54608154297</ele>
        <time>2020-10-16T13:04:11.444Z</time>
      </trkpt>
      <trkpt lat="44.75574" lon="3.76473">
        <ele>996.41882324219</ele>
        <time>2020-10-16T13:04:14.405Z</time>
      </trkpt>
      <trkpt lat="44.75582" lon="3.76487">
        <ele>995.57318115234</ele>
        <time>2020-10-16T13:04:17.368Z</time>
      </trkpt>
      <trkpt lat="44.75606" lon="3.76526">
        <ele>992.98510742188</ele>
        <time>2020-10-16T13:04:20.339Z</time>
      </trkpt>
      <trkpt lat="44.75615" lon="3.7654">
        <ele>991.56451416016</ele>
        <time>2020-10-16T13:04:23.312Z</time>
      </trkpt>
      <trkpt lat="44.75628" lon="3.76561">
        <ele>989.76824951172</ele>
        <time>2020-10-16T13:04:26.289Z</time>
      </trkpt>
      <trkpt lat="44.75636" lon="3.76574">
        <ele>988.78125</ele>
        <time>2020-10-16T13:04:29.269Z</time>
      </trkpt>
      <trkpt lat="44.75641" lon="3.76582">
        <ele>988.10668945312</ele>
        <time>2020-10-16T13:04:32.250Z</time>
      </trkpt>
      <trkpt lat="44.75649" lon="3.76595">
        <ele>987.13256835938</ele>
        <time>2020-10-16T13:04:35.234Z</time>
      </trkpt>
      <trkpt lat="44.75654" lon="3.76604">
        <ele>986.47570800781</ele>
        <time>2020-10-16T13:04:38.219Z</time>
      </trkpt>
      <trkpt lat="44.75657" lon="3.76608">
        <ele>986.21478271484</ele>
        <time>2020-10-16T13:04:41.205Z</time>
      </trkpt>
      <trkpt lat="44.7566" lon="3.76612">
        <ele>985.99768066406</ele>
        <time>2020-10-16T13:04:44.192Z</time>
      </trkpt>
      <trkpt lat="44.75664" lon="3.76617">
        <ele>985.76086425781</ele>
        <time>2020-10-16T13:04:47.180Z</time>
      </trkpt>
      <trkpt lat="44.75669" lon="3.76622">
        <ele>985.52801513672</ele>
        <time>2020-10-16T13:04:50.169Z</time>
      </trkpt>
      <trkpt lat="44.75673" lon="3.76627">
        <ele>985.30041503906</ele>
        <time>2020-10-16T13:04:53.159Z</time>
      </trkpt>
      <trkpt lat="44.75676" lon="3.7663">
        <ele>985.15325927734</ele>
        <time>2020-10-16T13:04:56.150Z</time>
      </trkpt>
      <trkpt lat="44.7568" lon="3.76634">
        <ele>984.93371582031</ele>
        <time>2020-10-16T13:04:59.142Z</time>
      </trkpt>
      <trkpt lat="44.75685" lon="3.76639">
        <ele>984.71246337891</ele>
        <time>2020-10-16T13:05:02.135Z</time>
      </trkpt>
      <trkpt lat="44.75688" lon="3.76642">
        <ele>984.56689453125</ele>
        <time>2020-10-16T13:05:05.129Z</time>
      </trkpt>
      <trkpt lat="44.75693" lon="3.76646">
        <ele>984.38024902344</ele>
        <time>2020-10-16T13:05:08.124Z</time>
      </trkpt>
      <trkpt lat="44.75697" lon="3.76648">
        <ele>984.29766845703</ele>
        <time>2020-10-16T13:05:11.120Z</time>
      </trkpt>
      <trkpt lat="44.757" lon="3.76649">
        <ele>984.25244140625</ele>
        <time>2020-10-16T13:05:14.117Z</time>
      </trkpt>
      <trkpt lat="44.75704" lon="3.76651">
        <ele>984.18756103516</ele>
        <time>2020-10-16T13:05:17.114Z</time>
      </trkpt>
      <trkpt lat="44.75708" lon="3.76652">
        <ele>983.94793701172</ele>
        <time>2020-10-16T13:05:20.112Z</time>
      </trkpt>
      <trkpt lat="44.75713" lon="3.76652">
        <ele>983.72930908203</ele>
        <time>2020-10-16T13:05:23.111Z</time>
      </trkpt>
      <trkpt lat="44.75716" lon="3.76652">
        <ele>983.56628417969</ele>
        <time>2020-10-16T13:05:26.111Z</time>
      </trkpt>
      <trkpt lat="44.7572" lon="3.76652">
        <ele>983.41235351562</ele>
        <time>2020-10-16T13:05:29.112Z</time>
      </trkpt>
      <trkpt lat="44.75725" lon="3.76651">
        <ele>983.19610595703</ele>
        <time>2020-10-16T13:05:32.114Z</time>
      </trkpt>
      <trkpt lat="44.75734" lon="3.7665">
        <ele>982.8154296875</ele>
        <time>2020-10-16T13:05:35.118Z</time>
      </trkpt>
      <trkpt lat="44.75742" lon="3.76649">
        <ele>982.47833251953</ele>
        <time>2020-10-16T13:05:38.123Z</time>
      </trkpt>
      <trkpt lat="44.75749" lon="3.76649">
        <ele>982.15356445312</ele>
        <time>2020-10-16T13:05:41.130Z</time>
      </trkpt>
      <trkpt lat="44.75753" lon="3.7665">
        <ele>981.84515380859</ele>
        <time>2020-10-16T13:05:44.137Z</time>
      </trkpt>
      <trkpt lat="44.75758" lon="3.7665">
        <ele>981.53051757812</ele>
        <time>2020-10-16T13:05:47.145Z</time>
      </trkpt>
      <trkpt lat="44.75762" lon="3.76651">
        <ele>981.15148925781</ele>
        <time>2020-10-16T13:05:50.154Z</time>
      </trkpt>
      <trkpt lat="44.75767" lon="3.76653">
        <ele>980.7666015625</ele>
        <time>2020-10-16T13:05:53.164Z</time>
      </trkpt>
      <trkpt lat="44.75771" lon="3.76654">
        <ele>980.44384765625</ele>
        <time>2020-10-16T13:05:56.175Z</time>
      </trkpt>
      <trkpt lat="44.75774" lon="3.76656">
        <ele>980.10723876953</ele>
        <time>2020-10-16T13:05:59.187Z</time>
      </trkpt>
      <trkpt lat="44.75779" lon="3.76658">
        <ele>979.72235107422</ele>
        <time>2020-10-16T13:06:02.200Z</time>
      </trkpt>
      <trkpt lat="44.75783" lon="3.76661">
        <ele>979.31842041016</ele>
        <time>2020-10-16T13:06:05.214Z</time>
      </trkpt>
      <trkpt lat="44.75788" lon="3.76664">
        <ele>978.84552001953</ele>
        <time>2020-10-16T13:06:08.229Z</time>
      </trkpt>
      <trkpt lat="44.75796" lon="3.76669">
        <ele>978.47216796875</ele>
        <time>2020-10-16T13:06:11.245Z</time>
      </trkpt>
      <trkpt lat="44.75839" lon="3.76696">
        <ele>976.78063964844</ele>
        <time>2020-10-16T13:06:14.271Z</time>
      </trkpt>
      <trkpt lat="44.75844" lon="3.767">
        <ele>976.64239501953</ele>
        <time>2020-10-16T13:06:17.298Z</time>
      </trkpt>
      <trkpt lat="44.75849" lon="3.76703">
        <ele>976.52124023438</ele>
        <time>2020-10-16T13:06:20.326Z</time>
      </trkpt>
      <trkpt lat="44.75854" lon="3.76705">
        <ele>976.41168212891</ele>
        <time>2020-10-16T13:06:23.355Z</time>
      </trkpt>
      <trkpt lat="44.75859" lon="3.76707">
        <ele>976.2880859375</ele>
        <time>2020-10-16T13:06:26.385Z</time>
      </trkpt>
      <trkpt lat="44.75864" lon="3.76709">
        <ele>976.16491699219</ele>
        <time>2020-10-16T13:06:29.416Z</time>
      </trkpt>
      <trkpt lat="44.75868" lon="3.7671">
        <ele>976.07989501953</ele>
        <time>2020-10-16T13:06:32.448Z</time>
      </trkpt>
      <trkpt lat="44.75872" lon="3.76712">
        <ele>975.98760986328</ele>
        <time>2020-10-16T13:06:35.481Z</time>
      </trkpt>
      <trkpt lat="44.75875" lon="3.76715">
        <ele>975.89892578125</ele>
        <time>2020-10-16T13:06:38.515Z</time>
      </trkpt>
      <trkpt lat="44.75878" lon="3.76719">
        <ele>975.82745361328</ele>
        <time>2020-10-16T13:06:41.549Z</time>
      </trkpt>
      <trkpt lat="44.75881" lon="3.76723">
        <ele>975.75787353516</ele>
        <time>2020-10-16T13:06:44.584Z</time>
      </trkpt>
      <trkpt lat="44.75883" lon="3.76728">
        <ele>975.71063232422</ele>
        <time>2020-10-16T13:06:47.620Z</time>
      </trkpt>
      <trkpt lat="44.75885" lon="3.76732">
        <ele>975.66510009766</ele>
        <time>2020-10-16T13:06:50.657Z</time>
      </trkpt>
      <trkpt lat="44.75886" lon="3.76737">
        <ele>975.62994384766</ele>
        <time>2020-10-16T13:06:53.695Z</time>
      </trkpt>
      <trkpt lat="44.75888" lon="3.76743">
        <ele>975.60333251953</ele>
        <time>2020-10-16T13:06:56.733Z</time>
      </trkpt>
      <trkpt lat="44.75889" lon="3.76748">
        <ele>975.58020019531</ele>
        <time>2020-10-16T13:06:59.772Z</time>
      </trkpt>
      <trkpt lat="44.75889" lon="3.76752">
        <ele>975.56207275391</ele>
        <time>2020-10-16T13:07:02.812Z</time>
      </trkpt>
      <trkpt lat="44.7589" lon="3.76757">
        <ele>975.55096435547</ele>
        <time>2020-10-16T13:07:05.853Z</time>
      </trkpt>
      <trkpt lat="44.7589" lon="3.76763">
        <ele>975.544921875</ele>
        <time>2020-10-16T13:07:08.894Z</time>
      </trkpt>
      <trkpt lat="44.7589" lon="3.76772">
        <ele>975.48266601562</ele>
        <time>2020-10-16T13:07:11.937Z</time>
      </trkpt>
      <trkpt lat="44.7589" lon="3.76777">
        <ele>975.18933105469</ele>
        <time>2020-10-16T13:07:14.980Z</time>
      </trkpt>
      <trkpt lat="44.75891" lon="3.76787">
        <ele>974.57116699219</ele>
        <time>2020-10-16T13:07:18.025Z</time>
      </trkpt>
      <trkpt lat="44.75891" lon="3.76796">
        <ele>974.14477539062</ele>
        <time>2020-10-16T13:07:21.071Z</time>
      </trkpt>
      <trkpt lat="44.75893" lon="3.76812">
        <ele>973.46105957031</ele>
        <time>2020-10-16T13:07:24.119Z</time>
      </trkpt>
      <trkpt lat="44.75894" lon="3.76819">
        <ele>973.17291259766</ele>
        <time>2020-10-16T13:07:27.168Z</time>
      </trkpt>
      <trkpt lat="44.75895" lon="3.76826">
        <ele>972.85296630859</ele>
        <time>2020-10-16T13:07:30.218Z</time>
      </trkpt>
      <trkpt lat="44.75896" lon="3.76831">
        <ele>972.65045166016</ele>
        <time>2020-10-16T13:07:33.269Z</time>
      </trkpt>
      <trkpt lat="44.75897" lon="3.76835">
        <ele>972.45227050781</ele>
        <time>2020-10-16T13:07:36.321Z</time>
      </trkpt>
      <trkpt lat="44.75899" lon="3.76836">
        <ele>972.33325195312</ele>
        <time>2020-10-16T13:07:39.373Z</time>
      </trkpt>
      <trkpt lat="44.75901" lon="3.76836">
        <ele>972.21893310547</ele>
        <time>2020-10-16T13:07:42.426Z</time>
      </trkpt>
      <trkpt lat="44.75904" lon="3.76835">
        <ele>972.13677978516</ele>
        <time>2020-10-16T13:07:45.479Z</time>
      </trkpt>
      <trkpt lat="44.75906" lon="3.76833">
        <ele>972.09918212891</ele>
        <time>2020-10-16T13:07:48.533Z</time>
      </trkpt>
      <trkpt lat="44.75908" lon="3.7683">
        <ele>972.07946777344</ele>
        <time>2020-10-16T13:07:51.587Z</time>
      </trkpt>
      <trkpt lat="44.75911" lon="3.76826">
        <ele>972.11254882812</ele>
        <time>2020-10-16T13:07:54.642Z</time>
      </trkpt>
      <trkpt lat="44.75915" lon="3.7682">
        <ele>972.13671875</ele>
        <time>2020-10-16T13:07:57.698Z</time>
      </trkpt>
      <trkpt lat="44.75922" lon="3.76809">
        <ele>972.51580810547</ele>
        <time>2020-10-16T13:08:00.756Z</time>
      </trkpt>
      <trkpt lat="44.75931" lon="3.76796">
        <ele>973.09326171875</ele>
        <time>2020-10-16T13:08:03.817Z</time>
      </trkpt>
      <trkpt lat="44.75942" lon="3.7678">
        <ele>973.76397705078</ele>
        <time>2020-10-16T13:08:06.881Z</time>
      </trkpt>
      <trkpt lat="44.75954" lon="3.76764">
        <ele>974.10040283203</ele>
        <time>2020-10-16T13:08:09.948Z</time>
      </trkpt>
      <trkpt lat="44.75964" lon="3.76749">
        <ele>973.48614501953</ele>
        <time>2020-10-16T13:08:13.018Z</time>
      </trkpt>
      <trkpt lat="44.7597" lon="3.76739">
        <ele>973.09429931641</ele>
        <time>2020-10-16T13:08:16.090Z</time>
      </trkpt>
      <trkpt lat="44.75975" lon="3.76731">
        <ele>972.76843261719</ele>
        <time>2020-10-16T13:08:19.164Z</time>
      </trkpt>
      <trkpt lat="44.7598" lon="3.76722">
        <ele>972.45965576172</ele>
        <time>2020-10-16T13:08:22.239Z</time>
      </trkpt>
      <trkpt lat="44.75985" lon="3.76713">
        <ele>971.86712646484</ele>
        <time>2020-10-16T13:08:25.316Z</time>
      </trkpt>
      <trkpt lat="44.75991" lon="3.76702">
        <ele>970.72137451172</ele>
        <time>2020-10-16T13:08:28.395Z</time>
      </trkpt>
      <trkpt lat="44.75996" lon="3.76692">
        <ele>969.63677978516</ele>
        <time>2020-10-16T13:08:31.476Z</time>
      </trkpt>
      <trkpt lat="44.76004" lon="3.76681">
        <ele>968.16815185547</ele>
        <time>2020-10-16T13:08:34.559Z</time>
      </trkpt>
      <trkpt lat="44.76013" lon="3.7667">
        <ele>966.66564941406</ele>
        <time>2020-10-16T13:08:37.644Z</time>
      </trkpt>
      <trkpt lat="44.76017" lon="3.76664">
        <ele>965.95483398438</ele>
        <time>2020-10-16T13:08:40.730Z</time>
      </trkpt>
      <trkpt lat="44.76021" lon="3.7666">
        <ele>965.47222900391</ele>
        <time>2020-10-16T13:08:43.817Z</time>
      </trkpt>
      <trkpt lat="44.76025" lon="3.76657">
        <ele>964.95239257812</ele>
        <time>2020-10-16T13:08:46.905Z</time>
      </trkpt>
      <trkpt lat="44.76031" lon="3.76652">
        <ele>964.26110839844</ele>
        <time>2020-10-16T13:08:49.995Z</time>
      </trkpt>
      <trkpt lat="44.76052" lon="3.76639">
        <ele>961.55712890625</ele>
        <time>2020-10-16T13:08:53.089Z</time>
      </trkpt>
      <trkpt lat="44.76057" lon="3.76635">
        <ele>960.85791015625</ele>
        <time>2020-10-16T13:08:56.184Z</time>
      </trkpt>
      <trkpt lat="44.76063" lon="3.76628">
        <ele>960.08776855469</ele>
        <time>2020-10-16T13:08:59.281Z</time>
      </trkpt>
      <trkpt lat="44.76066" lon="3.76624">
        <ele>960.11682128906</ele>
        <time>2020-10-16T13:09:02.379Z</time>
      </trkpt>
      <trkpt lat="44.76069" lon="3.76619">
        <ele>960.23168945312</ele>
        <time>2020-10-16T13:09:05.478Z</time>
      </trkpt>
      <trkpt lat="44.76072" lon="3.76614">
        <ele>960.36309814453</ele>
        <time>2020-10-16T13:09:08.578Z</time>
      </trkpt>
      <trkpt lat="44.76076" lon="3.76606">
        <ele>960.58544921875</ele>
        <time>2020-10-16T13:09:11.679Z</time>
      </trkpt>
      <trkpt lat="44.76082" lon="3.76596">
        <ele>960.36492919922</ele>
        <time>2020-10-16T13:09:14.782Z</time>
      </trkpt>
      <trkpt lat="44.76086" lon="3.7659">
        <ele>960.13372802734</ele>
        <time>2020-10-16T13:09:17.886Z</time>
      </trkpt>
      <trkpt lat="44.76091" lon="3.76584">
        <ele>959.81677246094</ele>
        <time>2020-10-16T13:09:20.991Z</time>
      </trkpt>
      <trkpt lat="44.76095" lon="3.7658">
        <ele>959.55816650391</ele>
        <time>2020-10-16T13:09:24.097Z</time>
      </trkpt>
      <trkpt lat="44.76099" lon="3.76578">
        <ele>959.99017333984</ele>
        <time>2020-10-16T13:09:27.204Z</time>
      </trkpt>
      <trkpt lat="44.76103" lon="3.76576">
        <ele>960.57757568359</ele>
        <time>2020-10-16T13:09:30.312Z</time>
      </trkpt>
      <trkpt lat="44.76107" lon="3.76575">
        <ele>961.03869628906</ele>
        <time>2020-10-16T13:09:33.421Z</time>
      </trkpt>
      <trkpt lat="44.7611" lon="3.76575">
        <ele>961.33807373047</ele>
        <time>2020-10-16T13:09:36.531Z</time>
      </trkpt>
      <trkpt lat="44.76114" lon="3.76576">
        <ele>961.43707275391</ele>
        <time>2020-10-16T13:09:39.641Z</time>
      </trkpt>
      <trkpt lat="44.76118" lon="3.76579">
        <ele>961.42205810547</ele>
        <time>2020-10-16T13:09:42.752Z</time>
      </trkpt>
      <trkpt lat="44.76125" lon="3.76585">
        <ele>961.17572021484</ele>
        <time>2020-10-16T13:09:45.865Z</time>
      </trkpt>
      <trkpt lat="44.76136" lon="3.76594">
        <ele>960.91278076172</ele>
        <time>2020-10-16T13:09:48.980Z</time>
      </trkpt>
      <trkpt lat="44.76149" lon="3.76601">
        <ele>961.10882568359</ele>
        <time>2020-10-16T13:09:52.098Z</time>
      </trkpt>
      <trkpt lat="44.76161" lon="3.76603">
        <ele>961.95495605469</ele>
        <time>2020-10-16T13:09:55.219Z</time>
      </trkpt>
      <trkpt lat="44.76166" lon="3.76604">
        <ele>962.38214111328</ele>
        <time>2020-10-16T13:09:58.341Z</time>
      </trkpt>
      <trkpt lat="44.76172" lon="3.76603">
        <ele>963.07293701172</ele>
        <time>2020-10-16T13:10:01.464Z</time>
      </trkpt>
      <trkpt lat="44.76175" lon="3.76601">
        <ele>963.71905517578</ele>
        <time>2020-10-16T13:10:04.588Z</time>
      </trkpt>
      <trkpt lat="44.76177" lon="3.76599">
        <ele>964.15032958984</ele>
        <time>2020-10-16T13:10:07.712Z</time>
      </trkpt>
      <trkpt lat="44.76177" lon="3.76596">
        <ele>964.611328125</ele>
        <time>2020-10-16T13:10:10.836Z</time>
      </trkpt>
      <trkpt lat="44.76177" lon="3.76592">
        <ele>965.21392822266</ele>
        <time>2020-10-16T13:10:13.961Z</time>
      </trkpt>
      <trkpt lat="44.76177" lon="3.76582">
        <ele>966.62542724609</ele>
        <time>2020-10-16T13:10:17.087Z</time>
      </trkpt>
      <trkpt lat="44.76175" lon="3.76572">
        <ele>967.75311279297</ele>
        <time>2020-10-16T13:10:20.215Z</time>
      </trkpt>
      <trkpt lat="44.76173" lon="3.76557">
        <ele>969.48638916016</ele>
        <time>2020-10-16T13:10:23.345Z</time>
      </trkpt>
      <trkpt lat="44.7617" lon="3.7654">
        <ele>971.33251953125</ele>
        <time>2020-10-16T13:10:26.478Z</time>
      </trkpt>
      <trkpt lat="44.7617" lon="3.76532">
        <ele>972.18444824219</ele>
        <time>2020-10-16T13:10:29.612Z</time>
      </trkpt>
      <trkpt lat="44.76166" lon="3.76519">
        <ele>973.51940917969</ele>
        <time>2020-10-16T13:10:32.748Z</time>
      </trkpt>
      <trkpt lat="44.76161" lon="3.76503">
        <ele>975.22430419922</ele>
        <time>2020-10-16T13:10:35.886Z</time>
      </trkpt>
      <trkpt lat="44.7615" lon="3.76483">
        <ele>977.16265869141</ele>
        <time>2020-10-16T13:10:39.028Z</time>
      </trkpt>
      <trkpt lat="44.7614" lon="3.76464">
        <ele>978.89343261719</ele>
        <time>2020-10-16T13:10:42.173Z</time>
      </trkpt>
      <trkpt lat="44.76132" lon="3.76449">
        <ele>980.25372314453</ele>
        <time>2020-10-16T13:10:45.321Z</time>
      </trkpt>
      <trkpt lat="44.76121" lon="3.76426">
        <ele>981.51184082031</ele>
        <time>2020-10-16T13:10:48.473Z</time>
      </trkpt>
      <trkpt lat="44.76111" lon="3.76407">
        <ele>981.2626953125</ele>
        <time>2020-10-16T13:10:51.628Z</time>
      </trkpt>
      <trkpt lat="44.76106" lon="3.76393">
        <ele>981.31182861328</ele>
        <time>2020-10-16T13:10:54.785Z</time>
      </trkpt>
      <trkpt lat="44.76101" lon="3.76378">
        <ele>981.49163818359</ele>
        <time>2020-10-16T13:10:57.945Z</time>
      </trkpt>
      <trkpt lat="44.76096" lon="3.76363">
        <ele>981.59387207031</ele>
        <time>2020-10-16T13:11:01.107Z</time>
      </trkpt>
      <trkpt lat="44.76092" lon="3.76352">
        <ele>981.70928955078</ele>
        <time>2020-10-16T13:11:04.271Z</time>
      </trkpt>
      <trkpt lat="44.76087" lon="3.76341">
        <ele>982.24444580078</ele>
        <time>2020-10-16T13:11:07.437Z</time>
      </trkpt>
      <trkpt lat="44.76077" lon="3.76323">
        <ele>982.69091796875</ele>
        <time>2020-10-16T13:11:10.606Z</time>
      </trkpt>
      <trkpt lat="44.7607" lon="3.76314">
        <ele>982.77606201172</ele>
        <time>2020-10-16T13:11:13.777Z</time>
      </trkpt>
      <trkpt lat="44.7606" lon="3.76301">
        <ele>982.78198242188</ele>
        <time>2020-10-16T13:11:16.950Z</time>
      </trkpt>
      <trkpt lat="44.76054" lon="3.76293">
        <ele>982.85614013672</ele>
        <time>2020-10-16T13:11:20.125Z</time>
      </trkpt>
      <trkpt lat="44.76044" lon="3.76279">
        <ele>983.08288574219</ele>
        <time>2020-10-16T13:11:23.303Z</time>
      </trkpt>
      <trkpt lat="44.76031" lon="3.76257">
        <ele>983.93347167969</ele>
        <time>2020-10-16T13:11:26.485Z</time>
      </trkpt>
      <trkpt lat="44.76024" lon="3.76245">
        <ele>984.66882324219</ele>
        <time>2020-10-16T13:11:29.669Z</time>
      </trkpt>
      <trkpt lat="44.76017" lon="3.76233">
        <ele>985.45501708984</ele>
        <time>2020-10-16T13:11:32.855Z</time>
      </trkpt>
      <trkpt lat="44.76014" lon="3.76225">
        <ele>986.00134277344</ele>
        <time>2020-10-16T13:11:36.043Z</time>
      </trkpt>
      <trkpt lat="44.76007" lon="3.76204">
        <ele>987.50720214844</ele>
        <time>2020-10-16T13:11:39.234Z</time>
      </trkpt>
      <trkpt lat="44.75995" lon="3.7617">
        <ele>989.07861328125</ele>
        <time>2020-10-16T13:11:42.430Z</time>
      </trkpt>
      <trkpt lat="44.7598" lon="3.76131">
        <ele>989.9736328125</ele>
        <time>2020-10-16T13:11:45.633Z</time>
      </trkpt>
      <trkpt lat="44.75976" lon="3.76117">
        <ele>990.30950927734</ele>
        <time>2020-10-16T13:11:48.838Z</time>
      </trkpt>
      <trkpt lat="44.75969" lon="3.76095">
        <ele>991.39514160156</ele>
        <time>2020-10-16T13:11:52.046Z</time>
      </trkpt>
      <trkpt lat="44.75962" lon="3.76075">
        <ele>993.08032226562</ele>
        <time>2020-10-16T13:11:55.258Z</time>
      </trkpt>
      <trkpt lat="44.75957" lon="3.76064">
        <ele>993.9736328125</ele>
        <time>2020-10-16T13:11:58.471Z</time>
      </trkpt>
      <trkpt lat="44.75949" lon="3.76043">
        <ele>995.93725585938</ele>
        <time>2020-10-16T13:12:01.688Z</time>
      </trkpt>
      <trkpt lat="44.7594" lon="3.76019">
        <ele>998.45391845703</ele>
        <time>2020-10-16T13:12:04.909Z</time>
      </trkpt>
      <trkpt lat="44.75933" lon="3.76005">
        <ele>1000.3681030273</ele>
        <time>2020-10-16T13:12:08.132Z</time>
      </trkpt>
      <trkpt lat="44.75928" lon="3.75994">
        <ele>1001.8911743164</ele>
        <time>2020-10-16T13:12:11.357Z</time>
      </trkpt>
      <trkpt lat="44.75917" lon="3.75975">
        <ele>1004.1170654297</ele>
        <time>2020-10-16T13:12:14.585Z</time>
      </trkpt>
      <trkpt lat="44.75911" lon="3.75967">
        <ele>1005.1868286133</ele>
        <time>2020-10-16T13:12:17.815Z</time>
      </trkpt>
      <trkpt lat="44.75898" lon="3.75949">
        <ele>1007.4545898438</ele>
        <time>2020-10-16T13:12:21.049Z</time>
      </trkpt>
      <trkpt lat="44.75888" lon="3.75937">
        <ele>1009.0264282227</ele>
        <time>2020-10-16T13:12:24.285Z</time>
      </trkpt>
      <trkpt lat="44.75881" lon="3.75927">
        <ele>1010.1611938477</ele>
        <time>2020-10-16T13:12:27.523Z</time>
      </trkpt>
      <trkpt lat="44.75877" lon="3.75921">
        <ele>1010.8282470703</ele>
        <time>2020-10-16T13:12:30.762Z</time>
      </trkpt>
      <trkpt lat="44.75869" lon="3.75903">
        <ele>1012.5860595703</ele>
        <time>2020-10-16T13:12:34.004Z</time>
      </trkpt>
      <trkpt lat="44.75857" lon="3.75878">
        <ele>1015.319519043</ele>
        <time>2020-10-16T13:12:37.251Z</time>
      </trkpt>
      <trkpt lat="44.75854" lon="3.75869">
        <ele>1016.1369018555</ele>
        <time>2020-10-16T13:12:40.499Z</time>
      </trkpt>
      <trkpt lat="44.75852" lon="3.75864">
        <ele>1016.660949707</ele>
        <time>2020-10-16T13:12:43.748Z</time>
      </trkpt>
      <trkpt lat="44.7585" lon="3.75855">
        <ele>1017.475769043</ele>
        <time>2020-10-16T13:12:46.998Z</time>
      </trkpt>
      <trkpt lat="44.7585" lon="3.75847">
        <ele>1017.8076171875</ele>
        <time>2020-10-16T13:12:50.250Z</time>
      </trkpt>
      <trkpt lat="44.75851" lon="3.75796">
        <ele>1021.3544311523</ele>
        <time>2020-10-16T13:12:53.509Z</time>
      </trkpt>
      <trkpt lat="44.75851" lon="3.75785">
        <ele>1022.3170166016</ele>
        <time>2020-10-16T13:12:56.769Z</time>
      </trkpt>
      <trkpt lat="44.75851" lon="3.75778">
        <ele>1022.9198608398</ele>
        <time>2020-10-16T13:13:00.030Z</time>
      </trkpt>
      <trkpt lat="44.7585" lon="3.75772">
        <ele>1023.4406738281</ele>
        <time>2020-10-16T13:13:03.292Z</time>
      </trkpt>
      <trkpt lat="44.75848" lon="3.75767">
        <ele>1023.5528564453</ele>
        <time>2020-10-16T13:13:06.555Z</time>
      </trkpt>
      <trkpt lat="44.75842" lon="3.75752">
        <ele>1023.6945800781</ele>
        <time>2020-10-16T13:13:09.820Z</time>
      </trkpt>
      <trkpt lat="44.75833" lon="3.75732">
        <ele>1023.9306640625</ele>
        <time>2020-10-16T13:13:13.089Z</time>
      </trkpt>
      <trkpt lat="44.75829" lon="3.75724">
        <ele>1024.0672607422</ele>
        <time>2020-10-16T13:13:16.359Z</time>
      </trkpt>
      <trkpt lat="44.75827" lon="3.75715">
        <ele>1024.2060546875</ele>
        <time>2020-10-16T13:13:19.631Z</time>
      </trkpt>
      <trkpt lat="44.75821" lon="3.75693">
        <ele>1024.5372314453</ele>
        <time>2020-10-16T13:13:22.906Z</time>
      </trkpt>
      <trkpt lat="44.75818" lon="3.75682">
        <ele>1024.7807617188</ele>
        <time>2020-10-16T13:13:26.183Z</time>
      </trkpt>
      <trkpt lat="44.75815" lon="3.75674">
        <ele>1025.0123291016</ele>
        <time>2020-10-16T13:13:29.461Z</time>
      </trkpt>
      <trkpt lat="44.75807" lon="3.75659">
        <ele>1025.4477539062</ele>
        <time>2020-10-16T13:13:32.742Z</time>
      </trkpt>
      <trkpt lat="44.75785" lon="3.75619">
        <ele>1026.6804199219</ele>
        <time>2020-10-16T13:13:36.030Z</time>
      </trkpt>
      <trkpt lat="44.75765" lon="3.75582">
        <ele>1027.0041503906</ele>
        <time>2020-10-16T13:13:39.324Z</time>
      </trkpt>
      <trkpt lat="44.75754" lon="3.75557">
        <ele>1026.6754150391</ele>
        <time>2020-10-16T13:13:42.623Z</time>
      </trkpt>
      <trkpt lat="44.75746" lon="3.75537">
        <ele>1026.3829345703</ele>
        <time>2020-10-16T13:13:45.925Z</time>
      </trkpt>
      <trkpt lat="44.75736" lon="3.75513">
        <ele>1025.9649658203</ele>
        <time>2020-10-16T13:13:49.231Z</time>
      </trkpt>
      <trkpt lat="44.75727" lon="3.75498">
        <ele>1025.6055908203</ele>
        <time>2020-10-16T13:13:52.540Z</time>
      </trkpt>
      <trkpt lat="44.75735" lon="3.75494">
        <ele>1025.3032226562</ele>
        <time>2020-10-16T13:13:55.850Z</time>
      </trkpt>
      <trkpt lat="44.75743" lon="3.75487">
        <ele>1024.8403320312</ele>
        <time>2020-10-16T13:13:59.162Z</time>
      </trkpt>
      <trkpt lat="44.7575" lon="3.7548">
        <ele>1024.4206542969</ele>
        <time>2020-10-16T13:14:02.476Z</time>
      </trkpt>
      <trkpt lat="44.75754" lon="3.75474">
        <ele>1023.9767456055</ele>
        <time>2020-10-16T13:14:05.791Z</time>
      </trkpt>
      <trkpt lat="44.75758" lon="3.75469">
        <ele>1023.5930786133</ele>
        <time>2020-10-16T13:14:09.107Z</time>
      </trkpt>
      <trkpt lat="44.75765" lon="3.75457">
        <ele>1022.7224121094</ele>
        <time>2020-10-16T13:14:12.425Z</time>
      </trkpt>
      <trkpt lat="44.75772" lon="3.75443">
        <ele>1021.8278198242</ele>
        <time>2020-10-16T13:14:15.746Z</time>
      </trkpt>
      <trkpt lat="44.7578" lon="3.75429">
        <ele>1020.4981079102</ele>
        <time>2020-10-16T13:14:19.069Z</time>
      </trkpt>
      <trkpt lat="44.75795" lon="3.75401">
        <ele>1019.3466796875</ele>
        <time>2020-10-16T13:14:22.397Z</time>
      </trkpt>
      <trkpt lat="44.75806" lon="3.75382">
        <ele>1018.5314331055</ele>
        <time>2020-10-16T13:14:25.729Z</time>
      </trkpt>
      <trkpt lat="44.75822" lon="3.75352">
        <ele>1018.1434936523</ele>
        <time>2020-10-16T13:14:29.066Z</time>
      </trkpt>
      <trkpt lat="44.75841" lon="3.75319">
        <ele>1017.5518188477</ele>
        <time>2020-10-16T13:14:32.409Z</time>
      </trkpt>
      <trkpt lat="44.7585" lon="3.7533">
        <ele>1018.3049316406</ele>
        <time>2020-10-16T13:14:35.755Z</time>
      </trkpt>
      <trkpt lat="44.7586" lon="3.75344">
        <ele>1019.1328125</ele>
        <time>2020-10-16T13:14:39.103Z</time>
      </trkpt>
      <trkpt lat="44.75873" lon="3.75364">
        <ele>1020.104675293</ele>
        <time>2020-10-16T13:14:42.455Z</time>
      </trkpt>
      <trkpt lat="44.75889" lon="3.7539">
        <ele>1019.7621459961</ele>
        <time>2020-10-16T13:14:45.812Z</time>
      </trkpt>
      <trkpt lat="44.75897" lon="3.75401">
        <ele>1019.5827026367</ele>
        <time>2020-10-16T13:14:49.171Z</time>
      </trkpt>
      <trkpt lat="44.75906" lon="3.75414">
        <ele>1019.3559570312</ele>
        <time>2020-10-16T13:14:52.533Z</time>
      </trkpt>
      <trkpt lat="44.75919" lon="3.75432">
        <ele>1018.9852294922</ele>
        <time>2020-10-16T13:14:55.899Z</time>
      </trkpt>
      <trkpt lat="44.75932" lon="3.75451">
        <ele>1018.1884765625</ele>
        <time>2020-10-16T13:14:59.268Z</time>
      </trkpt>
      <trkpt lat="44.75955" lon="3.75482">
        <ele>1016.4279785156</ele>
        <time>2020-10-16T13:15:02.644Z</time>
      </trkpt>
      <trkpt lat="44.75972" lon="3.75505">
        <ele>1014.6943359375</ele>
        <time>2020-10-16T13:15:06.024Z</time>
      </trkpt>
      <trkpt lat="44.75994" lon="3.75509">
        <ele>1012.8198242188</ele>
        <time>2020-10-16T13:15:09.409Z</time>
      </trkpt>
      <trkpt lat="44.76006" lon="3.7551">
        <ele>1011.8342895508</ele>
        <time>2020-10-16T13:15:12.796Z</time>
      </trkpt>
      <trkpt lat="44.76013" lon="3.7551">
        <ele>1011.2105712891</ele>
        <time>2020-10-16T13:15:16.185Z</time>
      </trkpt>
      <trkpt lat="44.76021" lon="3.75508">
        <ele>1010.5249023438</ele>
        <time>2020-10-16T13:15:19.575Z</time>
      </trkpt>
      <trkpt lat="44.76026" lon="3.75506">
        <ele>1010.1853637695</ele>
        <time>2020-10-16T13:15:22.966Z</time>
      </trkpt>
      <trkpt lat="44.76035" lon="3.75502">
        <ele>1009.6373291016</ele>
        <time>2020-10-16T13:15:26.359Z</time>
      </trkpt>
      <trkpt lat="44.76045" lon="3.75497">
        <ele>1009.4950561523</ele>
        <time>2020-10-16T13:15:29.754Z</time>
      </trkpt>
      <trkpt lat="44.76056" lon="3.75491">
        <ele>1009.4905395508</ele>
        <time>2020-10-16T13:15:33.152Z</time>
      </trkpt>
      <trkpt lat="44.76073" lon="3.75485">
        <ele>1009.4408569336</ele>
        <time>2020-10-16T13:15:36.553Z</time>
      </trkpt>
      <trkpt lat="44.76081" lon="3.75482">
        <ele>1009.4249267578</ele>
        <time>2020-10-16T13:15:39.956Z</time>
      </trkpt>
      <trkpt lat="44.76093" lon="3.75476">
        <ele>1008.1662597656</ele>
        <time>2020-10-16T13:15:43.361Z</time>
      </trkpt>
      <trkpt lat="44.76104" lon="3.7547">
        <ele>1006.999206543</ele>
        <time>2020-10-16T13:15:46.769Z</time>
      </trkpt>
      <trkpt lat="44.76113" lon="3.75465">
        <ele>1005.9672241211</ele>
        <time>2020-10-16T13:15:50.179Z</time>
      </trkpt>
      <trkpt lat="44.7612" lon="3.75462">
        <ele>1005.2412719727</ele>
        <time>2020-10-16T13:15:53.590Z</time>
      </trkpt>
      <trkpt lat="44.76145" lon="3.75453">
        <ele>1004.0658569336</ele>
        <time>2020-10-16T13:15:57.006Z</time>
      </trkpt>
      <trkpt lat="44.76155" lon="3.7545">
        <ele>1003.1607666016</ele>
        <time>2020-10-16T13:16:00.424Z</time>
      </trkpt>
      <trkpt lat="44.76166" lon="3.75446">
        <ele>1002.0684204102</ele>
        <time>2020-10-16T13:16:03.845Z</time>
      </trkpt>
      <trkpt lat="44.76171" lon="3.75444">
        <ele>1001.6024169922</ele>
        <time>2020-10-16T13:16:07.267Z</time>
      </trkpt>
      <trkpt lat="44.76177" lon="3.75441">
        <ele>1000.9045410156</ele>
        <time>2020-10-16T13:16:10.690Z</time>
      </trkpt>
      <trkpt lat="44.76184" lon="3.75437">
        <ele>1000.236328125</ele>
        <time>2020-10-16T13:16:14.115Z</time>
      </trkpt>
      <trkpt lat="44.76193" lon="3.75432">
        <ele>999.92944335938</ele>
        <time>2020-10-16T13:16:17.541Z</time>
      </trkpt>
      <trkpt lat="44.76197" lon="3.75431">
        <ele>999.78656005859</ele>
        <time>2020-10-16T13:16:20.968Z</time>
      </trkpt>
      <trkpt lat="44.76208" lon="3.75428">
        <ele>999.66687011719</ele>
        <time>2020-10-16T13:16:24.397Z</time>
      </trkpt>
      <trkpt lat="44.76215" lon="3.75427">
        <ele>999.55688476562</ele>
        <time>2020-10-16T13:16:27.828Z</time>
      </trkpt>
      <trkpt lat="44.76221" lon="3.75425">
        <ele>999.51580810547</ele>
        <time>2020-10-16T13:16:31.260Z</time>
      </trkpt>
      <trkpt lat="44.76225" lon="3.75423">
        <ele>999.52728271484</ele>
        <time>2020-10-16T13:16:34.693Z</time>
      </trkpt>
      <trkpt lat="44.76234" lon="3.75419">
        <ele>999.51281738281</ele>
        <time>2020-10-16T13:16:38.128Z</time>
      </trkpt>
      <trkpt lat="44.76245" lon="3.75415">
        <ele>999.42633056641</ele>
        <time>2020-10-16T13:16:41.565Z</time>
      </trkpt>
      <trkpt lat="44.76252" lon="3.75413">
        <ele>999.37384033203</ele>
        <time>2020-10-16T13:16:45.004Z</time>
      </trkpt>
      <trkpt lat="44.76257" lon="3.75412">
        <ele>999.25268554688</ele>
        <time>2020-10-16T13:16:48.444Z</time>
      </trkpt>
      <trkpt lat="44.76264" lon="3.75411">
        <ele>999.04614257812</ele>
        <time>2020-10-16T13:16:51.885Z</time>
      </trkpt>
      <trkpt lat="44.7627" lon="3.75412">
        <ele>998.78533935547</ele>
        <time>2020-10-16T13:16:55.327Z</time>
      </trkpt>
      <trkpt lat="44.76275" lon="3.75413">
        <ele>998.53076171875</ele>
        <time>2020-10-16T13:16:58.770Z</time>
      </trkpt>
      <trkpt lat="44.76279" lon="3.75415">
        <ele>998.23858642578</ele>
        <time>2020-10-16T13:17:02.214Z</time>
      </trkpt>
      <trkpt lat="44.76282" lon="3.75417">
        <ele>997.94500732422</ele>
        <time>2020-10-16T13:17:05.659Z</time>
      </trkpt>
      <trkpt lat="44.76285" lon="3.75419">
        <ele>997.67279052734</ele>
        <time>2020-10-16T13:17:09.104Z</time>
      </trkpt>
      <trkpt lat="44.76289" lon="3.75421">
        <ele>997.41375732422</ele>
        <time>2020-10-16T13:17:12.550Z</time>
      </trkpt>
      <trkpt lat="44.76301" lon="3.75432">
        <ele>997.26098632812</ele>
        <time>2020-10-16T13:17:15.999Z</time>
      </trkpt>
      <trkpt lat="44.76307" lon="3.75437">
        <ele>997.20947265625</ele>
        <time>2020-10-16T13:17:19.449Z</time>
      </trkpt>
      <trkpt lat="44.76317" lon="3.75444">
        <ele>997.02294921875</ele>
        <time>2020-10-16T13:17:22.902Z</time>
      </trkpt>
      <trkpt lat="44.76325" lon="3.75449">
        <ele>997.00433349609</ele>
        <time>2020-10-16T13:17:26.356Z</time>
      </trkpt>
      <trkpt lat="44.76334" lon="3.75454">
        <ele>997.02270507812</ele>
        <time>2020-10-16T13:17:29.812Z</time>
      </trkpt>
      <trkpt lat="44.76343" lon="3.75457">
        <ele>997.22570800781</ele>
        <time>2020-10-16T13:17:33.270Z</time>
      </trkpt>
      <trkpt lat="44.7635" lon="3.75458">
        <ele>997.45941162109</ele>
        <time>2020-10-16T13:17:36.730Z</time>
      </trkpt>
      <trkpt lat="44.76356" lon="3.7546">
        <ele>997.69677734375</ele>
        <time>2020-10-16T13:17:40.191Z</time>
      </trkpt>
      <trkpt lat="44.76364" lon="3.7546">
        <ele>998.12854003906</ele>
        <time>2020-10-16T13:17:43.653Z</time>
      </trkpt>
      <trkpt lat="44.76371" lon="3.7546">
        <ele>998.55352783203</ele>
        <time>2020-10-16T13:17:47.117Z</time>
      </trkpt>
      <trkpt lat="44.76377" lon="3.75459">
        <ele>998.85314941406</ele>
        <time>2020-10-16T13:17:50.582Z</time>
      </trkpt>
      <trkpt lat="44.76382" lon="3.75457">
        <ele>999.12915039062</ele>
        <time>2020-10-16T13:17:54.048Z</time>
      </trkpt>
      <trkpt lat="44.76389" lon="3.75455">
        <ele>999.52532958984</ele>
        <time>2020-10-16T13:17:57.515Z</time>
      </trkpt>
      <trkpt lat="44.76399" lon="3.75451">
        <ele>999.54125976562</ele>
        <time>2020-10-16T13:18:00.985Z</time>
      </trkpt>
      <trkpt lat="44.76413" lon="3.75445">
        <ele>999.53698730469</ele>
        <time>2020-10-16T13:18:04.457Z</time>
      </trkpt>
      <trkpt lat="44.7643" lon="3.75439">
        <ele>999.48443603516</ele>
        <time>2020-10-16T13:18:07.933Z</time>
      </trkpt>
      <trkpt lat="44.76441" lon="3.75436">
        <ele>999.48358154297</ele>
        <time>2020-10-16T13:18:11.411Z</time>
      </trkpt>
      <trkpt lat="44.76447" lon="3.75436">
        <ele>999.35021972656</ele>
        <time>2020-10-16T13:18:14.890Z</time>
      </trkpt>
      <trkpt lat="44.76453" lon="3.75437">
        <ele>999.12957763672</ele>
        <time>2020-10-16T13:18:18.371Z</time>
      </trkpt>
      <trkpt lat="44.7646" lon="3.75438">
        <ele>999.05529785156</ele>
        <time>2020-10-16T13:18:21.853Z</time>
      </trkpt>
      <trkpt lat="44.7647" lon="3.7544">
        <ele>999.12493896484</ele>
        <time>2020-10-16T13:18:25.337Z</time>
      </trkpt>
      <trkpt lat="44.76483" lon="3.75444">
        <ele>999.19366455078</ele>
        <time>2020-10-16T13:18:28.824Z</time>
      </trkpt>
      <trkpt lat="44.76506" lon="3.75449">
        <ele>999.34259033203</ele>
        <time>2020-10-16T13:18:32.315Z</time>
      </trkpt>
      <trkpt lat="44.76525" lon="3.75454">
        <ele>999.45483398438</ele>
        <time>2020-10-16T13:18:35.810Z</time>
      </trkpt>
      <trkpt lat="44.76532" lon="3.75455">
        <ele>999.50793457031</ele>
        <time>2020-10-16T13:18:39.307Z</time>
      </trkpt>
      <trkpt lat="44.76538" lon="3.75455">
        <ele>999.56805419922</ele>
        <time>2020-10-16T13:18:42.805Z</time>
      </trkpt>
      <trkpt lat="44.76546" lon="3.75454">
        <ele>999.40850830078</ele>
        <time>2020-10-16T13:18:46.305Z</time>
      </trkpt>
      <trkpt lat="44.76552" lon="3.75452">
        <ele>999.32000732422</ele>
        <time>2020-10-16T13:18:49.806Z</time>
      </trkpt>
      <trkpt lat="44.76556" lon="3.7545">
        <ele>999.48651123047</ele>
        <time>2020-10-16T13:18:53.308Z</time>
      </trkpt>
      <trkpt lat="44.76561" lon="3.75447">
        <ele>999.73394775391</ele>
        <time>2020-10-16T13:18:56.811Z</time>
      </trkpt>
      <trkpt lat="44.76567" lon="3.75442">
        <ele>1000.0932617188</ele>
        <time>2020-10-16T13:19:00.315Z</time>
      </trkpt>
      <trkpt lat="44.76574" lon="3.75433">
        <ele>1000.5834960938</ele>
        <time>2020-10-16T13:19:03.821Z</time>
      </trkpt>
      <trkpt lat="44.76583" lon="3.75421">
        <ele>1001.1209106445</ele>
        <time>2020-10-16T13:19:07.329Z</time>
      </trkpt>
      <trkpt lat="44.76593" lon="3.75408">
        <ele>1001.7718505859</ele>
        <time>2020-10-16T13:19:10.840Z</time>
      </trkpt>
      <trkpt lat="44.76599" lon="3.75401">
        <ele>1002.7361450195</ele>
        <time>2020-10-16T13:19:14.353Z</time>
      </trkpt>
      <trkpt lat="44.76603" lon="3.75396">
        <ele>1003.4222412109</ele>
        <time>2020-10-16T13:19:17.867Z</time>
      </trkpt>
      <trkpt lat="44.76611" lon="3.7539">
        <ele>1004.3928222656</ele>
        <time>2020-10-16T13:19:21.383Z</time>
      </trkpt>
      <trkpt lat="44.76619" lon="3.75385">
        <ele>1005.3264160156</ele>
        <time>2020-10-16T13:19:24.900Z</time>
      </trkpt>
      <trkpt lat="44.76625" lon="3.75382">
        <ele>1005.3892822266</ele>
        <time>2020-10-16T13:19:28.419Z</time>
      </trkpt>
      <trkpt lat="44.7663" lon="3.7538">
        <ele>1005.2435913086</ele>
        <time>2020-10-16T13:19:31.939Z</time>
      </trkpt>
      <trkpt lat="44.76635" lon="3.75378">
        <ele>1004.9957275391</ele>
        <time>2020-10-16T13:19:35.460Z</time>
      </trkpt>
      <trkpt lat="44.76639" lon="3.75377">
        <ele>1004.8139038086</ele>
        <time>2020-10-16T13:19:38.982Z</time>
      </trkpt>
      <trkpt lat="44.76643" lon="3.75376">
        <ele>1004.5797729492</ele>
        <time>2020-10-16T13:19:42.504Z</time>
      </trkpt>
      <trkpt lat="44.76646" lon="3.75376">
        <ele>1004.4801025391</ele>
        <time>2020-10-16T13:19:46.027Z</time>
      </trkpt>
      <trkpt lat="44.76652" lon="3.75377">
        <ele>1004.2268676758</ele>
        <time>2020-10-16T13:19:49.551Z</time>
      </trkpt>
      <trkpt lat="44.76672" lon="3.75382">
        <ele>1003.1826782227</ele>
        <time>2020-10-16T13:19:53.079Z</time>
      </trkpt>
      <trkpt lat="44.76678" lon="3.75384">
        <ele>1002.7212524414</ele>
        <time>2020-10-16T13:19:56.608Z</time>
      </trkpt>
      <trkpt lat="44.76685" lon="3.75386">
        <ele>1002.2736816406</ele>
        <time>2020-10-16T13:20:00.139Z</time>
      </trkpt>
      <trkpt lat="44.7669" lon="3.75389">
        <ele>1001.8004150391</ele>
        <time>2020-10-16T13:20:03.671Z</time>
      </trkpt>
      <trkpt lat="44.76697" lon="3.75394">
        <ele>1000.9613647461</ele>
        <time>2020-10-16T13:20:07.205Z</time>
      </trkpt>
      <trkpt lat="44.76702" lon="3.75398">
        <ele>1000.3335571289</ele>
        <time>2020-10-16T13:20:10.740Z</time>
      </trkpt>
      <trkpt lat="44.76706" lon="3.75402">
        <ele>999.71624755859</ele>
        <time>2020-10-16T13:20:14.276Z</time>
      </trkpt>
      <trkpt lat="44.76709" lon="3.75406">
        <ele>999.17205810547</ele>
        <time>2020-10-16T13:20:17.813Z</time>
      </trkpt>
      <trkpt lat="44.76711" lon="3.7541">
        <ele>998.75061035156</ele>
        <time>2020-10-16T13:20:21.350Z</time>
      </trkpt>
      <trkpt lat="44.76713" lon="3.75414">
        <ele>998.17340087891</ele>
        <time>2020-10-16T13:20:24.888Z</time>
      </trkpt>
      <trkpt lat="44.76714" lon="3.75419">
        <ele>997.63116455078</ele>
        <time>2020-10-16T13:20:28.427Z</time>
      </trkpt>
      <trkpt lat="44.76715" lon="3.75423">
        <ele>997.04180908203</ele>
        <time>2020-10-16T13:20:31.966Z</time>
      </trkpt>
      <trkpt lat="44.76716" lon="3.75432">
        <ele>995.85498046875</ele>
        <time>2020-10-16T13:20:35.507Z</time>
      </trkpt>
      <trkpt lat="44.76718" lon="3.7544">
        <ele>994.94964599609</ele>
        <time>2020-10-16T13:20:39.049Z</time>
      </trkpt>
      <trkpt lat="44.7672" lon="3.75446">
        <ele>994.41302490234</ele>
        <time>2020-10-16T13:20:42.592Z</time>
      </trkpt>
      <trkpt lat="44.76723" lon="3.75451">
        <ele>993.98400878906</ele>
        <time>2020-10-16T13:20:46.136Z</time>
      </trkpt>
      <trkpt lat="44.76726" lon="3.75454">
        <ele>993.66674804688</ele>
        <time>2020-10-16T13:20:49.680Z</time>
      </trkpt>
      <trkpt lat="44.76729" lon="3.75458">
        <ele>993.32885742188</ele>
        <time>2020-10-16T13:20:53.225Z</time>
      </trkpt>
      <trkpt lat="44.76734" lon="3.75462">
        <ele>992.98846435547</ele>
        <time>2020-10-16T13:20:56.771Z</time>
      </trkpt>
      <trkpt lat="44.76764" lon="3.75478">
        <ele>991.81127929688</ele>
        <time>2020-10-16T13:21:00.324Z</time>
      </trkpt>
      <trkpt lat="44.7677" lon="3.75481">
        <ele>991.66436767578</ele>
        <time>2020-10-16T13:21:03.878Z</time>
      </trkpt>
      <trkpt lat="44.76777" lon="3.75482">
        <ele>991.62951660156</ele>
        <time>2020-10-16T13:21:07.433Z</time>
      </trkpt>
      <trkpt lat="44.76784" lon="3.75482">
        <ele>991.69635009766</ele>
        <time>2020-10-16T13:21:10.990Z</time>
      </trkpt>
      <trkpt lat="44.76791" lon="3.75481">
        <ele>991.83782958984</ele>
        <time>2020-10-16T13:21:14.548Z</time>
      </trkpt>
      <trkpt lat="44.76799" lon="3.75478">
        <ele>991.95233154297</ele>
        <time>2020-10-16T13:21:18.108Z</time>
      </trkpt>
      <trkpt lat="44.7681" lon="3.75476">
        <ele>992.08642578125</ele>
        <time>2020-10-16T13:21:21.670Z</time>
      </trkpt>
      <trkpt lat="44.76826" lon="3.75471">
        <ele>991.81237792969</ele>
        <time>2020-10-16T13:21:25.235Z</time>
      </trkpt>
      <trkpt lat="44.7684" lon="3.75468">
        <ele>989.86480712891</ele>
        <time>2020-10-16T13:21:28.803Z</time>
      </trkpt>
      <trkpt lat="44.76853" lon="3.75465">
        <ele>988.10223388672</ele>
        <time>2020-10-16T13:21:32.374Z</time>
      </trkpt>
      <trkpt lat="44.76868" lon="3.75462">
        <ele>986.03387451172</ele>
        <time>2020-10-16T13:21:35.948Z</time>
      </trkpt>
      <trkpt lat="44.7688" lon="3.7546">
        <ele>984.84216308594</ele>
        <time>2020-10-16T13:21:39.524Z</time>
      </trkpt>
      <trkpt lat="44.76888" lon="3.7546">
        <ele>984.10650634766</ele>
        <time>2020-10-16T13:21:43.102Z</time>
      </trkpt>
      <trkpt lat="44.76897" lon="3.7546">
        <ele>983.33404541016</ele>
        <time>2020-10-16T13:21:46.682Z</time>
      </trkpt>
      <trkpt lat="44.76903" lon="3.75461">
        <ele>982.73382568359</ele>
        <time>2020-10-16T13:21:50.263Z</time>
      </trkpt>
      <trkpt lat="44.76909" lon="3.75462">
        <ele>982.13537597656</ele>
        <time>2020-10-16T13:21:53.845Z</time>
      </trkpt>
      <trkpt lat="44.76915" lon="3.75464">
        <ele>981.54632568359</ele>
        <time>2020-10-16T13:21:57.428Z</time>
      </trkpt>
      <trkpt lat="44.76931" lon="3.7547">
        <ele>980.12359619141</ele>
        <time>2020-10-16T13:22:01.015Z</time>
      </trkpt>
      <trkpt lat="44.76944" lon="3.75475">
        <ele>978.93682861328</ele>
        <time>2020-10-16T13:22:04.604Z</time>
      </trkpt>
      <trkpt lat="44.76949" lon="3.75477">
        <ele>978.47888183594</ele>
        <time>2020-10-16T13:22:08.194Z</time>
      </trkpt>
      <trkpt lat="44.76956" lon="3.7548">
        <ele>977.93981933594</ele>
        <time>2020-10-16T13:22:11.786Z</time>
      </trkpt>
      <trkpt lat="44.76961" lon="3.75485">
        <ele>977.52056884766</ele>
        <time>2020-10-16T13:22:15.379Z</time>
      </trkpt>
      <trkpt lat="44.76966" lon="3.75491">
        <ele>977.19396972656</ele>
        <time>2020-10-16T13:22:18.973Z</time>
      </trkpt>
      <trkpt lat="44.76971" lon="3.75498">
        <ele>976.97741699219</ele>
        <time>2020-10-16T13:22:22.569Z</time>
      </trkpt>
      <trkpt lat="44.76977" lon="3.75512">
        <ele>976.81811523438</ele>
        <time>2020-10-16T13:22:26.167Z</time>
      </trkpt>
      <trkpt lat="44.76981" lon="3.75519">
        <ele>976.77203369141</ele>
        <time>2020-10-16T13:22:29.766Z</time>
      </trkpt>
      <trkpt lat="44.76983" lon="3.75526">
        <ele>976.33807373047</ele>
        <time>2020-10-16T13:22:33.366Z</time>
      </trkpt>
      <trkpt lat="44.76984" lon="3.75534">
        <ele>975.78918457031</ele>
        <time>2020-10-16T13:22:36.968Z</time>
      </trkpt>
      <trkpt lat="44.76985" lon="3.75542">
        <ele>975.32299804688</ele>
        <time>2020-10-16T13:22:40.571Z</time>
      </trkpt>
      <trkpt lat="44.76985" lon="3.75549">
        <ele>974.99896240234</ele>
        <time>2020-10-16T13:22:44.175Z</time>
      </trkpt>
      <trkpt lat="44.76985" lon="3.75559">
        <ele>974.16400146484</ele>
        <time>2020-10-16T13:22:47.780Z</time>
      </trkpt>
      <trkpt lat="44.76986" lon="3.75563">
        <ele>973.68994140625</ele>
        <time>2020-10-16T13:22:51.386Z</time>
      </trkpt>
      <trkpt lat="44.76988" lon="3.75565">
        <ele>973.34997558594</ele>
        <time>2020-10-16T13:22:54.992Z</time>
      </trkpt>
      <trkpt lat="44.76991" lon="3.75566">
        <ele>973.1005859375</ele>
        <time>2020-10-16T13:22:58.599Z</time>
      </trkpt>
      <trkpt lat="44.76993" lon="3.75566">
        <ele>972.93634033203</ele>
        <time>2020-10-16T13:23:02.206Z</time>
      </trkpt>
      <trkpt lat="44.76996" lon="3.75563">
        <ele>972.98229980469</ele>
        <time>2020-10-16T13:23:05.814Z</time>
      </trkpt>
      <trkpt lat="44.76999" lon="3.75559">
        <ele>972.85992431641</ele>
        <time>2020-10-16T13:23:09.423Z</time>
      </trkpt>
      <trkpt lat="44.77003" lon="3.7555">
        <ele>972.76867675781</ele>
        <time>2020-10-16T13:23:13.033Z</time>
      </trkpt>
      <trkpt lat="44.77008" lon="3.75542">
        <ele>972.59484863281</ele>
        <time>2020-10-16T13:23:16.645Z</time>
      </trkpt>
      <trkpt lat="44.77014" lon="3.75535">
        <ele>972.18048095703</ele>
        <time>2020-10-16T13:23:20.258Z</time>
      </trkpt>
      <trkpt lat="44.7702" lon="3.7553">
        <ele>971.77203369141</ele>
        <time>2020-10-16T13:23:23.873Z</time>
      </trkpt>
      <trkpt lat="44.77028" lon="3.75524">
        <ele>971.07537841797</ele>
        <time>2020-10-16T13:23:27.490Z</time>
      </trkpt>
      <trkpt lat="44.77045" lon="3.75515">
        <ele>969.10900878906</ele>
        <time>2020-10-16T13:23:31.110Z</time>
      </trkpt>
      <trkpt lat="44.77059" lon="3.75511">
        <ele>967.17218017578</ele>
        <time>2020-10-16T13:23:34.733Z</time>
      </trkpt>
      <trkpt lat="44.77064" lon="3.75511">
        <ele>966.54315185547</ele>
        <time>2020-10-16T13:23:38.357Z</time>
      </trkpt>
      <trkpt lat="44.77076" lon="3.75511">
        <ele>964.98718261719</ele>
        <time>2020-10-16T13:23:41.983Z</time>
      </trkpt>
      <trkpt lat="44.77089" lon="3.75511">
        <ele>963.30529785156</ele>
        <time>2020-10-16T13:23:45.612Z</time>
      </trkpt>
      <trkpt lat="44.77094" lon="3.7551">
        <ele>962.64361572266</ele>
        <time>2020-10-16T13:23:49.242Z</time>
      </trkpt>
      <trkpt lat="44.77098" lon="3.75507">
        <ele>962.02850341797</ele>
        <time>2020-10-16T13:23:52.873Z</time>
      </trkpt>
      <trkpt lat="44.77102" lon="3.75504">
        <ele>961.52264404297</ele>
        <time>2020-10-16T13:23:56.505Z</time>
      </trkpt>
      <trkpt lat="44.77106" lon="3.75499">
        <ele>961.19281005859</ele>
        <time>2020-10-16T13:24:00.138Z</time>
      </trkpt>
      <trkpt lat="44.77108" lon="3.75494">
        <ele>961.02557373047</ele>
        <time>2020-10-16T13:24:03.772Z</time>
      </trkpt>
      <trkpt lat="44.77113" lon="3.75485">
        <ele>960.77899169922</ele>
        <time>2020-10-16T13:24:07.407Z</time>
      </trkpt>
      <trkpt lat="44.77116" lon="3.75478">
        <ele>960.59283447266</ele>
        <time>2020-10-16T13:24:11.044Z</time>
      </trkpt>
      <trkpt lat="44.7712" lon="3.7547">
        <ele>960.30859375</ele>
        <time>2020-10-16T13:24:14.682Z</time>
      </trkpt>
      <trkpt lat="44.77126" lon="3.75463">
        <ele>960.34143066406</ele>
        <time>2020-10-16T13:24:18.322Z</time>
      </trkpt>
      <trkpt lat="44.77131" lon="3.75459">
        <ele>960.37957763672</ele>
        <time>2020-10-16T13:24:21.963Z</time>
      </trkpt>
      <trkpt lat="44.77137" lon="3.75455">
        <ele>960.39123535156</ele>
        <time>2020-10-16T13:24:25.605Z</time>
      </trkpt>
      <trkpt lat="44.77143" lon="3.75451">
        <ele>960.30645751953</ele>
        <time>2020-10-16T13:24:29.248Z</time>
      </trkpt>
      <trkpt lat="44.77147" lon="3.75448">
        <ele>960.26214599609</ele>
        <time>2020-10-16T13:24:32.892Z</time>
      </trkpt>
      <trkpt lat="44.77157" lon="3.75455">
        <ele>959.9453125</ele>
        <time>2020-10-16T13:24:36.538Z</time>
      </trkpt>
      <trkpt lat="44.77164" lon="3.75461">
        <ele>959.68853759766</ele>
        <time>2020-10-16T13:24:40.186Z</time>
      </trkpt>
      <trkpt lat="44.77176" lon="3.7547">
        <ele>959.31384277344</ele>
        <time>2020-10-16T13:24:43.837Z</time>
      </trkpt>
      <trkpt lat="44.7718" lon="3.75475">
        <ele>959.12658691406</ele>
        <time>2020-10-16T13:24:47.489Z</time>
      </trkpt>
      <trkpt lat="44.77184" lon="3.75483">
        <ele>958.94659423828</ele>
        <time>2020-10-16T13:24:51.142Z</time>
      </trkpt>
      <trkpt lat="44.77188" lon="3.75491">
        <ele>958.75842285156</ele>
        <time>2020-10-16T13:24:54.797Z</time>
      </trkpt>
      <trkpt lat="44.77194" lon="3.75504">
        <ele>958.45928955078</ele>
        <time>2020-10-16T13:24:58.454Z</time>
      </trkpt>
      <trkpt lat="44.77205" lon="3.75519">
        <ele>958.06121826172</ele>
        <time>2020-10-16T13:25:02.114Z</time>
      </trkpt>
      <trkpt lat="44.77221" lon="3.75539">
        <ele>959.90771484375</ele>
        <time>2020-10-16T13:25:05.778Z</time>
      </trkpt>
      <trkpt lat="44.77241" lon="3.75564">
        <ele>962.36560058594</ele>
        <time>2020-10-16T13:25:09.448Z</time>
      </trkpt>
      <trkpt lat="44.77246" lon="3.75569">
        <ele>962.95166015625</ele>
        <time>2020-10-16T13:25:13.119Z</time>
      </trkpt>
      <trkpt lat="44.77251" lon="3.75573">
        <ele>963.53186035156</ele>
        <time>2020-10-16T13:25:16.791Z</time>
      </trkpt>
      <trkpt lat="44.77256" lon="3.75574">
        <ele>964.11370849609</ele>
        <time>2020-10-16T13:25:20.464Z</time>
      </trkpt>
      <trkpt lat="44.77261" lon="3.75574">
        <ele>964.62994384766</ele>
        <time>2020-10-16T13:25:24.138Z</time>
      </trkpt>
      <trkpt lat="44.77294" lon="3.75576">
        <ele>967.6279296875</ele>
        <time>2020-10-16T13:25:27.819Z</time>
      </trkpt>
      <trkpt lat="44.77316" lon="3.75574">
        <ele>971.22161865234</ele>
        <time>2020-10-16T13:25:31.504Z</time>
      </trkpt>
      <trkpt lat="44.77325" lon="3.7557">
        <ele>972.625</ele>
        <time>2020-10-16T13:25:35.191Z</time>
      </trkpt>
      <trkpt lat="44.77335" lon="3.75564">
        <ele>973.93353271484</ele>
        <time>2020-10-16T13:25:38.880Z</time>
      </trkpt>
      <trkpt lat="44.77341" lon="3.75559">
        <ele>974.74945068359</ele>
        <time>2020-10-16T13:25:42.571Z</time>
      </trkpt>
      <trkpt lat="44.7735" lon="3.75549">
        <ele>975.82025146484</ele>
        <time>2020-10-16T13:25:46.264Z</time>
      </trkpt>
      <trkpt lat="44.77361" lon="3.75539">
        <ele>977.16864013672</ele>
        <time>2020-10-16T13:25:49.959Z</time>
      </trkpt>
      <trkpt lat="44.77369" lon="3.75532">
        <ele>978.09271240234</ele>
        <time>2020-10-16T13:25:53.656Z</time>
      </trkpt>
      <trkpt lat="44.77372" lon="3.75527">
        <ele>978.54156494141</ele>
        <time>2020-10-16T13:25:57.354Z</time>
      </trkpt>
      <trkpt lat="44.77376" lon="3.75517">
        <ele>978.94110107422</ele>
        <time>2020-10-16T13:26:01.054Z</time>
      </trkpt>
      <trkpt lat="44.77381" lon="3.75503">
        <ele>979.49072265625</ele>
        <time>2020-10-16T13:26:04.756Z</time>
      </trkpt>
      <trkpt lat="44.77383" lon="3.75498">
        <ele>979.80017089844</ele>
        <time>2020-10-16T13:26:08.459Z</time>
      </trkpt>
      <trkpt lat="44.77391" lon="3.75493">
        <ele>981.58331298828</ele>
        <time>2020-10-16T13:26:12.164Z</time>
      </trkpt>
      <trkpt lat="44.77398" lon="3.75488">
        <ele>983.07476806641</ele>
        <time>2020-10-16T13:26:15.870Z</time>
      </trkpt>
      <trkpt lat="44.77402" lon="3.75483">
        <ele>983.88854980469</ele>
        <time>2020-10-16T13:26:19.577Z</time>
      </trkpt>
      <trkpt lat="44.77412" lon="3.7546">
        <ele>984.93817138672</ele>
        <time>2020-10-16T13:26:23.288Z</time>
      </trkpt>
      <trkpt lat="44.7742" lon="3.75443">
        <ele>985.48956298828</ele>
        <time>2020-10-16T13:26:27.002Z</time>
      </trkpt>
      <trkpt lat="44.77425" lon="3.75428">
        <ele>985.90576171875</ele>
        <time>2020-10-16T13:26:30.718Z</time>
      </trkpt>
      <trkpt lat="44.77429" lon="3.75405">
        <ele>986.26666259766</ele>
        <time>2020-10-16T13:26:34.438Z</time>
      </trkpt>
      <trkpt lat="44.77432" lon="3.75393">
        <ele>986.2998046875</ele>
        <time>2020-10-16T13:26:38.160Z</time>
      </trkpt>
      <trkpt lat="44.77436" lon="3.75383">
        <ele>986.58215332031</ele>
        <time>2020-10-16T13:26:41.883Z</time>
      </trkpt>
      <trkpt lat="44.77445" lon="3.7536">
        <ele>987.19744873047</ele>
        <time>2020-10-16T13:26:45.610Z</time>
      </trkpt>
      <trkpt lat="44.77454" lon="3.75336">
        <ele>988.47509765625</ele>
        <time>2020-10-16T13:26:49.341Z</time>
      </trkpt>
      <trkpt lat="44.77461" lon="3.75321">
        <ele>990.01245117188</ele>
        <time>2020-10-16T13:26:53.074Z</time>
      </trkpt>
      <trkpt lat="44.77467" lon="3.75307">
        <ele>991.21166992188</ele>
        <time>2020-10-16T13:26:56.810Z</time>
      </trkpt>
      <trkpt lat="44.7747" lon="3.75295">
        <ele>991.74987792969</ele>
        <time>2020-10-16T13:27:00.547Z</time>
      </trkpt>
      <trkpt lat="44.77472" lon="3.75295">
        <ele>992.51037597656</ele>
        <time>2020-10-16T13:27:04.285Z</time>
      </trkpt>
      <trkpt lat="44.77476" lon="3.75292">
        <ele>993.43975830078</ele>
        <time>2020-10-16T13:27:08.024Z</time>
      </trkpt>
      <trkpt lat="44.7748" lon="3.75286">
        <ele>993.6376953125</ele>
        <time>2020-10-16T13:27:11.764Z</time>
      </trkpt>
      <trkpt lat="44.77482" lon="3.75275">
        <ele>993.32281494141</ele>
        <time>2020-10-16T13:27:15.506Z</time>
      </trkpt>
      <trkpt lat="44.77489" lon="3.75243">
        <ele>993.39324951172</ele>
        <time>2020-10-16T13:27:19.252Z</time>
      </trkpt>
      <trkpt lat="44.77492" lon="3.75232">
        <ele>993.60455322266</ele>
        <time>2020-10-16T13:27:23.000Z</time>
      </trkpt>
      <trkpt lat="44.77498" lon="3.75214">
        <ele>994.41705322266</ele>
        <time>2020-10-16T13:27:26.751Z</time>
      </trkpt>
      <trkpt lat="44.77502" lon="3.75204">
        <ele>994.8798828125</ele>
        <time>2020-10-16T13:27:30.504Z</time>
      </trkpt>
      <trkpt lat="44.77505" lon="3.75198">
        <ele>995.29937744141</ele>
        <time>2020-10-16T13:27:34.258Z</time>
      </trkpt>
      <trkpt lat="44.7751" lon="3.75193">
        <ele>996.15686035156</ele>
        <time>2020-10-16T13:27:38.013Z</time>
      </trkpt>
      <trkpt lat="44.77524" lon="3.75178">
        <ele>998.72143554688</ele>
        <time>2020-10-16T13:27:41.771Z</time>
      </trkpt>
      <trkpt lat="44.7753" lon="3.7517">
        <ele>999.34643554688</ele>
        <time>2020-10-16T13:27:45.531Z</time>
      </trkpt>
      <trkpt lat="44.77533" lon="3.7516">
        <ele>999.42504882812</ele>
        <time>2020-10-16T13:27:49.292Z</time>
      </trkpt>
      <trkpt lat="44.77538" lon="3.75146">
        <ele>999.40142822266</ele>
        <time>2020-10-16T13:27:53.056Z</time>
      </trkpt>
      <trkpt lat="44.7754" lon="3.75139">
        <ele>999.88897705078</ele>
        <time>2020-10-16T13:27:56.821Z</time>
      </trkpt>
      <trkpt lat="44.77545" lon="3.7513">
        <ele>1000.922668457</ele>
        <time>2020-10-16T13:28:00.587Z</time>
      </trkpt>
      <trkpt lat="44.7755" lon="3.75123">
        <ele>1002.1244506836</ele>
        <time>2020-10-16T13:28:04.355Z</time>
      </trkpt>
      <trkpt lat="44.77554" lon="3.75116">
        <ele>1002.7817382812</ele>
        <time>2020-10-16T13:28:08.124Z</time>
      </trkpt>
      <trkpt lat="44.77557" lon="3.75108">
        <ele>1002.8062744141</ele>
        <time>2020-10-16T13:28:11.894Z</time>
      </trkpt>
      <trkpt lat="44.77565" lon="3.75082">
        <ele>1002.9517822266</ele>
        <time>2020-10-16T13:28:15.668Z</time>
      </trkpt>
      <trkpt lat="44.7758" lon="3.75044">
        <ele>1003.450012207</ele>
        <time>2020-10-16T13:28:19.449Z</time>
      </trkpt>
      <trkpt lat="44.77593" lon="3.75015">
        <ele>1004.1527099609</ele>
        <time>2020-10-16T13:28:23.235Z</time>
      </trkpt>
      <trkpt lat="44.77613" lon="3.74997">
        <ele>1007.083984375</ele>
        <time>2020-10-16T13:28:27.025Z</time>
      </trkpt>
      <trkpt lat="44.77635" lon="3.74966">
        <ele>1010.2392578125</ele>
        <time>2020-10-16T13:28:30.822Z</time>
      </trkpt>
      <trkpt lat="44.77651" lon="3.74943">
        <ele>1011.6555786133</ele>
        <time>2020-10-16T13:28:34.623Z</time>
      </trkpt>
      <trkpt lat="44.77671" lon="3.74909">
        <ele>1013.4822387695</ele>
        <time>2020-10-16T13:28:38.430Z</time>
      </trkpt>
      <trkpt lat="44.77682" lon="3.74885">
        <ele>1012.0385742188</ele>
        <time>2020-10-16T13:28:42.241Z</time>
      </trkpt>
      <trkpt lat="44.77717" lon="3.7485">
        <ele>1014.0880737305</ele>
        <time>2020-10-16T13:28:46.061Z</time>
      </trkpt>
      <trkpt lat="44.77751" lon="3.74818">
        <ele>1020.4288330078</ele>
        <time>2020-10-16T13:28:49.889Z</time>
      </trkpt>
      <trkpt lat="44.77782" lon="3.74783">
        <ele>1020.9276123047</ele>
        <time>2020-10-16T13:28:53.725Z</time>
      </trkpt>
      <trkpt lat="44.77803" lon="3.74736">
        <ele>1021.3084716797</ele>
        <time>2020-10-16T13:28:57.569Z</time>
      </trkpt>
      <trkpt lat="44.77836" lon="3.7467">
        <ele>1024.8602294922</ele>
        <time>2020-10-16T13:29:01.425Z</time>
      </trkpt>
      <trkpt lat="44.77852" lon="3.74631">
        <ele>1025.2839355469</ele>
        <time>2020-10-16T13:29:05.287Z</time>
      </trkpt>
      <trkpt lat="44.77887" lon="3.74561">
        <ele>1029.37890625</ele>
        <time>2020-10-16T13:29:09.161Z</time>
      </trkpt>
      <trkpt lat="44.77904" lon="3.74532">
        <ele>1032.3737792969</ele>
        <time>2020-10-16T13:29:13.040Z</time>
      </trkpt>
      <trkpt lat="44.77917" lon="3.74499">
        <ele>1035.1848144531</ele>
        <time>2020-10-16T13:29:16.925Z</time>
      </trkpt>
      <trkpt lat="44.77937" lon="3.74455">
        <ele>1036.1998291016</ele>
        <time>2020-10-16T13:29:20.817Z</time>
      </trkpt>
      <trkpt lat="44.77964" lon="3.74384">
        <ele>1039.7111816406</ele>
        <time>2020-10-16T13:29:24.721Z</time>
      </trkpt>
      <trkpt lat="44.77979" lon="3.74347">
        <ele>1042.6177978516</ele>
        <time>2020-10-16T13:29:28.631Z</time>
      </trkpt>
      <trkpt lat="44.77982" lon="3.74319">
        <ele>1045.4051513672</ele>
        <time>2020-10-16T13:29:32.545Z</time>
      </trkpt>
      <trkpt lat="44.77983" lon="3.74257">
        <ele>1048.7200927734</ele>
        <time>2020-10-16T13:29:36.468Z</time>
      </trkpt>
      <trkpt lat="44.77982" lon="3.74223">
        <ele>1051.765625</ele>
        <time>2020-10-16T13:29:40.395Z</time>
      </trkpt>
      <trkpt lat="44.77977" lon="3.74189">
        <ele>1052.6380615234</ele>
        <time>2020-10-16T13:29:44.327Z</time>
      </trkpt>
      <trkpt lat="44.77966" lon="3.74152">
        <ele>1053.9034423828</ele>
        <time>2020-10-16T13:29:48.265Z</time>
      </trkpt>
      <trkpt lat="44.77961" lon="3.74118">
        <ele>1055.7911376953</ele>
        <time>2020-10-16T13:29:52.208Z</time>
      </trkpt>
      <trkpt lat="44.7796" lon="3.74082">
        <ele>1057.4719238281</ele>
        <time>2020-10-16T13:29:56.156Z</time>
      </trkpt>
      <trkpt lat="44.77962" lon="3.7405">
        <ele>1059.2094726562</ele>
        <time>2020-10-16T13:30:00.109Z</time>
      </trkpt>
      <trkpt lat="44.77966" lon="3.74018">
        <ele>1060.5715332031</ele>
        <time>2020-10-16T13:30:04.066Z</time>
      </trkpt>
      <trkpt lat="44.77975" lon="3.73989">
        <ele>1061.3400878906</ele>
        <time>2020-10-16T13:30:08.028Z</time>
      </trkpt>
      <trkpt lat="44.77994" lon="3.73951">
        <ele>1061.5050048828</ele>
        <time>2020-10-16T13:30:11.997Z</time>
      </trkpt>
      <trkpt lat="44.78012" lon="3.73968">
        <ele>1062.0927734375</ele>
        <time>2020-10-16T13:30:15.970Z</time>
      </trkpt>
      <trkpt lat="44.78031" lon="3.7399">
        <ele>1062.8771972656</ele>
        <time>2020-10-16T13:30:19.948Z</time>
      </trkpt>
      <trkpt lat="44.78049" lon="3.74011">
        <ele>1063.7940673828</ele>
        <time>2020-10-16T13:30:23.930Z</time>
      </trkpt>
      <trkpt lat="44.78068" lon="3.74032">
        <ele>1065.0338134766</ele>
        <time>2020-10-16T13:30:27.917Z</time>
      </trkpt>
      <trkpt lat="44.78099" lon="3.74065">
        <ele>1067.4185791016</ele>
        <time>2020-10-16T13:30:31.912Z</time>
      </trkpt>
      <trkpt lat="44.78126" lon="3.74094">
        <ele>1069.4630126953</ele>
        <time>2020-10-16T13:30:35.914Z</time>
      </trkpt>
      <trkpt lat="44.78148" lon="3.74118">
        <ele>1071.5086669922</ele>
        <time>2020-10-16T13:30:39.921Z</time>
      </trkpt>
      <trkpt lat="44.78157" lon="3.74129">
        <ele>1072.482421875</ele>
        <time>2020-10-16T13:30:43.931Z</time>
      </trkpt>
      <trkpt lat="44.78168" lon="3.74141">
        <ele>1073.6624755859</ele>
        <time>2020-10-16T13:30:47.944Z</time>
      </trkpt>
      <trkpt lat="44.78187" lon="3.74161">
        <ele>1075.5573730469</ele>
        <time>2020-10-16T13:30:51.961Z</time>
      </trkpt>
      <trkpt lat="44.78192" lon="3.74165">
        <ele>1075.9689941406</ele>
        <time>2020-10-16T13:30:55.979Z</time>
      </trkpt>
      <trkpt lat="44.782" lon="3.74173">
        <ele>1076.7277832031</ele>
        <time>2020-10-16T13:30:59.999Z</time>
      </trkpt>
      <trkpt lat="44.78224" lon="3.74192">
        <ele>1078.5634765625</ele>
        <time>2020-10-16T13:31:04.025Z</time>
      </trkpt>
      <trkpt lat="44.78247" lon="3.74209">
        <ele>1080.0816650391</ele>
        <time>2020-10-16T13:31:08.056Z</time>
      </trkpt>
      <trkpt lat="44.78256" lon="3.74215">
        <ele>1080.595703125</ele>
        <time>2020-10-16T13:31:12.089Z</time>
      </trkpt>
      <trkpt lat="44.78266" lon="3.74221">
        <ele>1081.1867675781</ele>
        <time>2020-10-16T13:31:16.124Z</time>
      </trkpt>
      <trkpt lat="44.78272" lon="3.74229">
        <ele>1081.8248291016</ele>
        <time>2020-10-16T13:31:20.161Z</time>
      </trkpt>
      <trkpt lat="44.78279" lon="3.7424">
        <ele>1082.6551513672</ele>
        <time>2020-10-16T13:31:24.200Z</time>
      </trkpt>
      <trkpt lat="44.78284" lon="3.74253">
        <ele>1083.6791992188</ele>
        <time>2020-10-16T13:31:28.241Z</time>
      </trkpt>
      <trkpt lat="44.78288" lon="3.74267">
        <ele>1084.7060546875</ele>
        <time>2020-10-16T13:31:32.284Z</time>
      </trkpt>
      <trkpt lat="44.78258" lon="3.74292">
        <ele>1085.5107421875</ele>
        <time>2020-10-16T13:31:36.334Z</time>
      </trkpt>
      <trkpt lat="44.78241" lon="3.74309">
        <ele>1086.0216064453</ele>
        <time>2020-10-16T13:31:40.388Z</time>
      </trkpt>
      <trkpt lat="44.78216" lon="3.74331">
        <ele>1088.7607421875</ele>
        <time>2020-10-16T13:31:44.448Z</time>
      </trkpt>
      <trkpt lat="44.78205" lon="3.74356">
        <ele>1091.0306396484</ele>
        <time>2020-10-16T13:31:48.513Z</time>
      </trkpt>
      <trkpt lat="44.78197" lon="3.74382">
        <ele>1090.9053955078</ele>
        <time>2020-10-16T13:31:52.582Z</time>
      </trkpt>
      <trkpt lat="44.78189" lon="3.74391">
        <ele>1090.3111572266</ele>
        <time>2020-10-16T13:31:56.653Z</time>
      </trkpt>
      <trkpt lat="44.78181" lon="3.74405">
        <ele>1089.7631835938</ele>
        <time>2020-10-16T13:32:00.726Z</time>
      </trkpt>
      <trkpt lat="44.78177" lon="3.74423">
        <ele>1089.9942626953</ele>
        <time>2020-10-16T13:32:04.802Z</time>
      </trkpt>
      <trkpt lat="44.78173" lon="3.74441">
        <ele>1090.2338867188</ele>
        <time>2020-10-16T13:32:08.881Z</time>
      </trkpt>
      <trkpt lat="44.7817" lon="3.74459">
        <ele>1090.3948974609</ele>
        <time>2020-10-16T13:32:12.962Z</time>
      </trkpt>
      <trkpt lat="44.78164" lon="3.74476">
        <ele>1090.0167236328</ele>
        <time>2020-10-16T13:32:17.046Z</time>
      </trkpt>
      <trkpt lat="44.78154" lon="3.74492">
        <ele>1090.3253173828</ele>
        <time>2020-10-16T13:32:21.133Z</time>
      </trkpt>
      <trkpt lat="44.78137" lon="3.74527">
        <ele>1091.1207275391</ele>
        <time>2020-10-16T13:32:25.226Z</time>
      </trkpt>
      <trkpt lat="44.78104" lon="3.74597">
        <ele>1091.2729492188</ele>
        <time>2020-10-16T13:32:29.331Z</time>
      </trkpt>
      <trkpt lat="44.78067" lon="3.74674">
        <ele>1089.8961181641</ele>
        <time>2020-10-16T13:32:33.449Z</time>
      </trkpt>
      <trkpt lat="44.78042" lon="3.74713">
        <ele>1089.6032714844</ele>
        <time>2020-10-16T13:32:37.575Z</time>
      </trkpt>
      <trkpt lat="44.77987" lon="3.74814">
        <ele>1083.3248291016</ele>
        <time>2020-10-16T13:32:41.719Z</time>
      </trkpt>
      <trkpt lat="44.7798" lon="3.74832">
        <ele>1083.7921142578</ele>
        <time>2020-10-16T13:32:45.866Z</time>
      </trkpt>
      <trkpt lat="44.7797" lon="3.74842">
        <ele>1083.6007080078</ele>
        <time>2020-10-16T13:32:50.015Z</time>
      </trkpt>
      <trkpt lat="44.77963" lon="3.74849">
        <ele>1083.4122314453</ele>
        <time>2020-10-16T13:32:54.166Z</time>
      </trkpt>
      <trkpt lat="44.77957" lon="3.74861">
        <ele>1083.3917236328</ele>
        <time>2020-10-16T13:32:58.319Z</time>
      </trkpt>
      <trkpt lat="44.77954" lon="3.7488">
        <ele>1084.6057128906</ele>
        <time>2020-10-16T13:33:02.475Z</time>
      </trkpt>
      <trkpt lat="44.77949" lon="3.74891">
        <ele>1083.9943847656</ele>
        <time>2020-10-16T13:33:06.633Z</time>
      </trkpt>
      <trkpt lat="44.77942" lon="3.74919">
        <ele>1084.1834716797</ele>
        <time>2020-10-16T13:33:10.795Z</time>
      </trkpt>
      <trkpt lat="44.77931" lon="3.74939">
        <ele>1084.6632080078</ele>
        <time>2020-10-16T13:33:14.960Z</time>
      </trkpt>
      <trkpt lat="44.77925" lon="3.7496">
        <ele>1083.9892578125</ele>
        <time>2020-10-16T13:33:19.129Z</time>
      </trkpt>
      <trkpt lat="44.77925" lon="3.74974">
        <ele>1084.0120849609</ele>
        <time>2020-10-16T13:33:23.300Z</time>
      </trkpt>
      <trkpt lat="44.7792" lon="3.74987">
        <ele>1083.4643554688</ele>
        <time>2020-10-16T13:33:27.473Z</time>
      </trkpt>
      <trkpt lat="44.77907" lon="3.75018">
        <ele>1087.8182373047</ele>
        <time>2020-10-16T13:33:31.651Z</time>
      </trkpt>
      <trkpt lat="44.77886" lon="3.75064">
        <ele>1088.5277099609</ele>
        <time>2020-10-16T13:33:35.836Z</time>
      </trkpt>
      <trkpt lat="44.77868" lon="3.75096">
        <ele>1089.9411621094</ele>
        <time>2020-10-16T13:33:40.027Z</time>
      </trkpt>
      <trkpt lat="44.77844" lon="3.75138">
        <ele>1086.7435302734</ele>
        <time>2020-10-16T13:33:44.226Z</time>
      </trkpt>
      <trkpt lat="44.77823" lon="3.75164">
        <ele>1085.5740966797</ele>
        <time>2020-10-16T13:33:48.431Z</time>
      </trkpt>
      <trkpt lat="44.77814" lon="3.75174">
        <ele>1085.8273925781</ele>
        <time>2020-10-16T13:33:52.638Z</time>
      </trkpt>
      <trkpt lat="44.77805" lon="3.75187">
        <ele>1086.1888427734</ele>
        <time>2020-10-16T13:33:56.847Z</time>
      </trkpt>
      <trkpt lat="44.77797" lon="3.75203">
        <ele>1084.8502197266</ele>
        <time>2020-10-16T13:34:01.059Z</time>
      </trkpt>
      <trkpt lat="44.77782" lon="3.75237">
        <ele>1082.4028320312</ele>
        <time>2020-10-16T13:34:05.277Z</time>
      </trkpt>
      <trkpt lat="44.77774" lon="3.75255">
        <ele>1079.9129638672</ele>
        <time>2020-10-16T13:34:09.498Z</time>
      </trkpt>
      <trkpt lat="44.77765" lon="3.75271">
        <ele>1079.2752685547</ele>
        <time>2020-10-16T13:34:13.722Z</time>
      </trkpt>
      <trkpt lat="44.77755" lon="3.75288">
        <ele>1076.6496582031</ele>
        <time>2020-10-16T13:34:17.949Z</time>
      </trkpt>
      <trkpt lat="44.77744" lon="3.75303">
        <ele>1074.0145263672</ele>
        <time>2020-10-16T13:34:22.179Z</time>
      </trkpt>
      <trkpt lat="44.77726" lon="3.7533">
        <ele>1072.7800292969</ele>
        <time>2020-10-16T13:34:26.414Z</time>
      </trkpt>
      <trkpt lat="44.7771" lon="3.75364">
        <ele>1071.7619628906</ele>
        <time>2020-10-16T13:34:30.655Z</time>
      </trkpt>
      <trkpt lat="44.77692" lon="3.75397">
        <ele>1068.9030761719</ele>
        <time>2020-10-16T13:34:34.902Z</time>
      </trkpt>
      <trkpt lat="44.7765" lon="3.75507">
        <ele>1068.2877197266</ele>
        <time>2020-10-16T13:34:39.167Z</time>
      </trkpt>
      <trkpt lat="44.77634" lon="3.75538">
        <ele>1069.1049804688</ele>
        <time>2020-10-16T13:34:43.437Z</time>
      </trkpt>
      <trkpt lat="44.77616" lon="3.75581">
        <ele>1066.0180664062</ele>
        <time>2020-10-16T13:34:47.714Z</time>
      </trkpt>
      <trkpt lat="44.77577" lon="3.75694">
        <ele>1056.9586181641</ele>
        <time>2020-10-16T13:34:52.009Z</time>
      </trkpt>
      <trkpt lat="44.77564" lon="3.75734">
        <ele>1056.6229248047</ele>
        <time>2020-10-16T13:34:56.311Z</time>
      </trkpt>
      <trkpt lat="44.77553" lon="3.75759">
        <ele>1058.1019287109</ele>
        <time>2020-10-16T13:35:00.617Z</time>
      </trkpt>
      <trkpt lat="44.77538" lon="3.7579">
        <ele>1059.3271484375</ele>
        <time>2020-10-16T13:35:04.928Z</time>
      </trkpt>
      <trkpt lat="44.77526" lon="3.75823">
        <ele>1059.42578125</ele>
        <time>2020-10-16T13:35:09.244Z</time>
      </trkpt>
      <trkpt lat="44.77511" lon="3.75863">
        <ele>1059.9265136719</ele>
        <time>2020-10-16T13:35:13.567Z</time>
      </trkpt>
      <trkpt lat="44.77498" lon="3.75911">
        <ele>1059.4309082031</ele>
        <time>2020-10-16T13:35:17.897Z</time>
      </trkpt>
      <trkpt lat="44.77478" lon="3.75957">
        <ele>1060.4028320312</ele>
        <time>2020-10-16T13:35:22.235Z</time>
      </trkpt>
      <trkpt lat="44.7747" lon="3.75971">
        <ele>1060.9545898438</ele>
        <time>2020-10-16T13:35:26.575Z</time>
      </trkpt>
      <trkpt lat="44.77462" lon="3.75992">
        <ele>1062.2019042969</ele>
        <time>2020-10-16T13:35:30.919Z</time>
      </trkpt>
      <trkpt lat="44.77456" lon="3.76027">
        <ele>1064.3089599609</ele>
        <time>2020-10-16T13:35:35.268Z</time>
      </trkpt>
      <trkpt lat="44.77443" lon="3.7606">
        <ele>1063.3059082031</ele>
        <time>2020-10-16T13:35:39.622Z</time>
      </trkpt>
      <trkpt lat="44.7744" lon="3.76077">
        <ele>1063.4443359375</ele>
        <time>2020-10-16T13:35:43.979Z</time>
      </trkpt>
      <trkpt lat="44.77436" lon="3.76094">
        <ele>1062.9525146484</ele>
        <time>2020-10-16T13:35:48.338Z</time>
      </trkpt>
      <trkpt lat="44.77431" lon="3.76117">
        <ele>1062.1730957031</ele>
        <time>2020-10-16T13:35:52.701Z</time>
      </trkpt>
      <trkpt lat="44.77424" lon="3.7614">
        <ele>1061.0720214844</ele>
        <time>2020-10-16T13:35:57.067Z</time>
      </trkpt>
      <trkpt lat="44.77416" lon="3.76159">
        <ele>1060.302734375</ele>
        <time>2020-10-16T13:36:01.436Z</time>
      </trkpt>
      <trkpt lat="44.77407" lon="3.76183">
        <ele>1060.2724609375</ele>
        <time>2020-10-16T13:36:05.809Z</time>
      </trkpt>
      <trkpt lat="44.77401" lon="3.76207">
        <ele>1059.8585205078</ele>
        <time>2020-10-16T13:36:10.186Z</time>
      </trkpt>
      <trkpt lat="44.77396" lon="3.76232">
        <ele>1061.1077880859</ele>
        <time>2020-10-16T13:36:14.567Z</time>
      </trkpt>
      <trkpt lat="44.77392" lon="3.76261">
        <ele>1063.6507568359</ele>
        <time>2020-10-16T13:36:18.952Z</time>
      </trkpt>
      <trkpt lat="44.77382" lon="3.76287">
        <ele>1064.1488037109</ele>
        <time>2020-10-16T13:36:23.341Z</time>
      </trkpt>
      <trkpt lat="44.77373" lon="3.76313">
        <ele>1065.6472167969</ele>
        <time>2020-10-16T13:36:27.734Z</time>
      </trkpt>
      <trkpt lat="44.77363" lon="3.7634">
        <ele>1064.8408203125</ele>
        <time>2020-10-16T13:36:32.132Z</time>
      </trkpt>
      <trkpt lat="44.77351" lon="3.76358">
        <ele>1062.6046142578</ele>
        <time>2020-10-16T13:36:36.533Z</time>
      </trkpt>
      <trkpt lat="44.77343" lon="3.76373">
        <ele>1061.36328125</ele>
        <time>2020-10-16T13:36:40.937Z</time>
      </trkpt>
      <trkpt lat="44.77335" lon="3.76389">
        <ele>1060.2158203125</ele>
        <time>2020-10-16T13:36:45.343Z</time>
      </trkpt>
      <trkpt lat="44.77327" lon="3.76422">
        <ele>1059.0454101562</ele>
        <time>2020-10-16T13:36:49.754Z</time>
      </trkpt>
      <trkpt lat="44.7732" lon="3.76436">
        <ele>1057.2088623047</ele>
        <time>2020-10-16T13:36:54.168Z</time>
      </trkpt>
      <trkpt lat="44.77309" lon="3.76464">
        <ele>1053.5728759766</ele>
        <time>2020-10-16T13:36:58.586Z</time>
      </trkpt>
      <trkpt lat="44.77306" lon="3.76482">
        <ele>1054.4434814453</ele>
        <time>2020-10-16T13:37:03.007Z</time>
      </trkpt>
      <trkpt lat="44.77305" lon="3.76505">
        <ele>1056.1988525391</ele>
        <time>2020-10-16T13:37:07.431Z</time>
      </trkpt>
      <trkpt lat="44.77304" lon="3.76527">
        <ele>1057.3195800781</ele>
        <time>2020-10-16T13:37:11.858Z</time>
      </trkpt>
      <trkpt lat="44.77309" lon="3.76545">
        <ele>1057.5609130859</ele>
        <time>2020-10-16T13:37:16.288Z</time>
      </trkpt>
      <trkpt lat="44.77315" lon="3.76574">
        <ele>1059.8614501953</ele>
        <time>2020-10-16T13:37:20.723Z</time>
      </trkpt>
      <trkpt lat="44.7732" lon="3.76588">
        <ele>1061.1231689453</ele>
        <time>2020-10-16T13:37:25.160Z</time>
      </trkpt>
      <trkpt lat="44.7732" lon="3.76605">
        <ele>1061.6396484375</ele>
        <time>2020-10-16T13:37:29.599Z</time>
      </trkpt>
      <trkpt lat="44.77321" lon="3.76638">
        <ele>1059.9624023438</ele>
        <time>2020-10-16T13:37:34.043Z</time>
      </trkpt>
      <trkpt lat="44.7732" lon="3.76696">
        <ele>1060.5772705078</ele>
        <time>2020-10-16T13:37:38.495Z</time>
      </trkpt>
      <trkpt lat="44.77313" lon="3.76743">
        <ele>1057.4637451172</ele>
        <time>2020-10-16T13:37:42.954Z</time>
      </trkpt>
      <trkpt lat="44.77313" lon="3.76757">
        <ele>1056.7816162109</ele>
        <time>2020-10-16T13:37:47.415Z</time>
      </trkpt>
      <trkpt lat="44.77308" lon="3.76777">
        <ele>1055.7141113281</ele>
        <time>2020-10-16T13:37:51.879Z</time>
      </trkpt>
      <trkpt lat="44.77303" lon="3.768">
        <ele>1054.3255615234</ele>
        <time>2020-10-16T13:37:56.346Z</time>
      </trkpt>
      <trkpt lat="44.77298" lon="3.76812">
        <ele>1052.6706542969</ele>
        <time>2020-10-16T13:38:00.815Z</time>
      </trkpt>
      <trkpt lat="44.77289" lon="3.76837">
        <ele>1049.3983154297</ele>
        <time>2020-10-16T13:38:05.288Z</time>
      </trkpt>
      <trkpt lat="44.77282" lon="3.76859">
        <ele>1046.7670898438</ele>
        <time>2020-10-16T13:38:09.765Z</time>
      </trkpt>
      <trkpt lat="44.77281" lon="3.76873">
        <ele>1045.6693115234</ele>
        <time>2020-10-16T13:38:14.244Z</time>
      </trkpt>
      <trkpt lat="44.7727" lon="3.76896">
        <ele>1042.5860595703</ele>
        <time>2020-10-16T13:38:18.727Z</time>
      </trkpt>
      <trkpt lat="44.77263" lon="3.76908">
        <ele>1040.6553955078</ele>
        <time>2020-10-16T13:38:23.212Z</time>
      </trkpt>
      <trkpt lat="44.77243" lon="3.76951">
        <ele>1034.8289794922</ele>
        <time>2020-10-16T13:38:27.704Z</time>
      </trkpt>
      <trkpt lat="44.77237" lon="3.76972">
        <ele>1032.1772460938</ele>
        <time>2020-10-16T13:38:32.199Z</time>
      </trkpt>
      <trkpt lat="44.7723" lon="3.76985">
        <ele>1030.3057861328</ele>
        <time>2020-10-16T13:38:36.697Z</time>
      </trkpt>
      <trkpt lat="44.77221" lon="3.76991">
        <ele>1028.5380859375</ele>
        <time>2020-10-16T13:38:41.197Z</time>
      </trkpt>
      <trkpt lat="44.77177" lon="3.77017">
        <ele>1021.2144775391</ele>
        <time>2020-10-16T13:38:45.706Z</time>
      </trkpt>
      <trkpt lat="44.77157" lon="3.77029">
        <ele>1020.0610961914</ele>
        <time>2020-10-16T13:38:50.220Z</time>
      </trkpt>
      <trkpt lat="44.77141" lon="3.77045">
        <ele>1019.5865478516</ele>
        <time>2020-10-16T13:38:54.738Z</time>
      </trkpt>
      <trkpt lat="44.77126" lon="3.77064">
        <ele>1023.3941650391</ele>
        <time>2020-10-16T13:38:59.260Z</time>
      </trkpt>
      <trkpt lat="44.77113" lon="3.77088">
        <ele>1026.8977050781</ele>
        <time>2020-10-16T13:39:03.786Z</time>
      </trkpt>
      <trkpt lat="44.77107" lon="3.77099">
        <ele>1028.3663330078</ele>
        <time>2020-10-16T13:39:08.314Z</time>
      </trkpt>
      <trkpt lat="44.77104" lon="3.77127">
        <ele>1030.2349853516</ele>
        <time>2020-10-16T13:39:12.846Z</time>
      </trkpt>
      <trkpt lat="44.77105" lon="3.77164">
        <ele>1032.0734863281</ele>
        <time>2020-10-16T13:39:17.383Z</time>
      </trkpt>
      <trkpt lat="44.77107" lon="3.77182">
        <ele>1033.3527832031</ele>
        <time>2020-10-16T13:39:21.923Z</time>
      </trkpt>
      <trkpt lat="44.77104" lon="3.7722">
        <ele>1034.5769042969</ele>
        <time>2020-10-16T13:39:26.468Z</time>
      </trkpt>
      <trkpt lat="44.77103" lon="3.77237">
        <ele>1034.9670410156</ele>
        <time>2020-10-16T13:39:31.016Z</time>
      </trkpt>
      <trkpt lat="44.77069" lon="3.77315">
        <ele>1036.1590576172</ele>
        <time>2020-10-16T13:39:35.577Z</time>
      </trkpt>
      <trkpt lat="44.77054" lon="3.77353">
        <ele>1037.9849853516</ele>
        <time>2020-10-16T13:39:40.144Z</time>
      </trkpt>
      <trkpt lat="44.77046" lon="3.77369">
        <ele>1038.6239013672</ele>
        <time>2020-10-16T13:39:44.714Z</time>
      </trkpt>
      <trkpt lat="44.77038" lon="3.77401">
        <ele>1039.5384521484</ele>
        <time>2020-10-16T13:39:49.289Z</time>
      </trkpt>
      <trkpt lat="44.77033" lon="3.77429">
        <ele>1039.1224365234</ele>
        <time>2020-10-16T13:39:53.868Z</time>
      </trkpt>
      <trkpt lat="44.77029" lon="3.7746">
        <ele>1039.958984375</ele>
        <time>2020-10-16T13:39:58.451Z</time>
      </trkpt>
      <trkpt lat="44.77017" lon="3.77507">
        <ele>1040.6198730469</ele>
        <time>2020-10-16T13:40:03.041Z</time>
      </trkpt>
      <trkpt lat="44.77008" lon="3.77552">
        <ele>1040.4637451172</ele>
        <time>2020-10-16T13:40:07.638Z</time>
      </trkpt>
      <trkpt lat="44.77001" lon="3.77575">
        <ele>1039.798828125</ele>
        <time>2020-10-16T13:40:12.239Z</time>
      </trkpt>
      <trkpt lat="44.76987" lon="3.77614">
        <ele>1038.5881347656</ele>
        <time>2020-10-16T13:40:16.846Z</time>
      </trkpt>
      <trkpt lat="44.76974" lon="3.77641">
        <ele>1037.4567871094</ele>
        <time>2020-10-16T13:40:21.457Z</time>
      </trkpt>
      <trkpt lat="44.76956" lon="3.77668">
        <ele>1037.0407714844</ele>
        <time>2020-10-16T13:40:26.074Z</time>
      </trkpt>
      <trkpt lat="44.76946" lon="3.77694">
        <ele>1036.0832519531</ele>
        <time>2020-10-16T13:40:30.695Z</time>
      </trkpt>
      <trkpt lat="44.76892" lon="3.77821">
        <ele>1033.9184570312</ele>
        <time>2020-10-16T13:40:35.337Z</time>
      </trkpt>
      <trkpt lat="44.76874" lon="3.77863">
        <ele>1034.5533447266</ele>
        <time>2020-10-16T13:40:39.986Z</time>
      </trkpt>
      <trkpt lat="44.76865" lon="3.77913">
        <ele>1034.9555664062</ele>
        <time>2020-10-16T13:40:44.642Z</time>
      </trkpt>
      <trkpt lat="44.7685" lon="3.77976">
        <ele>1034.5703125</ele>
        <time>2020-10-16T13:40:49.308Z</time>
      </trkpt>
      <trkpt lat="44.76837" lon="3.78007">
        <ele>1035.2702636719</ele>
        <time>2020-10-16T13:40:53.979Z</time>
      </trkpt>
      <trkpt lat="44.76831" lon="3.78032">
        <ele>1036.7469482422</ele>
        <time>2020-10-16T13:40:58.654Z</time>
      </trkpt>
      <trkpt lat="44.76813" lon="3.78083">
        <ele>1038.0084228516</ele>
        <time>2020-10-16T13:41:03.337Z</time>
      </trkpt>
      <trkpt lat="44.7679" lon="3.78126">
        <ele>1038.4376220703</ele>
        <time>2020-10-16T13:41:08.027Z</time>
      </trkpt>
      <trkpt lat="44.76777" lon="3.78138">
        <ele>1036.5349121094</ele>
        <time>2020-10-16T13:41:12.720Z</time>
      </trkpt>
      <trkpt lat="44.7676" lon="3.7817">
        <ele>1033.8724365234</ele>
        <time>2020-10-16T13:41:17.419Z</time>
      </trkpt>
      <trkpt lat="44.76757" lon="3.78191">
        <ele>1034.8074951172</ele>
        <time>2020-10-16T13:41:22.121Z</time>
      </trkpt>
      <trkpt lat="44.76754" lon="3.78201">
        <ele>1034.5710449219</ele>
        <time>2020-10-16T13:41:26.825Z</time>
      </trkpt>
      <trkpt lat="44.76751" lon="3.78211">
        <ele>1034.3510742188</ele>
        <time>2020-10-16T13:41:31.530Z</time>
      </trkpt>
      <trkpt lat="44.76748" lon="3.78221">
        <ele>1034.1444091797</ele>
        <time>2020-10-16T13:41:36.237Z</time>
      </trkpt>
      <trkpt lat="44.76745" lon="3.7823">
        <ele>1033.9708251953</ele>
        <time>2020-10-16T13:41:40.945Z</time>
      </trkpt>
      <trkpt lat="44.76744" lon="3.78235">
        <ele>1034.0126953125</ele>
        <time>2020-10-16T13:41:45.654Z</time>
      </trkpt>
      <trkpt lat="44.76744" lon="3.78246">
        <ele>1034.3005371094</ele>
        <time>2020-10-16T13:41:50.365Z</time>
      </trkpt>
      <trkpt lat="44.76743" lon="3.78263">
        <ele>1034.64453125</ele>
        <time>2020-10-16T13:41:55.078Z</time>
      </trkpt>
      <trkpt lat="44.76741" lon="3.78279">
        <ele>1034.9243164062</ele>
        <time>2020-10-16T13:41:59.793Z</time>
      </trkpt>
      <trkpt lat="44.76736" lon="3.78309">
        <ele>1035.3616943359</ele>
        <time>2020-10-16T13:42:04.513Z</time>
      </trkpt>
      <trkpt lat="44.76735" lon="3.78323">
        <ele>1035.4613037109</ele>
        <time>2020-10-16T13:42:09.235Z</time>
      </trkpt>
      <trkpt lat="44.76735" lon="3.78333">
        <ele>1035.560546875</ele>
        <time>2020-10-16T13:42:13.958Z</time>
      </trkpt>
      <trkpt lat="44.76736" lon="3.78343">
        <ele>1035.7561035156</ele>
        <time>2020-10-16T13:42:18.683Z</time>
      </trkpt>
      <trkpt lat="44.76741" lon="3.78347">
        <ele>1036.1027832031</ele>
        <time>2020-10-16T13:42:23.409Z</time>
      </trkpt>
      <trkpt lat="44.76754" lon="3.78354">
        <ele>1036.9331054688</ele>
        <time>2020-10-16T13:42:28.138Z</time>
      </trkpt>
      <trkpt lat="44.76761" lon="3.7836">
        <ele>1037.5822753906</ele>
        <time>2020-10-16T13:42:32.868Z</time>
      </trkpt>
      <trkpt lat="44.76769" lon="3.78368">
        <ele>1038.3271484375</ele>
        <time>2020-10-16T13:42:37.600Z</time>
      </trkpt>
      <trkpt lat="44.76797" lon="3.78396">
        <ele>1040.1632080078</ele>
        <time>2020-10-16T13:42:42.339Z</time>
      </trkpt>
      <trkpt lat="44.76801" lon="3.78399">
        <ele>1040.1278076172</ele>
        <time>2020-10-16T13:42:47.079Z</time>
      </trkpt>
      <trkpt lat="44.76812" lon="3.78407">
        <ele>1040.0211181641</ele>
        <time>2020-10-16T13:42:51.821Z</time>
      </trkpt>
      <trkpt lat="44.7682" lon="3.7841">
        <ele>1039.8208007812</ele>
        <time>2020-10-16T13:42:56.565Z</time>
      </trkpt>
      <trkpt lat="44.76829" lon="3.78412">
        <ele>1039.5920410156</ele>
        <time>2020-10-16T13:43:01.311Z</time>
      </trkpt>
      <trkpt lat="44.76841" lon="3.78411">
        <ele>1039.1195068359</ele>
        <time>2020-10-16T13:43:06.059Z</time>
      </trkpt>
      <trkpt lat="44.76849" lon="3.78411">
        <ele>1038.6175537109</ele>
        <time>2020-10-16T13:43:10.809Z</time>
      </trkpt>
      <trkpt lat="44.76855" lon="3.78412">
        <ele>1038.1646728516</ele>
        <time>2020-10-16T13:43:15.560Z</time>
      </trkpt>
      <trkpt lat="44.76861" lon="3.78416">
        <ele>1037.9375</ele>
        <time>2020-10-16T13:43:20.313Z</time>
      </trkpt>
      <trkpt lat="44.76869" lon="3.78423">
        <ele>1037.9621582031</ele>
        <time>2020-10-16T13:43:25.067Z</time>
      </trkpt>
      <trkpt lat="44.76876" lon="3.78436">
        <ele>1038.1047363281</ele>
        <time>2020-10-16T13:43:29.824Z</time>
      </trkpt>
      <trkpt lat="44.76883" lon="3.78451">
        <ele>1038.6260986328</ele>
        <time>2020-10-16T13:43:34.583Z</time>
      </trkpt>
      <trkpt lat="44.76887" lon="3.78465">
        <ele>1039.576171875</ele>
        <time>2020-10-16T13:43:39.344Z</time>
      </trkpt>
      <trkpt lat="44.7689" lon="3.78478">
        <ele>1040.6112060547</ele>
        <time>2020-10-16T13:43:44.107Z</time>
      </trkpt>
      <trkpt lat="44.76893" lon="3.78496">
        <ele>1042.3380126953</ele>
        <time>2020-10-16T13:43:48.873Z</time>
      </trkpt>
      <trkpt lat="44.76896" lon="3.78523">
        <ele>1044.91015625</ele>
        <time>2020-10-16T13:43:53.643Z</time>
      </trkpt>
      <trkpt lat="44.76899" lon="3.78537">
        <ele>1045.3161621094</ele>
        <time>2020-10-16T13:43:58.415Z</time>
      </trkpt>
      <trkpt lat="44.76902" lon="3.78547">
        <ele>1045.3559570312</ele>
        <time>2020-10-16T13:44:03.189Z</time>
      </trkpt>
      <trkpt lat="44.76907" lon="3.78554">
        <ele>1045.0334472656</ele>
        <time>2020-10-16T13:44:07.964Z</time>
      </trkpt>
      <trkpt lat="44.76912" lon="3.7856">
        <ele>1044.4058837891</ele>
        <time>2020-10-16T13:44:12.740Z</time>
      </trkpt>
      <trkpt lat="44.76926" lon="3.78556">
        <ele>1041.8669433594</ele>
        <time>2020-10-16T13:44:17.519Z</time>
      </trkpt>
      <trkpt lat="44.76936" lon="3.78552">
        <ele>1039.8715820312</ele>
        <time>2020-10-16T13:44:22.300Z</time>
      </trkpt>
      <trkpt lat="44.76949" lon="3.78547">
        <ele>1037.4422607422</ele>
        <time>2020-10-16T13:44:27.084Z</time>
      </trkpt>
      <trkpt lat="44.76956" lon="3.78545">
        <ele>1036.3278808594</ele>
        <time>2020-10-16T13:44:31.869Z</time>
      </trkpt>
      <trkpt lat="44.76961" lon="3.78545">
        <ele>1035.9427490234</ele>
        <time>2020-10-16T13:44:36.655Z</time>
      </trkpt>
      <trkpt lat="44.76968" lon="3.78547">
        <ele>1035.5327148438</ele>
        <time>2020-10-16T13:44:41.443Z</time>
      </trkpt>
      <trkpt lat="44.76973" lon="3.78548">
        <ele>1035.2545166016</ele>
        <time>2020-10-16T13:44:46.232Z</time>
      </trkpt>
      <trkpt lat="44.76976" lon="3.78547">
        <ele>1034.9916992188</ele>
        <time>2020-10-16T13:44:51.021Z</time>
      </trkpt>
      <trkpt lat="44.76979" lon="3.78546">
        <ele>1034.7088623047</ele>
        <time>2020-10-16T13:44:55.811Z</time>
      </trkpt>
      <trkpt lat="44.76987" lon="3.78564">
        <ele>1035.2595214844</ele>
        <time>2020-10-16T13:45:00.604Z</time>
      </trkpt>
      <trkpt lat="44.76991" lon="3.78578">
        <ele>1035.7655029297</ele>
        <time>2020-10-16T13:45:05.399Z</time>
      </trkpt>
      <trkpt lat="44.76994" lon="3.78596">
        <ele>1036.6019287109</ele>
        <time>2020-10-16T13:45:10.197Z</time>
      </trkpt>
      <trkpt lat="44.77" lon="3.78601">
        <ele>1036.4794921875</ele>
        <time>2020-10-16T13:45:14.996Z</time>
      </trkpt>
      <trkpt lat="44.77003" lon="3.78606">
        <ele>1036.5758056641</ele>
        <time>2020-10-16T13:45:19.796Z</time>
      </trkpt>
      <trkpt lat="44.77004" lon="3.78615">
        <ele>1036.8410644531</ele>
        <time>2020-10-16T13:45:24.597Z</time>
      </trkpt>
      <trkpt lat="44.77003" lon="3.7863">
        <ele>1037.3924560547</ele>
        <time>2020-10-16T13:45:29.400Z</time>
      </trkpt>
      <trkpt lat="44.77003" lon="3.78638">
        <ele>1037.7358398438</ele>
        <time>2020-10-16T13:45:34.205Z</time>
      </trkpt>
      <trkpt lat="44.77002" lon="3.78645">
        <ele>1038.0201416016</ele>
        <time>2020-10-16T13:45:39.011Z</time>
      </trkpt>
      <trkpt lat="44.77" lon="3.78656">
        <ele>1038.5908203125</ele>
        <time>2020-10-16T13:45:43.818Z</time>
      </trkpt>
      <trkpt lat="44.76995" lon="3.78669">
        <ele>1039.4135742188</ele>
        <time>2020-10-16T13:45:48.627Z</time>
      </trkpt>
      <trkpt lat="44.76988" lon="3.78679">
        <ele>1040.2833251953</ele>
        <time>2020-10-16T13:45:53.438Z</time>
      </trkpt>
      <trkpt lat="44.76981" lon="3.78687">
        <ele>1041.0177001953</ele>
        <time>2020-10-16T13:45:58.251Z</time>
      </trkpt>
      <trkpt lat="44.76973" lon="3.78694">
        <ele>1041.7996826172</ele>
        <time>2020-10-16T13:46:03.066Z</time>
      </trkpt>
      <trkpt lat="44.76963" lon="3.78699">
        <ele>1042.6612548828</ele>
        <time>2020-10-16T13:46:07.883Z</time>
      </trkpt>
      <trkpt lat="44.76952" lon="3.78706">
        <ele>1044.0285644531</ele>
        <time>2020-10-16T13:46:12.703Z</time>
      </trkpt>
      <trkpt lat="44.76946" lon="3.7871">
        <ele>1044.8657226562</ele>
        <time>2020-10-16T13:46:17.524Z</time>
      </trkpt>
      <trkpt lat="44.7693" lon="3.78725">
        <ele>1047.5946044922</ele>
        <time>2020-10-16T13:46:22.349Z</time>
      </trkpt>
      <trkpt lat="44.7691" lon="3.78741">
        <ele>1050.3973388672</ele>
        <time>2020-10-16T13:46:27.178Z</time>
      </trkpt>
      <trkpt lat="44.76884" lon="3.78762">
        <ele>1053.5269775391</ele>
        <time>2020-10-16T13:46:32.013Z</time>
      </trkpt>
      <trkpt lat="44.76864" lon="3.78777">
        <ele>1055.4241943359</ele>
        <time>2020-10-16T13:46:36.853Z</time>
      </trkpt>
      <trkpt lat="44.76857" lon="3.78781">
        <ele>1055.8432617188</ele>
        <time>2020-10-16T13:46:41.694Z</time>
      </trkpt>
      <trkpt lat="44.76845" lon="3.78788">
        <ele>1056.5750732422</ele>
        <time>2020-10-16T13:46:46.538Z</time>
      </trkpt>
      <trkpt lat="44.76831" lon="3.78797">
        <ele>1057.3861083984</ele>
        <time>2020-10-16T13:46:51.385Z</time>
      </trkpt>
      <trkpt lat="44.76813" lon="3.78812">
        <ele>1058.3045654297</ele>
        <time>2020-10-16T13:46:56.236Z</time>
      </trkpt>
      <trkpt lat="44.76788" lon="3.78834">
        <ele>1059.2720947266</ele>
        <time>2020-10-16T13:47:01.093Z</time>
      </trkpt>
      <trkpt lat="44.76777" lon="3.78841">
        <ele>1059.9771728516</ele>
        <time>2020-10-16T13:47:05.953Z</time>
      </trkpt>
      <trkpt lat="44.76748" lon="3.78857">
        <ele>1061.2208251953</ele>
        <time>2020-10-16T13:47:10.819Z</time>
      </trkpt>
      <trkpt lat="44.76684" lon="3.7889">
        <ele>1063.3502197266</ele>
        <time>2020-10-16T13:47:15.698Z</time>
      </trkpt>
      <trkpt lat="44.76676" lon="3.78894">
        <ele>1063.6676025391</ele>
        <time>2020-10-16T13:47:20.579Z</time>
      </trkpt>
      <trkpt lat="44.76661" lon="3.78905">
        <ele>1064.2821044922</ele>
        <time>2020-10-16T13:47:25.464Z</time>
      </trkpt>
      <trkpt lat="44.76656" lon="3.78909">
        <ele>1064.4505615234</ele>
        <time>2020-10-16T13:47:30.350Z</time>
      </trkpt>
      <trkpt lat="44.7664" lon="3.78924">
        <ele>1065.1171875</ele>
        <time>2020-10-16T13:47:35.239Z</time>
      </trkpt>
      <trkpt lat="44.76614" lon="3.78947">
        <ele>1066.1520996094</ele>
        <time>2020-10-16T13:47:40.135Z</time>
      </trkpt>
      <trkpt lat="44.76616" lon="3.7895">
        <ele>1065.8431396484</ele>
        <time>2020-10-16T13:47:45.031Z</time>
      </trkpt>
      <trkpt lat="44.7653" lon="3.79043">
        <ele>1071.2330322266</ele>
        <time>2020-10-16T13:47:49.949Z</time>
      </trkpt>
      <trkpt lat="44.76494" lon="3.79114">
        <ele>1066.6046142578</ele>
        <time>2020-10-16T13:47:54.879Z</time>
      </trkpt>
      <trkpt lat="44.76382" lon="3.79283">
        <ele>1064.1143798828</ele>
        <time>2020-10-16T13:47:59.842Z</time>
      </trkpt>
      <trkpt lat="44.76333" lon="3.79432">
        <ele>1061.4041748047</ele>
        <time>2020-10-16T13:48:04.829Z</time>
      </trkpt>
      <trkpt lat="44.76333" lon="3.79432">
        <ele>1061.4045410156</ele>
        <time>2020-10-16T13:48:09.816Z</time>
      </trkpt>
      <trkpt lat="44.76273" lon="3.79572">
        <ele>1050.0397949219</ele>
        <time>2020-10-16T13:48:14.826Z</time>
      </trkpt>
      <trkpt lat="44.76244" lon="3.79668">
        <ele>1046.7537841797</ele>
        <time>2020-10-16T13:48:19.851Z</time>
      </trkpt>
      <trkpt lat="44.76235" lon="3.79714">
        <ele>1047.6145019531</ele>
        <time>2020-10-16T13:48:24.883Z</time>
      </trkpt>
      <trkpt lat="44.7623" lon="3.79786">
        <ele>1048.8303222656</ele>
        <time>2020-10-16T13:48:29.925Z</time>
      </trkpt>
      <trkpt lat="44.76175" lon="3.79913">
        <ele>1038.5887451172</ele>
        <time>2020-10-16T13:48:34.988Z</time>
      </trkpt>
      <trkpt lat="44.76067" lon="3.79999">
        <ele>1027.3043212891</ele>
        <time>2020-10-16T13:48:40.076Z</time>
      </trkpt>
      <trkpt lat="44.76018" lon="3.80007">
        <ele>1019.9259033203</ele>
        <time>2020-10-16T13:48:45.174Z</time>
      </trkpt>
      <trkpt lat="44.75995" lon="3.80026">
        <ele>1016.8987426758</ele>
        <time>2020-10-16T13:48:50.277Z</time>
      </trkpt>
      <trkpt lat="44.75969" lon="3.8007">
        <ele>1014.5131225586</ele>
        <time>2020-10-16T13:48:55.388Z</time>
      </trkpt>
      <trkpt lat="44.75958" lon="3.8011">
        <ele>1016.0164794922</ele>
        <time>2020-10-16T13:49:00.505Z</time>
      </trkpt>
      <trkpt lat="44.75954" lon="3.80147">
        <ele>1013.6826782227</ele>
        <time>2020-10-16T13:49:05.628Z</time>
      </trkpt>
      <trkpt lat="44.75937" lon="3.80186">
        <ele>1007.8395996094</ele>
        <time>2020-10-16T13:49:10.757Z</time>
      </trkpt>
      <trkpt lat="44.75938" lon="3.8026">
        <ele>1001.9610595703</ele>
        <time>2020-10-16T13:49:15.897Z</time>
      </trkpt>
      <trkpt lat="44.75927" lon="3.80288">
        <ele>1001.6730957031</ele>
        <time>2020-10-16T13:49:21.041Z</time>
      </trkpt>
      <trkpt lat="44.75899" lon="3.80313">
        <ele>1000.4307250977</ele>
        <time>2020-10-16T13:49:26.192Z</time>
      </trkpt>
      <trkpt lat="44.75846" lon="3.80279">
        <ele>994.65887451172</ele>
        <time>2020-10-16T13:49:31.355Z</time>
      </trkpt>
      <trkpt lat="44.75786" lon="3.80289">
        <ele>988.28112792969</ele>
        <time>2020-10-16T13:49:36.530Z</time>
      </trkpt>
      <trkpt lat="44.75731" lon="3.8035">
        <ele>981.63690185547</ele>
        <time>2020-10-16T13:49:41.719Z</time>
      </trkpt>
      <trkpt lat="44.75693" lon="3.80423">
        <ele>982.77355957031</ele>
        <time>2020-10-16T13:49:46.921Z</time>
      </trkpt>
      <trkpt lat="44.75673" lon="3.80434">
        <ele>980.16870117188</ele>
        <time>2020-10-16T13:49:52.127Z</time>
      </trkpt>
      <trkpt lat="44.75655" lon="3.80427">
        <ele>976.50158691406</ele>
        <time>2020-10-16T13:49:57.336Z</time>
      </trkpt>
      <trkpt lat="44.75627" lon="3.80506">
        <ele>973.91082763672</ele>
        <time>2020-10-16T13:50:02.558Z</time>
      </trkpt>
      <trkpt lat="44.75624" lon="3.80516">
        <ele>973.51177978516</ele>
        <time>2020-10-16T13:50:07.782Z</time>
      </trkpt>
      <trkpt lat="44.75606" lon="3.80559">
        <ele>971.90258789062</ele>
        <time>2020-10-16T13:50:13.013Z</time>
      </trkpt>
      <trkpt lat="44.75582" lon="3.8059">
        <ele>969.73028564453</ele>
        <time>2020-10-16T13:50:18.250Z</time>
      </trkpt>
      <trkpt lat="44.75518" lon="3.80633">
        <ele>965.93621826172</ele>
        <time>2020-10-16T13:50:23.501Z</time>
      </trkpt>
      <trkpt lat="44.75487" lon="3.80671">
        <ele>965.185546875</ele>
        <time>2020-10-16T13:50:28.761Z</time>
      </trkpt>
      <trkpt lat="44.75292" lon="3.81029">
        <ele>963.83612060547</ele>
        <time>2020-10-16T13:50:34.085Z</time>
      </trkpt>
      <trkpt lat="44.7509" lon="3.81382">
        <ele>952.41949462891</ele>
        <time>2020-10-16T13:50:39.473Z</time>
      </trkpt>
      <trkpt lat="44.75049" lon="3.815">
        <ele>947.08441162109</ele>
        <time>2020-10-16T13:50:44.880Z</time>
      </trkpt>
      <trkpt lat="44.74988" lon="3.81769">
        <ele>952.49420166016</ele>
        <time>2020-10-16T13:50:50.327Z</time>
      </trkpt>
      <trkpt lat="44.74988" lon="3.81769">
        <ele>952.49353027344</ele>
        <time>2020-10-16T13:50:55.774Z</time>
      </trkpt>
      <trkpt lat="44.74822" lon="3.82131">
        <ele>949.169921875</ele>
        <time>2020-10-16T13:51:01.283Z</time>
      </trkpt>
      <trkpt lat="44.74801" lon="3.82274">
        <ele>954.09497070312</ele>
        <time>2020-10-16T13:51:06.813Z</time>
      </trkpt>
      <trkpt lat="44.74801" lon="3.82326">
        <ele>952.34613037109</ele>
        <time>2020-10-16T13:51:12.350Z</time>
      </trkpt>
      <trkpt lat="44.74809" lon="3.82388">
        <ele>946.81091308594</ele>
        <time>2020-10-16T13:51:17.896Z</time>
      </trkpt>
      <trkpt lat="44.74772" lon="3.82656">
        <ele>944.22485351562</ele>
        <time>2020-10-16T13:51:23.481Z</time>
      </trkpt>
      <trkpt lat="44.74764" lon="3.82673">
        <ele>945.3798828125</ele>
        <time>2020-10-16T13:51:29.069Z</time>
      </trkpt>
      <trkpt lat="44.74764" lon="3.82673">
        <ele>945.37957763672</ele>
        <time>2020-10-16T13:51:34.657Z</time>
      </trkpt>
      <trkpt lat="44.74741" lon="3.8267">
        <ele>944.41442871094</ele>
        <time>2020-10-16T13:51:40.249Z</time>
      </trkpt>
      <trkpt lat="44.74721" lon="3.82664">
        <ele>943.42297363281</ele>
        <time>2020-10-16T13:51:45.845Z</time>
      </trkpt>
      <trkpt lat="44.74692" lon="3.8268">
        <ele>943.70275878906</ele>
        <time>2020-10-16T13:51:51.448Z</time>
      </trkpt>
      <trkpt lat="44.74681" lon="3.82697">
        <ele>944.27966308594</ele>
        <time>2020-10-16T13:51:57.054Z</time>
      </trkpt>
      <trkpt lat="44.74649" lon="3.82892">
        <ele>952.44439697266</ele>
        <time>2020-10-16T13:52:02.688Z</time>
      </trkpt>
      <trkpt lat="44.74623" lon="3.82922">
        <ele>950.48669433594</ele>
        <time>2020-10-16T13:52:08.329Z</time>
      </trkpt>
      <trkpt lat="44.74605" lon="3.82928">
        <ele>949.60064697266</ele>
        <time>2020-10-16T13:52:13.974Z</time>
      </trkpt>
      <trkpt lat="44.74517" lon="3.8292">
        <ele>945.79986572266</ele>
        <time>2020-10-16T13:52:19.637Z</time>
      </trkpt>
      <trkpt lat="44.74484" lon="3.82926">
        <ele>944.75720214844</ele>
        <time>2020-10-16T13:52:25.306Z</time>
      </trkpt>
      <trkpt lat="44.74451" lon="3.82944">
        <ele>944.59832763672</ele>
        <time>2020-10-16T13:52:30.982Z</time>
      </trkpt>
      <trkpt lat="44.74357" lon="3.83016">
        <ele>946.17590332031</ele>
        <time>2020-10-16T13:52:36.680Z</time>
      </trkpt>
      <trkpt lat="44.74323" lon="3.83053">
        <ele>946.314453125</ele>
        <time>2020-10-16T13:52:42.386Z</time>
      </trkpt>
      <trkpt lat="44.74239" lon="3.83169">
        <ele>945.35363769531</ele>
        <time>2020-10-16T13:52:48.116Z</time>
      </trkpt>
      <trkpt lat="44.7422" lon="3.83187">
        <ele>943.5</ele>
        <time>2020-10-16T13:52:53.850Z</time>
      </trkpt>
      <trkpt lat="44.7395" lon="3.83308">
        <ele>944.67663574219</ele>
        <time>2020-10-16T13:52:59.641Z</time>
      </trkpt>
      <trkpt lat="44.7395" lon="3.83308">
        <ele>944.67651367188</ele>
        <time>2020-10-16T13:53:05.432Z</time>
      </trkpt>
      <trkpt lat="44.73919" lon="3.83332">
        <ele>945.43603515625</ele>
        <time>2020-10-16T13:53:11.230Z</time>
      </trkpt>
      <trkpt lat="44.739" lon="3.83356">
        <ele>946.36077880859</ele>
        <time>2020-10-16T13:53:17.033Z</time>
      </trkpt>
      <trkpt lat="44.73813" lon="3.8349">
        <ele>956.63836669922</ele>
        <time>2020-10-16T13:53:22.862Z</time>
      </trkpt>
      <trkpt lat="44.73787" lon="3.83469">
        <ele>955.24755859375</ele>
        <time>2020-10-16T13:53:28.697Z</time>
      </trkpt>
      <trkpt lat="44.73772" lon="3.83469">
        <ele>954.70697021484</ele>
        <time>2020-10-16T13:53:34.535Z</time>
      </trkpt>
      <trkpt lat="44.73679" lon="3.83523">
        <ele>953.14910888672</ele>
        <time>2020-10-16T13:53:40.393Z</time>
      </trkpt>
      <trkpt lat="44.73609" lon="3.83473">
        <ele>947.82849121094</ele>
        <time>2020-10-16T13:53:46.267Z</time>
      </trkpt>
      <trkpt lat="44.73567" lon="3.83475">
        <ele>944.96258544922</ele>
        <time>2020-10-16T13:53:52.149Z</time>
      </trkpt>
    </trkseg>
  </trk>
  <trk>
    <name><![CDATA[OR-7914171--Naussac:Site VTT Langogne - Parcours 8 et 9]]></name>
    <extensions>
      <line xmlns="http://www.topografix.com/GPX/gpx_style/0/2">
        <color>8a0007</color>
        <width>4</width>
      </line>
    </extensions>
    <trkseg>
      <trkpt lat="44.73466" lon="3.83518">
        <ele>948</ele>
        <time>2017-12-19T10:38:26Z</time>
      </trkpt>
      <trkpt lat="44.73545" lon="3.83479">
        <ele>948</ele>
        <time>2017-12-19T10:40:26Z</time>
      </trkpt>
      <trkpt lat="44.73618" lon="3.83483">
        <ele>951</ele>
        <time>2017-12-19T10:42:26Z</time>
      </trkpt>
      <trkpt lat="44.73673" lon="3.83518">
        <ele>957</ele>
        <time>2017-12-19T10:44:26Z</time>
      </trkpt>
      <trkpt lat="44.73731" lon="3.83488">
        <ele>958</ele>
        <time>2017-12-19T10:46:26Z</time>
      </trkpt>
      <trkpt lat="44.73817" lon="3.83488">
        <ele>958</ele>
        <time>2017-12-19T10:48:26Z</time>
      </trkpt>
      <trkpt lat="44.73868" lon="3.83406">
        <ele>949</ele>
        <time>2017-12-19T10:50:26Z</time>
      </trkpt>
      <trkpt lat="44.73923" lon="3.83329">
        <ele>947</ele>
        <time>2017-12-19T10:52:26Z</time>
      </trkpt>
      <trkpt lat="44.73963" lon="3.83303">
        <ele>945</ele>
        <time>2017-12-19T10:54:26Z</time>
      </trkpt>
      <trkpt lat="44.73969" lon="3.83419">
        <ele>944</ele>
        <time>2017-12-19T10:56:26Z</time>
      </trkpt>
      <trkpt lat="44.74036" lon="3.83479">
        <ele>937</ele>
        <time>2017-12-19T10:58:26Z</time>
      </trkpt>
      <trkpt lat="44.74063" lon="3.83565">
        <ele>933</ele>
        <time>2017-12-19T11:00:26Z</time>
      </trkpt>
      <trkpt lat="44.74051" lon="3.83676">
        <ele>930</ele>
        <time>2017-12-19T11:02:26Z</time>
      </trkpt>
      <trkpt lat="44.74024" lon="3.83771">
        <ele>930</ele>
        <time>2017-12-19T11:04:26Z</time>
      </trkpt>
      <trkpt lat="44.7399" lon="3.83844">
        <ele>930</ele>
        <time>2017-12-19T11:06:26Z</time>
      </trkpt>
      <trkpt lat="44.73942" lon="3.83908">
        <ele>931</ele>
        <time>2017-12-19T11:08:26Z</time>
      </trkpt>
      <trkpt lat="44.73908" lon="3.8399">
        <ele>928</ele>
        <time>2017-12-19T11:10:26Z</time>
      </trkpt>
      <trkpt lat="44.73908" lon="3.8408">
        <ele>926</ele>
        <time>2017-12-19T11:12:26Z</time>
      </trkpt>
      <trkpt lat="44.73884" lon="3.84174">
        <ele>922</ele>
        <time>2017-12-19T11:14:26Z</time>
      </trkpt>
      <trkpt lat="44.73847" lon="3.84217">
        <ele>925</ele>
        <time>2017-12-19T11:16:26Z</time>
      </trkpt>
      <trkpt lat="44.73862" lon="3.8429">
        <ele>920</ele>
        <time>2017-12-19T11:18:26Z</time>
      </trkpt>
      <trkpt lat="44.73826" lon="3.84376">
        <ele>922</ele>
        <time>2017-12-19T11:20:26Z</time>
      </trkpt>
      <trkpt lat="44.73801" lon="3.84449">
        <ele>921</ele>
        <time>2017-12-19T11:22:26Z</time>
      </trkpt>
      <trkpt lat="44.7378" lon="3.84522">
        <ele>919</ele>
        <time>2017-12-19T11:24:26Z</time>
      </trkpt>
      <trkpt lat="44.73731" lon="3.84565">
        <ele>920</ele>
        <time>2017-12-19T11:26:26Z</time>
      </trkpt>
      <trkpt lat="44.73673" lon="3.8459">
        <ele>921</ele>
        <time>2017-12-19T11:28:26Z</time>
      </trkpt>
      <trkpt lat="44.73673" lon="3.84672">
        <ele>917</ele>
        <time>2017-12-19T11:30:26Z</time>
      </trkpt>
      <trkpt lat="44.73701" lon="3.84736">
        <ele>916</ele>
        <time>2017-12-19T11:32:26Z</time>
      </trkpt>
      <trkpt lat="44.73707" lon="3.84814">
        <ele>914</ele>
        <time>2017-12-19T11:34:26Z</time>
      </trkpt>
      <trkpt lat="44.73682" lon="3.84874">
        <ele>913</ele>
        <time>2017-12-19T11:36:26Z</time>
      </trkpt>
      <trkpt lat="44.7367" lon="3.84938">
        <ele>911</ele>
        <time>2017-12-19T11:38:26Z</time>
      </trkpt>
      <trkpt lat="44.73655" lon="3.85028">
        <ele>911</ele>
        <time>2017-12-19T11:40:26Z</time>
      </trkpt>
      <trkpt lat="44.73631" lon="3.85084">
        <ele>913</ele>
        <time>2017-12-19T11:42:26Z</time>
      </trkpt>
      <trkpt lat="44.73591" lon="3.85178">
        <ele>915</ele>
        <time>2017-12-19T11:44:26Z</time>
      </trkpt>
      <trkpt lat="44.73551" lon="3.8526">
        <ele>915</ele>
        <time>2017-12-19T11:46:26Z</time>
      </trkpt>
      <trkpt lat="44.73512" lon="3.85346">
        <ele>911</ele>
        <time>2017-12-19T11:48:26Z</time>
      </trkpt>
      <trkpt lat="44.73454" lon="3.85384">
        <ele>914</ele>
        <time>2017-12-19T11:50:26Z</time>
      </trkpt>
      <trkpt lat="44.73512" lon="3.85479">
        <ele>905</ele>
        <time>2017-12-19T11:52:26Z</time>
      </trkpt>
      <trkpt lat="44.73557" lon="3.85513">
        <ele>902</ele>
        <time>2017-12-19T11:54:26Z</time>
      </trkpt>
      <trkpt lat="44.73448" lon="3.85706">
        <ele>903</ele>
        <time>2017-12-19T11:56:26Z</time>
      </trkpt>
      <trkpt lat="44.735" lon="3.85784">
        <ele>901</ele>
        <time>2017-12-19T11:58:26Z</time>
      </trkpt>
      <trkpt lat="44.73539" lon="3.85826">
        <ele>905</ele>
        <time>2017-12-19T12:00:26Z</time>
      </trkpt>
      <trkpt lat="44.736" lon="3.85826">
        <ele>909</ele>
        <time>2017-12-19T12:02:26Z</time>
      </trkpt>
      <trkpt lat="44.73655" lon="3.85753">
        <ele>905</ele>
        <time>2017-12-19T12:04:26Z</time>
      </trkpt>
      <trkpt lat="44.73701" lon="3.85749">
        <ele>905</ele>
        <time>2017-12-19T12:06:26Z</time>
      </trkpt>
      <trkpt lat="44.73707" lon="3.85638">
        <ele>905</ele>
        <time>2017-12-19T12:08:26Z</time>
      </trkpt>
      <trkpt lat="44.73722" lon="3.8553">
        <ele>907</ele>
        <time>2017-12-19T12:10:26Z</time>
      </trkpt>
      <trkpt lat="44.7374" lon="3.85436">
        <ele>904</ele>
        <time>2017-12-19T12:12:26Z</time>
      </trkpt>
      <trkpt lat="44.73792" lon="3.85367">
        <ele>904</ele>
        <time>2017-12-19T12:14:26Z</time>
      </trkpt>
      <trkpt lat="44.73847" lon="3.85269">
        <ele>903</ele>
        <time>2017-12-19T12:16:26Z</time>
      </trkpt>
      <trkpt lat="44.73914" lon="3.85148">
        <ele>905</ele>
        <time>2017-12-19T12:18:26Z</time>
      </trkpt>
      <trkpt lat="44.73987" lon="3.8502">
        <ele>907</ele>
        <time>2017-12-19T12:20:26Z</time>
      </trkpt>
      <trkpt lat="44.74045" lon="3.84908">
        <ele>907</ele>
        <time>2017-12-19T12:22:26Z</time>
      </trkpt>
      <trkpt lat="44.74106" lon="3.84809">
        <ele>909</ele>
        <time>2017-12-19T12:24:26Z</time>
      </trkpt>
      <trkpt lat="44.74173" lon="3.84698">
        <ele>910</ele>
        <time>2017-12-19T12:26:26Z</time>
      </trkpt>
      <trkpt lat="44.74216" lon="3.84599">
        <ele>910</ele>
        <time>2017-12-19T12:28:26Z</time>
      </trkpt>
      <trkpt lat="44.74259" lon="3.84522">
        <ele>910</ele>
        <time>2017-12-19T12:30:26Z</time>
      </trkpt>
      <trkpt lat="44.74301" lon="3.84445">
        <ele>913</ele>
        <time>2017-12-19T12:32:26Z</time>
      </trkpt>
      <trkpt lat="44.74338" lon="3.84367">
        <ele>912</ele>
        <time>2017-12-19T12:34:26Z</time>
      </trkpt>
      <trkpt lat="44.74371" lon="3.84269">
        <ele>913</ele>
        <time>2017-12-19T12:36:26Z</time>
      </trkpt>
      <trkpt lat="44.74384" lon="3.84183">
        <ele>912</ele>
        <time>2017-12-19T12:38:26Z</time>
      </trkpt>
      <trkpt lat="44.74411" lon="3.84101">
        <ele>914</ele>
        <time>2017-12-19T12:40:26Z</time>
      </trkpt>
      <trkpt lat="44.74445" lon="3.8402">
        <ele>917</ele>
        <time>2017-12-19T12:42:26Z</time>
      </trkpt>
      <trkpt lat="44.74487" lon="3.8396">
        <ele>920</ele>
        <time>2017-12-19T12:44:26Z</time>
      </trkpt>
      <trkpt lat="44.74551" lon="3.83912">
        <ele>921</ele>
        <time>2017-12-19T12:46:26Z</time>
      </trkpt>
      <trkpt lat="44.74612" lon="3.83882">
        <ele>920</ele>
        <time>2017-12-19T12:48:26Z</time>
      </trkpt>
      <trkpt lat="44.74661" lon="3.83882">
        <ele>918</ele>
        <time>2017-12-19T12:50:26Z</time>
      </trkpt>
      <trkpt lat="44.74701" lon="3.83925">
        <ele>925</ele>
        <time>2017-12-19T12:52:26Z</time>
      </trkpt>
      <trkpt lat="44.74746" lon="3.83912">
        <ele>926</ele>
        <time>2017-12-19T12:54:26Z</time>
      </trkpt>
      <trkpt lat="44.74778" lon="3.83925">
        <ele>929</ele>
        <time>2017-12-19T12:56:26Z</time>
      </trkpt>
      <trkpt lat="44.74803" lon="3.83962">
        <ele>934</ele>
        <time>2017-12-19T12:58:26Z</time>
      </trkpt>
      <trkpt lat="44.74826" lon="3.84005">
        <ele>940</ele>
        <time>2017-12-19T13:00:26Z</time>
      </trkpt>
      <trkpt lat="44.74858" lon="3.84037">
        <ele>946</ele>
        <time>2017-12-19T13:02:26Z</time>
      </trkpt>
      <trkpt lat="44.74885" lon="3.8408">
        <ele>952</ele>
        <time>2017-12-19T13:04:26Z</time>
      </trkpt>
      <trkpt lat="44.74922" lon="3.84071">
        <ele>951</ele>
        <time>2017-12-19T13:06:26Z</time>
      </trkpt>
      <trkpt lat="44.74931" lon="3.84131">
        <ele>960</ele>
        <time>2017-12-19T13:08:26Z</time>
      </trkpt>
      <trkpt lat="44.74966" lon="3.84191">
        <ele>968</ele>
        <time>2017-12-19T13:10:26Z</time>
      </trkpt>
      <trkpt lat="44.74989" lon="3.84249">
        <ele>974</ele>
        <time>2017-12-19T13:12:26Z</time>
      </trkpt>
      <trkpt lat="44.75018" lon="3.84314">
        <ele>982</ele>
        <time>2017-12-19T13:14:26Z</time>
      </trkpt>
      <trkpt lat="44.7503" lon="3.84374">
        <ele>987</ele>
        <time>2017-12-19T13:16:26Z</time>
      </trkpt>
      <trkpt lat="44.7505" lon="3.84438">
        <ele>991</ele>
        <time>2017-12-19T13:18:26Z</time>
      </trkpt>
      <trkpt lat="44.75072" lon="3.845">
        <ele>995</ele>
        <time>2017-12-19T13:20:26Z</time>
      </trkpt>
      <trkpt lat="44.75106" lon="3.84556">
        <ele>1000</ele>
        <time>2017-12-19T13:22:26Z</time>
      </trkpt>
      <trkpt lat="44.75135" lon="3.84616">
        <ele>1001</ele>
        <time>2017-12-19T13:24:26Z</time>
      </trkpt>
      <trkpt lat="44.7517" lon="3.84657">
        <ele>1000</ele>
        <time>2017-12-19T13:26:26Z</time>
      </trkpt>
      <trkpt lat="44.7521" lon="3.84702">
        <ele>1004</ele>
        <time>2017-12-19T13:28:26Z</time>
      </trkpt>
      <trkpt lat="44.75187" lon="3.84786">
        <ele>1007</ele>
        <time>2017-12-19T13:30:26Z</time>
      </trkpt>
      <trkpt lat="44.75168" lon="3.84863">
        <ele>1011</ele>
        <time>2017-12-19T13:32:26Z</time>
      </trkpt>
      <trkpt lat="44.75152" lon="3.84919">
        <ele>1014</ele>
        <time>2017-12-19T13:34:26Z</time>
      </trkpt>
      <trkpt lat="44.75146" lon="3.84994">
        <ele>1023</ele>
        <time>2017-12-19T13:36:26Z</time>
      </trkpt>
      <trkpt lat="44.75104" lon="3.85058">
        <ele>1029</ele>
        <time>2017-12-19T13:38:26Z</time>
      </trkpt>
      <trkpt lat="44.75092" lon="3.85118">
        <ele>1030</ele>
        <time>2017-12-19T13:40:26Z</time>
      </trkpt>
      <trkpt lat="44.75045" lon="3.85161">
        <ele>1032</ele>
        <time>2017-12-19T13:42:26Z</time>
      </trkpt>
      <trkpt lat="44.75025" lon="3.85215">
        <ele>1031</ele>
        <time>2017-12-19T13:44:26Z</time>
      </trkpt>
      <trkpt lat="44.75005" lon="3.85307">
        <ele>1028</ele>
        <time>2017-12-19T13:46:26Z</time>
      </trkpt>
      <trkpt lat="44.74987" lon="3.85406">
        <ele>1022</ele>
        <time>2017-12-19T13:48:26Z</time>
      </trkpt>
      <trkpt lat="44.74975" lon="3.85496">
        <ele>1013</ele>
        <time>2017-12-19T13:50:26Z</time>
      </trkpt>
      <trkpt lat="44.74976" lon="3.85588">
        <ele>1008</ele>
        <time>2017-12-19T13:52:26Z</time>
      </trkpt>
      <trkpt lat="44.74984" lon="3.85693">
        <ele>1008</ele>
        <time>2017-12-19T13:54:26Z</time>
      </trkpt>
      <trkpt lat="44.75004" lon="3.85764">
        <ele>1008</ele>
        <time>2017-12-19T13:56:26Z</time>
      </trkpt>
      <trkpt lat="44.75025" lon="3.85839">
        <ele>1006</ele>
        <time>2017-12-19T13:58:26Z</time>
      </trkpt>
      <trkpt lat="44.75028" lon="3.85919">
        <ele>1005</ele>
        <time>2017-12-19T14:00:26Z</time>
      </trkpt>
      <trkpt lat="44.7504" lon="3.86">
        <ele>1005</ele>
        <time>2017-12-19T14:02:26Z</time>
      </trkpt>
      <trkpt lat="44.75054" lon="3.86067">
        <ele>1008</ele>
        <time>2017-12-19T14:04:26Z</time>
      </trkpt>
      <trkpt lat="44.75043" lon="3.86108">
        <ele>1009</ele>
        <time>2017-12-19T14:06:26Z</time>
      </trkpt>
      <trkpt lat="44.75025" lon="3.86138">
        <ele>1010</ele>
        <time>2017-12-19T14:08:26Z</time>
      </trkpt>
      <trkpt lat="44.75048" lon="3.86211">
        <ele>1012</ele>
        <time>2017-12-19T14:10:26Z</time>
      </trkpt>
      <trkpt lat="44.75083" lon="3.86292">
        <ele>1010</ele>
        <time>2017-12-19T14:12:26Z</time>
      </trkpt>
      <trkpt lat="44.75107" lon="3.86363">
        <ele>1010</ele>
        <time>2017-12-19T14:14:26Z</time>
      </trkpt>
      <trkpt lat="44.75146" lon="3.86449">
        <ele>1015</ele>
        <time>2017-12-19T14:16:26Z</time>
      </trkpt>
      <trkpt lat="44.75199" lon="3.86535">
        <ele>1015</ele>
        <time>2017-12-19T14:18:26Z</time>
      </trkpt>
      <trkpt lat="44.75252" lon="3.86616">
        <ele>1012</ele>
        <time>2017-12-19T14:20:26Z</time>
      </trkpt>
      <trkpt lat="44.75301" lon="3.86693">
        <ele>1011</ele>
        <time>2017-12-19T14:22:26Z</time>
      </trkpt>
      <trkpt lat="44.75359" lon="3.8676">
        <ele>1009</ele>
        <time>2017-12-19T14:24:26Z</time>
      </trkpt>
      <trkpt lat="44.75414" lon="3.86816">
        <ele>1008</ele>
        <time>2017-12-19T14:26:26Z</time>
      </trkpt>
      <trkpt lat="44.75473" lon="3.86906">
        <ele>1012</ele>
        <time>2017-12-19T14:28:26Z</time>
      </trkpt>
      <trkpt lat="44.75514" lon="3.8697">
        <ele>1014</ele>
        <time>2017-12-19T14:30:26Z</time>
      </trkpt>
      <trkpt lat="44.75528" lon="3.87045">
        <ele>1015</ele>
        <time>2017-12-19T14:32:26Z</time>
      </trkpt>
      <trkpt lat="44.75583" lon="3.87129">
        <ele>1019</ele>
        <time>2017-12-19T14:34:26Z</time>
      </trkpt>
      <trkpt lat="44.75648" lon="3.87219">
        <ele>1023</ele>
        <time>2017-12-19T14:36:26Z</time>
      </trkpt>
      <trkpt lat="44.75714" lon="3.87273">
        <ele>1028</ele>
        <time>2017-12-19T14:38:26Z</time>
      </trkpt>
      <trkpt lat="44.75782" lon="3.87322">
        <ele>1033</ele>
        <time>2017-12-19T14:40:26Z</time>
      </trkpt>
      <trkpt lat="44.75862" lon="3.87376">
        <ele>1040</ele>
        <time>2017-12-19T14:42:26Z</time>
      </trkpt>
      <trkpt lat="44.75909" lon="3.87416">
        <ele>1045</ele>
        <time>2017-12-19T14:44:26Z</time>
      </trkpt>
      <trkpt lat="44.75961" lon="3.87468">
        <ele>1050</ele>
        <time>2017-12-19T14:46:26Z</time>
      </trkpt>
      <trkpt lat="44.75994" lon="3.87515">
        <ele>1055</ele>
        <time>2017-12-19T14:48:26Z</time>
      </trkpt>
      <trkpt lat="44.76016" lon="3.87603">
        <ele>1061</ele>
        <time>2017-12-19T14:50:26Z</time>
      </trkpt>
      <trkpt lat="44.76041" lon="3.87674">
        <ele>1062</ele>
        <time>2017-12-19T14:52:26Z</time>
      </trkpt>
      <trkpt lat="44.76087" lon="3.87755">
        <ele>1064</ele>
        <time>2017-12-19T14:54:26Z</time>
      </trkpt>
      <trkpt lat="44.76122" lon="3.87833">
        <ele>1070</ele>
        <time>2017-12-19T14:56:26Z</time>
      </trkpt>
      <trkpt lat="44.76148" lon="3.87904">
        <ele>1077</ele>
        <time>2017-12-19T14:58:26Z</time>
      </trkpt>
      <trkpt lat="44.76154" lon="3.87964">
        <ele>1080</ele>
        <time>2017-12-19T15:00:26Z</time>
      </trkpt>
      <trkpt lat="44.76176" lon="3.88039">
        <ele>1083</ele>
        <time>2017-12-19T15:02:26Z</time>
      </trkpt>
      <trkpt lat="44.76244" lon="3.88105">
        <ele>1089</ele>
        <time>2017-12-19T15:04:26Z</time>
      </trkpt>
      <trkpt lat="44.76291" lon="3.88155">
        <ele>1091</ele>
        <time>2017-12-19T15:06:26Z</time>
      </trkpt>
      <trkpt lat="44.7634" lon="3.88195">
        <ele>1092</ele>
        <time>2017-12-19T15:08:26Z</time>
      </trkpt>
      <trkpt lat="44.76403" lon="3.88219">
        <ele>1097</ele>
        <time>2017-12-19T15:10:26Z</time>
      </trkpt>
      <trkpt lat="44.76459" lon="3.88249">
        <ele>1100</ele>
        <time>2017-12-19T15:12:26Z</time>
      </trkpt>
      <trkpt lat="44.76505" lon="3.88268">
        <ele>1106</ele>
        <time>2017-12-19T15:14:26Z</time>
      </trkpt>
      <trkpt lat="44.76527" lon="3.88309">
        <ele>1108</ele>
        <time>2017-12-19T15:16:26Z</time>
      </trkpt>
      <trkpt lat="44.76541" lon="3.88373">
        <ele>1110</ele>
        <time>2017-12-19T15:18:26Z</time>
      </trkpt>
      <trkpt lat="44.76575" lon="3.88393">
        <ele>1114</ele>
        <time>2017-12-19T15:20:26Z</time>
      </trkpt>
      <trkpt lat="44.76616" lon="3.88367">
        <ele>1118</ele>
        <time>2017-12-19T15:22:26Z</time>
      </trkpt>
      <trkpt lat="44.7666" lon="3.88341">
        <ele>1121</ele>
        <time>2017-12-19T15:24:26Z</time>
      </trkpt>
      <trkpt lat="44.767" lon="3.88337">
        <ele>1127</ele>
        <time>2017-12-19T15:26:26Z</time>
      </trkpt>
      <trkpt lat="44.76735" lon="3.88337">
        <ele>1132</ele>
        <time>2017-12-19T15:28:26Z</time>
      </trkpt>
      <trkpt lat="44.76771" lon="3.88386">
        <ele>1133</ele>
        <time>2017-12-19T15:30:26Z</time>
      </trkpt>
      <trkpt lat="44.76799" lon="3.88419">
        <ele>1134</ele>
        <time>2017-12-19T15:32:26Z</time>
      </trkpt>
      <trkpt lat="44.76834" lon="3.88406">
        <ele>1140</ele>
        <time>2017-12-19T15:34:26Z</time>
      </trkpt>
      <trkpt lat="44.76864" lon="3.88397">
        <ele>1144</ele>
        <time>2017-12-19T15:36:26Z</time>
      </trkpt>
      <trkpt lat="44.76898" lon="3.88414">
        <ele>1146</ele>
        <time>2017-12-19T15:38:26Z</time>
      </trkpt>
      <trkpt lat="44.76927" lon="3.88391">
        <ele>1151</ele>
        <time>2017-12-19T15:40:26Z</time>
      </trkpt>
      <trkpt lat="44.76962" lon="3.88421">
        <ele>1155</ele>
        <time>2017-12-19T15:42:26Z</time>
      </trkpt>
      <trkpt lat="44.76985" lon="3.88457">
        <ele>1155</ele>
        <time>2017-12-19T15:44:26Z</time>
      </trkpt>
      <trkpt lat="44.77007" lon="3.88522">
        <ele>1154</ele>
        <time>2017-12-19T15:46:26Z</time>
      </trkpt>
      <trkpt lat="44.77033" lon="3.88584">
        <ele>1156</ele>
        <time>2017-12-19T15:48:26Z</time>
      </trkpt>
      <trkpt lat="44.77041" lon="3.88655">
        <ele>1156</ele>
        <time>2017-12-19T15:50:26Z</time>
      </trkpt>
      <trkpt lat="44.77045" lon="3.88736">
        <ele>1156</ele>
        <time>2017-12-19T15:52:26Z</time>
      </trkpt>
      <trkpt lat="44.77059" lon="3.88818">
        <ele>1157</ele>
        <time>2017-12-19T15:54:26Z</time>
      </trkpt>
      <trkpt lat="44.77052" lon="3.88884">
        <ele>1155</ele>
        <time>2017-12-19T15:56:26Z</time>
      </trkpt>
      <trkpt lat="44.77039" lon="3.88953">
        <ele>1156</ele>
        <time>2017-12-19T15:58:26Z</time>
      </trkpt>
      <trkpt lat="44.77017" lon="3.89002">
        <ele>1160</ele>
        <time>2017-12-19T16:00:26Z</time>
      </trkpt>
      <trkpt lat="44.77" lon="3.89045">
        <ele>1165</ele>
        <time>2017-12-19T16:02:26Z</time>
      </trkpt>
      <trkpt lat="44.77001" lon="3.89124">
        <ele>1171</ele>
        <time>2017-12-19T16:04:26Z</time>
      </trkpt>
      <trkpt lat="44.77" lon="3.89208">
        <ele>1176</ele>
        <time>2017-12-19T16:06:26Z</time>
      </trkpt>
      <trkpt lat="44.76995" lon="3.89279">
        <ele>1180</ele>
        <time>2017-12-19T16:08:26Z</time>
      </trkpt>
      <trkpt lat="44.76986" lon="3.8936">
        <ele>1183</ele>
        <time>2017-12-19T16:10:26Z</time>
      </trkpt>
      <trkpt lat="44.76978" lon="3.89416">
        <ele>1186</ele>
        <time>2017-12-19T16:12:26Z</time>
      </trkpt>
      <trkpt lat="44.76966" lon="3.89463">
        <ele>1187</ele>
        <time>2017-12-19T16:14:26Z</time>
      </trkpt>
      <trkpt lat="44.7694" lon="3.89558">
        <ele>1192</ele>
        <time>2017-12-19T16:16:26Z</time>
      </trkpt>
      <trkpt lat="44.76925" lon="3.89635">
        <ele>1196</ele>
        <time>2017-12-19T16:18:26Z</time>
      </trkpt>
      <trkpt lat="44.7691" lon="3.89708">
        <ele>1201</ele>
        <time>2017-12-19T16:20:26Z</time>
      </trkpt>
      <trkpt lat="44.76893" lon="3.89796">
        <ele>1212</ele>
        <time>2017-12-19T16:22:26Z</time>
      </trkpt>
      <trkpt lat="44.76869" lon="3.89873">
        <ele>1224</ele>
        <time>2017-12-19T16:24:26Z</time>
      </trkpt>
      <trkpt lat="44.7684" lon="3.89951">
        <ele>1238</ele>
        <time>2017-12-19T16:26:26Z</time>
      </trkpt>
      <trkpt lat="44.76814" lon="3.90015">
        <ele>1250</ele>
        <time>2017-12-19T16:28:26Z</time>
      </trkpt>
      <trkpt lat="44.76773" lon="3.90079">
        <ele>1258</ele>
        <time>2017-12-19T16:30:26Z</time>
      </trkpt>
      <trkpt lat="44.76748" lon="3.90176">
        <ele>1272</ele>
        <time>2017-12-19T16:32:26Z</time>
      </trkpt>
      <trkpt lat="44.76732" lon="3.90283">
        <ele>1281</ele>
        <time>2017-12-19T16:34:26Z</time>
      </trkpt>
      <trkpt lat="44.76718" lon="3.90373">
        <ele>1284</ele>
        <time>2017-12-19T16:36:26Z</time>
      </trkpt>
      <trkpt lat="44.7671" lon="3.9047">
        <ele>1286</ele>
        <time>2017-12-19T16:38:26Z</time>
      </trkpt>
      <trkpt lat="44.76695" lon="3.90564">
        <ele>1287</ele>
        <time>2017-12-19T16:40:26Z</time>
      </trkpt>
      <trkpt lat="44.7668" lon="3.90684">
        <ele>1288</ele>
        <time>2017-12-19T16:42:26Z</time>
      </trkpt>
      <trkpt lat="44.76672" lon="3.90783">
        <ele>1291</ele>
        <time>2017-12-19T16:44:26Z</time>
      </trkpt>
      <trkpt lat="44.7666" lon="3.90867">
        <ele>1293</ele>
        <time>2017-12-19T16:46:26Z</time>
      </trkpt>
      <trkpt lat="44.7664" lon="3.90953">
        <ele>1295</ele>
        <time>2017-12-19T16:48:26Z</time>
      </trkpt>
      <trkpt lat="44.7662" lon="3.91028">
        <ele>1295</ele>
        <time>2017-12-19T16:50:26Z</time>
      </trkpt>
      <trkpt lat="44.76598" lon="3.91124">
        <ele>1294</ele>
        <time>2017-12-19T16:52:26Z</time>
      </trkpt>
      <trkpt lat="44.76576" lon="3.91195">
        <ele>1292</ele>
        <time>2017-12-19T16:54:26Z</time>
      </trkpt>
      <trkpt lat="44.76561" lon="3.91251">
        <ele>1288</ele>
        <time>2017-12-19T16:56:26Z</time>
      </trkpt>
      <trkpt lat="44.7655" lon="3.91317">
        <ele>1285</ele>
        <time>2017-12-19T16:58:26Z</time>
      </trkpt>
      <trkpt lat="44.76534" lon="3.91375">
        <ele>1287</ele>
        <time>2017-12-19T17:00:26Z</time>
      </trkpt>
      <trkpt lat="44.7659" lon="3.91401">
        <ele>1289</ele>
        <time>2017-12-19T17:02:26Z</time>
      </trkpt>
      <trkpt lat="44.76625" lon="3.91395">
        <ele>1288</ele>
        <time>2017-12-19T17:04:26Z</time>
      </trkpt>
      <trkpt lat="44.76655" lon="3.91354">
        <ele>1290</ele>
        <time>2017-12-19T17:06:26Z</time>
      </trkpt>
      <trkpt lat="44.76689" lon="3.91296">
        <ele>1294</ele>
        <time>2017-12-19T17:08:26Z</time>
      </trkpt>
      <trkpt lat="44.76739" lon="3.91212">
        <ele>1298</ele>
        <time>2017-12-19T17:10:26Z</time>
      </trkpt>
      <trkpt lat="44.76826" lon="3.91092">
        <ele>1300</ele>
        <time>2017-12-19T17:12:26Z</time>
      </trkpt>
      <trkpt lat="44.76901" lon="3.90987">
        <ele>1304</ele>
        <time>2017-12-19T17:14:26Z</time>
      </trkpt>
      <trkpt lat="44.76971" lon="3.90897">
        <ele>1303</ele>
        <time>2017-12-19T17:16:26Z</time>
      </trkpt>
      <trkpt lat="44.77042" lon="3.90792">
        <ele>1298</ele>
        <time>2017-12-19T17:18:26Z</time>
      </trkpt>
      <trkpt lat="44.77091" lon="3.90747">
        <ele>1297</ele>
        <time>2017-12-19T17:20:26Z</time>
      </trkpt>
      <trkpt lat="44.77205" lon="3.90665">
        <ele>1292</ele>
        <time>2017-12-19T17:22:26Z</time>
      </trkpt>
      <trkpt lat="44.77329" lon="3.90584">
        <ele>1288</ele>
        <time>2017-12-19T17:24:26Z</time>
      </trkpt>
      <trkpt lat="44.77425" lon="3.90517">
        <ele>1281</ele>
        <time>2017-12-19T17:26:26Z</time>
      </trkpt>
      <trkpt lat="44.77499" lon="3.90461">
        <ele>1278</ele>
        <time>2017-12-19T17:28:26Z</time>
      </trkpt>
      <trkpt lat="44.77618" lon="3.90382">
        <ele>1275</ele>
        <time>2017-12-19T17:30:26Z</time>
      </trkpt>
      <trkpt lat="44.77763" lon="3.90283">
        <ele>1264</ele>
        <time>2017-12-19T17:32:26Z</time>
      </trkpt>
      <trkpt lat="44.77888" lon="3.90202">
        <ele>1256</ele>
        <time>2017-12-19T17:34:26Z</time>
      </trkpt>
      <trkpt lat="44.77972" lon="3.90137">
        <ele>1253</ele>
        <time>2017-12-19T17:36:26Z</time>
      </trkpt>
      <trkpt lat="44.78043" lon="3.90096">
        <ele>1249</ele>
        <time>2017-12-19T17:38:26Z</time>
      </trkpt>
      <trkpt lat="44.78087" lon="3.9006">
        <ele>1246</ele>
        <time>2017-12-19T17:40:26Z</time>
      </trkpt>
      <trkpt lat="44.78128" lon="3.90049">
        <ele>1242</ele>
        <time>2017-12-19T17:42:26Z</time>
      </trkpt>
      <trkpt lat="44.78179" lon="3.89996">
        <ele>1239</ele>
        <time>2017-12-19T17:44:26Z</time>
      </trkpt>
      <trkpt lat="44.78218" lon="3.89938">
        <ele>1238</ele>
        <time>2017-12-19T17:46:26Z</time>
      </trkpt>
      <trkpt lat="44.78256" lon="3.89886">
        <ele>1236</ele>
        <time>2017-12-19T17:48:26Z</time>
      </trkpt>
      <trkpt lat="44.78293" lon="3.89966">
        <ele>1235</ele>
        <time>2017-12-19T17:50:26Z</time>
      </trkpt>
      <trkpt lat="44.78319" lon="3.90004">
        <ele>1231</ele>
        <time>2017-12-19T17:52:26Z</time>
      </trkpt>
      <trkpt lat="44.78355" lon="3.90056">
        <ele>1226</ele>
        <time>2017-12-19T17:54:26Z</time>
      </trkpt>
      <trkpt lat="44.78389" lon="3.9012">
        <ele>1220</ele>
        <time>2017-12-19T17:56:26Z</time>
      </trkpt>
      <trkpt lat="44.78433" lon="3.90204">
        <ele>1211</ele>
        <time>2017-12-19T17:58:26Z</time>
      </trkpt>
      <trkpt lat="44.78479" lon="3.90253">
        <ele>1206</ele>
        <time>2017-12-19T18:00:26Z</time>
      </trkpt>
      <trkpt lat="44.78509" lon="3.90285">
        <ele>1206</ele>
        <time>2017-12-19T18:02:26Z</time>
      </trkpt>
      <trkpt lat="44.78526" lon="3.90328">
        <ele>1206</ele>
        <time>2017-12-19T18:04:26Z</time>
      </trkpt>
      <trkpt lat="44.78543" lon="3.90399">
        <ele>1203</ele>
        <time>2017-12-19T18:06:26Z</time>
      </trkpt>
      <trkpt lat="44.78579" lon="3.90453">
        <ele>1198</ele>
        <time>2017-12-19T18:08:26Z</time>
      </trkpt>
      <trkpt lat="44.78614" lon="3.90511">
        <ele>1198</ele>
        <time>2017-12-19T18:10:26Z</time>
      </trkpt>
      <trkpt lat="44.78645" lon="3.90556">
        <ele>1197</ele>
        <time>2017-12-19T18:12:26Z</time>
      </trkpt>
      <trkpt lat="44.7868" lon="3.90586">
        <ele>1196</ele>
        <time>2017-12-19T18:14:26Z</time>
      </trkpt>
      <trkpt lat="44.78727" lon="3.90586">
        <ele>1197</ele>
        <time>2017-12-19T18:16:26Z</time>
      </trkpt>
      <trkpt lat="44.78802" lon="3.90599">
        <ele>1203</ele>
        <time>2017-12-19T18:18:26Z</time>
      </trkpt>
      <trkpt lat="44.78835" lon="3.90648">
        <ele>1203</ele>
        <time>2017-12-19T18:20:26Z</time>
      </trkpt>
      <trkpt lat="44.78864" lon="3.90699">
        <ele>1203</ele>
        <time>2017-12-19T18:22:26Z</time>
      </trkpt>
      <trkpt lat="44.7889" lon="3.90751">
        <ele>1201</ele>
        <time>2017-12-19T18:24:26Z</time>
      </trkpt>
      <trkpt lat="44.78937" lon="3.90749">
        <ele>1205</ele>
        <time>2017-12-19T18:26:26Z</time>
      </trkpt>
      <trkpt lat="44.78984" lon="3.90745">
        <ele>1208</ele>
        <time>2017-12-19T18:28:26Z</time>
      </trkpt>
      <trkpt lat="44.79054" lon="3.90725">
        <ele>1214</ele>
        <time>2017-12-19T18:30:26Z</time>
      </trkpt>
      <trkpt lat="44.79102" lon="3.90729">
        <ele>1215</ele>
        <time>2017-12-19T18:32:26Z</time>
      </trkpt>
      <trkpt lat="44.79152" lon="3.90719">
        <ele>1216</ele>
        <time>2017-12-19T18:34:26Z</time>
      </trkpt>
      <trkpt lat="44.79156" lon="3.90665">
        <ele>1226</ele>
        <time>2017-12-19T18:36:26Z</time>
      </trkpt>
      <trkpt lat="44.79152" lon="3.90579">
        <ele>1243</ele>
        <time>2017-12-19T18:38:26Z</time>
      </trkpt>
      <trkpt lat="44.79152" lon="3.90517">
        <ele>1250</ele>
        <time>2017-12-19T18:40:26Z</time>
      </trkpt>
      <trkpt lat="44.79083" lon="3.90532">
        <ele>1245</ele>
        <time>2017-12-19T18:42:26Z</time>
      </trkpt>
      <trkpt lat="44.79021" lon="3.90534">
        <ele>1245</ele>
        <time>2017-12-19T18:44:26Z</time>
      </trkpt>
      <trkpt lat="44.78977" lon="3.90521">
        <ele>1242</ele>
        <time>2017-12-19T18:46:26Z</time>
      </trkpt>
      <trkpt lat="44.78965" lon="3.9047">
        <ele>1244</ele>
        <time>2017-12-19T18:48:26Z</time>
      </trkpt>
      <trkpt lat="44.79" lon="3.90408">
        <ele>1255</ele>
        <time>2017-12-19T18:50:26Z</time>
      </trkpt>
      <trkpt lat="44.79035" lon="3.9029">
        <ele>1260</ele>
        <time>2017-12-19T18:52:26Z</time>
      </trkpt>
      <trkpt lat="44.79079" lon="3.90124">
        <ele>1266</ele>
        <time>2017-12-19T18:54:26Z</time>
      </trkpt>
      <trkpt lat="44.79099" lon="3.90054">
        <ele>1263</ele>
        <time>2017-12-19T18:56:26Z</time>
      </trkpt>
      <trkpt lat="44.79123" lon="3.89989">
        <ele>1258</ele>
        <time>2017-12-19T18:58:26Z</time>
      </trkpt>
      <trkpt lat="44.79156" lon="3.89972">
        <ele>1257</ele>
        <time>2017-12-19T19:00:26Z</time>
      </trkpt>
      <trkpt lat="44.79178" lon="3.89972">
        <ele>1256</ele>
        <time>2017-12-19T19:02:26Z</time>
      </trkpt>
      <trkpt lat="44.79172" lon="3.90077">
        <ele>1266</ele>
        <time>2017-12-19T19:04:26Z</time>
      </trkpt>
      <trkpt lat="44.79231" lon="3.90094">
        <ele>1265</ele>
        <time>2017-12-19T19:06:26Z</time>
      </trkpt>
      <trkpt lat="44.79252" lon="3.90146">
        <ele>1266</ele>
        <time>2017-12-19T19:08:26Z</time>
      </trkpt>
      <trkpt lat="44.79281" lon="3.90227">
        <ele>1263</ele>
        <time>2017-12-19T19:10:26Z</time>
      </trkpt>
      <trkpt lat="44.79306" lon="3.90275">
        <ele>1258</ele>
        <time>2017-12-19T19:12:26Z</time>
      </trkpt>
      <trkpt lat="44.79344" lon="3.903">
        <ele>1251</ele>
        <time>2017-12-19T19:14:26Z</time>
      </trkpt>
      <trkpt lat="44.79386" lon="3.90322">
        <ele>1246</ele>
        <time>2017-12-19T19:16:26Z</time>
      </trkpt>
      <trkpt lat="44.79423" lon="3.90328">
        <ele>1242</ele>
        <time>2017-12-19T19:18:26Z</time>
      </trkpt>
      <trkpt lat="44.79455" lon="3.90315">
        <ele>1237</ele>
        <time>2017-12-19T19:20:26Z</time>
      </trkpt>
      <trkpt lat="44.79473" lon="3.90257">
        <ele>1233</ele>
        <time>2017-12-19T19:22:26Z</time>
      </trkpt>
      <trkpt lat="44.79581" lon="3.9029">
        <ele>1227</ele>
        <time>2017-12-19T19:24:26Z</time>
      </trkpt>
      <trkpt lat="44.79686" lon="3.90324">
        <ele>1227</ele>
        <time>2017-12-19T19:26:26Z</time>
      </trkpt>
      <trkpt lat="44.7975" lon="3.90348">
        <ele>1228</ele>
        <time>2017-12-19T19:28:26Z</time>
      </trkpt>
      <trkpt lat="44.79805" lon="3.90388">
        <ele>1225</ele>
        <time>2017-12-19T19:30:26Z</time>
      </trkpt>
      <trkpt lat="44.79863" lon="3.90433">
        <ele>1222</ele>
        <time>2017-12-19T19:32:26Z</time>
      </trkpt>
      <trkpt lat="44.79933" lon="3.9047">
        <ele>1215</ele>
        <time>2017-12-19T19:34:26Z</time>
      </trkpt>
      <trkpt lat="44.79995" lon="3.90502">
        <ele>1209</ele>
        <time>2017-12-19T19:36:26Z</time>
      </trkpt>
      <trkpt lat="44.80043" lon="3.9053">
        <ele>1203</ele>
        <time>2017-12-19T19:38:26Z</time>
      </trkpt>
      <trkpt lat="44.80107" lon="3.90517">
        <ele>1198</ele>
        <time>2017-12-19T19:40:26Z</time>
      </trkpt>
      <trkpt lat="44.80166" lon="3.90508">
        <ele>1195</ele>
        <time>2017-12-19T19:42:26Z</time>
      </trkpt>
      <trkpt lat="44.80209" lon="3.90532">
        <ele>1194</ele>
        <time>2017-12-19T19:44:26Z</time>
      </trkpt>
      <trkpt lat="44.80269" lon="3.90549">
        <ele>1196</ele>
        <time>2017-12-19T19:46:26Z</time>
      </trkpt>
      <trkpt lat="44.80327" lon="3.90554">
        <ele>1200</ele>
        <time>2017-12-19T19:48:26Z</time>
      </trkpt>
      <trkpt lat="44.80362" lon="3.90566">
        <ele>1202</ele>
        <time>2017-12-19T19:50:26Z</time>
      </trkpt>
      <trkpt lat="44.80394" lon="3.90571">
        <ele>1204</ele>
        <time>2017-12-19T19:52:26Z</time>
      </trkpt>
      <trkpt lat="44.80417" lon="3.90605">
        <ele>1205</ele>
        <time>2017-12-19T19:54:26Z</time>
      </trkpt>
      <trkpt lat="44.80492" lon="3.90609">
        <ele>1207</ele>
        <time>2017-12-19T19:56:26Z</time>
      </trkpt>
      <trkpt lat="44.80554" lon="3.90592">
        <ele>1210</ele>
        <time>2017-12-19T19:58:26Z</time>
      </trkpt>
      <trkpt lat="44.80629" lon="3.90629">
        <ele>1212</ele>
        <time>2017-12-19T20:00:26Z</time>
      </trkpt>
      <trkpt lat="44.80697" lon="3.9062">
        <ele>1214</ele>
        <time>2017-12-19T20:02:26Z</time>
      </trkpt>
      <trkpt lat="44.80766" lon="3.90607">
        <ele>1217</ele>
        <time>2017-12-19T20:04:26Z</time>
      </trkpt>
      <trkpt lat="44.8083" lon="3.90588">
        <ele>1221</ele>
        <time>2017-12-19T20:06:26Z</time>
      </trkpt>
      <trkpt lat="44.80889" lon="3.90586">
        <ele>1226</ele>
        <time>2017-12-19T20:08:26Z</time>
      </trkpt>
      <trkpt lat="44.80968" lon="3.90599">
        <ele>1230</ele>
        <time>2017-12-19T20:10:26Z</time>
      </trkpt>
      <trkpt lat="44.81041" lon="3.90609">
        <ele>1233</ele>
        <time>2017-12-19T20:12:26Z</time>
      </trkpt>
      <trkpt lat="44.81143" lon="3.90614">
        <ele>1234</ele>
        <time>2017-12-19T20:14:26Z</time>
      </trkpt>
      <trkpt lat="44.81213" lon="3.90611">
        <ele>1230</ele>
        <time>2017-12-19T20:16:26Z</time>
      </trkpt>
      <trkpt lat="44.81259" lon="3.9056">
        <ele>1234</ele>
        <time>2017-12-19T20:18:26Z</time>
      </trkpt>
      <trkpt lat="44.81299" lon="3.90519">
        <ele>1236</ele>
        <time>2017-12-19T20:20:26Z</time>
      </trkpt>
      <trkpt lat="44.81321" lon="3.90487">
        <ele>1237</ele>
        <time>2017-12-19T20:22:26Z</time>
      </trkpt>
      <trkpt lat="44.8128" lon="3.9044">
        <ele>1252</ele>
        <time>2017-12-19T20:24:26Z</time>
      </trkpt>
      <trkpt lat="44.81236" lon="3.90478">
        <ele>1252</ele>
        <time>2017-12-19T20:26:26Z</time>
      </trkpt>
      <trkpt lat="44.81194" lon="3.90457">
        <ele>1257</ele>
        <time>2017-12-19T20:28:26Z</time>
      </trkpt>
      <trkpt lat="44.81178" lon="3.90367">
        <ele>1269</ele>
        <time>2017-12-19T20:30:26Z</time>
      </trkpt>
      <trkpt lat="44.81152" lon="3.90275">
        <ele>1281</ele>
        <time>2017-12-19T20:32:26Z</time>
      </trkpt>
      <trkpt lat="44.81104" lon="3.90225">
        <ele>1286</ele>
        <time>2017-12-19T20:34:26Z</time>
      </trkpt>
      <trkpt lat="44.81035" lon="3.90195">
        <ele>1284</ele>
        <time>2017-12-19T20:36:26Z</time>
      </trkpt>
      <trkpt lat="44.80988" lon="3.9015">
        <ele>1282</ele>
        <time>2017-12-19T20:38:26Z</time>
      </trkpt>
      <trkpt lat="44.80947" lon="3.90101">
        <ele>1277</ele>
        <time>2017-12-19T20:40:26Z</time>
      </trkpt>
      <trkpt lat="44.80924" lon="3.90011">
        <ele>1277</ele>
        <time>2017-12-19T20:42:26Z</time>
      </trkpt>
      <trkpt lat="44.80932" lon="3.89927">
        <ele>1279</ele>
        <time>2017-12-19T20:44:26Z</time>
      </trkpt>
      <trkpt lat="44.80942" lon="3.89839">
        <ele>1275</ele>
        <time>2017-12-19T20:46:26Z</time>
      </trkpt>
      <trkpt lat="44.80947" lon="3.89762">
        <ele>1268</ele>
        <time>2017-12-19T20:48:26Z</time>
      </trkpt>
      <trkpt lat="44.80939" lon="3.89689">
        <ele>1256</ele>
        <time>2017-12-19T20:50:26Z</time>
      </trkpt>
      <trkpt lat="44.80938" lon="3.89648">
        <ele>1250</ele>
        <time>2017-12-19T20:52:26Z</time>
      </trkpt>
      <trkpt lat="44.80897" lon="3.89642">
        <ele>1240</ele>
        <time>2017-12-19T20:54:26Z</time>
      </trkpt>
      <trkpt lat="44.80851" lon="3.89672">
        <ele>1236</ele>
        <time>2017-12-19T20:56:26Z</time>
      </trkpt>
      <trkpt lat="44.80819" lon="3.89708">
        <ele>1234</ele>
        <time>2017-12-19T20:58:26Z</time>
      </trkpt>
      <trkpt lat="44.80786" lon="3.89736">
        <ele>1233</ele>
        <time>2017-12-19T21:00:26Z</time>
      </trkpt>
      <trkpt lat="44.80738" lon="3.8977">
        <ele>1232</ele>
        <time>2017-12-19T21:02:26Z</time>
      </trkpt>
      <trkpt lat="44.80697" lon="3.89845">
        <ele>1232</ele>
        <time>2017-12-19T21:04:26Z</time>
      </trkpt>
      <trkpt lat="44.80656" lon="3.89914">
        <ele>1231</ele>
        <time>2017-12-19T21:06:26Z</time>
      </trkpt>
      <trkpt lat="44.80627" lon="3.89946">
        <ele>1229</ele>
        <time>2017-12-19T21:08:26Z</time>
      </trkpt>
      <trkpt lat="44.80606" lon="3.90009">
        <ele>1228</ele>
        <time>2017-12-19T21:10:26Z</time>
      </trkpt>
      <trkpt lat="44.80545" lon="3.90011">
        <ele>1223</ele>
        <time>2017-12-19T21:12:26Z</time>
      </trkpt>
      <trkpt lat="44.80483" lon="3.90006">
        <ele>1218</ele>
        <time>2017-12-19T21:14:26Z</time>
      </trkpt>
      <trkpt lat="44.80416" lon="3.89993">
        <ele>1213</ele>
        <time>2017-12-19T21:16:26Z</time>
      </trkpt>
      <trkpt lat="44.80384" lon="3.89981">
        <ele>1211</ele>
        <time>2017-12-19T21:18:26Z</time>
      </trkpt>
      <trkpt lat="44.80352" lon="3.89963">
        <ele>1210</ele>
        <time>2017-12-19T21:20:26Z</time>
      </trkpt>
      <trkpt lat="44.80323" lon="3.89918">
        <ele>1209</ele>
        <time>2017-12-19T21:22:26Z</time>
      </trkpt>
      <trkpt lat="44.80262" lon="3.89938">
        <ele>1206</ele>
        <time>2017-12-19T21:24:26Z</time>
      </trkpt>
      <trkpt lat="44.80222" lon="3.89989">
        <ele>1204</ele>
        <time>2017-12-19T21:26:26Z</time>
      </trkpt>
      <trkpt lat="44.80195" lon="3.90086">
        <ele>1204</ele>
        <time>2017-12-19T21:28:26Z</time>
      </trkpt>
      <trkpt lat="44.80163" lon="3.90122">
        <ele>1203</ele>
        <time>2017-12-19T21:30:26Z</time>
      </trkpt>
      <trkpt lat="44.80137" lon="3.90161">
        <ele>1203</ele>
        <time>2017-12-19T21:32:26Z</time>
      </trkpt>
      <trkpt lat="44.80102" lon="3.90127">
        <ele>1205</ele>
        <time>2017-12-19T21:34:26Z</time>
      </trkpt>
      <trkpt lat="44.80073" lon="3.90004">
        <ele>1204</ele>
        <time>2017-12-19T21:36:26Z</time>
      </trkpt>
      <trkpt lat="44.80053" lon="3.89927">
        <ele>1204</ele>
        <time>2017-12-19T21:38:26Z</time>
      </trkpt>
      <trkpt lat="44.79995" lon="3.89899">
        <ele>1205</ele>
        <time>2017-12-19T21:40:26Z</time>
      </trkpt>
      <trkpt lat="44.79938" lon="3.89875">
        <ele>1203</ele>
        <time>2017-12-19T21:42:26Z</time>
      </trkpt>
      <trkpt lat="44.799" lon="3.8986">
        <ele>1203</ele>
        <time>2017-12-19T21:44:26Z</time>
      </trkpt>
      <trkpt lat="44.79887" lon="3.8979">
        <ele>1201</ele>
        <time>2017-12-19T21:46:26Z</time>
      </trkpt>
      <trkpt lat="44.79872" lon="3.89682">
        <ele>1199</ele>
        <time>2017-12-19T21:48:26Z</time>
      </trkpt>
      <trkpt lat="44.79836" lon="3.89616">
        <ele>1197</ele>
        <time>2017-12-19T21:50:26Z</time>
      </trkpt>
      <trkpt lat="44.79816" lon="3.89573">
        <ele>1196</ele>
        <time>2017-12-19T21:52:26Z</time>
      </trkpt>
      <trkpt lat="44.79813" lon="3.89487">
        <ele>1195</ele>
        <time>2017-12-19T21:54:26Z</time>
      </trkpt>
      <trkpt lat="44.79808" lon="3.89363">
        <ele>1197</ele>
        <time>2017-12-19T21:56:26Z</time>
      </trkpt>
      <trkpt lat="44.79807" lon="3.89266">
        <ele>1198</ele>
        <time>2017-12-19T21:58:26Z</time>
      </trkpt>
      <trkpt lat="44.79807" lon="3.89189">
        <ele>1202</ele>
        <time>2017-12-19T22:00:26Z</time>
      </trkpt>
      <trkpt lat="44.79779" lon="3.8912">
        <ele>1207</ele>
        <time>2017-12-19T22:02:26Z</time>
      </trkpt>
      <trkpt lat="44.79711" lon="3.89112">
        <ele>1215</ele>
        <time>2017-12-19T22:04:26Z</time>
      </trkpt>
      <trkpt lat="44.79657" lon="3.89114">
        <ele>1223</ele>
        <time>2017-12-19T22:06:26Z</time>
      </trkpt>
      <trkpt lat="44.79615" lon="3.89148">
        <ele>1228</ele>
        <time>2017-12-19T22:08:26Z</time>
      </trkpt>
      <trkpt lat="44.79587" lon="3.89195">
        <ele>1231</ele>
        <time>2017-12-19T22:10:26Z</time>
      </trkpt>
      <trkpt lat="44.79546" lon="3.89236">
        <ele>1234</ele>
        <time>2017-12-19T22:12:26Z</time>
      </trkpt>
      <trkpt lat="44.79501" lon="3.89309">
        <ele>1231</ele>
        <time>2017-12-19T22:14:26Z</time>
      </trkpt>
      <trkpt lat="44.79455" lon="3.89328">
        <ele>1231</ele>
        <time>2017-12-19T22:16:26Z</time>
      </trkpt>
      <trkpt lat="44.79415" lon="3.89358">
        <ele>1233</ele>
        <time>2017-12-19T22:18:26Z</time>
      </trkpt>
      <trkpt lat="44.79357" lon="3.89376">
        <ele>1237</ele>
        <time>2017-12-19T22:20:26Z</time>
      </trkpt>
      <trkpt lat="44.79325" lon="3.89406">
        <ele>1241</ele>
        <time>2017-12-19T22:22:26Z</time>
      </trkpt>
      <trkpt lat="44.79258" lon="3.89388">
        <ele>1246</ele>
        <time>2017-12-19T22:24:26Z</time>
      </trkpt>
      <trkpt lat="44.79198" lon="3.89388">
        <ele>1248</ele>
        <time>2017-12-19T22:26:26Z</time>
      </trkpt>
      <trkpt lat="44.79176" lon="3.89376">
        <ele>1248</ele>
        <time>2017-12-19T22:28:26Z</time>
      </trkpt>
      <trkpt lat="44.79201" lon="3.89311">
        <ele>1247</ele>
        <time>2017-12-19T22:30:26Z</time>
      </trkpt>
      <trkpt lat="44.79239" lon="3.89236">
        <ele>1248</ele>
        <time>2017-12-19T22:32:26Z</time>
      </trkpt>
      <trkpt lat="44.79281" lon="3.89178">
        <ele>1250</ele>
        <time>2017-12-19T22:34:26Z</time>
      </trkpt>
      <trkpt lat="44.79327" lon="3.89167">
        <ele>1247</ele>
        <time>2017-12-19T22:36:26Z</time>
      </trkpt>
      <trkpt lat="44.79382" lon="3.89159">
        <ele>1246</ele>
        <time>2017-12-19T22:38:26Z</time>
      </trkpt>
      <trkpt lat="44.79394" lon="3.88912">
        <ele>1255</ele>
        <time>2017-12-19T22:40:26Z</time>
      </trkpt>
      <trkpt lat="44.79402" lon="3.88723">
        <ele>1249</ele>
        <time>2017-12-19T22:42:26Z</time>
      </trkpt>
      <trkpt lat="44.79301" lon="3.88766">
        <ele>1261</ele>
        <time>2017-12-19T22:44:26Z</time>
      </trkpt>
      <trkpt lat="44.79251" lon="3.88788">
        <ele>1266</ele>
        <time>2017-12-19T22:46:26Z</time>
      </trkpt>
      <trkpt lat="44.79195" lon="3.88785">
        <ele>1272</ele>
        <time>2017-12-19T22:48:26Z</time>
      </trkpt>
      <trkpt lat="44.79161" lon="3.88781">
        <ele>1275</ele>
        <time>2017-12-19T22:50:26Z</time>
      </trkpt>
      <trkpt lat="44.79109" lon="3.8885">
        <ele>1278</ele>
        <time>2017-12-19T22:52:26Z</time>
      </trkpt>
      <trkpt lat="44.79048" lon="3.8894">
        <ele>1274</ele>
        <time>2017-12-19T22:54:26Z</time>
      </trkpt>
      <trkpt lat="44.7898" lon="3.89043">
        <ele>1271</ele>
        <time>2017-12-19T22:56:26Z</time>
      </trkpt>
      <trkpt lat="44.7892" lon="3.89122">
        <ele>1270</ele>
        <time>2017-12-19T22:58:26Z</time>
      </trkpt>
      <trkpt lat="44.78863" lon="3.89187">
        <ele>1273</ele>
        <time>2017-12-19T23:00:26Z</time>
      </trkpt>
      <trkpt lat="44.78821" lon="3.89253">
        <ele>1273</ele>
        <time>2017-12-19T23:02:26Z</time>
      </trkpt>
      <trkpt lat="44.78695" lon="3.89425">
        <ele>1262</ele>
        <time>2017-12-19T23:04:26Z</time>
      </trkpt>
      <trkpt lat="44.78614" lon="3.89373">
        <ele>1264</ele>
        <time>2017-12-19T23:06:26Z</time>
      </trkpt>
      <trkpt lat="44.78563" lon="3.89337">
        <ele>1270</ele>
        <time>2017-12-19T23:08:26Z</time>
      </trkpt>
      <trkpt lat="44.78506" lon="3.89345">
        <ele>1268</ele>
        <time>2017-12-19T23:10:26Z</time>
      </trkpt>
      <trkpt lat="44.78453" lon="3.89358">
        <ele>1260</ele>
        <time>2017-12-19T23:12:26Z</time>
      </trkpt>
      <trkpt lat="44.78409" lon="3.89345">
        <ele>1258</ele>
        <time>2017-12-19T23:14:26Z</time>
      </trkpt>
      <trkpt lat="44.78357" lon="3.89326">
        <ele>1255</ele>
        <time>2017-12-19T23:16:26Z</time>
      </trkpt>
      <trkpt lat="44.78317" lon="3.89305">
        <ele>1252</ele>
        <time>2017-12-19T23:18:26Z</time>
      </trkpt>
      <trkpt lat="44.78276" lon="3.89305">
        <ele>1249</ele>
        <time>2017-12-19T23:20:26Z</time>
      </trkpt>
      <trkpt lat="44.78221" lon="3.89318">
        <ele>1245</ele>
        <time>2017-12-19T23:22:26Z</time>
      </trkpt>
      <trkpt lat="44.78157" lon="3.8929">
        <ele>1242</ele>
        <time>2017-12-19T23:24:26Z</time>
      </trkpt>
      <trkpt lat="44.78103" lon="3.89268">
        <ele>1242</ele>
        <time>2017-12-19T23:26:26Z</time>
      </trkpt>
      <trkpt lat="44.78014" lon="3.89234">
        <ele>1237</ele>
        <time>2017-12-19T23:28:26Z</time>
      </trkpt>
      <trkpt lat="44.7799" lon="3.89251">
        <ele>1237</ele>
        <time>2017-12-19T23:30:26Z</time>
      </trkpt>
      <trkpt lat="44.7793" lon="3.89225">
        <ele>1231</ele>
        <time>2017-12-19T23:32:26Z</time>
      </trkpt>
      <trkpt lat="44.77859" lon="3.89176">
        <ele>1225</ele>
        <time>2017-12-19T23:34:26Z</time>
      </trkpt>
      <trkpt lat="44.77798" lon="3.89107">
        <ele>1220</ele>
        <time>2017-12-19T23:36:26Z</time>
      </trkpt>
      <trkpt lat="44.77755" lon="3.89043">
        <ele>1214</ele>
        <time>2017-12-19T23:38:26Z</time>
      </trkpt>
      <trkpt lat="44.77732" lon="3.88991">
        <ele>1209</ele>
        <time>2017-12-19T23:40:26Z</time>
      </trkpt>
      <trkpt lat="44.77707" lon="3.88957">
        <ele>1206</ele>
        <time>2017-12-19T23:42:26Z</time>
      </trkpt>
      <trkpt lat="44.77633" lon="3.88918">
        <ele>1202</ele>
        <time>2017-12-19T23:44:26Z</time>
      </trkpt>
      <trkpt lat="44.776" lon="3.88893">
        <ele>1201</ele>
        <time>2017-12-19T23:46:26Z</time>
      </trkpt>
      <trkpt lat="44.77556" lon="3.88888">
        <ele>1200</ele>
        <time>2017-12-19T23:48:26Z</time>
      </trkpt>
      <trkpt lat="44.77519" lon="3.88856">
        <ele>1197</ele>
        <time>2017-12-19T23:50:26Z</time>
      </trkpt>
      <trkpt lat="44.77489" lon="3.88828">
        <ele>1195</ele>
        <time>2017-12-19T23:52:26Z</time>
      </trkpt>
      <trkpt lat="44.77449" lon="3.88747">
        <ele>1190</ele>
        <time>2017-12-19T23:54:26Z</time>
      </trkpt>
      <trkpt lat="44.77402" lon="3.88678">
        <ele>1190</ele>
        <time>2017-12-19T23:56:26Z</time>
      </trkpt>
      <trkpt lat="44.77364" lon="3.88601">
        <ele>1188</ele>
        <time>2017-12-19T23:58:26Z</time>
      </trkpt>
      <trkpt lat="44.77329" lon="3.88543">
        <ele>1184</ele>
        <time>2017-12-20T00:00:26Z</time>
      </trkpt>
      <trkpt lat="44.77266" lon="3.8847">
        <ele>1179</ele>
        <time>2017-12-20T00:02:26Z</time>
      </trkpt>
      <trkpt lat="44.77225" lon="3.88434">
        <ele>1174</ele>
        <time>2017-12-20T00:04:26Z</time>
      </trkpt>
      <trkpt lat="44.77183" lon="3.88401">
        <ele>1170</ele>
        <time>2017-12-20T00:06:26Z</time>
      </trkpt>
      <trkpt lat="44.77135" lon="3.8838">
        <ele>1167</ele>
        <time>2017-12-20T00:08:26Z</time>
      </trkpt>
      <trkpt lat="44.77065" lon="3.88333">
        <ele>1162</ele>
        <time>2017-12-20T00:10:26Z</time>
      </trkpt>
      <trkpt lat="44.77027" lon="3.88322">
        <ele>1158</ele>
        <time>2017-12-20T00:12:26Z</time>
      </trkpt>
      <trkpt lat="44.77001" lon="3.88352">
        <ele>1159</ele>
        <time>2017-12-20T00:14:26Z</time>
      </trkpt>
      <trkpt lat="44.76983" lon="3.8841">
        <ele>1158</ele>
        <time>2017-12-20T00:16:26Z</time>
      </trkpt>
      <trkpt lat="44.76945" lon="3.88406">
        <ele>1153</ele>
        <time>2017-12-20T00:18:26Z</time>
      </trkpt>
      <trkpt lat="44.76911" lon="3.88397">
        <ele>1149</ele>
        <time>2017-12-20T00:20:26Z</time>
      </trkpt>
      <trkpt lat="44.76881" lon="3.88408">
        <ele>1145</ele>
        <time>2017-12-20T00:22:26Z</time>
      </trkpt>
      <trkpt lat="44.76846" lon="3.88401">
        <ele>1142</ele>
        <time>2017-12-20T00:24:26Z</time>
      </trkpt>
      <trkpt lat="44.76815" lon="3.8841">
        <ele>1137</ele>
        <time>2017-12-20T00:26:26Z</time>
      </trkpt>
      <trkpt lat="44.76785" lon="3.88403">
        <ele>1134</ele>
        <time>2017-12-20T00:28:26Z</time>
      </trkpt>
      <trkpt lat="44.76751" lon="3.88354">
        <ele>1133</ele>
        <time>2017-12-20T00:30:26Z</time>
      </trkpt>
      <trkpt lat="44.76721" lon="3.88337">
        <ele>1130</ele>
        <time>2017-12-20T00:32:26Z</time>
      </trkpt>
      <trkpt lat="44.76686" lon="3.88337">
        <ele>1125</ele>
        <time>2017-12-20T00:34:26Z</time>
      </trkpt>
      <trkpt lat="44.7664" lon="3.88348">
        <ele>1120</ele>
        <time>2017-12-20T00:36:26Z</time>
      </trkpt>
      <trkpt lat="44.76593" lon="3.8838">
        <ele>1116</ele>
        <time>2017-12-20T00:38:26Z</time>
      </trkpt>
      <trkpt lat="44.76555" lon="3.88386">
        <ele>1112</ele>
        <time>2017-12-20T00:40:26Z</time>
      </trkpt>
      <trkpt lat="44.76534" lon="3.88339">
        <ele>1109</ele>
        <time>2017-12-20T00:42:26Z</time>
      </trkpt>
      <trkpt lat="44.7652" lon="3.88285">
        <ele>1108</ele>
        <time>2017-12-20T00:44:26Z</time>
      </trkpt>
      <trkpt lat="44.7648" lon="3.88251">
        <ele>1103</ele>
        <time>2017-12-20T00:46:26Z</time>
      </trkpt>
      <trkpt lat="44.7643" lon="3.88234">
        <ele>1098</ele>
        <time>2017-12-20T00:48:26Z</time>
      </trkpt>
      <trkpt lat="44.76377" lon="3.88208">
        <ele>1095</ele>
        <time>2017-12-20T00:50:26Z</time>
      </trkpt>
      <trkpt lat="44.76314" lon="3.88167">
        <ele>1093</ele>
        <time>2017-12-20T00:52:26Z</time>
      </trkpt>
      <trkpt lat="44.76265" lon="3.88129">
        <ele>1090</ele>
        <time>2017-12-20T00:54:26Z</time>
      </trkpt>
      <trkpt lat="44.76221" lon="3.8811">
        <ele>1084</ele>
        <time>2017-12-20T00:56:26Z</time>
      </trkpt>
      <trkpt lat="44.76169" lon="3.88073">
        <ele>1080</ele>
        <time>2017-12-20T00:58:26Z</time>
      </trkpt>
      <trkpt lat="44.76124" lon="3.88052">
        <ele>1075</ele>
        <time>2017-12-20T01:00:26Z</time>
      </trkpt>
      <trkpt lat="44.7608" lon="3.88041">
        <ele>1070</ele>
        <time>2017-12-20T01:02:26Z</time>
      </trkpt>
      <trkpt lat="44.76048" lon="3.88022">
        <ele>1068</ele>
        <time>2017-12-20T01:04:26Z</time>
      </trkpt>
      <trkpt lat="44.76011" lon="3.88">
        <ele>1066</ele>
        <time>2017-12-20T01:06:26Z</time>
      </trkpt>
      <trkpt lat="44.75961" lon="3.88007">
        <ele>1063</ele>
        <time>2017-12-20T01:08:26Z</time>
      </trkpt>
      <trkpt lat="44.759" lon="3.88052">
        <ele>1060</ele>
        <time>2017-12-20T01:10:26Z</time>
      </trkpt>
      <trkpt lat="44.7584" lon="3.88099">
        <ele>1060</ele>
        <time>2017-12-20T01:12:26Z</time>
      </trkpt>
      <trkpt lat="44.75772" lon="3.88135">
        <ele>1059</ele>
        <time>2017-12-20T01:14:26Z</time>
      </trkpt>
      <trkpt lat="44.75696" lon="3.88176">
        <ele>1055</ele>
        <time>2017-12-20T01:16:26Z</time>
      </trkpt>
      <trkpt lat="44.7563" lon="3.88185">
        <ele>1051</ele>
        <time>2017-12-20T01:18:26Z</time>
      </trkpt>
      <trkpt lat="44.75563" lon="3.88191">
        <ele>1042</ele>
        <time>2017-12-20T01:20:26Z</time>
      </trkpt>
      <trkpt lat="44.75505" lon="3.88187">
        <ele>1031</ele>
        <time>2017-12-20T01:22:26Z</time>
      </trkpt>
      <trkpt lat="44.7547" lon="3.88185">
        <ele>1028</ele>
        <time>2017-12-20T01:24:26Z</time>
      </trkpt>
      <trkpt lat="44.75435" lon="3.8812">
        <ele>1027</ele>
        <time>2017-12-20T01:26:26Z</time>
      </trkpt>
      <trkpt lat="44.75402" lon="3.88073">
        <ele>1026</ele>
        <time>2017-12-20T01:28:26Z</time>
      </trkpt>
      <trkpt lat="44.75391" lon="3.87991">
        <ele>1033</ele>
        <time>2017-12-20T01:30:26Z</time>
      </trkpt>
      <trkpt lat="44.75347" lon="3.87942">
        <ele>1028</ele>
        <time>2017-12-20T01:32:26Z</time>
      </trkpt>
      <trkpt lat="44.75301" lon="3.87891">
        <ele>1025</ele>
        <time>2017-12-20T01:34:26Z</time>
      </trkpt>
      <trkpt lat="44.75264" lon="3.87865">
        <ele>1024</ele>
        <time>2017-12-20T01:36:26Z</time>
      </trkpt>
      <trkpt lat="44.75225" lon="3.87835">
        <ele>1023</ele>
        <time>2017-12-20T01:38:26Z</time>
      </trkpt>
      <trkpt lat="44.75179" lon="3.87764">
        <ele>1023</ele>
        <time>2017-12-20T01:40:26Z</time>
      </trkpt>
      <trkpt lat="44.75141" lon="3.8771">
        <ele>1022</ele>
        <time>2017-12-20T01:42:26Z</time>
      </trkpt>
      <trkpt lat="44.75123" lon="3.87646">
        <ele>1023</ele>
        <time>2017-12-20T01:44:26Z</time>
      </trkpt>
      <trkpt lat="44.75135" lon="3.87543">
        <ele>1023</ele>
        <time>2017-12-20T01:46:26Z</time>
      </trkpt>
      <trkpt lat="44.75135" lon="3.87416">
        <ele>1022</ele>
        <time>2017-12-20T01:48:26Z</time>
      </trkpt>
      <trkpt lat="44.75141" lon="3.87271">
        <ele>1020</ele>
        <time>2017-12-20T01:50:26Z</time>
      </trkpt>
      <trkpt lat="44.75146" lon="3.87183">
        <ele>1019</ele>
        <time>2017-12-20T01:52:26Z</time>
      </trkpt>
      <trkpt lat="44.75167" lon="3.87101">
        <ele>1017</ele>
        <time>2017-12-20T01:54:26Z</time>
      </trkpt>
      <trkpt lat="44.75202" lon="3.8703">
        <ele>1015</ele>
        <time>2017-12-20T01:56:26Z</time>
      </trkpt>
      <trkpt lat="44.75222" lon="3.86966">
        <ele>1012</ele>
        <time>2017-12-20T01:58:26Z</time>
      </trkpt>
      <trkpt lat="44.7524" lon="3.86893">
        <ele>1010</ele>
        <time>2017-12-20T02:00:26Z</time>
      </trkpt>
      <trkpt lat="44.7524" lon="3.86798">
        <ele>1010</ele>
        <time>2017-12-20T02:02:26Z</time>
      </trkpt>
      <trkpt lat="44.75228" lon="3.86747">
        <ele>1009</ele>
        <time>2017-12-20T02:04:26Z</time>
      </trkpt>
      <trkpt lat="44.75277" lon="3.86668">
        <ele>1011</ele>
        <time>2017-12-20T02:06:26Z</time>
      </trkpt>
      <trkpt lat="44.75228" lon="3.86567">
        <ele>1013</ele>
        <time>2017-12-20T02:08:26Z</time>
      </trkpt>
      <trkpt lat="44.75174" lon="3.86487">
        <ele>1017</ele>
        <time>2017-12-20T02:10:26Z</time>
      </trkpt>
      <trkpt lat="44.75127" lon="3.86397">
        <ele>1012</ele>
        <time>2017-12-20T02:12:26Z</time>
      </trkpt>
      <trkpt lat="44.75063" lon="3.86307">
        <ele>1009</ele>
        <time>2017-12-20T02:14:26Z</time>
      </trkpt>
      <trkpt lat="44.74995" lon="3.86247">
        <ele>1009</ele>
        <time>2017-12-20T02:16:26Z</time>
      </trkpt>
      <trkpt lat="44.74932" lon="3.86198">
        <ele>1006</ele>
        <time>2017-12-20T02:18:26Z</time>
      </trkpt>
      <trkpt lat="44.74873" lon="3.8617">
        <ele>1003</ele>
        <time>2017-12-20T02:20:26Z</time>
      </trkpt>
      <trkpt lat="44.74826" lon="3.86155">
        <ele>1000</ele>
        <time>2017-12-20T02:22:26Z</time>
      </trkpt>
      <trkpt lat="44.74777" lon="3.8611">
        <ele>995</ele>
        <time>2017-12-20T02:24:26Z</time>
      </trkpt>
      <trkpt lat="44.74726" lon="3.86065">
        <ele>988</ele>
        <time>2017-12-20T02:26:26Z</time>
      </trkpt>
      <trkpt lat="44.74665" lon="3.86007">
        <ele>980</ele>
        <time>2017-12-20T02:28:26Z</time>
      </trkpt>
      <trkpt lat="44.74615" lon="3.8597">
        <ele>976</ele>
        <time>2017-12-20T02:30:26Z</time>
      </trkpt>
      <trkpt lat="44.74556" lon="3.85944">
        <ele>974</ele>
        <time>2017-12-20T02:32:26Z</time>
      </trkpt>
      <trkpt lat="44.74509" lon="3.85977">
        <ele>971</ele>
        <time>2017-12-20T02:34:26Z</time>
      </trkpt>
      <trkpt lat="44.74457" lon="3.86002">
        <ele>969</ele>
        <time>2017-12-20T02:36:26Z</time>
      </trkpt>
      <trkpt lat="44.744" lon="3.86007">
        <ele>969</ele>
        <time>2017-12-20T02:38:26Z</time>
      </trkpt>
      <trkpt lat="44.74361" lon="3.85985">
        <ele>972</ele>
        <time>2017-12-20T02:40:26Z</time>
      </trkpt>
      <trkpt lat="44.74306" lon="3.85966">
        <ele>971</ele>
        <time>2017-12-20T02:42:26Z</time>
      </trkpt>
      <trkpt lat="44.74254" lon="3.85947">
        <ele>969</ele>
        <time>2017-12-20T02:44:26Z</time>
      </trkpt>
      <trkpt lat="44.74211" lon="3.85906">
        <ele>965</ele>
        <time>2017-12-20T02:46:26Z</time>
      </trkpt>
      <trkpt lat="44.74196" lon="3.85846">
        <ele>962</ele>
        <time>2017-12-20T02:48:26Z</time>
      </trkpt>
      <trkpt lat="44.7419" lon="3.85773">
        <ele>961</ele>
        <time>2017-12-20T02:50:26Z</time>
      </trkpt>
      <trkpt lat="44.74149" lon="3.85717">
        <ele>957</ele>
        <time>2017-12-20T02:52:26Z</time>
      </trkpt>
      <trkpt lat="44.74094" lon="3.85687">
        <ele>949</ele>
        <time>2017-12-20T02:54:26Z</time>
      </trkpt>
      <trkpt lat="44.74044" lon="3.85659">
        <ele>943</ele>
        <time>2017-12-20T02:56:26Z</time>
      </trkpt>
      <trkpt lat="44.73986" lon="3.85655">
        <ele>937</ele>
        <time>2017-12-20T02:58:26Z</time>
      </trkpt>
      <trkpt lat="44.73946" lon="3.85696">
        <ele>931</ele>
        <time>2017-12-20T03:00:26Z</time>
      </trkpt>
      <trkpt lat="44.7391" lon="3.8573">
        <ele>923</ele>
        <time>2017-12-20T03:02:26Z</time>
      </trkpt>
      <trkpt lat="44.73855" lon="3.85721">
        <ele>918</ele>
        <time>2017-12-20T03:04:26Z</time>
      </trkpt>
      <trkpt lat="44.73783" lon="3.85706">
        <ele>911</ele>
        <time>2017-12-20T03:06:26Z</time>
      </trkpt>
      <trkpt lat="44.73727" lon="3.85696">
        <ele>906</ele>
        <time>2017-12-20T03:08:26Z</time>
      </trkpt>
      <trkpt lat="44.7371" lon="3.85768">
        <ele>907</ele>
        <time>2017-12-20T03:10:26Z</time>
      </trkpt>
      <trkpt lat="44.73678" lon="3.85756">
        <ele>906</ele>
        <time>2017-12-20T03:12:26Z</time>
      </trkpt>
      <trkpt lat="44.73629" lon="3.8579">
        <ele>908</ele>
        <time>2017-12-20T03:14:26Z</time>
      </trkpt>
      <trkpt lat="44.7357" lon="3.85835">
        <ele>908</ele>
        <time>2017-12-20T03:16:26Z</time>
      </trkpt>
      <trkpt lat="44.73516" lon="3.85822">
        <ele>904</ele>
        <time>2017-12-20T03:18:26Z</time>
      </trkpt>
      <trkpt lat="44.73471" lon="3.85741">
        <ele>901</ele>
        <time>2017-12-20T03:20:26Z</time>
      </trkpt>
      <trkpt lat="44.73431" lon="3.857">
        <ele>904</ele>
        <time>2017-12-20T03:22:26Z</time>
      </trkpt>
      <trkpt lat="44.73466" lon="3.85668">
        <ele>905</ele>
        <time>2017-12-20T03:24:26Z</time>
      </trkpt>
      <trkpt lat="44.73518" lon="3.85569">
        <ele>903</ele>
        <time>2017-12-20T03:26:26Z</time>
      </trkpt>
      <trkpt lat="44.73545" lon="3.8553">
        <ele>903</ele>
        <time>2017-12-20T03:28:26Z</time>
      </trkpt>
      <trkpt lat="44.73536" lon="3.8549">
        <ele>903</ele>
        <time>2017-12-20T03:30:26Z</time>
      </trkpt>
      <trkpt lat="44.73486" lon="3.85434">
        <ele>908</ele>
        <time>2017-12-20T03:32:26Z</time>
      </trkpt>
      <trkpt lat="44.73442" lon="3.85397">
        <ele>913</ele>
        <time>2017-12-20T03:34:26Z</time>
      </trkpt>
      <trkpt lat="44.73496" lon="3.85361">
        <ele>912</ele>
        <time>2017-12-20T03:36:26Z</time>
      </trkpt>
      <trkpt lat="44.73532" lon="3.8529">
        <ele>915</ele>
        <time>2017-12-20T03:38:26Z</time>
      </trkpt>
      <trkpt lat="44.73576" lon="3.85206">
        <ele>915</ele>
        <time>2017-12-20T03:40:26Z</time>
      </trkpt>
      <trkpt lat="44.73614" lon="3.85118">
        <ele>915</ele>
        <time>2017-12-20T03:42:26Z</time>
      </trkpt>
      <trkpt lat="44.73649" lon="3.85052">
        <ele>911</ele>
        <time>2017-12-20T03:44:26Z</time>
      </trkpt>
      <trkpt lat="44.73666" lon="3.84981">
        <ele>911</ele>
        <time>2017-12-20T03:46:26Z</time>
      </trkpt>
      <trkpt lat="44.73667" lon="3.8491">
        <ele>912</ele>
        <time>2017-12-20T03:48:26Z</time>
      </trkpt>
      <trkpt lat="44.73699" lon="3.84846">
        <ele>913</ele>
        <time>2017-12-20T03:50:26Z</time>
      </trkpt>
      <trkpt lat="44.73711" lon="3.84775">
        <ele>914</ele>
        <time>2017-12-20T03:52:26Z</time>
      </trkpt>
      <trkpt lat="44.73684" lon="3.84708">
        <ele>917</ele>
        <time>2017-12-20T03:54:26Z</time>
      </trkpt>
      <trkpt lat="44.73669" lon="3.84629">
        <ele>919</ele>
        <time>2017-12-20T03:56:26Z</time>
      </trkpt>
      <trkpt lat="44.73704" lon="3.84582">
        <ele>919</ele>
        <time>2017-12-20T03:58:26Z</time>
      </trkpt>
      <trkpt lat="44.73763" lon="3.84563">
        <ele>917</ele>
        <time>2017-12-20T04:00:26Z</time>
      </trkpt>
      <trkpt lat="44.73792" lon="3.84481">
        <ele>920</ele>
        <time>2017-12-20T04:02:26Z</time>
      </trkpt>
      <trkpt lat="44.73818" lon="3.84408">
        <ele>921</ele>
        <time>2017-12-20T04:04:26Z</time>
      </trkpt>
      <trkpt lat="44.7385" lon="3.84324">
        <ele>921</ele>
        <time>2017-12-20T04:06:26Z</time>
      </trkpt>
      <trkpt lat="44.73858" lon="3.84251">
        <ele>922</ele>
        <time>2017-12-20T04:08:26Z</time>
      </trkpt>
      <trkpt lat="44.73871" lon="3.84193">
        <ele>922</ele>
        <time>2017-12-20T04:10:26Z</time>
      </trkpt>
      <trkpt lat="44.73894" lon="3.84148">
        <ele>923</ele>
        <time>2017-12-20T04:12:26Z</time>
      </trkpt>
      <trkpt lat="44.73905" lon="3.84048">
        <ele>927</ele>
        <time>2017-12-20T04:14:26Z</time>
      </trkpt>
      <trkpt lat="44.73922" lon="3.83955">
        <ele>930</ele>
        <time>2017-12-20T04:16:26Z</time>
      </trkpt>
      <trkpt lat="44.73972" lon="3.83872">
        <ele>930</ele>
        <time>2017-12-20T04:18:26Z</time>
      </trkpt>
      <trkpt lat="44.74013" lon="3.83818">
        <ele>928</ele>
        <time>2017-12-20T04:20:26Z</time>
      </trkpt>
      <trkpt lat="44.74041" lon="3.83719">
        <ele>930</ele>
        <time>2017-12-20T04:22:26Z</time>
      </trkpt>
      <trkpt lat="44.74062" lon="3.83636">
        <ele>930</ele>
        <time>2017-12-20T04:24:26Z</time>
      </trkpt>
      <trkpt lat="44.7406" lon="3.8353">
        <ele>934</ele>
        <time>2017-12-20T04:26:26Z</time>
      </trkpt>
      <trkpt lat="44.74013" lon="3.83445">
        <ele>940</ele>
        <time>2017-12-20T04:28:26Z</time>
      </trkpt>
      <trkpt lat="44.73966" lon="3.83391">
        <ele>944</ele>
        <time>2017-12-20T04:30:26Z</time>
      </trkpt>
      <trkpt lat="44.73961" lon="3.83337">
        <ele>946</ele>
        <time>2017-12-20T04:32:26Z</time>
      </trkpt>
      <trkpt lat="44.7394" lon="3.83307">
        <ele>945</ele>
        <time>2017-12-20T04:34:26Z</time>
      </trkpt>
      <trkpt lat="44.73891" lon="3.8337">
        <ele>948</ele>
        <time>2017-12-20T04:36:26Z</time>
      </trkpt>
      <trkpt lat="44.73849" lon="3.83432">
        <ele>952</ele>
        <time>2017-12-20T04:38:26Z</time>
      </trkpt>
      <trkpt lat="44.73829" lon="3.83457">
        <ele>954</ele>
        <time>2017-12-20T04:40:26Z</time>
      </trkpt>
      <trkpt lat="44.73792" lon="3.83473">
        <ele>957</ele>
        <time>2017-12-20T04:42:26Z</time>
      </trkpt>
      <trkpt lat="44.73756" lon="3.83473">
        <ele>958</ele>
        <time>2017-12-20T04:44:26Z</time>
      </trkpt>
      <trkpt lat="44.73704" lon="3.83509">
        <ele>958</ele>
        <time>2017-12-20T04:46:26Z</time>
      </trkpt>
      <trkpt lat="44.73644" lon="3.83505">
        <ele>954</ele>
        <time>2017-12-20T04:48:26Z</time>
      </trkpt>
      <trkpt lat="44.73593" lon="3.83479">
        <ele>950</ele>
        <time>2017-12-20T04:50:26Z</time>
      </trkpt>
      <trkpt lat="44.7351" lon="3.83494">
        <ele>946</ele>
        <time>2017-12-20T04:52:26Z</time>
      </trkpt>
      <trkpt lat="44.73419" lon="3.83535">
        <ele>950</ele>
        <time>2017-12-20T04:54:26Z</time>
      </trkpt>
    </trkseg>
  </trk>
  <trk>
    <name><![CDATA[Base VRTT Gevaudan Lagogne_11]]></name>
    <extensions>
      <line xmlns="http://www.topografix.com/GPX/gpx_style/0/2">
        <color>00FF00</color>
        <width>4</width>
      </line>
    </extensions>
    <trkseg>
      <trkpt lat="44.73466" lon="3.83518">
        <ele>948</ele>
        <time>2017-12-19T10:38:31Z</time>
      </trkpt>
      <trkpt lat="44.73963" lon="3.83303">
        <ele>945</ele>
        <time>2017-12-19T10:54:31Z</time>
      </trkpt>
      <trkpt lat="44.74051" lon="3.83676">
        <ele>930</ele>
        <time>2017-12-19T11:02:31Z</time>
      </trkpt>
      <trkpt lat="44.73448" lon="3.85706">
        <ele>903</ele>
        <time>2017-12-19T11:56:31Z</time>
      </trkpt>
      <trkpt lat="44.73701" lon="3.85749">
        <ele>905</ele>
        <time>2017-12-19T12:06:31Z</time>
      </trkpt>
      <trkpt lat="44.74487" lon="3.8396">
        <ele>920</ele>
        <time>2017-12-19T12:44:31Z</time>
      </trkpt>
      <trkpt lat="44.74922" lon="3.84071">
        <ele>951</ele>
        <time>2017-12-19T13:06:31Z</time>
      </trkpt>
      <trkpt lat="44.7521" lon="3.84702">
        <ele>1004</ele>
        <time>2017-12-19T13:28:31Z</time>
      </trkpt>
      <trkpt lat="44.74975" lon="3.85496">
        <ele>1013</ele>
        <time>2017-12-19T13:50:31Z</time>
      </trkpt>
      <trkpt lat="44.75025" lon="3.86138">
        <ele>1010</ele>
        <time>2017-12-19T14:08:31Z</time>
      </trkpt>
      <trkpt lat="44.76176" lon="3.88039">
        <ele>1083</ele>
        <time>2017-12-19T15:02:31Z</time>
      </trkpt>
      <trkpt lat="44.76575" lon="3.88393">
        <ele>1114</ele>
        <time>2017-12-19T15:20:31Z</time>
      </trkpt>
      <trkpt lat="44.76927" lon="3.88391">
        <ele>1151</ele>
        <time>2017-12-19T15:40:31Z</time>
      </trkpt>
      <trkpt lat="44.77059" lon="3.88818">
        <ele>1157</ele>
        <time>2017-12-19T15:54:31Z</time>
      </trkpt>
      <trkpt lat="44.76534" lon="3.91375">
        <ele>1287</ele>
        <time>2017-12-19T17:00:31Z</time>
      </trkpt>
      <trkpt lat="44.78256" lon="3.89886">
        <ele>1236</ele>
        <time>2017-12-19T17:48:31Z</time>
      </trkpt>
      <trkpt lat="44.7889" lon="3.90751">
        <ele>1201</ele>
        <time>2017-12-19T18:24:31Z</time>
      </trkpt>
      <trkpt lat="44.79152" lon="3.90719">
        <ele>1216</ele>
        <time>2017-12-19T18:34:31Z</time>
      </trkpt>
      <trkpt lat="44.79152" lon="3.90517">
        <ele>1250</ele>
        <time>2017-12-19T18:40:31Z</time>
      </trkpt>
      <trkpt lat="44.78977" lon="3.90521">
        <ele>1242</ele>
        <time>2017-12-19T18:46:31Z</time>
      </trkpt>
      <trkpt lat="44.79178" lon="3.89972">
        <ele>1256</ele>
        <time>2017-12-19T19:02:31Z</time>
      </trkpt>
      <trkpt lat="44.79306" lon="3.90275">
        <ele>1258</ele>
        <time>2017-12-19T19:12:31Z</time>
      </trkpt>
      <trkpt lat="44.80043" lon="3.9053">
        <ele>1203</ele>
        <time>2017-12-19T19:38:31Z</time>
      </trkpt>
      <trkpt lat="44.81321" lon="3.90487">
        <ele>1237</ele>
        <time>2017-12-19T20:22:31Z</time>
      </trkpt>
      <trkpt lat="44.80947" lon="3.90101">
        <ele>1277</ele>
        <time>2017-12-19T20:40:31Z</time>
      </trkpt>
      <trkpt lat="44.80938" lon="3.89648">
        <ele>1250</ele>
        <time>2017-12-19T20:52:31Z</time>
      </trkpt>
      <trkpt lat="44.80606" lon="3.90009">
        <ele>1228</ele>
        <time>2017-12-19T21:10:31Z</time>
      </trkpt>
      <trkpt lat="44.80262" lon="3.89938">
        <ele>1206</ele>
        <time>2017-12-19T21:24:31Z</time>
      </trkpt>
      <trkpt lat="44.80137" lon="3.90161">
        <ele>1203</ele>
        <time>2017-12-19T21:32:31Z</time>
      </trkpt>
      <trkpt lat="44.799" lon="3.8986">
        <ele>1203</ele>
        <time>2017-12-19T21:44:31Z</time>
      </trkpt>
      <trkpt lat="44.79779" lon="3.8912">
        <ele>1207</ele>
        <time>2017-12-19T22:02:31Z</time>
      </trkpt>
      <trkpt lat="44.79176" lon="3.89376">
        <ele>1248</ele>
        <time>2017-12-19T22:28:31Z</time>
      </trkpt>
      <trkpt lat="44.79382" lon="3.89159">
        <ele>1246</ele>
        <time>2017-12-19T22:38:31Z</time>
      </trkpt>
      <trkpt lat="44.79402" lon="3.88723">
        <ele>1249</ele>
        <time>2017-12-19T22:42:31Z</time>
      </trkpt>
      <trkpt lat="44.78695" lon="3.89425">
        <ele>1262</ele>
        <time>2017-12-19T23:04:31Z</time>
      </trkpt>
      <trkpt lat="44.77859" lon="3.89176">
        <ele>1225</ele>
        <time>2017-12-19T23:34:31Z</time>
      </trkpt>
      <trkpt lat="44.77027" lon="3.88322">
        <ele>1158</ele>
        <time>2017-12-20T00:12:31Z</time>
      </trkpt>
      <trkpt lat="44.76555" lon="3.88386">
        <ele>1112</ele>
        <time>2017-12-20T00:40:31Z</time>
      </trkpt>
      <trkpt lat="44.76011" lon="3.88">
        <ele>1066</ele>
        <time>2017-12-20T01:06:31Z</time>
      </trkpt>
      <trkpt lat="44.7547" lon="3.88185">
        <ele>1028</ele>
        <time>2017-12-20T01:24:31Z</time>
      </trkpt>
      <trkpt lat="44.75123" lon="3.87646">
        <ele>1023</ele>
        <time>2017-12-20T01:44:31Z</time>
      </trkpt>
      <trkpt lat="44.75277" lon="3.86668">
        <ele>1011</ele>
        <time>2017-12-20T02:06:31Z</time>
      </trkpt>
      <trkpt lat="44.75063" lon="3.86307">
        <ele>1009</ele>
        <time>2017-12-20T02:14:31Z</time>
      </trkpt>
      <trkpt lat="44.74149" lon="3.85717">
        <ele>957</ele>
        <time>2017-12-20T02:52:31Z</time>
      </trkpt>
      <trkpt lat="44.73431" lon="3.857">
        <ele>904</ele>
        <time>2017-12-20T03:22:31Z</time>
      </trkpt>
      <trkpt lat="44.73545" lon="3.8553">
        <ele>903</ele>
        <time>2017-12-20T03:28:31Z</time>
      </trkpt>
      <trkpt lat="44.73442" lon="3.85397">
        <ele>913</ele>
        <time>2017-12-20T03:34:31Z</time>
      </trkpt>
      <trkpt lat="44.7406" lon="3.8353">
        <ele>934</ele>
        <time>2017-12-20T04:26:31Z</time>
      </trkpt>
      <trkpt lat="44.7394" lon="3.83307">
        <ele>945</ele>
        <time>2017-12-20T04:34:31Z</time>
      </trkpt>
      <trkpt lat="44.73419" lon="3.83535">
        <ele>950</ele>
        <time>2017-12-20T04:54:31Z</time>
      </trkpt>
    </trkseg>
  </trk>
  <trk>
    <name><![CDATA[OR-7914171--Naussac:Site VTT Langogne - Parcours 8 et 9]]></name>
    <extensions>
      <line xmlns="http://www.topografix.com/GPX/gpx_style/0/2">
        <color>FF0000</color>
        <width>4</width>
      </line>
    </extensions>
    <trkseg>
      <trkpt lat="44.73466" lon="3.83518">
        <ele>948</ele>
        <time>2017-12-19T10:38:31Z</time>
      </trkpt>
      <trkpt lat="44.73963" lon="3.83303">
        <ele>945</ele>
        <time>2017-12-19T10:54:31Z</time>
      </trkpt>
      <trkpt lat="44.74051" lon="3.83676">
        <ele>930</ele>
        <time>2017-12-19T11:02:31Z</time>
      </trkpt>
      <trkpt lat="44.73448" lon="3.85706">
        <ele>903</ele>
        <time>2017-12-19T11:56:31Z</time>
      </trkpt>
      <trkpt lat="44.73701" lon="3.85749">
        <ele>905</ele>
        <time>2017-12-19T12:06:31Z</time>
      </trkpt>
      <trkpt lat="44.74487" lon="3.8396">
        <ele>920</ele>
        <time>2017-12-19T12:44:31Z</time>
      </trkpt>
      <trkpt lat="44.74922" lon="3.84071">
        <ele>951</ele>
        <time>2017-12-19T13:06:31Z</time>
      </trkpt>
      <trkpt lat="44.7521" lon="3.84702">
        <ele>1004</ele>
        <time>2017-12-19T13:28:31Z</time>
      </trkpt>
      <trkpt lat="44.74975" lon="3.85496">
        <ele>1013</ele>
        <time>2017-12-19T13:50:31Z</time>
      </trkpt>
      <trkpt lat="44.75025" lon="3.86138">
        <ele>1010</ele>
        <time>2017-12-19T14:08:31Z</time>
      </trkpt>
      <trkpt lat="44.76176" lon="3.88039">
        <ele>1083</ele>
        <time>2017-12-19T15:02:31Z</time>
      </trkpt>
      <trkpt lat="44.76575" lon="3.88393">
        <ele>1114</ele>
        <time>2017-12-19T15:20:31Z</time>
      </trkpt>
      <trkpt lat="44.76927" lon="3.88391">
        <ele>1151</ele>
        <time>2017-12-19T15:40:31Z</time>
      </trkpt>
      <trkpt lat="44.77059" lon="3.88818">
        <ele>1157</ele>
        <time>2017-12-19T15:54:31Z</time>
      </trkpt>
      <trkpt lat="44.76534" lon="3.91375">
        <ele>1287</ele>
        <time>2017-12-19T17:00:31Z</time>
      </trkpt>
      <trkpt lat="44.78256" lon="3.89886">
        <ele>1236</ele>
        <time>2017-12-19T17:48:31Z</time>
      </trkpt>
      <trkpt lat="44.7889" lon="3.90751">
        <ele>1201</ele>
        <time>2017-12-19T18:24:31Z</time>
      </trkpt>
      <trkpt lat="44.79152" lon="3.90719">
        <ele>1216</ele>
        <time>2017-12-19T18:34:31Z</time>
      </trkpt>
      <trkpt lat="44.79152" lon="3.90517">
        <ele>1250</ele>
        <time>2017-12-19T18:40:31Z</time>
      </trkpt>
      <trkpt lat="44.78977" lon="3.90521">
        <ele>1242</ele>
        <time>2017-12-19T18:46:31Z</time>
      </trkpt>
      <trkpt lat="44.79178" lon="3.89972">
        <ele>1256</ele>
        <time>2017-12-19T19:02:31Z</time>
      </trkpt>
      <trkpt lat="44.79306" lon="3.90275">
        <ele>1258</ele>
        <time>2017-12-19T19:12:31Z</time>
      </trkpt>
      <trkpt lat="44.80043" lon="3.9053">
        <ele>1203</ele>
        <time>2017-12-19T19:38:31Z</time>
      </trkpt>
      <trkpt lat="44.81321" lon="3.90487">
        <ele>1237</ele>
        <time>2017-12-19T20:22:31Z</time>
      </trkpt>
      <trkpt lat="44.80947" lon="3.90101">
        <ele>1277</ele>
        <time>2017-12-19T20:40:31Z</time>
      </trkpt>
      <trkpt lat="44.80938" lon="3.89648">
        <ele>1250</ele>
        <time>2017-12-19T20:52:31Z</time>
      </trkpt>
      <trkpt lat="44.80606" lon="3.90009">
        <ele>1228</ele>
        <time>2017-12-19T21:10:31Z</time>
      </trkpt>
      <trkpt lat="44.80262" lon="3.89938">
        <ele>1206</ele>
        <time>2017-12-19T21:24:31Z</time>
      </trkpt>
      <trkpt lat="44.80137" lon="3.90161">
        <ele>1203</ele>
        <time>2017-12-19T21:32:31Z</time>
      </trkpt>
      <trkpt lat="44.799" lon="3.8986">
        <ele>1203</ele>
        <time>2017-12-19T21:44:31Z</time>
      </trkpt>
      <trkpt lat="44.79779" lon="3.8912">
        <ele>1207</ele>
        <time>2017-12-19T22:02:31Z</time>
      </trkpt>
      <trkpt lat="44.79176" lon="3.89376">
        <ele>1248</ele>
        <time>2017-12-19T22:28:31Z</time>
      </trkpt>
      <trkpt lat="44.79382" lon="3.89159">
        <ele>1246</ele>
        <time>2017-12-19T22:38:31Z</time>
      </trkpt>
      <trkpt lat="44.79402" lon="3.88723">
        <ele>1249</ele>
        <time>2017-12-19T22:42:31Z</time>
      </trkpt>
      <trkpt lat="44.78695" lon="3.89425">
        <ele>1262</ele>
        <time>2017-12-19T23:04:31Z</time>
      </trkpt>
      <trkpt lat="44.77859" lon="3.89176">
        <ele>1225</ele>
        <time>2017-12-19T23:34:31Z</time>
      </trkpt>
      <trkpt lat="44.77027" lon="3.88322">
        <ele>1158</ele>
        <time>2017-12-20T00:12:31Z</time>
      </trkpt>
      <trkpt lat="44.76555" lon="3.88386">
        <ele>1112</ele>
        <time>2017-12-20T00:40:31Z</time>
      </trkpt>
      <trkpt lat="44.76011" lon="3.88">
        <ele>1066</ele>
        <time>2017-12-20T01:06:31Z</time>
      </trkpt>
      <trkpt lat="44.7547" lon="3.88185">
        <ele>1028</ele>
        <time>2017-12-20T01:24:31Z</time>
      </trkpt>
      <trkpt lat="44.75123" lon="3.87646">
        <ele>1023</ele>
        <time>2017-12-20T01:44:31Z</time>
      </trkpt>
      <trkpt lat="44.75277" lon="3.86668">
        <ele>1011</ele>
        <time>2017-12-20T02:06:31Z</time>
      </trkpt>
      <trkpt lat="44.75063" lon="3.86307">
        <ele>1009</ele>
        <time>2017-12-20T02:14:31Z</time>
      </trkpt>
      <trkpt lat="44.74149" lon="3.85717">
        <ele>957</ele>
        <time>2017-12-20T02:52:31Z</time>
      </trkpt>
      <trkpt lat="44.73431" lon="3.857">
        <ele>904</ele>
        <time>2017-12-20T03:22:31Z</time>
      </trkpt>
      <trkpt lat="44.73545" lon="3.8553">
        <ele>903</ele>
        <time>2017-12-20T03:28:31Z</time>
      </trkpt>
      <trkpt lat="44.73442" lon="3.85397">
        <ele>913</ele>
        <time>2017-12-20T03:34:31Z</time>
      </trkpt>
      <trkpt lat="44.7406" lon="3.8353">
        <ele>934</ele>
        <time>2017-12-20T04:26:31Z</time>
      </trkpt>
      <trkpt lat="44.7394" lon="3.83307">
        <ele>945</ele>
        <time>2017-12-20T04:34:31Z</time>
      </trkpt>
      <trkpt lat="44.73419" lon="3.83535">
        <ele>950</ele>
        <time>2017-12-20T04:54:31Z</time>
      </trkpt>
    </trkseg>
  </trk>
  <trk>
    <name><![CDATA[OR-7914171--Naussac:Site VTT Langogne - Parcours 8 et 9]]></name>
    <extensions>
      <line xmlns="http://www.topografix.com/GPX/gpx_style/0/2">
        <color>00FFFF</color>
        <width>4</width>
      </line>
    </extensions>
    <trkseg>
      <trkpt lat="44.73466" lon="3.83518">
        <ele>948</ele>
        <time>2017-12-19T10:38:26Z</time>
      </trkpt>
      <trkpt lat="44.73545" lon="3.83479">
        <ele>948</ele>
        <time>2017-12-19T10:40:26Z</time>
      </trkpt>
      <trkpt lat="44.73618" lon="3.83483">
        <ele>951</ele>
        <time>2017-12-19T10:42:26Z</time>
      </trkpt>
      <trkpt lat="44.73673" lon="3.83518">
        <ele>957</ele>
        <time>2017-12-19T10:44:26Z</time>
      </trkpt>
      <trkpt lat="44.73731" lon="3.83488">
        <ele>958</ele>
        <time>2017-12-19T10:46:26Z</time>
      </trkpt>
      <trkpt lat="44.73817" lon="3.83488">
        <ele>958</ele>
        <time>2017-12-19T10:48:26Z</time>
      </trkpt>
      <trkpt lat="44.73868" lon="3.83406">
        <ele>949</ele>
        <time>2017-12-19T10:50:26Z</time>
      </trkpt>
      <trkpt lat="44.73923" lon="3.83329">
        <ele>947</ele>
        <time>2017-12-19T10:52:26Z</time>
      </trkpt>
      <trkpt lat="44.73963" lon="3.83303">
        <ele>945</ele>
        <time>2017-12-19T10:54:26Z</time>
      </trkpt>
      <trkpt lat="44.73969" lon="3.83419">
        <ele>944</ele>
        <time>2017-12-19T10:56:26Z</time>
      </trkpt>
      <trkpt lat="44.74036" lon="3.83479">
        <ele>937</ele>
        <time>2017-12-19T10:58:26Z</time>
      </trkpt>
      <trkpt lat="44.74063" lon="3.83565">
        <ele>933</ele>
        <time>2017-12-19T11:00:26Z</time>
      </trkpt>
      <trkpt lat="44.74051" lon="3.83676">
        <ele>930</ele>
        <time>2017-12-19T11:02:26Z</time>
      </trkpt>
      <trkpt lat="44.74024" lon="3.83771">
        <ele>930</ele>
        <time>2017-12-19T11:04:26Z</time>
      </trkpt>
      <trkpt lat="44.7399" lon="3.83844">
        <ele>930</ele>
        <time>2017-12-19T11:06:26Z</time>
      </trkpt>
      <trkpt lat="44.73942" lon="3.83908">
        <ele>931</ele>
        <time>2017-12-19T11:08:26Z</time>
      </trkpt>
      <trkpt lat="44.73908" lon="3.8399">
        <ele>928</ele>
        <time>2017-12-19T11:10:26Z</time>
      </trkpt>
      <trkpt lat="44.73908" lon="3.8408">
        <ele>926</ele>
        <time>2017-12-19T11:12:26Z</time>
      </trkpt>
      <trkpt lat="44.73884" lon="3.84174">
        <ele>922</ele>
        <time>2017-12-19T11:14:26Z</time>
      </trkpt>
      <trkpt lat="44.73847" lon="3.84217">
        <ele>925</ele>
        <time>2017-12-19T11:16:26Z</time>
      </trkpt>
      <trkpt lat="44.73862" lon="3.8429">
        <ele>920</ele>
        <time>2017-12-19T11:18:26Z</time>
      </trkpt>
      <trkpt lat="44.73826" lon="3.84376">
        <ele>922</ele>
        <time>2017-12-19T11:20:26Z</time>
      </trkpt>
      <trkpt lat="44.73801" lon="3.84449">
        <ele>921</ele>
        <time>2017-12-19T11:22:26Z</time>
      </trkpt>
      <trkpt lat="44.7378" lon="3.84522">
        <ele>919</ele>
        <time>2017-12-19T11:24:26Z</time>
      </trkpt>
      <trkpt lat="44.73731" lon="3.84565">
        <ele>920</ele>
        <time>2017-12-19T11:26:26Z</time>
      </trkpt>
      <trkpt lat="44.73673" lon="3.8459">
        <ele>921</ele>
        <time>2017-12-19T11:28:26Z</time>
      </trkpt>
      <trkpt lat="44.73673" lon="3.84672">
        <ele>917</ele>
        <time>2017-12-19T11:30:26Z</time>
      </trkpt>
      <trkpt lat="44.73701" lon="3.84736">
        <ele>916</ele>
        <time>2017-12-19T11:32:26Z</time>
      </trkpt>
      <trkpt lat="44.73707" lon="3.84814">
        <ele>914</ele>
        <time>2017-12-19T11:34:26Z</time>
      </trkpt>
      <trkpt lat="44.73682" lon="3.84874">
        <ele>913</ele>
        <time>2017-12-19T11:36:26Z</time>
      </trkpt>
      <trkpt lat="44.7367" lon="3.84938">
        <ele>911</ele>
        <time>2017-12-19T11:38:26Z</time>
      </trkpt>
      <trkpt lat="44.73655" lon="3.85028">
        <ele>911</ele>
        <time>2017-12-19T11:40:26Z</time>
      </trkpt>
      <trkpt lat="44.73631" lon="3.85084">
        <ele>913</ele>
        <time>2017-12-19T11:42:26Z</time>
      </trkpt>
      <trkpt lat="44.73591" lon="3.85178">
        <ele>915</ele>
        <time>2017-12-19T11:44:26Z</time>
      </trkpt>
      <trkpt lat="44.73551" lon="3.8526">
        <ele>915</ele>
        <time>2017-12-19T11:46:26Z</time>
      </trkpt>
      <trkpt lat="44.73512" lon="3.85346">
        <ele>911</ele>
        <time>2017-12-19T11:48:26Z</time>
      </trkpt>
      <trkpt lat="44.73454" lon="3.85384">
        <ele>914</ele>
        <time>2017-12-19T11:50:26Z</time>
      </trkpt>
      <trkpt lat="44.73512" lon="3.85479">
        <ele>905</ele>
        <time>2017-12-19T11:52:26Z</time>
      </trkpt>
      <trkpt lat="44.73557" lon="3.85513">
        <ele>902</ele>
        <time>2017-12-19T11:54:26Z</time>
      </trkpt>
      <trkpt lat="44.73448" lon="3.85706">
        <ele>903</ele>
        <time>2017-12-19T11:56:26Z</time>
      </trkpt>
      <trkpt lat="44.735" lon="3.85784">
        <ele>901</ele>
        <time>2017-12-19T11:58:26Z</time>
      </trkpt>
      <trkpt lat="44.73539" lon="3.85826">
        <ele>905</ele>
        <time>2017-12-19T12:00:26Z</time>
      </trkpt>
      <trkpt lat="44.736" lon="3.85826">
        <ele>909</ele>
        <time>2017-12-19T12:02:26Z</time>
      </trkpt>
      <trkpt lat="44.73655" lon="3.85753">
        <ele>905</ele>
        <time>2017-12-19T12:04:26Z</time>
      </trkpt>
      <trkpt lat="44.73701" lon="3.85749">
        <ele>905</ele>
        <time>2017-12-19T12:06:26Z</time>
      </trkpt>
      <trkpt lat="44.73707" lon="3.85638">
        <ele>905</ele>
        <time>2017-12-19T12:08:26Z</time>
      </trkpt>
      <trkpt lat="44.73722" lon="3.8553">
        <ele>907</ele>
        <time>2017-12-19T12:10:26Z</time>
      </trkpt>
      <trkpt lat="44.7374" lon="3.85436">
        <ele>904</ele>
        <time>2017-12-19T12:12:26Z</time>
      </trkpt>
      <trkpt lat="44.73792" lon="3.85367">
        <ele>904</ele>
        <time>2017-12-19T12:14:26Z</time>
      </trkpt>
      <trkpt lat="44.73847" lon="3.85269">
        <ele>903</ele>
        <time>2017-12-19T12:16:26Z</time>
      </trkpt>
      <trkpt lat="44.73914" lon="3.85148">
        <ele>905</ele>
        <time>2017-12-19T12:18:26Z</time>
      </trkpt>
      <trkpt lat="44.73987" lon="3.8502">
        <ele>907</ele>
        <time>2017-12-19T12:20:26Z</time>
      </trkpt>
      <trkpt lat="44.74045" lon="3.84908">
        <ele>907</ele>
        <time>2017-12-19T12:22:26Z</time>
      </trkpt>
      <trkpt lat="44.74106" lon="3.84809">
        <ele>909</ele>
        <time>2017-12-19T12:24:26Z</time>
      </trkpt>
      <trkpt lat="44.74173" lon="3.84698">
        <ele>910</ele>
        <time>2017-12-19T12:26:26Z</time>
      </trkpt>
      <trkpt lat="44.74216" lon="3.84599">
        <ele>910</ele>
        <time>2017-12-19T12:28:26Z</time>
      </trkpt>
      <trkpt lat="44.74259" lon="3.84522">
        <ele>910</ele>
        <time>2017-12-19T12:30:26Z</time>
      </trkpt>
      <trkpt lat="44.74301" lon="3.84445">
        <ele>913</ele>
        <time>2017-12-19T12:32:26Z</time>
      </trkpt>
      <trkpt lat="44.74338" lon="3.84367">
        <ele>912</ele>
        <time>2017-12-19T12:34:26Z</time>
      </trkpt>
      <trkpt lat="44.74371" lon="3.84269">
        <ele>913</ele>
        <time>2017-12-19T12:36:26Z</time>
      </trkpt>
      <trkpt lat="44.74384" lon="3.84183">
        <ele>912</ele>
        <time>2017-12-19T12:38:26Z</time>
      </trkpt>
      <trkpt lat="44.74411" lon="3.84101">
        <ele>914</ele>
        <time>2017-12-19T12:40:26Z</time>
      </trkpt>
      <trkpt lat="44.74445" lon="3.8402">
        <ele>917</ele>
        <time>2017-12-19T12:42:26Z</time>
      </trkpt>
      <trkpt lat="44.74487" lon="3.8396">
        <ele>920</ele>
        <time>2017-12-19T12:44:26Z</time>
      </trkpt>
      <trkpt lat="44.74551" lon="3.83912">
        <ele>921</ele>
        <time>2017-12-19T12:46:26Z</time>
      </trkpt>
      <trkpt lat="44.74612" lon="3.83882">
        <ele>920</ele>
        <time>2017-12-19T12:48:26Z</time>
      </trkpt>
      <trkpt lat="44.74661" lon="3.83882">
        <ele>918</ele>
        <time>2017-12-19T12:50:26Z</time>
      </trkpt>
      <trkpt lat="44.74701" lon="3.83925">
        <ele>925</ele>
        <time>2017-12-19T12:52:26Z</time>
      </trkpt>
      <trkpt lat="44.74746" lon="3.83912">
        <ele>926</ele>
        <time>2017-12-19T12:54:26Z</time>
      </trkpt>
      <trkpt lat="44.74778" lon="3.83925">
        <ele>929</ele>
        <time>2017-12-19T12:56:26Z</time>
      </trkpt>
      <trkpt lat="44.74803" lon="3.83962">
        <ele>934</ele>
        <time>2017-12-19T12:58:26Z</time>
      </trkpt>
      <trkpt lat="44.74826" lon="3.84005">
        <ele>940</ele>
        <time>2017-12-19T13:00:26Z</time>
      </trkpt>
      <trkpt lat="44.74858" lon="3.84037">
        <ele>946</ele>
        <time>2017-12-19T13:02:26Z</time>
      </trkpt>
      <trkpt lat="44.74885" lon="3.8408">
        <ele>952</ele>
        <time>2017-12-19T13:04:26Z</time>
      </trkpt>
      <trkpt lat="44.74922" lon="3.84071">
        <ele>951</ele>
        <time>2017-12-19T13:06:26Z</time>
      </trkpt>
      <trkpt lat="44.74931" lon="3.84131">
        <ele>960</ele>
        <time>2017-12-19T13:08:26Z</time>
      </trkpt>
      <trkpt lat="44.74966" lon="3.84191">
        <ele>968</ele>
        <time>2017-12-19T13:10:26Z</time>
      </trkpt>
      <trkpt lat="44.74989" lon="3.84249">
        <ele>974</ele>
        <time>2017-12-19T13:12:26Z</time>
      </trkpt>
      <trkpt lat="44.75018" lon="3.84314">
        <ele>982</ele>
        <time>2017-12-19T13:14:26Z</time>
      </trkpt>
      <trkpt lat="44.7503" lon="3.84374">
        <ele>987</ele>
        <time>2017-12-19T13:16:26Z</time>
      </trkpt>
      <trkpt lat="44.7505" lon="3.84438">
        <ele>991</ele>
        <time>2017-12-19T13:18:26Z</time>
      </trkpt>
      <trkpt lat="44.75072" lon="3.845">
        <ele>995</ele>
        <time>2017-12-19T13:20:26Z</time>
      </trkpt>
      <trkpt lat="44.75106" lon="3.84556">
        <ele>1000</ele>
        <time>2017-12-19T13:22:26Z</time>
      </trkpt>
      <trkpt lat="44.75135" lon="3.84616">
        <ele>1001</ele>
        <time>2017-12-19T13:24:26Z</time>
      </trkpt>
      <trkpt lat="44.7517" lon="3.84657">
        <ele>1000</ele>
        <time>2017-12-19T13:26:26Z</time>
      </trkpt>
      <trkpt lat="44.7521" lon="3.84702">
        <ele>1004</ele>
        <time>2017-12-19T13:28:26Z</time>
      </trkpt>
      <trkpt lat="44.75187" lon="3.84786">
        <ele>1007</ele>
        <time>2017-12-19T13:30:26Z</time>
      </trkpt>
      <trkpt lat="44.75168" lon="3.84863">
        <ele>1011</ele>
        <time>2017-12-19T13:32:26Z</time>
      </trkpt>
      <trkpt lat="44.75152" lon="3.84919">
        <ele>1014</ele>
        <time>2017-12-19T13:34:26Z</time>
      </trkpt>
      <trkpt lat="44.75146" lon="3.84994">
        <ele>1023</ele>
        <time>2017-12-19T13:36:26Z</time>
      </trkpt>
      <trkpt lat="44.75104" lon="3.85058">
        <ele>1029</ele>
        <time>2017-12-19T13:38:26Z</time>
      </trkpt>
      <trkpt lat="44.75092" lon="3.85118">
        <ele>1030</ele>
        <time>2017-12-19T13:40:26Z</time>
      </trkpt>
      <trkpt lat="44.75045" lon="3.85161">
        <ele>1032</ele>
        <time>2017-12-19T13:42:26Z</time>
      </trkpt>
      <trkpt lat="44.75025" lon="3.85215">
        <ele>1031</ele>
        <time>2017-12-19T13:44:26Z</time>
      </trkpt>
      <trkpt lat="44.75005" lon="3.85307">
        <ele>1028</ele>
        <time>2017-12-19T13:46:26Z</time>
      </trkpt>
      <trkpt lat="44.74987" lon="3.85406">
        <ele>1022</ele>
        <time>2017-12-19T13:48:26Z</time>
      </trkpt>
      <trkpt lat="44.74975" lon="3.85496">
        <ele>1013</ele>
        <time>2017-12-19T13:50:26Z</time>
      </trkpt>
      <trkpt lat="44.74976" lon="3.85588">
        <ele>1008</ele>
        <time>2017-12-19T13:52:26Z</time>
      </trkpt>
      <trkpt lat="44.74984" lon="3.85693">
        <ele>1008</ele>
        <time>2017-12-19T13:54:26Z</time>
      </trkpt>
      <trkpt lat="44.75004" lon="3.85764">
        <ele>1008</ele>
        <time>2017-12-19T13:56:26Z</time>
      </trkpt>
      <trkpt lat="44.75025" lon="3.85839">
        <ele>1006</ele>
        <time>2017-12-19T13:58:26Z</time>
      </trkpt>
      <trkpt lat="44.75028" lon="3.85919">
        <ele>1005</ele>
        <time>2017-12-19T14:00:26Z</time>
      </trkpt>
      <trkpt lat="44.7504" lon="3.86">
        <ele>1005</ele>
        <time>2017-12-19T14:02:26Z</time>
      </trkpt>
      <trkpt lat="44.75054" lon="3.86067">
        <ele>1008</ele>
        <time>2017-12-19T14:04:26Z</time>
      </trkpt>
      <trkpt lat="44.75043" lon="3.86108">
        <ele>1009</ele>
        <time>2017-12-19T14:06:26Z</time>
      </trkpt>
      <trkpt lat="44.75025" lon="3.86138">
        <ele>1010</ele>
        <time>2017-12-19T14:08:26Z</time>
      </trkpt>
      <trkpt lat="44.75048" lon="3.86211">
        <ele>1012</ele>
        <time>2017-12-19T14:10:26Z</time>
      </trkpt>
      <trkpt lat="44.75083" lon="3.86292">
        <ele>1010</ele>
        <time>2017-12-19T14:12:26Z</time>
      </trkpt>
      <trkpt lat="44.75107" lon="3.86363">
        <ele>1010</ele>
        <time>2017-12-19T14:14:26Z</time>
      </trkpt>
      <trkpt lat="44.75146" lon="3.86449">
        <ele>1015</ele>
        <time>2017-12-19T14:16:26Z</time>
      </trkpt>
      <trkpt lat="44.75199" lon="3.86535">
        <ele>1015</ele>
        <time>2017-12-19T14:18:26Z</time>
      </trkpt>
      <trkpt lat="44.75252" lon="3.86616">
        <ele>1012</ele>
        <time>2017-12-19T14:20:26Z</time>
      </trkpt>
      <trkpt lat="44.75301" lon="3.86693">
        <ele>1011</ele>
        <time>2017-12-19T14:22:26Z</time>
      </trkpt>
      <trkpt lat="44.75359" lon="3.8676">
        <ele>1009</ele>
        <time>2017-12-19T14:24:26Z</time>
      </trkpt>
      <trkpt lat="44.75414" lon="3.86816">
        <ele>1008</ele>
        <time>2017-12-19T14:26:26Z</time>
      </trkpt>
      <trkpt lat="44.75473" lon="3.86906">
        <ele>1012</ele>
        <time>2017-12-19T14:28:26Z</time>
      </trkpt>
      <trkpt lat="44.75514" lon="3.8697">
        <ele>1014</ele>
        <time>2017-12-19T14:30:26Z</time>
      </trkpt>
      <trkpt lat="44.75528" lon="3.87045">
        <ele>1015</ele>
        <time>2017-12-19T14:32:26Z</time>
      </trkpt>
      <trkpt lat="44.75583" lon="3.87129">
        <ele>1019</ele>
        <time>2017-12-19T14:34:26Z</time>
      </trkpt>
      <trkpt lat="44.75648" lon="3.87219">
        <ele>1023</ele>
        <time>2017-12-19T14:36:26Z</time>
      </trkpt>
      <trkpt lat="44.75714" lon="3.87273">
        <ele>1028</ele>
        <time>2017-12-19T14:38:26Z</time>
      </trkpt>
      <trkpt lat="44.75782" lon="3.87322">
        <ele>1033</ele>
        <time>2017-12-19T14:40:26Z</time>
      </trkpt>
      <trkpt lat="44.75862" lon="3.87376">
        <ele>1040</ele>
        <time>2017-12-19T14:42:26Z</time>
      </trkpt>
      <trkpt lat="44.75909" lon="3.87416">
        <ele>1045</ele>
        <time>2017-12-19T14:44:26Z</time>
      </trkpt>
      <trkpt lat="44.75961" lon="3.87468">
        <ele>1050</ele>
        <time>2017-12-19T14:46:26Z</time>
      </trkpt>
      <trkpt lat="44.75994" lon="3.87515">
        <ele>1055</ele>
        <time>2017-12-19T14:48:26Z</time>
      </trkpt>
      <trkpt lat="44.76016" lon="3.87603">
        <ele>1061</ele>
        <time>2017-12-19T14:50:26Z</time>
      </trkpt>
      <trkpt lat="44.76041" lon="3.87674">
        <ele>1062</ele>
        <time>2017-12-19T14:52:26Z</time>
      </trkpt>
      <trkpt lat="44.76087" lon="3.87755">
        <ele>1064</ele>
        <time>2017-12-19T14:54:26Z</time>
      </trkpt>
      <trkpt lat="44.76122" lon="3.87833">
        <ele>1070</ele>
        <time>2017-12-19T14:56:26Z</time>
      </trkpt>
      <trkpt lat="44.76148" lon="3.87904">
        <ele>1077</ele>
        <time>2017-12-19T14:58:26Z</time>
      </trkpt>
      <trkpt lat="44.76154" lon="3.87964">
        <ele>1080</ele>
        <time>2017-12-19T15:00:26Z</time>
      </trkpt>
      <trkpt lat="44.76176" lon="3.88039">
        <ele>1083</ele>
        <time>2017-12-19T15:02:26Z</time>
      </trkpt>
      <trkpt lat="44.76244" lon="3.88105">
        <ele>1089</ele>
        <time>2017-12-19T15:04:26Z</time>
      </trkpt>
      <trkpt lat="44.76291" lon="3.88155">
        <ele>1091</ele>
        <time>2017-12-19T15:06:26Z</time>
      </trkpt>
      <trkpt lat="44.7634" lon="3.88195">
        <ele>1092</ele>
        <time>2017-12-19T15:08:26Z</time>
      </trkpt>
      <trkpt lat="44.76403" lon="3.88219">
        <ele>1097</ele>
        <time>2017-12-19T15:10:26Z</time>
      </trkpt>
      <trkpt lat="44.76459" lon="3.88249">
        <ele>1100</ele>
        <time>2017-12-19T15:12:26Z</time>
      </trkpt>
      <trkpt lat="44.76505" lon="3.88268">
        <ele>1106</ele>
        <time>2017-12-19T15:14:26Z</time>
      </trkpt>
      <trkpt lat="44.76527" lon="3.88309">
        <ele>1108</ele>
        <time>2017-12-19T15:16:26Z</time>
      </trkpt>
      <trkpt lat="44.76541" lon="3.88373">
        <ele>1110</ele>
        <time>2017-12-19T15:18:26Z</time>
      </trkpt>
      <trkpt lat="44.76575" lon="3.88393">
        <ele>1114</ele>
        <time>2017-12-19T15:20:26Z</time>
      </trkpt>
      <trkpt lat="44.76616" lon="3.88367">
        <ele>1118</ele>
        <time>2017-12-19T15:22:26Z</time>
      </trkpt>
      <trkpt lat="44.7666" lon="3.88341">
        <ele>1121</ele>
        <time>2017-12-19T15:24:26Z</time>
      </trkpt>
      <trkpt lat="44.767" lon="3.88337">
        <ele>1127</ele>
        <time>2017-12-19T15:26:26Z</time>
      </trkpt>
      <trkpt lat="44.76735" lon="3.88337">
        <ele>1132</ele>
        <time>2017-12-19T15:28:26Z</time>
      </trkpt>
      <trkpt lat="44.76771" lon="3.88386">
        <ele>1133</ele>
        <time>2017-12-19T15:30:26Z</time>
      </trkpt>
      <trkpt lat="44.76799" lon="3.88419">
        <ele>1134</ele>
        <time>2017-12-19T15:32:26Z</time>
      </trkpt>
      <trkpt lat="44.76834" lon="3.88406">
        <ele>1140</ele>
        <time>2017-12-19T15:34:26Z</time>
      </trkpt>
      <trkpt lat="44.76864" lon="3.88397">
        <ele>1144</ele>
        <time>2017-12-19T15:36:26Z</time>
      </trkpt>
      <trkpt lat="44.76898" lon="3.88414">
        <ele>1146</ele>
        <time>2017-12-19T15:38:26Z</time>
      </trkpt>
      <trkpt lat="44.76927" lon="3.88391">
        <ele>1151</ele>
        <time>2017-12-19T15:40:26Z</time>
      </trkpt>
      <trkpt lat="44.76962" lon="3.88421">
        <ele>1155</ele>
        <time>2017-12-19T15:42:26Z</time>
      </trkpt>
      <trkpt lat="44.76985" lon="3.88457">
        <ele>1155</ele>
        <time>2017-12-19T15:44:26Z</time>
      </trkpt>
      <trkpt lat="44.77007" lon="3.88522">
        <ele>1154</ele>
        <time>2017-12-19T15:46:26Z</time>
      </trkpt>
      <trkpt lat="44.77033" lon="3.88584">
        <ele>1156</ele>
        <time>2017-12-19T15:48:26Z</time>
      </trkpt>
      <trkpt lat="44.77041" lon="3.88655">
        <ele>1156</ele>
        <time>2017-12-19T15:50:26Z</time>
      </trkpt>
      <trkpt lat="44.77045" lon="3.88736">
        <ele>1156</ele>
        <time>2017-12-19T15:52:26Z</time>
      </trkpt>
      <trkpt lat="44.77059" lon="3.88818">
        <ele>1157</ele>
        <time>2017-12-19T15:54:26Z</time>
      </trkpt>
      <trkpt lat="44.77052" lon="3.88884">
        <ele>1155</ele>
        <time>2017-12-19T15:56:26Z</time>
      </trkpt>
      <trkpt lat="44.77039" lon="3.88953">
        <ele>1156</ele>
        <time>2017-12-19T15:58:26Z</time>
      </trkpt>
      <trkpt lat="44.77017" lon="3.89002">
        <ele>1160</ele>
        <time>2017-12-19T16:00:26Z</time>
      </trkpt>
      <trkpt lat="44.77" lon="3.89045">
        <ele>1165</ele>
        <time>2017-12-19T16:02:26Z</time>
      </trkpt>
      <trkpt lat="44.77001" lon="3.89124">
        <ele>1171</ele>
        <time>2017-12-19T16:04:26Z</time>
      </trkpt>
      <trkpt lat="44.77" lon="3.89208">
        <ele>1176</ele>
        <time>2017-12-19T16:06:26Z</time>
      </trkpt>
      <trkpt lat="44.76995" lon="3.89279">
        <ele>1180</ele>
        <time>2017-12-19T16:08:26Z</time>
      </trkpt>
      <trkpt lat="44.76986" lon="3.8936">
        <ele>1183</ele>
        <time>2017-12-19T16:10:26Z</time>
      </trkpt>
      <trkpt lat="44.76978" lon="3.89416">
        <ele>1186</ele>
        <time>2017-12-19T16:12:26Z</time>
      </trkpt>
      <trkpt lat="44.76966" lon="3.89463">
        <ele>1187</ele>
        <time>2017-12-19T16:14:26Z</time>
      </trkpt>
      <trkpt lat="44.7694" lon="3.89558">
        <ele>1192</ele>
        <time>2017-12-19T16:16:26Z</time>
      </trkpt>
      <trkpt lat="44.76925" lon="3.89635">
        <ele>1196</ele>
        <time>2017-12-19T16:18:26Z</time>
      </trkpt>
      <trkpt lat="44.7691" lon="3.89708">
        <ele>1201</ele>
        <time>2017-12-19T16:20:26Z</time>
      </trkpt>
      <trkpt lat="44.76893" lon="3.89796">
        <ele>1212</ele>
        <time>2017-12-19T16:22:26Z</time>
      </trkpt>
      <trkpt lat="44.76869" lon="3.89873">
        <ele>1224</ele>
        <time>2017-12-19T16:24:26Z</time>
      </trkpt>
      <trkpt lat="44.7684" lon="3.89951">
        <ele>1238</ele>
        <time>2017-12-19T16:26:26Z</time>
      </trkpt>
      <trkpt lat="44.76814" lon="3.90015">
        <ele>1250</ele>
        <time>2017-12-19T16:28:26Z</time>
      </trkpt>
      <trkpt lat="44.76773" lon="3.90079">
        <ele>1258</ele>
        <time>2017-12-19T16:30:26Z</time>
      </trkpt>
      <trkpt lat="44.76748" lon="3.90176">
        <ele>1272</ele>
        <time>2017-12-19T16:32:26Z</time>
      </trkpt>
      <trkpt lat="44.76732" lon="3.90283">
        <ele>1281</ele>
        <time>2017-12-19T16:34:26Z</time>
      </trkpt>
      <trkpt lat="44.76718" lon="3.90373">
        <ele>1284</ele>
        <time>2017-12-19T16:36:26Z</time>
      </trkpt>
      <trkpt lat="44.7671" lon="3.9047">
        <ele>1286</ele>
        <time>2017-12-19T16:38:26Z</time>
      </trkpt>
      <trkpt lat="44.76695" lon="3.90564">
        <ele>1287</ele>
        <time>2017-12-19T16:40:26Z</time>
      </trkpt>
      <trkpt lat="44.7668" lon="3.90684">
        <ele>1288</ele>
        <time>2017-12-19T16:42:26Z</time>
      </trkpt>
      <trkpt lat="44.76672" lon="3.90783">
        <ele>1291</ele>
        <time>2017-12-19T16:44:26Z</time>
      </trkpt>
      <trkpt lat="44.7666" lon="3.90867">
        <ele>1293</ele>
        <time>2017-12-19T16:46:26Z</time>
      </trkpt>
      <trkpt lat="44.7664" lon="3.90953">
        <ele>1295</ele>
        <time>2017-12-19T16:48:26Z</time>
      </trkpt>
      <trkpt lat="44.7662" lon="3.91028">
        <ele>1295</ele>
        <time>2017-12-19T16:50:26Z</time>
      </trkpt>
      <trkpt lat="44.76598" lon="3.91124">
        <ele>1294</ele>
        <time>2017-12-19T16:52:26Z</time>
      </trkpt>
      <trkpt lat="44.76576" lon="3.91195">
        <ele>1292</ele>
        <time>2017-12-19T16:54:26Z</time>
      </trkpt>
      <trkpt lat="44.76561" lon="3.91251">
        <ele>1288</ele>
        <time>2017-12-19T16:56:26Z</time>
      </trkpt>
      <trkpt lat="44.7655" lon="3.91317">
        <ele>1285</ele>
        <time>2017-12-19T16:58:26Z</time>
      </trkpt>
      <trkpt lat="44.76534" lon="3.91375">
        <ele>1287</ele>
        <time>2017-12-19T17:00:26Z</time>
      </trkpt>
      <trkpt lat="44.7659" lon="3.91401">
        <ele>1289</ele>
        <time>2017-12-19T17:02:26Z</time>
      </trkpt>
      <trkpt lat="44.76625" lon="3.91395">
        <ele>1288</ele>
        <time>2017-12-19T17:04:26Z</time>
      </trkpt>
      <trkpt lat="44.76655" lon="3.91354">
        <ele>1290</ele>
        <time>2017-12-19T17:06:26Z</time>
      </trkpt>
      <trkpt lat="44.76689" lon="3.91296">
        <ele>1294</ele>
        <time>2017-12-19T17:08:26Z</time>
      </trkpt>
      <trkpt lat="44.76739" lon="3.91212">
        <ele>1298</ele>
        <time>2017-12-19T17:10:26Z</time>
      </trkpt>
      <trkpt lat="44.76826" lon="3.91092">
        <ele>1300</ele>
        <time>2017-12-19T17:12:26Z</time>
      </trkpt>
      <trkpt lat="44.76901" lon="3.90987">
        <ele>1304</ele>
        <time>2017-12-19T17:14:26Z</time>
      </trkpt>
      <trkpt lat="44.76971" lon="3.90897">
        <ele>1303</ele>
        <time>2017-12-19T17:16:26Z</time>
      </trkpt>
      <trkpt lat="44.77042" lon="3.90792">
        <ele>1298</ele>
        <time>2017-12-19T17:18:26Z</time>
      </trkpt>
      <trkpt lat="44.77091" lon="3.90747">
        <ele>1297</ele>
        <time>2017-12-19T17:20:26Z</time>
      </trkpt>
      <trkpt lat="44.77205" lon="3.90665">
        <ele>1292</ele>
        <time>2017-12-19T17:22:26Z</time>
      </trkpt>
      <trkpt lat="44.77329" lon="3.90584">
        <ele>1288</ele>
        <time>2017-12-19T17:24:26Z</time>
      </trkpt>
      <trkpt lat="44.77425" lon="3.90517">
        <ele>1281</ele>
        <time>2017-12-19T17:26:26Z</time>
      </trkpt>
      <trkpt lat="44.77499" lon="3.90461">
        <ele>1278</ele>
        <time>2017-12-19T17:28:26Z</time>
      </trkpt>
      <trkpt lat="44.77618" lon="3.90382">
        <ele>1275</ele>
        <time>2017-12-19T17:30:26Z</time>
      </trkpt>
      <trkpt lat="44.77763" lon="3.90283">
        <ele>1264</ele>
        <time>2017-12-19T17:32:26Z</time>
      </trkpt>
      <trkpt lat="44.77888" lon="3.90202">
        <ele>1256</ele>
        <time>2017-12-19T17:34:26Z</time>
      </trkpt>
      <trkpt lat="44.77972" lon="3.90137">
        <ele>1253</ele>
        <time>2017-12-19T17:36:26Z</time>
      </trkpt>
      <trkpt lat="44.78043" lon="3.90096">
        <ele>1249</ele>
        <time>2017-12-19T17:38:26Z</time>
      </trkpt>
      <trkpt lat="44.78087" lon="3.9006">
        <ele>1246</ele>
        <time>2017-12-19T17:40:26Z</time>
      </trkpt>
      <trkpt lat="44.78128" lon="3.90049">
        <ele>1242</ele>
        <time>2017-12-19T17:42:26Z</time>
      </trkpt>
      <trkpt lat="44.78179" lon="3.89996">
        <ele>1239</ele>
        <time>2017-12-19T17:44:26Z</time>
      </trkpt>
      <trkpt lat="44.78218" lon="3.89938">
        <ele>1238</ele>
        <time>2017-12-19T17:46:26Z</time>
      </trkpt>
      <trkpt lat="44.78256" lon="3.89886">
        <ele>1236</ele>
        <time>2017-12-19T17:48:26Z</time>
      </trkpt>
      <trkpt lat="44.78293" lon="3.89966">
        <ele>1235</ele>
        <time>2017-12-19T17:50:26Z</time>
      </trkpt>
      <trkpt lat="44.78319" lon="3.90004">
        <ele>1231</ele>
        <time>2017-12-19T17:52:26Z</time>
      </trkpt>
      <trkpt lat="44.78355" lon="3.90056">
        <ele>1226</ele>
        <time>2017-12-19T17:54:26Z</time>
      </trkpt>
      <trkpt lat="44.78389" lon="3.9012">
        <ele>1220</ele>
        <time>2017-12-19T17:56:26Z</time>
      </trkpt>
      <trkpt lat="44.78433" lon="3.90204">
        <ele>1211</ele>
        <time>2017-12-19T17:58:26Z</time>
      </trkpt>
      <trkpt lat="44.78479" lon="3.90253">
        <ele>1206</ele>
        <time>2017-12-19T18:00:26Z</time>
      </trkpt>
      <trkpt lat="44.78509" lon="3.90285">
        <ele>1206</ele>
        <time>2017-12-19T18:02:26Z</time>
      </trkpt>
      <trkpt lat="44.78526" lon="3.90328">
        <ele>1206</ele>
        <time>2017-12-19T18:04:26Z</time>
      </trkpt>
      <trkpt lat="44.78543" lon="3.90399">
        <ele>1203</ele>
        <time>2017-12-19T18:06:26Z</time>
      </trkpt>
      <trkpt lat="44.78579" lon="3.90453">
        <ele>1198</ele>
        <time>2017-12-19T18:08:26Z</time>
      </trkpt>
      <trkpt lat="44.78614" lon="3.90511">
        <ele>1198</ele>
        <time>2017-12-19T18:10:26Z</time>
      </trkpt>
      <trkpt lat="44.78645" lon="3.90556">
        <ele>1197</ele>
        <time>2017-12-19T18:12:26Z</time>
      </trkpt>
      <trkpt lat="44.7868" lon="3.90586">
        <ele>1196</ele>
        <time>2017-12-19T18:14:26Z</time>
      </trkpt>
      <trkpt lat="44.78727" lon="3.90586">
        <ele>1197</ele>
        <time>2017-12-19T18:16:26Z</time>
      </trkpt>
      <trkpt lat="44.78802" lon="3.90599">
        <ele>1203</ele>
        <time>2017-12-19T18:18:26Z</time>
      </trkpt>
      <trkpt lat="44.78835" lon="3.90648">
        <ele>1203</ele>
        <time>2017-12-19T18:20:26Z</time>
      </trkpt>
      <trkpt lat="44.78864" lon="3.90699">
        <ele>1203</ele>
        <time>2017-12-19T18:22:26Z</time>
      </trkpt>
      <trkpt lat="44.7889" lon="3.90751">
        <ele>1201</ele>
        <time>2017-12-19T18:24:26Z</time>
      </trkpt>
      <trkpt lat="44.78937" lon="3.90749">
        <ele>1205</ele>
        <time>2017-12-19T18:26:26Z</time>
      </trkpt>
      <trkpt lat="44.78984" lon="3.90745">
        <ele>1208</ele>
        <time>2017-12-19T18:28:26Z</time>
      </trkpt>
      <trkpt lat="44.79054" lon="3.90725">
        <ele>1214</ele>
        <time>2017-12-19T18:30:26Z</time>
      </trkpt>
      <trkpt lat="44.79102" lon="3.90729">
        <ele>1215</ele>
        <time>2017-12-19T18:32:26Z</time>
      </trkpt>
      <trkpt lat="44.79152" lon="3.90719">
        <ele>1216</ele>
        <time>2017-12-19T18:34:26Z</time>
      </trkpt>
      <trkpt lat="44.79156" lon="3.90665">
        <ele>1226</ele>
        <time>2017-12-19T18:36:26Z</time>
      </trkpt>
      <trkpt lat="44.79152" lon="3.90579">
        <ele>1243</ele>
        <time>2017-12-19T18:38:26Z</time>
      </trkpt>
      <trkpt lat="44.79152" lon="3.90517">
        <ele>1250</ele>
        <time>2017-12-19T18:40:26Z</time>
      </trkpt>
      <trkpt lat="44.79083" lon="3.90532">
        <ele>1245</ele>
        <time>2017-12-19T18:42:26Z</time>
      </trkpt>
      <trkpt lat="44.79021" lon="3.90534">
        <ele>1245</ele>
        <time>2017-12-19T18:44:26Z</time>
      </trkpt>
      <trkpt lat="44.78977" lon="3.90521">
        <ele>1242</ele>
        <time>2017-12-19T18:46:26Z</time>
      </trkpt>
      <trkpt lat="44.78965" lon="3.9047">
        <ele>1244</ele>
        <time>2017-12-19T18:48:26Z</time>
      </trkpt>
      <trkpt lat="44.79" lon="3.90408">
        <ele>1255</ele>
        <time>2017-12-19T18:50:26Z</time>
      </trkpt>
      <trkpt lat="44.79035" lon="3.9029">
        <ele>1260</ele>
        <time>2017-12-19T18:52:26Z</time>
      </trkpt>
      <trkpt lat="44.79079" lon="3.90124">
        <ele>1266</ele>
        <time>2017-12-19T18:54:26Z</time>
      </trkpt>
      <trkpt lat="44.79099" lon="3.90054">
        <ele>1263</ele>
        <time>2017-12-19T18:56:26Z</time>
      </trkpt>
      <trkpt lat="44.79123" lon="3.89989">
        <ele>1258</ele>
        <time>2017-12-19T18:58:26Z</time>
      </trkpt>
      <trkpt lat="44.79156" lon="3.89972">
        <ele>1257</ele>
        <time>2017-12-19T19:00:26Z</time>
      </trkpt>
      <trkpt lat="44.79178" lon="3.89972">
        <ele>1256</ele>
        <time>2017-12-19T19:02:26Z</time>
      </trkpt>
      <trkpt lat="44.79172" lon="3.90077">
        <ele>1266</ele>
        <time>2017-12-19T19:04:26Z</time>
      </trkpt>
      <trkpt lat="44.79231" lon="3.90094">
        <ele>1265</ele>
        <time>2017-12-19T19:06:26Z</time>
      </trkpt>
      <trkpt lat="44.79252" lon="3.90146">
        <ele>1266</ele>
        <time>2017-12-19T19:08:26Z</time>
      </trkpt>
      <trkpt lat="44.79281" lon="3.90227">
        <ele>1263</ele>
        <time>2017-12-19T19:10:26Z</time>
      </trkpt>
      <trkpt lat="44.79306" lon="3.90275">
        <ele>1258</ele>
        <time>2017-12-19T19:12:26Z</time>
      </trkpt>
      <trkpt lat="44.79344" lon="3.903">
        <ele>1251</ele>
        <time>2017-12-19T19:14:26Z</time>
      </trkpt>
      <trkpt lat="44.79386" lon="3.90322">
        <ele>1246</ele>
        <time>2017-12-19T19:16:26Z</time>
      </trkpt>
      <trkpt lat="44.79423" lon="3.90328">
        <ele>1242</ele>
        <time>2017-12-19T19:18:26Z</time>
      </trkpt>
      <trkpt lat="44.79455" lon="3.90315">
        <ele>1237</ele>
        <time>2017-12-19T19:20:26Z</time>
      </trkpt>
      <trkpt lat="44.79473" lon="3.90257">
        <ele>1233</ele>
        <time>2017-12-19T19:22:26Z</time>
      </trkpt>
      <trkpt lat="44.79581" lon="3.9029">
        <ele>1227</ele>
        <time>2017-12-19T19:24:26Z</time>
      </trkpt>
      <trkpt lat="44.79686" lon="3.90324">
        <ele>1227</ele>
        <time>2017-12-19T19:26:26Z</time>
      </trkpt>
      <trkpt lat="44.7975" lon="3.90348">
        <ele>1228</ele>
        <time>2017-12-19T19:28:26Z</time>
      </trkpt>
      <trkpt lat="44.79805" lon="3.90388">
        <ele>1225</ele>
        <time>2017-12-19T19:30:26Z</time>
      </trkpt>
      <trkpt lat="44.79863" lon="3.90433">
        <ele>1222</ele>
        <time>2017-12-19T19:32:26Z</time>
      </trkpt>
      <trkpt lat="44.79933" lon="3.9047">
        <ele>1215</ele>
        <time>2017-12-19T19:34:26Z</time>
      </trkpt>
      <trkpt lat="44.79995" lon="3.90502">
        <ele>1209</ele>
        <time>2017-12-19T19:36:26Z</time>
      </trkpt>
      <trkpt lat="44.80043" lon="3.9053">
        <ele>1203</ele>
        <time>2017-12-19T19:38:26Z</time>
      </trkpt>
      <trkpt lat="44.80107" lon="3.90517">
        <ele>1198</ele>
        <time>2017-12-19T19:40:26Z</time>
      </trkpt>
      <trkpt lat="44.80166" lon="3.90508">
        <ele>1195</ele>
        <time>2017-12-19T19:42:26Z</time>
      </trkpt>
      <trkpt lat="44.80209" lon="3.90532">
        <ele>1194</ele>
        <time>2017-12-19T19:44:26Z</time>
      </trkpt>
      <trkpt lat="44.80269" lon="3.90549">
        <ele>1196</ele>
        <time>2017-12-19T19:46:26Z</time>
      </trkpt>
      <trkpt lat="44.80327" lon="3.90554">
        <ele>1200</ele>
        <time>2017-12-19T19:48:26Z</time>
      </trkpt>
      <trkpt lat="44.80362" lon="3.90566">
        <ele>1202</ele>
        <time>2017-12-19T19:50:26Z</time>
      </trkpt>
      <trkpt lat="44.80394" lon="3.90571">
        <ele>1204</ele>
        <time>2017-12-19T19:52:26Z</time>
      </trkpt>
      <trkpt lat="44.80417" lon="3.90605">
        <ele>1205</ele>
        <time>2017-12-19T19:54:26Z</time>
      </trkpt>
      <trkpt lat="44.80492" lon="3.90609">
        <ele>1207</ele>
        <time>2017-12-19T19:56:26Z</time>
      </trkpt>
      <trkpt lat="44.80554" lon="3.90592">
        <ele>1210</ele>
        <time>2017-12-19T19:58:26Z</time>
      </trkpt>
      <trkpt lat="44.80629" lon="3.90629">
        <ele>1212</ele>
        <time>2017-12-19T20:00:26Z</time>
      </trkpt>
      <trkpt lat="44.80697" lon="3.9062">
        <ele>1214</ele>
        <time>2017-12-19T20:02:26Z</time>
      </trkpt>
      <trkpt lat="44.80766" lon="3.90607">
        <ele>1217</ele>
        <time>2017-12-19T20:04:26Z</time>
      </trkpt>
      <trkpt lat="44.8083" lon="3.90588">
        <ele>1221</ele>
        <time>2017-12-19T20:06:26Z</time>
      </trkpt>
      <trkpt lat="44.80889" lon="3.90586">
        <ele>1226</ele>
        <time>2017-12-19T20:08:26Z</time>
      </trkpt>
      <trkpt lat="44.80968" lon="3.90599">
        <ele>1230</ele>
        <time>2017-12-19T20:10:26Z</time>
      </trkpt>
      <trkpt lat="44.81041" lon="3.90609">
        <ele>1233</ele>
        <time>2017-12-19T20:12:26Z</time>
      </trkpt>
      <trkpt lat="44.81143" lon="3.90614">
        <ele>1234</ele>
        <time>2017-12-19T20:14:26Z</time>
      </trkpt>
      <trkpt lat="44.81213" lon="3.90611">
        <ele>1230</ele>
        <time>2017-12-19T20:16:26Z</time>
      </trkpt>
      <trkpt lat="44.81259" lon="3.9056">
        <ele>1234</ele>
        <time>2017-12-19T20:18:26Z</time>
      </trkpt>
      <trkpt lat="44.81299" lon="3.90519">
        <ele>1236</ele>
        <time>2017-12-19T20:20:26Z</time>
      </trkpt>
      <trkpt lat="44.81321" lon="3.90487">
        <ele>1237</ele>
        <time>2017-12-19T20:22:26Z</time>
      </trkpt>
      <trkpt lat="44.8128" lon="3.9044">
        <ele>1252</ele>
        <time>2017-12-19T20:24:26Z</time>
      </trkpt>
      <trkpt lat="44.81236" lon="3.90478">
        <ele>1252</ele>
        <time>2017-12-19T20:26:26Z</time>
      </trkpt>
      <trkpt lat="44.81194" lon="3.90457">
        <ele>1257</ele>
        <time>2017-12-19T20:28:26Z</time>
      </trkpt>
      <trkpt lat="44.81178" lon="3.90367">
        <ele>1269</ele>
        <time>2017-12-19T20:30:26Z</time>
      </trkpt>
      <trkpt lat="44.81152" lon="3.90275">
        <ele>1281</ele>
        <time>2017-12-19T20:32:26Z</time>
      </trkpt>
      <trkpt lat="44.81104" lon="3.90225">
        <ele>1286</ele>
        <time>2017-12-19T20:34:26Z</time>
      </trkpt>
      <trkpt lat="44.81035" lon="3.90195">
        <ele>1284</ele>
        <time>2017-12-19T20:36:26Z</time>
      </trkpt>
      <trkpt lat="44.80988" lon="3.9015">
        <ele>1282</ele>
        <time>2017-12-19T20:38:26Z</time>
      </trkpt>
      <trkpt lat="44.80947" lon="3.90101">
        <ele>1277</ele>
        <time>2017-12-19T20:40:26Z</time>
      </trkpt>
      <trkpt lat="44.80924" lon="3.90011">
        <ele>1277</ele>
        <time>2017-12-19T20:42:26Z</time>
      </trkpt>
      <trkpt lat="44.80932" lon="3.89927">
        <ele>1279</ele>
        <time>2017-12-19T20:44:26Z</time>
      </trkpt>
      <trkpt lat="44.80942" lon="3.89839">
        <ele>1275</ele>
        <time>2017-12-19T20:46:26Z</time>
      </trkpt>
      <trkpt lat="44.80947" lon="3.89762">
        <ele>1268</ele>
        <time>2017-12-19T20:48:26Z</time>
      </trkpt>
      <trkpt lat="44.80939" lon="3.89689">
        <ele>1256</ele>
        <time>2017-12-19T20:50:26Z</time>
      </trkpt>
      <trkpt lat="44.80938" lon="3.89648">
        <ele>1250</ele>
        <time>2017-12-19T20:52:26Z</time>
      </trkpt>
      <trkpt lat="44.80897" lon="3.89642">
        <ele>1240</ele>
        <time>2017-12-19T20:54:26Z</time>
      </trkpt>
      <trkpt lat="44.80851" lon="3.89672">
        <ele>1236</ele>
        <time>2017-12-19T20:56:26Z</time>
      </trkpt>
      <trkpt lat="44.80819" lon="3.89708">
        <ele>1234</ele>
        <time>2017-12-19T20:58:26Z</time>
      </trkpt>
      <trkpt lat="44.80786" lon="3.89736">
        <ele>1233</ele>
        <time>2017-12-19T21:00:26Z</time>
      </trkpt>
      <trkpt lat="44.80738" lon="3.8977">
        <ele>1232</ele>
        <time>2017-12-19T21:02:26Z</time>
      </trkpt>
      <trkpt lat="44.80697" lon="3.89845">
        <ele>1232</ele>
        <time>2017-12-19T21:04:26Z</time>
      </trkpt>
      <trkpt lat="44.80656" lon="3.89914">
        <ele>1231</ele>
        <time>2017-12-19T21:06:26Z</time>
      </trkpt>
      <trkpt lat="44.80627" lon="3.89946">
        <ele>1229</ele>
        <time>2017-12-19T21:08:26Z</time>
      </trkpt>
      <trkpt lat="44.80606" lon="3.90009">
        <ele>1228</ele>
        <time>2017-12-19T21:10:26Z</time>
      </trkpt>
      <trkpt lat="44.80545" lon="3.90011">
        <ele>1223</ele>
        <time>2017-12-19T21:12:26Z</time>
      </trkpt>
      <trkpt lat="44.80483" lon="3.90006">
        <ele>1218</ele>
        <time>2017-12-19T21:14:26Z</time>
      </trkpt>
      <trkpt lat="44.80416" lon="3.89993">
        <ele>1213</ele>
        <time>2017-12-19T21:16:26Z</time>
      </trkpt>
      <trkpt lat="44.80384" lon="3.89981">
        <ele>1211</ele>
        <time>2017-12-19T21:18:26Z</time>
      </trkpt>
      <trkpt lat="44.80352" lon="3.89963">
        <ele>1210</ele>
        <time>2017-12-19T21:20:26Z</time>
      </trkpt>
      <trkpt lat="44.80323" lon="3.89918">
        <ele>1209</ele>
        <time>2017-12-19T21:22:26Z</time>
      </trkpt>
      <trkpt lat="44.80262" lon="3.89938">
        <ele>1206</ele>
        <time>2017-12-19T21:24:26Z</time>
      </trkpt>
      <trkpt lat="44.80222" lon="3.89989">
        <ele>1204</ele>
        <time>2017-12-19T21:26:26Z</time>
      </trkpt>
      <trkpt lat="44.80195" lon="3.90086">
        <ele>1204</ele>
        <time>2017-12-19T21:28:26Z</time>
      </trkpt>
      <trkpt lat="44.80163" lon="3.90122">
        <ele>1203</ele>
        <time>2017-12-19T21:30:26Z</time>
      </trkpt>
      <trkpt lat="44.80137" lon="3.90161">
        <ele>1203</ele>
        <time>2017-12-19T21:32:26Z</time>
      </trkpt>
      <trkpt lat="44.80102" lon="3.90127">
        <ele>1205</ele>
        <time>2017-12-19T21:34:26Z</time>
      </trkpt>
      <trkpt lat="44.80073" lon="3.90004">
        <ele>1204</ele>
        <time>2017-12-19T21:36:26Z</time>
      </trkpt>
      <trkpt lat="44.80053" lon="3.89927">
        <ele>1204</ele>
        <time>2017-12-19T21:38:26Z</time>
      </trkpt>
      <trkpt lat="44.79995" lon="3.89899">
        <ele>1205</ele>
        <time>2017-12-19T21:40:26Z</time>
      </trkpt>
      <trkpt lat="44.79938" lon="3.89875">
        <ele>1203</ele>
        <time>2017-12-19T21:42:26Z</time>
      </trkpt>
      <trkpt lat="44.799" lon="3.8986">
        <ele>1203</ele>
        <time>2017-12-19T21:44:26Z</time>
      </trkpt>
      <trkpt lat="44.79887" lon="3.8979">
        <ele>1201</ele>
        <time>2017-12-19T21:46:26Z</time>
      </trkpt>
      <trkpt lat="44.79872" lon="3.89682">
        <ele>1199</ele>
        <time>2017-12-19T21:48:26Z</time>
      </trkpt>
      <trkpt lat="44.79836" lon="3.89616">
        <ele>1197</ele>
        <time>2017-12-19T21:50:26Z</time>
      </trkpt>
      <trkpt lat="44.79816" lon="3.89573">
        <ele>1196</ele>
        <time>2017-12-19T21:52:26Z</time>
      </trkpt>
      <trkpt lat="44.79813" lon="3.89487">
        <ele>1195</ele>
        <time>2017-12-19T21:54:26Z</time>
      </trkpt>
      <trkpt lat="44.79808" lon="3.89363">
        <ele>1197</ele>
        <time>2017-12-19T21:56:26Z</time>
      </trkpt>
      <trkpt lat="44.79807" lon="3.89266">
        <ele>1198</ele>
        <time>2017-12-19T21:58:26Z</time>
      </trkpt>
      <trkpt lat="44.79807" lon="3.89189">
        <ele>1202</ele>
        <time>2017-12-19T22:00:26Z</time>
      </trkpt>
      <trkpt lat="44.79779" lon="3.8912">
        <ele>1207</ele>
        <time>2017-12-19T22:02:26Z</time>
      </trkpt>
      <trkpt lat="44.79711" lon="3.89112">
        <ele>1215</ele>
        <time>2017-12-19T22:04:26Z</time>
      </trkpt>
      <trkpt lat="44.79657" lon="3.89114">
        <ele>1223</ele>
        <time>2017-12-19T22:06:26Z</time>
      </trkpt>
      <trkpt lat="44.79615" lon="3.89148">
        <ele>1228</ele>
        <time>2017-12-19T22:08:26Z</time>
      </trkpt>
      <trkpt lat="44.79587" lon="3.89195">
        <ele>1231</ele>
        <time>2017-12-19T22:10:26Z</time>
      </trkpt>
      <trkpt lat="44.79546" lon="3.89236">
        <ele>1234</ele>
        <time>2017-12-19T22:12:26Z</time>
      </trkpt>
      <trkpt lat="44.79501" lon="3.89309">
        <ele>1231</ele>
        <time>2017-12-19T22:14:26Z</time>
      </trkpt>
      <trkpt lat="44.79455" lon="3.89328">
        <ele>1231</ele>
        <time>2017-12-19T22:16:26Z</time>
      </trkpt>
      <trkpt lat="44.79415" lon="3.89358">
        <ele>1233</ele>
        <time>2017-12-19T22:18:26Z</time>
      </trkpt>
      <trkpt lat="44.79357" lon="3.89376">
        <ele>1237</ele>
        <time>2017-12-19T22:20:26Z</time>
      </trkpt>
      <trkpt lat="44.79325" lon="3.89406">
        <ele>1241</ele>
        <time>2017-12-19T22:22:26Z</time>
      </trkpt>
      <trkpt lat="44.79258" lon="3.89388">
        <ele>1246</ele>
        <time>2017-12-19T22:24:26Z</time>
      </trkpt>
      <trkpt lat="44.79198" lon="3.89388">
        <ele>1248</ele>
        <time>2017-12-19T22:26:26Z</time>
      </trkpt>
      <trkpt lat="44.79176" lon="3.89376">
        <ele>1248</ele>
        <time>2017-12-19T22:28:26Z</time>
      </trkpt>
      <trkpt lat="44.79201" lon="3.89311">
        <ele>1247</ele>
        <time>2017-12-19T22:30:26Z</time>
      </trkpt>
      <trkpt lat="44.79239" lon="3.89236">
        <ele>1248</ele>
        <time>2017-12-19T22:32:26Z</time>
      </trkpt>
      <trkpt lat="44.79281" lon="3.89178">
        <ele>1250</ele>
        <time>2017-12-19T22:34:26Z</time>
      </trkpt>
      <trkpt lat="44.79327" lon="3.89167">
        <ele>1247</ele>
        <time>2017-12-19T22:36:26Z</time>
      </trkpt>
      <trkpt lat="44.79382" lon="3.89159">
        <ele>1246</ele>
        <time>2017-12-19T22:38:26Z</time>
      </trkpt>
      <trkpt lat="44.79394" lon="3.88912">
        <ele>1255</ele>
        <time>2017-12-19T22:40:26Z</time>
      </trkpt>
      <trkpt lat="44.79402" lon="3.88723">
        <ele>1249</ele>
        <time>2017-12-19T22:42:26Z</time>
      </trkpt>
      <trkpt lat="44.79301" lon="3.88766">
        <ele>1261</ele>
        <time>2017-12-19T22:44:26Z</time>
      </trkpt>
      <trkpt lat="44.79251" lon="3.88788">
        <ele>1266</ele>
        <time>2017-12-19T22:46:26Z</time>
      </trkpt>
      <trkpt lat="44.79195" lon="3.88785">
        <ele>1272</ele>
        <time>2017-12-19T22:48:26Z</time>
      </trkpt>
      <trkpt lat="44.79161" lon="3.88781">
        <ele>1275</ele>
        <time>2017-12-19T22:50:26Z</time>
      </trkpt>
      <trkpt lat="44.79109" lon="3.8885">
        <ele>1278</ele>
        <time>2017-12-19T22:52:26Z</time>
      </trkpt>
      <trkpt lat="44.79048" lon="3.8894">
        <ele>1274</ele>
        <time>2017-12-19T22:54:26Z</time>
      </trkpt>
      <trkpt lat="44.7898" lon="3.89043">
        <ele>1271</ele>
        <time>2017-12-19T22:56:26Z</time>
      </trkpt>
      <trkpt lat="44.7892" lon="3.89122">
        <ele>1270</ele>
        <time>2017-12-19T22:58:26Z</time>
      </trkpt>
      <trkpt lat="44.78863" lon="3.89187">
        <ele>1273</ele>
        <time>2017-12-19T23:00:26Z</time>
      </trkpt>
      <trkpt lat="44.78821" lon="3.89253">
        <ele>1273</ele>
        <time>2017-12-19T23:02:26Z</time>
      </trkpt>
      <trkpt lat="44.78695" lon="3.89425">
        <ele>1262</ele>
        <time>2017-12-19T23:04:26Z</time>
      </trkpt>
      <trkpt lat="44.78614" lon="3.89373">
        <ele>1264</ele>
        <time>2017-12-19T23:06:26Z</time>
      </trkpt>
      <trkpt lat="44.78563" lon="3.89337">
        <ele>1270</ele>
        <time>2017-12-19T23:08:26Z</time>
      </trkpt>
      <trkpt lat="44.78506" lon="3.89345">
        <ele>1268</ele>
        <time>2017-12-19T23:10:26Z</time>
      </trkpt>
      <trkpt lat="44.78453" lon="3.89358">
        <ele>1260</ele>
        <time>2017-12-19T23:12:26Z</time>
      </trkpt>
      <trkpt lat="44.78409" lon="3.89345">
        <ele>1258</ele>
        <time>2017-12-19T23:14:26Z</time>
      </trkpt>
      <trkpt lat="44.78357" lon="3.89326">
        <ele>1255</ele>
        <time>2017-12-19T23:16:26Z</time>
      </trkpt>
      <trkpt lat="44.78317" lon="3.89305">
        <ele>1252</ele>
        <time>2017-12-19T23:18:26Z</time>
      </trkpt>
      <trkpt lat="44.78276" lon="3.89305">
        <ele>1249</ele>
        <time>2017-12-19T23:20:26Z</time>
      </trkpt>
      <trkpt lat="44.78221" lon="3.89318">
        <ele>1245</ele>
        <time>2017-12-19T23:22:26Z</time>
      </trkpt>
      <trkpt lat="44.78157" lon="3.8929">
        <ele>1242</ele>
        <time>2017-12-19T23:24:26Z</time>
      </trkpt>
      <trkpt lat="44.78103" lon="3.89268">
        <ele>1242</ele>
        <time>2017-12-19T23:26:26Z</time>
      </trkpt>
      <trkpt lat="44.78014" lon="3.89234">
        <ele>1237</ele>
        <time>2017-12-19T23:28:26Z</time>
      </trkpt>
      <trkpt lat="44.7799" lon="3.89251">
        <ele>1237</ele>
        <time>2017-12-19T23:30:26Z</time>
      </trkpt>
      <trkpt lat="44.7793" lon="3.89225">
        <ele>1231</ele>
        <time>2017-12-19T23:32:26Z</time>
      </trkpt>
      <trkpt lat="44.77859" lon="3.89176">
        <ele>1225</ele>
        <time>2017-12-19T23:34:26Z</time>
      </trkpt>
      <trkpt lat="44.77798" lon="3.89107">
        <ele>1220</ele>
        <time>2017-12-19T23:36:26Z</time>
      </trkpt>
      <trkpt lat="44.77755" lon="3.89043">
        <ele>1214</ele>
        <time>2017-12-19T23:38:26Z</time>
      </trkpt>
      <trkpt lat="44.77732" lon="3.88991">
        <ele>1209</ele>
        <time>2017-12-19T23:40:26Z</time>
      </trkpt>
      <trkpt lat="44.77707" lon="3.88957">
        <ele>1206</ele>
        <time>2017-12-19T23:42:26Z</time>
      </trkpt>
      <trkpt lat="44.77633" lon="3.88918">
        <ele>1202</ele>
        <time>2017-12-19T23:44:26Z</time>
      </trkpt>
      <trkpt lat="44.776" lon="3.88893">
        <ele>1201</ele>
        <time>2017-12-19T23:46:26Z</time>
      </trkpt>
      <trkpt lat="44.77556" lon="3.88888">
        <ele>1200</ele>
        <time>2017-12-19T23:48:26Z</time>
      </trkpt>
      <trkpt lat="44.77519" lon="3.88856">
        <ele>1197</ele>
        <time>2017-12-19T23:50:26Z</time>
      </trkpt>
      <trkpt lat="44.77489" lon="3.88828">
        <ele>1195</ele>
        <time>2017-12-19T23:52:26Z</time>
      </trkpt>
      <trkpt lat="44.77449" lon="3.88747">
        <ele>1190</ele>
        <time>2017-12-19T23:54:26Z</time>
      </trkpt>
      <trkpt lat="44.77402" lon="3.88678">
        <ele>1190</ele>
        <time>2017-12-19T23:56:26Z</time>
      </trkpt>
      <trkpt lat="44.77364" lon="3.88601">
        <ele>1188</ele>
        <time>2017-12-19T23:58:26Z</time>
      </trkpt>
      <trkpt lat="44.77329" lon="3.88543">
        <ele>1184</ele>
        <time>2017-12-20T00:00:26Z</time>
      </trkpt>
      <trkpt lat="44.77266" lon="3.8847">
        <ele>1179</ele>
        <time>2017-12-20T00:02:26Z</time>
      </trkpt>
      <trkpt lat="44.77225" lon="3.88434">
        <ele>1174</ele>
        <time>2017-12-20T00:04:26Z</time>
      </trkpt>
      <trkpt lat="44.77183" lon="3.88401">
        <ele>1170</ele>
        <time>2017-12-20T00:06:26Z</time>
      </trkpt>
      <trkpt lat="44.77135" lon="3.8838">
        <ele>1167</ele>
        <time>2017-12-20T00:08:26Z</time>
      </trkpt>
      <trkpt lat="44.77065" lon="3.88333">
        <ele>1162</ele>
        <time>2017-12-20T00:10:26Z</time>
      </trkpt>
      <trkpt lat="44.77027" lon="3.88322">
        <ele>1158</ele>
        <time>2017-12-20T00:12:26Z</time>
      </trkpt>
      <trkpt lat="44.77001" lon="3.88352">
        <ele>1159</ele>
        <time>2017-12-20T00:14:26Z</time>
      </trkpt>
      <trkpt lat="44.76983" lon="3.8841">
        <ele>1158</ele>
        <time>2017-12-20T00:16:26Z</time>
      </trkpt>
      <trkpt lat="44.76945" lon="3.88406">
        <ele>1153</ele>
        <time>2017-12-20T00:18:26Z</time>
      </trkpt>
      <trkpt lat="44.76911" lon="3.88397">
        <ele>1149</ele>
        <time>2017-12-20T00:20:26Z</time>
      </trkpt>
      <trkpt lat="44.76881" lon="3.88408">
        <ele>1145</ele>
        <time>2017-12-20T00:22:26Z</time>
      </trkpt>
      <trkpt lat="44.76846" lon="3.88401">
        <ele>1142</ele>
        <time>2017-12-20T00:24:26Z</time>
      </trkpt>
      <trkpt lat="44.76815" lon="3.8841">
        <ele>1137</ele>
        <time>2017-12-20T00:26:26Z</time>
      </trkpt>
      <trkpt lat="44.76785" lon="3.88403">
        <ele>1134</ele>
        <time>2017-12-20T00:28:26Z</time>
      </trkpt>
      <trkpt lat="44.76751" lon="3.88354">
        <ele>1133</ele>
        <time>2017-12-20T00:30:26Z</time>
      </trkpt>
      <trkpt lat="44.76721" lon="3.88337">
        <ele>1130</ele>
        <time>2017-12-20T00:32:26Z</time>
      </trkpt>
      <trkpt lat="44.76686" lon="3.88337">
        <ele>1125</ele>
        <time>2017-12-20T00:34:26Z</time>
      </trkpt>
      <trkpt lat="44.7664" lon="3.88348">
        <ele>1120</ele>
        <time>2017-12-20T00:36:26Z</time>
      </trkpt>
      <trkpt lat="44.76593" lon="3.8838">
        <ele>1116</ele>
        <time>2017-12-20T00:38:26Z</time>
      </trkpt>
      <trkpt lat="44.76555" lon="3.88386">
        <ele>1112</ele>
        <time>2017-12-20T00:40:26Z</time>
      </trkpt>
      <trkpt lat="44.76534" lon="3.88339">
        <ele>1109</ele>
        <time>2017-12-20T00:42:26Z</time>
      </trkpt>
      <trkpt lat="44.7652" lon="3.88285">
        <ele>1108</ele>
        <time>2017-12-20T00:44:26Z</time>
      </trkpt>
      <trkpt lat="44.7648" lon="3.88251">
        <ele>1103</ele>
        <time>2017-12-20T00:46:26Z</time>
      </trkpt>
      <trkpt lat="44.7643" lon="3.88234">
        <ele>1098</ele>
        <time>2017-12-20T00:48:26Z</time>
      </trkpt>
      <trkpt lat="44.76377" lon="3.88208">
        <ele>1095</ele>
        <time>2017-12-20T00:50:26Z</time>
      </trkpt>
      <trkpt lat="44.76314" lon="3.88167">
        <ele>1093</ele>
        <time>2017-12-20T00:52:26Z</time>
      </trkpt>
      <trkpt lat="44.76265" lon="3.88129">
        <ele>1090</ele>
        <time>2017-12-20T00:54:26Z</time>
      </trkpt>
      <trkpt lat="44.76221" lon="3.8811">
        <ele>1084</ele>
        <time>2017-12-20T00:56:26Z</time>
      </trkpt>
      <trkpt lat="44.76169" lon="3.88073">
        <ele>1080</ele>
        <time>2017-12-20T00:58:26Z</time>
      </trkpt>
      <trkpt lat="44.76124" lon="3.88052">
        <ele>1075</ele>
        <time>2017-12-20T01:00:26Z</time>
      </trkpt>
      <trkpt lat="44.7608" lon="3.88041">
        <ele>1070</ele>
        <time>2017-12-20T01:02:26Z</time>
      </trkpt>
      <trkpt lat="44.76048" lon="3.88022">
        <ele>1068</ele>
        <time>2017-12-20T01:04:26Z</time>
      </trkpt>
      <trkpt lat="44.76011" lon="3.88">
        <ele>1066</ele>
        <time>2017-12-20T01:06:26Z</time>
      </trkpt>
      <trkpt lat="44.75961" lon="3.88007">
        <ele>1063</ele>
        <time>2017-12-20T01:08:26Z</time>
      </trkpt>
      <trkpt lat="44.759" lon="3.88052">
        <ele>1060</ele>
        <time>2017-12-20T01:10:26Z</time>
      </trkpt>
      <trkpt lat="44.7584" lon="3.88099">
        <ele>1060</ele>
        <time>2017-12-20T01:12:26Z</time>
      </trkpt>
      <trkpt lat="44.75772" lon="3.88135">
        <ele>1059</ele>
        <time>2017-12-20T01:14:26Z</time>
      </trkpt>
      <trkpt lat="44.75696" lon="3.88176">
        <ele>1055</ele>
        <time>2017-12-20T01:16:26Z</time>
      </trkpt>
      <trkpt lat="44.7563" lon="3.88185">
        <ele>1051</ele>
        <time>2017-12-20T01:18:26Z</time>
      </trkpt>
      <trkpt lat="44.75563" lon="3.88191">
        <ele>1042</ele>
        <time>2017-12-20T01:20:26Z</time>
      </trkpt>
      <trkpt lat="44.75505" lon="3.88187">
        <ele>1031</ele>
        <time>2017-12-20T01:22:26Z</time>
      </trkpt>
      <trkpt lat="44.7547" lon="3.88185">
        <ele>1028</ele>
        <time>2017-12-20T01:24:26Z</time>
      </trkpt>
      <trkpt lat="44.75435" lon="3.8812">
        <ele>1027</ele>
        <time>2017-12-20T01:26:26Z</time>
      </trkpt>
      <trkpt lat="44.75402" lon="3.88073">
        <ele>1026</ele>
        <time>2017-12-20T01:28:26Z</time>
      </trkpt>
      <trkpt lat="44.75391" lon="3.87991">
        <ele>1033</ele>
        <time>2017-12-20T01:30:26Z</time>
      </trkpt>
      <trkpt lat="44.75347" lon="3.87942">
        <ele>1028</ele>
        <time>2017-12-20T01:32:26Z</time>
      </trkpt>
      <trkpt lat="44.75301" lon="3.87891">
        <ele>1025</ele>
        <time>2017-12-20T01:34:26Z</time>
      </trkpt>
      <trkpt lat="44.75264" lon="3.87865">
        <ele>1024</ele>
        <time>2017-12-20T01:36:26Z</time>
      </trkpt>
      <trkpt lat="44.75225" lon="3.87835">
        <ele>1023</ele>
        <time>2017-12-20T01:38:26Z</time>
      </trkpt>
      <trkpt lat="44.75179" lon="3.87764">
        <ele>1023</ele>
        <time>2017-12-20T01:40:26Z</time>
      </trkpt>
      <trkpt lat="44.75141" lon="3.8771">
        <ele>1022</ele>
        <time>2017-12-20T01:42:26Z</time>
      </trkpt>
      <trkpt lat="44.75123" lon="3.87646">
        <ele>1023</ele>
        <time>2017-12-20T01:44:26Z</time>
      </trkpt>
      <trkpt lat="44.75135" lon="3.87543">
        <ele>1023</ele>
        <time>2017-12-20T01:46:26Z</time>
      </trkpt>
      <trkpt lat="44.75135" lon="3.87416">
        <ele>1022</ele>
        <time>2017-12-20T01:48:26Z</time>
      </trkpt>
      <trkpt lat="44.75141" lon="3.87271">
        <ele>1020</ele>
        <time>2017-12-20T01:50:26Z</time>
      </trkpt>
      <trkpt lat="44.75146" lon="3.87183">
        <ele>1019</ele>
        <time>2017-12-20T01:52:26Z</time>
      </trkpt>
      <trkpt lat="44.75167" lon="3.87101">
        <ele>1017</ele>
        <time>2017-12-20T01:54:26Z</time>
      </trkpt>
      <trkpt lat="44.75202" lon="3.8703">
        <ele>1015</ele>
        <time>2017-12-20T01:56:26Z</time>
      </trkpt>
      <trkpt lat="44.75222" lon="3.86966">
        <ele>1012</ele>
        <time>2017-12-20T01:58:26Z</time>
      </trkpt>
      <trkpt lat="44.7524" lon="3.86893">
        <ele>1010</ele>
        <time>2017-12-20T02:00:26Z</time>
      </trkpt>
      <trkpt lat="44.7524" lon="3.86798">
        <ele>1010</ele>
        <time>2017-12-20T02:02:26Z</time>
      </trkpt>
      <trkpt lat="44.75228" lon="3.86747">
        <ele>1009</ele>
        <time>2017-12-20T02:04:26Z</time>
      </trkpt>
      <trkpt lat="44.75277" lon="3.86668">
        <ele>1011</ele>
        <time>2017-12-20T02:06:26Z</time>
      </trkpt>
      <trkpt lat="44.75228" lon="3.86567">
        <ele>1013</ele>
        <time>2017-12-20T02:08:26Z</time>
      </trkpt>
      <trkpt lat="44.75174" lon="3.86487">
        <ele>1017</ele>
        <time>2017-12-20T02:10:26Z</time>
      </trkpt>
      <trkpt lat="44.75127" lon="3.86397">
        <ele>1012</ele>
        <time>2017-12-20T02:12:26Z</time>
      </trkpt>
      <trkpt lat="44.75063" lon="3.86307">
        <ele>1009</ele>
        <time>2017-12-20T02:14:26Z</time>
      </trkpt>
      <trkpt lat="44.74995" lon="3.86247">
        <ele>1009</ele>
        <time>2017-12-20T02:16:26Z</time>
      </trkpt>
      <trkpt lat="44.74932" lon="3.86198">
        <ele>1006</ele>
        <time>2017-12-20T02:18:26Z</time>
      </trkpt>
      <trkpt lat="44.74873" lon="3.8617">
        <ele>1003</ele>
        <time>2017-12-20T02:20:26Z</time>
      </trkpt>
      <trkpt lat="44.74826" lon="3.86155">
        <ele>1000</ele>
        <time>2017-12-20T02:22:26Z</time>
      </trkpt>
      <trkpt lat="44.74777" lon="3.8611">
        <ele>995</ele>
        <time>2017-12-20T02:24:26Z</time>
      </trkpt>
      <trkpt lat="44.74726" lon="3.86065">
        <ele>988</ele>
        <time>2017-12-20T02:26:26Z</time>
      </trkpt>
      <trkpt lat="44.74665" lon="3.86007">
        <ele>980</ele>
        <time>2017-12-20T02:28:26Z</time>
      </trkpt>
      <trkpt lat="44.74615" lon="3.8597">
        <ele>976</ele>
        <time>2017-12-20T02:30:26Z</time>
      </trkpt>
      <trkpt lat="44.74556" lon="3.85944">
        <ele>974</ele>
        <time>2017-12-20T02:32:26Z</time>
      </trkpt>
      <trkpt lat="44.74509" lon="3.85977">
        <ele>971</ele>
        <time>2017-12-20T02:34:26Z</time>
      </trkpt>
      <trkpt lat="44.74457" lon="3.86002">
        <ele>969</ele>
        <time>2017-12-20T02:36:26Z</time>
      </trkpt>
      <trkpt lat="44.744" lon="3.86007">
        <ele>969</ele>
        <time>2017-12-20T02:38:26Z</time>
      </trkpt>
      <trkpt lat="44.74361" lon="3.85985">
        <ele>972</ele>
        <time>2017-12-20T02:40:26Z</time>
      </trkpt>
      <trkpt lat="44.74306" lon="3.85966">
        <ele>971</ele>
        <time>2017-12-20T02:42:26Z</time>
      </trkpt>
      <trkpt lat="44.74254" lon="3.85947">
        <ele>969</ele>
        <time>2017-12-20T02:44:26Z</time>
      </trkpt>
      <trkpt lat="44.74211" lon="3.85906">
        <ele>965</ele>
        <time>2017-12-20T02:46:26Z</time>
      </trkpt>
      <trkpt lat="44.74196" lon="3.85846">
        <ele>962</ele>
        <time>2017-12-20T02:48:26Z</time>
      </trkpt>
      <trkpt lat="44.7419" lon="3.85773">
        <ele>961</ele>
        <time>2017-12-20T02:50:26Z</time>
      </trkpt>
      <trkpt lat="44.74149" lon="3.85717">
        <ele>957</ele>
        <time>2017-12-20T02:52:26Z</time>
      </trkpt>
      <trkpt lat="44.74094" lon="3.85687">
        <ele>949</ele>
        <time>2017-12-20T02:54:26Z</time>
      </trkpt>
      <trkpt lat="44.74044" lon="3.85659">
        <ele>943</ele>
        <time>2017-12-20T02:56:26Z</time>
      </trkpt>
      <trkpt lat="44.73986" lon="3.85655">
        <ele>937</ele>
        <time>2017-12-20T02:58:26Z</time>
      </trkpt>
      <trkpt lat="44.73946" lon="3.85696">
        <ele>931</ele>
        <time>2017-12-20T03:00:26Z</time>
      </trkpt>
      <trkpt lat="44.7391" lon="3.8573">
        <ele>923</ele>
        <time>2017-12-20T03:02:26Z</time>
      </trkpt>
      <trkpt lat="44.73855" lon="3.85721">
        <ele>918</ele>
        <time>2017-12-20T03:04:26Z</time>
      </trkpt>
      <trkpt lat="44.73783" lon="3.85706">
        <ele>911</ele>
        <time>2017-12-20T03:06:26Z</time>
      </trkpt>
      <trkpt lat="44.73727" lon="3.85696">
        <ele>906</ele>
        <time>2017-12-20T03:08:26Z</time>
      </trkpt>
      <trkpt lat="44.7371" lon="3.85768">
        <ele>907</ele>
        <time>2017-12-20T03:10:26Z</time>
      </trkpt>
      <trkpt lat="44.73678" lon="3.85756">
        <ele>906</ele>
        <time>2017-12-20T03:12:26Z</time>
      </trkpt>
      <trkpt lat="44.73629" lon="3.8579">
        <ele>908</ele>
        <time>2017-12-20T03:14:26Z</time>
      </trkpt>
      <trkpt lat="44.7357" lon="3.85835">
        <ele>908</ele>
        <time>2017-12-20T03:16:26Z</time>
      </trkpt>
      <trkpt lat="44.73516" lon="3.85822">
        <ele>904</ele>
        <time>2017-12-20T03:18:26Z</time>
      </trkpt>
      <trkpt lat="44.73471" lon="3.85741">
        <ele>901</ele>
        <time>2017-12-20T03:20:26Z</time>
      </trkpt>
      <trkpt lat="44.73431" lon="3.857">
        <ele>904</ele>
        <time>2017-12-20T03:22:26Z</time>
      </trkpt>
      <trkpt lat="44.73466" lon="3.85668">
        <ele>905</ele>
        <time>2017-12-20T03:24:26Z</time>
      </trkpt>
      <trkpt lat="44.73518" lon="3.85569">
        <ele>903</ele>
        <time>2017-12-20T03:26:26Z</time>
      </trkpt>
      <trkpt lat="44.73545" lon="3.8553">
        <ele>903</ele>
        <time>2017-12-20T03:28:26Z</time>
      </trkpt>
      <trkpt lat="44.73536" lon="3.8549">
        <ele>903</ele>
        <time>2017-12-20T03:30:26Z</time>
      </trkpt>
      <trkpt lat="44.73486" lon="3.85434">
        <ele>908</ele>
        <time>2017-12-20T03:32:26Z</time>
      </trkpt>
      <trkpt lat="44.73442" lon="3.85397">
        <ele>913</ele>
        <time>2017-12-20T03:34:26Z</time>
      </trkpt>
      <trkpt lat="44.73496" lon="3.85361">
        <ele>912</ele>
        <time>2017-12-20T03:36:26Z</time>
      </trkpt>
      <trkpt lat="44.73532" lon="3.8529">
        <ele>915</ele>
        <time>2017-12-20T03:38:26Z</time>
      </trkpt>
      <trkpt lat="44.73576" lon="3.85206">
        <ele>915</ele>
        <time>2017-12-20T03:40:26Z</time>
      </trkpt>
      <trkpt lat="44.73614" lon="3.85118">
        <ele>915</ele>
        <time>2017-12-20T03:42:26Z</time>
      </trkpt>
      <trkpt lat="44.73649" lon="3.85052">
        <ele>911</ele>
        <time>2017-12-20T03:44:26Z</time>
      </trkpt>
      <trkpt lat="44.73666" lon="3.84981">
        <ele>911</ele>
        <time>2017-12-20T03:46:26Z</time>
      </trkpt>
      <trkpt lat="44.73667" lon="3.8491">
        <ele>912</ele>
        <time>2017-12-20T03:48:26Z</time>
      </trkpt>
      <trkpt lat="44.73699" lon="3.84846">
        <ele>913</ele>
        <time>2017-12-20T03:50:26Z</time>
      </trkpt>
      <trkpt lat="44.73711" lon="3.84775">
        <ele>914</ele>
        <time>2017-12-20T03:52:26Z</time>
      </trkpt>
      <trkpt lat="44.73684" lon="3.84708">
        <ele>917</ele>
        <time>2017-12-20T03:54:26Z</time>
      </trkpt>
      <trkpt lat="44.73669" lon="3.84629">
        <ele>919</ele>
        <time>2017-12-20T03:56:26Z</time>
      </trkpt>
      <trkpt lat="44.73704" lon="3.84582">
        <ele>919</ele>
        <time>2017-12-20T03:58:26Z</time>
      </trkpt>
      <trkpt lat="44.73763" lon="3.84563">
        <ele>917</ele>
        <time>2017-12-20T04:00:26Z</time>
      </trkpt>
      <trkpt lat="44.73792" lon="3.84481">
        <ele>920</ele>
        <time>2017-12-20T04:02:26Z</time>
      </trkpt>
      <trkpt lat="44.73818" lon="3.84408">
        <ele>921</ele>
        <time>2017-12-20T04:04:26Z</time>
      </trkpt>
      <trkpt lat="44.7385" lon="3.84324">
        <ele>921</ele>
        <time>2017-12-20T04:06:26Z</time>
      </trkpt>
      <trkpt lat="44.73858" lon="3.84251">
        <ele>922</ele>
        <time>2017-12-20T04:08:26Z</time>
      </trkpt>
      <trkpt lat="44.73871" lon="3.84193">
        <ele>922</ele>
        <time>2017-12-20T04:10:26Z</time>
      </trkpt>
      <trkpt lat="44.73894" lon="3.84148">
        <ele>923</ele>
        <time>2017-12-20T04:12:26Z</time>
      </trkpt>
      <trkpt lat="44.73905" lon="3.84048">
        <ele>927</ele>
        <time>2017-12-20T04:14:26Z</time>
      </trkpt>
      <trkpt lat="44.73922" lon="3.83955">
        <ele>930</ele>
        <time>2017-12-20T04:16:26Z</time>
      </trkpt>
      <trkpt lat="44.73972" lon="3.83872">
        <ele>930</ele>
        <time>2017-12-20T04:18:26Z</time>
      </trkpt>
      <trkpt lat="44.74013" lon="3.83818">
        <ele>928</ele>
        <time>2017-12-20T04:20:26Z</time>
      </trkpt>
      <trkpt lat="44.74041" lon="3.83719">
        <ele>930</ele>
        <time>2017-12-20T04:22:26Z</time>
      </trkpt>
      <trkpt lat="44.74062" lon="3.83636">
        <ele>930</ele>
        <time>2017-12-20T04:24:26Z</time>
      </trkpt>
      <trkpt lat="44.7406" lon="3.8353">
        <ele>934</ele>
        <time>2017-12-20T04:26:26Z</time>
      </trkpt>
      <trkpt lat="44.74013" lon="3.83445">
        <ele>940</ele>
        <time>2017-12-20T04:28:26Z</time>
      </trkpt>
      <trkpt lat="44.73966" lon="3.83391">
        <ele>944</ele>
        <time>2017-12-20T04:30:26Z</time>
      </trkpt>
      <trkpt lat="44.73961" lon="3.83337">
        <ele>946</ele>
        <time>2017-12-20T04:32:26Z</time>
      </trkpt>
      <trkpt lat="44.7394" lon="3.83307">
        <ele>945</ele>
        <time>2017-12-20T04:34:26Z</time>
      </trkpt>
      <trkpt lat="44.73891" lon="3.8337">
        <ele>948</ele>
        <time>2017-12-20T04:36:26Z</time>
      </trkpt>
      <trkpt lat="44.73849" lon="3.83432">
        <ele>952</ele>
        <time>2017-12-20T04:38:26Z</time>
      </trkpt>
      <trkpt lat="44.73829" lon="3.83457">
        <ele>954</ele>
        <time>2017-12-20T04:40:26Z</time>
      </trkpt>
      <trkpt lat="44.73792" lon="3.83473">
        <ele>957</ele>
        <time>2017-12-20T04:42:26Z</time>
      </trkpt>
      <trkpt lat="44.73756" lon="3.83473">
        <ele>958</ele>
        <time>2017-12-20T04:44:26Z</time>
      </trkpt>
      <trkpt lat="44.73704" lon="3.83509">
        <ele>958</ele>
        <time>2017-12-20T04:46:26Z</time>
      </trkpt>
      <trkpt lat="44.73644" lon="3.83505">
        <ele>954</ele>
        <time>2017-12-20T04:48:26Z</time>
      </trkpt>
      <trkpt lat="44.73593" lon="3.83479">
        <ele>950</ele>
        <time>2017-12-20T04:50:26Z</time>
      </trkpt>
      <trkpt lat="44.7351" lon="3.83494">
        <ele>946</ele>
        <time>2017-12-20T04:52:26Z</time>
      </trkpt>
      <trkpt lat="44.73419" lon="3.83535">
        <ele>950</ele>
        <time>2017-12-20T04:54:26Z</time>
      </trkpt>
    </trkseg>
  </trk>
</gpx>